<?xml version='1.0' encoding='UTF-8'?><gpx version="1.1" creator="JPX - https://github.com/jenetics/jpx" xmlns="http://www.topografix.com/GPX/1/1"><trk><trkseg><trkpt lat="42.68458968198764" lon="11.816399795172673"><ele>494.0</ele><time>2026-04-25T15:11:32.999Z</time></trkpt><trkpt lat="42.68468303746733" lon="11.816387059499304"><ele>494.0</ele><time>2026-04-25T15:11:33.999Z</time></trkpt><trkpt lat="42.6847926336933" lon="11.816368131115947"><ele>494.0</ele><time>2026-04-25T15:11:34.999Z</time></trkpt><trkpt lat="42.68490526518003" lon="11.816345928446642"><ele>494.0</ele><time>2026-04-25T15:11:35.999Z</time></trkpt><trkpt lat="42.685007919043564" lon="11.816342422976858"><ele>494.0</ele><time>2026-04-25T15:11:36.999Z</time></trkpt><trkpt lat="42.68510652469358" lon="11.816347259479112"><ele>494.0</ele><time>2026-04-25T15:11:37.999Z</time></trkpt><trkpt lat="42.68520721442543" lon="11.816359053854852"><ele>494.0</ele><time>2026-04-25T15:11:38.999Z</time></trkpt><trkpt lat="42.68532066578065" lon="11.816372960757151"><ele>494.0</ele><time>2026-04-25T15:11:39.999Z</time></trkpt><trkpt lat="42.6854435834087" lon="11.81640526829527"><ele>494.0</ele><time>2026-04-25T15:11:40.999Z</time></trkpt><trkpt lat="42.68556802628539" lon="11.816470476515512"><ele>494.5</ele><time>2026-04-25T15:11:41.999Z</time></trkpt><trkpt lat="42.68568986650206" lon="11.816542708767166"><ele>495.0</ele><time>2026-04-25T15:11:42.999Z</time></trkpt><trkpt lat="42.685804022382" lon="11.816610181844817"><ele>495.5</ele><time>2026-04-25T15:11:43.999Z</time></trkpt><trkpt lat="42.68591262444576" lon="11.816666411754918"><ele>496.0</ele><time>2026-04-25T15:11:44.998Z</time></trkpt><trkpt lat="42.68602091700178" lon="11.816715320914332"><ele>495.0</ele><time>2026-04-25T15:11:45.998Z</time></trkpt><trkpt lat="42.686136019176445" lon="11.816742231726222"><ele>494.0</ele><time>2026-04-25T15:11:46.998Z</time></trkpt><trkpt lat="42.68626117534755" lon="11.816738636609312"><ele>493.0</ele><time>2026-04-25T15:11:47.998Z</time></trkpt><trkpt lat="42.686394086242984" lon="11.816718198718116"><ele>492.0</ele><time>2026-04-25T15:11:48.998Z</time></trkpt><trkpt lat="42.686529808925435" lon="11.81669702205438"><ele>492.0</ele><time>2026-04-25T15:11:49.998Z</time></trkpt><trkpt lat="42.68667179173056" lon="11.816673434820421"><ele>492.0</ele><time>2026-04-25T15:11:50.998Z</time></trkpt><trkpt lat="42.68681869027456" lon="11.81665360760993"><ele>492.0</ele><time>2026-04-25T15:11:51.998Z</time></trkpt><trkpt lat="42.686964295148314" lon="11.816634528325407"><ele>492.0</ele><time>2026-04-25T15:11:52.998Z</time></trkpt><trkpt lat="42.68710334557388" lon="11.816610806347706"><ele>492.25</ele><time>2026-04-25T15:11:53.998Z</time></trkpt><trkpt lat="42.687228678951485" lon="11.816604703437413"><ele>492.5</ele><time>2026-04-25T15:11:54.998Z</time></trkpt><trkpt lat="42.68734357411624" lon="11.81659545127368"><ele>492.75</ele><time>2026-04-25T15:11:55.998Z</time></trkpt><trkpt lat="42.68745819854692" lon="11.816595373629404"><ele>493.0</ele><time>2026-04-25T15:11:56.998Z</time></trkpt><trkpt lat="42.68756398086849" lon="11.816609386056887"><ele>493.0</ele><time>2026-04-25T15:11:57.998Z</time></trkpt><trkpt lat="42.68766678740956" lon="11.816637809798108"><ele>493.0</ele><time>2026-04-25T15:11:58.998Z</time></trkpt><trkpt lat="42.68777509641318" lon="11.816675676388474"><ele>493.0</ele><time>2026-04-25T15:11:59.998Z</time></trkpt><trkpt lat="42.68788393590382" lon="11.816724313893424"><ele>493.0</ele><time>2026-04-25T15:12:00.998Z</time></trkpt><trkpt lat="42.687995684262" lon="11.81678258785646"><ele>493.0</ele><time>2026-04-25T15:12:01.998Z</time></trkpt><trkpt lat="42.6881072412803" lon="11.816844359362443"><ele>493.0</ele><time>2026-04-25T15:12:02.998Z</time></trkpt><trkpt lat="42.68822240044696" lon="11.816905967972115"><ele>493.0</ele><time>2026-04-25T15:12:03.998Z</time></trkpt><trkpt lat="42.68833523377726" lon="11.816961567224247"><ele>493.0</ele><time>2026-04-25T15:12:04.998Z</time></trkpt><trkpt lat="42.688444021176906" lon="11.817057328547087"><ele>493.0</ele><time>2026-04-25T15:12:05.998Z</time></trkpt><trkpt lat="42.68856880039318" lon="11.817117732065276"><ele>493.0</ele><time>2026-04-25T15:12:06.998Z</time></trkpt><trkpt lat="42.68869499549192" lon="11.817180415457598"><ele>493.0</ele><time>2026-04-25T15:12:07.998Z</time></trkpt><trkpt lat="42.688823489295466" lon="11.817240660372956"><ele>493.0</ele><time>2026-04-25T15:12:08.998Z</time></trkpt><trkpt lat="42.688950405263" lon="11.817297880609509"><ele>492.25</ele><time>2026-04-25T15:12:09.998Z</time></trkpt><trkpt lat="42.68907697947244" lon="11.817346865195058"><ele>491.5</ele><time>2026-04-25T15:12:10.998Z</time></trkpt><trkpt lat="42.6891945791191" lon="11.8173760387627"><ele>490.75</ele><time>2026-04-25T15:12:11.998Z</time></trkpt><trkpt lat="42.689320980308786" lon="11.817377832644903"><ele>490.0</ele><time>2026-04-25T15:12:12.998Z</time></trkpt><trkpt lat="42.689447266920986" lon="11.817349394646818"><ele>489.25</ele><time>2026-04-25T15:12:13.998Z</time></trkpt><trkpt lat="42.68956825453904" lon="11.817319121487255"><ele>488.5</ele><time>2026-04-25T15:12:14.998Z</time></trkpt><trkpt lat="42.68969175317591" lon="11.817274678061011"><ele>487.75</ele><time>2026-04-25T15:12:15.998Z</time></trkpt><trkpt lat="42.68979264642679" lon="11.817229827282226"><ele>487.0</ele><time>2026-04-25T15:12:16.998Z</time></trkpt><trkpt lat="42.68990159453058" lon="11.81717805148098"><ele>487.0</ele><time>2026-04-25T15:12:17.998Z</time></trkpt><trkpt lat="42.690018474179944" lon="11.817131361685778"><ele>487.0</ele><time>2026-04-25T15:12:18.998Z</time></trkpt><trkpt lat="42.690128683140976" lon="11.817091171868974"><ele>487.0</ele><time>2026-04-25T15:12:19.998Z</time></trkpt><trkpt lat="42.69023295829586" lon="11.817047438170375"><ele>487.0</ele><time>2026-04-25T15:12:20.998Z</time></trkpt><trkpt lat="42.69033605771979" lon="11.81700907362356"><ele>486.6</ele><time>2026-04-25T15:12:21.998Z</time></trkpt><trkpt lat="42.690435135350356" lon="11.816972054197437"><ele>486.20000000000005</ele><time>2026-04-25T15:12:22.998Z</time></trkpt><trkpt lat="42.69052913686781" lon="11.816931551404197"><ele>485.8</ele><time>2026-04-25T15:12:23.998Z</time></trkpt><trkpt lat="42.69062872070994" lon="11.81689693176225"><ele>485.4</ele><time>2026-04-25T15:12:24.998Z</time></trkpt><trkpt lat="42.690729642689426" lon="11.816873069732287"><ele>485.0</ele><time>2026-04-25T15:12:25.998Z</time></trkpt><trkpt lat="42.69082074612315" lon="11.816848889138061"><ele>485.0</ele><time>2026-04-25T15:12:26.998Z</time></trkpt><trkpt lat="42.69091007748983" lon="11.81682606562005"><ele>485.0</ele><time>2026-04-25T15:12:27.998Z</time></trkpt><trkpt lat="42.6910059321962" lon="11.816813263552447"><ele>485.0</ele><time>2026-04-25T15:12:28.998Z</time></trkpt><trkpt lat="42.691100998843424" lon="11.816811341580511"><ele>485.0</ele><time>2026-04-25T15:12:29.998Z</time></trkpt><trkpt lat="42.69118178981806" lon="11.816833598571337"><ele>485.0</ele><time>2026-04-25T15:12:30.998Z</time></trkpt><trkpt lat="42.69125905101053" lon="11.81677900594303"><ele>485.16666666666663</ele><time>2026-04-25T15:12:31.998Z</time></trkpt><trkpt lat="42.691337753184364" lon="11.816739141498665"><ele>485.3333333333333</ele><time>2026-04-25T15:12:32.998Z</time></trkpt><trkpt lat="42.69142938966704" lon="11.816713997916231"><ele>485.5</ele><time>2026-04-25T15:12:33.998Z</time></trkpt><trkpt lat="42.6915205540558" lon="11.816713786978385"><ele>485.66666666666663</ele><time>2026-04-25T15:12:34.998Z</time></trkpt><trkpt lat="42.6916128889779" lon="11.816744599421895"><ele>485.8333333333333</ele><time>2026-04-25T15:12:35.998Z</time></trkpt><trkpt lat="42.6916972332423" lon="11.816759836748187"><ele>486.0</ele><time>2026-04-25T15:12:36.998Z</time></trkpt><trkpt lat="42.69178145163292" lon="11.816773396042633"><ele>486.0</ele><time>2026-04-25T15:12:37.998Z</time></trkpt><trkpt lat="42.69186500428899" lon="11.816791038123617"><ele>486.0</ele><time>2026-04-25T15:12:38.998Z</time></trkpt><trkpt lat="42.69194879562813" lon="11.816805134794999"><ele>486.0</ele><time>2026-04-25T15:12:39.999Z</time></trkpt><trkpt lat="42.69202005468519" lon="11.816844949864144"><ele>486.0</ele><time>2026-04-25T15:12:40.998Z</time></trkpt><trkpt lat="42.69210231243832" lon="11.816854135402842"><ele>486.0</ele><time>2026-04-25T15:12:41.998Z</time></trkpt><trkpt lat="42.6921774842171" lon="11.816846551052606"><ele>486.0</ele><time>2026-04-25T15:12:42.999Z</time></trkpt><trkpt lat="42.69227641567444" lon="11.8168000109605"><ele>485.8333333333333</ele><time>2026-04-25T15:12:43.999Z</time></trkpt><trkpt lat="42.692359478416186" lon="11.816750106658557"><ele>485.66666666666663</ele><time>2026-04-25T15:12:44.999Z</time></trkpt><trkpt lat="42.692439788484386" lon="11.816698254906685"><ele>485.5</ele><time>2026-04-25T15:12:45.998Z</time></trkpt><trkpt lat="42.69251552313799" lon="11.816638846504166"><ele>485.3333333333333</ele><time>2026-04-25T15:12:46.998Z</time></trkpt><trkpt lat="42.6926023668729" lon="11.816605592867266"><ele>485.16666666666663</ele><time>2026-04-25T15:12:47.998Z</time></trkpt><trkpt lat="42.692674470098225" lon="11.816536223380282"><ele>485.0</ele><time>2026-04-25T15:12:48.998Z</time></trkpt><trkpt lat="42.69273933199164" lon="11.816488943011201"><ele>482.8333333333333</ele><time>2026-04-25T15:12:49.998Z</time></trkpt><trkpt lat="42.69280062958876" lon="11.816452990917902"><ele>480.66666666666663</ele><time>2026-04-25T15:12:50.998Z</time></trkpt><trkpt lat="42.692851968055464" lon="11.816398755645066"><ele>478.5</ele><time>2026-04-25T15:12:51.998Z</time></trkpt><trkpt lat="42.692938212336735" lon="11.816302993256647"><ele>476.33333333333337</ele><time>2026-04-25T15:12:53.998Z</time></trkpt><trkpt lat="42.69300509694468" lon="11.816213448697038"><ele>474.1666666666667</ele><time>2026-04-25T15:12:55.998Z</time></trkpt><trkpt lat="42.69304580607262" lon="11.816117840205372"><ele>472.0</ele><time>2026-04-25T15:12:57.998Z</time></trkpt><trkpt lat="42.693083069331735" lon="11.816030928947477"><ele>475.20000000000005</ele><time>2026-04-25T15:13:00.998Z</time></trkpt><trkpt lat="42.69315550848179" lon="11.815933728002245"><ele>478.40000000000003</ele><time>2026-04-25T15:13:03.998Z</time></trkpt><trkpt lat="42.693261541878364" lon="11.8158050285951"><ele>481.59999999999997</ele><time>2026-04-25T15:13:05.998Z</time></trkpt><trkpt lat="42.693331982762004" lon="11.815722726685499"><ele>484.79999999999995</ele><time>2026-04-25T15:13:06.998Z</time></trkpt><trkpt lat="42.69340733518313" lon="11.81563499971417"><ele>488.0</ele><time>2026-04-25T15:13:07.998Z</time></trkpt><trkpt lat="42.69347607090927" lon="11.815551847957723"><ele>488.0</ele><time>2026-04-25T15:13:08.998Z</time></trkpt><trkpt lat="42.69354064370944" lon="11.81547131385933"><ele>487.99999999999994</ele><time>2026-04-25T15:13:09.998Z</time></trkpt><trkpt lat="42.693605675159596" lon="11.815388631866925"><ele>487.99999999999994</ele><time>2026-04-25T15:13:10.998Z</time></trkpt><trkpt lat="42.69367020123713" lon="11.815300839210737"><ele>488.0</ele><time>2026-04-25T15:13:11.998Z</time></trkpt><trkpt lat="42.69372526118712" lon="11.815191484623407"><ele>488.0</ele><time>2026-04-25T15:13:12.998Z</time></trkpt><trkpt lat="42.69379642470002" lon="11.815116261210823"><ele>487.79999999999995</ele><time>2026-04-25T15:13:13.998Z</time></trkpt><trkpt lat="42.69385808818347" lon="11.815028692384018"><ele>487.59999999999997</ele><time>2026-04-25T15:13:14.998Z</time></trkpt><trkpt lat="42.6939214684354" lon="11.814935030083653"><ele>487.40000000000003</ele><time>2026-04-25T15:13:15.998Z</time></trkpt><trkpt lat="42.69398446097401" lon="11.81483651561564"><ele>487.20000000000005</ele><time>2026-04-25T15:13:16.998Z</time></trkpt><trkpt lat="42.69405848486097" lon="11.81473112424948"><ele>487.0</ele><time>2026-04-25T15:13:17.998Z</time></trkpt><trkpt lat="42.69413493325786" lon="11.814624949098917"><ele>487.0</ele><time>2026-04-25T15:13:18.998Z</time></trkpt><trkpt lat="42.694209820028206" lon="11.814521112837907"><ele>487.00000000000006</ele><time>2026-04-25T15:13:19.998Z</time></trkpt><trkpt lat="42.69428435052967" lon="11.814415600263061"><ele>487.00000000000006</ele><time>2026-04-25T15:13:20.998Z</time></trkpt><trkpt lat="42.69435886467341" lon="11.814306652549861"><ele>487.0</ele><time>2026-04-25T15:13:21.998Z</time></trkpt><trkpt lat="42.694435217474336" lon="11.814198418636071"><ele>487.0</ele><time>2026-04-25T15:13:22.998Z</time></trkpt><trkpt lat="42.69450133315053" lon="11.814090523394393"><ele>486.42857142857144</ele><time>2026-04-25T15:13:23.998Z</time></trkpt><trkpt lat="42.69455951191332" lon="11.813999552322066"><ele>485.85714285714283</ele><time>2026-04-25T15:13:24.998Z</time></trkpt><trkpt lat="42.694595470265284" lon="11.81390719814604"><ele>485.2857142857143</ele><time>2026-04-25T15:13:25.998Z</time></trkpt><trkpt lat="42.69461494520326" lon="11.813818428351501"><ele>484.7142857142857</ele><time>2026-04-25T15:13:26.998Z</time></trkpt><trkpt lat="42.6946044599447" lon="11.81372983001422"><ele>484.1428571428571</ele><time>2026-04-25T15:13:27.998Z</time></trkpt><trkpt lat="42.694558253724935" lon="11.813650201112548"><ele>483.57142857142856</ele><time>2026-04-25T15:13:28.998Z</time></trkpt><trkpt lat="42.694495242524084" lon="11.813597067167985"><ele>483.0</ele><time>2026-04-25T15:13:29.998Z</time></trkpt><trkpt lat="42.69443169860216" lon="11.81356712611905"><ele>483.1666666666667</ele><time>2026-04-25T15:13:30.998Z</time></trkpt><trkpt lat="42.69435395716411" lon="11.81359993371851"><ele>483.33333333333337</ele><time>2026-04-25T15:13:31.998Z</time></trkpt><trkpt lat="42.694300814787766" lon="11.813705206878893"><ele>483.5</ele><time>2026-04-25T15:13:32.998Z</time></trkpt><trkpt lat="42.69426417474872" lon="11.81380851859107"><ele>483.6666666666667</ele><time>2026-04-25T15:13:33.998Z</time></trkpt><trkpt lat="42.694208428236415" lon="11.813907349569524"><ele>483.83333333333337</ele><time>2026-04-25T15:13:34.998Z</time></trkpt><trkpt lat="42.69417316875527" lon="11.813998418286705"><ele>484.0</ele><time>2026-04-25T15:13:35.998Z</time></trkpt><trkpt lat="42.69414015004311" lon="11.814088955716658"><ele>484.0</ele><time>2026-04-25T15:13:36.998Z</time></trkpt><trkpt lat="42.69408646021215" lon="11.814157414890394"><ele>484.0</ele><time>2026-04-25T15:13:37.998Z</time></trkpt><trkpt lat="42.6939958701278" lon="11.814170909775934"><ele>484.0</ele><time>2026-04-25T15:13:39.998Z</time></trkpt><trkpt lat="42.69394853333598" lon="11.814011545162705"><ele>484.0</ele><time>2026-04-25T15:13:41.998Z</time></trkpt><trkpt lat="42.69396490213802" lon="11.813893404917225"><ele>484.0</ele><time>2026-04-25T15:13:42.998Z</time></trkpt><trkpt lat="42.69400322646989" lon="11.813761716463516"><ele>484.0</ele><time>2026-04-25T15:13:43.998Z</time></trkpt><trkpt lat="42.69405340278218" lon="11.813621531567149"><ele>484.0</ele><time>2026-04-25T15:13:44.998Z</time></trkpt><trkpt lat="42.69408766168214" lon="11.813473306946413"><ele>484.0</ele><time>2026-04-25T15:13:45.998Z</time></trkpt><trkpt lat="42.69409258582467" lon="11.813314166757774"><ele>484.0</ele><time>2026-04-25T15:13:46.997Z</time></trkpt><trkpt lat="42.6940692593398" lon="11.813152825800648"><ele>482.5</ele><time>2026-04-25T15:13:47.997Z</time></trkpt><trkpt lat="42.694039187290564" lon="11.812981298521638"><ele>481.0</ele><time>2026-04-25T15:13:48.997Z</time></trkpt><trkpt lat="42.694007837660884" lon="11.812811286247936"><ele>479.5</ele><time>2026-04-25T15:13:49.997Z</time></trkpt><trkpt lat="42.69399875912793" lon="11.812644776717955"><ele>478.0</ele><time>2026-04-25T15:13:50.997Z</time></trkpt><trkpt lat="42.694000309521755" lon="11.81247520660588"><ele>476.4</ele><time>2026-04-25T15:13:51.997Z</time></trkpt><trkpt lat="42.69401256811556" lon="11.812331465638675"><ele>474.79999999999995</ele><time>2026-04-25T15:13:52.997Z</time></trkpt><trkpt lat="42.694039823649085" lon="11.812206225193787"><ele>473.2</ele><time>2026-04-25T15:13:53.997Z</time></trkpt><trkpt lat="42.69408131165694" lon="11.812091020044784"><ele>471.6</ele><time>2026-04-25T15:13:54.997Z</time></trkpt><trkpt lat="42.694151564374756" lon="11.811995489895462"><ele>470.0</ele><time>2026-04-25T15:13:55.997Z</time></trkpt><trkpt lat="42.69422009416105" lon="11.811898216479694"><ele>468.25</ele><time>2026-04-25T15:13:56.997Z</time></trkpt><trkpt lat="42.694302863225474" lon="11.811817760565098"><ele>466.5</ele><time>2026-04-25T15:13:57.997Z</time></trkpt><trkpt lat="42.69439740730273" lon="11.8117399375383"><ele>464.75</ele><time>2026-04-25T15:13:58.997Z</time></trkpt><trkpt lat="42.69450087799855" lon="11.811678916031845"><ele>463.0</ele><time>2026-04-25T15:13:59.997Z</time></trkpt><trkpt lat="42.69462105348612" lon="11.811618561510029"><ele>463.0</ele><time>2026-04-25T15:14:00.997Z</time></trkpt><trkpt lat="42.69475467095979" lon="11.811574406466379"><ele>463.0</ele><time>2026-04-25T15:14:01.997Z</time></trkpt><trkpt lat="42.694909234935125" lon="11.81153784784067"><ele>463.0</ele><time>2026-04-25T15:14:02.997Z</time></trkpt><trkpt lat="42.69507283099795" lon="11.81149259200694"><ele>463.0</ele><time>2026-04-25T15:14:03.997Z</time></trkpt><trkpt lat="42.69524059049064" lon="11.811428062897598"><ele>463.0</ele><time>2026-04-25T15:14:04.997Z</time></trkpt><trkpt lat="42.69540753951771" lon="11.811377276349177"><ele>463.0</ele><time>2026-04-25T15:14:05.997Z</time></trkpt><trkpt lat="42.69557746777274" lon="11.811338620379045"><ele>465.0</ele><time>2026-04-25T15:14:06.997Z</time></trkpt><trkpt lat="42.69574168762414" lon="11.811287240323434"><ele>467.0</ele><time>2026-04-25T15:14:07.997Z</time></trkpt><trkpt lat="42.695903352764354" lon="11.811238164991806"><ele>469.0</ele><time>2026-04-25T15:14:08.997Z</time></trkpt><trkpt lat="42.696054460012" lon="11.811183780810591"><ele>468.25</ele><time>2026-04-25T15:14:09.997Z</time></trkpt><trkpt lat="42.69618950468556" lon="11.811125536086019"><ele>467.5</ele><time>2026-04-25T15:14:10.997Z</time></trkpt><trkpt lat="42.696309521969994" lon="11.811044266340451"><ele>466.75</ele><time>2026-04-25T15:14:11.997Z</time></trkpt><trkpt lat="42.69640813155678" lon="11.810927917688684"><ele>466.0</ele><time>2026-04-25T15:14:12.997Z</time></trkpt><trkpt lat="42.69648230170012" lon="11.81077982188528"><ele>462.25</ele><time>2026-04-25T15:14:13.997Z</time></trkpt><trkpt lat="42.69653780851723" lon="11.810619634949614"><ele>458.5</ele><time>2026-04-25T15:14:14.997Z</time></trkpt><trkpt lat="42.6965794145746" lon="11.810455793045225"><ele>454.75</ele><time>2026-04-25T15:14:15.997Z</time></trkpt><trkpt lat="42.69661458822037" lon="11.81029406265766"><ele>451.0</ele><time>2026-04-25T15:14:16.997Z</time></trkpt><trkpt lat="42.696660540401005" lon="11.810150604327973"><ele>451.0</ele><time>2026-04-25T15:14:17.997Z</time></trkpt><trkpt lat="42.69673048927537" lon="11.810030910587958"><ele>451.0</ele><time>2026-04-25T15:14:18.997Z</time></trkpt><trkpt lat="42.696824668617616" lon="11.809947475702016"><ele>451.0</ele><time>2026-04-25T15:14:19.997Z</time></trkpt><trkpt lat="42.69693603348832" lon="11.809875770206286"><ele>451.0</ele><time>2026-04-25T15:14:20.997Z</time></trkpt><trkpt lat="42.69705930854474" lon="11.809818087903619"><ele>448.6666666666667</ele><time>2026-04-25T15:14:21.997Z</time></trkpt><trkpt lat="42.69719786654795" lon="11.809770655954612"><ele>446.33333333333337</ele><time>2026-04-25T15:14:22.997Z</time></trkpt><trkpt lat="42.6973484906819" lon="11.809727233992922"><ele>444.0</ele><time>2026-04-25T15:14:23.997Z</time></trkpt><trkpt lat="42.69751755904563" lon="11.809701384146306"><ele>444.0</ele><time>2026-04-25T15:14:24.997Z</time></trkpt><trkpt lat="42.69769575691571" lon="11.809703987924626"><ele>444.0</ele><time>2026-04-25T15:14:25.997Z</time></trkpt><trkpt lat="42.69787137029722" lon="11.809704089120117"><ele>444.0</ele><time>2026-04-25T15:14:26.997Z</time></trkpt><trkpt lat="42.69803626157133" lon="11.809694508724498"><ele>444.33333333333337</ele><time>2026-04-25T15:14:27.997Z</time></trkpt><trkpt lat="42.69820667567319" lon="11.809678826522557"><ele>444.6666666666667</ele><time>2026-04-25T15:14:28.997Z</time></trkpt><trkpt lat="42.698374285826674" lon="11.809644359755337"><ele>445.0</ele><time>2026-04-25T15:14:29.997Z</time></trkpt><trkpt lat="42.69854126364161" lon="11.809593113287555"><ele>445.33333333333337</ele><time>2026-04-25T15:14:30.997Z</time></trkpt><trkpt lat="42.69871160601665" lon="11.80951954086813"><ele>445.66666666666663</ele><time>2026-04-25T15:14:31.997Z</time></trkpt><trkpt lat="42.69887490397362" lon="11.80942926044041"><ele>446.0</ele><time>2026-04-25T15:14:32.997Z</time></trkpt><trkpt lat="42.699048934295654" lon="11.809350869803346"><ele>446.66666666666663</ele><time>2026-04-25T15:14:33.997Z</time></trkpt><trkpt lat="42.69922661039047" lon="11.809273723987438"><ele>447.33333333333337</ele><time>2026-04-25T15:14:34.997Z</time></trkpt><trkpt lat="42.699405725249285" lon="11.80920504696739"><ele>448.0</ele><time>2026-04-25T15:14:35.997Z</time></trkpt><trkpt lat="42.69958751967671" lon="11.809163362152864"><ele>448.0</ele><time>2026-04-25T15:14:36.997Z</time></trkpt><trkpt lat="42.69976429125852" lon="11.809178635297211"><ele>448.0</ele><time>2026-04-25T15:14:37.997Z</time></trkpt><trkpt lat="42.69993842131613" lon="11.809177791636344"><ele>448.0</ele><time>2026-04-25T15:14:38.997Z</time></trkpt><trkpt lat="42.700117891096035" lon="11.809181459298987"><ele>447.6666666666667</ele><time>2026-04-25T15:14:39.997Z</time></trkpt><trkpt lat="42.700295130419974" lon="11.809201661111468"><ele>447.33333333333337</ele><time>2026-04-25T15:14:40.997Z</time></trkpt><trkpt lat="42.70045112461323" lon="11.809202992052878"><ele>447.0</ele><time>2026-04-25T15:14:41.997Z</time></trkpt><trkpt lat="42.70059843716719" lon="11.80921242869735"><ele>447.0</ele><time>2026-04-25T15:14:42.998Z</time></trkpt><trkpt lat="42.70073176846165" lon="11.809210628274156"><ele>447.00000000000006</ele><time>2026-04-25T15:14:43.998Z</time></trkpt><trkpt lat="42.70084988881102" lon="11.80917069871371"><ele>447.00000000000006</ele><time>2026-04-25T15:14:44.998Z</time></trkpt><trkpt lat="42.70093998904436" lon="11.809115850730715"><ele>447.0</ele><time>2026-04-25T15:14:45.998Z</time></trkpt><trkpt lat="42.700999765909266" lon="11.80905159716704"><ele>447.0</ele><time>2026-04-25T15:14:46.998Z</time></trkpt><trkpt lat="42.701023101902734" lon="11.808962107949679"><ele>447.0</ele><time>2026-04-25T15:14:47.998Z</time></trkpt><trkpt lat="42.70102291591044" lon="11.808856481203971"><ele>447.00000000000006</ele><time>2026-04-25T15:14:48.998Z</time></trkpt><trkpt lat="42.700992189454105" lon="11.808739218487755"><ele>447.00000000000006</ele><time>2026-04-25T15:14:49.998Z</time></trkpt><trkpt lat="42.70094086370091" lon="11.808623702283395"><ele>447.0</ele><time>2026-04-25T15:14:50.998Z</time></trkpt><trkpt lat="42.70086671493852" lon="11.80849776368894"><ele>447.0</ele><time>2026-04-25T15:14:51.998Z</time></trkpt><trkpt lat="42.70078165058435" lon="11.808367191154955"><ele>448.0</ele><time>2026-04-25T15:14:52.998Z</time></trkpt><trkpt lat="42.70068152178896" lon="11.80825970937168"><ele>449.0</ele><time>2026-04-25T15:14:53.998Z</time></trkpt><trkpt lat="42.70056943470984" lon="11.808159049670108"><ele>450.0</ele><time>2026-04-25T15:14:54.998Z</time></trkpt><trkpt lat="42.70046229057176" lon="11.808057419932833"><ele>451.0</ele><time>2026-04-25T15:14:55.998Z</time></trkpt><trkpt lat="42.70033948410604" lon="11.807980144290669"><ele>454.0</ele><time>2026-04-25T15:14:56.998Z</time></trkpt><trkpt lat="42.700215678714194" lon="11.807900780780589"><ele>457.0</ele><time>2026-04-25T15:14:57.998Z</time></trkpt><trkpt lat="42.70008510807613" lon="11.807835740429985"><ele>460.0</ele><time>2026-04-25T15:14:58.998Z</time></trkpt><trkpt lat="42.69995251523638" lon="11.80777535248167"><ele>463.0</ele><time>2026-04-25T15:14:59.998Z</time></trkpt><trkpt lat="42.699819807059455" lon="11.807736172346335"><ele>463.0</ele><time>2026-04-25T15:15:00.998Z</time></trkpt><trkpt lat="42.69968102713892" lon="11.807714240178154"><ele>463.0</ele><time>2026-04-25T15:15:01.998Z</time></trkpt><trkpt lat="42.699532357437676" lon="11.807705971397617"><ele>463.0</ele><time>2026-04-25T15:15:02.998Z</time></trkpt><trkpt lat="42.699388981623414" lon="11.807707571670525"><ele>463.0</ele><time>2026-04-25T15:15:03.998Z</time></trkpt><trkpt lat="42.69925938400458" lon="11.807699617698901"><ele>464.25</ele><time>2026-04-25T15:15:04.998Z</time></trkpt><trkpt lat="42.69913461136531" lon="11.807662927587346"><ele>465.5</ele><time>2026-04-25T15:15:05.998Z</time></trkpt><trkpt lat="42.69901313817887" lon="11.807598536274858"><ele>466.75</ele><time>2026-04-25T15:15:06.998Z</time></trkpt><trkpt lat="42.69889014670007" lon="11.807526042632079"><ele>468.0</ele><time>2026-04-25T15:15:07.998Z</time></trkpt><trkpt lat="42.69876404333034" lon="11.8074578536536"><ele>468.0</ele><time>2026-04-25T15:15:08.998Z</time></trkpt><trkpt lat="42.698637153002394" lon="11.807383534566322"><ele>468.0</ele><time>2026-04-25T15:15:09.998Z</time></trkpt><trkpt lat="42.69852274106604" lon="11.80732124376699"><ele>468.0</ele><time>2026-04-25T15:15:10.998Z</time></trkpt><trkpt lat="42.69842273149466" lon="11.80726968573422"><ele>468.0</ele><time>2026-04-25T15:15:11.998Z</time></trkpt><trkpt lat="42.698349978631875" lon="11.807204959691328"><ele>469.1666666666667</ele><time>2026-04-25T15:15:12.998Z</time></trkpt><trkpt lat="42.69830678795244" lon="11.807117984158788"><ele>470.33333333333337</ele><time>2026-04-25T15:15:13.998Z</time></trkpt><trkpt lat="42.69829939637149" lon="11.807008832445328"><ele>471.5</ele><time>2026-04-25T15:15:14.998Z</time></trkpt><trkpt lat="42.69833031369223" lon="11.806906465861847"><ele>472.6666666666667</ele><time>2026-04-25T15:15:15.998Z</time></trkpt><trkpt lat="42.69838466729218" lon="11.806816878723945"><ele>473.83333333333337</ele><time>2026-04-25T15:15:16.998Z</time></trkpt><trkpt lat="42.69845547350593" lon="11.806733003742202"><ele>475.0</ele><time>2026-04-25T15:15:17.998Z</time></trkpt><trkpt lat="42.6985374333799" lon="11.806644907821154"><ele>474.5</ele><time>2026-04-25T15:15:18.998Z</time></trkpt><trkpt lat="42.698630293038576" lon="11.806543912083137"><ele>474.0</ele><time>2026-04-25T15:15:19.998Z</time></trkpt><trkpt lat="42.698734345290646" lon="11.806435515134263"><ele>473.5</ele><time>2026-04-25T15:15:20.998Z</time></trkpt><trkpt lat="42.69884544384154" lon="11.806323083814862"><ele>473.0</ele><time>2026-04-25T15:15:21.998Z</time></trkpt><trkpt lat="42.698961543414505" lon="11.806202084761924"><ele>473.0</ele><time>2026-04-25T15:15:22.998Z</time></trkpt><trkpt lat="42.69907623898682" lon="11.806076935221883"><ele>473.0</ele><time>2026-04-25T15:15:23.998Z</time></trkpt><trkpt lat="42.699185323695" lon="11.805955234813103"><ele>473.0</ele><time>2026-04-25T15:15:24.998Z</time></trkpt><trkpt lat="42.69928981610308" lon="11.80583625122831"><ele>473.0</ele><time>2026-04-25T15:15:25.998Z</time></trkpt><trkpt lat="42.699390366348766" lon="11.805715579551677"><ele>473.59999999999997</ele><time>2026-04-25T15:15:26.998Z</time></trkpt><trkpt lat="42.69946912430548" lon="11.805582661195942"><ele>474.19999999999993</ele><time>2026-04-25T15:15:27.998Z</time></trkpt><trkpt lat="42.6995122728316" lon="11.80545850375134"><ele>474.8</ele><time>2026-04-25T15:15:28.998Z</time></trkpt><trkpt lat="42.69950981826206" lon="11.805337322529423"><ele>475.4</ele><time>2026-04-25T15:15:29.998Z</time></trkpt><trkpt lat="42.699469501621" lon="11.805229695548503"><ele>476.0</ele><time>2026-04-25T15:15:30.998Z</time></trkpt><trkpt lat="42.69939667131742" lon="11.805138845018792"><ele>474.5</ele><time>2026-04-25T15:15:31.998Z</time></trkpt><trkpt lat="42.69930000293802" lon="11.805075500409279"><ele>473.0</ele><time>2026-04-25T15:15:32.998Z</time></trkpt><trkpt lat="42.699186560237536" lon="11.805031879226991"><ele>471.5</ele><time>2026-04-25T15:15:33.998Z</time></trkpt><trkpt lat="42.699066402516436" lon="11.80497950189587"><ele>470.0</ele><time>2026-04-25T15:15:34.998Z</time></trkpt><trkpt lat="42.69893648519013" lon="11.804930558390435"><ele>470.0</ele><time>2026-04-25T15:15:35.998Z</time></trkpt><trkpt lat="42.69881084282905" lon="11.804880154414802"><ele>470.0</ele><time>2026-04-25T15:15:36.998Z</time></trkpt><trkpt lat="42.69868827827284" lon="11.804832928635792"><ele>470.0</ele><time>2026-04-25T15:15:37.998Z</time></trkpt><trkpt lat="42.69857350954493" lon="11.804767412003237"><ele>470.0</ele><time>2026-04-25T15:15:38.998Z</time></trkpt><trkpt lat="42.69848711091165" lon="11.804674941187015"><ele>468.4</ele><time>2026-04-25T15:15:39.998Z</time></trkpt><trkpt lat="42.6984334450172" lon="11.804555360344796"><ele>466.8</ele><time>2026-04-25T15:15:40.998Z</time></trkpt><trkpt lat="42.69841380570361" lon="11.804420517960047"><ele>465.20000000000005</ele><time>2026-04-25T15:15:41.997Z</time></trkpt><trkpt lat="42.698417426318706" lon="11.804282588911992"><ele>463.6</ele><time>2026-04-25T15:15:42.997Z</time></trkpt><trkpt lat="42.69845191448887" lon="11.804142439907254"><ele>462.0</ele><time>2026-04-25T15:15:43.997Z</time></trkpt><trkpt lat="42.69850875213925" lon="11.804005877195227"><ele>463.75</ele><time>2026-04-25T15:15:44.997Z</time></trkpt><trkpt lat="42.69858886433308" lon="11.803882298635035"><ele>465.5</ele><time>2026-04-25T15:15:45.997Z</time></trkpt><trkpt lat="42.6986982752463" lon="11.803786299338393"><ele>467.25</ele><time>2026-04-25T15:15:46.997Z</time></trkpt><trkpt lat="42.6987969850506" lon="11.803649116205328"><ele>469.0</ele><time>2026-04-25T15:15:47.997Z</time></trkpt><trkpt lat="42.698927713359794" lon="11.803530890083897"><ele>465.33333333333337</ele><time>2026-04-25T15:15:48.997Z</time></trkpt><trkpt lat="42.699053132613166" lon="11.803386322566036"><ele>461.66666666666663</ele><time>2026-04-25T15:15:49.997Z</time></trkpt><trkpt lat="42.69918089411115" lon="11.803247693949054"><ele>458.0</ele><time>2026-04-25T15:15:50.997Z</time></trkpt><trkpt lat="42.699302703433325" lon="11.803114242386746"><ele>460.0</ele><time>2026-04-25T15:15:51.997Z</time></trkpt><trkpt lat="42.69942289936021" lon="11.802981591085668"><ele>462.0</ele><time>2026-04-25T15:15:52.997Z</time></trkpt><trkpt lat="42.69953289173116" lon="11.80284336263389"><ele>464.0</ele><time>2026-04-25T15:15:53.997Z</time></trkpt><trkpt lat="42.69962795455213" lon="11.80269137224827"><ele>462.25</ele><time>2026-04-25T15:15:54.997Z</time></trkpt><trkpt lat="42.69968814383541" lon="11.802541753834639"><ele>460.5</ele><time>2026-04-25T15:15:55.997Z</time></trkpt><trkpt lat="42.69971138653836" lon="11.802376660242784"><ele>458.75</ele><time>2026-04-25T15:15:56.997Z</time></trkpt><trkpt lat="42.699700742705375" lon="11.802200731845131"><ele>457.0</ele><time>2026-04-25T15:15:57.997Z</time></trkpt><trkpt lat="42.699667858724474" lon="11.802017162273069"><ele>457.33333333333337</ele><time>2026-04-25T15:15:58.997Z</time></trkpt><trkpt lat="42.69962746903231" lon="11.801820580497937"><ele>457.66666666666663</ele><time>2026-04-25T15:15:59.997Z</time></trkpt><trkpt lat="42.69959369800996" lon="11.80160659868621"><ele>458.0</ele><time>2026-04-25T15:16:00.997Z</time></trkpt><trkpt lat="42.69956158108844" lon="11.801388726626167"><ele>458.0</ele><time>2026-04-25T15:16:01.997Z</time></trkpt><trkpt lat="42.699525179465624" lon="11.801176662169992"><ele>458.0</ele><time>2026-04-25T15:16:02.997Z</time></trkpt><trkpt lat="42.69948885597945" lon="11.800975037148142"><ele>458.0</ele><time>2026-04-25T15:16:03.997Z</time></trkpt><trkpt lat="42.699451656981964" lon="11.800778095486976"><ele>457.75</ele><time>2026-04-25T15:16:04.997Z</time></trkpt><trkpt lat="42.69942459121003" lon="11.800579682132051"><ele>457.5</ele><time>2026-04-25T15:16:05.997Z</time></trkpt><trkpt lat="42.69941008628493" lon="11.800386397354643"><ele>457.25</ele><time>2026-04-25T15:16:06.997Z</time></trkpt><trkpt lat="42.69940247614899" lon="11.800189794481796"><ele>457.0</ele><time>2026-04-25T15:16:07.997Z</time></trkpt><trkpt lat="42.69941054049757" lon="11.799987847755004"><ele>458.0</ele><time>2026-04-25T15:16:08.997Z</time></trkpt><trkpt lat="42.69942997921264" lon="11.79978134757623"><ele>459.0</ele><time>2026-04-25T15:16:09.997Z</time></trkpt><trkpt lat="42.69944589447229" lon="11.799560918093071"><ele>460.0</ele><time>2026-04-25T15:16:10.997Z</time></trkpt><trkpt lat="42.69946884170617" lon="11.799330772146204"><ele>458.0</ele><time>2026-04-25T15:16:11.997Z</time></trkpt><trkpt lat="42.69949225784291" lon="11.79909444388256"><ele>456.0</ele><time>2026-04-25T15:16:12.997Z</time></trkpt><trkpt lat="42.69950837769455" lon="11.798854763612923"><ele>454.0</ele><time>2026-04-25T15:16:13.997Z</time></trkpt><trkpt lat="42.69953275693483" lon="11.798617293385979"><ele>451.0</ele><time>2026-04-25T15:16:14.997Z</time></trkpt><trkpt lat="42.69955518561189" lon="11.798378937108694"><ele>448.0</ele><time>2026-04-25T15:16:15.997Z</time></trkpt><trkpt lat="42.69957872763498" lon="11.798160202477227"><ele>445.0</ele><time>2026-04-25T15:16:16.997Z</time></trkpt><trkpt lat="42.699595158590405" lon="11.797946285921872"><ele>445.0</ele><time>2026-04-25T15:16:17.997Z</time></trkpt><trkpt lat="42.69961504111663" lon="11.797741329891602"><ele>445.0</ele><time>2026-04-25T15:16:18.997Z</time></trkpt><trkpt lat="42.69963238577752" lon="11.797548639178638"><ele>445.0</ele><time>2026-04-25T15:16:19.997Z</time></trkpt><trkpt lat="42.69964635085205" lon="11.797362399101024"><ele>445.0</ele><time>2026-04-25T15:16:20.997Z</time></trkpt><trkpt lat="42.6996389745872" lon="11.797212386525597"><ele>444.6</ele><time>2026-04-25T15:16:21.997Z</time></trkpt><trkpt lat="42.69960506946738" lon="11.797087062954308"><ele>444.2</ele><time>2026-04-25T15:16:22.997Z</time></trkpt><trkpt lat="42.69953900532893" lon="11.796984710188468"><ele>443.79999999999995</ele><time>2026-04-25T15:16:23.997Z</time></trkpt><trkpt lat="42.699450542477294" lon="11.796913821731243"><ele>443.4</ele><time>2026-04-25T15:16:24.997Z</time></trkpt><trkpt lat="42.69934189508706" lon="11.796863208321286"><ele>443.0</ele><time>2026-04-25T15:16:25.997Z</time></trkpt><trkpt lat="42.699223911468835" lon="11.796810636522704"><ele>445.5</ele><time>2026-04-25T15:16:26.997Z</time></trkpt><trkpt lat="42.69910487602761" lon="11.796739615362698"><ele>448.0</ele><time>2026-04-25T15:16:27.997Z</time></trkpt><trkpt lat="42.699008101620954" lon="11.796654363005425"><ele>450.5</ele><time>2026-04-25T15:16:28.997Z</time></trkpt><trkpt lat="42.698950374414686" lon="11.79653102357757"><ele>453.0</ele><time>2026-04-25T15:16:29.997Z</time></trkpt><trkpt lat="42.698909248658246" lon="11.796407288786698"><ele>453.0</ele><time>2026-04-25T15:16:30.997Z</time></trkpt><trkpt lat="42.69887491350203" lon="11.796264625533986"><ele>453.0</ele><time>2026-04-25T15:16:31.997Z</time></trkpt><trkpt lat="42.698829369052945" lon="11.796089629154366"><ele>453.0</ele><time>2026-04-25T15:16:32.997Z</time></trkpt><trkpt lat="42.698782906760464" lon="11.79592958962954"><ele>453.0</ele><time>2026-04-25T15:16:33.997Z</time></trkpt><trkpt lat="42.698753681307025" lon="11.79576183706476"><ele>453.0</ele><time>2026-04-25T15:16:34.997Z</time></trkpt><trkpt lat="42.698682369098805" lon="11.795604699777789"><ele>453.0</ele><time>2026-04-25T15:16:35.997Z</time></trkpt><trkpt lat="42.69857758115998" lon="11.795465009866959"><ele>453.0</ele><time>2026-04-25T15:16:36.997Z</time></trkpt><trkpt lat="42.698457526055876" lon="11.795340380456548"><ele>453.0</ele><time>2026-04-25T15:16:37.997Z</time></trkpt><trkpt lat="42.6983311341278" lon="11.795218881611351"><ele>457.33333333333337</ele><time>2026-04-25T15:16:38.997Z</time></trkpt><trkpt lat="42.69820157512064" lon="11.795094338214895"><ele>461.6666666666667</ele><time>2026-04-25T15:16:39.997Z</time></trkpt><trkpt lat="42.69806285700071" lon="11.794960990415968"><ele>466.0</ele><time>2026-04-25T15:16:40.997Z</time></trkpt><trkpt lat="42.69792024909808" lon="11.794824312470919"><ele>466.0</ele><time>2026-04-25T15:16:41.997Z</time></trkpt><trkpt lat="42.69778430391823" lon="11.794694372570694"><ele>466.0</ele><time>2026-04-25T15:16:42.997Z</time></trkpt><trkpt lat="42.697635948012724" lon="11.794578825611042"><ele>466.0</ele><time>2026-04-25T15:16:43.996Z</time></trkpt><trkpt lat="42.697507654879765" lon="11.794430370946907"><ele>466.6666666666667</ele><time>2026-04-25T15:16:44.996Z</time></trkpt><trkpt lat="42.69736640970456" lon="11.79429699445111"><ele>467.33333333333337</ele><time>2026-04-25T15:16:45.996Z</time></trkpt><trkpt lat="42.697213183164266" lon="11.794177798453786"><ele>468.0</ele><time>2026-04-25T15:16:46.996Z</time></trkpt><trkpt lat="42.69706805672511" lon="11.794037590117714"><ele>468.0</ele><time>2026-04-25T15:16:47.996Z</time></trkpt><trkpt lat="42.69693901328586" lon="11.793891661794818"><ele>468.0</ele><time>2026-04-25T15:16:48.997Z</time></trkpt><trkpt lat="42.69681481135601" lon="11.793773493015715"><ele>468.0</ele><time>2026-04-25T15:16:49.997Z</time></trkpt><trkpt lat="42.69670030645706" lon="11.793663071345932"><ele>468.79999999999995</ele><time>2026-04-25T15:16:50.997Z</time></trkpt><trkpt lat="42.6965942955444" lon="11.793557241276892"><ele>469.59999999999997</ele><time>2026-04-25T15:16:51.998Z</time></trkpt><trkpt lat="42.69650789605089" lon="11.79345557066115"><ele>470.40000000000003</ele><time>2026-04-25T15:16:52.998Z</time></trkpt><trkpt lat="42.69644908261099" lon="11.793346522099657"><ele>471.20000000000005</ele><time>2026-04-25T15:16:53.998Z</time></trkpt><trkpt lat="42.696418503491266" lon="11.793221917371476"><ele>472.0</ele><time>2026-04-25T15:16:54.998Z</time></trkpt><trkpt lat="42.69639955828517" lon="11.793099576077008"><ele>472.0</ele><time>2026-04-25T15:16:55.998Z</time></trkpt><trkpt lat="42.69641056261628" lon="11.792957839945378"><ele>472.00000000000006</ele><time>2026-04-25T15:16:56.998Z</time></trkpt><trkpt lat="42.696424671437924" lon="11.79279161734464"><ele>472.00000000000006</ele><time>2026-04-25T15:16:57.998Z</time></trkpt><trkpt lat="42.696442212453675" lon="11.79264917014253"><ele>472.0</ele><time>2026-04-25T15:16:58.998Z</time></trkpt><trkpt lat="42.696435613310776" lon="11.79251263991897"><ele>472.0</ele><time>2026-04-25T15:16:59.998Z</time></trkpt><trkpt lat="42.69640928022871" lon="11.792381034343439"><ele>472.0</ele><time>2026-04-25T15:17:00.998Z</time></trkpt><trkpt lat="42.69635709360941" lon="11.792264314548373"><ele>472.00000000000006</ele><time>2026-04-25T15:17:01.997Z</time></trkpt><trkpt lat="42.69627860005687" lon="11.792161111349564"><ele>472.00000000000006</ele><time>2026-04-25T15:17:02.997Z</time></trkpt><trkpt lat="42.69618765104346" lon="11.792068300325075"><ele>472.0</ele><time>2026-04-25T15:17:03.997Z</time></trkpt><trkpt lat="42.69608995251264" lon="11.791980075261579"><ele>472.0</ele><time>2026-04-25T15:17:04.997Z</time></trkpt><trkpt lat="42.6959857082584" lon="11.79188238491975"><ele>473.6666666666667</ele><time>2026-04-25T15:17:05.997Z</time></trkpt><trkpt lat="42.69586738968595" lon="11.791771488202405"><ele>475.33333333333337</ele><time>2026-04-25T15:17:06.997Z</time></trkpt><trkpt lat="42.69574322554573" lon="11.791656696151623"><ele>477.0</ele><time>2026-04-25T15:17:07.997Z</time></trkpt><trkpt lat="42.695609511656066" lon="11.791539670276956"><ele>477.0</ele><time>2026-04-25T15:17:08.997Z</time></trkpt><trkpt lat="42.695476593178974" lon="11.79141294071362"><ele>477.0</ele><time>2026-04-25T15:17:09.997Z</time></trkpt><trkpt lat="42.69533803231717" lon="11.79127135193199"><ele>477.0</ele><time>2026-04-25T15:17:10.997Z</time></trkpt><trkpt lat="42.69520057037177" lon="11.791131347725356"><ele>478.0</ele><time>2026-04-25T15:17:11.997Z</time></trkpt><trkpt lat="42.695059397846386" lon="11.790989513346464"><ele>479.0</ele><time>2026-04-25T15:17:12.997Z</time></trkpt><trkpt lat="42.6949169407412" lon="11.790852339737803"><ele>480.0</ele><time>2026-04-25T15:17:13.997Z</time></trkpt><trkpt lat="42.694772630232556" lon="11.790716462341484"><ele>480.0</ele><time>2026-04-25T15:17:14.997Z</time></trkpt><trkpt lat="42.69463225329068" lon="11.79058264040778"><ele>480.0</ele><time>2026-04-25T15:17:15.997Z</time></trkpt><trkpt lat="42.69449216547438" lon="11.790450023410683"><ele>480.0</ele><time>2026-04-25T15:17:16.997Z</time></trkpt><trkpt lat="42.694359511462274" lon="11.79032290311728"><ele>480.0</ele><time>2026-04-25T15:17:17.997Z</time></trkpt><trkpt lat="42.694231888846545" lon="11.790203168398692"><ele>480.0</ele><time>2026-04-25T15:17:18.997Z</time></trkpt><trkpt lat="42.69411913656641" lon="11.790085750875734"><ele>480.0</ele><time>2026-04-25T15:17:19.997Z</time></trkpt><trkpt lat="42.69402597752076" lon="11.789956811091413"><ele>480.0</ele><time>2026-04-25T15:17:20.997Z</time></trkpt><trkpt lat="42.693949901633125" lon="11.789810844605976"><ele>480.0</ele><time>2026-04-25T15:17:21.997Z</time></trkpt><trkpt lat="42.6938886156873" lon="11.789647929204465"><ele>480.0</ele><time>2026-04-25T15:17:22.997Z</time></trkpt><trkpt lat="42.693834408842946" lon="11.789467029353448"><ele>480.0</ele><time>2026-04-25T15:17:23.997Z</time></trkpt><trkpt lat="42.693789053078255" lon="11.789273432264958"><ele>480.0</ele><time>2026-04-25T15:17:24.997Z</time></trkpt><trkpt lat="42.69374172880351" lon="11.789087996106353"><ele>481.0</ele><time>2026-04-25T15:17:25.997Z</time></trkpt><trkpt lat="42.693704957710764" lon="11.788909101028642"><ele>482.0</ele><time>2026-04-25T15:17:26.997Z</time></trkpt><trkpt lat="42.69368077441935" lon="11.788721056293737"><ele>483.0</ele><time>2026-04-25T15:17:27.997Z</time></trkpt><trkpt lat="42.693665363134734" lon="11.788517357720165"><ele>484.0</ele><time>2026-04-25T15:17:28.997Z</time></trkpt><trkpt lat="42.69364908335856" lon="11.788299259907976"><ele>484.0</ele><time>2026-04-25T15:17:29.997Z</time></trkpt><trkpt lat="42.69362954390226" lon="11.78806901704439"><ele>484.0</ele><time>2026-04-25T15:17:30.997Z</time></trkpt><trkpt lat="42.69361133224418" lon="11.78784068899364"><ele>484.0</ele><time>2026-04-25T15:17:31.997Z</time></trkpt><trkpt lat="42.69359676618964" lon="11.787612773779228"><ele>480.33333333333337</ele><time>2026-04-25T15:17:32.997Z</time></trkpt><trkpt lat="42.693573059362585" lon="11.787385820524944"><ele>476.66666666666663</ele><time>2026-04-25T15:17:33.997Z</time></trkpt><trkpt lat="42.693539688619516" lon="11.787162410834958"><ele>473.0</ele><time>2026-04-25T15:17:34.997Z</time></trkpt><trkpt lat="42.69349837251415" lon="11.78695596755294"><ele>472.66666666666663</ele><time>2026-04-25T15:17:35.997Z</time></trkpt><trkpt lat="42.69343637223049" lon="11.786759045076138"><ele>472.33333333333337</ele><time>2026-04-25T15:17:36.997Z</time></trkpt><trkpt lat="42.69335820111355" lon="11.786564990853808"><ele>472.0</ele><time>2026-04-25T15:17:37.997Z</time></trkpt><trkpt lat="42.69326779869796" lon="11.786388086801836"><ele>472.0</ele><time>2026-04-25T15:17:38.997Z</time></trkpt><trkpt lat="42.693185329191714" lon="11.78622703132127"><ele>472.0</ele><time>2026-04-25T15:17:39.997Z</time></trkpt><trkpt lat="42.69309976037009" lon="11.786095499489099"><ele>472.0</ele><time>2026-04-25T15:17:40.997Z</time></trkpt><trkpt lat="42.69299972131386" lon="11.786002968761897"><ele>472.0</ele><time>2026-04-25T15:17:41.997Z</time></trkpt><trkpt lat="42.69289802005753" lon="11.785952833033594"><ele>472.40000000000003</ele><time>2026-04-25T15:17:42.997Z</time></trkpt><trkpt lat="42.69279585241311" lon="11.78594354148433"><ele>472.80000000000007</ele><time>2026-04-25T15:17:43.997Z</time></trkpt><trkpt lat="42.692698567609376" lon="11.785950825573128"><ele>473.2</ele><time>2026-04-25T15:17:44.997Z</time></trkpt><trkpt lat="42.69259244806149" lon="11.785975696175651"><ele>473.6</ele><time>2026-04-25T15:17:45.997Z</time></trkpt><trkpt lat="42.69247132479428" lon="11.786014262110681"><ele>474.0</ele><time>2026-04-25T15:17:46.997Z</time></trkpt><trkpt lat="42.692345384771144" lon="11.786028660050503"><ele>473.75</ele><time>2026-04-25T15:17:47.997Z</time></trkpt><trkpt lat="42.69220329623773" lon="11.786069888820668"><ele>473.5</ele><time>2026-04-25T15:17:48.997Z</time></trkpt><trkpt lat="42.69205491479706" lon="11.78610689114067"><ele>473.25</ele><time>2026-04-25T15:17:49.997Z</time></trkpt><trkpt lat="42.69190889496092" lon="11.786127415036747"><ele>473.0</ele><time>2026-04-25T15:17:50.997Z</time></trkpt><trkpt lat="42.6917825085004" lon="11.786115446298785"><ele>473.0</ele><time>2026-04-25T15:17:51.997Z</time></trkpt><trkpt lat="42.691668812372164" lon="11.78606052816199"><ele>473.0</ele><time>2026-04-25T15:17:52.997Z</time></trkpt><trkpt lat="42.691576999077334" lon="11.785955462265216"><ele>473.0</ele><time>2026-04-25T15:17:53.997Z</time></trkpt><trkpt lat="42.6915094598277" lon="11.785817828175974"><ele>473.0</ele><time>2026-04-25T15:17:54.997Z</time></trkpt><trkpt lat="42.69146332490795" lon="11.785645372619982"><ele>468.66666666666663</ele><time>2026-04-25T15:17:55.997Z</time></trkpt><trkpt lat="42.691432646157985" lon="11.78544991531592"><ele>464.33333333333337</ele><time>2026-04-25T15:17:56.997Z</time></trkpt><trkpt lat="42.69139310720573" lon="11.785250661747849"><ele>460.0</ele><time>2026-04-25T15:17:57.997Z</time></trkpt><trkpt lat="42.69134790043423" lon="11.785046767649508"><ele>459.33333333333337</ele><time>2026-04-25T15:17:58.997Z</time></trkpt><trkpt lat="42.69130075000018" lon="11.784835423082349"><ele>458.66666666666663</ele><time>2026-04-25T15:17:59.997Z</time></trkpt><trkpt lat="42.69125608922766" lon="11.784625796402798"><ele>458.0</ele><time>2026-04-25T15:18:00.997Z</time></trkpt><trkpt lat="42.69121175871818" lon="11.784411586209137"><ele>458.66666666666663</ele><time>2026-04-25T15:18:01.997Z</time></trkpt><trkpt lat="42.69115496563423" lon="11.784200601463926"><ele>459.33333333333337</ele><time>2026-04-25T15:18:02.996Z</time></trkpt><trkpt lat="42.69107965059037" lon="11.783998136714734"><ele>460.0</ele><time>2026-04-25T15:18:03.996Z</time></trkpt><trkpt lat="42.690983831470504" lon="11.78381190853291"><ele>461.33333333333337</ele><time>2026-04-25T15:18:04.996Z</time></trkpt><trkpt lat="42.69086927266512" lon="11.783648619405508"><ele>462.66666666666663</ele><time>2026-04-25T15:18:05.996Z</time></trkpt><trkpt lat="42.690734436557335" lon="11.78351079742209"><ele>464.0</ele><time>2026-04-25T15:18:06.996Z</time></trkpt><trkpt lat="42.690582121352676" lon="11.783400947620331"><ele>465.0</ele><time>2026-04-25T15:18:07.996Z</time></trkpt><trkpt lat="42.69041915919111" lon="11.783321369482591"><ele>466.0</ele><time>2026-04-25T15:18:08.996Z</time></trkpt><trkpt lat="42.69024708742641" lon="11.783250734058782"><ele>467.0</ele><time>2026-04-25T15:18:09.996Z</time></trkpt><trkpt lat="42.69006753719504" lon="11.783188117987443"><ele>467.0</ele><time>2026-04-25T15:18:10.996Z</time></trkpt><trkpt lat="42.68989369919609" lon="11.78312730915786"><ele>467.0</ele><time>2026-04-25T15:18:11.996Z</time></trkpt><trkpt lat="42.689745692789636" lon="11.78304219246488"><ele>467.0</ele><time>2026-04-25T15:18:12.996Z</time></trkpt><trkpt lat="42.68963540656537" lon="11.78294516013005"><ele>467.0</ele><time>2026-04-25T15:18:13.996Z</time></trkpt><trkpt lat="42.6895700970633" lon="11.782826849629512"><ele>467.00000000000006</ele><time>2026-04-25T15:18:14.996Z</time></trkpt><trkpt lat="42.68953175269067" lon="11.782707792006224"><ele>467.00000000000006</ele><time>2026-04-25T15:18:15.996Z</time></trkpt><trkpt lat="42.68951296279511" lon="11.782566231231979"><ele>467.0</ele><time>2026-04-25T15:18:16.996Z</time></trkpt><trkpt lat="42.68952469128172" lon="11.78242039615333"><ele>467.0</ele><time>2026-04-25T15:18:17.996Z</time></trkpt><trkpt lat="42.68955907442963" lon="11.78227579483198"><ele>469.0</ele><time>2026-04-25T15:18:18.996Z</time></trkpt><trkpt lat="42.68962267727196" lon="11.782141501550225"><ele>471.0</ele><time>2026-04-25T15:18:19.996Z</time></trkpt><trkpt lat="42.689718319554935" lon="11.782015388857605"><ele>473.0</ele><time>2026-04-25T15:18:20.996Z</time></trkpt><trkpt lat="42.689846182452264" lon="11.781894443385461"><ele>475.0</ele><time>2026-04-25T15:18:21.996Z</time></trkpt><trkpt lat="42.689988221787424" lon="11.78177001210432"><ele>476.33333333333337</ele><time>2026-04-25T15:18:22.996Z</time></trkpt><trkpt lat="42.690131731957905" lon="11.781635364763508"><ele>477.66666666666663</ele><time>2026-04-25T15:18:23.996Z</time></trkpt><trkpt lat="42.69027199911133" lon="11.78149495642085"><ele>479.0</ele><time>2026-04-25T15:18:24.996Z</time></trkpt><trkpt lat="42.690407889966174" lon="11.781364436042123"><ele>480.0</ele><time>2026-04-25T15:18:25.996Z</time></trkpt><trkpt lat="42.69054191641388" lon="11.781239928433207"><ele>481.0</ele><time>2026-04-25T15:18:26.996Z</time></trkpt><trkpt lat="42.69066992344734" lon="11.781118790852066"><ele>482.0</ele><time>2026-04-25T15:18:27.996Z</time></trkpt><trkpt lat="42.69080008639906" lon="11.78100226420445"><ele>482.3333333333333</ele><time>2026-04-25T15:18:28.996Z</time></trkpt><trkpt lat="42.690930412425956" lon="11.780878205733963"><ele>482.66666666666663</ele><time>2026-04-25T15:18:29.996Z</time></trkpt><trkpt lat="42.69106080069208" lon="11.780754030232869"><ele>483.0</ele><time>2026-04-25T15:18:30.996Z</time></trkpt><trkpt lat="42.691181367321384" lon="11.780633997679356"><ele>483.0</ele><time>2026-04-25T15:18:31.996Z</time></trkpt><trkpt lat="42.691272068054104" lon="11.780534806397696"><ele>482.99999999999994</ele><time>2026-04-25T15:18:32.996Z</time></trkpt><trkpt lat="42.691341563660956" lon="11.780417986956865"><ele>482.99999999999994</ele><time>2026-04-25T15:18:33.996Z</time></trkpt><trkpt lat="42.691389008974156" lon="11.780287332566047"><ele>483.0</ele><time>2026-04-25T15:18:34.996Z</time></trkpt><trkpt lat="42.691416928998784" lon="11.780136829569836"><ele>483.0</ele><time>2026-04-25T15:18:35.996Z</time></trkpt><trkpt lat="42.69141735407316" lon="11.779967027976"><ele>482.5</ele><time>2026-04-25T15:18:36.996Z</time></trkpt><trkpt lat="42.69139567963208" lon="11.779787262254583"><ele>482.0</ele><time>2026-04-25T15:18:37.996Z</time></trkpt><trkpt lat="42.69136175793869" lon="11.77959645974564"><ele>481.5</ele><time>2026-04-25T15:18:38.996Z</time></trkpt><trkpt lat="42.691332134727546" lon="11.779396878744068"><ele>481.0</ele><time>2026-04-25T15:18:39.996Z</time></trkpt><trkpt lat="42.69131223890346" lon="11.779199832352548"><ele>480.4</ele><time>2026-04-25T15:18:40.996Z</time></trkpt><trkpt lat="42.691313639651234" lon="11.779060388327109"><ele>479.8</ele><time>2026-04-25T15:18:41.996Z</time></trkpt><trkpt lat="42.691343854068464" lon="11.778965262160085"><ele>479.19999999999993</ele><time>2026-04-25T15:18:42.996Z</time></trkpt><trkpt lat="42.691396809060116" lon="11.778887623006224"><ele>478.59999999999997</ele><time>2026-04-25T15:18:43.996Z</time></trkpt><trkpt lat="42.69147554076029" lon="11.778821841129755"><ele>478.0</ele><time>2026-04-25T15:18:44.996Z</time></trkpt><trkpt lat="42.69157330463212" lon="11.778747990065549"><ele>478.0</ele><time>2026-04-25T15:18:45.996Z</time></trkpt><trkpt lat="42.69167335136653" lon="11.778664859796992"><ele>478.0</ele><time>2026-04-25T15:18:46.996Z</time></trkpt><trkpt lat="42.69177208740764" lon="11.778552091684881"><ele>478.0</ele><time>2026-04-25T15:18:47.996Z</time></trkpt><trkpt lat="42.691872051082804" lon="11.778404919926956"><ele>478.0</ele><time>2026-04-25T15:18:48.996Z</time></trkpt><trkpt lat="42.691957012341376" lon="11.778249272429136"><ele>477.25</ele><time>2026-04-25T15:18:49.996Z</time></trkpt><trkpt lat="42.69205372253114" lon="11.778106634605393"><ele>476.5</ele><time>2026-04-25T15:18:50.996Z</time></trkpt><trkpt lat="42.692143819269454" lon="11.77796789295745"><ele>475.75</ele><time>2026-04-25T15:18:51.996Z</time></trkpt><trkpt lat="42.69221481498382" lon="11.777829112451437"><ele>475.0</ele><time>2026-04-25T15:18:52.996Z</time></trkpt><trkpt lat="42.692254871329276" lon="11.777698568269301"><ele>473.25</ele><time>2026-04-25T15:18:53.996Z</time></trkpt><trkpt lat="42.69226894980561" lon="11.7775620619438"><ele>471.5</ele><time>2026-04-25T15:18:54.998Z</time></trkpt><trkpt lat="42.69222887530076" lon="11.777418569750793"><ele>469.75</ele><time>2026-04-25T15:18:55.998Z</time></trkpt><trkpt lat="42.692164626315254" lon="11.777276045127257"><ele>468.0</ele><time>2026-04-25T15:18:56.998Z</time></trkpt><trkpt lat="42.69208361419013" lon="11.777126962600374"><ele>468.0</ele><time>2026-04-25T15:18:57.998Z</time></trkpt><trkpt lat="42.69200628671221" lon="11.776974064245488"><ele>468.0</ele><time>2026-04-25T15:18:58.998Z</time></trkpt><trkpt lat="42.69192763789407" lon="11.776812745253757"><ele>468.0</ele><time>2026-04-25T15:18:59.998Z</time></trkpt><trkpt lat="42.69184914274943" lon="11.7766460448115"><ele>468.0</ele><time>2026-04-25T15:19:00.998Z</time></trkpt><trkpt lat="42.69176590380853" lon="11.776473299356503"><ele>468.25</ele><time>2026-04-25T15:19:01.998Z</time></trkpt><trkpt lat="42.69167726565929" lon="11.776310180894187"><ele>468.5</ele><time>2026-04-25T15:19:02.998Z</time></trkpt><trkpt lat="42.6915683286329" lon="11.77617131812358"><ele>468.75</ele><time>2026-04-25T15:19:03.998Z</time></trkpt><trkpt lat="42.69145102803796" lon="11.77605669042722"><ele>469.0</ele><time>2026-04-25T15:19:04.998Z</time></trkpt><trkpt lat="42.691337067534484" lon="11.775960065647775"><ele>470.25</ele><time>2026-04-25T15:19:05.998Z</time></trkpt><trkpt lat="42.691208052870266" lon="11.77588773309177"><ele>471.5</ele><time>2026-04-25T15:19:06.998Z</time></trkpt><trkpt lat="42.691068074048104" lon="11.775853492525169"><ele>472.75</ele><time>2026-04-25T15:19:07.998Z</time></trkpt><trkpt lat="42.69092120018843" lon="11.775860235012829"><ele>474.0</ele><time>2026-04-25T15:19:08.998Z</time></trkpt><trkpt lat="42.69078566836244" lon="11.775868193631153"><ele>474.0</ele><time>2026-04-25T15:19:09.998Z</time></trkpt><trkpt lat="42.69065924454563" lon="11.775855528817045"><ele>474.0</ele><time>2026-04-25T15:19:10.998Z</time></trkpt><trkpt lat="42.69052237472547" lon="11.77582049427382"><ele>474.0</ele><time>2026-04-25T15:19:11.998Z</time></trkpt><trkpt lat="42.69039402445999" lon="11.775739674086768"><ele>474.0</ele><time>2026-04-25T15:19:12.998Z</time></trkpt><trkpt lat="42.69028034860131" lon="11.775637431014285"><ele>474.25</ele><time>2026-04-25T15:19:13.998Z</time></trkpt><trkpt lat="42.69018987532571" lon="11.775505415161755"><ele>474.5</ele><time>2026-04-25T15:19:14.997Z</time></trkpt><trkpt lat="42.6901178832307" lon="11.775353755486615"><ele>474.75</ele><time>2026-04-25T15:19:15.997Z</time></trkpt><trkpt lat="42.69006500676071" lon="11.775173146779434"><ele>475.0</ele><time>2026-04-25T15:19:16.997Z</time></trkpt><trkpt lat="42.69001632762176" lon="11.774977006121635"><ele>476.33333333333337</ele><time>2026-04-25T15:19:17.997Z</time></trkpt><trkpt lat="42.6899640334532" lon="11.77476436003104"><ele>477.66666666666663</ele><time>2026-04-25T15:19:18.997Z</time></trkpt><trkpt lat="42.689905290330195" lon="11.774551513659366"><ele>479.0</ele><time>2026-04-25T15:19:19.997Z</time></trkpt><trkpt lat="42.68984307710122" lon="11.77433262996544"><ele>479.3333333333333</ele><time>2026-04-25T15:19:20.997Z</time></trkpt><trkpt lat="42.68978281124218" lon="11.774101812582048"><ele>479.66666666666663</ele><time>2026-04-25T15:19:21.997Z</time></trkpt><trkpt lat="42.689717767977356" lon="11.77386415717732"><ele>480.0</ele><time>2026-04-25T15:19:22.997Z</time></trkpt><trkpt lat="42.689649971805665" lon="11.773620681570947"><ele>479.33333333333337</ele><time>2026-04-25T15:19:23.997Z</time></trkpt><trkpt lat="42.68958528001921" lon="11.773373819993807"><ele>478.6666666666667</ele><time>2026-04-25T15:19:24.997Z</time></trkpt><trkpt lat="42.68952073777516" lon="11.773123701321492"><ele>478.0</ele><time>2026-04-25T15:19:25.997Z</time></trkpt><trkpt lat="42.6894542233446" lon="11.772869092181079"><ele>479.0</ele><time>2026-04-25T15:19:26.997Z</time></trkpt><trkpt lat="42.689389612999506" lon="11.77261739043536"><ele>480.0</ele><time>2026-04-25T15:19:27.997Z</time></trkpt><trkpt lat="42.68932375207373" lon="11.772362794289046"><ele>481.0</ele><time>2026-04-25T15:19:28.997Z</time></trkpt><trkpt lat="42.68925952162255" lon="11.772110293306259"><ele>481.0</ele><time>2026-04-25T15:19:29.997Z</time></trkpt><trkpt lat="42.68919442915089" lon="11.771861499078977"><ele>481.0</ele><time>2026-04-25T15:19:30.997Z</time></trkpt><trkpt lat="42.6891310515673" lon="11.771625939421197"><ele>481.0</ele><time>2026-04-25T15:19:31.997Z</time></trkpt><trkpt lat="42.689071825504605" lon="11.771395369279135"><ele>481.33333333333337</ele><time>2026-04-25T15:19:32.997Z</time></trkpt><trkpt lat="42.689012337984494" lon="11.771169546082888"><ele>481.66666666666663</ele><time>2026-04-25T15:19:33.997Z</time></trkpt><trkpt lat="42.6889529744532" lon="11.770941145303517"><ele>482.0</ele><time>2026-04-25T15:19:34.997Z</time></trkpt><trkpt lat="42.68889618790825" lon="11.770714102727034"><ele>482.0</ele><time>2026-04-25T15:19:35.997Z</time></trkpt><trkpt lat="42.688843177994585" lon="11.770487000864051"><ele>482.0</ele><time>2026-04-25T15:19:36.997Z</time></trkpt><trkpt lat="42.68879534649777" lon="11.77026624545225"><ele>482.0</ele><time>2026-04-25T15:19:37.997Z</time></trkpt><trkpt lat="42.68875201091857" lon="11.770047036091531"><ele>482.0</ele><time>2026-04-25T15:19:38.997Z</time></trkpt><trkpt lat="42.688715895930464" lon="11.76981812707331"><ele>482.0</ele><time>2026-04-25T15:19:39.997Z</time></trkpt><trkpt lat="42.68869058320887" lon="11.769582759354384"><ele>482.0</ele><time>2026-04-25T15:19:40.997Z</time></trkpt><trkpt lat="42.688673969881904" lon="11.76934351032766"><ele>482.0</ele><time>2026-04-25T15:19:41.997Z</time></trkpt><trkpt lat="42.688669084059846" lon="11.769115805609301"><ele>482.0</ele><time>2026-04-25T15:19:42.997Z</time></trkpt><trkpt lat="42.68867244446395" lon="11.768897130305309"><ele>482.0</ele><time>2026-04-25T15:19:43.997Z</time></trkpt><trkpt lat="42.68867994828141" lon="11.768680093127179"><ele>481.66666666666663</ele><time>2026-04-25T15:19:44.997Z</time></trkpt><trkpt lat="42.688694632244484" lon="11.768462328519853"><ele>481.33333333333337</ele><time>2026-04-25T15:19:45.997Z</time></trkpt><trkpt lat="42.68871453474312" lon="11.768253833225389"><ele>481.0</ele><time>2026-04-25T15:19:46.997Z</time></trkpt><trkpt lat="42.688736121658636" lon="11.768052903534361"><ele>481.0</ele><time>2026-04-25T15:19:47.997Z</time></trkpt><trkpt lat="42.68876787334477" lon="11.767861081351816"><ele>481.0</ele><time>2026-04-25T15:19:48.997Z</time></trkpt><trkpt lat="42.68880872667358" lon="11.76766313475857"><ele>481.0</ele><time>2026-04-25T15:19:49.997Z</time></trkpt><trkpt lat="42.68884822590964" lon="11.767465641099148"><ele>481.0</ele><time>2026-04-25T15:19:50.997Z</time></trkpt><trkpt lat="42.68889164994691" lon="11.767261349791225"><ele>480.33333333333337</ele><time>2026-04-25T15:19:51.997Z</time></trkpt><trkpt lat="42.68894287759954" lon="11.767055105354228"><ele>479.66666666666663</ele><time>2026-04-25T15:19:52.997Z</time></trkpt><trkpt lat="42.688996129544385" lon="11.766833156830689"><ele>479.0</ele><time>2026-04-25T15:19:53.997Z</time></trkpt><trkpt lat="42.689053971646345" lon="11.766602024908945"><ele>479.0</ele><time>2026-04-25T15:19:54.997Z</time></trkpt><trkpt lat="42.68911161342923" lon="11.766358424787036"><ele>479.0</ele><time>2026-04-25T15:19:55.997Z</time></trkpt><trkpt lat="42.689174417703605" lon="11.76610621370985"><ele>479.0</ele><time>2026-04-25T15:19:56.997Z</time></trkpt><trkpt lat="42.689237600728184" lon="11.76584951491565"><ele>479.66666666666663</ele><time>2026-04-25T15:19:57.997Z</time></trkpt><trkpt lat="42.689300206858434" lon="11.76558335652561"><ele>480.33333333333337</ele><time>2026-04-25T15:19:58.997Z</time></trkpt><trkpt lat="42.6893627991869" lon="11.765318900048687"><ele>481.0</ele><time>2026-04-25T15:19:59.997Z</time></trkpt><trkpt lat="42.68944391535744" lon="11.765055349270636"><ele>481.0</ele><time>2026-04-25T15:20:00.997Z</time></trkpt><trkpt lat="42.689493310708286" lon="11.764776241288082"><ele>481.0</ele><time>2026-04-25T15:20:01.997Z</time></trkpt><trkpt lat="42.689560385645855" lon="11.764524154967877"><ele>481.0</ele><time>2026-04-25T15:20:02.997Z</time></trkpt><trkpt lat="42.68963534845632" lon="11.764240137229626"><ele>480.6666666666667</ele><time>2026-04-25T15:20:03.997Z</time></trkpt><trkpt lat="42.689702041587225" lon="11.763979304384096"><ele>480.33333333333337</ele><time>2026-04-25T15:20:04.997Z</time></trkpt><trkpt lat="42.689767885824445" lon="11.763726511753806"><ele>480.0</ele><time>2026-04-25T15:20:05.997Z</time></trkpt><trkpt lat="42.68984676723301" lon="11.763494126133692"><ele>480.0</ele><time>2026-04-25T15:20:06.997Z</time></trkpt><trkpt lat="42.68993797194475" lon="11.763285550190542"><ele>480.0</ele><time>2026-04-25T15:20:07.997Z</time></trkpt><trkpt lat="42.690046794050566" lon="11.76309252652018"><ele>480.0</ele><time>2026-04-25T15:20:08.997Z</time></trkpt><trkpt lat="42.690169795994244" lon="11.762926906051932"><ele>479.66666666666663</ele><time>2026-04-25T15:20:09.997Z</time></trkpt><trkpt lat="42.69030297808047" lon="11.76277569712363"><ele>479.3333333333333</ele><time>2026-04-25T15:20:10.997Z</time></trkpt><trkpt lat="42.690449285898566" lon="11.762646658499627"><ele>479.0</ele><time>2026-04-25T15:20:11.997Z</time></trkpt><trkpt lat="42.690613793534894" lon="11.762532957225739"><ele>479.0</ele><time>2026-04-25T15:20:12.997Z</time></trkpt><trkpt lat="42.69079156270484" lon="11.762439938522588"><ele>479.0</ele><time>2026-04-25T15:20:13.997Z</time></trkpt><trkpt lat="42.69096949764877" lon="11.762349289429576"><ele>479.0</ele><time>2026-04-25T15:20:14.997Z</time></trkpt><trkpt lat="42.69115156883997" lon="11.76226393013132"><ele>479.0</ele><time>2026-04-25T15:20:15.997Z</time></trkpt><trkpt lat="42.691301221767816" lon="11.762180313964127"><ele>479.0</ele><time>2026-04-25T15:20:16.996Z</time></trkpt><trkpt lat="42.69141473686536" lon="11.762093509221714"><ele>479.0</ele><time>2026-04-25T15:20:17.996Z</time></trkpt><trkpt lat="42.69150813172972" lon="11.761998438109343"><ele>479.0</ele><time>2026-04-25T15:20:18.996Z</time></trkpt><trkpt lat="42.69156556048697" lon="11.761854080109043"><ele>479.0</ele><time>2026-04-25T15:20:19.996Z</time></trkpt><trkpt lat="42.69156962083524" lon="11.761691662118178"><ele>479.0</ele><time>2026-04-25T15:20:20.996Z</time></trkpt><trkpt lat="42.69155580282354" lon="11.761529665676706"><ele>479.0</ele><time>2026-04-25T15:20:21.996Z</time></trkpt><trkpt lat="42.69151095508214" lon="11.761365505136945"><ele>479.0</ele><time>2026-04-25T15:20:22.996Z</time></trkpt><trkpt lat="42.69144262477201" lon="11.761189978510059"><ele>479.3333333333333</ele><time>2026-04-25T15:20:23.996Z</time></trkpt><trkpt lat="42.691357260610175" lon="11.76100494348174"><ele>479.66666666666663</ele><time>2026-04-25T15:20:24.996Z</time></trkpt><trkpt lat="42.69126433076251" lon="11.760818457841314"><ele>480.0</ele><time>2026-04-25T15:20:25.996Z</time></trkpt><trkpt lat="42.69115857861741" lon="11.760620846850381"><ele>480.0</ele><time>2026-04-25T15:20:26.996Z</time></trkpt><trkpt lat="42.69104466782937" lon="11.760427319959973"><ele>480.0</ele><time>2026-04-25T15:20:27.996Z</time></trkpt><trkpt lat="42.69092914839809" lon="11.760239906238736"><ele>480.0</ele><time>2026-04-25T15:20:28.996Z</time></trkpt><trkpt lat="42.690822170823054" lon="11.760063604170652"><ele>480.0</ele><time>2026-04-25T15:20:29.996Z</time></trkpt><trkpt lat="42.690720489706806" lon="11.759889946647665"><ele>480.0</ele><time>2026-04-25T15:20:30.996Z</time></trkpt><trkpt lat="42.69063888040918" lon="11.759709236472922"><ele>480.0</ele><time>2026-04-25T15:20:31.996Z</time></trkpt><trkpt lat="42.690569640916024" lon="11.759502402098393"><ele>479.33333333333337</ele><time>2026-04-25T15:20:32.996Z</time></trkpt><trkpt lat="42.690517098106774" lon="11.759282580720262"><ele>478.6666666666667</ele><time>2026-04-25T15:20:33.996Z</time></trkpt><trkpt lat="42.69047091014981" lon="11.759052959987983"><ele>478.0</ele><time>2026-04-25T15:20:34.996Z</time></trkpt><trkpt lat="42.69041966406249" lon="11.758810513057886"><ele>478.0</ele><time>2026-04-25T15:20:35.996Z</time></trkpt><trkpt lat="42.6903615024185" lon="11.758562836333175"><ele>478.0</ele><time>2026-04-25T15:20:36.996Z</time></trkpt><trkpt lat="42.69030952505414" lon="11.758311779584806"><ele>478.0</ele><time>2026-04-25T15:20:37.996Z</time></trkpt><trkpt lat="42.69025380253844" lon="11.758059257840042"><ele>478.33333333333337</ele><time>2026-04-25T15:20:38.996Z</time></trkpt><trkpt lat="42.69019972506337" lon="11.757800795423087"><ele>478.66666666666663</ele><time>2026-04-25T15:20:39.996Z</time></trkpt><trkpt lat="42.69014645785037" lon="11.757540285478115"><ele>479.0</ele><time>2026-04-25T15:20:40.996Z</time></trkpt><trkpt lat="42.69010946443333" lon="11.757269186768314"><ele>478.0</ele><time>2026-04-25T15:20:41.996Z</time></trkpt><trkpt lat="42.69005925600577" lon="11.757010795095923"><ele>477.0</ele><time>2026-04-25T15:20:42.996Z</time></trkpt><trkpt lat="42.690009103613086" lon="11.756752691645664"><ele>476.0</ele><time>2026-04-25T15:20:43.996Z</time></trkpt><trkpt lat="42.68996145058761" lon="11.756507450648687"><ele>476.0</ele><time>2026-04-25T15:20:44.996Z</time></trkpt><trkpt lat="42.689914014138125" lon="11.756261212016579"><ele>476.0</ele><time>2026-04-25T15:20:45.996Z</time></trkpt><trkpt lat="42.68986697727284" lon="11.756016625784536"><ele>476.0</ele><time>2026-04-25T15:20:46.996Z</time></trkpt><trkpt lat="42.68980508870081" lon="11.755775877616912"><ele>475.66666666666663</ele><time>2026-04-25T15:20:47.996Z</time></trkpt><trkpt lat="42.68975889947836" lon="11.755527195179205"><ele>475.33333333333337</ele><time>2026-04-25T15:20:48.996Z</time></trkpt><trkpt lat="42.68971131123159" lon="11.755277117030866"><ele>475.0</ele><time>2026-04-25T15:20:49.996Z</time></trkpt><trkpt lat="42.68966364502786" lon="11.75503294971255"><ele>473.6666666666667</ele><time>2026-04-25T15:20:50.996Z</time></trkpt><trkpt lat="42.68961667017512" lon="11.75478539569495"><ele>472.33333333333337</ele><time>2026-04-25T15:20:51.996Z</time></trkpt><trkpt lat="42.68958858341159" lon="11.754534092566326"><ele>471.0</ele><time>2026-04-25T15:20:52.996Z</time></trkpt><trkpt lat="42.68954557593175" lon="11.75428985581578"><ele>470.66666666666663</ele><time>2026-04-25T15:20:53.996Z</time></trkpt><trkpt lat="42.689501590849574" lon="11.754055676551651"><ele>470.3333333333333</ele><time>2026-04-25T15:20:54.996Z</time></trkpt><trkpt lat="42.689457068461316" lon="11.753833505377667"><ele>470.0</ele><time>2026-04-25T15:20:55.996Z</time></trkpt><trkpt lat="42.689416761793275" lon="11.753643743661666"><ele>469.6</ele><time>2026-04-25T15:20:56.996Z</time></trkpt><trkpt lat="42.68938062766874" lon="11.753500681143228"><ele>469.2</ele><time>2026-04-25T15:20:57.996Z</time></trkpt><trkpt lat="42.68935904551535" lon="11.753401364037963"><ele>468.79999999999995</ele><time>2026-04-25T15:20:58.996Z</time></trkpt><trkpt lat="42.68937570465864" lon="11.753294281297018"><ele>468.4</ele><time>2026-04-25T15:21:00.997Z</time></trkpt><trkpt lat="42.689523034454226" lon="11.753297809454859"><ele>468.0</ele><time>2026-04-25T15:21:03.998Z</time></trkpt><trkpt lat="42.689582236069576" lon="11.753363818553883"><ele>467.5</ele><time>2026-04-25T15:21:04.998Z</time></trkpt><trkpt lat="42.68965690193503" lon="11.75345013738906"><ele>467.0</ele><time>2026-04-25T15:21:05.998Z</time></trkpt><trkpt lat="42.68975454009062" lon="11.753549769490379"><ele>466.5</ele><time>2026-04-25T15:21:06.998Z</time></trkpt><trkpt lat="42.6898599205297" lon="11.753659498577376"><ele>466.0</ele><time>2026-04-25T15:21:07.998Z</time></trkpt><trkpt lat="42.68998687410696" lon="11.753791111196353"><ele>466.33333333333337</ele><time>2026-04-25T15:21:08.998Z</time></trkpt><trkpt lat="42.690121057341194" lon="11.753932734309695"><ele>466.66666666666663</ele><time>2026-04-25T15:21:09.998Z</time></trkpt><trkpt lat="42.69025885482351" lon="11.754078306634474"><ele>467.0</ele><time>2026-04-25T15:21:10.998Z</time></trkpt><trkpt lat="42.69039846271881" lon="11.754223824192232"><ele>468.3333333333333</ele><time>2026-04-25T15:21:11.998Z</time></trkpt><trkpt lat="42.690547245867144" lon="11.754373967724492"><ele>469.66666666666663</ele><time>2026-04-25T15:21:12.998Z</time></trkpt><trkpt lat="42.6907030988599" lon="11.754531499705292"><ele>471.0</ele><time>2026-04-25T15:21:13.998Z</time></trkpt><trkpt lat="42.69085624129184" lon="11.754693558760334"><ele>471.0</ele><time>2026-04-25T15:21:14.998Z</time></trkpt><trkpt lat="42.691011747557916" lon="11.754856961475522"><ele>471.0</ele><time>2026-04-25T15:21:15.998Z</time></trkpt><trkpt lat="42.6911714606416" lon="11.75502761447159"><ele>471.0</ele><time>2026-04-25T15:21:16.998Z</time></trkpt><trkpt lat="42.69133908446332" lon="11.755199774639134"><ele>470.66666666666663</ele><time>2026-04-25T15:21:17.998Z</time></trkpt><trkpt lat="42.691510449463465" lon="11.75537598336452"><ele>470.3333333333333</ele><time>2026-04-25T15:21:18.998Z</time></trkpt><trkpt lat="42.69168583404624" lon="11.755554073544378"><ele>470.0</ele><time>2026-04-25T15:21:19.998Z</time></trkpt><trkpt lat="42.69187293162745" lon="11.755727338624848"><ele>469.0</ele><time>2026-04-25T15:21:20.998Z</time></trkpt><trkpt lat="42.692052979681755" lon="11.755909356348822"><ele>468.0</ele><time>2026-04-25T15:21:21.998Z</time></trkpt><trkpt lat="42.69223564816975" lon="11.756091832378432"><ele>468.0</ele><time>2026-04-25T15:21:22.998Z</time></trkpt><trkpt lat="42.69241689600694" lon="11.756271759562676"><ele>468.0</ele><time>2026-04-25T15:21:23.997Z</time></trkpt><trkpt lat="42.69258392747632" lon="11.756470242722822"><ele>468.0</ele><time>2026-04-25T15:21:24.997Z</time></trkpt><trkpt lat="42.692763362825104" lon="11.756655413089726"><ele>468.33333333333337</ele><time>2026-04-25T15:21:25.997Z</time></trkpt><trkpt lat="42.69293375194063" lon="11.756831248135889"><ele>468.6666666666667</ele><time>2026-04-25T15:21:26.997Z</time></trkpt><trkpt lat="42.69310466874791" lon="11.757004963860036"><ele>469.0</ele><time>2026-04-25T15:21:27.997Z</time></trkpt><trkpt lat="42.693281026258134" lon="11.757123117598747"><ele>470.33333333333337</ele><time>2026-04-25T15:21:28.997Z</time></trkpt><trkpt lat="42.69343349828488" lon="11.757266488037056"><ele>471.66666666666663</ele><time>2026-04-25T15:21:29.997Z</time></trkpt><trkpt lat="42.69359834095077" lon="11.757393835370205"><ele>473.0</ele><time>2026-04-25T15:21:30.997Z</time></trkpt><trkpt lat="42.693742065897055" lon="11.757518610186258"><ele>473.0</ele><time>2026-04-25T15:21:31.997Z</time></trkpt><trkpt lat="42.69390237486204" lon="11.757650323457371"><ele>473.0</ele><time>2026-04-25T15:21:32.997Z</time></trkpt><trkpt lat="42.69409131243774" lon="11.757707209183595"><ele>473.0</ele><time>2026-04-25T15:21:33.997Z</time></trkpt><trkpt lat="42.694278846352105" lon="11.757806269277829"><ele>474.3333333333333</ele><time>2026-04-25T15:21:34.997Z</time></trkpt><trkpt lat="42.694475790854796" lon="11.757888264003237"><ele>475.66666666666663</ele><time>2026-04-25T15:21:35.997Z</time></trkpt><trkpt lat="42.69467041274971" lon="11.757969291754128"><ele>477.0</ele><time>2026-04-25T15:21:36.997Z</time></trkpt><trkpt lat="42.69486489107613" lon="11.758050121607265"><ele>477.0</ele><time>2026-04-25T15:21:37.997Z</time></trkpt><trkpt lat="42.69505539880524" lon="11.758129126620512"><ele>477.0</ele><time>2026-04-25T15:21:38.997Z</time></trkpt><trkpt lat="42.69525062275823" lon="11.758210087504542"><ele>477.0</ele><time>2026-04-25T15:21:39.997Z</time></trkpt><trkpt lat="42.69544849908866" lon="11.758292148286818"><ele>476.66666666666663</ele><time>2026-04-25T15:21:40.997Z</time></trkpt><trkpt lat="42.695647540855155" lon="11.758374293560491"><ele>476.3333333333333</ele><time>2026-04-25T15:21:41.997Z</time></trkpt><trkpt lat="42.695847723709065" lon="11.758453876909046"><ele>476.0</ele><time>2026-04-25T15:21:42.997Z</time></trkpt><trkpt lat="42.69605610069139" lon="11.758532634992955"><ele>475.3333333333333</ele><time>2026-04-25T15:21:43.997Z</time></trkpt><trkpt lat="42.69626149135206" lon="11.758602761917565"><ele>474.66666666666663</ele><time>2026-04-25T15:21:44.997Z</time></trkpt><trkpt lat="42.69645234656549" lon="11.758703673320513"><ele>474.0</ele><time>2026-04-25T15:21:45.997Z</time></trkpt><trkpt lat="42.69663293913536" lon="11.758777598101053"><ele>474.0</ele><time>2026-04-25T15:21:46.997Z</time></trkpt><trkpt lat="42.69681351082829" lon="11.758851514292125"><ele>474.0</ele><time>2026-04-25T15:21:47.997Z</time></trkpt><trkpt lat="42.69699187884594" lon="11.758930990997856"><ele>474.0</ele><time>2026-04-25T15:21:48.997Z</time></trkpt><trkpt lat="42.697157868572184" lon="11.759027386938262"><ele>474.0</ele><time>2026-04-25T15:21:49.997Z</time></trkpt><trkpt lat="42.69730892382141" lon="11.759150841021205"><ele>474.0</ele><time>2026-04-25T15:21:50.997Z</time></trkpt><trkpt lat="42.69746419346223" lon="11.759289283764371"><ele>474.0</ele><time>2026-04-25T15:21:51.997Z</time></trkpt><trkpt lat="42.697622053770424" lon="11.759435597182287"><ele>474.33333333333337</ele><time>2026-04-25T15:21:52.997Z</time></trkpt><trkpt lat="42.697782505967666" lon="11.759590843143691"><ele>474.6666666666667</ele><time>2026-04-25T15:21:53.997Z</time></trkpt><trkpt lat="42.69794238158053" lon="11.759745531306969"><ele>475.0</ele><time>2026-04-25T15:21:54.997Z</time></trkpt><trkpt lat="42.69810155739238" lon="11.759899542324764"><ele>475.0</ele><time>2026-04-25T15:21:55.997Z</time></trkpt><trkpt lat="42.698271969378766" lon="11.760039056973909"><ele>475.0</ele><time>2026-04-25T15:21:56.997Z</time></trkpt><trkpt lat="42.698430663810015" lon="11.760196619194652"><ele>475.0</ele><time>2026-04-25T15:21:57.997Z</time></trkpt><trkpt lat="42.69859020829452" lon="11.760354646084638"><ele>475.0</ele><time>2026-04-25T15:21:58.997Z</time></trkpt><trkpt lat="42.698743570362765" lon="11.760503335643717"><ele>475.0</ele><time>2026-04-25T15:21:59.997Z</time></trkpt><trkpt lat="42.698894190010655" lon="11.760652213812175"><ele>475.0</ele><time>2026-04-25T15:22:00.997Z</time></trkpt><trkpt lat="42.699045660779454" lon="11.760804863749325"><ele>475.0</ele><time>2026-04-25T15:22:01.997Z</time></trkpt><trkpt lat="42.699196317031046" lon="11.760955009527505"><ele>475.0</ele><time>2026-04-25T15:22:02.997Z</time></trkpt><trkpt lat="42.69935351492944" lon="11.761109238236301"><ele>475.0</ele><time>2026-04-25T15:22:03.997Z</time></trkpt><trkpt lat="42.69951518819676" lon="11.761265741212883"><ele>471.33333333333337</ele><time>2026-04-25T15:22:04.997Z</time></trkpt><trkpt lat="42.69967286921654" lon="11.7614238660698"><ele>467.66666666666663</ele><time>2026-04-25T15:22:05.997Z</time></trkpt><trkpt lat="42.69983537012022" lon="11.761575656220371"><ele>464.0</ele><time>2026-04-25T15:22:06.997Z</time></trkpt><trkpt lat="42.70000146153924" lon="11.761716306984223"><ele>464.0</ele><time>2026-04-25T15:22:07.997Z</time></trkpt><trkpt lat="42.7001705960619" lon="11.761860079388784"><ele>464.0</ele><time>2026-04-25T15:22:08.997Z</time></trkpt><trkpt lat="42.70033112051012" lon="11.7620058166855"><ele>464.0</ele><time>2026-04-25T15:22:09.997Z</time></trkpt><trkpt lat="42.70048357583503" lon="11.76215074535052"><ele>464.3333333333333</ele><time>2026-04-25T15:22:10.997Z</time></trkpt><trkpt lat="42.70063248167818" lon="11.762287853599553"><ele>464.66666666666663</ele><time>2026-04-25T15:22:11.997Z</time></trkpt><trkpt lat="42.700777960046295" lon="11.7624064101299"><ele>465.0</ele><time>2026-04-25T15:22:12.997Z</time></trkpt><trkpt lat="42.70093576826273" lon="11.762490524672828"><ele>464.66666666666663</ele><time>2026-04-25T15:22:13.997Z</time></trkpt><trkpt lat="42.701102527475584" lon="11.76253604822553"><ele>464.3333333333333</ele><time>2026-04-25T15:22:14.997Z</time></trkpt><trkpt lat="42.70127485804597" lon="11.76256564873139"><ele>464.0</ele><time>2026-04-25T15:22:15.997Z</time></trkpt><trkpt lat="42.70145474220344" lon="11.762590234993628"><ele>464.0</ele><time>2026-04-25T15:22:16.997Z</time></trkpt><trkpt lat="42.701645119290944" lon="11.762621170445144"><ele>464.0</ele><time>2026-04-25T15:22:17.997Z</time></trkpt><trkpt lat="42.70183341426887" lon="11.762650077113571"><ele>464.0</ele><time>2026-04-25T15:22:18.997Z</time></trkpt><trkpt lat="42.70202954318446" lon="11.762678171436326"><ele>465.3333333333333</ele><time>2026-04-25T15:22:19.997Z</time></trkpt><trkpt lat="42.70222469807893" lon="11.76270728107508"><ele>466.66666666666663</ele><time>2026-04-25T15:22:20.997Z</time></trkpt><trkpt lat="42.702423285245075" lon="11.76273595652085"><ele>468.0</ele><time>2026-04-25T15:22:21.997Z</time></trkpt><trkpt lat="42.702631178338194" lon="11.762766212730535"><ele>468.0</ele><time>2026-04-25T15:22:22.997Z</time></trkpt><trkpt lat="42.70284027685817" lon="11.762793804525966"><ele>468.0</ele><time>2026-04-25T15:22:23.997Z</time></trkpt><trkpt lat="42.70305210405196" lon="11.762822603962599"><ele>468.0</ele><time>2026-04-25T15:22:24.997Z</time></trkpt><trkpt lat="42.703261435066956" lon="11.762853341567263"><ele>468.0</ele><time>2026-04-25T15:22:25.996Z</time></trkpt><trkpt lat="42.70346330905074" lon="11.762885898313755"><ele>468.0</ele><time>2026-04-25T15:22:26.996Z</time></trkpt><trkpt lat="42.70365065574667" lon="11.762920440271973"><ele>468.0</ele><time>2026-04-25T15:22:27.996Z</time></trkpt><trkpt lat="42.70383112444577" lon="11.762950948273373"><ele>468.0</ele><time>2026-04-25T15:22:28.996Z</time></trkpt><trkpt lat="42.703986645811035" lon="11.762986628864285"><ele>467.99999999999994</ele><time>2026-04-25T15:22:29.996Z</time></trkpt><trkpt lat="42.7041095165314" lon="11.763005860519113"><ele>467.99999999999994</ele><time>2026-04-25T15:22:30.996Z</time></trkpt><trkpt lat="42.70420022795379" lon="11.763017035338338"><ele>468.0</ele><time>2026-04-25T15:22:31.996Z</time></trkpt><trkpt lat="42.70426551676579" lon="11.763004502594871"><ele>468.0</ele><time>2026-04-25T15:22:32.996Z</time></trkpt><trkpt lat="42.70436935625577" lon="11.762892348793923"><ele>467.59999999999997</ele><time>2026-04-25T15:22:34.996Z</time></trkpt><trkpt lat="42.704414878241096" lon="11.762795134487959"><ele>467.19999999999993</ele><time>2026-04-25T15:22:35.996Z</time></trkpt><trkpt lat="42.70448293031969" lon="11.762705104924683"><ele>466.8</ele><time>2026-04-25T15:22:36.996Z</time></trkpt><trkpt lat="42.70458108757011" lon="11.762644425550599"><ele>466.4</ele><time>2026-04-25T15:22:37.996Z</time></trkpt><trkpt lat="42.70466590158991" lon="11.762572771717887"><ele>466.0</ele><time>2026-04-25T15:22:38.996Z</time></trkpt><trkpt lat="42.70473944803201" lon="11.762516606462906"><ele>465.83333333333337</ele><time>2026-04-25T15:22:39.996Z</time></trkpt><trkpt lat="42.70479803639465" lon="11.76246669634223"><ele>465.6666666666667</ele><time>2026-04-25T15:22:40.996Z</time></trkpt><trkpt lat="42.70488013911369" lon="11.762379911399265"><ele>465.5</ele><time>2026-04-25T15:22:42.996Z</time></trkpt><trkpt lat="42.704930591837375" lon="11.762315937201674"><ele>465.33333333333337</ele><time>2026-04-25T15:22:43.996Z</time></trkpt><trkpt lat="42.70499058273402" lon="11.762236494601881"><ele>465.1666666666667</ele><time>2026-04-25T15:22:44.996Z</time></trkpt><trkpt lat="42.70506696810463" lon="11.762139701580894"><ele>465.0</ele><time>2026-04-25T15:22:45.996Z</time></trkpt><trkpt lat="42.70514793609525" lon="11.762029685532585"><ele>465.0</ele><time>2026-04-25T15:22:46.996Z</time></trkpt><trkpt lat="42.705227773136656" lon="11.76189803515011"><ele>465.0</ele><time>2026-04-25T15:22:47.996Z</time></trkpt><trkpt lat="42.705299680937145" lon="11.761748838877171"><ele>465.0</ele><time>2026-04-25T15:22:48.996Z</time></trkpt><trkpt lat="42.70536513950558" lon="11.76157536358329"><ele>465.0</ele><time>2026-04-25T15:22:49.996Z</time></trkpt><trkpt lat="42.705431302705676" lon="11.761387575487056"><ele>463.33333333333337</ele><time>2026-04-25T15:22:50.996Z</time></trkpt><trkpt lat="42.70549782874456" lon="11.761194428294138"><ele>461.6666666666667</ele><time>2026-04-25T15:22:51.996Z</time></trkpt><trkpt lat="42.70556550879126" lon="11.76099358081601"><ele>460.0</ele><time>2026-04-25T15:22:52.996Z</time></trkpt><trkpt lat="42.70563718064636" lon="11.760797323980912"><ele>459.6666666666667</ele><time>2026-04-25T15:22:53.996Z</time></trkpt><trkpt lat="42.705703177007386" lon="11.760611662596078"><ele>459.33333333333337</ele><time>2026-04-25T15:22:54.996Z</time></trkpt><trkpt lat="42.70575798197283" lon="11.760423540278941"><ele>459.0</ele><time>2026-04-25T15:22:55.996Z</time></trkpt><trkpt lat="42.705796810654235" lon="11.760225922306791"><ele>460.0</ele><time>2026-04-25T15:22:56.996Z</time></trkpt><trkpt lat="42.70580943651392" lon="11.760018021853567"><ele>461.0</ele><time>2026-04-25T15:22:57.996Z</time></trkpt><trkpt lat="42.70581577203793" lon="11.759790628808199"><ele>462.0</ele><time>2026-04-25T15:22:58.996Z</time></trkpt><trkpt lat="42.705821661548356" lon="11.75956050467016"><ele>463.0</ele><time>2026-04-25T15:22:59.996Z</time></trkpt><trkpt lat="42.70584746334482" lon="11.759332861969325"><ele>464.0</ele><time>2026-04-25T15:23:00.996Z</time></trkpt><trkpt lat="42.705898887561524" lon="11.759114998930265"><ele>465.0</ele><time>2026-04-25T15:23:01.996Z</time></trkpt><trkpt lat="42.70597194941827" lon="11.758911655277094"><ele>466.0</ele><time>2026-04-25T15:23:02.996Z</time></trkpt><trkpt lat="42.70608439489976" lon="11.75875794609646"><ele>467.0</ele><time>2026-04-25T15:23:03.996Z</time></trkpt><trkpt lat="42.70619768099903" lon="11.758610473299408"><ele>468.0</ele><time>2026-04-25T15:23:04.996Z</time></trkpt><trkpt lat="42.70630657055653" lon="11.758467594784937"><ele>468.0</ele><time>2026-04-25T15:23:05.996Z</time></trkpt><trkpt lat="42.706392980200086" lon="11.758306026042474"><ele>468.0</ele><time>2026-04-25T15:23:06.998Z</time></trkpt><trkpt lat="42.70647858955428" lon="11.758158156471664"><ele>468.0</ele><time>2026-04-25T15:23:07.998Z</time></trkpt><trkpt lat="42.70654996619494" lon="11.75800417311284"><ele>468.0</ele><time>2026-04-25T15:23:08.998Z</time></trkpt><trkpt lat="42.70660611048972" lon="11.757846607442804"><ele>468.75</ele><time>2026-04-25T15:23:09.998Z</time></trkpt><trkpt lat="42.706638336166364" lon="11.757679421938112"><ele>469.5</ele><time>2026-04-25T15:23:10.998Z</time></trkpt><trkpt lat="42.70665236561789" lon="11.757501206812304"><ele>470.25</ele><time>2026-04-25T15:23:11.998Z</time></trkpt><trkpt lat="42.70665190709829" lon="11.757309841755301"><ele>471.0</ele><time>2026-04-25T15:23:12.998Z</time></trkpt><trkpt lat="42.70664963373158" lon="11.757099160447442"><ele>471.0</ele><time>2026-04-25T15:23:13.998Z</time></trkpt><trkpt lat="42.706646922301616" lon="11.756894683534098"><ele>471.0</ele><time>2026-04-25T15:23:14.998Z</time></trkpt><trkpt lat="42.706650124922376" lon="11.756704737540563"><ele>471.0</ele><time>2026-04-25T15:23:15.998Z</time></trkpt><trkpt lat="42.706665144966806" lon="11.756519970337182"><ele>471.0</ele><time>2026-04-25T15:23:16.997Z</time></trkpt><trkpt lat="42.70669195235147" lon="11.756330324406953"><ele>470.66666666666663</ele><time>2026-04-25T15:23:17.997Z</time></trkpt><trkpt lat="42.70674188222588" lon="11.756137579729785"><ele>470.3333333333333</ele><time>2026-04-25T15:23:18.998Z</time></trkpt><trkpt lat="42.70683362991099" lon="11.755979267742326"><ele>470.0</ele><time>2026-04-25T15:23:19.998Z</time></trkpt><trkpt lat="42.70690974808823" lon="11.755796122302757"><ele>469.5</ele><time>2026-04-25T15:23:20.998Z</time></trkpt><trkpt lat="42.70698066387306" lon="11.755618974288131"><ele>469.0</ele><time>2026-04-25T15:23:21.998Z</time></trkpt><trkpt lat="42.707051382046146" lon="11.755441623235404"><ele>468.5</ele><time>2026-04-25T15:23:22.998Z</time></trkpt><trkpt lat="42.707117680736204" lon="11.755258572744031"><ele>468.0</ele><time>2026-04-25T15:23:23.998Z</time></trkpt><trkpt lat="42.70717901128202" lon="11.755067511084356"><ele>468.0</ele><time>2026-04-25T15:23:24.998Z</time></trkpt><trkpt lat="42.707232436580526" lon="11.754888521446889"><ele>468.0</ele><time>2026-04-25T15:23:25.998Z</time></trkpt><trkpt lat="42.70728111613295" lon="11.754703160044574"><ele>468.0</ele><time>2026-04-25T15:23:26.998Z</time></trkpt><trkpt lat="42.70733622530863" lon="11.754518133907428"><ele>468.0</ele><time>2026-04-25T15:23:27.998Z</time></trkpt><trkpt lat="42.70739079175349" lon="11.754331800076258"><ele>468.0</ele><time>2026-04-25T15:23:28.998Z</time></trkpt><trkpt lat="42.70744192075587" lon="11.754136511152197"><ele>468.0</ele><time>2026-04-25T15:23:29.998Z</time></trkpt><trkpt lat="42.70750170036925" lon="11.753941046174578"><ele>468.0</ele><time>2026-04-25T15:23:30.998Z</time></trkpt><trkpt lat="42.70757120535625" lon="11.75373938578974"><ele>468.33333333333337</ele><time>2026-04-25T15:23:31.998Z</time></trkpt><trkpt lat="42.707645552431266" lon="11.75353544491101"><ele>468.6666666666667</ele><time>2026-04-25T15:23:32.998Z</time></trkpt><trkpt lat="42.70771167091421" lon="11.753322234206056"><ele>469.0</ele><time>2026-04-25T15:23:33.998Z</time></trkpt><trkpt lat="42.707771466510366" lon="11.753102325453108"><ele>468.0</ele><time>2026-04-25T15:23:34.998Z</time></trkpt><trkpt lat="42.707831887078555" lon="11.752880443442441"><ele>467.0</ele><time>2026-04-25T15:23:35.998Z</time></trkpt><trkpt lat="42.707907045404085" lon="11.752671461093914"><ele>466.0</ele><time>2026-04-25T15:23:36.998Z</time></trkpt><trkpt lat="42.707951671830145" lon="11.752457217166247"><ele>465.6666666666667</ele><time>2026-04-25T15:23:37.998Z</time></trkpt><trkpt lat="42.708009709710545" lon="11.752254398613271"><ele>465.33333333333337</ele><time>2026-04-25T15:23:38.998Z</time></trkpt><trkpt lat="42.70806302601337" lon="11.752057940727441"><ele>465.0</ele><time>2026-04-25T15:23:39.998Z</time></trkpt><trkpt lat="42.70811858073003" lon="11.751870847912798"><ele>465.0</ele><time>2026-04-25T15:23:40.998Z</time></trkpt><trkpt lat="42.70817952073164" lon="11.751689557796368"><ele>465.0</ele><time>2026-04-25T15:23:41.998Z</time></trkpt><trkpt lat="42.70825799555537" lon="11.751526059052017"><ele>465.0</ele><time>2026-04-25T15:23:42.998Z</time></trkpt><trkpt lat="42.7083541291101" lon="11.751385362534442"><ele>465.0</ele><time>2026-04-25T15:23:43.998Z</time></trkpt><trkpt lat="42.708427718983764" lon="11.751219293156694"><ele>465.0</ele><time>2026-04-25T15:23:44.997Z</time></trkpt><trkpt lat="42.70851752255002" lon="11.751064028227503"><ele>465.0</ele><time>2026-04-25T15:23:45.997Z</time></trkpt><trkpt lat="42.708602379296345" lon="11.750901298214774"><ele>465.0</ele><time>2026-04-25T15:23:46.997Z</time></trkpt><trkpt lat="42.708668056084335" lon="11.750721918036547"><ele>465.0</ele><time>2026-04-25T15:23:47.997Z</time></trkpt><trkpt lat="42.7087215759688" lon="11.750524038251674"><ele>465.66666666666663</ele><time>2026-04-25T15:23:48.997Z</time></trkpt><trkpt lat="42.708763237408" lon="11.750319958105473"><ele>466.3333333333333</ele><time>2026-04-25T15:23:49.997Z</time></trkpt><trkpt lat="42.708805433278656" lon="11.750111433590826"><ele>467.0</ele><time>2026-04-25T15:23:50.997Z</time></trkpt><trkpt lat="42.708851921899274" lon="11.74990986583815"><ele>467.0</ele><time>2026-04-25T15:23:51.997Z</time></trkpt><trkpt lat="42.70889400966657" lon="11.74970629887885"><ele>467.0</ele><time>2026-04-25T15:23:52.997Z</time></trkpt><trkpt lat="42.70893248025698" lon="11.749500637776949"><ele>467.0</ele><time>2026-04-25T15:23:53.997Z</time></trkpt><trkpt lat="42.70897861763319" lon="11.749302302323702"><ele>467.3333333333333</ele><time>2026-04-25T15:23:54.997Z</time></trkpt><trkpt lat="42.70903669243595" lon="11.749107721829132"><ele>467.66666666666663</ele><time>2026-04-25T15:23:55.997Z</time></trkpt><trkpt lat="42.70910362131812" lon="11.748920921079435"><ele>468.0</ele><time>2026-04-25T15:23:56.997Z</time></trkpt><trkpt lat="42.709176240414074" lon="11.748746623661935"><ele>468.0</ele><time>2026-04-25T15:23:57.997Z</time></trkpt><trkpt lat="42.709246810263664" lon="11.748571192415584"><ele>468.0</ele><time>2026-04-25T15:23:58.997Z</time></trkpt><trkpt lat="42.709313108287894" lon="11.748392618866086"><ele>468.0</ele><time>2026-04-25T15:23:59.997Z</time></trkpt><trkpt lat="42.709378455294555" lon="11.748211986770503"><ele>468.0</ele><time>2026-04-25T15:24:00.997Z</time></trkpt><trkpt lat="42.70942695420441" lon="11.74801504705834"><ele>468.33333333333337</ele><time>2026-04-25T15:24:01.997Z</time></trkpt><trkpt lat="42.70946748572326" lon="11.747813026706444"><ele>468.6666666666667</ele><time>2026-04-25T15:24:02.997Z</time></trkpt><trkpt lat="42.70950987644062" lon="11.747602034586633"><ele>469.0</ele><time>2026-04-25T15:24:03.997Z</time></trkpt><trkpt lat="42.7095525979979" lon="11.747395010138195"><ele>469.6666666666667</ele><time>2026-04-25T15:24:04.997Z</time></trkpt><trkpt lat="42.70959754453211" lon="11.747185132915707"><ele>470.33333333333337</ele><time>2026-04-25T15:24:05.997Z</time></trkpt><trkpt lat="42.70964377448538" lon="11.746977183781725"><ele>471.0</ele><time>2026-04-25T15:24:06.997Z</time></trkpt><trkpt lat="42.709691901256086" lon="11.74676822963693"><ele>471.33333333333337</ele><time>2026-04-25T15:24:07.997Z</time></trkpt><trkpt lat="42.709741346740635" lon="11.746555413360472"><ele>471.6666666666667</ele><time>2026-04-25T15:24:08.997Z</time></trkpt><trkpt lat="42.70979163097463" lon="11.746338687161177"><ele>472.0</ele><time>2026-04-25T15:24:09.997Z</time></trkpt><trkpt lat="42.7098425659557" lon="11.74612217508244"><ele>471.33333333333337</ele><time>2026-04-25T15:24:10.997Z</time></trkpt><trkpt lat="42.70988956666311" lon="11.745919617158759"><ele>470.66666666666663</ele><time>2026-04-25T15:24:11.997Z</time></trkpt><trkpt lat="42.70995122679113" lon="11.745738570097972"><ele>470.0</ele><time>2026-04-25T15:24:12.997Z</time></trkpt><trkpt lat="42.70999241940878" lon="11.74554087087138"><ele>470.0</ele><time>2026-04-25T15:24:13.997Z</time></trkpt><trkpt lat="42.71003924863348" lon="11.745338978851786"><ele>470.0</ele><time>2026-04-25T15:24:14.997Z</time></trkpt><trkpt lat="42.71010229501442" lon="11.74513644138917"><ele>470.0</ele><time>2026-04-25T15:24:15.997Z</time></trkpt><trkpt lat="42.71017760904758" lon="11.74493938269662"><ele>470.66666666666663</ele><time>2026-04-25T15:24:16.997Z</time></trkpt><trkpt lat="42.71025636797609" lon="11.744742520424946"><ele>471.33333333333337</ele><time>2026-04-25T15:24:17.997Z</time></trkpt><trkpt lat="42.71033800340586" lon="11.744559339508712"><ele>472.0</ele><time>2026-04-25T15:24:18.997Z</time></trkpt><trkpt lat="42.71041420096139" lon="11.744383895347001"><ele>471.75</ele><time>2026-04-25T15:24:19.997Z</time></trkpt><trkpt lat="42.71049099254208" lon="11.744221982606007"><ele>471.5</ele><time>2026-04-25T15:24:20.997Z</time></trkpt><trkpt lat="42.71056968895379" lon="11.744075381297836"><ele>471.25</ele><time>2026-04-25T15:24:21.997Z</time></trkpt><trkpt lat="42.71064180420001" lon="11.74393083091452"><ele>471.0</ele><time>2026-04-25T15:24:22.997Z</time></trkpt><trkpt lat="42.71071666676713" lon="11.743775790126103"><ele>471.0</ele><time>2026-04-25T15:24:23.997Z</time></trkpt><trkpt lat="42.71077342142476" lon="11.743591259343123"><ele>471.0</ele><time>2026-04-25T15:24:24.997Z</time></trkpt><trkpt lat="42.710802610467084" lon="11.743395049437634"><ele>471.0</ele><time>2026-04-25T15:24:25.997Z</time></trkpt><trkpt lat="42.71083454150461" lon="11.743205172258707"><ele>471.0</ele><time>2026-04-25T15:24:26.997Z</time></trkpt><trkpt lat="42.710871308382785" lon="11.743028946647787"><ele>471.4</ele><time>2026-04-25T15:24:27.997Z</time></trkpt><trkpt lat="42.7108950925538" lon="11.742875158621093"><ele>471.8</ele><time>2026-04-25T15:24:28.997Z</time></trkpt><trkpt lat="42.71090712381484" lon="11.742732991531435"><ele>472.19999999999993</ele><time>2026-04-25T15:24:29.997Z</time></trkpt><trkpt lat="42.71088530607149" lon="11.742585827125186"><ele>472.59999999999997</ele><time>2026-04-25T15:24:30.997Z</time></trkpt><trkpt lat="42.71083204907523" lon="11.74245863543456"><ele>473.0</ele><time>2026-04-25T15:24:31.997Z</time></trkpt><trkpt lat="42.71077108691784" lon="11.74233120986392"><ele>474.5</ele><time>2026-04-25T15:24:32.997Z</time></trkpt><trkpt lat="42.71066396058654" lon="11.74222978488347"><ele>476.0</ele><time>2026-04-25T15:24:33.997Z</time></trkpt><trkpt lat="42.71053946962247" lon="11.742192240509508"><ele>477.5</ele><time>2026-04-25T15:24:34.997Z</time></trkpt><trkpt lat="42.71040762792408" lon="11.742181138587496"><ele>479.0</ele><time>2026-04-25T15:24:35.997Z</time></trkpt><trkpt lat="42.710270040431034" lon="11.742173872872437"><ele>478.5</ele><time>2026-04-25T15:24:36.997Z</time></trkpt><trkpt lat="42.71013560711019" lon="11.7421616938646"><ele>478.0</ele><time>2026-04-25T15:24:37.997Z</time></trkpt><trkpt lat="42.710010550822716" lon="11.742100925374997"><ele>477.5</ele><time>2026-04-25T15:24:38.997Z</time></trkpt><trkpt lat="42.70989907939126" lon="11.742022309160879"><ele>477.0</ele><time>2026-04-25T15:24:39.997Z</time></trkpt><trkpt lat="42.70980402847399" lon="11.74191757329571"><ele>478.25</ele><time>2026-04-25T15:24:40.997Z</time></trkpt><trkpt lat="42.709721124974244" lon="11.741795487045266"><ele>479.5</ele><time>2026-04-25T15:24:41.997Z</time></trkpt><trkpt lat="42.70965353994182" lon="11.74164438348717"><ele>480.75</ele><time>2026-04-25T15:24:42.997Z</time></trkpt><trkpt lat="42.70960956860196" lon="11.741481841825154"><ele>482.0</ele><time>2026-04-25T15:24:43.997Z</time></trkpt><trkpt lat="42.70954840183458" lon="11.741342197470953"><ele>482.0</ele><time>2026-04-25T15:24:44.997Z</time></trkpt><trkpt lat="42.709507598760716" lon="11.741204913909637"><ele>482.00000000000006</ele><time>2026-04-25T15:24:45.997Z</time></trkpt><trkpt lat="42.709464961050706" lon="11.741070775910059"><ele>482.00000000000006</ele><time>2026-04-25T15:24:46.996Z</time></trkpt><trkpt lat="42.70940833210312" lon="11.740959357779047"><ele>482.0</ele><time>2026-04-25T15:24:47.996Z</time></trkpt><trkpt lat="42.70933415009055" lon="11.740848261367235"><ele>482.0</ele><time>2026-04-25T15:24:48.996Z</time></trkpt><trkpt lat="42.70922892464415" lon="11.740743429676266"><ele>482.5</ele><time>2026-04-25T15:24:49.996Z</time></trkpt><trkpt lat="42.709101726913325" lon="11.740649363494418"><ele>483.0</ele><time>2026-04-25T15:24:50.996Z</time></trkpt><trkpt lat="42.708976525818684" lon="11.74055502371725"><ele>483.5</ele><time>2026-04-25T15:24:51.996Z</time></trkpt><trkpt lat="42.708868584922904" lon="11.74044777648195"><ele>484.0</ele><time>2026-04-25T15:24:52.996Z</time></trkpt><trkpt lat="42.7087367941787" lon="11.74040101112739"><ele>484.0</ele><time>2026-04-25T15:24:53.996Z</time></trkpt><trkpt lat="42.70860200440895" lon="11.740429114308233"><ele>484.0</ele><time>2026-04-25T15:24:54.996Z</time></trkpt><trkpt lat="42.7084652724748" lon="11.740468293133985"><ele>484.0</ele><time>2026-04-25T15:24:55.996Z</time></trkpt><trkpt lat="42.7083230945571" lon="11.740497491107513"><ele>484.0</ele><time>2026-04-25T15:24:56.996Z</time></trkpt><trkpt lat="42.708176045336415" lon="11.740517767744304"><ele>483.5</ele><time>2026-04-25T15:24:57.996Z</time></trkpt><trkpt lat="42.70802546370226" lon="11.740537200650065"><ele>483.0</ele><time>2026-04-25T15:24:58.996Z</time></trkpt><trkpt lat="42.70788480547862" lon="11.740556578010242"><ele>482.5</ele><time>2026-04-25T15:24:59.996Z</time></trkpt><trkpt lat="42.70774319428007" lon="11.740569535729778"><ele>482.0</ele><time>2026-04-25T15:25:00.996Z</time></trkpt><trkpt lat="42.70759677783618" lon="11.740582138522678"><ele>484.75</ele><time>2026-04-25T15:25:01.996Z</time></trkpt><trkpt lat="42.70745839651938" lon="11.740581210977002"><ele>487.5</ele><time>2026-04-25T15:25:02.996Z</time></trkpt><trkpt lat="42.70732742538248" lon="11.740596699036557"><ele>490.25</ele><time>2026-04-25T15:25:03.996Z</time></trkpt><trkpt lat="42.707214791922944" lon="11.740605295261707"><ele>493.0</ele><time>2026-04-25T15:25:04.996Z</time></trkpt><trkpt lat="42.707109601541724" lon="11.740595624336079"><ele>493.0</ele><time>2026-04-25T15:25:05.996Z</time></trkpt><trkpt lat="42.70701185414084" lon="11.740568259257284"><ele>493.0</ele><time>2026-04-25T15:25:06.996Z</time></trkpt><trkpt lat="42.70689952795413" lon="11.740530827386095"><ele>493.0</ele><time>2026-04-25T15:25:07.996Z</time></trkpt><trkpt lat="42.706787492324786" lon="11.74045432062211"><ele>493.0</ele><time>2026-04-25T15:25:08.996Z</time></trkpt><trkpt lat="42.70666215428642" lon="11.740393156938946"><ele>492.25</ele><time>2026-04-25T15:25:09.996Z</time></trkpt><trkpt lat="42.70654589079698" lon="11.740333750389762"><ele>491.5</ele><time>2026-04-25T15:25:10.996Z</time></trkpt><trkpt lat="42.70643689217687" lon="11.740271091409566"><ele>490.75</ele><time>2026-04-25T15:25:11.996Z</time></trkpt><trkpt lat="42.70632946857916" lon="11.740188689596584"><ele>490.0</ele><time>2026-04-25T15:25:12.998Z</time></trkpt><trkpt lat="42.706230528729186" lon="11.740091461698722"><ele>492.5</ele><time>2026-04-25T15:25:13.998Z</time></trkpt><trkpt lat="42.706149483475635" lon="11.739963620180893"><ele>495.0</ele><time>2026-04-25T15:25:14.998Z</time></trkpt><trkpt lat="42.706078496971394" lon="11.739828745298297"><ele>497.5</ele><time>2026-04-25T15:25:15.998Z</time></trkpt><trkpt lat="42.706007317694905" lon="11.739687845801205"><ele>500.0</ele><time>2026-04-25T15:25:16.998Z</time></trkpt><trkpt lat="42.70591703749295" lon="11.73955800377836"><ele>500.0</ele><time>2026-04-25T15:25:17.998Z</time></trkpt><trkpt lat="42.70580616795177" lon="11.739461247033272"><ele>500.0</ele><time>2026-04-25T15:25:18.998Z</time></trkpt><trkpt lat="42.70567716632471" lon="11.739407146766112"><ele>500.0</ele><time>2026-04-25T15:25:19.998Z</time></trkpt><trkpt lat="42.70555175625515" lon="11.739334002703202"><ele>500.0</ele><time>2026-04-25T15:25:20.998Z</time></trkpt><trkpt lat="42.70541808978593" lon="11.739261174600836"><ele>501.0</ele><time>2026-04-25T15:25:21.998Z</time></trkpt><trkpt lat="42.70530308173262" lon="11.739192151152857"><ele>502.0</ele><time>2026-04-25T15:25:22.998Z</time></trkpt><trkpt lat="42.705191462530905" lon="11.739124407126653"><ele>503.0</ele><time>2026-04-25T15:25:23.998Z</time></trkpt><trkpt lat="42.70509440196998" lon="11.739046515081485"><ele>504.0</ele><time>2026-04-25T15:25:24.998Z</time></trkpt><trkpt lat="42.70501545092877" lon="11.738931345428156"><ele>504.0</ele><time>2026-04-25T15:25:25.998Z</time></trkpt><trkpt lat="42.7049245600925" lon="11.738817051144556"><ele>504.0</ele><time>2026-04-25T15:25:26.998Z</time></trkpt><trkpt lat="42.70483430268439" lon="11.738698817730395"><ele>504.0</ele><time>2026-04-25T15:25:27.998Z</time></trkpt><trkpt lat="42.70476223040748" lon="11.738597524521392"><ele>504.0</ele><time>2026-04-25T15:25:28.998Z</time></trkpt><trkpt lat="42.70469653204883" lon="11.738502428807747"><ele>504.0</ele><time>2026-04-25T15:25:29.998Z</time></trkpt><trkpt lat="42.70462706502482" lon="11.73843528553975"><ele>506.6</ele><time>2026-04-25T15:25:30.998Z</time></trkpt><trkpt lat="42.70454679110166" lon="11.73838372700152"><ele>509.2</ele><time>2026-04-25T15:25:31.998Z</time></trkpt><trkpt lat="42.70445419738537" lon="11.738352559807813"><ele>511.80000000000007</ele><time>2026-04-25T15:25:32.998Z</time></trkpt><trkpt lat="42.70435717790191" lon="11.738329581287005"><ele>514.4</ele><time>2026-04-25T15:25:33.998Z</time></trkpt><trkpt lat="42.70425591241495" lon="11.738320908028738"><ele>517.0</ele><time>2026-04-25T15:25:34.998Z</time></trkpt><trkpt lat="42.70417036935907" lon="11.738311286765791"><ele>517.0</ele><time>2026-04-25T15:25:35.998Z</time></trkpt><trkpt lat="42.704092800842254" lon="11.738296697409448"><ele>517.0</ele><time>2026-04-25T15:25:36.998Z</time></trkpt><trkpt lat="42.70401059132119" lon="11.7382011659994"><ele>517.0</ele><time>2026-04-25T15:25:38.998Z</time></trkpt><trkpt lat="42.7040028902284" lon="11.738075958805583"><ele>517.0</ele><time>2026-04-25T15:25:40.998Z</time></trkpt><trkpt lat="42.70404210767126" lon="11.737984843410437"><ele>517.0</ele><time>2026-04-25T15:25:42.998Z</time></trkpt><trkpt lat="42.70405899352132" lon="11.737894819837976"><ele>517.0</ele><time>2026-04-25T15:25:45.998Z</time></trkpt><trkpt lat="42.70406357949793" lon="11.737714714285346"><ele>518.4</ele><time>2026-04-25T15:25:47.998Z</time></trkpt><trkpt lat="42.704060271457095" lon="11.737581364561382"><ele>519.8000000000001</ele><time>2026-04-25T15:25:48.998Z</time></trkpt><trkpt lat="42.70405297360681" lon="11.737426219275662"><ele>521.2</ele><time>2026-04-25T15:25:49.998Z</time></trkpt><trkpt lat="42.704050056214314" lon="11.737278085511305"><ele>522.6</ele><time>2026-04-25T15:25:50.998Z</time></trkpt><trkpt lat="42.70406812971808" lon="11.737142094312377"><ele>524.0</ele><time>2026-04-25T15:25:51.998Z</time></trkpt><trkpt lat="42.70410357798482" lon="11.737030852692667"><ele>524.0</ele><time>2026-04-25T15:25:52.998Z</time></trkpt><trkpt lat="42.70413579352094" lon="11.736914299276485"><ele>524.0</ele><time>2026-04-25T15:25:53.997Z</time></trkpt><trkpt lat="42.704173748041974" lon="11.736796388360055"><ele>524.0</ele><time>2026-04-25T15:25:54.997Z</time></trkpt><trkpt lat="42.704214077877445" lon="11.73667555358961"><ele>524.0</ele><time>2026-04-25T15:25:55.997Z</time></trkpt><trkpt lat="42.70427573784664" lon="11.736562242990024"><ele>524.0</ele><time>2026-04-25T15:25:56.997Z</time></trkpt><trkpt lat="42.70435810416172" lon="11.73647316057668"><ele>526.75</ele><time>2026-04-25T15:25:57.997Z</time></trkpt><trkpt lat="42.704442377399" lon="11.736380309362678"><ele>529.5</ele><time>2026-04-25T15:25:58.997Z</time></trkpt><trkpt lat="42.70453296019252" lon="11.73628009579216"><ele>532.25</ele><time>2026-04-25T15:25:59.997Z</time></trkpt><trkpt lat="42.70463464666996" lon="11.736190322198352"><ele>535.0</ele><time>2026-04-25T15:26:00.997Z</time></trkpt><trkpt lat="42.70473772115246" lon="11.736086868981605"><ele>527.5</ele><time>2026-04-25T15:26:01.997Z</time></trkpt><trkpt lat="42.7048482930541" lon="11.735980606626294"><ele>520.0</ele><time>2026-04-25T15:26:02.997Z</time></trkpt><trkpt lat="42.70494762582375" lon="11.73584109777538"><ele>512.5</ele><time>2026-04-25T15:26:03.997Z</time></trkpt><trkpt lat="42.70504973649188" lon="11.735711262660613"><ele>505.0</ele><time>2026-04-25T15:26:04.997Z</time></trkpt><trkpt lat="42.705147488556676" lon="11.735568789446475"><ele>505.0</ele><time>2026-04-25T15:26:05.997Z</time></trkpt><trkpt lat="42.70524540284232" lon="11.735437727432217"><ele>505.0</ele><time>2026-04-25T15:26:06.997Z</time></trkpt><trkpt lat="42.705350066913134" lon="11.735327238323372"><ele>505.0</ele><time>2026-04-25T15:26:07.997Z</time></trkpt><trkpt lat="42.70544297051831" lon="11.735244202696403"><ele>505.0</ele><time>2026-04-25T15:26:08.997Z</time></trkpt><trkpt lat="42.705523049964874" lon="11.735195186653854"><ele>504.8</ele><time>2026-04-25T15:26:09.997Z</time></trkpt><trkpt lat="42.705598759639976" lon="11.73516586118695"><ele>504.6</ele><time>2026-04-25T15:26:10.997Z</time></trkpt><trkpt lat="42.70567672686916" lon="11.735210816531366"><ele>504.4</ele><time>2026-04-25T15:26:11.997Z</time></trkpt><trkpt lat="42.70576686512028" lon="11.73523307840972"><ele>504.2</ele><time>2026-04-25T15:26:12.997Z</time></trkpt><trkpt lat="42.70587009825874" lon="11.73523652889941"><ele>504.0</ele><time>2026-04-25T15:26:13.997Z</time></trkpt><trkpt lat="42.70597102131804" lon="11.735157672925054"><ele>502.4</ele><time>2026-04-25T15:26:14.997Z</time></trkpt><trkpt lat="42.70603248167335" lon="11.735036929284298"><ele>500.79999999999995</ele><time>2026-04-25T15:26:15.997Z</time></trkpt><trkpt lat="42.70608137973212" lon="11.734924612533717"><ele>499.20000000000005</ele><time>2026-04-25T15:26:16.997Z</time></trkpt><trkpt lat="42.70613417741113" lon="11.734793984028922"><ele>497.6</ele><time>2026-04-25T15:26:17.997Z</time></trkpt><trkpt lat="42.706184204097106" lon="11.734638071242186"><ele>496.0</ele><time>2026-04-25T15:26:18.997Z</time></trkpt><trkpt lat="42.706252430178715" lon="11.734465506074569"><ele>493.6666666666667</ele><time>2026-04-25T15:26:19.997Z</time></trkpt><trkpt lat="42.70632799171192" lon="11.734283302624238"><ele>491.33333333333337</ele><time>2026-04-25T15:26:20.997Z</time></trkpt><trkpt lat="42.70639670605989" lon="11.73409091585763"><ele>489.0</ele><time>2026-04-25T15:26:21.997Z</time></trkpt><trkpt lat="42.70644117154676" lon="11.733887007979268"><ele>489.0</ele><time>2026-04-25T15:26:22.997Z</time></trkpt><trkpt lat="42.70645369613406" lon="11.733692508451767"><ele>489.0</ele><time>2026-04-25T15:26:23.997Z</time></trkpt><trkpt lat="42.70644302834666" lon="11.733517331655836"><ele>489.0</ele><time>2026-04-25T15:26:24.997Z</time></trkpt><trkpt lat="42.70645047999697" lon="11.733378080048931"><ele>489.0</ele><time>2026-04-25T15:26:25.997Z</time></trkpt><trkpt lat="42.70648646073638" lon="11.733269184424591"><ele>488.6666666666667</ele><time>2026-04-25T15:26:26.997Z</time></trkpt><trkpt lat="42.70654337199884" lon="11.733193329262"><ele>488.33333333333337</ele><time>2026-04-25T15:26:27.997Z</time></trkpt><trkpt lat="42.70661748763118" lon="11.733148255129722"><ele>488.0</ele><time>2026-04-25T15:26:28.997Z</time></trkpt><trkpt lat="42.70669794901374" lon="11.733105385284095"><ele>487.6666666666667</ele><time>2026-04-25T15:26:29.997Z</time></trkpt><trkpt lat="42.70678244344641" lon="11.733050069531823"><ele>487.33333333333337</ele><time>2026-04-25T15:26:30.997Z</time></trkpt><trkpt lat="42.706878944612725" lon="11.733001562693076"><ele>487.0</ele><time>2026-04-25T15:26:31.997Z</time></trkpt><trkpt lat="42.7069703874273" lon="11.732966838851612"><ele>488.40000000000003</ele><time>2026-04-25T15:26:32.997Z</time></trkpt><trkpt lat="42.707064500941534" lon="11.73295415152457"><ele>489.80000000000007</ele><time>2026-04-25T15:26:33.997Z</time></trkpt><trkpt lat="42.707168343453276" lon="11.732965167180666"><ele>491.2</ele><time>2026-04-25T15:26:34.997Z</time></trkpt><trkpt lat="42.70727507946078" lon="11.732981084426411"><ele>492.6</ele><time>2026-04-25T15:26:35.997Z</time></trkpt><trkpt lat="42.707376587172455" lon="11.732999588479693"><ele>494.0</ele><time>2026-04-25T15:26:36.997Z</time></trkpt><trkpt lat="42.70745355525319" lon="11.733005262361523"><ele>493.99999999999994</ele><time>2026-04-25T15:26:37.997Z</time></trkpt><trkpt lat="42.707527023983786" lon="11.733013969613374"><ele>494.0</ele><time>2026-04-25T15:26:39.997Z</time></trkpt><trkpt lat="42.707595309852394" lon="11.733013887850259"><ele>494.0</ele><time>2026-04-25T15:26:41.997Z</time></trkpt><trkpt lat="42.70766508103211" lon="11.732965952502951"><ele>494.0</ele><time>2026-04-25T15:26:52.997Z</time></trkpt><trkpt lat="42.70774999013502" lon="11.732880978744133"><ele>493.99999999999994</ele><time>2026-04-25T15:28:18.997Z</time></trkpt><trkpt lat="42.707797744992405" lon="11.732767027380724"><ele>494.0</ele><time>2026-04-25T15:28:19.997Z</time></trkpt><trkpt lat="42.7078403356719" lon="11.732599993785994"><ele>492.75</ele><time>2026-04-25T15:28:20.997Z</time></trkpt><trkpt lat="42.7078769081272" lon="11.732418296934778"><ele>491.5</ele><time>2026-04-25T15:28:21.997Z</time></trkpt><trkpt lat="42.70791634820523" lon="11.732248055034319"><ele>490.25</ele><time>2026-04-25T15:28:22.997Z</time></trkpt><trkpt lat="42.70794900194498" lon="11.732091825115829"><ele>489.0</ele><time>2026-04-25T15:28:23.997Z</time></trkpt><trkpt lat="42.70796565420146" lon="11.731941010139922"><ele>490.25</ele><time>2026-04-25T15:28:24.997Z</time></trkpt><trkpt lat="42.70793799492504" lon="11.731780620369985"><ele>491.5</ele><time>2026-04-25T15:28:25.997Z</time></trkpt><trkpt lat="42.70786033939025" lon="11.731647332214132"><ele>492.75</ele><time>2026-04-25T15:28:26.997Z</time></trkpt><trkpt lat="42.707766668973925" lon="11.731501158111472"><ele>494.0</ele><time>2026-04-25T15:28:27.997Z</time></trkpt><trkpt lat="42.70766563545281" lon="11.731369035002496"><ele>493.0</ele><time>2026-04-25T15:28:28.997Z</time></trkpt><trkpt lat="42.70759155587147" lon="11.731221426997974"><ele>492.0</ele><time>2026-04-25T15:28:29.997Z</time></trkpt><trkpt lat="42.70752976718725" lon="11.73107089571626"><ele>491.0</ele><time>2026-04-25T15:28:30.997Z</time></trkpt><trkpt lat="42.70747531914607" lon="11.73090949855687"><ele>490.0</ele><time>2026-04-25T15:28:31.997Z</time></trkpt><trkpt lat="42.70743657111825" lon="11.730735442666028"><ele>490.0</ele><time>2026-04-25T15:28:32.997Z</time></trkpt><trkpt lat="42.707397097040285" lon="11.730560890194266"><ele>490.0</ele><time>2026-04-25T15:28:33.997Z</time></trkpt><trkpt lat="42.70735620268209" lon="11.730387518217066"><ele>490.0</ele><time>2026-04-25T15:28:34.997Z</time></trkpt><trkpt lat="42.70731594081549" lon="11.730238367661975"><ele>490.0</ele><time>2026-04-25T15:28:35.997Z</time></trkpt><trkpt lat="42.70728617325951" lon="11.730085926673537"><ele>490.5</ele><time>2026-04-25T15:28:36.997Z</time></trkpt><trkpt lat="42.70726994518419" lon="11.729929231614998"><ele>491.0</ele><time>2026-04-25T15:28:37.997Z</time></trkpt><trkpt lat="42.70727187482397" lon="11.729751711202177"><ele>491.5</ele><time>2026-04-25T15:28:38.997Z</time></trkpt><trkpt lat="42.70728638239723" lon="11.729554696538644"><ele>492.0</ele><time>2026-04-25T15:28:39.997Z</time></trkpt><trkpt lat="42.7073185447586" lon="11.729356751206556"><ele>492.0</ele><time>2026-04-25T15:28:40.997Z</time></trkpt><trkpt lat="42.707355475173166" lon="11.729177603744116"><ele>492.0</ele><time>2026-04-25T15:28:41.997Z</time></trkpt><trkpt lat="42.70739506154945" lon="11.729004858488876"><ele>492.0</ele><time>2026-04-25T15:28:42.997Z</time></trkpt><trkpt lat="42.70743579102852" lon="11.728826067798742"><ele>492.0</ele><time>2026-04-25T15:28:43.997Z</time></trkpt><trkpt lat="42.70747392646921" lon="11.728644602625534"><ele>490.0</ele><time>2026-04-25T15:28:44.997Z</time></trkpt><trkpt lat="42.707515991021765" lon="11.728450707808186"><ele>488.0</ele><time>2026-04-25T15:28:45.997Z</time></trkpt><trkpt lat="42.70756426778831" lon="11.728245776522382"><ele>486.0</ele><time>2026-04-25T15:28:46.997Z</time></trkpt><trkpt lat="42.70762956559038" lon="11.728043781062073"><ele>486.0</ele><time>2026-04-25T15:28:47.997Z</time></trkpt><trkpt lat="42.70768581869228" lon="11.727824264761056"><ele>486.0</ele><time>2026-04-25T15:28:48.997Z</time></trkpt><trkpt lat="42.70774534426164" lon="11.727597629086757"><ele>486.0</ele><time>2026-04-25T15:28:49.997Z</time></trkpt><trkpt lat="42.7077985444923" lon="11.727366026868856"><ele>487.0</ele><time>2026-04-25T15:28:50.997Z</time></trkpt><trkpt lat="42.70782885967122" lon="11.727128867292384"><ele>488.0</ele><time>2026-04-25T15:28:51.997Z</time></trkpt><trkpt lat="42.70783153075253" lon="11.726904420094176"><ele>489.0</ele><time>2026-04-25T15:28:52.997Z</time></trkpt><trkpt lat="42.70782008187849" lon="11.72668755478608"><ele>489.75</ele><time>2026-04-25T15:28:53.997Z</time></trkpt><trkpt lat="42.707802918276506" lon="11.726473422582858"><ele>490.5</ele><time>2026-04-25T15:28:54.997Z</time></trkpt><trkpt lat="42.70779233734578" lon="11.726269230149917"><ele>491.25</ele><time>2026-04-25T15:28:55.997Z</time></trkpt><trkpt lat="42.707787421689375" lon="11.726081479899939"><ele>492.0</ele><time>2026-04-25T15:28:56.997Z</time></trkpt><trkpt lat="42.70779262130374" lon="11.725905923347337"><ele>493.25</ele><time>2026-04-25T15:28:57.997Z</time></trkpt><trkpt lat="42.70781419298648" lon="11.725736321627798"><ele>494.5</ele><time>2026-04-25T15:28:58.997Z</time></trkpt><trkpt lat="42.707827319712806" lon="11.72557398073882"><ele>495.75</ele><time>2026-04-25T15:28:59.997Z</time></trkpt><trkpt lat="42.70786827692625" lon="11.7254152993373"><ele>497.0</ele><time>2026-04-25T15:29:00.997Z</time></trkpt><trkpt lat="42.707912184915955" lon="11.725251537165422"><ele>496.75</ele><time>2026-04-25T15:29:01.996Z</time></trkpt><trkpt lat="42.70798299129233" lon="11.72510038674716"><ele>496.5</ele><time>2026-04-25T15:29:02.996Z</time></trkpt><trkpt lat="42.7080344733623" lon="11.724933681570949"><ele>496.25</ele><time>2026-04-25T15:29:03.996Z</time></trkpt><trkpt lat="42.70811369590042" lon="11.72477535103001"><ele>496.0</ele><time>2026-04-25T15:29:04.996Z</time></trkpt><trkpt lat="42.70816690863709" lon="11.724603097920093"><ele>496.0</ele><time>2026-04-25T15:29:05.996Z</time></trkpt><trkpt lat="42.70820471785337" lon="11.724426872683235"><ele>496.0</ele><time>2026-04-25T15:29:06.996Z</time></trkpt><trkpt lat="42.70823886172358" lon="11.72424402069083"><ele>496.0</ele><time>2026-04-25T15:29:07.996Z</time></trkpt><trkpt lat="42.70827322997246" lon="11.72404852135222"><ele>496.0</ele><time>2026-04-25T15:29:08.996Z</time></trkpt><trkpt lat="42.70830931812384" lon="11.723840970854333"><ele>494.33333333333337</ele><time>2026-04-25T15:29:09.996Z</time></trkpt><trkpt lat="42.7083462528072" lon="11.723628551496327"><ele>492.66666666666663</ele><time>2026-04-25T15:29:10.996Z</time></trkpt><trkpt lat="42.70838328220545" lon="11.723415587456065"><ele>491.0</ele><time>2026-04-25T15:29:11.996Z</time></trkpt><trkpt lat="42.70841982240534" lon="11.72320543352844"><ele>489.3333333333333</ele><time>2026-04-25T15:29:12.996Z</time></trkpt><trkpt lat="42.70845671112656" lon="11.722990422437693"><ele>487.66666666666663</ele><time>2026-04-25T15:29:13.996Z</time></trkpt><trkpt lat="42.70849318139692" lon="11.72277842179973"><ele>486.0</ele><time>2026-04-25T15:29:14.996Z</time></trkpt><trkpt lat="42.708528871302676" lon="11.722570957150731"><ele>488.0</ele><time>2026-04-25T15:29:15.996Z</time></trkpt><trkpt lat="42.708564080053385" lon="11.722361755115099"><ele>490.0</ele><time>2026-04-25T15:29:16.996Z</time></trkpt><trkpt lat="42.70859396251368" lon="11.722172524676031"><ele>492.0</ele><time>2026-04-25T15:29:17.996Z</time></trkpt><trkpt lat="42.70860273812895" lon="11.721982060424306"><ele>494.0</ele><time>2026-04-25T15:29:18.996Z</time></trkpt><trkpt lat="42.70862605665097" lon="11.721824528993052"><ele>493.99999999999994</ele><time>2026-04-25T15:29:19.996Z</time></trkpt><trkpt lat="42.70864226757188" lon="11.721692345191213"><ele>494.0</ele><time>2026-04-25T15:29:20.996Z</time></trkpt><trkpt lat="42.70866286524493" lon="11.721590274180553"><ele>494.0</ele><time>2026-04-25T15:29:21.996Z</time></trkpt><trkpt lat="42.70869617038235" lon="11.721513115390117"><ele>494.0</ele><time>2026-04-25T15:29:22.996Z</time></trkpt><trkpt lat="42.708741814406345" lon="11.721447834660307"><ele>493.99999999999994</ele><time>2026-04-25T15:29:23.999Z</time></trkpt><trkpt lat="42.708794692247665" lon="11.72137587143405"><ele>494.0</ele><time>2026-04-25T15:29:24.999Z</time></trkpt><trkpt lat="42.70885065253121" lon="11.721283520063315"><ele>494.0</ele><time>2026-04-25T15:29:25.999Z</time></trkpt><trkpt lat="42.70892377713249" lon="11.721190911126392"><ele>494.0</ele><time>2026-04-25T15:29:26.999Z</time></trkpt><trkpt lat="42.70901096498903" lon="11.721092674521435"><ele>494.0</ele><time>2026-04-25T15:29:27.998Z</time></trkpt><trkpt lat="42.709103808052895" lon="11.720983293968267"><ele>494.0</ele><time>2026-04-25T15:29:28.998Z</time></trkpt><trkpt lat="42.70918869213767" lon="11.720854003027013"><ele>493.0</ele><time>2026-04-25T15:29:29.998Z</time></trkpt><trkpt lat="42.70926645410189" lon="11.720718575361037"><ele>492.0</ele><time>2026-04-25T15:29:30.998Z</time></trkpt><trkpt lat="42.7093513917432" lon="11.720584383624967"><ele>491.0</ele><time>2026-04-25T15:29:31.998Z</time></trkpt><trkpt lat="42.70942943880802" lon="11.720435959236788"><ele>490.0</ele><time>2026-04-25T15:29:32.999Z</time></trkpt><trkpt lat="42.709521836106205" lon="11.720306578090277"><ele>492.8</ele><time>2026-04-25T15:29:33.998Z</time></trkpt><trkpt lat="42.70960223166378" lon="11.720172177891246"><ele>495.6</ele><time>2026-04-25T15:29:34.998Z</time></trkpt><trkpt lat="42.709671155460505" lon="11.720061277647313"><ele>498.4</ele><time>2026-04-25T15:29:35.998Z</time></trkpt><trkpt lat="42.70974188856611" lon="11.71997032414153"><ele>501.2</ele><time>2026-04-25T15:29:36.998Z</time></trkpt><trkpt lat="42.70982053160171" lon="11.719897061477969"><ele>504.0</ele><time>2026-04-25T15:29:37.998Z</time></trkpt><trkpt lat="42.70990231026048" lon="11.719857422756574"><ele>504.0</ele><time>2026-04-25T15:29:38.998Z</time></trkpt><trkpt lat="42.70999041474935" lon="11.719834658212449"><ele>504.0</ele><time>2026-04-25T15:29:39.998Z</time></trkpt><trkpt lat="42.710078977986235" lon="11.719839904595297"><ele>504.0</ele><time>2026-04-25T15:29:40.998Z</time></trkpt><trkpt lat="42.710188645009985" lon="11.719867965659738"><ele>504.0</ele><time>2026-04-25T15:29:41.998Z</time></trkpt><trkpt lat="42.710321209965684" lon="11.719922487636095"><ele>504.0</ele><time>2026-04-25T15:29:42.998Z</time></trkpt><trkpt lat="42.71045830439826" lon="11.719984856504647"><ele>506.75</ele><time>2026-04-25T15:29:43.998Z</time></trkpt><trkpt lat="42.71059227155827" lon="11.720045618333389"><ele>509.5</ele><time>2026-04-25T15:29:44.998Z</time></trkpt><trkpt lat="42.710728267070266" lon="11.720104030356929"><ele>512.25</ele><time>2026-04-25T15:29:45.998Z</time></trkpt><trkpt lat="42.71086475597639" lon="11.720161835205838"><ele>515.0</ele><time>2026-04-25T15:29:46.998Z</time></trkpt><trkpt lat="42.710998797236215" lon="11.720202218784376"><ele>518.25</ele><time>2026-04-25T15:29:47.998Z</time></trkpt><trkpt lat="42.711138175118364" lon="11.720216880377457"><ele>521.5</ele><time>2026-04-25T15:29:48.998Z</time></trkpt><trkpt lat="42.71127852271989" lon="11.720207001156526"><ele>524.75</ele><time>2026-04-25T15:29:49.998Z</time></trkpt><trkpt lat="42.71141455489746" lon="11.720243042865722"><ele>528.0</ele><time>2026-04-25T15:29:50.998Z</time></trkpt><trkpt lat="42.71153370724442" lon="11.720271501376576"><ele>529.25</ele><time>2026-04-25T15:29:51.998Z</time></trkpt><trkpt lat="42.71166119556734" lon="11.720304214768905"><ele>530.5</ele><time>2026-04-25T15:29:52.998Z</time></trkpt><trkpt lat="42.7118080342449" lon="11.720345534288288"><ele>531.75</ele><time>2026-04-25T15:29:53.998Z</time></trkpt><trkpt lat="42.71196718259317" lon="11.720390758456997"><ele>533.0</ele><time>2026-04-25T15:29:54.998Z</time></trkpt><trkpt lat="42.7121306132842" lon="11.720402182646984"><ele>528.6666666666666</ele><time>2026-04-25T15:29:55.998Z</time></trkpt><trkpt lat="42.71229673695068" lon="11.720424325746082"><ele>524.3333333333334</ele><time>2026-04-25T15:29:56.998Z</time></trkpt><trkpt lat="42.71246317579617" lon="11.720462857304643"><ele>520.0</ele><time>2026-04-25T15:29:57.998Z</time></trkpt><trkpt lat="42.712641423115755" lon="11.720487175491447"><ele>518.3333333333334</ele><time>2026-04-25T15:29:58.998Z</time></trkpt><trkpt lat="42.71283744874534" lon="11.720516509086234"><ele>516.6666666666666</ele><time>2026-04-25T15:29:59.998Z</time></trkpt><trkpt lat="42.71303581934258" lon="11.72054130735945"><ele>515.0</ele><time>2026-04-25T15:30:00.998Z</time></trkpt><trkpt lat="42.71323901224067" lon="11.720542569481223"><ele>515.0</ele><time>2026-04-25T15:30:01.998Z</time></trkpt><trkpt lat="42.71343163974658" lon="11.720559832410103"><ele>515.0</ele><time>2026-04-25T15:30:02.998Z</time></trkpt><trkpt lat="42.71362179267303" lon="11.72058734388625"><ele>515.0</ele><time>2026-04-25T15:30:03.998Z</time></trkpt><trkpt lat="42.713806051050874" lon="11.720610571132973"><ele>511.75</ele><time>2026-04-25T15:30:04.998Z</time></trkpt><trkpt lat="42.713979306518496" lon="11.720636188171607"><ele>508.5</ele><time>2026-04-25T15:30:05.998Z</time></trkpt><trkpt lat="42.71411760238476" lon="11.72064975192039"><ele>505.25</ele><time>2026-04-25T15:30:06.998Z</time></trkpt><trkpt lat="42.714245344971076" lon="11.720642485465516"><ele>502.0</ele><time>2026-04-25T15:30:07.998Z</time></trkpt><trkpt lat="42.71435436426277" lon="11.72061225699668"><ele>501.25</ele><time>2026-04-25T15:30:08.998Z</time></trkpt><trkpt lat="42.714453232210616" lon="11.720551635386462"><ele>500.5</ele><time>2026-04-25T15:30:09.998Z</time></trkpt><trkpt lat="42.714572296326295" lon="11.72043380477582"><ele>499.75</ele><time>2026-04-25T15:30:10.998Z</time></trkpt><trkpt lat="42.714719678023734" lon="11.720301838526758"><ele>499.0</ele><time>2026-04-25T15:30:11.998Z</time></trkpt><trkpt lat="42.71487432017247" lon="11.720203111688958"><ele>499.0</ele><time>2026-04-25T15:30:12.998Z</time></trkpt><trkpt lat="42.715015691725554" lon="11.720085502582695"><ele>499.0</ele><time>2026-04-25T15:30:13.998Z</time></trkpt><trkpt lat="42.715144672035656" lon="11.719951679719122"><ele>499.0</ele><time>2026-04-25T15:30:14.998Z</time></trkpt><trkpt lat="42.71525234537746" lon="11.719792009379503"><ele>495.0</ele><time>2026-04-25T15:30:15.998Z</time></trkpt><trkpt lat="42.71534463597375" lon="11.71961287246167"><ele>491.0</ele><time>2026-04-25T15:30:16.998Z</time></trkpt><trkpt lat="42.71541424011374" lon="11.719411740986757"><ele>487.0</ele><time>2026-04-25T15:30:17.998Z</time></trkpt><trkpt lat="42.71547455502691" lon="11.719203295691871"><ele>487.0</ele><time>2026-04-25T15:30:18.998Z</time></trkpt><trkpt lat="42.71552409960541" lon="11.718996535691348"><ele>487.0</ele><time>2026-04-25T15:30:19.998Z</time></trkpt><trkpt lat="42.71557678347799" lon="11.718801812265136"><ele>487.0</ele><time>2026-04-25T15:30:20.998Z</time></trkpt><trkpt lat="42.71563035741749" lon="11.71863182632613"><ele>487.0</ele><time>2026-04-25T15:30:21.998Z</time></trkpt><trkpt lat="42.715695259285376" lon="11.718492395501244"><ele>488.0</ele><time>2026-04-25T15:30:22.998Z</time></trkpt><trkpt lat="42.71577612387348" lon="11.718392653274075"><ele>489.0</ele><time>2026-04-25T15:30:23.998Z</time></trkpt><trkpt lat="42.715873909081054" lon="11.71831932158562"><ele>490.0</ele><time>2026-04-25T15:30:24.998Z</time></trkpt><trkpt lat="42.71598674979574" lon="11.718271052693613"><ele>491.0</ele><time>2026-04-25T15:30:25.998Z</time></trkpt><trkpt lat="42.71609249969477" lon="11.718224400894355"><ele>491.0</ele><time>2026-04-25T15:30:26.998Z</time></trkpt><trkpt lat="42.71619932577046" lon="11.71816742049787"><ele>491.0</ele><time>2026-04-25T15:30:27.998Z</time></trkpt><trkpt lat="42.716260636229286" lon="11.718042473433155"><ele>491.0</ele><time>2026-04-25T15:30:28.998Z</time></trkpt><trkpt lat="42.71629822344744" lon="11.71792223167421"><ele>491.0</ele><time>2026-04-25T15:30:29.998Z</time></trkpt><trkpt lat="42.71632027091188" lon="11.717793088081786"><ele>491.0</ele><time>2026-04-25T15:30:30.998Z</time></trkpt><trkpt lat="42.716329652795636" lon="11.717645379537743"><ele>491.0</ele><time>2026-04-25T15:30:31.998Z</time></trkpt><trkpt lat="42.71633147576673" lon="11.717467719955044"><ele>491.0</ele><time>2026-04-25T15:30:32.998Z</time></trkpt><trkpt lat="42.71634891983402" lon="11.717280686910385"><ele>491.0</ele><time>2026-04-25T15:30:33.998Z</time></trkpt><trkpt lat="42.716377270702715" lon="11.717091920886505"><ele>491.0</ele><time>2026-04-25T15:30:34.997Z</time></trkpt><trkpt lat="42.716420701806506" lon="11.716901308878873"><ele>491.0</ele><time>2026-04-25T15:30:35.997Z</time></trkpt><trkpt lat="42.71648077250665" lon="11.716711436254839"><ele>491.0</ele><time>2026-04-25T15:30:36.997Z</time></trkpt><trkpt lat="42.716554147320394" lon="11.716523547740668"><ele>491.0</ele><time>2026-04-25T15:30:37.997Z</time></trkpt><trkpt lat="42.71662948865671" lon="11.716351025994513"><ele>491.0</ele><time>2026-04-25T15:30:38.997Z</time></trkpt><trkpt lat="42.716698483172465" lon="11.716193248192146"><ele>491.0</ele><time>2026-04-25T15:30:39.997Z</time></trkpt><trkpt lat="42.71677934565944" lon="11.716062288286784"><ele>491.0</ele><time>2026-04-25T15:30:40.997Z</time></trkpt><trkpt lat="42.71683168837278" lon="11.71592566410454"><ele>491.0</ele><time>2026-04-25T15:30:41.997Z</time></trkpt><trkpt lat="42.716867599172396" lon="11.715798032322105"><ele>491.0</ele><time>2026-04-25T15:30:42.997Z</time></trkpt><trkpt lat="42.71688241019729" lon="11.715675828502079"><ele>491.0</ele><time>2026-04-25T15:30:43.997Z</time></trkpt><trkpt lat="42.71688010791869" lon="11.715542166966719"><ele>491.0</ele><time>2026-04-25T15:30:44.997Z</time></trkpt><trkpt lat="42.71687586153982" lon="11.715391606681365"><ele>491.0</ele><time>2026-04-25T15:30:45.997Z</time></trkpt><trkpt lat="42.71687733267665" lon="11.71521754976144"><ele>491.0</ele><time>2026-04-25T15:30:46.997Z</time></trkpt><trkpt lat="42.71688221038567" lon="11.715030898732794"><ele>491.25</ele><time>2026-04-25T15:30:47.997Z</time></trkpt><trkpt lat="42.7168833435073" lon="11.71482928507724"><ele>491.5</ele><time>2026-04-25T15:30:48.997Z</time></trkpt><trkpt lat="42.71687829228122" lon="11.714624861809272"><ele>491.75</ele><time>2026-04-25T15:30:49.997Z</time></trkpt><trkpt lat="42.716871711294864" lon="11.714432126018785"><ele>492.0</ele><time>2026-04-25T15:30:50.997Z</time></trkpt><trkpt lat="42.71688469956243" lon="11.714263681166662"><ele>493.0</ele><time>2026-04-25T15:30:51.997Z</time></trkpt><trkpt lat="42.71689837246084" lon="11.714114537865054"><ele>494.00000000000006</ele><time>2026-04-25T15:30:52.997Z</time></trkpt><trkpt lat="42.716926743318574" lon="11.713995119616037"><ele>495.00000000000006</ele><time>2026-04-25T15:30:53.997Z</time></trkpt><trkpt lat="42.71696740781599" lon="11.713892433495184"><ele>496.0</ele><time>2026-04-25T15:30:54.997Z</time></trkpt><trkpt lat="42.717033005357266" lon="11.713804160107161"><ele>497.0</ele><time>2026-04-25T15:30:55.997Z</time></trkpt><trkpt lat="42.71711270282904" lon="11.713717974965085"><ele>497.0</ele><time>2026-04-25T15:30:56.997Z</time></trkpt><trkpt lat="42.71719813055225" lon="11.713616986877888"><ele>497.0</ele><time>2026-04-25T15:30:57.997Z</time></trkpt><trkpt lat="42.71729921687621" lon="11.713502920295284"><ele>497.0</ele><time>2026-04-25T15:30:58.997Z</time></trkpt><trkpt lat="42.717411583913645" lon="11.713380774293123"><ele>497.0</ele><time>2026-04-25T15:30:59.997Z</time></trkpt><trkpt lat="42.71753212852442" lon="11.713257015303958"><ele>497.5</ele><time>2026-04-25T15:31:00.997Z</time></trkpt><trkpt lat="42.71765099982263" lon="11.713135575752565"><ele>498.0</ele><time>2026-04-25T15:31:01.997Z</time></trkpt><trkpt lat="42.717765801001256" lon="11.713011635354759"><ele>498.5</ele><time>2026-04-25T15:31:02.997Z</time></trkpt><trkpt lat="42.717876899217366" lon="11.712892538435174"><ele>499.0</ele><time>2026-04-25T15:31:03.997Z</time></trkpt><trkpt lat="42.71797658444744" lon="11.712783773096836"><ele>500.0</ele><time>2026-04-25T15:31:04.997Z</time></trkpt><trkpt lat="42.71805600264853" lon="11.712676384339444"><ele>501.0</ele><time>2026-04-25T15:31:05.997Z</time></trkpt><trkpt lat="42.71811066430703" lon="11.71255243190786"><ele>502.0</ele><time>2026-04-25T15:31:06.997Z</time></trkpt><trkpt lat="42.718144823612796" lon="11.712409377438657"><ele>503.0</ele><time>2026-04-25T15:31:07.997Z</time></trkpt><trkpt lat="42.718162354087596" lon="11.712254815629935"><ele>504.0</ele><time>2026-04-25T15:31:08.997Z</time></trkpt><trkpt lat="42.71818481530596" lon="11.712103662414474"><ele>504.0</ele><time>2026-04-25T15:31:09.997Z</time></trkpt><trkpt lat="42.71822522097153" lon="11.711946599475159"><ele>504.0</ele><time>2026-04-25T15:31:10.997Z</time></trkpt><trkpt lat="42.71828035518183" lon="11.711793244645696"><ele>504.0</ele><time>2026-04-25T15:31:11.997Z</time></trkpt><trkpt lat="42.71834052024256" lon="11.71164874181168"><ele>504.0</ele><time>2026-04-25T15:31:12.997Z</time></trkpt><trkpt lat="42.718402371458524" lon="11.711518757099208"><ele>505.6</ele><time>2026-04-25T15:31:13.997Z</time></trkpt><trkpt lat="42.71846602064496" lon="11.711413099610228"><ele>507.2</ele><time>2026-04-25T15:31:14.997Z</time></trkpt><trkpt lat="42.71853888107951" lon="11.711330697730338"><ele>508.80000000000007</ele><time>2026-04-25T15:31:15.997Z</time></trkpt><trkpt lat="42.71858191063431" lon="11.711222687199067"><ele>510.40000000000003</ele><time>2026-04-25T15:31:16.997Z</time></trkpt><trkpt lat="42.71870328092794" lon="11.711181567323933"><ele>512.0</ele><time>2026-04-25T15:31:17.997Z</time></trkpt><trkpt lat="42.71881764922913" lon="11.711130950754493"><ele>513.75</ele><time>2026-04-25T15:31:18.997Z</time></trkpt><trkpt lat="42.718937197254874" lon="11.711066647162172"><ele>515.5</ele><time>2026-04-25T15:31:19.997Z</time></trkpt><trkpt lat="42.719056002793266" lon="11.711012138526357"><ele>517.25</ele><time>2026-04-25T15:31:20.997Z</time></trkpt><trkpt lat="42.719161428015184" lon="11.710965499302526"><ele>519.0</ele><time>2026-04-25T15:31:21.997Z</time></trkpt><trkpt lat="42.71925607714557" lon="11.710899820567205"><ele>519.0</ele><time>2026-04-25T15:31:22.997Z</time></trkpt><trkpt lat="42.71934896538314" lon="11.710816661944143"><ele>519.0</ele><time>2026-04-25T15:31:23.997Z</time></trkpt><trkpt lat="42.719436691936245" lon="11.710698764025532"><ele>519.0</ele><time>2026-04-25T15:31:24.997Z</time></trkpt><trkpt lat="42.719508546222706" lon="11.710601024721623"><ele>519.0</ele><time>2026-04-25T15:31:25.997Z</time></trkpt><trkpt lat="42.71956836962871" lon="11.710540757421812"><ele>519.0</ele><time>2026-04-25T15:31:26.997Z</time></trkpt><trkpt lat="42.71964386435243" lon="11.710468923922658"><ele>519.4</ele><time>2026-04-25T15:31:28.997Z</time></trkpt><trkpt lat="42.71970013327935" lon="11.710413505101432"><ele>519.8</ele><time>2026-04-25T15:31:30.998Z</time></trkpt><trkpt lat="42.71980609178518" lon="11.710295315318959"><ele>520.2</ele><time>2026-04-25T15:31:32.998Z</time></trkpt><trkpt lat="42.7198826243232" lon="11.710197307199468"><ele>520.6</ele><time>2026-04-25T15:31:33.998Z</time></trkpt><trkpt lat="42.71998214385563" lon="11.710084099756015"><ele>521.0</ele><time>2026-04-25T15:31:34.998Z</time></trkpt><trkpt lat="42.72010117865789" lon="11.709983394518742"><ele>518.3333333333333</ele><time>2026-04-25T15:31:35.998Z</time></trkpt><trkpt lat="42.72024189621984" lon="11.709893288720624"><ele>515.6666666666666</ele><time>2026-04-25T15:31:36.998Z</time></trkpt><trkpt lat="42.72039126684085" lon="11.70983707326043"><ele>513.0</ele><time>2026-04-25T15:31:37.998Z</time></trkpt><trkpt lat="42.720552917490664" lon="11.709793903485378"><ele>513.0</ele><time>2026-04-25T15:31:38.999Z</time></trkpt><trkpt lat="42.7207042737011" lon="11.709744189074648"><ele>513.0</ele><time>2026-04-25T15:31:39.999Z</time></trkpt><trkpt lat="42.72085368786017" lon="11.709690385251927"><ele>513.0</ele><time>2026-04-25T15:31:40.999Z</time></trkpt><trkpt lat="42.72098837451789" lon="11.709640414294302"><ele>513.4</ele><time>2026-04-25T15:31:41.998Z</time></trkpt><trkpt lat="42.72106908153082" lon="11.70957053512969"><ele>513.8</ele><time>2026-04-25T15:31:42.998Z</time></trkpt><trkpt lat="42.72113091320107" lon="11.709477930142269"><ele>514.2</ele><time>2026-04-25T15:31:43.998Z</time></trkpt><trkpt lat="42.72123022601639" lon="11.709379357865679"><ele>514.6</ele><time>2026-04-25T15:31:44.998Z</time></trkpt><trkpt lat="42.72124151566524" lon="11.70924114420335"><ele>515.0</ele><time>2026-04-25T15:31:45.998Z</time></trkpt><trkpt lat="42.721237728979816" lon="11.709113156346637"><ele>516.25</ele><time>2026-04-25T15:31:46.998Z</time></trkpt><trkpt lat="42.72121796248216" lon="11.708975446800649"><ele>517.5</ele><time>2026-04-25T15:31:47.998Z</time></trkpt><trkpt lat="42.72120828495743" lon="11.708791742463013"><ele>518.75</ele><time>2026-04-25T15:31:48.998Z</time></trkpt><trkpt lat="42.72120502488939" lon="11.708591010157072"><ele>520.0</ele><time>2026-04-25T15:31:49.998Z</time></trkpt><trkpt lat="42.721198831538686" lon="11.708384673278807"><ele>522.3333333333334</ele><time>2026-04-25T15:31:50.998Z</time></trkpt><trkpt lat="42.72119479590956" lon="11.70817089263995"><ele>524.6666666666666</ele><time>2026-04-25T15:31:51.998Z</time></trkpt><trkpt lat="42.72119101363817" lon="11.707953424221138"><ele>527.0</ele><time>2026-04-25T15:31:52.998Z</time></trkpt><trkpt lat="42.72119676491532" lon="11.70773792771037"><ele>529.0</ele><time>2026-04-25T15:31:53.998Z</time></trkpt><trkpt lat="42.72117238434738" lon="11.707541869345976"><ele>531.0</ele><time>2026-04-25T15:31:54.998Z</time></trkpt><trkpt lat="42.72116549936188" lon="11.70735973578553"><ele>533.0</ele><time>2026-04-25T15:31:55.998Z</time></trkpt><trkpt lat="42.72116117921067" lon="11.707196536193866"><ele>535.0</ele><time>2026-04-25T15:31:56.998Z</time></trkpt><trkpt lat="42.721162209385994" lon="11.70704860168635"><ele>535.0</ele><time>2026-04-25T15:31:57.998Z</time></trkpt><trkpt lat="42.72118204297028" lon="11.706923086142416"><ele>535.0</ele><time>2026-04-25T15:31:58.998Z</time></trkpt><trkpt lat="42.72121993965311" lon="11.706838772776324"><ele>535.0</ele><time>2026-04-25T15:31:59.998Z</time></trkpt><trkpt lat="42.72126776112513" lon="11.706751258413142"><ele>535.0</ele><time>2026-04-25T15:32:00.998Z</time></trkpt><trkpt lat="42.72132258077978" lon="11.706656031212798"><ele>535.0</ele><time>2026-04-25T15:32:01.998Z</time></trkpt><trkpt lat="42.721407706497565" lon="11.706582052040638"><ele>535.0</ele><time>2026-04-25T15:32:02.998Z</time></trkpt><trkpt lat="42.72149941243534" lon="11.706497235176593"><ele>536.75</ele><time>2026-04-25T15:32:03.998Z</time></trkpt><trkpt lat="42.721604454870814" lon="11.706408064936781"><ele>538.5</ele><time>2026-04-25T15:32:04.998Z</time></trkpt><trkpt lat="42.721709572785215" lon="11.70630957882353"><ele>540.25</ele><time>2026-04-25T15:32:05.998Z</time></trkpt><trkpt lat="42.72182465544742" lon="11.706214908477703"><ele>542.0</ele><time>2026-04-25T15:32:06.998Z</time></trkpt><trkpt lat="42.721940625044304" lon="11.706121047678531"><ele>545.25</ele><time>2026-04-25T15:32:07.998Z</time></trkpt><trkpt lat="42.722058956984895" lon="11.706013024047499"><ele>548.5</ele><time>2026-04-25T15:32:08.998Z</time></trkpt><trkpt lat="42.722174173492675" lon="11.705906372923796"><ele>551.75</ele><time>2026-04-25T15:32:09.998Z</time></trkpt><trkpt lat="42.72229072271196" lon="11.705806400243947"><ele>555.0</ele><time>2026-04-25T15:32:10.998Z</time></trkpt><trkpt lat="42.7223993251159" lon="11.70569355763488"><ele>555.0</ele><time>2026-04-25T15:32:11.998Z</time></trkpt><trkpt lat="42.722506940175066" lon="11.70557082055358"><ele>555.0</ele><time>2026-04-25T15:32:12.998Z</time></trkpt><trkpt lat="42.722613354646946" lon="11.705438833263429"><ele>555.0</ele><time>2026-04-25T15:32:13.998Z</time></trkpt><trkpt lat="42.722714498919935" lon="11.705321372944407"><ele>555.0</ele><time>2026-04-25T15:32:14.998Z</time></trkpt><trkpt lat="42.72281186323204" lon="11.705217211524669"><ele>558.5</ele><time>2026-04-25T15:32:15.998Z</time></trkpt><trkpt lat="42.722901227963064" lon="11.705107998205515"><ele>562.0</ele><time>2026-04-25T15:32:16.998Z</time></trkpt><trkpt lat="42.7229771143113" lon="11.705001114852331"><ele>565.5</ele><time>2026-04-25T15:32:17.998Z</time></trkpt><trkpt lat="42.72304309295713" lon="11.704872167242964"><ele>569.0</ele><time>2026-04-25T15:32:18.998Z</time></trkpt><trkpt lat="42.723107891233674" lon="11.704732353863882"><ele>569.0</ele><time>2026-04-25T15:32:19.998Z</time></trkpt><trkpt lat="42.723170645361165" lon="11.704576837144081"><ele>569.0</ele><time>2026-04-25T15:32:20.998Z</time></trkpt><trkpt lat="42.723236230613644" lon="11.704404851908542"><ele>569.0</ele><time>2026-04-25T15:32:21.998Z</time></trkpt><trkpt lat="42.72330513615584" lon="11.704214476247222"><ele>569.0</ele><time>2026-04-25T15:32:22.998Z</time></trkpt><trkpt lat="42.723376244058095" lon="11.704013668073006"><ele>569.25</ele><time>2026-04-25T15:32:23.998Z</time></trkpt><trkpt lat="42.723449658100364" lon="11.70381971458074"><ele>569.5</ele><time>2026-04-25T15:32:24.998Z</time></trkpt><trkpt lat="42.72353219161153" lon="11.703657653060567"><ele>569.75</ele><time>2026-04-25T15:32:25.998Z</time></trkpt><trkpt lat="42.72360047524077" lon="11.703503787214512"><ele>570.0</ele><time>2026-04-25T15:32:26.998Z</time></trkpt><trkpt lat="42.72364890070752" lon="11.703363656332277"><ele>572.3333333333334</ele><time>2026-04-25T15:32:27.998Z</time></trkpt><trkpt lat="42.72370628029759" lon="11.703247754914807"><ele>574.6666666666666</ele><time>2026-04-25T15:32:28.998Z</time></trkpt><trkpt lat="42.723785774814864" lon="11.703198497319185"><ele>577.0</ele><time>2026-04-25T15:32:29.998Z</time></trkpt><trkpt lat="42.723862724931706" lon="11.703175261562503"><ele>579.3333333333333</ele><time>2026-04-25T15:32:30.998Z</time></trkpt><trkpt lat="42.723937277643486" lon="11.703168887815943"><ele>581.6666666666666</ele><time>2026-04-25T15:32:31.998Z</time></trkpt><trkpt lat="42.72401103782244" lon="11.703189702591912"><ele>584.0</ele><time>2026-04-25T15:32:32.998Z</time></trkpt><trkpt lat="42.72408547560191" lon="11.703206291907694"><ele>584.0</ele><time>2026-04-25T15:32:33.998Z</time></trkpt><trkpt lat="42.7241500137469" lon="11.70319788258714"><ele>584.0</ele><time>2026-04-25T15:32:34.998Z</time></trkpt><trkpt lat="42.7242107026688" lon="11.70314990602257"><ele>584.0</ele><time>2026-04-25T15:32:35.998Z</time></trkpt><trkpt lat="42.72425825692453" lon="11.703057690647016"><ele>584.0</ele><time>2026-04-25T15:32:36.998Z</time></trkpt><trkpt lat="42.72428409837282" lon="11.702938436164647"><ele>584.0</ele><time>2026-04-25T15:32:37.998Z</time></trkpt><trkpt lat="42.72429619509027" lon="11.702789949817225"><ele>584.0</ele><time>2026-04-25T15:32:38.998Z</time></trkpt><trkpt lat="42.72430502938217" lon="11.702608774450916"><ele>585.75</ele><time>2026-04-25T15:32:39.998Z</time></trkpt><trkpt lat="42.72431537918364" lon="11.7024235631861"><ele>587.5</ele><time>2026-04-25T15:32:40.998Z</time></trkpt><trkpt lat="42.72432104135316" lon="11.702218587188552"><ele>589.25</ele><time>2026-04-25T15:32:41.998Z</time></trkpt><trkpt lat="42.72432590756821" lon="11.701999225413495"><ele>591.0</ele><time>2026-04-25T15:32:42.998Z</time></trkpt><trkpt lat="42.72433741792198" lon="11.701774712341582"><ele>591.6666666666666</ele><time>2026-04-25T15:32:43.998Z</time></trkpt><trkpt lat="42.724351350139976" lon="11.701544777912371"><ele>592.3333333333333</ele><time>2026-04-25T15:32:44.997Z</time></trkpt><trkpt lat="42.724351420834886" lon="11.701324044812948"><ele>593.0</ele><time>2026-04-25T15:32:45.997Z</time></trkpt><trkpt lat="42.72435776609126" lon="11.701118607595697"><ele>594.0</ele><time>2026-04-25T15:32:46.997Z</time></trkpt><trkpt lat="42.72436993008575" lon="11.700921013435421"><ele>595.0</ele><time>2026-04-25T15:32:47.997Z</time></trkpt><trkpt lat="42.72439758387714" lon="11.70072745238695"><ele>596.0</ele><time>2026-04-25T15:32:48.997Z</time></trkpt><trkpt lat="42.7244362847206" lon="11.700529720187578"><ele>597.0</ele><time>2026-04-25T15:32:49.997Z</time></trkpt><trkpt lat="42.72447868876072" lon="11.700320438661395"><ele>601.0</ele><time>2026-04-25T15:32:50.997Z</time></trkpt><trkpt lat="42.72452086842136" lon="11.700099020249205"><ele>605.0</ele><time>2026-04-25T15:32:51.997Z</time></trkpt><trkpt lat="42.724563523793016" lon="11.69989406715953"><ele>609.0</ele><time>2026-04-25T15:32:52.997Z</time></trkpt><trkpt lat="42.724606819007654" lon="11.699713630777039"><ele>609.0</ele><time>2026-04-25T15:32:53.997Z</time></trkpt><trkpt lat="42.72464220153322" lon="11.699551930686436"><ele>609.0</ele><time>2026-04-25T15:32:54.997Z</time></trkpt><trkpt lat="42.72466929148138" lon="11.699418397311979"><ele>609.0</ele><time>2026-04-25T15:32:55.997Z</time></trkpt><trkpt lat="42.72471707291738" lon="11.699315582607658"><ele>609.0</ele><time>2026-04-25T15:32:56.997Z</time></trkpt><trkpt lat="42.72478370097654" lon="11.699252018562568"><ele>609.0</ele><time>2026-04-25T15:32:57.997Z</time></trkpt><trkpt lat="42.72485732158023" lon="11.699208817752435"><ele>610.25</ele><time>2026-04-25T15:32:58.997Z</time></trkpt><trkpt lat="42.72494478107829" lon="11.699207118494417"><ele>611.5</ele><time>2026-04-25T15:32:59.997Z</time></trkpt><trkpt lat="42.72505255556591" lon="11.699238619750126"><ele>612.75</ele><time>2026-04-25T15:33:00.997Z</time></trkpt><trkpt lat="42.725171407927725" lon="11.699282682439245"><ele>614.0</ele><time>2026-04-25T15:33:01.997Z</time></trkpt><trkpt lat="42.72529819327841" lon="11.699320766735369"><ele>615.25</ele><time>2026-04-25T15:33:02.997Z</time></trkpt><trkpt lat="42.725422480186545" lon="11.699364967795475"><ele>616.5</ele><time>2026-04-25T15:33:03.997Z</time></trkpt><trkpt lat="42.72554285056601" lon="11.699432685410008"><ele>617.75</ele><time>2026-04-25T15:33:04.997Z</time></trkpt><trkpt lat="42.72565200837974" lon="11.699486101932836"><ele>619.0</ele><time>2026-04-25T15:33:05.997Z</time></trkpt><trkpt lat="42.72574987060245" lon="11.699565525215935"><ele>619.0</ele><time>2026-04-25T15:33:06.997Z</time></trkpt><trkpt lat="42.72582819257963" lon="11.699675174019506"><ele>619.0</ele><time>2026-04-25T15:33:07.997Z</time></trkpt><trkpt lat="42.72589381923457" lon="11.699809910257414"><ele>619.0</ele><time>2026-04-25T15:33:08.997Z</time></trkpt><trkpt lat="42.72595838965941" lon="11.699951961011799"><ele>619.0</ele><time>2026-04-25T15:33:09.997Z</time></trkpt><trkpt lat="42.726026525193" lon="11.700082524310428"><ele>620.0</ele><time>2026-04-25T15:33:10.997Z</time></trkpt><trkpt lat="42.7261012167562" lon="11.700206388216658"><ele>621.0</ele><time>2026-04-25T15:33:11.997Z</time></trkpt><trkpt lat="42.7261929743467" lon="11.700312180787144"><ele>622.0</ele><time>2026-04-25T15:33:12.997Z</time></trkpt><trkpt lat="42.726284721890195" lon="11.700392980471797"><ele>623.0</ele><time>2026-04-25T15:33:13.997Z</time></trkpt><trkpt lat="42.72636996582163" lon="11.700449231275526"><ele>624.0</ele><time>2026-04-25T15:33:14.997Z</time></trkpt><trkpt lat="42.726455224601985" lon="11.700486473418973"><ele>624.0</ele><time>2026-04-25T15:33:15.997Z</time></trkpt><trkpt lat="42.726547585010266" lon="11.700497275295046"><ele>624.0</ele><time>2026-04-25T15:33:16.997Z</time></trkpt><trkpt lat="42.72663957686288" lon="11.700492275717663"><ele>624.0</ele><time>2026-04-25T15:33:17.997Z</time></trkpt><trkpt lat="42.7267233171754" lon="11.700453817104254"><ele>624.0</ele><time>2026-04-25T15:33:18.997Z</time></trkpt><trkpt lat="42.72678962500715" lon="11.700394157749091"><ele>624.0</ele><time>2026-04-25T15:33:19.997Z</time></trkpt><trkpt lat="42.72684648384258" lon="11.700319965693154"><ele>624.0</ele><time>2026-04-25T15:33:20.997Z</time></trkpt><trkpt lat="42.7268838065001" lon="11.700216075698332"><ele>625.6</ele><time>2026-04-25T15:33:21.997Z</time></trkpt><trkpt lat="42.72691513785057" lon="11.700099892565401"><ele>627.2</ele><time>2026-04-25T15:33:22.997Z</time></trkpt><trkpt lat="42.72692913556657" lon="11.699965644239766"><ele>628.8000000000001</ele><time>2026-04-25T15:33:23.996Z</time></trkpt><trkpt lat="42.726943575895824" lon="11.699825366833458"><ele>630.4</ele><time>2026-04-25T15:33:24.994Z</time></trkpt><trkpt lat="42.7269619131276" lon="11.699686209351027"><ele>632.0</ele><time>2026-04-25T15:33:25.992Z</time></trkpt><trkpt lat="42.72699015898386" lon="11.699544575976345"><ele>632.0</ele><time>2026-04-25T15:33:26.991Z</time></trkpt><trkpt lat="42.7270344768724" lon="11.699427058818035"><ele>632.0</ele><time>2026-04-25T15:33:27.989Z</time></trkpt><trkpt lat="42.72708981797619" lon="11.699327623164113"><ele>632.0</ele><time>2026-04-25T15:33:28.988Z</time></trkpt><trkpt lat="42.727152752154666" lon="11.69924538846423"><ele>632.0</ele><time>2026-04-25T15:33:29.986Z</time></trkpt><trkpt lat="42.72723506584785" lon="11.69916785893938"><ele>632.0</ele><time>2026-04-25T15:33:30.985Z</time></trkpt><trkpt lat="42.72732606856747" lon="11.69907866893773"><ele>632.8000000000001</ele><time>2026-04-25T15:33:31.984Z</time></trkpt><trkpt lat="42.727425510107665" lon="11.698988596627792"><ele>633.6</ele><time>2026-04-25T15:33:32.983Z</time></trkpt><trkpt lat="42.72751963910055" lon="11.698908773662916"><ele>634.4000000000001</ele><time>2026-04-25T15:33:33.982Z</time></trkpt><trkpt lat="42.72760884900869" lon="11.698833939622554"><ele>635.2</ele><time>2026-04-25T15:33:34.981Z</time></trkpt><trkpt lat="42.7276935181677" lon="11.698759432771553"><ele>636.0</ele><time>2026-04-25T15:33:35.982Z</time></trkpt><trkpt lat="42.72779070448559" lon="11.698712946736435"><ele>637.4</ele><time>2026-04-25T15:33:36.981Z</time></trkpt><trkpt lat="42.72789648464887" lon="11.698709944927657"><ele>638.8</ele><time>2026-04-25T15:33:37.98Z</time></trkpt><trkpt lat="42.72799944645171" lon="11.698724548713113"><ele>640.1999999999999</ele><time>2026-04-25T15:33:38.98Z</time></trkpt><trkpt lat="42.72809476151221" lon="11.698747884901787"><ele>641.6</ele><time>2026-04-25T15:33:39.979Z</time></trkpt><trkpt lat="42.72817636646895" lon="11.698803610090517"><ele>643.0</ele><time>2026-04-25T15:33:40.978Z</time></trkpt><trkpt lat="42.72822776298619" lon="11.698899631950852"><ele>643.0</ele><time>2026-04-25T15:33:41.978Z</time></trkpt><trkpt lat="42.72828359848383" lon="11.699015026776834"><ele>643.0</ele><time>2026-04-25T15:33:42.977Z</time></trkpt><trkpt lat="42.72834162134663" lon="11.699145901977994"><ele>643.0</ele><time>2026-04-25T15:33:43.977Z</time></trkpt><trkpt lat="42.72840927339749" lon="11.699289485504018"><ele>643.0</ele><time>2026-04-25T15:33:44.976Z</time></trkpt><trkpt lat="42.72849314000258" lon="11.699421237063621"><ele>642.8</ele><time>2026-04-25T15:33:45.975Z</time></trkpt><trkpt lat="42.72855449326506" lon="11.699536242012092"><ele>642.5999999999999</ele><time>2026-04-25T15:33:46.975Z</time></trkpt><trkpt lat="42.72863057027016" lon="11.699621871844796"><ele>642.4000000000001</ele><time>2026-04-25T15:33:47.974Z</time></trkpt><trkpt lat="42.72871820035219" lon="11.699705737202239"><ele>642.2</ele><time>2026-04-25T15:33:48.974Z</time></trkpt><trkpt lat="42.7288158198897" lon="11.699792357132674"><ele>642.0</ele><time>2026-04-25T15:33:49.974Z</time></trkpt><trkpt lat="42.728923337550235" lon="11.699882261460408"><ele>642.5</ele><time>2026-04-25T15:33:50.974Z</time></trkpt><trkpt lat="42.72903509605824" lon="11.699975221305902"><ele>643.0</ele><time>2026-04-25T15:33:51.973Z</time></trkpt><trkpt lat="42.72914891230439" lon="11.700068074334931"><ele>643.5</ele><time>2026-04-25T15:33:52.973Z</time></trkpt><trkpt lat="42.729253595910656" lon="11.700171956821482"><ele>644.0</ele><time>2026-04-25T15:33:53.973Z</time></trkpt><trkpt lat="42.72933471848928" lon="11.700280763674993"><ele>644.0</ele><time>2026-04-25T15:33:54.972Z</time></trkpt><trkpt lat="42.72938179727742" lon="11.700419820218885"><ele>644.0</ele><time>2026-04-25T15:33:55.972Z</time></trkpt><trkpt lat="42.729402134759894" lon="11.700554077713557"><ele>644.0</ele><time>2026-04-25T15:33:56.972Z</time></trkpt><trkpt lat="42.72942001685009" lon="11.700694925273488"><ele>644.0</ele><time>2026-04-25T15:33:57.972Z</time></trkpt><trkpt lat="42.729445548406666" lon="11.700833143923742"><ele>644.0</ele><time>2026-04-25T15:33:58.972Z</time></trkpt><trkpt lat="42.72947309871478" lon="11.70096924060176"><ele>648.2</ele><time>2026-04-25T15:33:59.971Z</time></trkpt><trkpt lat="42.72949992565836" lon="11.701100089378006"><ele>652.4000000000001</ele><time>2026-04-25T15:34:00.971Z</time></trkpt><trkpt lat="42.72953317362529" lon="11.701235138691954"><ele>656.6</ele><time>2026-04-25T15:34:01.971Z</time></trkpt><trkpt lat="42.729573754513055" lon="11.701368200635473"><ele>660.8</ele><time>2026-04-25T15:34:02.971Z</time></trkpt><trkpt lat="42.72962041024702" lon="11.701501829079413"><ele>665.0</ele><time>2026-04-25T15:34:03.971Z</time></trkpt><trkpt lat="42.72966975576245" lon="11.701643889651287"><ele>665.0</ele><time>2026-04-25T15:34:04.97Z</time></trkpt><trkpt lat="42.72971509690014" lon="11.701781267849313"><ele>665.0</ele><time>2026-04-25T15:34:05.97Z</time></trkpt><trkpt lat="42.729748618886404" lon="11.701915391522395"><ele>665.0</ele><time>2026-04-25T15:34:06.97Z</time></trkpt><trkpt lat="42.72977873014555" lon="11.702055327636131"><ele>665.0</ele><time>2026-04-25T15:34:07.97Z</time></trkpt><trkpt lat="42.72980461717074" lon="11.70220046494973"><ele>665.0</ele><time>2026-04-25T15:34:08.97Z</time></trkpt><trkpt lat="42.72983529631686" lon="11.70234238829057"><ele>664.6666666666666</ele><time>2026-04-25T15:34:09.97Z</time></trkpt><trkpt lat="42.729874599791366" lon="11.702483229644992"><ele>664.3333333333333</ele><time>2026-04-25T15:34:10.97Z</time></trkpt><trkpt lat="42.72991626993123" lon="11.702604723626102"><ele>664.0</ele><time>2026-04-25T15:34:11.969Z</time></trkpt><trkpt lat="42.729962673485076" lon="11.702702461927851"><ele>663.6666666666666</ele><time>2026-04-25T15:34:12.969Z</time></trkpt><trkpt lat="42.73001711358983" lon="11.702778776819033"><ele>663.3333333333334</ele><time>2026-04-25T15:34:13.969Z</time></trkpt><trkpt lat="42.730067300890326" lon="11.702845406895594"><ele>663.0</ele><time>2026-04-25T15:34:14.969Z</time></trkpt><trkpt lat="42.73012438575969" lon="11.702927956999691"><ele>662.3333333333334</ele><time>2026-04-25T15:34:15.969Z</time></trkpt><trkpt lat="42.73016762745505" lon="11.703011529158292"><ele>661.6666666666666</ele><time>2026-04-25T15:34:16.969Z</time></trkpt><trkpt lat="42.73019935306361" lon="11.703097687301247"><ele>661.0</ele><time>2026-04-25T15:34:17.969Z</time></trkpt><trkpt lat="42.73021496349511" lon="11.703208790412786"><ele>660.3333333333333</ele><time>2026-04-25T15:34:18.969Z</time></trkpt><trkpt lat="42.73022631198332" lon="11.70332343609634"><ele>659.6666666666666</ele><time>2026-04-25T15:34:19.969Z</time></trkpt><trkpt lat="42.73022203805096" lon="11.703443907839572"><ele>659.0</ele><time>2026-04-25T15:34:20.969Z</time></trkpt><trkpt lat="42.73021494349034" lon="11.703553491868572"><ele>658.5</ele><time>2026-04-25T15:34:21.969Z</time></trkpt><trkpt lat="42.7302247591608" lon="11.703638786739527"><ele>658.0</ele><time>2026-04-25T15:34:22.969Z</time></trkpt><trkpt lat="42.730298928981895" lon="11.703734642037356"><ele>657.5</ele><time>2026-04-25T15:34:24.968Z</time></trkpt><trkpt lat="42.73036110095757" lon="11.703750611483969"><ele>657.0</ele><time>2026-04-25T15:34:25.968Z</time></trkpt><trkpt lat="42.73044185321355" lon="11.703766847950114"><ele>656.5</ele><time>2026-04-25T15:34:26.968Z</time></trkpt><trkpt lat="42.73052273274012" lon="11.703718613259275"><ele>656.0</ele><time>2026-04-25T15:34:27.968Z</time></trkpt><trkpt lat="42.73059417780355" lon="11.703630797783925"><ele>660.0</ele><time>2026-04-25T15:34:28.968Z</time></trkpt><trkpt lat="42.73068783447547" lon="11.70356961790937"><ele>664.0</ele><time>2026-04-25T15:34:29.968Z</time></trkpt><trkpt lat="42.73077731552287" lon="11.703497504228553"><ele>668.0</ele><time>2026-04-25T15:34:30.968Z</time></trkpt><trkpt lat="42.73085594469189" lon="11.70344408136058"><ele>672.0</ele><time>2026-04-25T15:34:31.968Z</time></trkpt><trkpt lat="42.730935706824724" lon="11.703420118853089"><ele>676.0</ele><time>2026-04-25T15:34:32.968Z</time></trkpt><trkpt lat="42.7310110057619" lon="11.703446652770161"><ele>677.1999999999999</ele><time>2026-04-25T15:34:33.968Z</time></trkpt><trkpt lat="42.731078932405126" lon="11.70349927755884"><ele>678.4</ele><time>2026-04-25T15:34:34.968Z</time></trkpt><trkpt lat="42.7311433998321" lon="11.703572778569296"><ele>679.6</ele><time>2026-04-25T15:34:35.968Z</time></trkpt><trkpt lat="42.731225408710515" lon="11.70365759718679"><ele>680.8</ele><time>2026-04-25T15:34:36.968Z</time></trkpt><trkpt lat="42.731316097553595" lon="11.703751393114834"><ele>682.0</ele><time>2026-04-25T15:34:37.968Z</time></trkpt><trkpt lat="42.731409564573156" lon="11.703847123489819"><ele>682.0</ele><time>2026-04-25T15:34:38.968Z</time></trkpt><trkpt lat="42.731500987603795" lon="11.703942956721498"><ele>682.0</ele><time>2026-04-25T15:34:39.968Z</time></trkpt><trkpt lat="42.731578689766074" lon="11.704040302245131"><ele>682.0</ele><time>2026-04-25T15:34:40.968Z</time></trkpt><trkpt lat="42.73163994709502" lon="11.704147425062908"><ele>682.0</ele><time>2026-04-25T15:34:41.968Z</time></trkpt><trkpt lat="42.73168905910336" lon="11.704267005268099"><ele>682.0</ele><time>2026-04-25T15:34:42.968Z</time></trkpt><trkpt lat="42.73172160459158" lon="11.704407452201805"><ele>681.3333333333334</ele><time>2026-04-25T15:34:43.968Z</time></trkpt><trkpt lat="42.731742764060485" lon="11.704559236791955"><ele>680.6666666666667</ele><time>2026-04-25T15:34:44.967Z</time></trkpt><trkpt lat="42.73175673956735" lon="11.704695968680538"><ele>680.0</ele><time>2026-04-25T15:34:45.967Z</time></trkpt><trkpt lat="42.731789425268644" lon="11.704810622214199"><ele>679.3333333333334</ele><time>2026-04-25T15:34:46.967Z</time></trkpt><trkpt lat="42.731816654237456" lon="11.704897154545948"><ele>678.6666666666666</ele><time>2026-04-25T15:34:47.967Z</time></trkpt><trkpt lat="42.73186061145976" lon="11.704960284409808"><ele>678.0</ele><time>2026-04-25T15:34:48.967Z</time></trkpt><trkpt lat="42.731923070373945" lon="11.70499146163391"><ele>679.8</ele><time>2026-04-25T15:34:49.967Z</time></trkpt><trkpt lat="42.73200159238275" lon="11.70501849838188"><ele>681.5999999999999</ele><time>2026-04-25T15:34:50.967Z</time></trkpt><trkpt lat="42.73209408345842" lon="11.705041501128274"><ele>683.4000000000001</ele><time>2026-04-25T15:34:51.967Z</time></trkpt><trkpt lat="42.73218706496088" lon="11.70503732638903"><ele>685.2</ele><time>2026-04-25T15:34:52.967Z</time></trkpt><trkpt lat="42.73229334710159" lon="11.705000883951248"><ele>687.0</ele><time>2026-04-25T15:34:53.967Z</time></trkpt><trkpt lat="42.73240938023187" lon="11.704943809992283"><ele>687.0</ele><time>2026-04-25T15:34:54.967Z</time></trkpt><trkpt lat="42.732524700038795" lon="11.704888130121223"><ele>687.0</ele><time>2026-04-25T15:34:55.967Z</time></trkpt><trkpt lat="42.73263540808068" lon="11.704845744210653"><ele>687.0</ele><time>2026-04-25T15:34:56.967Z</time></trkpt><trkpt lat="42.732741731802264" lon="11.70481215690328"><ele>687.0</ele><time>2026-04-25T15:34:57.967Z</time></trkpt><trkpt lat="42.732831182789184" lon="11.704780456771578"><ele>687.0</ele><time>2026-04-25T15:34:58.967Z</time></trkpt><trkpt lat="42.73291115019906" lon="11.704740627438783"><ele>686.8333333333334</ele><time>2026-04-25T15:34:59.967Z</time></trkpt><trkpt lat="42.73299918594174" lon="11.704626773463794"><ele>686.6666666666666</ele><time>2026-04-25T15:35:01.967Z</time></trkpt><trkpt lat="42.73301546512128" lon="11.704535469630487"><ele>686.5</ele><time>2026-04-25T15:35:02.967Z</time></trkpt><trkpt lat="42.733023815555164" lon="11.704424183051247"><ele>686.3333333333333</ele><time>2026-04-25T15:35:03.967Z</time></trkpt><trkpt lat="42.733045123541196" lon="11.704312935261328"><ele>686.1666666666666</ele><time>2026-04-25T15:35:04.967Z</time></trkpt><trkpt lat="42.733085938637245" lon="11.704212250070722"><ele>686.0</ele><time>2026-04-25T15:35:05.967Z</time></trkpt><trkpt lat="42.73315680446883" lon="11.70414191404025"><ele>687.5999999999999</ele><time>2026-04-25T15:35:06.967Z</time></trkpt><trkpt lat="42.73324552803538" lon="11.704140228238984"><ele>689.2</ele><time>2026-04-25T15:35:07.967Z</time></trkpt><trkpt lat="42.73334506404257" lon="11.704136053666517"><ele>690.8</ele><time>2026-04-25T15:35:08.967Z</time></trkpt><trkpt lat="42.73346550122712" lon="11.704131426137058"><ele>692.4000000000001</ele><time>2026-04-25T15:35:09.967Z</time></trkpt><trkpt lat="42.73358787716619" lon="11.704123725050785"><ele>694.0</ele><time>2026-04-25T15:35:10.967Z</time></trkpt><trkpt lat="42.733704132520394" lon="11.70411352427309"><ele>694.6</ele><time>2026-04-25T15:35:11.967Z</time></trkpt><trkpt lat="42.733811427389085" lon="11.70412189708538"><ele>695.2</ele><time>2026-04-25T15:35:12.967Z</time></trkpt><trkpt lat="42.73390333135856" lon="11.704164832790829"><ele>695.8000000000001</ele><time>2026-04-25T15:35:13.967Z</time></trkpt><trkpt lat="42.73399182343187" lon="11.704250586506715"><ele>696.4000000000001</ele><time>2026-04-25T15:35:14.967Z</time></trkpt><trkpt lat="42.73407887995492" lon="11.704328059697884"><ele>697.0</ele><time>2026-04-25T15:35:15.967Z</time></trkpt><trkpt lat="42.73415204296498" lon="11.704404966486242"><ele>695.5</ele><time>2026-04-25T15:35:16.967Z</time></trkpt><trkpt lat="42.73420070527722" lon="11.704481455429477"><ele>694.0</ele><time>2026-04-25T15:35:17.966Z</time></trkpt><trkpt lat="42.73421825929569" lon="11.70457953690082"><ele>692.5</ele><time>2026-04-25T15:35:18.966Z</time></trkpt><trkpt lat="42.73421137641412" lon="11.70470479485861"><ele>691.0</ele><time>2026-04-25T15:35:19.966Z</time></trkpt><trkpt lat="42.73420534828282" lon="11.704846164610613"><ele>689.5</ele><time>2026-04-25T15:35:20.966Z</time></trkpt><trkpt lat="42.73422917127004" lon="11.704979439639818"><ele>688.0</ele><time>2026-04-25T15:35:21.966Z</time></trkpt><trkpt lat="42.734254909877514" lon="11.705099622632435"><ele>688.0</ele><time>2026-04-25T15:35:22.966Z</time></trkpt><trkpt lat="42.73428637874974" lon="11.705217371554154"><ele>688.0</ele><time>2026-04-25T15:35:23.966Z</time></trkpt><trkpt lat="42.7343530169775" lon="11.70532739700241"><ele>688.0</ele><time>2026-04-25T15:35:24.966Z</time></trkpt><trkpt lat="42.734443882045966" lon="11.70541819692498"><ele>688.0</ele><time>2026-04-25T15:35:25.966Z</time></trkpt><trkpt lat="42.734560130194424" lon="11.70550944294011"><ele>688.0</ele><time>2026-04-25T15:35:26.966Z</time></trkpt><trkpt lat="42.73468732370509" lon="11.705572061009143"><ele>689.5</ele><time>2026-04-25T15:35:27.966Z</time></trkpt><trkpt lat="42.73481268407523" lon="11.705676284538175"><ele>691.0</ele><time>2026-04-25T15:35:28.966Z</time></trkpt><trkpt lat="42.73492839659824" lon="11.705764110805921"><ele>692.5</ele><time>2026-04-25T15:35:29.966Z</time></trkpt><trkpt lat="42.73504252629567" lon="11.705838201126788"><ele>694.0</ele><time>2026-04-25T15:35:30.966Z</time></trkpt><trkpt lat="42.735154743337425" lon="11.705879933779334"><ele>694.2</ele><time>2026-04-25T15:35:31.966Z</time></trkpt><trkpt lat="42.73525884421149" lon="11.705882380767846"><ele>694.4000000000001</ele><time>2026-04-25T15:35:32.966Z</time></trkpt><trkpt lat="42.735359023661644" lon="11.705861906149716"><ele>694.6</ele><time>2026-04-25T15:35:33.966Z</time></trkpt><trkpt lat="42.73545431511488" lon="11.705837609784126"><ele>694.8</ele><time>2026-04-25T15:35:34.966Z</time></trkpt><trkpt lat="42.73553685272922" lon="11.705810768943234"><ele>695.0</ele><time>2026-04-25T15:35:35.966Z</time></trkpt><trkpt lat="42.73561817788152" lon="11.705786220845162"><ele>695.0</ele><time>2026-04-25T15:35:36.966Z</time></trkpt><trkpt lat="42.73571028288003" lon="11.705751613305702"><ele>695.0</ele><time>2026-04-25T15:35:37.966Z</time></trkpt><trkpt lat="42.735810985446555" lon="11.705691766065309"><ele>695.0</ele><time>2026-04-25T15:35:38.966Z</time></trkpt><trkpt lat="42.73591387480923" lon="11.705614622338711"><ele>695.0</ele><time>2026-04-25T15:35:39.966Z</time></trkpt><trkpt lat="42.736013357603696" lon="11.705541396185273"><ele>695.0</ele><time>2026-04-25T15:35:40.966Z</time></trkpt><trkpt lat="42.73611286415699" lon="11.705479696647005"><ele>693.0</ele><time>2026-04-25T15:35:41.968Z</time></trkpt><trkpt lat="42.73621149341697" lon="11.705446084876188"><ele>691.0</ele><time>2026-04-25T15:35:42.968Z</time></trkpt><trkpt lat="42.73630652395237" lon="11.70543682281579"><ele>689.0</ele><time>2026-04-25T15:35:43.968Z</time></trkpt><trkpt lat="42.73640003507428" lon="11.705464817574294"><ele>687.0</ele><time>2026-04-25T15:35:44.968Z</time></trkpt><trkpt lat="42.736492684677074" lon="11.705516979856519"><ele>685.0</ele><time>2026-04-25T15:35:45.967Z</time></trkpt><trkpt lat="42.736588944333775" lon="11.705570193526869"><ele>685.0</ele><time>2026-04-25T15:35:46.967Z</time></trkpt><trkpt lat="42.73669155030117" lon="11.705602255082555"><ele>685.0</ele><time>2026-04-25T15:35:47.968Z</time></trkpt><trkpt lat="42.736794087777156" lon="11.705630284668779"><ele>685.0</ele><time>2026-04-25T15:35:48.967Z</time></trkpt><trkpt lat="42.736901141265115" lon="11.705659678005887"><ele>685.0</ele><time>2026-04-25T15:35:49.967Z</time></trkpt><trkpt lat="42.73700868384177" lon="11.705692843272002"><ele>685.0</ele><time>2026-04-25T15:35:50.967Z</time></trkpt><trkpt lat="42.737112018919426" lon="11.705719754364122"><ele>683.6</ele><time>2026-04-25T15:35:51.967Z</time></trkpt><trkpt lat="42.73721950664662" lon="11.705731692423615"><ele>682.2</ele><time>2026-04-25T15:35:52.967Z</time></trkpt><trkpt lat="42.737318498691145" lon="11.70572440418531"><ele>680.8</ele><time>2026-04-25T15:35:53.967Z</time></trkpt><trkpt lat="42.73741408426785" lon="11.705694986384641"><ele>679.4</ele><time>2026-04-25T15:35:54.968Z</time></trkpt><trkpt lat="42.7375023378154" lon="11.705648871202138"><ele>678.0</ele><time>2026-04-25T15:35:55.968Z</time></trkpt><trkpt lat="42.73760194171825" lon="11.705574731261624"><ele>678.0</ele><time>2026-04-25T15:35:56.968Z</time></trkpt><trkpt lat="42.73770705151496" lon="11.705477358251603"><ele>678.0</ele><time>2026-04-25T15:35:57.968Z</time></trkpt><trkpt lat="42.73781188559172" lon="11.705377527380215"><ele>678.0</ele><time>2026-04-25T15:35:58.968Z</time></trkpt><trkpt lat="42.73790817448483" lon="11.705271183319079"><ele>678.0</ele><time>2026-04-25T15:35:59.968Z</time></trkpt><trkpt lat="42.7379960966177" lon="11.705148922670011"><ele>675.4</ele><time>2026-04-25T15:36:00.968Z</time></trkpt><trkpt lat="42.7380619262187" lon="11.705014704242195"><ele>672.8</ele><time>2026-04-25T15:36:01.968Z</time></trkpt><trkpt lat="42.738111145144096" lon="11.70490130774736"><ele>670.2</ele><time>2026-04-25T15:36:02.968Z</time></trkpt><trkpt lat="42.73813830321451" lon="11.704784563871117"><ele>667.6</ele><time>2026-04-25T15:36:03.968Z</time></trkpt><trkpt lat="42.73814633309203" lon="11.704661937315286"><ele>665.0</ele><time>2026-04-25T15:36:04.968Z</time></trkpt><trkpt lat="42.73813446149302" lon="11.7045401185824"><ele>665.0</ele><time>2026-04-25T15:36:05.968Z</time></trkpt><trkpt lat="42.73809978884006" lon="11.704426519541903"><ele>665.0</ele><time>2026-04-25T15:36:06.968Z</time></trkpt><trkpt lat="42.73803957873785" lon="11.704326452884978"><ele>665.0</ele><time>2026-04-25T15:36:07.968Z</time></trkpt><trkpt lat="42.73796640910971" lon="11.704252337787729"><ele>665.0</ele><time>2026-04-25T15:36:08.968Z</time></trkpt><trkpt lat="42.73789634575945" lon="11.704206946241618"><ele>665.0</ele><time>2026-04-25T15:36:09.968Z</time></trkpt><trkpt lat="42.73785706223175" lon="11.704115937352919"><ele>665.0</ele><time>2026-04-25T15:36:10.968Z</time></trkpt><trkpt lat="42.73789396065896" lon="11.704014531495949"><ele>664.6</ele><time>2026-04-25T15:36:11.967Z</time></trkpt><trkpt lat="42.738003361107644" lon="11.703975384982598"><ele>664.2</ele><time>2026-04-25T15:36:13.967Z</time></trkpt><trkpt lat="42.738081730965185" lon="11.703986556063068"><ele>663.8</ele><time>2026-04-25T15:36:14.967Z</time></trkpt><trkpt lat="42.738165257301155" lon="11.704009957432424"><ele>663.4</ele><time>2026-04-25T15:36:15.967Z</time></trkpt><trkpt lat="42.73825006207317" lon="11.704057482726698"><ele>663.0</ele><time>2026-04-25T15:36:16.967Z</time></trkpt><trkpt lat="42.73832826718612" lon="11.704144733793642"><ele>663.0</ele><time>2026-04-25T15:36:17.967Z</time></trkpt><trkpt lat="42.738431413027705" lon="11.704240776070232"><ele>663.0</ele><time>2026-04-25T15:36:18.967Z</time></trkpt><trkpt lat="42.73851962598056" lon="11.704356592580341"><ele>663.0</ele><time>2026-04-25T15:36:19.967Z</time></trkpt><trkpt lat="42.73859928377629" lon="11.70448812570732"><ele>663.0</ele><time>2026-04-25T15:36:20.967Z</time></trkpt><trkpt lat="42.73869596894842" lon="11.70461598374135"><ele>661.5</ele><time>2026-04-25T15:36:21.967Z</time></trkpt><trkpt lat="42.73879114708916" lon="11.704734970943207"><ele>660.0</ele><time>2026-04-25T15:36:22.967Z</time></trkpt><trkpt lat="42.73888377391384" lon="11.704850767753252"><ele>658.5</ele><time>2026-04-25T15:36:23.967Z</time></trkpt><trkpt lat="42.73898386421462" lon="11.70496587125618"><ele>657.0</ele><time>2026-04-25T15:36:24.967Z</time></trkpt><trkpt lat="42.73909804282705" lon="11.705084143910597"><ele>657.0</ele><time>2026-04-25T15:36:25.967Z</time></trkpt><trkpt lat="42.73919117308499" lon="11.705201315969829"><ele>657.0</ele><time>2026-04-25T15:36:26.967Z</time></trkpt><trkpt lat="42.73927475852923" lon="11.705301911828494"><ele>657.0</ele><time>2026-04-25T15:36:27.967Z</time></trkpt><trkpt lat="42.739348741782194" lon="11.70540451120632"><ele>657.0</ele><time>2026-04-25T15:36:28.967Z</time></trkpt><trkpt lat="42.73942215583833" lon="11.70549889971324"><ele>657.0</ele><time>2026-04-25T15:36:29.967Z</time></trkpt><trkpt lat="42.739517084234635" lon="11.705572067905553"><ele>657.0</ele><time>2026-04-25T15:36:30.967Z</time></trkpt><trkpt lat="42.73961542462974" lon="11.705610610489583"><ele>657.0</ele><time>2026-04-25T15:36:31.967Z</time></trkpt><trkpt lat="42.73973087567425" lon="11.70563610079875"><ele>657.0</ele><time>2026-04-25T15:36:32.967Z</time></trkpt><trkpt lat="42.73984883982603" lon="11.705655290673226"><ele>657.0</ele><time>2026-04-25T15:36:33.967Z</time></trkpt><trkpt lat="42.73997097656553" lon="11.70566755021762"><ele>657.0</ele><time>2026-04-25T15:36:34.967Z</time></trkpt><trkpt lat="42.74008954239351" lon="11.705672728060746"><ele>657.0</ele><time>2026-04-25T15:36:35.967Z</time></trkpt><trkpt lat="42.740210163971035" lon="11.705666533193524"><ele>657.0</ele><time>2026-04-25T15:36:36.967Z</time></trkpt><trkpt lat="42.74031990052739" lon="11.70569625474012"><ele>657.0</ele><time>2026-04-25T15:36:37.967Z</time></trkpt><trkpt lat="42.74042989279572" lon="11.705703758183642"><ele>659.0</ele><time>2026-04-25T15:36:38.967Z</time></trkpt><trkpt lat="42.74053540881256" lon="11.705739862574978"><ele>661.0</ele><time>2026-04-25T15:36:39.967Z</time></trkpt><trkpt lat="42.740632575894196" lon="11.705802725899682"><ele>663.0</ele><time>2026-04-25T15:36:40.967Z</time></trkpt><trkpt lat="42.74071587015747" lon="11.70586914485645"><ele>665.0</ele><time>2026-04-25T15:36:41.967Z</time></trkpt><trkpt lat="42.74080348844062" lon="11.705934466121946"><ele>667.0</ele><time>2026-04-25T15:36:42.967Z</time></trkpt><trkpt lat="42.74089575053175" lon="11.706001796930119"><ele>667.0</ele><time>2026-04-25T15:36:43.967Z</time></trkpt><trkpt lat="42.740992673680886" lon="11.706055605950631"><ele>667.0</ele><time>2026-04-25T15:36:44.967Z</time></trkpt><trkpt lat="42.74109583904532" lon="11.70611190857558"><ele>667.0</ele><time>2026-04-25T15:36:45.967Z</time></trkpt><trkpt lat="42.74118848836346" lon="11.706159851860336"><ele>667.0</ele><time>2026-04-25T15:36:46.967Z</time></trkpt><trkpt lat="42.741279192555055" lon="11.706191760473104"><ele>667.0</ele><time>2026-04-25T15:36:47.967Z</time></trkpt><trkpt lat="42.74136950246766" lon="11.706199849348229"><ele>665.8</ele><time>2026-04-25T15:36:48.967Z</time></trkpt><trkpt lat="42.74145341241851" lon="11.70616711905015"><ele>664.6</ele><time>2026-04-25T15:36:49.967Z</time></trkpt><trkpt lat="42.741528774430066" lon="11.706107940517189"><ele>663.4</ele><time>2026-04-25T15:36:50.966Z</time></trkpt><trkpt lat="42.74161089447395" lon="11.706021625903867"><ele>662.1999999999999</ele><time>2026-04-25T15:36:51.966Z</time></trkpt><trkpt lat="42.741694719104366" lon="11.705901526603189"><ele>661.0</ele><time>2026-04-25T15:36:52.966Z</time></trkpt><trkpt lat="42.74177803834352" lon="11.705788337618891"><ele>661.0</ele><time>2026-04-25T15:36:53.966Z</time></trkpt><trkpt lat="42.74186298982389" lon="11.705683880318203"><ele>661.0</ele><time>2026-04-25T15:36:54.966Z</time></trkpt><trkpt lat="42.74195525862384" lon="11.705578718229408"><ele>661.0</ele><time>2026-04-25T15:36:55.966Z</time></trkpt><trkpt lat="42.74205736246254" lon="11.705490676377643"><ele>661.0</ele><time>2026-04-25T15:36:56.966Z</time></trkpt><trkpt lat="42.74216629303178" lon="11.705419114883643"><ele>660.1999999999999</ele><time>2026-04-25T15:36:57.966Z</time></trkpt><trkpt lat="42.74228527022695" lon="11.705351215627683"><ele>659.4</ele><time>2026-04-25T15:36:58.966Z</time></trkpt><trkpt lat="42.742398590630614" lon="11.705288561417461"><ele>658.6</ele><time>2026-04-25T15:36:59.966Z</time></trkpt><trkpt lat="42.74248592185602" lon="11.705242209903908"><ele>657.8</ele><time>2026-04-25T15:37:00.966Z</time></trkpt><trkpt lat="42.7425534489291" lon="11.705206822374265"><ele>657.0</ele><time>2026-04-25T15:37:01.966Z</time></trkpt><trkpt lat="42.74266204215681" lon="11.705165993705847"><ele>655.5</ele><time>2026-04-25T15:37:03.966Z</time></trkpt><trkpt lat="42.74274682358105" lon="11.70511945967112"><ele>654.0</ele><time>2026-04-25T15:37:05.966Z</time></trkpt><trkpt lat="42.742849497153365" lon="11.70508911856191"><ele>652.5</ele><time>2026-04-25T15:37:09.966Z</time></trkpt><trkpt lat="42.742891590560184" lon="11.70501946084717"><ele>651.0</ele><time>2026-04-25T15:37:10.966Z</time></trkpt><trkpt lat="42.74293586444897" lon="11.704928427963369"><ele>649.5</ele><time>2026-04-25T15:37:11.966Z</time></trkpt><trkpt lat="42.74299524106813" lon="11.70481923946977"><ele>648.0</ele><time>2026-04-25T15:37:12.966Z</time></trkpt><trkpt lat="42.74308115580281" lon="11.70470411477413"><ele>648.0</ele><time>2026-04-25T15:37:13.966Z</time></trkpt><trkpt lat="42.74316173927246" lon="11.704604694059569"><ele>648.0</ele><time>2026-04-25T15:37:14.966Z</time></trkpt><trkpt lat="42.74324927993315" lon="11.704530227060529"><ele>648.0</ele><time>2026-04-25T15:37:15.966Z</time></trkpt><trkpt lat="42.74334373754146" lon="11.704492968057904"><ele>648.0</ele><time>2026-04-25T15:37:16.966Z</time></trkpt><trkpt lat="42.74342978697374" lon="11.704495050034797"><ele>648.0</ele><time>2026-04-25T15:37:17.966Z</time></trkpt><trkpt lat="42.74350839309363" lon="11.704507578049533"><ele>649.8</ele><time>2026-04-25T15:37:18.966Z</time></trkpt><trkpt lat="42.74358525841324" lon="11.704545593100015"><ele>651.5999999999999</ele><time>2026-04-25T15:37:19.966Z</time></trkpt><trkpt lat="42.74365415801255" lon="11.704613855695362"><ele>653.4000000000001</ele><time>2026-04-25T15:37:20.966Z</time></trkpt><trkpt lat="42.74371259436407" lon="11.704707821266732"><ele>655.2</ele><time>2026-04-25T15:37:21.966Z</time></trkpt><trkpt lat="42.743742646881124" lon="11.704842534439933"><ele>657.0</ele><time>2026-04-25T15:37:22.966Z</time></trkpt><trkpt lat="42.74374579638196" lon="11.704993038616529"><ele>657.0</ele><time>2026-04-25T15:37:23.966Z</time></trkpt><trkpt lat="42.74373631927047" lon="11.705151872496312"><ele>657.0</ele><time>2026-04-25T15:37:24.966Z</time></trkpt><trkpt lat="42.743739403945455" lon="11.705301349412473"><ele>657.0</ele><time>2026-04-25T15:37:25.966Z</time></trkpt><trkpt lat="42.743759341929966" lon="11.705438466215424"><ele>657.0</ele><time>2026-04-25T15:37:26.966Z</time></trkpt><trkpt lat="42.743809067329906" lon="11.705562654783769"><ele>657.0</ele><time>2026-04-25T15:37:27.966Z</time></trkpt><trkpt lat="42.74388294312653" lon="11.705659586409931"><ele>656.6</ele><time>2026-04-25T15:37:28.966Z</time></trkpt><trkpt lat="42.74397592122345" lon="11.70571664465752"><ele>656.2</ele><time>2026-04-25T15:37:29.965Z</time></trkpt><trkpt lat="42.744080884247644" lon="11.705744511571956"><ele>655.8</ele><time>2026-04-25T15:37:30.965Z</time></trkpt><trkpt lat="42.744185231607524" lon="11.705785366194398"><ele>655.4</ele><time>2026-04-25T15:37:31.965Z</time></trkpt><trkpt lat="42.744299795493625" lon="11.705785415925366"><ele>655.0</ele><time>2026-04-25T15:37:32.965Z</time></trkpt><trkpt lat="42.74443466112542" lon="11.705834069942487"><ele>656.5</ele><time>2026-04-25T15:37:33.965Z</time></trkpt><trkpt lat="42.74456825956013" lon="11.705858998196456"><ele>658.0</ele><time>2026-04-25T15:37:34.965Z</time></trkpt><trkpt lat="42.74469668062551" lon="11.705882960372017"><ele>659.5</ele><time>2026-04-25T15:37:35.965Z</time></trkpt><trkpt lat="42.7448193387783" lon="11.705906320352915"><ele>661.0</ele><time>2026-04-25T15:37:36.965Z</time></trkpt><trkpt lat="42.744938360047946" lon="11.705929480600929"><ele>661.0</ele><time>2026-04-25T15:37:37.965Z</time></trkpt><trkpt lat="42.74506217385585" lon="11.70595528846216"><ele>661.0</ele><time>2026-04-25T15:37:38.965Z</time></trkpt><trkpt lat="42.74518036989208" lon="11.705979925345437"><ele>661.0</ele><time>2026-04-25T15:37:39.965Z</time></trkpt><trkpt lat="42.7452897730482" lon="11.706002729491573"><ele>661.0</ele><time>2026-04-25T15:37:40.965Z</time></trkpt><trkpt lat="42.74539118950946" lon="11.70602386888041"><ele>661.4</ele><time>2026-04-25T15:37:41.965Z</time></trkpt><trkpt lat="42.74548134847396" lon="11.706042495522512"><ele>661.8</ele><time>2026-04-25T15:37:42.965Z</time></trkpt><trkpt lat="42.74554791281792" lon="11.706056195987848"><ele>662.1999999999999</ele><time>2026-04-25T15:37:43.965Z</time></trkpt><trkpt lat="42.74564027245635" lon="11.706075205726707"><ele>662.5999999999999</ele><time>2026-04-25T15:37:45.965Z</time></trkpt><trkpt lat="42.74570577655501" lon="11.705917547920965"><ele>663.0</ele><time>2026-04-25T15:37:47.967Z</time></trkpt><trkpt lat="42.74574104308349" lon="11.705772442801102"><ele>663.0</ele><time>2026-04-25T15:37:49.967Z</time></trkpt><trkpt lat="42.7457528013455" lon="11.705681521765014"><ele>663.0</ele><time>2026-04-25T15:37:54.966Z</time></trkpt><trkpt lat="42.745670172504184" lon="11.705592487996308"><ele>663.0</ele><time>2026-04-25T15:37:55.966Z</time></trkpt><trkpt lat="42.74563935492879" lon="11.705412391835525"><ele>663.0</ele><time>2026-04-25T15:37:57.967Z</time></trkpt><trkpt lat="42.74560812155495" lon="11.7052890581035"><ele>663.0</ele><time>2026-04-25T15:37:58.967Z</time></trkpt><trkpt lat="42.745562356970076" lon="11.70514116186531"><ele>664.75</ele><time>2026-04-25T15:37:59.966Z</time></trkpt><trkpt lat="42.74550003831094" lon="11.704978905121084"><ele>666.5</ele><time>2026-04-25T15:38:00.967Z</time></trkpt><trkpt lat="42.745426756498915" lon="11.704809050573008"><ele>668.25</ele><time>2026-04-25T15:38:01.967Z</time></trkpt><trkpt lat="42.745366953224284" lon="11.704625662229736"><ele>670.0</ele><time>2026-04-25T15:38:02.967Z</time></trkpt><trkpt lat="42.74528144256432" lon="11.704462873770218"><ele>671.25</ele><time>2026-04-25T15:38:03.967Z</time></trkpt><trkpt lat="42.745203277302004" lon="11.704301499809308"><ele>672.5</ele><time>2026-04-25T15:38:04.967Z</time></trkpt><trkpt lat="42.74512634829876" lon="11.704150989479698"><ele>673.75</ele><time>2026-04-25T15:38:05.967Z</time></trkpt><trkpt lat="42.745075133849554" lon="11.703995799790642"><ele>675.0</ele><time>2026-04-25T15:38:06.967Z</time></trkpt><trkpt lat="42.74502337047676" lon="11.703859456643674"><ele>675.0</ele><time>2026-04-25T15:38:07.967Z</time></trkpt><trkpt lat="42.74498027154912" lon="11.703736410763367"><ele>675.0</ele><time>2026-04-25T15:38:08.966Z</time></trkpt><trkpt lat="42.74494767678543" lon="11.703632937471715"><ele>675.0</ele><time>2026-04-25T15:38:09.966Z</time></trkpt><trkpt lat="42.744913394828934" lon="11.70349261484169"><ele>675.0</ele><time>2026-04-25T15:38:11.966Z</time></trkpt><trkpt lat="42.74490619640135" lon="11.703388355302293"><ele>675.0</ele><time>2026-04-25T15:38:14.966Z</time></trkpt><trkpt lat="42.74489937689426" lon="11.703284185029183"><ele>675.0</ele><time>2026-04-25T15:38:16.966Z</time></trkpt><trkpt lat="42.744922036328965" lon="11.703132572674482"><ele>675.6666666666666</ele><time>2026-04-25T15:38:18.966Z</time></trkpt><trkpt lat="42.74493600813092" lon="11.7030157635837"><ele>676.3333333333334</ele><time>2026-04-25T15:38:19.966Z</time></trkpt><trkpt lat="42.7449481771925" lon="11.702903252700455"><ele>677.0</ele><time>2026-04-25T15:38:20.966Z</time></trkpt><trkpt lat="42.74494561155954" lon="11.702795159023054"><ele>677.6666666666667</ele><time>2026-04-25T15:38:21.966Z</time></trkpt><trkpt lat="42.74497098294103" lon="11.70269695330329"><ele>678.3333333333334</ele><time>2026-04-25T15:38:22.966Z</time></trkpt><trkpt lat="42.744987013930235" lon="11.7026013679429"><ele>679.0</ele><time>2026-04-25T15:38:23.966Z</time></trkpt><trkpt lat="42.745002377519675" lon="11.702505252046873"><ele>680.0</ele><time>2026-04-25T15:38:24.966Z</time></trkpt><trkpt lat="42.74501832958952" lon="11.702414525050292"><ele>681.0</ele><time>2026-04-25T15:38:25.966Z</time></trkpt><trkpt lat="42.745025991938284" lon="11.702279802028041"><ele>682.0</ele><time>2026-04-25T15:38:27.966Z</time></trkpt><trkpt lat="42.74510497513337" lon="11.702239636610324"><ele>683.0</ele><time>2026-04-25T15:38:28.966Z</time></trkpt><trkpt lat="42.74505621784973" lon="11.702144191645873"><ele>684.0</ele><time>2026-04-25T15:38:29.966Z</time></trkpt><trkpt lat="42.745050812960784" lon="11.702055664786215"><ele>685.0</ele><time>2026-04-25T15:38:30.966Z</time></trkpt><trkpt lat="42.74506062384512" lon="11.701888348254851"><ele>686.8333333333334</ele><time>2026-04-25T15:38:32.966Z</time></trkpt><trkpt lat="42.74506141956344" lon="11.701802001519525"><ele>688.6666666666667</ele><time>2026-04-25T15:38:33.966Z</time></trkpt><trkpt lat="42.74504301266713" lon="11.701696926269129"><ele>690.5</ele><time>2026-04-25T15:38:34.966Z</time></trkpt><trkpt lat="42.74504384164473" lon="11.701591526979715"><ele>692.3333333333334</ele><time>2026-04-25T15:38:35.966Z</time></trkpt><trkpt lat="42.745044465091006" lon="11.701484022365618"><ele>694.1666666666666</ele><time>2026-04-25T15:38:36.966Z</time></trkpt><trkpt lat="42.74503982527033" lon="11.70139297353177"><ele>696.0</ele><time>2026-04-25T15:38:37.966Z</time></trkpt><trkpt lat="42.7450326542995" lon="11.701246625988123"><ele>696.0</ele><time>2026-04-25T15:38:39.966Z</time></trkpt><trkpt lat="42.7450331973437" lon="11.701116931042357"><ele>696.0</ele><time>2026-04-25T15:38:41.966Z</time></trkpt><trkpt lat="42.745043502276" lon="11.700939744009295"><ele>696.0</ele><time>2026-04-25T15:38:43.966Z</time></trkpt><trkpt lat="42.74506128580911" lon="11.700849503996544"><ele>696.0</ele><time>2026-04-25T15:38:44.966Z</time></trkpt><trkpt lat="42.745079727992696" lon="11.70076734833674"><ele>696.0</ele><time>2026-04-25T15:38:45.966Z</time></trkpt><trkpt lat="42.74509490955894" lon="11.700679160400249"><ele>696.0</ele><time>2026-04-25T15:38:46.966Z</time></trkpt><trkpt lat="42.74511329959768" lon="11.700579089650086"><ele>696.0</ele><time>2026-04-25T15:38:47.965Z</time></trkpt><trkpt lat="42.74513067027892" lon="11.700469056927588"><ele>696.0</ele><time>2026-04-25T15:38:48.965Z</time></trkpt><trkpt lat="42.74516129496594" lon="11.700354922753013"><ele>696.0</ele><time>2026-04-25T15:38:49.965Z</time></trkpt><trkpt lat="42.745165887919924" lon="11.700232683447895"><ele>696.0</ele><time>2026-04-25T15:38:50.965Z</time></trkpt><trkpt lat="42.74518293226711" lon="11.700128426697399"><ele>696.0</ele><time>2026-04-25T15:38:51.965Z</time></trkpt><trkpt lat="42.74521222574312" lon="11.700040871892103"><ele>696.0</ele><time>2026-04-25T15:38:52.965Z</time></trkpt><trkpt lat="42.74522754023914" lon="11.699949053974452"><ele>699.4</ele><time>2026-04-25T15:38:53.965Z</time></trkpt><trkpt lat="42.74524598343748" lon="11.6997926304109"><ele>702.8</ele><time>2026-04-25T15:38:55.965Z</time></trkpt><trkpt lat="42.74529168616368" lon="11.699659911974095"><ele>706.1999999999999</ele><time>2026-04-25T15:38:57.965Z</time></trkpt><trkpt lat="42.74533562302733" lon="11.699558435933518"><ele>709.5999999999999</ele><time>2026-04-25T15:38:59.965Z</time></trkpt><trkpt lat="42.74539891982791" lon="11.699492955247"><ele>713.0</ele><time>2026-04-25T15:39:01.965Z</time></trkpt><trkpt lat="42.745449113410295" lon="11.699413784869403"><ele>713.0</ele><time>2026-04-25T15:39:03.965Z</time></trkpt><trkpt lat="42.74548649305342" lon="11.699341353715695"><ele>713.0</ele><time>2026-04-25T15:39:05.965Z</time></trkpt><trkpt lat="42.74550185520377" lon="11.699235150803165"><ele>713.0</ele><time>2026-04-25T15:39:07.965Z</time></trkpt><trkpt lat="42.74551122700723" lon="11.699129209155261"><ele>713.0</ele><time>2026-04-25T15:39:09.965Z</time></trkpt><trkpt lat="42.74549038315167" lon="11.699022885666155"><ele>713.0</ele><time>2026-04-25T15:39:11.965Z</time></trkpt><trkpt lat="42.74544299008699" lon="11.698912562747816"><ele>713.0</ele><time>2026-04-25T15:39:13.965Z</time></trkpt><trkpt lat="42.745393170567915" lon="11.698784815693184"><ele>713.0</ele><time>2026-04-25T15:39:15.965Z</time></trkpt><trkpt lat="42.7453279329814" lon="11.698700548871765"><ele>713.0</ele><time>2026-04-25T15:39:17.965Z</time></trkpt><trkpt lat="42.74529362624739" lon="11.698625999697816"><ele>713.0</ele><time>2026-04-25T15:39:23.965Z</time></trkpt><trkpt lat="42.74524508125984" lon="11.698538971469047"><ele>713.0</ele><time>2026-04-25T15:41:09.964Z</time></trkpt><trkpt lat="42.74519615424259" lon="11.698478224637354"><ele>713.0</ele><time>2026-04-25T15:41:19.964Z</time></trkpt><trkpt lat="42.74526357932881" lon="11.698555267349343"><ele>713.0</ele><time>2026-04-25T15:41:33.963Z</time></trkpt><trkpt lat="42.745310740194505" lon="11.698638740063242"><ele>713.0</ele><time>2026-04-25T15:41:35.963Z</time></trkpt><trkpt lat="42.74538134449406" lon="11.69876370706647"><ele>713.0</ele><time>2026-04-25T15:41:37.963Z</time></trkpt><trkpt lat="42.745451073157" lon="11.698893268239473"><ele>713.0</ele><time>2026-04-25T15:41:39.963Z</time></trkpt><trkpt lat="42.74550555324608" lon="11.699023402484006"><ele>713.0</ele><time>2026-04-25T15:41:41.963Z</time></trkpt><trkpt lat="42.74552770222326" lon="11.699174629491585"><ele>713.0</ele><time>2026-04-25T15:41:43.963Z</time></trkpt><trkpt lat="42.7454990922244" lon="11.699318509636818"><ele>713.0</ele><time>2026-04-25T15:41:45.963Z</time></trkpt><trkpt lat="42.74529714657355" lon="11.699587952591507"><ele>713.0</ele><time>2026-04-25T15:41:48.963Z</time></trkpt><trkpt lat="42.74525968100795" lon="11.699679870761475"><ele>713.1666666666666</ele><time>2026-04-25T15:41:49.963Z</time></trkpt><trkpt lat="42.74523031070429" lon="11.69978215882285"><ele>713.3333333333333</ele><time>2026-04-25T15:41:50.963Z</time></trkpt><trkpt lat="42.74520681603103" lon="11.6998944560424"><ele>713.5</ele><time>2026-04-25T15:41:51.963Z</time></trkpt><trkpt lat="42.745185665839685" lon="11.700010132536875"><ele>713.6666666666666</ele><time>2026-04-25T15:41:52.963Z</time></trkpt><trkpt lat="42.74517194628434" lon="11.700131697821398"><ele>713.8333333333334</ele><time>2026-04-25T15:41:53.963Z</time></trkpt><trkpt lat="42.745149045451676" lon="11.700252627859786"><ele>714.0</ele><time>2026-04-25T15:41:54.963Z</time></trkpt><trkpt lat="42.74513424201369" lon="11.700377854202205"><ele>711.3333333333334</ele><time>2026-04-25T15:41:55.963Z</time></trkpt><trkpt lat="42.74511097125775" lon="11.700497297309294"><ele>708.6666666666666</ele><time>2026-04-25T15:41:56.963Z</time></trkpt><trkpt lat="42.74509380711934" lon="11.700623489956076"><ele>706.0</ele><time>2026-04-25T15:41:57.963Z</time></trkpt><trkpt lat="42.745072067687865" lon="11.70073729986723"><ele>703.3333333333333</ele><time>2026-04-25T15:41:58.963Z</time></trkpt><trkpt lat="42.74505172889345" lon="11.700851223296013"><ele>700.6666666666666</ele><time>2026-04-25T15:41:59.965Z</time></trkpt><trkpt lat="42.745030847968934" lon="11.700946940621913"><ele>698.0</ele><time>2026-04-25T15:42:00.965Z</time></trkpt><trkpt lat="42.74501197865609" lon="11.701036062367784"><ele>697.6666666666666</ele><time>2026-04-25T15:42:01.965Z</time></trkpt><trkpt lat="42.745000873504786" lon="11.70112599497883"><ele>697.3333333333333</ele><time>2026-04-25T15:42:02.964Z</time></trkpt><trkpt lat="42.74499462866094" lon="11.701228172560715"><ele>697.0</ele><time>2026-04-25T15:42:03.965Z</time></trkpt><trkpt lat="42.74499702379169" lon="11.701326644199616"><ele>696.6666666666666</ele><time>2026-04-25T15:42:04.965Z</time></trkpt><trkpt lat="42.745003708880475" lon="11.70149330048855"><ele>696.3333333333334</ele><time>2026-04-25T15:42:06.965Z</time></trkpt><trkpt lat="42.745007251914885" lon="11.70157890034204"><ele>696.0</ele><time>2026-04-25T15:42:07.965Z</time></trkpt><trkpt lat="42.745009170953736" lon="11.701675183934169"><ele>696.0</ele><time>2026-04-25T15:42:08.965Z</time></trkpt><trkpt lat="42.745004590883894" lon="11.70176879759175"><ele>696.0</ele><time>2026-04-25T15:42:09.965Z</time></trkpt><trkpt lat="42.74500258986642" lon="11.701856894729577"><ele>696.0</ele><time>2026-04-25T15:42:10.965Z</time></trkpt><trkpt lat="42.74499740862773" lon="11.702017554746478"><ele>696.0</ele><time>2026-04-25T15:42:12.964Z</time></trkpt><trkpt lat="42.744988320255516" lon="11.702151691243687"><ele>696.0</ele><time>2026-04-25T15:42:14.964Z</time></trkpt><trkpt lat="42.74499186748436" lon="11.702250429723122"><ele>696.0</ele><time>2026-04-25T15:42:16.964Z</time></trkpt><trkpt lat="42.744978954169966" lon="11.702339676922309"><ele>694.1666666666666</ele><time>2026-04-25T15:42:18.964Z</time></trkpt><trkpt lat="42.74496935117075" lon="11.70248299836395"><ele>692.3333333333334</ele><time>2026-04-25T15:42:20.964Z</time></trkpt><trkpt lat="42.744961936491784" lon="11.702583401093674"><ele>690.5</ele><time>2026-04-25T15:42:21.964Z</time></trkpt><trkpt lat="42.74494977660345" lon="11.70269191886791"><ele>688.6666666666667</ele><time>2026-04-25T15:42:22.964Z</time></trkpt><trkpt lat="42.744923332328234" lon="11.702813575163626"><ele>686.8333333333334</ele><time>2026-04-25T15:42:23.964Z</time></trkpt><trkpt lat="42.7449121693615" lon="11.702927995327565"><ele>685.0</ele><time>2026-04-25T15:42:24.964Z</time></trkpt><trkpt lat="42.744894995208575" lon="11.703041609145135"><ele>684.0</ele><time>2026-04-25T15:42:25.964Z</time></trkpt><trkpt lat="42.74488420029809" lon="11.703151345025105"><ele>683.0</ele><time>2026-04-25T15:42:26.964Z</time></trkpt><trkpt lat="42.74487333308234" lon="11.70325933157981"><ele>682.0</ele><time>2026-04-25T15:42:27.964Z</time></trkpt><trkpt lat="42.74487173586559" lon="11.703365015341499"><ele>681.0</ele><time>2026-04-25T15:42:28.964Z</time></trkpt><trkpt lat="42.74488157022775" lon="11.70348345484646"><ele>680.0</ele><time>2026-04-25T15:42:29.964Z</time></trkpt><trkpt lat="42.74491254128139" lon="11.703605292303575"><ele>679.0</ele><time>2026-04-25T15:42:30.964Z</time></trkpt><trkpt lat="42.74495751740455" lon="11.703742385931026"><ele>678.0</ele><time>2026-04-25T15:42:31.964Z</time></trkpt><trkpt lat="42.74500762206541" lon="11.703887819198425"><ele>677.0</ele><time>2026-04-25T15:42:32.964Z</time></trkpt><trkpt lat="42.74504866899283" lon="11.704041902422711"><ele>676.0</ele><time>2026-04-25T15:42:33.964Z</time></trkpt><trkpt lat="42.74510585310368" lon="11.704196896973768"><ele>675.0</ele><time>2026-04-25T15:42:34.964Z</time></trkpt><trkpt lat="42.74516343099899" lon="11.704339447934787"><ele>674.0</ele><time>2026-04-25T15:42:35.964Z</time></trkpt><trkpt lat="42.7452200124774" lon="11.704468767132475"><ele>673.0</ele><time>2026-04-25T15:42:36.964Z</time></trkpt><trkpt lat="42.745282453894184" lon="11.704589992178342"><ele>672.0</ele><time>2026-04-25T15:42:37.964Z</time></trkpt><trkpt lat="42.74533629126337" lon="11.704714704704969"><ele>671.0</ele><time>2026-04-25T15:42:38.964Z</time></trkpt><trkpt lat="42.745393667811754" lon="11.704836631635105"><ele>670.0</ele><time>2026-04-25T15:42:39.964Z</time></trkpt><trkpt lat="42.74544168686355" lon="11.704946551652997"><ele>670.0</ele><time>2026-04-25T15:42:40.964Z</time></trkpt><trkpt lat="42.745491057179954" lon="11.705057595022552"><ele>670.0</ele><time>2026-04-25T15:42:41.964Z</time></trkpt><trkpt lat="42.74552099077475" lon="11.705181949788665"><ele>670.0</ele><time>2026-04-25T15:42:42.964Z</time></trkpt><trkpt lat="42.74555761385372" lon="11.705300317911675"><ele>670.0</ele><time>2026-04-25T15:42:43.964Z</time></trkpt><trkpt lat="42.745584757125854" lon="11.705404594650563"><ele>670.0</ele><time>2026-04-25T15:42:44.964Z</time></trkpt><trkpt lat="42.745606601402436" lon="11.705505415459797"><ele>670.0</ele><time>2026-04-25T15:42:45.964Z</time></trkpt><trkpt lat="42.74563644974308" lon="11.705630788977428"><ele>668.25</ele><time>2026-04-25T15:42:47.964Z</time></trkpt><trkpt lat="42.74564463521576" lon="11.705719348465152"><ele>666.5</ele><time>2026-04-25T15:42:49.963Z</time></trkpt><trkpt lat="42.745865015896825" lon="11.705520554068755"><ele>664.75</ele><time>2026-04-25T15:42:57.963Z</time></trkpt><trkpt lat="42.745970024831315" lon="11.705472086953764"><ele>663.0</ele><time>2026-04-25T15:42:59.963Z</time></trkpt><trkpt lat="42.74603500624401" lon="11.705519119421231"><ele>664.0</ele><time>2026-04-25T15:43:00.963Z</time></trkpt><trkpt lat="42.74610149005474" lon="11.705589165322444"><ele>665.0</ele><time>2026-04-25T15:43:01.963Z</time></trkpt><trkpt lat="42.74616788001719" lon="11.705682027749248"><ele>666.0</ele><time>2026-04-25T15:43:02.963Z</time></trkpt><trkpt lat="42.74622615054896" lon="11.705788388964999"><ele>667.0</ele><time>2026-04-25T15:43:03.963Z</time></trkpt><trkpt lat="42.74628634166832" lon="11.705909385404839"><ele>668.0</ele><time>2026-04-25T15:43:04.963Z</time></trkpt><trkpt lat="42.7463533621302" lon="11.706034995936271"><ele>666.8333333333333</ele><time>2026-04-25T15:43:05.963Z</time></trkpt><trkpt lat="42.74641364621325" lon="11.70614012828951"><ele>665.6666666666666</ele><time>2026-04-25T15:43:06.963Z</time></trkpt><trkpt lat="42.746464180496126" lon="11.706241005240827"><ele>664.5</ele><time>2026-04-25T15:43:07.963Z</time></trkpt><trkpt lat="42.74652321609242" lon="11.706326192090039"><ele>663.3333333333334</ele><time>2026-04-25T15:43:08.963Z</time></trkpt><trkpt lat="42.74658467327756" lon="11.706389234226608"><ele>662.1666666666667</ele><time>2026-04-25T15:43:09.963Z</time></trkpt><trkpt lat="42.74664291567134" lon="11.706472126100389"><ele>661.0</ele><time>2026-04-25T15:43:10.963Z</time></trkpt><trkpt lat="42.746696888631774" lon="11.706535310794067"><ele>661.0</ele><time>2026-04-25T15:43:11.963Z</time></trkpt><trkpt lat="42.746786408846475" lon="11.70661341108559"><ele>661.0</ele><time>2026-04-25T15:43:13.963Z</time></trkpt><trkpt lat="42.74690074818467" lon="11.706649387999484"><ele>661.0</ele><time>2026-04-25T15:44:08.964Z</time></trkpt><trkpt lat="42.74700667599526" lon="11.706709964817147"><ele>661.0</ele><time>2026-04-25T15:45:12.962Z</time></trkpt><trkpt lat="42.74708996653492" lon="11.706752931068667"><ele>661.0</ele><time>2026-04-25T15:45:13.962Z</time></trkpt><trkpt lat="42.7471781247024" lon="11.7067778688629"><ele>661.3333333333334</ele><time>2026-04-25T15:45:14.962Z</time></trkpt><trkpt lat="42.74726594029073" lon="11.706804358189896"><ele>661.6666666666667</ele><time>2026-04-25T15:45:15.962Z</time></trkpt><trkpt lat="42.747350386232554" lon="11.706758152168751"><ele>662.0</ele><time>2026-04-25T15:45:16.962Z</time></trkpt><trkpt lat="42.74741481087867" lon="11.706692901252524"><ele>662.3333333333334</ele><time>2026-04-25T15:45:17.962Z</time></trkpt><trkpt lat="42.74746707896854" lon="11.706602330829712"><ele>662.6666666666666</ele><time>2026-04-25T15:45:18.962Z</time></trkpt><trkpt lat="42.74750226965742" lon="11.706484073262791"><ele>663.0</ele><time>2026-04-25T15:45:19.962Z</time></trkpt><trkpt lat="42.74753405117952" lon="11.706350397910345"><ele>663.0</ele><time>2026-04-25T15:45:20.962Z</time></trkpt><trkpt lat="42.74756730413531" lon="11.706198354433687"><ele>663.0</ele><time>2026-04-25T15:45:21.962Z</time></trkpt><trkpt lat="42.747620355965736" lon="11.706063477124014"><ele>663.0</ele><time>2026-04-25T15:45:22.962Z</time></trkpt><trkpt lat="42.74766802173492" lon="11.705911669606136"><ele>663.0</ele><time>2026-04-25T15:45:23.962Z</time></trkpt><trkpt lat="42.747726340847315" lon="11.705775217370194"><ele>665.0</ele><time>2026-04-25T15:45:24.962Z</time></trkpt><trkpt lat="42.74779592121807" lon="11.70564623557743"><ele>667.0</ele><time>2026-04-25T15:45:25.962Z</time></trkpt><trkpt lat="42.747883530016054" lon="11.705520990716897"><ele>669.0</ele><time>2026-04-25T15:45:26.962Z</time></trkpt><trkpt lat="42.74798250702371" lon="11.705394496638933"><ele>671.0</ele><time>2026-04-25T15:45:27.962Z</time></trkpt><trkpt lat="42.74808604212296" lon="11.705272766493284"><ele>672.5</ele><time>2026-04-25T15:45:28.962Z</time></trkpt><trkpt lat="42.748209909242775" lon="11.705169401891071"><ele>674.0</ele><time>2026-04-25T15:45:29.962Z</time></trkpt><trkpt lat="42.74832835057554" lon="11.705058114151171"><ele>675.5</ele><time>2026-04-25T15:45:30.962Z</time></trkpt><trkpt lat="42.74843869133508" lon="11.704963916587715"><ele>677.0</ele><time>2026-04-25T15:45:31.962Z</time></trkpt><trkpt lat="42.74855079905283" lon="11.704889056751107"><ele>678.0</ele><time>2026-04-25T15:45:32.962Z</time></trkpt><trkpt lat="42.74865185862597" lon="11.704846112897398"><ele>679.0</ele><time>2026-04-25T15:45:33.962Z</time></trkpt><trkpt lat="42.74873643555845" lon="11.70483037215574"><ele>680.0</ele><time>2026-04-25T15:45:34.962Z</time></trkpt><trkpt lat="42.748817350182684" lon="11.70484600468789"><ele>681.0</ele><time>2026-04-25T15:45:35.962Z</time></trkpt><trkpt lat="42.74890607369462" lon="11.704890695424437"><ele>682.0</ele><time>2026-04-25T15:45:36.962Z</time></trkpt><trkpt lat="42.74900784949412" lon="11.704983841827138"><ele>682.0</ele><time>2026-04-25T15:45:37.962Z</time></trkpt><trkpt lat="42.74910802937546" lon="11.705074390634838"><ele>682.0</ele><time>2026-04-25T15:45:38.962Z</time></trkpt><trkpt lat="42.749213219195504" lon="11.705180299767617"><ele>682.0</ele><time>2026-04-25T15:45:39.962Z</time></trkpt><trkpt lat="42.749326174971976" lon="11.705297870121443"><ele>682.0</ele><time>2026-04-25T15:45:40.962Z</time></trkpt><trkpt lat="42.749442043546175" lon="11.705425041569766"><ele>682.5</ele><time>2026-04-25T15:45:41.962Z</time></trkpt><trkpt lat="42.74956064095485" lon="11.705548775292414"><ele>683.0</ele><time>2026-04-25T15:45:42.962Z</time></trkpt><trkpt lat="42.74967588141562" lon="11.705667484048698"><ele>683.5</ele><time>2026-04-25T15:45:43.962Z</time></trkpt><trkpt lat="42.749795683613726" lon="11.705767661402746"><ele>684.0</ele><time>2026-04-25T15:45:44.962Z</time></trkpt><trkpt lat="42.74991084383219" lon="11.705869241206472"><ele>684.0</ele><time>2026-04-25T15:45:45.962Z</time></trkpt><trkpt lat="42.750018346070675" lon="11.7059837794541"><ele>684.0</ele><time>2026-04-25T15:45:46.962Z</time></trkpt><trkpt lat="42.75011303226275" lon="11.706114199315799"><ele>684.0</ele><time>2026-04-25T15:45:47.962Z</time></trkpt><trkpt lat="42.75020482139714" lon="11.706257522442712"><ele>684.0</ele><time>2026-04-25T15:45:48.962Z</time></trkpt><trkpt lat="42.750301511090974" lon="11.706397665497134"><ele>685.3333333333334</ele><time>2026-04-25T15:45:49.962Z</time></trkpt><trkpt lat="42.75040753217289" lon="11.706534815378433"><ele>686.6666666666667</ele><time>2026-04-25T15:45:50.962Z</time></trkpt><trkpt lat="42.75052774438465" lon="11.706668008678042"><ele>688.0</ele><time>2026-04-25T15:45:51.961Z</time></trkpt><trkpt lat="42.750649567269136" lon="11.706793044755068"><ele>688.0</ele><time>2026-04-25T15:45:52.961Z</time></trkpt><trkpt lat="42.75076979802152" lon="11.706900367686677"><ele>688.0</ele><time>2026-04-25T15:45:53.961Z</time></trkpt><trkpt lat="42.75089229920299" lon="11.706999456231005"><ele>688.0</ele><time>2026-04-25T15:45:54.961Z</time></trkpt><trkpt lat="42.75101529312333" lon="11.707073137196781"><ele>688.0</ele><time>2026-04-25T15:45:55.961Z</time></trkpt><trkpt lat="42.751143883996974" lon="11.707105061012488"><ele>685.25</ele><time>2026-04-25T15:45:56.961Z</time></trkpt><trkpt lat="42.751280760033126" lon="11.70710877502199"><ele>682.5</ele><time>2026-04-25T15:45:57.961Z</time></trkpt><trkpt lat="42.75142258470236" lon="11.70712801849165"><ele>679.75</ele><time>2026-04-25T15:45:58.961Z</time></trkpt><trkpt lat="42.751567973340606" lon="11.707152975544679"><ele>677.0</ele><time>2026-04-25T15:45:59.961Z</time></trkpt><trkpt lat="42.751720587078225" lon="11.707178972139294"><ele>677.0</ele><time>2026-04-25T15:46:00.961Z</time></trkpt><trkpt lat="42.7518651997282" lon="11.707206916326653"><ele>677.0</ele><time>2026-04-25T15:46:01.961Z</time></trkpt><trkpt lat="42.75199827313378" lon="11.707227605850342"><ele>677.0</ele><time>2026-04-25T15:46:02.961Z</time></trkpt><trkpt lat="42.75211188404055" lon="11.707240282950826"><ele>677.0</ele><time>2026-04-25T15:46:03.961Z</time></trkpt><trkpt lat="42.75220195641047" lon="11.707234399726623"><ele>678.0</ele><time>2026-04-25T15:46:04.961Z</time></trkpt><trkpt lat="42.75227867660733" lon="11.707189599781538"><ele>679.0</ele><time>2026-04-25T15:46:05.961Z</time></trkpt><trkpt lat="42.752339905908805" lon="11.707110591945776"><ele>680.0</ele><time>2026-04-25T15:46:06.961Z</time></trkpt><trkpt lat="42.75237920313459" lon="11.706988830052081"><ele>681.0</ele><time>2026-04-25T15:46:07.961Z</time></trkpt><trkpt lat="42.752404174206674" lon="11.706836089563398"><ele>682.0</ele><time>2026-04-25T15:46:08.961Z</time></trkpt><trkpt lat="42.75243394833342" lon="11.706660808599729"><ele>682.25</ele><time>2026-04-25T15:46:09.961Z</time></trkpt><trkpt lat="42.75247138441118" lon="11.706469952553553"><ele>682.5</ele><time>2026-04-25T15:46:10.961Z</time></trkpt><trkpt lat="42.752518301389706" lon="11.706267550773363"><ele>682.75</ele><time>2026-04-25T15:46:11.963Z</time></trkpt><trkpt lat="42.75256134924751" lon="11.706081904627878"><ele>683.0</ele><time>2026-04-25T15:46:12.963Z</time></trkpt><trkpt lat="42.75259344118386" lon="11.705906696920394"><ele>683.5</ele><time>2026-04-25T15:46:13.963Z</time></trkpt><trkpt lat="42.75260825590696" lon="11.705737476518067"><ele>684.0</ele><time>2026-04-25T15:46:14.963Z</time></trkpt><trkpt lat="42.75260340740732" lon="11.705579709184383"><ele>684.5</ele><time>2026-04-25T15:46:15.962Z</time></trkpt><trkpt lat="42.75256935126056" lon="11.705440834296153"><ele>685.0</ele><time>2026-04-25T15:46:16.962Z</time></trkpt><trkpt lat="42.75250703652342" lon="11.705315367836793"><ele>683.0</ele><time>2026-04-25T15:46:17.963Z</time></trkpt><trkpt lat="42.75241663545258" lon="11.705165603688885"><ele>681.0</ele><time>2026-04-25T15:46:18.963Z</time></trkpt><trkpt lat="42.75232119765205" lon="11.705000693692124"><ele>679.0</ele><time>2026-04-25T15:46:19.963Z</time></trkpt><trkpt lat="42.752236516632976" lon="11.704811349201718"><ele>679.0</ele><time>2026-04-25T15:46:20.963Z</time></trkpt><trkpt lat="42.752147931940925" lon="11.704644290595759"><ele>679.0</ele><time>2026-04-25T15:46:21.962Z</time></trkpt><trkpt lat="42.75205990594563" lon="11.704466083770344"><ele>679.0</ele><time>2026-04-25T15:46:22.962Z</time></trkpt><trkpt lat="42.75197533385719" lon="11.704276933971448"><ele>681.6666666666667</ele><time>2026-04-25T15:46:23.962Z</time></trkpt><trkpt lat="42.75190082336396" lon="11.704072733954138"><ele>684.3333333333334</ele><time>2026-04-25T15:46:24.963Z</time></trkpt><trkpt lat="42.75183927805933" lon="11.70385171767522"><ele>687.0</ele><time>2026-04-25T15:46:25.963Z</time></trkpt><trkpt lat="42.751806664542386" lon="11.70360925841862"><ele>684.0</ele><time>2026-04-25T15:46:26.963Z</time></trkpt><trkpt lat="42.751749368565314" lon="11.70336816108268"><ele>681.0</ele><time>2026-04-25T15:46:27.963Z</time></trkpt><trkpt lat="42.75171310137235" lon="11.703132734317064"><ele>678.0</ele><time>2026-04-25T15:46:28.963Z</time></trkpt><trkpt lat="42.751671366283134" lon="11.702895984066265"><ele>676.3333333333334</ele><time>2026-04-25T15:46:29.963Z</time></trkpt><trkpt lat="42.751629840993154" lon="11.70267140823772"><ele>674.6666666666667</ele><time>2026-04-25T15:46:30.963Z</time></trkpt><trkpt lat="42.75158474675968" lon="11.702461572081681"><ele>673.0</ele><time>2026-04-25T15:46:31.963Z</time></trkpt><trkpt lat="42.751544583728126" lon="11.702252497755564"><ele>673.0</ele><time>2026-04-25T15:46:32.963Z</time></trkpt><trkpt lat="42.75152526177578" lon="11.702042200992842"><ele>673.0</ele><time>2026-04-25T15:46:33.963Z</time></trkpt><trkpt lat="42.751526076758566" lon="11.70183006931475"><ele>673.0</ele><time>2026-04-25T15:46:34.963Z</time></trkpt><trkpt lat="42.75153768702295" lon="11.701648726410497"><ele>673.0</ele><time>2026-04-25T15:46:35.963Z</time></trkpt><trkpt lat="42.75153718099557" lon="11.70149489755326"><ele>672.25</ele><time>2026-04-25T15:46:36.963Z</time></trkpt><trkpt lat="42.75151465876716" lon="11.701355956785324"><ele>671.5</ele><time>2026-04-25T15:46:37.963Z</time></trkpt><trkpt lat="42.75146768280785" lon="11.70121279900579"><ele>670.75</ele><time>2026-04-25T15:46:38.963Z</time></trkpt><trkpt lat="42.751414503987924" lon="11.701060181288314"><ele>670.0</ele><time>2026-04-25T15:46:39.962Z</time></trkpt><trkpt lat="42.751383180378056" lon="11.700918638226304"><ele>669.6</ele><time>2026-04-25T15:46:40.962Z</time></trkpt><trkpt lat="42.75137727625612" lon="11.700785860166752"><ele>669.2</ele><time>2026-04-25T15:46:41.962Z</time></trkpt><trkpt lat="42.751400799517995" lon="11.70065776637503"><ele>668.8</ele><time>2026-04-25T15:46:42.962Z</time></trkpt><trkpt lat="42.75144934848947" lon="11.700526709733781"><ele>668.4</ele><time>2026-04-25T15:46:43.962Z</time></trkpt><trkpt lat="42.751519214007594" lon="11.700399818481609"><ele>668.0</ele><time>2026-04-25T15:46:44.962Z</time></trkpt><trkpt lat="42.75161373050322" lon="11.700273779124064"><ele>669.5</ele><time>2026-04-25T15:46:45.962Z</time></trkpt><trkpt lat="42.751714293664044" lon="11.700134442472391"><ele>671.0</ele><time>2026-04-25T15:46:46.962Z</time></trkpt><trkpt lat="42.75180892536903" lon="11.699997841740782"><ele>672.5</ele><time>2026-04-25T15:46:47.962Z</time></trkpt><trkpt lat="42.751901139703165" lon="11.699862521913925"><ele>674.0</ele><time>2026-04-25T15:46:48.962Z</time></trkpt><trkpt lat="42.75197944422996" lon="11.699724195577222"><ele>670.25</ele><time>2026-04-25T15:46:49.962Z</time></trkpt><trkpt lat="42.75204234327487" lon="11.699588785056745"><ele>666.5</ele><time>2026-04-25T15:46:50.962Z</time></trkpt><trkpt lat="42.75207448102254" lon="11.699436461946805"><ele>662.75</ele><time>2026-04-25T15:46:51.962Z</time></trkpt><trkpt lat="42.752079429765644" lon="11.699259998576668"><ele>659.0</ele><time>2026-04-25T15:46:52.962Z</time></trkpt><trkpt lat="42.752086560601306" lon="11.699095657428467"><ele>659.0</ele><time>2026-04-25T15:46:53.962Z</time></trkpt><trkpt lat="42.752089763305776" lon="11.698952853055008"><ele>659.0</ele><time>2026-04-25T15:46:54.962Z</time></trkpt><trkpt lat="42.75208302453161" lon="11.69882569555715"><ele>659.0</ele><time>2026-04-25T15:46:55.962Z</time></trkpt><trkpt lat="42.75203921715843" lon="11.698706655376249"><ele>659.0</ele><time>2026-04-25T15:46:56.962Z</time></trkpt><trkpt lat="42.75197313539416" lon="11.69860887837016"><ele>659.0</ele><time>2026-04-25T15:46:57.962Z</time></trkpt><trkpt lat="42.75188885616981" lon="11.698511056276223"><ele>661.0</ele><time>2026-04-25T15:46:58.962Z</time></trkpt><trkpt lat="42.75180203815852" lon="11.698398932295365"><ele>663.0</ele><time>2026-04-25T15:46:59.962Z</time></trkpt><trkpt lat="42.75172917776404" lon="11.698288775218012"><ele>665.0</ele><time>2026-04-25T15:47:00.962Z</time></trkpt><trkpt lat="42.75169001593043" lon="11.698178974817715"><ele>667.0</ele><time>2026-04-25T15:47:01.962Z</time></trkpt><trkpt lat="42.751677880140264" lon="11.698064010956612"><ele>669.0</ele><time>2026-04-25T15:47:02.962Z</time></trkpt><trkpt lat="42.7517016337465" lon="11.697961109236171"><ele>669.0</ele><time>2026-04-25T15:47:03.962Z</time></trkpt><trkpt lat="42.7517725289904" lon="11.697886992656285"><ele>669.0</ele><time>2026-04-25T15:47:04.962Z</time></trkpt><trkpt lat="42.75183568983509" lon="11.697795066068299"><ele>669.0</ele><time>2026-04-25T15:47:05.962Z</time></trkpt><trkpt lat="42.75192436309523" lon="11.697705664836535"><ele>669.0</ele><time>2026-04-25T15:47:06.962Z</time></trkpt><trkpt lat="42.75201534472099" lon="11.697603994503549"><ele>669.0</ele><time>2026-04-25T15:47:07.962Z</time></trkpt><trkpt lat="42.752103794760934" lon="11.697504548649952"><ele>666.0</ele><time>2026-04-25T15:47:08.962Z</time></trkpt><trkpt lat="42.752184255764185" lon="11.697393867067134"><ele>663.0</ele><time>2026-04-25T15:47:09.962Z</time></trkpt><trkpt lat="42.75225110951044" lon="11.697253259665079"><ele>660.0</ele><time>2026-04-25T15:47:10.962Z</time></trkpt><trkpt lat="42.75230646035145" lon="11.697096559925257"><ele>657.0</ele><time>2026-04-25T15:47:11.962Z</time></trkpt><trkpt lat="42.75233969559299" lon="11.696915727450772"><ele>657.0</ele><time>2026-04-25T15:47:12.962Z</time></trkpt><trkpt lat="42.75235098420536" lon="11.696726461280798"><ele>657.0</ele><time>2026-04-25T15:47:13.962Z</time></trkpt><trkpt lat="42.75234066258498" lon="11.696551572452481"><ele>657.0</ele><time>2026-04-25T15:47:14.962Z</time></trkpt><trkpt lat="42.75233646690382" lon="11.696408416624061"><ele>657.0</ele><time>2026-04-25T15:47:15.962Z</time></trkpt><trkpt lat="42.75234552990318" lon="11.696286251924212"><ele>657.0</ele><time>2026-04-25T15:47:16.962Z</time></trkpt><trkpt lat="42.75239298518328" lon="11.696186038391057"><ele>657.0</ele><time>2026-04-25T15:47:17.962Z</time></trkpt><trkpt lat="42.75246247422618" lon="11.696114956509598"><ele>657.0</ele><time>2026-04-25T15:47:18.961Z</time></trkpt><trkpt lat="42.75255933332712" lon="11.696081325941533"><ele>657.0</ele><time>2026-04-25T15:47:19.961Z</time></trkpt><trkpt lat="42.75267312972864" lon="11.69604860322909"><ele>657.0</ele><time>2026-04-25T15:47:20.961Z</time></trkpt><trkpt lat="42.75280792895764" lon="11.69600538331383"><ele>655.75</ele><time>2026-04-25T15:47:21.961Z</time></trkpt><trkpt lat="42.75294701383878" lon="11.69599466550246"><ele>654.5</ele><time>2026-04-25T15:47:22.961Z</time></trkpt><trkpt lat="42.753076585340885" lon="11.696017646382883"><ele>653.25</ele><time>2026-04-25T15:47:23.961Z</time></trkpt><trkpt lat="42.753195858528294" lon="11.696085448240572"><ele>652.0</ele><time>2026-04-25T15:47:24.961Z</time></trkpt><trkpt lat="42.75330628851721" lon="11.696181803296174"><ele>652.0</ele><time>2026-04-25T15:47:25.961Z</time></trkpt><trkpt lat="42.75341082552191" lon="11.696305454121292"><ele>652.0</ele><time>2026-04-25T15:47:26.961Z</time></trkpt><trkpt lat="42.75350509709142" lon="11.696448142451924"><ele>652.0</ele><time>2026-04-25T15:47:27.961Z</time></trkpt><trkpt lat="42.753599706778836" lon="11.696585140897747"><ele>652.0</ele><time>2026-04-25T15:47:28.961Z</time></trkpt><trkpt lat="42.75369514313309" lon="11.69670573443875"><ele>650.25</ele><time>2026-04-25T15:47:29.961Z</time></trkpt><trkpt lat="42.75378008876256" lon="11.696802927400336"><ele>648.5</ele><time>2026-04-25T15:47:30.961Z</time></trkpt><trkpt lat="42.75387735174727" lon="11.696882686378869"><ele>646.75</ele><time>2026-04-25T15:47:31.961Z</time></trkpt><trkpt lat="42.753988044312884" lon="11.696923385005803"><ele>645.0</ele><time>2026-04-25T15:47:32.961Z</time></trkpt><trkpt lat="42.754111863291975" lon="11.696930815595968"><ele>645.0</ele><time>2026-04-25T15:47:33.961Z</time></trkpt><trkpt lat="42.754237403214624" lon="11.696939106896096"><ele>645.0</ele><time>2026-04-25T15:47:34.961Z</time></trkpt><trkpt lat="42.75436562971993" lon="11.69698036608092"><ele>645.0</ele><time>2026-04-25T15:47:35.961Z</time></trkpt><trkpt lat="42.75448090298755" lon="11.697061149842993"><ele>645.0</ele><time>2026-04-25T15:47:36.961Z</time></trkpt><trkpt lat="42.754594705325225" lon="11.697169011638296"><ele>648.6666666666666</ele><time>2026-04-25T15:47:37.961Z</time></trkpt><trkpt lat="42.75471471165084" lon="11.697297454902566"><ele>652.3333333333333</ele><time>2026-04-25T15:47:38.961Z</time></trkpt><trkpt lat="42.75484326119011" lon="11.697424529043518"><ele>656.0</ele><time>2026-04-25T15:47:39.961Z</time></trkpt><trkpt lat="42.754966390133454" lon="11.697540599099787"><ele>656.0</ele><time>2026-04-25T15:47:40.961Z</time></trkpt><trkpt lat="42.755078101930714" lon="11.697664531929561"><ele>656.0</ele><time>2026-04-25T15:47:41.961Z</time></trkpt><trkpt lat="42.755161899929334" lon="11.697810048288272"><ele>656.0</ele><time>2026-04-25T15:47:42.961Z</time></trkpt><trkpt lat="42.75519268423781" lon="11.697985218455292"><ele>656.0</ele><time>2026-04-25T15:47:43.961Z</time></trkpt><trkpt lat="42.75521868275174" lon="11.698151792733958"><ele>655.75</ele><time>2026-04-25T15:47:44.961Z</time></trkpt><trkpt lat="42.75526231919571" lon="11.698302095513961"><ele>655.5</ele><time>2026-04-25T15:47:45.961Z</time></trkpt><trkpt lat="42.75528506133118" lon="11.6984520989525"><ele>655.25</ele><time>2026-04-25T15:47:46.961Z</time></trkpt><trkpt lat="42.75535388219898" lon="11.698575113555215"><ele>655.0</ele><time>2026-04-25T15:47:47.961Z</time></trkpt><trkpt lat="42.75547008074375" lon="11.698658339763215"><ele>655.0</ele><time>2026-04-25T15:47:48.961Z</time></trkpt><trkpt lat="42.75559018600585" lon="11.69876508164423"><ele>655.0</ele><time>2026-04-25T15:47:49.961Z</time></trkpt><trkpt lat="42.75571582330015" lon="11.69888013258936"><ele>655.0</ele><time>2026-04-25T15:47:50.961Z</time></trkpt><trkpt lat="42.75582443704535" lon="11.699007404764377"><ele>655.0</ele><time>2026-04-25T15:47:51.961Z</time></trkpt><trkpt lat="42.755916392295596" lon="11.699128636277589"><ele>655.0</ele><time>2026-04-25T15:47:52.961Z</time></trkpt><trkpt lat="42.75600372771884" lon="11.699232294124327"><ele>655.0</ele><time>2026-04-25T15:47:53.961Z</time></trkpt><trkpt lat="42.75609142885555" lon="11.699316792654775"><ele>655.0</ele><time>2026-04-25T15:47:54.961Z</time></trkpt><trkpt lat="42.756192881641034" lon="11.699382599598804"><ele>655.0</ele><time>2026-04-25T15:47:55.961Z</time></trkpt><trkpt lat="42.75630787439493" lon="11.699433475119942"><ele>655.75</ele><time>2026-04-25T15:47:56.961Z</time></trkpt><trkpt lat="42.75644023052789" lon="11.699474511073275"><ele>656.5</ele><time>2026-04-25T15:47:57.96Z</time></trkpt><trkpt lat="42.75658620776436" lon="11.69950386286712"><ele>657.25</ele><time>2026-04-25T15:47:58.96Z</time></trkpt><trkpt lat="42.75672307032898" lon="11.699530211922095"><ele>658.0</ele><time>2026-04-25T15:47:59.96Z</time></trkpt><trkpt lat="42.75684795953228" lon="11.699541189731503"><ele>658.8</ele><time>2026-04-25T15:48:00.96Z</time></trkpt><trkpt lat="42.756963423771396" lon="11.699549390826286"><ele>659.5999999999999</ele><time>2026-04-25T15:48:01.96Z</time></trkpt><trkpt lat="42.7570631169594" lon="11.699492150310796"><ele>660.4000000000001</ele><time>2026-04-25T15:48:02.96Z</time></trkpt><trkpt lat="42.75716133562838" lon="11.6994362993423"><ele>661.2</ele><time>2026-04-25T15:48:03.96Z</time></trkpt><trkpt lat="42.75726296509059" lon="11.699371354042732"><ele>662.0</ele><time>2026-04-25T15:48:04.96Z</time></trkpt><trkpt lat="42.75736843556942" lon="11.699320336230935"><ele>663.75</ele><time>2026-04-25T15:48:05.96Z</time></trkpt><trkpt lat="42.75748943300543" lon="11.699293184772648"><ele>665.5</ele><time>2026-04-25T15:48:06.96Z</time></trkpt><trkpt lat="42.75761917548705" lon="11.699291045292037"><ele>667.25</ele><time>2026-04-25T15:48:07.96Z</time></trkpt><trkpt lat="42.75774780473634" lon="11.699281785695499"><ele>669.0</ele><time>2026-04-25T15:48:08.96Z</time></trkpt><trkpt lat="42.75786754196912" lon="11.699269570018481"><ele>669.5</ele><time>2026-04-25T15:48:09.96Z</time></trkpt><trkpt lat="42.757981714516006" lon="11.69923607343888"><ele>670.0</ele><time>2026-04-25T15:48:10.96Z</time></trkpt><trkpt lat="42.75810568703807" lon="11.699193293232131"><ele>670.5</ele><time>2026-04-25T15:48:11.96Z</time></trkpt><trkpt lat="42.7582158904948" lon="11.699090324172191"><ele>671.0</ele><time>2026-04-25T15:48:12.96Z</time></trkpt><trkpt lat="42.758332902277694" lon="11.699010625895843"><ele>671.0</ele><time>2026-04-25T15:48:13.96Z</time></trkpt><trkpt lat="42.758428324346944" lon="11.69890857581422"><ele>671.0</ele><time>2026-04-25T15:48:14.96Z</time></trkpt><trkpt lat="42.75851506899132" lon="11.698823935295724"><ele>671.0</ele><time>2026-04-25T15:48:15.96Z</time></trkpt><trkpt lat="42.75859674124975" lon="11.698764228150205"><ele>671.0</ele><time>2026-04-25T15:48:16.96Z</time></trkpt><trkpt lat="42.75868394353915" lon="11.698737316487694"><ele>671.0</ele><time>2026-04-25T15:48:17.962Z</time></trkpt><trkpt lat="42.75877361419521" lon="11.69875647621944"><ele>672.25</ele><time>2026-04-25T15:48:18.962Z</time></trkpt><trkpt lat="42.75887580766091" lon="11.698816963235819"><ele>673.5</ele><time>2026-04-25T15:48:19.962Z</time></trkpt><trkpt lat="42.758954441488534" lon="11.69891561730614"><ele>674.75</ele><time>2026-04-25T15:48:20.962Z</time></trkpt><trkpt lat="42.75905346528077" lon="11.699001053845961"><ele>676.0</ele><time>2026-04-25T15:48:21.962Z</time></trkpt><trkpt lat="42.75915600915159" lon="11.69908677283862"><ele>676.0</ele><time>2026-04-25T15:48:22.962Z</time></trkpt><trkpt lat="42.75925960839577" lon="11.699168815731769"><ele>676.0</ele><time>2026-04-25T15:48:23.962Z</time></trkpt><trkpt lat="42.759342596330335" lon="11.699285930242029"><ele>676.0</ele><time>2026-04-25T15:48:24.962Z</time></trkpt><trkpt lat="42.75939677069889" lon="11.699440797831846"><ele>676.0</ele><time>2026-04-25T15:48:25.962Z</time></trkpt><trkpt lat="42.759445509979344" lon="11.699607598881727"><ele>678.75</ele><time>2026-04-25T15:48:26.962Z</time></trkpt><trkpt lat="42.7594834558069" lon="11.69977254940618"><ele>681.5</ele><time>2026-04-25T15:48:27.962Z</time></trkpt><trkpt lat="42.759503974427" lon="11.699943563466823"><ele>684.25</ele><time>2026-04-25T15:48:28.962Z</time></trkpt><trkpt lat="42.75950324205103" lon="11.700126075686567"><ele>687.0</ele><time>2026-04-25T15:48:29.961Z</time></trkpt><trkpt lat="42.75946783851059" lon="11.70030235266102"><ele>687.0</ele><time>2026-04-25T15:48:30.962Z</time></trkpt><trkpt lat="42.75943597795039" lon="11.700465127973517"><ele>687.0</ele><time>2026-04-25T15:48:31.962Z</time></trkpt><trkpt lat="42.7594181685882" lon="11.700603496312448"><ele>687.0</ele><time>2026-04-25T15:48:32.962Z</time></trkpt><trkpt lat="42.75941307170822" lon="11.700725656323213"><ele>687.0</ele><time>2026-04-25T15:48:33.962Z</time></trkpt><trkpt lat="42.75941836744499" lon="11.700834410788847"><ele>687.0</ele><time>2026-04-25T15:48:34.962Z</time></trkpt><trkpt lat="42.75948265819295" lon="11.700901546923543"><ele>687.0</ele><time>2026-04-25T15:48:35.962Z</time></trkpt><trkpt lat="42.75955597917452" lon="11.700938318300901"><ele>687.0</ele><time>2026-04-25T15:48:36.962Z</time></trkpt><trkpt lat="42.75963979550046" lon="11.70093302029931"><ele>687.0</ele><time>2026-04-25T15:48:37.962Z</time></trkpt><trkpt lat="42.75974083962165" lon="11.70090905035163"><ele>687.0</ele><time>2026-04-25T15:48:38.962Z</time></trkpt><trkpt lat="42.759859081668104" lon="11.700855073962062"><ele>687.0</ele><time>2026-04-25T15:48:39.962Z</time></trkpt><trkpt lat="42.75997520158261" lon="11.700801660207114"><ele>687.0</ele><time>2026-04-25T15:48:40.962Z</time></trkpt><trkpt lat="42.76007261589321" lon="11.7007285473676"><ele>687.0</ele><time>2026-04-25T15:48:41.962Z</time></trkpt><trkpt lat="42.76015147573728" lon="11.70062779603828"><ele>687.0</ele><time>2026-04-25T15:48:42.962Z</time></trkpt><trkpt lat="42.76021612192779" lon="11.700512615838907"><ele>687.0</ele><time>2026-04-25T15:48:43.962Z</time></trkpt><trkpt lat="42.76026317871713" lon="11.700373570715318"><ele>687.0</ele><time>2026-04-25T15:48:44.962Z</time></trkpt><trkpt lat="42.76029734009715" lon="11.70021758618891"><ele>689.75</ele><time>2026-04-25T15:48:45.962Z</time></trkpt><trkpt lat="42.76032783035511" lon="11.700044897097083"><ele>692.5</ele><time>2026-04-25T15:48:46.962Z</time></trkpt><trkpt lat="42.760347504572366" lon="11.699866549359971"><ele>695.25</ele><time>2026-04-25T15:48:47.962Z</time></trkpt><trkpt lat="42.760346374194064" lon="11.69970569574744"><ele>698.0</ele><time>2026-04-25T15:48:48.962Z</time></trkpt><trkpt lat="42.7603391688597" lon="11.699557023393174"><ele>698.2</ele><time>2026-04-25T15:48:49.962Z</time></trkpt><trkpt lat="42.76033893627093" lon="11.699410749054696"><ele>698.4</ele><time>2026-04-25T15:48:50.962Z</time></trkpt><trkpt lat="42.76037797726631" lon="11.699301732976235"><ele>698.6</ele><time>2026-04-25T15:48:51.962Z</time></trkpt><trkpt lat="42.76044987406172" lon="11.69922502825295"><ele>698.8000000000001</ele><time>2026-04-25T15:48:52.962Z</time></trkpt><trkpt lat="42.76054539367401" lon="11.699194844895434"><ele>699.0</ele><time>2026-04-25T15:48:53.962Z</time></trkpt><trkpt lat="42.76065053484617" lon="11.699138635628234"><ele>699.0</ele><time>2026-04-25T15:48:54.962Z</time></trkpt><trkpt lat="42.76077452690104" lon="11.699107610874101"><ele>699.0</ele><time>2026-04-25T15:48:55.962Z</time></trkpt><trkpt lat="42.7609164807679" lon="11.699078450830461"><ele>699.0</ele><time>2026-04-25T15:48:56.962Z</time></trkpt><trkpt lat="42.761067230541954" lon="11.699036020809165"><ele>699.0</ele><time>2026-04-25T15:48:57.962Z</time></trkpt><trkpt lat="42.761226249358955" lon="11.698982481782314"><ele>702.3333333333334</ele><time>2026-04-25T15:48:58.962Z</time></trkpt><trkpt lat="42.76139315580374" lon="11.698921593301254"><ele>705.6666666666667</ele><time>2026-04-25T15:48:59.962Z</time></trkpt><trkpt lat="42.76154784665695" lon="11.698868473938115"><ele>709.0</ele><time>2026-04-25T15:49:00.961Z</time></trkpt><trkpt lat="42.76169658027528" lon="11.698847772494082"><ele>709.0</ele><time>2026-04-25T15:49:01.961Z</time></trkpt><trkpt lat="42.76183356768349" lon="11.698810707132687"><ele>709.0</ele><time>2026-04-25T15:49:02.961Z</time></trkpt><trkpt lat="42.76196612827359" lon="11.698780958094993"><ele>709.0</ele><time>2026-04-25T15:49:03.961Z</time></trkpt><trkpt lat="42.76209480383026" lon="11.698742638874803"><ele>709.0</ele><time>2026-04-25T15:49:04.961Z</time></trkpt><trkpt lat="42.76223211481001" lon="11.698742853455002"><ele>710.3333333333334</ele><time>2026-04-25T15:49:05.961Z</time></trkpt><trkpt lat="42.762381403084646" lon="11.698755847983861"><ele>711.6666666666666</ele><time>2026-04-25T15:49:06.961Z</time></trkpt><trkpt lat="42.76253998085336" lon="11.698773365046947"><ele>713.0</ele><time>2026-04-25T15:49:07.961Z</time></trkpt><trkpt lat="42.762696762940394" lon="11.698793450082743"><ele>713.5</ele><time>2026-04-25T15:49:08.961Z</time></trkpt><trkpt lat="42.76284767306581" lon="11.6988160633584"><ele>714.0</ele><time>2026-04-25T15:49:09.961Z</time></trkpt><trkpt lat="42.7629879473469" lon="11.69882978801037"><ele>714.5</ele><time>2026-04-25T15:49:10.961Z</time></trkpt><trkpt lat="42.76312314333992" lon="11.698831157039459"><ele>715.0</ele><time>2026-04-25T15:49:11.961Z</time></trkpt><trkpt lat="42.76326156435744" lon="11.698814491239853"><ele>715.0</ele><time>2026-04-25T15:49:12.961Z</time></trkpt><trkpt lat="42.76340227115758" lon="11.69879877518101"><ele>715.0</ele><time>2026-04-25T15:49:13.961Z</time></trkpt><trkpt lat="42.76353991036421" lon="11.698755380982135"><ele>715.0</ele><time>2026-04-25T15:49:14.961Z</time></trkpt><trkpt lat="42.76367531589401" lon="11.698703919355761"><ele>715.0</ele><time>2026-04-25T15:49:15.961Z</time></trkpt><trkpt lat="42.7638158662837" lon="11.69864880584237"><ele>714.6666666666667</ele><time>2026-04-25T15:49:16.961Z</time></trkpt><trkpt lat="42.76396387502369" lon="11.698591828837971"><ele>714.3333333333334</ele><time>2026-04-25T15:49:17.961Z</time></trkpt><trkpt lat="42.76411980538426" lon="11.698531102034341"><ele>714.0</ele><time>2026-04-25T15:49:18.961Z</time></trkpt><trkpt lat="42.76427605665822" lon="11.698469612901732"><ele>717.0</ele><time>2026-04-25T15:49:19.961Z</time></trkpt><trkpt lat="42.764437504153534" lon="11.698410324640294"><ele>720.0</ele><time>2026-04-25T15:49:20.961Z</time></trkpt><trkpt lat="42.76458590836227" lon="11.698352619128695"><ele>723.0</ele><time>2026-04-25T15:49:21.961Z</time></trkpt><trkpt lat="42.76472397803794" lon="11.69830140214411"><ele>723.0</ele><time>2026-04-25T15:49:22.961Z</time></trkpt><trkpt lat="42.76483816609115" lon="11.69826200490897"><ele>723.0</ele><time>2026-04-25T15:49:23.961Z</time></trkpt><trkpt lat="42.76492612049857" lon="11.698228217755032"><ele>723.0</ele><time>2026-04-25T15:49:24.961Z</time></trkpt><trkpt lat="42.76500006575222" lon="11.69819722536192"><ele>723.0</ele><time>2026-04-25T15:49:25.961Z</time></trkpt><trkpt lat="42.765072471174555" lon="11.698150206255722"><ele>723.0</ele><time>2026-04-25T15:49:27.961Z</time></trkpt><trkpt lat="42.76509983891088" lon="11.698072407496571"><ele>723.0</ele><time>2026-04-25T15:49:29.961Z</time></trkpt><trkpt lat="42.76507985843823" lon="11.697978443501789"><ele>723.0</ele><time>2026-04-25T15:49:30.961Z</time></trkpt><trkpt lat="42.765032152012544" lon="11.697859726922513"><ele>723.0</ele><time>2026-04-25T15:49:31.961Z</time></trkpt><trkpt lat="42.764932802236714" lon="11.697778364666197"><ele>723.0</ele><time>2026-04-25T15:49:32.961Z</time></trkpt><trkpt lat="42.764824074725546" lon="11.697704623261815"><ele>723.0</ele><time>2026-04-25T15:49:33.961Z</time></trkpt><trkpt lat="42.76468900162589" lon="11.697671155891888"><ele>722.25</ele><time>2026-04-25T15:49:34.961Z</time></trkpt><trkpt lat="42.764542050935844" lon="11.697672007907233"><ele>721.5</ele><time>2026-04-25T15:49:35.961Z</time></trkpt><trkpt lat="42.76439588704993" lon="11.697688195122367"><ele>720.75</ele><time>2026-04-25T15:49:36.961Z</time></trkpt><trkpt lat="42.76426040358197" lon="11.697707421868616"><ele>720.0</ele><time>2026-04-25T15:49:37.961Z</time></trkpt><trkpt lat="42.76413467372994" lon="11.69775280900023"><ele>720.0</ele><time>2026-04-25T15:49:38.961Z</time></trkpt><trkpt lat="42.76403045260988" lon="11.697840894854881"><ele>720.0</ele><time>2026-04-25T15:49:39.96Z</time></trkpt><trkpt lat="42.76395159611808" lon="11.697942509298187"><ele>720.0</ele><time>2026-04-25T15:49:40.96Z</time></trkpt><trkpt lat="42.76386858238034" lon="11.698034153149797"><ele>720.0</ele><time>2026-04-25T15:49:41.96Z</time></trkpt><trkpt lat="42.76379056959385" lon="11.6980703485122"><ele>720.0</ele><time>2026-04-25T15:49:42.96Z</time></trkpt><trkpt lat="42.763716054914" lon="11.69806363060705"><ele>720.0</ele><time>2026-04-25T15:49:43.96Z</time></trkpt><trkpt lat="42.76364501092556" lon="11.69799763509734"><ele>720.0</ele><time>2026-04-25T15:49:44.96Z</time></trkpt><trkpt lat="42.76360392300309" lon="11.697899345675086"><ele>720.0</ele><time>2026-04-25T15:49:45.96Z</time></trkpt><trkpt lat="42.76359463032187" lon="11.697788065526073"><ele>720.0</ele><time>2026-04-25T15:49:46.96Z</time></trkpt><trkpt lat="42.763622946283206" lon="11.697689343462878"><ele>720.0</ele><time>2026-04-25T15:49:47.96Z</time></trkpt><trkpt lat="42.763679662032544" lon="11.697607461219249"><ele>720.0</ele><time>2026-04-25T15:49:48.96Z</time></trkpt><trkpt lat="42.76375817275537" lon="11.697534724509417"><ele>723.0</ele><time>2026-04-25T15:49:49.96Z</time></trkpt><trkpt lat="42.76386149910012" lon="11.697459249587666"><ele>726.0</ele><time>2026-04-25T15:49:50.96Z</time></trkpt><trkpt lat="42.76397902737104" lon="11.697367328794574"><ele>729.0</ele><time>2026-04-25T15:49:51.96Z</time></trkpt><trkpt lat="42.76409366876765" lon="11.697266165115359"><ele>732.0</ele><time>2026-04-25T15:49:52.96Z</time></trkpt><trkpt lat="42.76419250027864" lon="11.697188382447266"><ele>732.0</ele><time>2026-04-25T15:49:53.96Z</time></trkpt><trkpt lat="42.76429212329023" lon="11.69712353504372"><ele>732.0</ele><time>2026-04-25T15:49:54.96Z</time></trkpt><trkpt lat="42.7643913329142" lon="11.697061005445246"><ele>732.0</ele><time>2026-04-25T15:49:55.96Z</time></trkpt><trkpt lat="42.764499661065514" lon="11.697036739158385"><ele>732.0</ele><time>2026-04-25T15:49:56.96Z</time></trkpt><trkpt lat="42.764616010991695" lon="11.697045771911402"><ele>732.0</ele><time>2026-04-25T15:49:57.96Z</time></trkpt><trkpt lat="42.76474771989498" lon="11.697064701130127"><ele>732.0</ele><time>2026-04-25T15:49:58.96Z</time></trkpt><trkpt lat="42.76488181840342" lon="11.697055355354475"><ele>732.0</ele><time>2026-04-25T15:49:59.96Z</time></trkpt><trkpt lat="42.765012734903934" lon="11.697033294995746"><ele>732.0</ele><time>2026-04-25T15:50:00.96Z</time></trkpt><trkpt lat="42.76513913792001" lon="11.696985120792167"><ele>732.0</ele><time>2026-04-25T15:50:01.96Z</time></trkpt><trkpt lat="42.76525163410975" lon="11.696913655939742"><ele>736.6</ele><time>2026-04-25T15:50:02.96Z</time></trkpt><trkpt lat="42.765352284974526" lon="11.696835607338198"><ele>741.2</ele><time>2026-04-25T15:50:03.96Z</time></trkpt><trkpt lat="42.7654504275935" lon="11.696779136493568"><ele>745.8</ele><time>2026-04-25T15:50:04.96Z</time></trkpt><trkpt lat="42.76555850553237" lon="11.696744657933365"><ele>750.4</ele><time>2026-04-25T15:50:05.96Z</time></trkpt><trkpt lat="42.7656683938443" lon="11.696753643230696"><ele>755.0</ele><time>2026-04-25T15:50:06.96Z</time></trkpt><trkpt lat="42.76578917416588" lon="11.696802107254577"><ele>755.0</ele><time>2026-04-25T15:50:07.96Z</time></trkpt><trkpt lat="42.76590916418115" lon="11.696860561317958"><ele>755.0</ele><time>2026-04-25T15:50:08.96Z</time></trkpt><trkpt lat="42.76602743610332" lon="11.696908928426257"><ele>755.0</ele><time>2026-04-25T15:50:09.96Z</time></trkpt><trkpt lat="42.76614183686754" lon="11.696968320367727"><ele>755.0</ele><time>2026-04-25T15:50:10.96Z</time></trkpt><trkpt lat="42.7662405509484" lon="11.697052685566874"><ele>756.0</ele><time>2026-04-25T15:50:11.96Z</time></trkpt><trkpt lat="42.76632760919096" lon="11.697163889348538"><ele>757.0</ele><time>2026-04-25T15:50:12.96Z</time></trkpt><trkpt lat="42.76640059999977" lon="11.69729871285303"><ele>758.0</ele><time>2026-04-25T15:50:13.96Z</time></trkpt><trkpt lat="42.76645169131013" lon="11.697443250829823"><ele>759.0</ele><time>2026-04-25T15:50:14.96Z</time></trkpt><trkpt lat="42.766522726529956" lon="11.697565326032837"><ele>759.0</ele><time>2026-04-25T15:50:15.96Z</time></trkpt><trkpt lat="42.76661549382159" lon="11.697664303549628"><ele>759.0</ele><time>2026-04-25T15:50:16.96Z</time></trkpt><trkpt lat="42.76671476223802" lon="11.697750356090472"><ele>759.0</ele><time>2026-04-25T15:50:17.96Z</time></trkpt><trkpt lat="42.766826943101016" lon="11.697806888056808"><ele>759.0</ele><time>2026-04-25T15:50:18.96Z</time></trkpt><trkpt lat="42.766948309512586" lon="11.697837298841309"><ele>759.5</ele><time>2026-04-25T15:50:19.959Z</time></trkpt><trkpt lat="42.76707515961467" lon="11.697822719716436"><ele>760.0</ele><time>2026-04-25T15:50:20.959Z</time></trkpt><trkpt lat="42.7672031785955" lon="11.697843482351425"><ele>760.5</ele><time>2026-04-25T15:50:21.959Z</time></trkpt><trkpt lat="42.76733479600667" lon="11.697843397416127"><ele>761.0</ele><time>2026-04-25T15:50:22.959Z</time></trkpt><trkpt lat="42.767472130905574" lon="11.697856302270656"><ele>761.0</ele><time>2026-04-25T15:50:23.961Z</time></trkpt><trkpt lat="42.76760616697444" lon="11.697887089931095"><ele>761.0</ele><time>2026-04-25T15:50:24.961Z</time></trkpt><trkpt lat="42.767734010108484" lon="11.697941233198616"><ele>761.0</ele><time>2026-04-25T15:50:25.961Z</time></trkpt><trkpt lat="42.76784043688918" lon="11.698034291013228"><ele>761.0</ele><time>2026-04-25T15:50:26.961Z</time></trkpt><trkpt lat="42.76794412402367" lon="11.698134709918447"><ele>763.5</ele><time>2026-04-25T15:50:27.961Z</time></trkpt><trkpt lat="42.76805114766657" lon="11.698237950066883"><ele>766.0</ele><time>2026-04-25T15:50:28.961Z</time></trkpt><trkpt lat="42.76814553899672" lon="11.698370755937349"><ele>768.5</ele><time>2026-04-25T15:50:29.961Z</time></trkpt><trkpt lat="42.76824878667065" lon="11.698503044909469"><ele>771.0</ele><time>2026-04-25T15:50:30.961Z</time></trkpt><trkpt lat="42.76835334507035" lon="11.698628256472887"><ele>771.0</ele><time>2026-04-25T15:50:31.961Z</time></trkpt><trkpt lat="42.76845511246556" lon="11.698749321937106"><ele>771.0</ele><time>2026-04-25T15:50:32.961Z</time></trkpt><trkpt lat="42.76854068590139" lon="11.69887539014931"><ele>771.0</ele><time>2026-04-25T15:50:33.961Z</time></trkpt><trkpt lat="42.76862351692598" lon="11.698997883946776"><ele>771.0</ele><time>2026-04-25T15:50:34.961Z</time></trkpt><trkpt lat="42.7686953145464" lon="11.69913019071975"><ele>771.8</ele><time>2026-04-25T15:50:35.961Z</time></trkpt><trkpt lat="42.768753099160726" lon="11.699283270666339"><ele>772.5999999999999</ele><time>2026-04-25T15:50:36.961Z</time></trkpt><trkpt lat="42.76880363178077" lon="11.699426609062428"><ele>773.4</ele><time>2026-04-25T15:50:37.961Z</time></trkpt><trkpt lat="42.76884412560848" lon="11.699555261027584"><ele>774.2</ele><time>2026-04-25T15:50:38.961Z</time></trkpt><trkpt lat="42.768892191996315" lon="11.699665913627362"><ele>775.0</ele><time>2026-04-25T15:50:39.961Z</time></trkpt><trkpt lat="42.76893532129562" lon="11.699764658178"><ele>774.9999999999999</ele><time>2026-04-25T15:50:40.961Z</time></trkpt><trkpt lat="42.76901081503165" lon="11.699829825067638"><ele>775.0</ele><time>2026-04-25T15:50:41.961Z</time></trkpt><trkpt lat="42.769089606510995" lon="11.699843800089884"><ele>775.0</ele><time>2026-04-25T15:50:42.961Z</time></trkpt><trkpt lat="42.769145775333776" lon="11.699791088922675"><ele>775.0</ele><time>2026-04-25T15:50:43.961Z</time></trkpt><trkpt lat="42.76918991494084" lon="11.699718916820515"><ele>774.9999999999999</ele><time>2026-04-25T15:50:44.961Z</time></trkpt><trkpt lat="42.76921976662924" lon="11.699628617876877"><ele>775.0</ele><time>2026-04-25T15:50:45.961Z</time></trkpt><trkpt lat="42.769248940020546" lon="11.699498163314239"><ele>775.0</ele><time>2026-04-25T15:50:47.961Z</time></trkpt><trkpt lat="42.76915607850761" lon="11.699467907433956"><ele>775.0</ele><time>2026-04-25T15:50:56.961Z</time></trkpt><trkpt lat="42.76907054316723" lon="11.69927611233906"><ele>775.0</ele><time>2026-04-25T15:51:00.96Z</time></trkpt><trkpt lat="42.76908626389803" lon="11.699120652511938"><ele>775.0</ele><time>2026-04-25T15:51:02.96Z</time></trkpt><trkpt lat="42.7690759421745" lon="11.69902035415432"><ele>777.6666666666666</ele><time>2026-04-25T15:51:03.96Z</time></trkpt><trkpt lat="42.76908823021781" lon="11.698910373747577"><ele>780.3333333333333</ele><time>2026-04-25T15:51:04.96Z</time></trkpt><trkpt lat="42.76909470653072" lon="11.698784327738064"><ele>783.0</ele><time>2026-04-25T15:51:05.96Z</time></trkpt><trkpt lat="42.76910432230668" lon="11.698653175283889"><ele>785.6666666666667</ele><time>2026-04-25T15:51:06.96Z</time></trkpt><trkpt lat="42.7691201649499" lon="11.698530431495653"><ele>788.3333333333334</ele><time>2026-04-25T15:51:07.96Z</time></trkpt><trkpt lat="42.76914017584809" lon="11.698421473803927"><ele>791.0</ele><time>2026-04-25T15:51:08.96Z</time></trkpt><trkpt lat="42.76915850359306" lon="11.698333165244636"><ele>793.3333333333334</ele><time>2026-04-25T15:51:09.96Z</time></trkpt><trkpt lat="42.769204426563824" lon="11.698204842765183"><ele>795.6666666666667</ele><time>2026-04-25T15:51:11.96Z</time></trkpt><trkpt lat="42.76927642873222" lon="11.698107307795963"><ele>798.0</ele><time>2026-04-25T15:51:13.96Z</time></trkpt><trkpt lat="42.769334667234965" lon="11.698058393746969"><ele>800.3333333333333</ele><time>2026-04-25T15:51:14.96Z</time></trkpt><trkpt lat="42.7693953699104" lon="11.697999270216625"><ele>802.6666666666666</ele><time>2026-04-25T15:51:15.96Z</time></trkpt><trkpt lat="42.76946710918434" lon="11.697968814967837"><ele>805.0</ele><time>2026-04-25T15:51:16.96Z</time></trkpt><trkpt lat="42.76953347701095" lon="11.697920472088445"><ele>807.4</ele><time>2026-04-25T15:51:17.96Z</time></trkpt><trkpt lat="42.769595289153784" lon="11.697875447541485"><ele>809.8</ele><time>2026-04-25T15:51:18.96Z</time></trkpt><trkpt lat="42.769719712507076" lon="11.697827043187088"><ele>812.2</ele><time>2026-04-25T15:51:20.96Z</time></trkpt><trkpt lat="42.769790053098696" lon="11.697820249705954"><ele>814.6</ele><time>2026-04-25T15:51:21.96Z</time></trkpt><trkpt lat="42.76989796475319" lon="11.697804502663166"><ele>817.0</ele><time>2026-04-25T15:51:23.96Z</time></trkpt><trkpt lat="42.77001143155213" lon="11.697841625467538"><ele>817.0</ele><time>2026-04-25T15:51:25.96Z</time></trkpt><trkpt lat="42.7701122077486" lon="11.697913300541098"><ele>817.0</ele><time>2026-04-25T15:51:27.96Z</time></trkpt><trkpt lat="42.770191126108514" lon="11.697921124062608"><ele>817.0</ele><time>2026-04-25T15:51:29.96Z</time></trkpt><trkpt lat="42.77025581626963" lon="11.697820072182642"><ele>817.0</ele><time>2026-04-25T15:51:31.96Z</time></trkpt><trkpt lat="42.770201655578965" lon="11.697677387172623"><ele>817.0</ele><time>2026-04-25T15:51:33.96Z</time></trkpt><trkpt lat="42.77017504010482" lon="11.697578933770545"><ele>818.1666666666666</ele><time>2026-04-25T15:51:35.96Z</time></trkpt><trkpt lat="42.770244451489404" lon="11.69749640151326"><ele>819.3333333333333</ele><time>2026-04-25T15:51:37.96Z</time></trkpt><trkpt lat="42.77026518819033" lon="11.697409584511634"><ele>820.5</ele><time>2026-04-25T15:51:38.96Z</time></trkpt><trkpt lat="42.770276070832985" lon="11.697296438371138"><ele>821.6666666666667</ele><time>2026-04-25T15:51:39.959Z</time></trkpt><trkpt lat="42.77029865127537" lon="11.6971952995036"><ele>822.8333333333334</ele><time>2026-04-25T15:51:40.959Z</time></trkpt><trkpt lat="42.77033418407862" lon="11.697077256713381"><ele>824.0</ele><time>2026-04-25T15:51:42.959Z</time></trkpt><trkpt lat="42.77038084294099" lon="11.696950884506775"><ele>826.0</ele><time>2026-04-25T15:51:44.959Z</time></trkpt><trkpt lat="42.77032643626436" lon="11.696840851231595"><ele>828.0</ele><time>2026-04-25T15:51:45.959Z</time></trkpt><trkpt lat="42.770293637437895" lon="11.696739269511912"><ele>830.0</ele><time>2026-04-25T15:51:46.958Z</time></trkpt><trkpt lat="42.770262236442925" lon="11.696630088770766"><ele>832.0</ele><time>2026-04-25T15:51:47.957Z</time></trkpt><trkpt lat="42.77023049232574" lon="11.69650580563911"><ele>834.0</ele><time>2026-04-25T15:51:48.956Z</time></trkpt><trkpt lat="42.77021054240834" lon="11.696346843126637"><ele>833.4000000000001</ele><time>2026-04-25T15:51:49.955Z</time></trkpt><trkpt lat="42.77017113164417" lon="11.696212380179547"><ele>832.8</ele><time>2026-04-25T15:51:50.955Z</time></trkpt><trkpt lat="42.7701136110957" lon="11.696079297409922"><ele>832.2</ele><time>2026-04-25T15:51:51.954Z</time></trkpt><trkpt lat="42.77004944269768" lon="11.695949351821941"><ele>831.5999999999999</ele><time>2026-04-25T15:51:52.953Z</time></trkpt><trkpt lat="42.76999078793433" lon="11.695820915685804"><ele>831.0</ele><time>2026-04-25T15:51:53.953Z</time></trkpt><trkpt lat="42.76993800289145" lon="11.695689706481692"><ele>833.5999999999999</ele><time>2026-04-25T15:51:54.952Z</time></trkpt><trkpt lat="42.76989701454701" lon="11.695559027615197"><ele>836.2</ele><time>2026-04-25T15:51:55.951Z</time></trkpt><trkpt lat="42.76987485240468" lon="11.695426930647166"><ele>838.8</ele><time>2026-04-25T15:51:56.951Z</time></trkpt><trkpt lat="42.76984300571726" lon="11.695315309530887"><ele>841.4000000000001</ele><time>2026-04-25T15:51:57.95Z</time></trkpt><trkpt lat="42.769816145869264" lon="11.695225577772673"><ele>844.0</ele><time>2026-04-25T15:51:58.95Z</time></trkpt><trkpt lat="42.769776068167616" lon="11.695086755085367"><ele>848.0</ele><time>2026-04-25T15:52:00.949Z</time></trkpt><trkpt lat="42.76972851761976" lon="11.694949440323288"><ele>852.0</ele><time>2026-04-25T15:52:02.948Z</time></trkpt><trkpt lat="42.76969227708439" lon="11.69487424508532"><ele>856.0000000000001</ele><time>2026-04-25T15:52:03.948Z</time></trkpt><trkpt lat="42.769652014034506" lon="11.694784544223406"><ele>860.0</ele><time>2026-04-25T15:52:04.948Z</time></trkpt><trkpt lat="42.769592294320255" lon="11.694683682784248"><ele>864.0</ele><time>2026-04-25T15:52:05.947Z</time></trkpt><trkpt lat="42.7695191108198" lon="11.694579265388434"><ele>864.0</ele><time>2026-04-25T15:52:06.947Z</time></trkpt><trkpt lat="42.769430117161356" lon="11.69449258935449"><ele>864.0000000000001</ele><time>2026-04-25T15:52:07.947Z</time></trkpt><trkpt lat="42.769337211709704" lon="11.694409922533461"><ele>864.0000000000001</ele><time>2026-04-25T15:52:08.946Z</time></trkpt><trkpt lat="42.769241803940425" lon="11.694319951849586"><ele>864.0</ele><time>2026-04-25T15:52:09.946Z</time></trkpt><trkpt lat="42.76916318610574" lon="11.694232343087442"><ele>864.0</ele><time>2026-04-25T15:52:10.946Z</time></trkpt><trkpt lat="42.76910750483897" lon="11.69414451552337"><ele>864.0</ele><time>2026-04-25T15:52:11.946Z</time></trkpt><trkpt lat="42.76907184842421" lon="11.694046197262004"><ele>864.0</ele><time>2026-04-25T15:52:12.946Z</time></trkpt><trkpt lat="42.76905624103675" lon="11.693944946725022"><ele>864.0</ele><time>2026-04-25T15:52:13.945Z</time></trkpt><trkpt lat="42.76906264093455" lon="11.693839623219594"><ele>864.0</ele><time>2026-04-25T15:52:14.945Z</time></trkpt><trkpt lat="42.76909058031093" lon="11.693724384845817"><ele>864.0</ele><time>2026-04-25T15:52:15.945Z</time></trkpt><trkpt lat="42.769118689773656" lon="11.693599137158142"><ele>864.0</ele><time>2026-04-25T15:52:16.945Z</time></trkpt><trkpt lat="42.76914172513313" lon="11.693456614945235"><ele>866.2</ele><time>2026-04-25T15:52:17.945Z</time></trkpt><trkpt lat="42.76915338291049" lon="11.693305133711803"><ele>868.4000000000001</ele><time>2026-04-25T15:52:18.944Z</time></trkpt><trkpt lat="42.769159821608866" lon="11.693147158493503"><ele>870.6</ele><time>2026-04-25T15:52:19.944Z</time></trkpt><trkpt lat="42.7691649264775" lon="11.692999847174296"><ele>872.8</ele><time>2026-04-25T15:52:20.944Z</time></trkpt><trkpt lat="42.769160108479475" lon="11.692851636493423"><ele>875.0</ele><time>2026-04-25T15:52:21.944Z</time></trkpt><trkpt lat="42.76915093529607" lon="11.692709030623568"><ele>877.1666666666667</ele><time>2026-04-25T15:52:22.944Z</time></trkpt><trkpt lat="42.76915057555419" lon="11.692575779640542"><ele>879.3333333333334</ele><time>2026-04-25T15:52:23.944Z</time></trkpt><trkpt lat="42.769147026014565" lon="11.692448853037433"><ele>881.5</ele><time>2026-04-25T15:52:24.944Z</time></trkpt><trkpt lat="42.769148801932225" lon="11.692344170510593"><ele>883.6666666666667</ele><time>2026-04-25T15:52:25.944Z</time></trkpt><trkpt lat="42.76913487875151" lon="11.692192553545858"><ele>885.8333333333334</ele><time>2026-04-25T15:52:27.943Z</time></trkpt><trkpt lat="42.76912304640798" lon="11.692102422109267"><ele>888.0</ele><time>2026-04-25T15:52:28.943Z</time></trkpt><trkpt lat="42.76910435962738" lon="11.692005397121372"><ele>890.2</ele><time>2026-04-25T15:52:29.945Z</time></trkpt><trkpt lat="42.76907802849869" lon="11.6918924757146"><ele>892.4</ele><time>2026-04-25T15:52:30.945Z</time></trkpt><trkpt lat="42.76903332446209" lon="11.691779044389152"><ele>894.6000000000001</ele><time>2026-04-25T15:52:31.945Z</time></trkpt><trkpt lat="42.76898146154748" lon="11.691648736140515"><ele>896.8000000000001</ele><time>2026-04-25T15:52:32.945Z</time></trkpt><trkpt lat="42.76893969542105" lon="11.691503671640593"><ele>899.0</ele><time>2026-04-25T15:52:33.945Z</time></trkpt><trkpt lat="42.76889981377718" lon="11.691346221602304"><ele>899.0</ele><time>2026-04-25T15:52:34.945Z</time></trkpt><trkpt lat="42.76885656621933" lon="11.69120213220277"><ele>899.0000000000001</ele><time>2026-04-25T15:52:35.945Z</time></trkpt><trkpt lat="42.768811353841" lon="11.691075795390006"><ele>899.0000000000001</ele><time>2026-04-25T15:52:36.945Z</time></trkpt><trkpt lat="42.768782946389784" lon="11.69096342226842"><ele>899.0</ele><time>2026-04-25T15:52:37.945Z</time></trkpt><trkpt lat="42.76876902150005" lon="11.690847587617064"><ele>899.0</ele><time>2026-04-25T15:52:38.945Z</time></trkpt><trkpt lat="42.76876846305648" lon="11.690719957819002"><ele>902.0</ele><time>2026-04-25T15:52:39.945Z</time></trkpt><trkpt lat="42.76876891422893" lon="11.690577360978443"><ele>905.0</ele><time>2026-04-25T15:52:40.945Z</time></trkpt><trkpt lat="42.76876804655498" lon="11.690424223114329"><ele>908.0</ele><time>2026-04-25T15:52:41.945Z</time></trkpt><trkpt lat="42.768763063709315" lon="11.690265063788726"><ele>911.0</ele><time>2026-04-25T15:52:42.945Z</time></trkpt><trkpt lat="42.76875409181136" lon="11.690106494284327"><ele>911.25</ele><time>2026-04-25T15:52:43.945Z</time></trkpt><trkpt lat="42.76874480757677" lon="11.689956271221744"><ele>911.5</ele><time>2026-04-25T15:52:44.945Z</time></trkpt><trkpt lat="42.76873451976983" lon="11.689799887315703"><ele>911.75</ele><time>2026-04-25T15:52:45.945Z</time></trkpt><trkpt lat="42.768731484483645" lon="11.689644514908407"><ele>912.0</ele><time>2026-04-25T15:52:46.945Z</time></trkpt><trkpt lat="42.76873082828016" lon="11.689494369304269"><ele>912.5</ele><time>2026-04-25T15:52:47.945Z</time></trkpt><trkpt lat="42.76875311361489" lon="11.689358714781372"><ele>913.0</ele><time>2026-04-25T15:52:48.945Z</time></trkpt><trkpt lat="42.768749038732544" lon="11.689249597576982"><ele>913.5</ele><time>2026-04-25T15:52:49.945Z</time></trkpt><trkpt lat="42.768746501741994" lon="11.689162980896029"><ele>914.0</ele><time>2026-04-25T15:52:50.945Z</time></trkpt><trkpt lat="42.76872667749541" lon="11.689080278037018"><ele>914.5</ele><time>2026-04-25T15:52:51.945Z</time></trkpt><trkpt lat="42.76868849968198" lon="11.688992341103502"><ele>915.0</ele><time>2026-04-25T15:52:52.945Z</time></trkpt><trkpt lat="42.76863686039988" lon="11.68889973335233"><ele>915.0</ele><time>2026-04-25T15:52:53.944Z</time></trkpt><trkpt lat="42.76856761108545" lon="11.688802297708044"><ele>915.0</ele><time>2026-04-25T15:52:54.944Z</time></trkpt><trkpt lat="42.7684897216636" lon="11.688708649584857"><ele>915.0</ele><time>2026-04-25T15:52:55.944Z</time></trkpt><trkpt lat="42.76842502740866" lon="11.6885975428844"><ele>915.0</ele><time>2026-04-25T15:52:56.944Z</time></trkpt><trkpt lat="42.76836921694595" lon="11.688472478623876"><ele>915.0</ele><time>2026-04-25T15:52:57.944Z</time></trkpt><trkpt lat="42.768343671886754" lon="11.688315537308121"><ele>914.8</ele><time>2026-04-25T15:52:58.944Z</time></trkpt><trkpt lat="42.76831340232496" lon="11.68816916284129"><ele>914.6</ele><time>2026-04-25T15:52:59.944Z</time></trkpt><trkpt lat="42.768263560532816" lon="11.688041574446602"><ele>914.4000000000001</ele><time>2026-04-25T15:53:00.944Z</time></trkpt><trkpt lat="42.76823255644778" lon="11.68791881863825"><ele>914.2</ele><time>2026-04-25T15:53:01.944Z</time></trkpt><trkpt lat="42.76816708808368" lon="11.687813600776016"><ele>914.0</ele><time>2026-04-25T15:53:02.944Z</time></trkpt><trkpt lat="42.768080915272016" lon="11.687683580919597"><ele>914.0</ele><time>2026-04-25T15:53:03.944Z</time></trkpt><trkpt lat="42.76799541446674" lon="11.687555795184618"><ele>914.0</ele><time>2026-04-25T15:53:04.944Z</time></trkpt><trkpt lat="42.76791319066033" lon="11.687433060665239"><ele>914.0</ele><time>2026-04-25T15:53:05.944Z</time></trkpt><trkpt lat="42.767832951210245" lon="11.687313288064733"><ele>914.0</ele><time>2026-04-25T15:53:06.944Z</time></trkpt><trkpt lat="42.7677449835026" lon="11.687194133211035"><ele>911.5</ele><time>2026-04-25T15:53:07.944Z</time></trkpt><trkpt lat="42.76765409170228" lon="11.687085623960899"><ele>909.0</ele><time>2026-04-25T15:53:08.944Z</time></trkpt><trkpt lat="42.76755596986917" lon="11.68698717735248"><ele>906.5</ele><time>2026-04-25T15:53:09.944Z</time></trkpt><trkpt lat="42.76745201061741" lon="11.686908231966836"><ele>904.0</ele><time>2026-04-25T15:53:10.944Z</time></trkpt><trkpt lat="42.7673399160979" lon="11.686847624946731"><ele>904.0</ele><time>2026-04-25T15:53:11.944Z</time></trkpt><trkpt lat="42.767245603495304" lon="11.686735436553823"><ele>904.0</ele><time>2026-04-25T15:53:12.944Z</time></trkpt><trkpt lat="42.767138629480506" lon="11.686637444693673"><ele>904.0</ele><time>2026-04-25T15:53:13.944Z</time></trkpt><trkpt lat="42.76703497130446" lon="11.686520313280365"><ele>904.0</ele><time>2026-04-25T15:53:14.944Z</time></trkpt><trkpt lat="42.76693571642928" lon="11.68641648253276"><ele>902.5</ele><time>2026-04-25T15:53:15.944Z</time></trkpt><trkpt lat="42.76684789233472" lon="11.68630894585962"><ele>901.0</ele><time>2026-04-25T15:53:16.944Z</time></trkpt><trkpt lat="42.766776923377115" lon="11.686193397083308"><ele>899.5</ele><time>2026-04-25T15:53:17.944Z</time></trkpt><trkpt lat="42.76672366125126" lon="11.686061985838663"><ele>898.0</ele><time>2026-04-25T15:53:18.944Z</time></trkpt><trkpt lat="42.766688202582344" lon="11.685917187095988"><ele>898.0</ele><time>2026-04-25T15:53:19.944Z</time></trkpt><trkpt lat="42.76669153934663" lon="11.685761196248494"><ele>898.0</ele><time>2026-04-25T15:53:20.944Z</time></trkpt><trkpt lat="42.76669514611168" lon="11.685624505713465"><ele>898.0</ele><time>2026-04-25T15:53:21.944Z</time></trkpt><trkpt lat="42.766688227097816" lon="11.685485550067993"><ele>898.0</ele><time>2026-04-25T15:53:22.943Z</time></trkpt><trkpt lat="42.76664306092746" lon="11.685351745891808"><ele>898.0</ele><time>2026-04-25T15:53:23.943Z</time></trkpt><trkpt lat="42.76660993641917" lon="11.685206676492205"><ele>900.25</ele><time>2026-04-25T15:53:24.943Z</time></trkpt><trkpt lat="42.76656903871397" lon="11.68505063426724"><ele>902.5</ele><time>2026-04-25T15:53:25.943Z</time></trkpt><trkpt lat="42.76653200059998" lon="11.684901289352625"><ele>904.75</ele><time>2026-04-25T15:53:26.943Z</time></trkpt><trkpt lat="42.76650438652027" lon="11.684758026903701"><ele>907.0</ele><time>2026-04-25T15:53:27.943Z</time></trkpt><trkpt lat="42.7664755554431" lon="11.684622581807382"><ele>907.0</ele><time>2026-04-25T15:53:28.943Z</time></trkpt><trkpt lat="42.766451594638625" lon="11.68449207916009"><ele>907.0</ele><time>2026-04-25T15:53:29.943Z</time></trkpt><trkpt lat="42.76644391255598" lon="11.684363966700122"><ele>907.0</ele><time>2026-04-25T15:53:30.943Z</time></trkpt><trkpt lat="42.76647550366677" lon="11.684253434418396"><ele>907.0</ele><time>2026-04-25T15:53:31.943Z</time></trkpt><trkpt lat="42.76651399288274" lon="11.684145550395275"><ele>907.0</ele><time>2026-04-25T15:53:32.943Z</time></trkpt><trkpt lat="42.7665592234412" lon="11.684031569241537"><ele>907.3333333333333</ele><time>2026-04-25T15:53:33.943Z</time></trkpt><trkpt lat="42.76661089638568" lon="11.68391286966938"><ele>907.6666666666666</ele><time>2026-04-25T15:53:34.943Z</time></trkpt><trkpt lat="42.766662942676994" lon="11.683797944269676"><ele>908.0</ele><time>2026-04-25T15:53:35.943Z</time></trkpt><trkpt lat="42.76669075163093" lon="11.683687835522353"><ele>908.3333333333333</ele><time>2026-04-25T15:53:36.943Z</time></trkpt><trkpt lat="42.76671088213208" lon="11.683600069128387"><ele>908.6666666666666</ele><time>2026-04-25T15:53:37.943Z</time></trkpt><trkpt lat="42.766702694112844" lon="11.683498665483198"><ele>909.0</ele><time>2026-04-25T15:53:38.943Z</time></trkpt><trkpt lat="42.76665224281952" lon="11.683438256312796"><ele>910.6</ele><time>2026-04-25T15:53:39.943Z</time></trkpt><trkpt lat="42.766542578840024" lon="11.683347800206175"><ele>912.2</ele><time>2026-04-25T15:53:41.943Z</time></trkpt><trkpt lat="42.76646497428963" lon="11.683296659356312"><ele>913.8000000000001</ele><time>2026-04-25T15:53:42.943Z</time></trkpt><trkpt lat="42.76637374353339" lon="11.68322641536471"><ele>915.4000000000001</ele><time>2026-04-25T15:53:43.943Z</time></trkpt><trkpt lat="42.766279594712294" lon="11.683145972697618"><ele>917.0</ele><time>2026-04-25T15:53:44.943Z</time></trkpt><trkpt lat="42.766177232709445" lon="11.683054075636761"><ele>917.0</ele><time>2026-04-25T15:53:45.943Z</time></trkpt><trkpt lat="42.76607434970832" lon="11.682949254137847"><ele>917.0</ele><time>2026-04-25T15:53:46.943Z</time></trkpt><trkpt lat="42.76596740801475" lon="11.682835971204716"><ele>917.0</ele><time>2026-04-25T15:53:47.943Z</time></trkpt><trkpt lat="42.76586206020894" lon="11.682708936540859"><ele>917.0</ele><time>2026-04-25T15:53:48.943Z</time></trkpt><trkpt lat="42.76578055346619" lon="11.68260258301713"><ele>917.4000000000001</ele><time>2026-04-25T15:53:49.943Z</time></trkpt><trkpt lat="42.76571464184417" lon="11.682491435372896"><ele>917.8000000000001</ele><time>2026-04-25T15:53:50.943Z</time></trkpt><trkpt lat="42.76566991102658" lon="11.682372705015794"><ele>918.2</ele><time>2026-04-25T15:53:51.943Z</time></trkpt><trkpt lat="42.76565159430218" lon="11.682254847910265"><ele>918.6</ele><time>2026-04-25T15:53:52.943Z</time></trkpt><trkpt lat="42.76566449279714" lon="11.682126414413842"><ele>919.0</ele><time>2026-04-25T15:53:53.943Z</time></trkpt><trkpt lat="42.76567328924881" lon="11.681984625688697"><ele>920.0</ele><time>2026-04-25T15:53:54.943Z</time></trkpt><trkpt lat="42.76565008021877" lon="11.681846054021383"><ele>921.0000000000001</ele><time>2026-04-25T15:53:55.942Z</time></trkpt><trkpt lat="42.76560170215419" lon="11.68172174020899"><ele>922.0000000000001</ele><time>2026-04-25T15:53:56.942Z</time></trkpt><trkpt lat="42.76554724431353" lon="11.681604570736093"><ele>923.0</ele><time>2026-04-25T15:53:57.942Z</time></trkpt><trkpt lat="42.7654961277544" lon="11.681498209124303"><ele>924.0</ele><time>2026-04-25T15:53:58.942Z</time></trkpt><trkpt lat="42.76548131995013" lon="11.681378306295894"><ele>924.0</ele><time>2026-04-25T15:53:59.942Z</time></trkpt><trkpt lat="42.76546793972044" lon="11.68123913510041"><ele>924.0000000000001</ele><time>2026-04-25T15:54:00.942Z</time></trkpt><trkpt lat="42.76545280419772" lon="11.68108737091609"><ele>924.0000000000001</ele><time>2026-04-25T15:54:01.942Z</time></trkpt><trkpt lat="42.76544499698418" lon="11.680931044602831"><ele>924.0</ele><time>2026-04-25T15:54:02.942Z</time></trkpt><trkpt lat="42.76543061019872" lon="11.680770577965113"><ele>924.0</ele><time>2026-04-25T15:54:03.942Z</time></trkpt><trkpt lat="42.7654095547017" lon="11.680614419500799"><ele>926.0</ele><time>2026-04-25T15:54:04.942Z</time></trkpt><trkpt lat="42.765383784179605" lon="11.680458263217062"><ele>928.0</ele><time>2026-04-25T15:54:05.942Z</time></trkpt><trkpt lat="42.7653515067476" lon="11.680312569106217"><ele>930.0</ele><time>2026-04-25T15:54:06.942Z</time></trkpt><trkpt lat="42.76532338381004" lon="11.680164381564614"><ele>932.0</ele><time>2026-04-25T15:54:07.942Z</time></trkpt><trkpt lat="42.76530902601716" lon="11.680016991732268"><ele>932.1666666666667</ele><time>2026-04-25T15:54:08.942Z</time></trkpt><trkpt lat="42.76529877604917" lon="11.679877259749485"><ele>932.3333333333334</ele><time>2026-04-25T15:54:09.942Z</time></trkpt><trkpt lat="42.76528675610002" lon="11.679771134798337"><ele>932.5</ele><time>2026-04-25T15:54:10.942Z</time></trkpt><trkpt lat="42.765265281791955" lon="11.679675664593763"><ele>932.6666666666667</ele><time>2026-04-25T15:54:11.942Z</time></trkpt><trkpt lat="42.7652317958618" lon="11.679584243269403"><ele>932.8333333333334</ele><time>2026-04-25T15:54:12.942Z</time></trkpt><trkpt lat="42.76517731864164" lon="11.679492451904713"><ele>933.0</ele><time>2026-04-25T15:54:13.942Z</time></trkpt><trkpt lat="42.76511748966104" lon="11.67938893091108"><ele>933.0</ele><time>2026-04-25T15:54:14.942Z</time></trkpt><trkpt lat="42.765057993352144" lon="11.679278323871076"><ele>933.0</ele><time>2026-04-25T15:54:15.942Z</time></trkpt><trkpt lat="42.764999952762594" lon="11.679160338455954"><ele>933.0</ele><time>2026-04-25T15:54:16.942Z</time></trkpt><trkpt lat="42.76494066007509" lon="11.679040011372942"><ele>933.0</ele><time>2026-04-25T15:54:17.942Z</time></trkpt><trkpt lat="42.7648742332162" lon="11.678925465055864"><ele>933.0</ele><time>2026-04-25T15:54:18.942Z</time></trkpt><trkpt lat="42.76480537994927" lon="11.678810046100853"><ele>933.0</ele><time>2026-04-25T15:54:19.942Z</time></trkpt><trkpt lat="42.76474125498106" lon="11.678686273911689"><ele>933.0</ele><time>2026-04-25T15:54:20.942Z</time></trkpt><trkpt lat="42.76467999114486" lon="11.678564509869277"><ele>933.0</ele><time>2026-04-25T15:54:21.942Z</time></trkpt><trkpt lat="42.764623194644095" lon="11.678444968778281"><ele>933.0</ele><time>2026-04-25T15:54:22.942Z</time></trkpt><trkpt lat="42.76456062627484" lon="11.678337366691755"><ele>933.0</ele><time>2026-04-25T15:54:23.942Z</time></trkpt><trkpt lat="42.764500204174986" lon="11.67823843092553"><ele>932.2</ele><time>2026-04-25T15:54:24.942Z</time></trkpt><trkpt lat="42.764438556883995" lon="11.678134748862927"><ele>931.4</ele><time>2026-04-25T15:54:25.942Z</time></trkpt><trkpt lat="42.764374099924666" lon="11.678031251875208"><ele>930.6000000000001</ele><time>2026-04-25T15:54:26.942Z</time></trkpt><trkpt lat="42.76430923295417" lon="11.677927440098228"><ele>929.8000000000001</ele><time>2026-04-25T15:54:27.942Z</time></trkpt><trkpt lat="42.76426258962579" lon="11.677811551363055"><ele>929.0</ele><time>2026-04-25T15:54:28.941Z</time></trkpt><trkpt lat="42.764224556687104" lon="11.677682329415598"><ele>931.75</ele><time>2026-04-25T15:54:29.941Z</time></trkpt><trkpt lat="42.76419512693888" lon="11.677539930710527"><ele>934.5</ele><time>2026-04-25T15:54:30.941Z</time></trkpt><trkpt lat="42.764175814091566" lon="11.677382450907553"><ele>937.25</ele><time>2026-04-25T15:54:31.941Z</time></trkpt><trkpt lat="42.76415869166394" lon="11.677217452429616"><ele>940.0</ele><time>2026-04-25T15:54:32.941Z</time></trkpt><trkpt lat="42.76413071223775" lon="11.677071272864293"><ele>940.0</ele><time>2026-04-25T15:54:33.941Z</time></trkpt><trkpt lat="42.764094329609634" lon="11.676949233627806"><ele>940.0</ele><time>2026-04-25T15:54:34.941Z</time></trkpt><trkpt lat="42.764043468931334" lon="11.676827696223251"><ele>940.0</ele><time>2026-04-25T15:54:35.943Z</time></trkpt><trkpt lat="42.763980903308386" lon="11.676710856769104"><ele>940.0</ele><time>2026-04-25T15:54:36.943Z</time></trkpt><trkpt lat="42.76391832576748" lon="11.676597007872994"><ele>940.0</ele><time>2026-04-25T15:54:37.943Z</time></trkpt><trkpt lat="42.763849217303395" lon="11.676500993830624"><ele>941.8</ele><time>2026-04-25T15:54:38.943Z</time></trkpt><trkpt lat="42.763786897896246" lon="11.676396704024816"><ele>943.6</ele><time>2026-04-25T15:54:39.943Z</time></trkpt><trkpt lat="42.763709609949736" lon="11.676318087233886"><ele>945.4000000000001</ele><time>2026-04-25T15:54:40.943Z</time></trkpt><trkpt lat="42.76361579474922" lon="11.676276917040472"><ele>947.2</ele><time>2026-04-25T15:54:41.943Z</time></trkpt><trkpt lat="42.76352037469469" lon="11.676263860984793"><ele>949.0</ele><time>2026-04-25T15:54:42.943Z</time></trkpt><trkpt lat="42.76342100163857" lon="11.676258916192062"><ele>947.2</ele><time>2026-04-25T15:54:43.943Z</time></trkpt><trkpt lat="42.76332965697415" lon="11.676238334428445"><ele>945.4000000000001</ele><time>2026-04-25T15:54:44.943Z</time></trkpt><trkpt lat="42.763236779934005" lon="11.676206369439024"><ele>943.6</ele><time>2026-04-25T15:54:45.943Z</time></trkpt><trkpt lat="42.7631319493315" lon="11.676161827417012"><ele>941.8</ele><time>2026-04-25T15:54:46.943Z</time></trkpt><trkpt lat="42.76302271931997" lon="11.676103581854042"><ele>940.0</ele><time>2026-04-25T15:54:47.942Z</time></trkpt><trkpt lat="42.7629258432457" lon="11.676038536484544"><ele>939.9999999999999</ele><time>2026-04-25T15:54:48.943Z</time></trkpt><trkpt lat="42.762846711981965" lon="11.675978195774524"><ele>940.0</ele><time>2026-04-25T15:54:49.943Z</time></trkpt><trkpt lat="42.76278548379107" lon="11.675917115655489"><ele>940.0</ele><time>2026-04-25T15:54:50.943Z</time></trkpt><trkpt lat="42.76274829288889" lon="11.675847030026071"><ele>940.0</ele><time>2026-04-25T15:54:51.943Z</time></trkpt><trkpt lat="42.76272877770226" lon="11.675762620604168"><ele>939.9999999999999</ele><time>2026-04-25T15:54:52.943Z</time></trkpt><trkpt lat="42.762727324896616" lon="11.675667019944926"><ele>940.0</ele><time>2026-04-25T15:54:53.943Z</time></trkpt><trkpt lat="42.76275522101146" lon="11.675555916836123"><ele>940.0</ele><time>2026-04-25T15:54:54.943Z</time></trkpt><trkpt lat="42.762821063272945" lon="11.67547232522673"><ele>940.0</ele><time>2026-04-25T15:54:55.942Z</time></trkpt><trkpt lat="42.76286644658497" lon="11.675364889733094"><ele>940.0</ele><time>2026-04-25T15:54:56.942Z</time></trkpt><trkpt lat="42.76289791858175" lon="11.675249965745865"><ele>940.0</ele><time>2026-04-25T15:54:57.942Z</time></trkpt><trkpt lat="42.76289028842937" lon="11.675104631707368"><ele>940.0</ele><time>2026-04-25T15:54:58.942Z</time></trkpt><trkpt lat="42.76284158976025" lon="11.67496797963509"><ele>940.75</ele><time>2026-04-25T15:54:59.942Z</time></trkpt><trkpt lat="42.76279591582796" lon="11.674823537875367"><ele>941.5</ele><time>2026-04-25T15:55:00.942Z</time></trkpt><trkpt lat="42.76278710897093" lon="11.674659932108613"><ele>942.25</ele><time>2026-04-25T15:55:01.942Z</time></trkpt><trkpt lat="42.76278952014831" lon="11.674503006869163"><ele>943.0</ele><time>2026-04-25T15:55:02.942Z</time></trkpt><trkpt lat="42.76277271254514" lon="11.674339815770535"><ele>943.0</ele><time>2026-04-25T15:55:03.942Z</time></trkpt><trkpt lat="42.76273488292175" lon="11.674187410816296"><ele>943.0</ele><time>2026-04-25T15:55:04.942Z</time></trkpt><trkpt lat="42.762680041380314" lon="11.674054208364913"><ele>943.0</ele><time>2026-04-25T15:55:05.942Z</time></trkpt><trkpt lat="42.76264914011503" lon="11.673919234185563"><ele>943.0</ele><time>2026-04-25T15:55:06.942Z</time></trkpt><trkpt lat="42.7626478171646" lon="11.67379132704112"><ele>943.0</ele><time>2026-04-25T15:55:07.942Z</time></trkpt><trkpt lat="42.76263479103356" lon="11.673668492679987"><ele>937.0</ele><time>2026-04-25T15:55:08.942Z</time></trkpt><trkpt lat="42.76262354432851" lon="11.673540924571729"><ele>931.0</ele><time>2026-04-25T15:55:09.942Z</time></trkpt><trkpt lat="42.762603631336994" lon="11.673415290061609"><ele>925.0</ele><time>2026-04-25T15:55:10.942Z</time></trkpt><trkpt lat="42.76256764942552" lon="11.673288802032854"><ele>919.0</ele><time>2026-04-25T15:55:11.942Z</time></trkpt><trkpt lat="42.762513205092425" lon="11.673165419519755"><ele>913.0</ele><time>2026-04-25T15:55:12.942Z</time></trkpt><trkpt lat="42.76247561726252" lon="11.673025459320606"><ele>913.0</ele><time>2026-04-25T15:55:13.942Z</time></trkpt><trkpt lat="42.76243968494281" lon="11.672885146479022"><ele>913.0</ele><time>2026-04-25T15:55:14.942Z</time></trkpt><trkpt lat="42.7624122015447" lon="11.672747487257368"><ele>913.0</ele><time>2026-04-25T15:55:15.942Z</time></trkpt><trkpt lat="42.76239440107942" lon="11.672618388767185"><ele>913.0</ele><time>2026-04-25T15:55:16.942Z</time></trkpt><trkpt lat="42.762387611945215" lon="11.672487823469899"><ele>913.0</ele><time>2026-04-25T15:55:17.942Z</time></trkpt><trkpt lat="42.76240515371209" lon="11.672360651450955"><ele>912.0</ele><time>2026-04-25T15:55:18.942Z</time></trkpt><trkpt lat="42.762451489673765" lon="11.67224670791309"><ele>911.0</ele><time>2026-04-25T15:55:19.942Z</time></trkpt><trkpt lat="42.76250248399619" lon="11.672146646296067"><ele>910.0</ele><time>2026-04-25T15:55:20.942Z</time></trkpt><trkpt lat="42.76256557805719" lon="11.672064263599653"><ele>909.0</ele><time>2026-04-25T15:55:21.942Z</time></trkpt><trkpt lat="42.76263655600863" lon="11.671972501802706"><ele>908.0</ele><time>2026-04-25T15:55:22.942Z</time></trkpt><trkpt lat="42.76270293644912" lon="11.671889568680323"><ele>911.5999999999999</ele><time>2026-04-25T15:55:23.942Z</time></trkpt><trkpt lat="42.76274692608866" lon="11.671804287609051"><ele>915.1999999999999</ele><time>2026-04-25T15:55:24.942Z</time></trkpt><trkpt lat="42.76275812885607" lon="11.671708749532703"><ele>918.8</ele><time>2026-04-25T15:55:25.942Z</time></trkpt><trkpt lat="42.76277515762722" lon="11.67160086169534"><ele>922.4</ele><time>2026-04-25T15:55:26.942Z</time></trkpt><trkpt lat="42.762769701709594" lon="11.671452245985686"><ele>926.0</ele><time>2026-04-25T15:55:27.942Z</time></trkpt><trkpt lat="42.76276147773747" lon="11.671300069313324"><ele>926.0</ele><time>2026-04-25T15:55:28.942Z</time></trkpt><trkpt lat="42.76277176082375" lon="11.671151189481353"><ele>925.9999999999999</ele><time>2026-04-25T15:55:29.941Z</time></trkpt><trkpt lat="42.7627594206573" lon="11.670995298047055"><ele>925.9999999999999</ele><time>2026-04-25T15:55:30.941Z</time></trkpt><trkpt lat="42.7627216639384" lon="11.670854081391221"><ele>926.0</ele><time>2026-04-25T15:55:31.941Z</time></trkpt><trkpt lat="42.76269585114502" lon="11.670715439770506"><ele>926.0</ele><time>2026-04-25T15:55:32.941Z</time></trkpt><trkpt lat="42.76267373487883" lon="11.670576315936016"><ele>922.3333333333334</ele><time>2026-04-25T15:55:33.941Z</time></trkpt><trkpt lat="42.7626669945071" lon="11.670436736328874"><ele>918.6666666666667</ele><time>2026-04-25T15:55:34.941Z</time></trkpt><trkpt lat="42.762672716507794" lon="11.670312139461304"><ele>915.0</ele><time>2026-04-25T15:55:35.941Z</time></trkpt><trkpt lat="42.762696417447714" lon="11.670205612018986"><ele>911.3333333333333</ele><time>2026-04-25T15:55:36.941Z</time></trkpt><trkpt lat="42.762732368309344" lon="11.670112575138624"><ele>907.6666666666666</ele><time>2026-04-25T15:55:37.941Z</time></trkpt><trkpt lat="42.762794762400404" lon="11.670038494559991"><ele>904.0</ele><time>2026-04-25T15:55:38.941Z</time></trkpt><trkpt lat="42.76284850559069" lon="11.669958128763293"><ele>903.9999999999999</ele><time>2026-04-25T15:55:39.941Z</time></trkpt><trkpt lat="42.762908712084716" lon="11.669870115486424"><ele>904.0</ele><time>2026-04-25T15:55:40.941Z</time></trkpt><trkpt lat="42.762961794995256" lon="11.669774851825425"><ele>904.0</ele><time>2026-04-25T15:55:41.941Z</time></trkpt><trkpt lat="42.76300170669458" lon="11.669684336690585"><ele>904.0</ele><time>2026-04-25T15:55:42.941Z</time></trkpt><trkpt lat="42.76303052694001" lon="11.669605357389266"><ele>903.9999999999999</ele><time>2026-04-25T15:55:43.941Z</time></trkpt><trkpt lat="42.76307224063954" lon="11.66951559332972"><ele>904.0</ele><time>2026-04-25T15:55:45.941Z</time></trkpt><trkpt lat="42.76317888447374" lon="11.669452842441066"><ele>901.6</ele><time>2026-04-25T15:55:53.941Z</time></trkpt><trkpt lat="42.763263999433356" lon="11.669426376880496"><ele>899.2</ele><time>2026-04-25T15:55:55.941Z</time></trkpt><trkpt lat="42.76334116500002" lon="11.669352082716772"><ele>896.8000000000001</ele><time>2026-04-25T15:55:57.941Z</time></trkpt><trkpt lat="42.7634096411958" lon="11.669237442961785"><ele>894.4000000000001</ele><time>2026-04-25T15:55:59.941Z</time></trkpt><trkpt lat="42.763487047591745" lon="11.66911132937144"><ele>892.0</ele><time>2026-04-25T15:56:01.941Z</time></trkpt><trkpt lat="42.76357584872719" lon="11.669036806727327"><ele>892.0</ele><time>2026-04-25T15:56:03.94Z</time></trkpt><trkpt lat="42.76361915846768" lon="11.668930691784979"><ele>892.0</ele><time>2026-04-25T15:56:05.94Z</time></trkpt><trkpt lat="42.763589594487634" lon="11.668813064579686"><ele>892.0</ele><time>2026-04-25T15:56:07.94Z</time></trkpt><trkpt lat="42.76350278240068" lon="11.668681609973417"><ele>892.0</ele><time>2026-04-25T15:56:09.94Z</time></trkpt><trkpt lat="42.763459164602004" lon="11.668598675492538"><ele>892.0</ele><time>2026-04-25T15:56:10.94Z</time></trkpt><trkpt lat="42.76341328200828" lon="11.668500788506464"><ele>892.3333333333333</ele><time>2026-04-25T15:56:12.94Z</time></trkpt><trkpt lat="42.76336484317663" lon="11.66840021644453"><ele>892.6666666666666</ele><time>2026-04-25T15:56:14.94Z</time></trkpt><trkpt lat="42.76336870893087" lon="11.668283870972182"><ele>893.0</ele><time>2026-04-25T15:56:16.94Z</time></trkpt><trkpt lat="42.76338576102319" lon="11.668165305617764"><ele>893.3333333333333</ele><time>2026-04-25T15:56:19.94Z</time></trkpt><trkpt lat="42.76336978247872" lon="11.668046262503728"><ele>893.6666666666666</ele><time>2026-04-25T15:56:21.94Z</time></trkpt><trkpt lat="42.76335657851353" lon="11.667942254189638"><ele>894.0</ele><time>2026-04-25T15:56:24.94Z</time></trkpt><trkpt lat="42.763355065384864" lon="11.667845016502707"><ele>896.1666666666666</ele><time>2026-04-25T15:56:26.94Z</time></trkpt><trkpt lat="42.763328180847736" lon="11.667761377910368"><ele>898.3333333333333</ele><time>2026-04-25T15:56:28.94Z</time></trkpt><trkpt lat="42.76328424197036" lon="11.667656797952894"><ele>900.5</ele><time>2026-04-25T15:56:30.94Z</time></trkpt><trkpt lat="42.76323166667001" lon="11.667545729509829"><ele>902.6666666666666</ele><time>2026-04-25T15:56:32.94Z</time></trkpt><trkpt lat="42.763189172465225" lon="11.667469987112936"><ele>904.8333333333333</ele><time>2026-04-25T15:56:33.94Z</time></trkpt><trkpt lat="42.76312425233886" lon="11.667390029602169"><ele>907.0</ele><time>2026-04-25T15:56:35.94Z</time></trkpt><trkpt lat="42.76305195926636" lon="11.667337120323763"><ele>907.0</ele><time>2026-04-25T15:56:37.939Z</time></trkpt><trkpt lat="42.76300988767524" lon="11.66724528226926"><ele>907.0</ele><time>2026-04-25T15:56:39.939Z</time></trkpt><trkpt lat="42.762958048652294" lon="11.667156759529478"><ele>907.0</ele><time>2026-04-25T15:56:51.942Z</time></trkpt><trkpt lat="42.76291490553998" lon="11.667067722313565"><ele>907.0</ele><time>2026-04-25T15:56:53.941Z</time></trkpt><trkpt lat="42.762861642594224" lon="11.666922079887032"><ele>907.0</ele><time>2026-04-25T15:56:55.941Z</time></trkpt><trkpt lat="42.762794888447004" lon="11.666780917909513"><ele>905.7142857142858</ele><time>2026-04-25T15:56:57.941Z</time></trkpt><trkpt lat="42.762757738345314" lon="11.666706475352294"><ele>904.4285714285714</ele><time>2026-04-25T15:56:58.941Z</time></trkpt><trkpt lat="42.762717680743165" lon="11.666629113882225"><ele>903.1428571428571</ele><time>2026-04-25T15:56:59.941Z</time></trkpt><trkpt lat="42.76267200075104" lon="11.666548635144977"><ele>901.8571428571429</ele><time>2026-04-25T15:57:00.941Z</time></trkpt><trkpt lat="42.762623042392214" lon="11.66647569972041"><ele>900.5714285714284</ele><time>2026-04-25T15:57:01.941Z</time></trkpt><trkpt lat="42.76257373683905" lon="11.666413791519975"><ele>899.2857142857142</ele><time>2026-04-25T15:57:02.941Z</time></trkpt><trkpt lat="42.76250070985006" lon="11.666331780029703"><ele>898.0</ele><time>2026-04-25T15:57:04.941Z</time></trkpt><trkpt lat="42.76240916841296" lon="11.666245837407784"><ele>898.0</ele><time>2026-04-25T15:57:07.941Z</time></trkpt><trkpt lat="42.76229342267404" lon="11.666200980312563"><ele>898.0</ele><time>2026-04-25T15:57:09.941Z</time></trkpt><trkpt lat="42.76222614479809" lon="11.666085900344363"><ele>898.0</ele><time>2026-04-25T15:57:11.941Z</time></trkpt><trkpt lat="42.76217338588037" lon="11.66594165687507"><ele>898.0</ele><time>2026-04-25T15:57:13.941Z</time></trkpt><trkpt lat="42.76216013358387" lon="11.665781822920131"><ele>898.4999999999999</ele><time>2026-04-25T15:57:15.941Z</time></trkpt><trkpt lat="42.76216315263996" lon="11.66568749014688"><ele>899.0</ele><time>2026-04-25T15:57:17.941Z</time></trkpt><trkpt lat="42.76220548079783" lon="11.665560685340406"><ele>899.5</ele><time>2026-04-25T15:57:19.94Z</time></trkpt><trkpt lat="42.76223825367522" lon="11.6654822651936"><ele>900.0</ele><time>2026-04-25T15:57:20.94Z</time></trkpt><trkpt lat="42.76227633770166" lon="11.66535656924199"><ele>900.4999999999999</ele><time>2026-04-25T15:57:22.94Z</time></trkpt><trkpt lat="42.76231557561297" lon="11.66527316976211"><ele>901.0</ele><time>2026-04-25T15:57:24.94Z</time></trkpt><trkpt lat="42.762352433594046" lon="11.665131526097948"><ele>901.0</ele><time>2026-04-25T15:57:27.94Z</time></trkpt><trkpt lat="42.762376812015624" lon="11.665050519743977"><ele>901.0000000000001</ele><time>2026-04-25T15:57:28.94Z</time></trkpt><trkpt lat="42.7624025090635" lon="11.66496513166308"><ele>901.0</ele><time>2026-04-25T15:57:29.94Z</time></trkpt><trkpt lat="42.76243025890308" lon="11.664872922542642"><ele>901.0</ele><time>2026-04-25T15:57:30.94Z</time></trkpt><trkpt lat="42.76246710879071" lon="11.664796641738086"><ele>901.0000000000001</ele><time>2026-04-25T15:57:31.94Z</time></trkpt><trkpt lat="42.762477953131395" lon="11.664712033382102"><ele>901.0</ele><time>2026-04-25T15:57:32.94Z</time></trkpt><trkpt lat="42.76250429503274" lon="11.664566477500502"><ele>901.0</ele><time>2026-04-25T15:57:34.94Z</time></trkpt><trkpt lat="42.76255323448561" lon="11.664420955250996"><ele>899.6666666666666</ele><time>2026-04-25T15:57:36.94Z</time></trkpt><trkpt lat="42.7625983455592" lon="11.664351439271826"><ele>898.3333333333333</ele><time>2026-04-25T15:57:37.94Z</time></trkpt><trkpt lat="42.762658736964134" lon="11.664208084154257"><ele>897.0</ele><time>2026-04-25T15:57:39.94Z</time></trkpt><trkpt lat="42.76269271665325" lon="11.664132304839747"><ele>895.6666666666667</ele><time>2026-04-25T15:57:40.94Z</time></trkpt><trkpt lat="42.76273369056017" lon="11.664040757218093"><ele>894.3333333333334</ele><time>2026-04-25T15:57:42.94Z</time></trkpt><trkpt lat="42.76279413686032" lon="11.663939327943954"><ele>893.0</ele><time>2026-04-25T15:57:45.94Z</time></trkpt><trkpt lat="42.7628749130548" lon="11.663847620623597"><ele>894.5999999999999</ele><time>2026-04-25T15:57:47.94Z</time></trkpt><trkpt lat="42.762950651689835" lon="11.663800817764894"><ele>896.1999999999999</ele><time>2026-04-25T15:57:49.94Z</time></trkpt><trkpt lat="42.763041262517824" lon="11.663757269859254"><ele>897.8</ele><time>2026-04-25T15:57:51.94Z</time></trkpt><trkpt lat="42.76313227056219" lon="11.663662469933858"><ele>899.4</ele><time>2026-04-25T15:57:53.939Z</time></trkpt><trkpt lat="42.76321318003699" lon="11.663495990943677"><ele>901.0</ele><time>2026-04-25T15:57:55.939Z</time></trkpt><trkpt lat="42.76320840787412" lon="11.663408210938163"><ele>901.0</ele><time>2026-04-25T15:57:56.939Z</time></trkpt><trkpt lat="42.76315878443735" lon="11.663346755998724"><ele>901.0000000000001</ele><time>2026-04-25T15:57:57.939Z</time></trkpt><trkpt lat="42.76310284121384" lon="11.663281419651073"><ele>901.0</ele><time>2026-04-25T15:57:58.939Z</time></trkpt><trkpt lat="42.7630519523703" lon="11.66322922624119"><ele>901.0</ele><time>2026-04-25T15:57:59.939Z</time></trkpt><trkpt lat="42.762991955173774" lon="11.66317435422671"><ele>901.0000000000001</ele><time>2026-04-25T15:58:00.939Z</time></trkpt><trkpt lat="42.762918725692266" lon="11.663109035831019"><ele>901.0</ele><time>2026-04-25T15:58:01.939Z</time></trkpt><trkpt lat="42.76286615132936" lon="11.663058327791658"><ele>901.0</ele><time>2026-04-25T15:58:02.939Z</time></trkpt><trkpt lat="42.76278819241185" lon="11.662976246852049"><ele>900.9999999999999</ele><time>2026-04-25T15:58:04.939Z</time></trkpt><trkpt lat="42.76272795277083" lon="11.662917598332312"><ele>901.0</ele><time>2026-04-25T15:58:06.939Z</time></trkpt><trkpt lat="42.76268763808662" lon="11.662799142188053"><ele>901.0</ele><time>2026-04-25T15:58:08.939Z</time></trkpt><trkpt lat="42.762687296106336" lon="11.662701710837773"><ele>901.0</ele><time>2026-04-25T15:58:09.939Z</time></trkpt><trkpt lat="42.762695297476355" lon="11.662595476790749"><ele>900.9999999999999</ele><time>2026-04-25T15:58:10.939Z</time></trkpt><trkpt lat="42.76269061307722" lon="11.662501481783641"><ele>901.0</ele><time>2026-04-25T15:58:11.939Z</time></trkpt><trkpt lat="42.7626919958069" lon="11.662412265502702"><ele>898.9999999999999</ele><time>2026-04-25T15:58:12.939Z</time></trkpt><trkpt lat="42.7626913015621" lon="11.662309652130046"><ele>897.0</ele><time>2026-04-25T15:58:13.939Z</time></trkpt><trkpt lat="42.762687201008355" lon="11.6622046904128"><ele>895.0</ele><time>2026-04-25T15:58:14.939Z</time></trkpt><trkpt lat="42.76268137764146" lon="11.662090292733494"><ele>893.0</ele><time>2026-04-25T15:58:15.939Z</time></trkpt><trkpt lat="42.76265762541107" lon="11.661986446697544"><ele>890.9999999999999</ele><time>2026-04-25T15:58:16.939Z</time></trkpt><trkpt lat="42.762661134907376" lon="11.661871008489207"><ele>889.0</ele><time>2026-04-25T15:58:17.939Z</time></trkpt><trkpt lat="42.762634384744416" lon="11.66175631260208"><ele>888.8000000000001</ele><time>2026-04-25T15:58:18.939Z</time></trkpt><trkpt lat="42.762625780735284" lon="11.661660569568896"><ele>888.6000000000001</ele><time>2026-04-25T15:58:19.939Z</time></trkpt><trkpt lat="42.762611958906255" lon="11.661509307181461"><ele>888.4</ele><time>2026-04-25T15:58:21.939Z</time></trkpt><trkpt lat="42.7625746668525" lon="11.661367422512859"><ele>888.2</ele><time>2026-04-25T15:58:23.939Z</time></trkpt><trkpt lat="42.76253819861181" lon="11.661257820733645"><ele>888.0</ele><time>2026-04-25T15:58:26.938Z</time></trkpt><trkpt lat="42.76254522515768" lon="11.661107569204656"><ele>888.0</ele><time>2026-04-25T15:58:28.938Z</time></trkpt><trkpt lat="42.76258681672062" lon="11.660974488830584"><ele>888.0</ele><time>2026-04-25T15:58:30.938Z</time></trkpt><trkpt lat="42.76265212977771" lon="11.660886597540168"><ele>888.0</ele><time>2026-04-25T15:58:32.938Z</time></trkpt><trkpt lat="42.7627410183147" lon="11.660798451874221"><ele>888.0</ele><time>2026-04-25T15:58:34.938Z</time></trkpt><trkpt lat="42.7628410265899" lon="11.660762164614386"><ele>888.0</ele><time>2026-04-25T15:58:36.938Z</time></trkpt><trkpt lat="42.76292667226636" lon="11.660735127882768"><ele>888.0</ele><time>2026-04-25T15:58:38.938Z</time></trkpt><trkpt lat="42.76299037848234" lon="11.66071937248613"><ele>888.0</ele><time>2026-04-25T15:58:40.938Z</time></trkpt><trkpt lat="42.76307935459444" lon="11.660758312730017"><ele>888.0</ele><time>2026-04-25T15:58:43.938Z</time></trkpt><trkpt lat="42.76316555312928" lon="11.660738051655562"><ele>888.0</ele><time>2026-04-25T15:58:45.938Z</time></trkpt><trkpt lat="42.7632701531998" lon="11.660712644518375"><ele>888.0</ele><time>2026-04-25T15:58:47.941Z</time></trkpt><trkpt lat="42.76334302672152" lon="11.660661717915634"><ele>888.0</ele><time>2026-04-25T15:58:48.94Z</time></trkpt><trkpt lat="42.763429312213255" lon="11.660587455347018"><ele>888.0</ele><time>2026-04-25T15:58:49.94Z</time></trkpt><trkpt lat="42.763517711071266" lon="11.660528772842866"><ele>888.0</ele><time>2026-04-25T15:58:50.94Z</time></trkpt><trkpt lat="42.76359467877587" lon="11.660417114593393"><ele>888.0</ele><time>2026-04-25T15:58:51.941Z</time></trkpt><trkpt lat="42.763689274569515" lon="11.660336998996236"><ele>888.0</ele><time>2026-04-25T15:58:52.941Z</time></trkpt><trkpt lat="42.763767525573115" lon="11.660246079569115"><ele>888.0</ele><time>2026-04-25T15:58:53.941Z</time></trkpt><trkpt lat="42.76383929865428" lon="11.660141325572491"><ele>887.0</ele><time>2026-04-25T15:58:54.94Z</time></trkpt><trkpt lat="42.76391788319445" lon="11.660036622852083"><ele>886.0</ele><time>2026-04-25T15:58:55.94Z</time></trkpt><trkpt lat="42.764001315262995" lon="11.659938984325619"><ele>885.0</ele><time>2026-04-25T15:58:56.94Z</time></trkpt><trkpt lat="42.76407004512121" lon="11.659824393968647"><ele>884.0</ele><time>2026-04-25T15:58:57.94Z</time></trkpt><trkpt lat="42.76414868275261" lon="11.659717928837184"><ele>883.0</ele><time>2026-04-25T15:58:58.94Z</time></trkpt><trkpt lat="42.76421021832095" lon="11.659597384065865"><ele>883.0</ele><time>2026-04-25T15:58:59.94Z</time></trkpt><trkpt lat="42.76425543037975" lon="11.65946082167126"><ele>883.0</ele><time>2026-04-25T15:59:00.941Z</time></trkpt><trkpt lat="42.76433225092894" lon="11.659341575279987"><ele>883.0</ele><time>2026-04-25T15:59:01.941Z</time></trkpt><trkpt lat="42.76439517507189" lon="11.659236096721395"><ele>883.0</ele><time>2026-04-25T15:59:02.941Z</time></trkpt><trkpt lat="42.764455451479556" lon="11.659123654464226"><ele>883.0</ele><time>2026-04-25T15:59:03.941Z</time></trkpt><trkpt lat="42.76449036601009" lon="11.659019794910535"><ele>884.4</ele><time>2026-04-25T15:59:04.941Z</time></trkpt><trkpt lat="42.76452177398857" lon="11.658891832516362"><ele>885.8</ele><time>2026-04-25T15:59:05.941Z</time></trkpt><trkpt lat="42.76453249168051" lon="11.658769848846504"><ele>887.2</ele><time>2026-04-25T15:59:06.941Z</time></trkpt><trkpt lat="42.76453928600786" lon="11.658651149318748"><ele>888.6</ele><time>2026-04-25T15:59:07.941Z</time></trkpt><trkpt lat="42.764547735103605" lon="11.658486248848767"><ele>890.0</ele><time>2026-04-25T15:59:09.941Z</time></trkpt><trkpt lat="42.76452525371154" lon="11.658311009951218"><ele>890.2</ele><time>2026-04-25T15:59:11.94Z</time></trkpt><trkpt lat="42.76449756475452" lon="11.658208809179243"><ele>890.4</ele><time>2026-04-25T15:59:12.94Z</time></trkpt><trkpt lat="42.76445709044639" lon="11.65810244634172"><ele>890.5999999999999</ele><time>2026-04-25T15:59:13.94Z</time></trkpt><trkpt lat="42.76439359914841" lon="11.657975249940604"><ele>890.8</ele><time>2026-04-25T15:59:14.94Z</time></trkpt><trkpt lat="42.76432694860349" lon="11.657851581107455"><ele>891.0</ele><time>2026-04-25T15:59:15.94Z</time></trkpt><trkpt lat="42.764269888043366" lon="11.657733808571368"><ele>886.5</ele><time>2026-04-25T15:59:16.94Z</time></trkpt><trkpt lat="42.76421758562651" lon="11.657634737948152"><ele>882.0</ele><time>2026-04-25T15:59:17.94Z</time></trkpt><trkpt lat="42.764172018783256" lon="11.657551350889824"><ele>877.5</ele><time>2026-04-25T15:59:18.94Z</time></trkpt><trkpt lat="42.76413680444174" lon="11.65746103276585"><ele>873.0</ele><time>2026-04-25T15:59:19.94Z</time></trkpt><trkpt lat="42.7641042685399" lon="11.657350442848257"><ele>868.5</ele><time>2026-04-25T15:59:20.94Z</time></trkpt><trkpt lat="42.76407734847538" lon="11.657236745941251"><ele>864.0</ele><time>2026-04-25T15:59:21.94Z</time></trkpt><trkpt lat="42.76406744842307" lon="11.657112430063956"><ele>864.0</ele><time>2026-04-25T15:59:22.94Z</time></trkpt><trkpt lat="42.764049086172776" lon="11.656995271714345"><ele>864.0000000000001</ele><time>2026-04-25T15:59:23.94Z</time></trkpt><trkpt lat="42.76401226695498" lon="11.656894469450082"><ele>864.0000000000001</ele><time>2026-04-25T15:59:24.94Z</time></trkpt><trkpt lat="42.76396185649525" lon="11.656791685380718"><ele>864.0</ele><time>2026-04-25T15:59:25.94Z</time></trkpt><trkpt lat="42.76390442334719" lon="11.65670908688975"><ele>864.0</ele><time>2026-04-25T15:59:26.94Z</time></trkpt><trkpt lat="42.76381462103685" lon="11.656624997651123"><ele>864.0</ele><time>2026-04-25T15:59:27.94Z</time></trkpt><trkpt lat="42.763708676056254" lon="11.656552298748917"><ele>864.0000000000001</ele><time>2026-04-25T15:59:28.94Z</time></trkpt><trkpt lat="42.76360729841887" lon="11.656511839645422"><ele>864.0000000000001</ele><time>2026-04-25T15:59:29.94Z</time></trkpt><trkpt lat="42.76351054548027" lon="11.65646280227775"><ele>864.0</ele><time>2026-04-25T15:59:30.94Z</time></trkpt><trkpt lat="42.763442564319476" lon="11.656378681032242"><ele>864.0</ele><time>2026-04-25T15:59:31.94Z</time></trkpt><trkpt lat="42.7633823620153" lon="11.656286208302337"><ele>859.8000000000001</ele><time>2026-04-25T15:59:32.94Z</time></trkpt><trkpt lat="42.763315897122666" lon="11.656203879310354"><ele>855.6000000000001</ele><time>2026-04-25T15:59:33.94Z</time></trkpt><trkpt lat="42.76328987546413" lon="11.656079024581972"><ele>851.4</ele><time>2026-04-25T15:59:35.94Z</time></trkpt><trkpt lat="42.76331208419464" lon="11.655937721058162"><ele>847.2</ele><time>2026-04-25T15:59:39.94Z</time></trkpt><trkpt lat="42.76334371005514" lon="11.655842389421045"><ele>843.0</ele><time>2026-04-25T15:59:41.94Z</time></trkpt><trkpt lat="42.76340574166725" lon="11.6557681609244"><ele>843.0</ele><time>2026-04-25T15:59:43.94Z</time></trkpt><trkpt lat="42.76346338966697" lon="11.655692233970901"><ele>843.0</ele><time>2026-04-25T15:59:45.939Z</time></trkpt><trkpt lat="42.76354967194044" lon="11.65566861803321"><ele>843.0</ele><time>2026-04-25T15:59:47.939Z</time></trkpt><trkpt lat="42.76362297572601" lon="11.655655264241817"><ele>843.0</ele><time>2026-04-25T15:59:49.939Z</time></trkpt><trkpt lat="42.763744901609975" lon="11.655673424243565"><ele>843.0</ele><time>2026-04-25T15:59:51.939Z</time></trkpt><trkpt lat="42.76381872100334" lon="11.65568796569159"><ele>843.0</ele><time>2026-04-25T15:59:52.939Z</time></trkpt><trkpt lat="42.76388438413327" lon="11.655704688943986"><ele>844.5999999999999</ele><time>2026-04-25T15:59:53.939Z</time></trkpt><trkpt lat="42.76399698175532" lon="11.655738152088817"><ele>846.1999999999999</ele><time>2026-04-25T15:59:55.939Z</time></trkpt><trkpt lat="42.76411656417283" lon="11.655764298896168"><ele>847.8</ele><time>2026-04-25T15:59:57.939Z</time></trkpt><trkpt lat="42.76417444335193" lon="11.655700358267975"><ele>849.4</ele><time>2026-04-25T15:59:58.939Z</time></trkpt><trkpt lat="42.764209632663594" lon="11.655629075805761"><ele>851.0</ele><time>2026-04-25T15:59:59.939Z</time></trkpt><trkpt lat="42.764210360292886" lon="11.655472902913528"><ele>851.0</ele><time>2026-04-25T16:00:01.939Z</time></trkpt><trkpt lat="42.76410328413982" lon="11.655436721541886"><ele>851.0</ele><time>2026-04-25T16:00:02.939Z</time></trkpt><trkpt lat="42.76402499658472" lon="11.655418905294711"><ele>851.0</ele><time>2026-04-25T16:00:03.939Z</time></trkpt><trkpt lat="42.763935491998176" lon="11.655426370387712"><ele>851.0</ele><time>2026-04-25T16:00:04.939Z</time></trkpt><trkpt lat="42.76383838868214" lon="11.65541440194859"><ele>851.0</ele><time>2026-04-25T16:00:05.939Z</time></trkpt><trkpt lat="42.763723599694686" lon="11.655343561789664"><ele>846.25</ele><time>2026-04-25T16:00:06.939Z</time></trkpt><trkpt lat="42.76361677326801" lon="11.6552824471224"><ele>841.5</ele><time>2026-04-25T16:00:07.939Z</time></trkpt><trkpt lat="42.76350500484634" lon="11.655217727338457"><ele>836.75</ele><time>2026-04-25T16:00:08.939Z</time></trkpt><trkpt lat="42.76340047772078" lon="11.655159772256964"><ele>832.0</ele><time>2026-04-25T16:00:09.939Z</time></trkpt><trkpt lat="42.76329638319991" lon="11.655105267791324"><ele>831.4000000000001</ele><time>2026-04-25T16:00:10.939Z</time></trkpt><trkpt lat="42.76319175059203" lon="11.655084603436535"><ele>830.8000000000001</ele><time>2026-04-25T16:00:11.939Z</time></trkpt><trkpt lat="42.76309510445468" lon="11.655045133025823"><ele>830.2</ele><time>2026-04-25T16:00:12.939Z</time></trkpt><trkpt lat="42.763006908139694" lon="11.655006896208244"><ele>829.6</ele><time>2026-04-25T16:00:13.939Z</time></trkpt><trkpt lat="42.76291298820627" lon="11.654964270187703"><ele>829.0</ele><time>2026-04-25T16:00:14.939Z</time></trkpt><trkpt lat="42.76283092276539" lon="11.654923206185293"><ele>828.9999999999999</ele><time>2026-04-25T16:00:15.939Z</time></trkpt><trkpt lat="42.76275739404673" lon="11.654869624101769"><ele>829.0</ele><time>2026-04-25T16:00:16.939Z</time></trkpt><trkpt lat="42.76269155506116" lon="11.654821936943902"><ele>829.0</ele><time>2026-04-25T16:00:17.939Z</time></trkpt><trkpt lat="42.76262927020821" lon="11.654776673113558"><ele>829.0</ele><time>2026-04-25T16:00:18.938Z</time></trkpt><trkpt lat="42.76256551050746" lon="11.65474658903783"><ele>828.9999999999999</ele><time>2026-04-25T16:00:19.938Z</time></trkpt><trkpt lat="42.76247897096644" lon="11.65472676287295"><ele>829.0</ele><time>2026-04-25T16:00:21.938Z</time></trkpt><trkpt lat="42.76237527602205" lon="11.654767982697996"><ele>827.9999999999999</ele><time>2026-04-25T16:00:23.938Z</time></trkpt><trkpt lat="42.76230953407968" lon="11.654847228140913"><ele>827.0</ele><time>2026-04-25T16:00:24.938Z</time></trkpt><trkpt lat="42.762251462462444" lon="11.654902641741336"><ele>826.0</ele><time>2026-04-25T16:00:25.938Z</time></trkpt><trkpt lat="42.76216728655985" lon="11.654890634013379"><ele>825.0</ele><time>2026-04-25T16:00:27.938Z</time></trkpt><trkpt lat="42.76211083519005" lon="11.654839861197704"><ele>823.9999999999999</ele><time>2026-04-25T16:00:28.938Z</time></trkpt><trkpt lat="42.76205463333147" lon="11.654785278180253"><ele>823.0</ele><time>2026-04-25T16:00:29.938Z</time></trkpt><trkpt lat="42.76200286479064" lon="11.65468539454855"><ele>823.0</ele><time>2026-04-25T16:00:30.938Z</time></trkpt><trkpt lat="42.76196805111349" lon="11.654596183500223"><ele>823.0</ele><time>2026-04-25T16:00:31.938Z</time></trkpt><trkpt lat="42.76194327103154" lon="11.654441730397732"><ele>823.0</ele><time>2026-04-25T16:00:33.938Z</time></trkpt><trkpt lat="42.76198518679694" lon="11.6542948484336"><ele>823.0</ele><time>2026-04-25T16:00:35.938Z</time></trkpt><trkpt lat="42.76201448907848" lon="11.654211473307429"><ele>823.0</ele><time>2026-04-25T16:00:36.938Z</time></trkpt><trkpt lat="42.76204563604122" lon="11.654113285834258"><ele>821.3333333333333</ele><time>2026-04-25T16:00:37.938Z</time></trkpt><trkpt lat="42.76207717506356" lon="11.65403275788188"><ele>819.6666666666666</ele><time>2026-04-25T16:00:38.938Z</time></trkpt><trkpt lat="42.76209900160404" lon="11.653946188826486"><ele>818.0</ele><time>2026-04-25T16:00:39.938Z</time></trkpt><trkpt lat="42.76214698337854" lon="11.653853186714995"><ele>816.3333333333333</ele><time>2026-04-25T16:00:40.938Z</time></trkpt><trkpt lat="42.76221554447941" lon="11.653783466517627"><ele>814.6666666666666</ele><time>2026-04-25T16:00:41.938Z</time></trkpt><trkpt lat="42.76227216849394" lon="11.65371293756288"><ele>813.0</ele><time>2026-04-25T16:00:42.938Z</time></trkpt><trkpt lat="42.76232772736235" lon="11.65363158938155"><ele>810.0</ele><time>2026-04-25T16:00:43.938Z</time></trkpt><trkpt lat="42.76238393042302" lon="11.653568156530968"><ele>807.0</ele><time>2026-04-25T16:00:44.938Z</time></trkpt><trkpt lat="42.762434838214936" lon="11.65350894242021"><ele>804.0</ele><time>2026-04-25T16:00:45.938Z</time></trkpt><trkpt lat="42.76248304700729" lon="11.653452868066264"><ele>801.0</ele><time>2026-04-25T16:00:46.938Z</time></trkpt><trkpt lat="42.762583334708836" lon="11.653334667972446"><ele>798.0</ele><time>2026-04-25T16:00:48.938Z</time></trkpt><trkpt lat="42.762651327933234" lon="11.653257099750704"><ele>795.0</ele><time>2026-04-25T16:00:49.938Z</time></trkpt><trkpt lat="42.762693639188704" lon="11.653181334555917"><ele>795.0</ele><time>2026-04-25T16:00:50.938Z</time></trkpt><trkpt lat="42.76273801550605" lon="11.653111276049344"><ele>795.0</ele><time>2026-04-25T16:00:51.938Z</time></trkpt><trkpt lat="42.76276082821531" lon="11.652991100359896"><ele>795.0</ele><time>2026-04-25T16:00:53.939Z</time></trkpt><trkpt lat="42.7627693659753" lon="11.652867155556946"><ele>795.0</ele><time>2026-04-25T16:00:55.939Z</time></trkpt><trkpt lat="42.7626859382068" lon="11.652828097419752"><ele>795.0</ele><time>2026-04-25T16:00:56.939Z</time></trkpt><trkpt lat="42.76261384044988" lon="11.652868742109698"><ele>795.0</ele><time>2026-04-25T16:00:57.939Z</time></trkpt><trkpt lat="42.76255664831985" lon="11.652945719104109"><ele>795.0</ele><time>2026-04-25T16:00:58.939Z</time></trkpt><trkpt lat="42.762502749790976" lon="11.65301634595142"><ele>795.0</ele><time>2026-04-25T16:00:59.94Z</time></trkpt><trkpt lat="42.762416317537564" lon="11.653089574949215"><ele>795.0</ele><time>2026-04-25T16:01:01.94Z</time></trkpt><trkpt lat="42.76233751879641" lon="11.653141235802527"><ele>795.0</ele><time>2026-04-25T16:01:03.939Z</time></trkpt><trkpt lat="42.762255079007524" lon="11.653200167279696"><ele>795.0</ele><time>2026-04-25T16:01:06.939Z</time></trkpt><trkpt lat="42.76224605688006" lon="11.653088955910379"><ele>795.0</ele><time>2026-04-25T16:01:08.939Z</time></trkpt><trkpt lat="42.76232656141985" lon="11.652967730049742"><ele>795.0</ele><time>2026-04-25T16:01:10.939Z</time></trkpt><trkpt lat="42.76241321554469" lon="11.652822817365546"><ele>795.0</ele><time>2026-04-25T16:01:12.939Z</time></trkpt><trkpt lat="42.762441256986946" lon="11.652742091633806"><ele>795.0</ele><time>2026-04-25T16:01:13.939Z</time></trkpt><trkpt lat="42.762456622195266" lon="11.652653496457368"><ele>795.0</ele><time>2026-04-25T16:01:14.939Z</time></trkpt><trkpt lat="42.762475831530075" lon="11.652571006404823"><ele>795.0</ele><time>2026-04-25T16:01:15.939Z</time></trkpt><trkpt lat="42.7625096305333" lon="11.65249850173728"><ele>795.0</ele><time>2026-04-25T16:01:16.939Z</time></trkpt><trkpt lat="42.76255408328687" lon="11.652347969785385"><ele>792.5714285714286</ele><time>2026-04-25T16:01:18.938Z</time></trkpt><trkpt lat="42.76258541254673" lon="11.652271808591387"><ele>790.1428571428571</ele><time>2026-04-25T16:01:19.938Z</time></trkpt><trkpt lat="42.76261630600534" lon="11.652182415084697"><ele>787.7142857142858</ele><time>2026-04-25T16:01:20.938Z</time></trkpt><trkpt lat="42.76267840844525" lon="11.652120268641834"><ele>785.2857142857142</ele><time>2026-04-25T16:01:21.938Z</time></trkpt><trkpt lat="42.76273629866347" lon="11.65205964784987"><ele>782.8571428571428</ele><time>2026-04-25T16:01:22.938Z</time></trkpt><trkpt lat="42.762809115716564" lon="11.652008721602517"><ele>780.4285714285714</ele><time>2026-04-25T16:01:23.938Z</time></trkpt><trkpt lat="42.762874900372836" lon="11.651952793701867"><ele>778.0</ele><time>2026-04-25T16:01:24.938Z</time></trkpt><trkpt lat="42.762945624234696" lon="11.651894968132213"><ele>773.8333333333333</ele><time>2026-04-25T16:01:25.938Z</time></trkpt><trkpt lat="42.763014444163105" lon="11.65184512991369"><ele>769.6666666666666</ele><time>2026-04-25T16:01:26.938Z</time></trkpt><trkpt lat="42.76308480348955" lon="11.651802174428342"><ele>765.5</ele><time>2026-04-25T16:01:27.938Z</time></trkpt><trkpt lat="42.7631571752662" lon="11.651798493170913"><ele>761.3333333333333</ele><time>2026-04-25T16:01:28.938Z</time></trkpt><trkpt lat="42.7632352801909" lon="11.651805286144159"><ele>757.1666666666666</ele><time>2026-04-25T16:01:29.938Z</time></trkpt><trkpt lat="42.763316551489666" lon="11.651814428816218"><ele>753.0</ele><time>2026-04-25T16:01:30.938Z</time></trkpt><trkpt lat="42.76340091945555" lon="11.65184547508562"><ele>753.0</ele><time>2026-04-25T16:01:31.938Z</time></trkpt><trkpt lat="42.76347330750724" lon="11.651885554614767"><ele>753.0</ele><time>2026-04-25T16:01:32.938Z</time></trkpt><trkpt lat="42.76352381142115" lon="11.651945122502477"><ele>753.0</ele><time>2026-04-25T16:01:33.938Z</time></trkpt><trkpt lat="42.763630469129644" lon="11.652057367110524"><ele>753.0</ele><time>2026-04-25T16:01:35.938Z</time></trkpt><trkpt lat="42.76366812091827" lon="11.652160841941289"><ele>753.0</ele><time>2026-04-25T16:01:36.938Z</time></trkpt><trkpt lat="42.7637033053952" lon="11.652239461726854"><ele>753.0</ele><time>2026-04-25T16:01:37.938Z</time></trkpt><trkpt lat="42.763739675815586" lon="11.652341589062734"><ele>754.1666666666666</ele><time>2026-04-25T16:01:38.938Z</time></trkpt><trkpt lat="42.76378103535" lon="11.652435536741685"><ele>755.3333333333334</ele><time>2026-04-25T16:01:39.938Z</time></trkpt><trkpt lat="42.76384250230459" lon="11.652527012560926"><ele>756.5</ele><time>2026-04-25T16:01:41.938Z</time></trkpt><trkpt lat="42.76394572727729" lon="11.652542420236424"><ele>757.6666666666667</ele><time>2026-04-25T16:01:43.938Z</time></trkpt><trkpt lat="42.764017912217675" lon="11.652552280436582"><ele>758.8333333333334</ele><time>2026-04-25T16:01:44.938Z</time></trkpt><trkpt lat="42.76410681316196" lon="11.652490920092779"><ele>760.0</ele><time>2026-04-25T16:01:45.938Z</time></trkpt><trkpt lat="42.76417795713629" lon="11.652394726659777"><ele>760.0</ele><time>2026-04-25T16:01:46.938Z</time></trkpt><trkpt lat="42.76423993210366" lon="11.652306869839324"><ele>760.0</ele><time>2026-04-25T16:01:47.938Z</time></trkpt><trkpt lat="42.76429390618392" lon="11.65223927835663"><ele>760.0</ele><time>2026-04-25T16:01:48.938Z</time></trkpt><trkpt lat="42.76436385059394" lon="11.652168454374317"><ele>760.0</ele><time>2026-04-25T16:01:49.938Z</time></trkpt><trkpt lat="42.764413134200986" lon="11.652101383346517"><ele>760.0</ele><time>2026-04-25T16:01:50.938Z</time></trkpt><trkpt lat="42.76446568015305" lon="11.65199097553765"><ele>760.0</ele><time>2026-04-25T16:01:51.937Z</time></trkpt><trkpt lat="42.76448808507171" lon="11.651875118705744"><ele>758.5</ele><time>2026-04-25T16:01:52.937Z</time></trkpt><trkpt lat="42.7644979578714" lon="11.651770206128942"><ele>757.0</ele><time>2026-04-25T16:01:53.937Z</time></trkpt><trkpt lat="42.76450849637923" lon="11.651658631341338"><ele>755.5</ele><time>2026-04-25T16:01:54.937Z</time></trkpt><trkpt lat="42.76450764966778" lon="11.651522651260382"><ele>754.0</ele><time>2026-04-25T16:01:55.937Z</time></trkpt><trkpt lat="42.764503585514305" lon="11.651390904975711"><ele>752.5</ele><time>2026-04-25T16:01:56.937Z</time></trkpt><trkpt lat="42.76450382900574" lon="11.651274407030257"><ele>751.0</ele><time>2026-04-25T16:01:57.937Z</time></trkpt><trkpt lat="42.76451587230995" lon="11.6511606550255"><ele>748.6666666666667</ele><time>2026-04-25T16:01:58.937Z</time></trkpt><trkpt lat="42.76453608311045" lon="11.651060962080507"><ele>746.3333333333334</ele><time>2026-04-25T16:01:59.937Z</time></trkpt><trkpt lat="42.7645596716378" lon="11.65097114640606"><ele>744.0</ele><time>2026-04-25T16:02:00.937Z</time></trkpt><trkpt lat="42.76458833141863" lon="11.650885625661013"><ele>741.6666666666666</ele><time>2026-04-25T16:02:01.937Z</time></trkpt><trkpt lat="42.76462606755293" lon="11.650783892678696"><ele>739.3333333333333</ele><time>2026-04-25T16:02:02.937Z</time></trkpt><trkpt lat="42.76466956641221" lon="11.650687412084025"><ele>737.0</ele><time>2026-04-25T16:02:03.937Z</time></trkpt><trkpt lat="42.764715821876734" lon="11.65060408328249"><ele>737.0</ele><time>2026-04-25T16:02:04.937Z</time></trkpt><trkpt lat="42.764763481233985" lon="11.65052687952114"><ele>737.0</ele><time>2026-04-25T16:02:05.937Z</time></trkpt><trkpt lat="42.76481609566025" lon="11.650445262378966"><ele>737.0</ele><time>2026-04-25T16:02:06.937Z</time></trkpt><trkpt lat="42.764871420416775" lon="11.650359748485991"><ele>737.0</ele><time>2026-04-25T16:02:07.937Z</time></trkpt><trkpt lat="42.764913835661254" lon="11.650286185559978"><ele>737.0</ele><time>2026-04-25T16:02:08.937Z</time></trkpt><trkpt lat="42.76498292351983" lon="11.650186622765862"><ele>737.0</ele><time>2026-04-25T16:02:10.937Z</time></trkpt><trkpt lat="42.76506697339304" lon="11.650150592081534"><ele>735.5</ele><time>2026-04-25T16:02:12.937Z</time></trkpt><trkpt lat="42.765135643555325" lon="11.650179257388919"><ele>734.0</ele><time>2026-04-25T16:02:13.937Z</time></trkpt><trkpt lat="42.7652226638631" lon="11.650219325284935"><ele>732.5</ele><time>2026-04-25T16:02:14.937Z</time></trkpt><trkpt lat="42.7653036667394" lon="11.6502568366341"><ele>731.0</ele><time>2026-04-25T16:02:15.937Z</time></trkpt><trkpt lat="42.76537965425858" lon="11.650312994147727"><ele>729.5</ele><time>2026-04-25T16:02:16.937Z</time></trkpt><trkpt lat="42.76545039639775" lon="11.650379923554596"><ele>728.0</ele><time>2026-04-25T16:02:17.937Z</time></trkpt><trkpt lat="42.76552225109317" lon="11.650441573456023"><ele>728.0</ele><time>2026-04-25T16:02:18.937Z</time></trkpt><trkpt lat="42.76560401391162" lon="11.650492677722285"><ele>728.0</ele><time>2026-04-25T16:02:19.937Z</time></trkpt><trkpt lat="42.765683844832985" lon="11.650534030709974"><ele>728.0</ele><time>2026-04-25T16:02:20.937Z</time></trkpt><trkpt lat="42.765750989544415" lon="11.650566217186487"><ele>728.0</ele><time>2026-04-25T16:02:21.937Z</time></trkpt><trkpt lat="42.765873069186334" lon="11.650549505504847"><ele>728.0</ele><time>2026-04-25T16:02:23.937Z</time></trkpt><trkpt lat="42.76595150893464" lon="11.650509369397415"><ele>728.0</ele><time>2026-04-25T16:02:24.937Z</time></trkpt><trkpt lat="42.7660110490518" lon="11.650407933923939"><ele>728.0</ele><time>2026-04-25T16:02:25.936Z</time></trkpt><trkpt lat="42.76607332643057" lon="11.650290823641422"><ele>728.0</ele><time>2026-04-25T16:02:26.936Z</time></trkpt><trkpt lat="42.76613546390253" lon="11.650171392681273"><ele>728.0</ele><time>2026-04-25T16:02:27.936Z</time></trkpt><trkpt lat="42.76618443742149" lon="11.650041641729523"><ele>728.0</ele><time>2026-04-25T16:02:28.936Z</time></trkpt><trkpt lat="42.766242427971385" lon="11.649955017989887"><ele>726.5999999999999</ele><time>2026-04-25T16:02:29.936Z</time></trkpt><trkpt lat="42.766298389950904" lon="11.649894392302791"><ele>725.1999999999999</ele><time>2026-04-25T16:02:30.936Z</time></trkpt><trkpt lat="42.766415358879726" lon="11.649824236220008"><ele>723.8</ele><time>2026-04-25T16:02:32.936Z</time></trkpt><trkpt lat="42.766485391736964" lon="11.649799396457281"><ele>722.4</ele><time>2026-04-25T16:02:33.936Z</time></trkpt><trkpt lat="42.76655494162488" lon="11.649800010151674"><ele>721.0</ele><time>2026-04-25T16:02:34.936Z</time></trkpt><trkpt lat="42.76666916781418" lon="11.649791587007716"><ele>721.0</ele><time>2026-04-25T16:02:36.936Z</time></trkpt><trkpt lat="42.76675282995542" lon="11.649703740975724"><ele>721.0</ele><time>2026-04-25T16:02:38.936Z</time></trkpt><trkpt lat="42.76678869466645" lon="11.649622298482166"><ele>721.0</ele><time>2026-04-25T16:02:39.936Z</time></trkpt><trkpt lat="42.766822023300286" lon="11.649522251102347"><ele>721.0</ele><time>2026-04-25T16:02:40.936Z</time></trkpt><trkpt lat="42.76683912002278" lon="11.649429690661407"><ele>721.0</ele><time>2026-04-25T16:02:41.936Z</time></trkpt><trkpt lat="42.76685815192003" lon="11.649321287154859"><ele>721.0</ele><time>2026-04-25T16:02:42.936Z</time></trkpt><trkpt lat="42.76687149955423" lon="11.649232023049686"><ele>723.1666666666667</ele><time>2026-04-25T16:02:43.936Z</time></trkpt><trkpt lat="42.766905511810755" lon="11.649144201744718"><ele>725.3333333333334</ele><time>2026-04-25T16:02:44.936Z</time></trkpt><trkpt lat="42.76696325712549" lon="11.649076632793602"><ele>727.5</ele><time>2026-04-25T16:02:45.936Z</time></trkpt><trkpt lat="42.76701583561731" lon="11.649014834642655"><ele>729.6666666666666</ele><time>2026-04-25T16:02:46.936Z</time></trkpt><trkpt lat="42.76707075153393" lon="11.648951132860237"><ele>731.8333333333333</ele><time>2026-04-25T16:02:47.936Z</time></trkpt><trkpt lat="42.76711180585117" lon="11.648864616552101"><ele>734.0</ele><time>2026-04-25T16:02:48.936Z</time></trkpt><trkpt lat="42.76713900924525" lon="11.648745264106719"><ele>730.0</ele><time>2026-04-25T16:02:49.936Z</time></trkpt><trkpt lat="42.767169648024364" lon="11.648617039906595"><ele>726.0</ele><time>2026-04-25T16:02:50.936Z</time></trkpt><trkpt lat="42.76718829222979" lon="11.648486422053415"><ele>722.0</ele><time>2026-04-25T16:02:51.936Z</time></trkpt><trkpt lat="42.767189848901296" lon="11.648360745077726"><ele>718.0</ele><time>2026-04-25T16:02:52.936Z</time></trkpt><trkpt lat="42.76720603665209" lon="11.64824338791868"><ele>714.0</ele><time>2026-04-25T16:02:53.936Z</time></trkpt><trkpt lat="42.76721741935819" lon="11.648133993185647"><ele>714.0</ele><time>2026-04-25T16:02:54.936Z</time></trkpt><trkpt lat="42.76722581217247" lon="11.648029473924238"><ele>714.0</ele><time>2026-04-25T16:02:55.936Z</time></trkpt><trkpt lat="42.76722686578918" lon="11.647918489327758"><ele>714.0</ele><time>2026-04-25T16:02:56.936Z</time></trkpt><trkpt lat="42.767225128299195" lon="11.647797467139577"><ele>714.0</ele><time>2026-04-25T16:02:57.936Z</time></trkpt><trkpt lat="42.7672150917033" lon="11.647665740124712"><ele>714.0</ele><time>2026-04-25T16:02:58.938Z</time></trkpt><trkpt lat="42.76720294152776" lon="11.64753728881006"><ele>714.0</ele><time>2026-04-25T16:02:59.938Z</time></trkpt><trkpt lat="42.76719362396467" lon="11.647408284729538"><ele>712.2</ele><time>2026-04-25T16:03:00.938Z</time></trkpt><trkpt lat="42.767188606932315" lon="11.647289358758009"><ele>710.4000000000001</ele><time>2026-04-25T16:03:01.938Z</time></trkpt><trkpt lat="42.76718682890154" lon="11.647181393217913"><ele>708.6</ele><time>2026-04-25T16:03:02.938Z</time></trkpt><trkpt lat="42.76719034574695" lon="11.64708427841982"><ele>706.8</ele><time>2026-04-25T16:03:03.938Z</time></trkpt><trkpt lat="42.767151002174124" lon="11.646930588248564"><ele>705.0</ele><time>2026-04-25T16:03:05.938Z</time></trkpt><trkpt lat="42.76706369704132" lon="11.646844262166173"><ele>704.2</ele><time>2026-04-25T16:03:07.938Z</time></trkpt><trkpt lat="42.76699552792769" lon="11.646748019886159"><ele>703.4</ele><time>2026-04-25T16:03:09.938Z</time></trkpt><trkpt lat="42.766999258475494" lon="11.646565120262606"><ele>702.5999999999999</ele><time>2026-04-25T16:03:11.938Z</time></trkpt><trkpt lat="42.766999559097094" lon="11.646451628653994"><ele>701.8</ele><time>2026-04-25T16:03:12.938Z</time></trkpt><trkpt lat="42.766984645333245" lon="11.646333272117527"><ele>701.0</ele><time>2026-04-25T16:03:13.938Z</time></trkpt><trkpt lat="42.766975150382265" lon="11.646214265996305"><ele>699.6666666666666</ele><time>2026-04-25T16:03:14.938Z</time></trkpt><trkpt lat="42.76697833122106" lon="11.64609405212331"><ele>698.3333333333333</ele><time>2026-04-25T16:03:15.938Z</time></trkpt><trkpt lat="42.76698050193818" lon="11.645968082752866"><ele>697.0</ele><time>2026-04-25T16:03:16.938Z</time></trkpt><trkpt lat="42.76697371142335" lon="11.645845080335187"><ele>695.6666666666666</ele><time>2026-04-25T16:03:17.938Z</time></trkpt><trkpt lat="42.76696245456517" lon="11.645722556244728"><ele>694.3333333333334</ele><time>2026-04-25T16:03:18.938Z</time></trkpt><trkpt lat="42.766956898477474" lon="11.645606215875642"><ele>693.0</ele><time>2026-04-25T16:03:19.938Z</time></trkpt><trkpt lat="42.76695657517767" lon="11.645492424547111"><ele>693.0</ele><time>2026-04-25T16:03:20.938Z</time></trkpt><trkpt lat="42.766955339250494" lon="11.645388988459974"><ele>693.0</ele><time>2026-04-25T16:03:21.938Z</time></trkpt><trkpt lat="42.76694167982551" lon="11.645293407421576"><ele>693.0</ele><time>2026-04-25T16:03:22.938Z</time></trkpt><trkpt lat="42.76691766097354" lon="11.645206544265323"><ele>693.0</ele><time>2026-04-25T16:03:23.938Z</time></trkpt><trkpt lat="42.76688697564807" lon="11.645124265981332"><ele>693.0</ele><time>2026-04-25T16:03:24.938Z</time></trkpt><trkpt lat="42.76684284866095" lon="11.644981963782527"><ele>693.0</ele><time>2026-04-25T16:03:26.938Z</time></trkpt><trkpt lat="42.76679400792011" lon="11.644860988572557"><ele>689.8</ele><time>2026-04-25T16:03:28.938Z</time></trkpt><trkpt lat="42.76675981147494" lon="11.64478500778987"><ele>686.5999999999999</ele><time>2026-04-25T16:03:29.938Z</time></trkpt><trkpt lat="42.76675467921764" lon="11.644687134897964"><ele>683.4000000000001</ele><time>2026-04-25T16:03:31.938Z</time></trkpt><trkpt lat="42.766747868354585" lon="11.644597089640687"><ele>680.2</ele><time>2026-04-25T16:03:34.937Z</time></trkpt><trkpt lat="42.76667811150603" lon="11.644417253119524"><ele>677.0</ele><time>2026-04-25T16:03:36.937Z</time></trkpt><trkpt lat="42.76664923388949" lon="11.644278083984183"><ele>676.4000000000001</ele><time>2026-04-25T16:03:37.937Z</time></trkpt><trkpt lat="42.766617634480575" lon="11.644129980447179"><ele>675.8000000000001</ele><time>2026-04-25T16:03:38.937Z</time></trkpt><trkpt lat="42.76658366747165" lon="11.643984664290874"><ele>675.2</ele><time>2026-04-25T16:03:39.937Z</time></trkpt><trkpt lat="42.766548214789665" lon="11.64384918101416"><ele>674.6</ele><time>2026-04-25T16:03:40.937Z</time></trkpt><trkpt lat="42.766513617960534" lon="11.643725059437186"><ele>674.0</ele><time>2026-04-25T16:03:41.937Z</time></trkpt><trkpt lat="42.766473108398216" lon="11.643611851980332"><ele>672.0</ele><time>2026-04-25T16:03:42.937Z</time></trkpt><trkpt lat="42.7664261825376" lon="11.64350682559864"><ele>670.0</ele><time>2026-04-25T16:03:43.937Z</time></trkpt><trkpt lat="42.76636602344649" lon="11.643410924872926"><ele>668.0</ele><time>2026-04-25T16:03:44.937Z</time></trkpt><trkpt lat="42.766311664725784" lon="11.643331261017114"><ele>666.0</ele><time>2026-04-25T16:03:45.937Z</time></trkpt><trkpt lat="42.76625912673532" lon="11.643259046161539"><ele>664.0</ele><time>2026-04-25T16:03:46.937Z</time></trkpt><trkpt lat="42.76622209975548" lon="11.643177606785498"><ele>662.0</ele><time>2026-04-25T16:03:47.937Z</time></trkpt><trkpt lat="42.7662021939903" lon="11.643089545311351"><ele>662.0</ele><time>2026-04-25T16:03:48.937Z</time></trkpt><trkpt lat="42.76620122863884" lon="11.643002399182214"><ele>662.0</ele><time>2026-04-25T16:03:49.937Z</time></trkpt><trkpt lat="42.766224973279535" lon="11.6429116124736"><ele>662.0</ele><time>2026-04-25T16:03:50.937Z</time></trkpt><trkpt lat="42.76625487729379" lon="11.642824092243679"><ele>662.0</ele><time>2026-04-25T16:03:51.937Z</time></trkpt><trkpt lat="42.766308866697514" lon="11.642732763491097"><ele>662.0</ele><time>2026-04-25T16:03:53.937Z</time></trkpt><trkpt lat="42.766352199570505" lon="11.642662076096446"><ele>662.0</ele><time>2026-04-25T16:04:01.937Z</time></trkpt><trkpt lat="42.76626800658257" lon="11.6425498419628"><ele>660.3333333333333</ele><time>2026-04-25T16:04:02.937Z</time></trkpt><trkpt lat="42.7661918870858" lon="11.642478790327981"><ele>658.6666666666666</ele><time>2026-04-25T16:04:03.937Z</time></trkpt><trkpt lat="42.76612165231538" lon="11.64240940709506"><ele>657.0</ele><time>2026-04-25T16:04:04.937Z</time></trkpt><trkpt lat="42.76605072982913" lon="11.642349898351862"><ele>655.3333333333334</ele><time>2026-04-25T16:04:05.937Z</time></trkpt><trkpt lat="42.765965405902456" lon="11.642300915122865"><ele>653.6666666666667</ele><time>2026-04-25T16:04:06.937Z</time></trkpt><trkpt lat="42.765874610187645" lon="11.642295514860146"><ele>652.0</ele><time>2026-04-25T16:04:07.937Z</time></trkpt><trkpt lat="42.76578813984177" lon="11.642332167531583"><ele>651.2</ele><time>2026-04-25T16:04:08.936Z</time></trkpt><trkpt lat="42.76569522812807" lon="11.64238090416878"><ele>650.4000000000001</ele><time>2026-04-25T16:04:09.936Z</time></trkpt><trkpt lat="42.76560145069783" lon="11.64246652783869"><ele>649.5999999999999</ele><time>2026-04-25T16:04:10.936Z</time></trkpt><trkpt lat="42.76550926771074" lon="11.642558207084441"><ele>648.8</ele><time>2026-04-25T16:04:11.936Z</time></trkpt><trkpt lat="42.76541786630478" lon="11.642645159158118"><ele>648.0</ele><time>2026-04-25T16:04:12.936Z</time></trkpt><trkpt lat="42.765319740484735" lon="11.642711662839696"><ele>648.0</ele><time>2026-04-25T16:04:13.936Z</time></trkpt><trkpt lat="42.76521234509847" lon="11.642754414802953"><ele>648.0</ele><time>2026-04-25T16:04:14.936Z</time></trkpt><trkpt lat="42.76510600072668" lon="11.642760006658156"><ele>648.0</ele><time>2026-04-25T16:04:15.936Z</time></trkpt><trkpt lat="42.764996660079234" lon="11.642729140985608"><ele>648.0</ele><time>2026-04-25T16:04:16.936Z</time></trkpt><trkpt lat="42.7649052008782" lon="11.642664178077373"><ele>648.0</ele><time>2026-04-25T16:04:17.936Z</time></trkpt><trkpt lat="42.76483029246296" lon="11.642560011746678"><ele>646.0</ele><time>2026-04-25T16:04:18.936Z</time></trkpt><trkpt lat="42.764758527244155" lon="11.64241906304399"><ele>644.0</ele><time>2026-04-25T16:04:19.936Z</time></trkpt><trkpt lat="42.76468858352492" lon="11.642263330883143"><ele>642.0</ele><time>2026-04-25T16:04:20.936Z</time></trkpt><trkpt lat="42.764610576037164" lon="11.64210241378463"><ele>640.0</ele><time>2026-04-25T16:04:21.936Z</time></trkpt><trkpt lat="42.764532211410966" lon="11.641946974253411"><ele>638.5</ele><time>2026-04-25T16:04:22.936Z</time></trkpt><trkpt lat="42.7644603378709" lon="11.641786643412116"><ele>637.0</ele><time>2026-04-25T16:04:23.936Z</time></trkpt><trkpt lat="42.76438822220679" lon="11.641639079110556"><ele>635.5</ele><time>2026-04-25T16:04:24.936Z</time></trkpt><trkpt lat="42.76431490054818" lon="11.64150186511721"><ele>634.0</ele><time>2026-04-25T16:04:25.936Z</time></trkpt><trkpt lat="42.76425263243685" lon="11.641355459159424"><ele>633.5</ele><time>2026-04-25T16:04:26.936Z</time></trkpt><trkpt lat="42.76414742569619" lon="11.641261155065155"><ele>633.0</ele><time>2026-04-25T16:04:27.936Z</time></trkpt><trkpt lat="42.76405859535037" lon="11.641171003125365"><ele>632.5</ele><time>2026-04-25T16:04:28.936Z</time></trkpt><trkpt lat="42.76396059204662" lon="11.641087570484055"><ele>632.0</ele><time>2026-04-25T16:04:29.936Z</time></trkpt><trkpt lat="42.763868395642" lon="11.64100026034162"><ele>631.4</ele><time>2026-04-25T16:04:30.936Z</time></trkpt><trkpt lat="42.763778112153496" lon="11.640924374282532"><ele>630.8000000000001</ele><time>2026-04-25T16:04:31.936Z</time></trkpt><trkpt lat="42.76368983581268" lon="11.640851287832893"><ele>630.2</ele><time>2026-04-25T16:04:32.936Z</time></trkpt><trkpt lat="42.763607327750215" lon="11.64078375889196"><ele>629.6</ele><time>2026-04-25T16:04:33.936Z</time></trkpt><trkpt lat="42.76352704381242" lon="11.640721007847002"><ele>629.0</ele><time>2026-04-25T16:04:34.936Z</time></trkpt><trkpt lat="42.763454221786006" lon="11.640655772832194"><ele>629.0</ele><time>2026-04-25T16:04:35.936Z</time></trkpt><trkpt lat="42.763385330984434" lon="11.640585260211772"><ele>629.0</ele><time>2026-04-25T16:04:36.936Z</time></trkpt><trkpt lat="42.76332397330186" lon="11.64050618947158"><ele>629.0</ele><time>2026-04-25T16:04:37.936Z</time></trkpt><trkpt lat="42.7632642138376" lon="11.640417486454753"><ele>629.0</ele><time>2026-04-25T16:04:38.936Z</time></trkpt><trkpt lat="42.76321990844274" lon="11.640299790267497"><ele>629.0</ele><time>2026-04-25T16:04:39.936Z</time></trkpt><trkpt lat="42.763197800137334" lon="11.64016679150107"><ele>629.0</ele><time>2026-04-25T16:04:40.936Z</time></trkpt><trkpt lat="42.76319449821573" lon="11.640023942886351"><ele>629.0</ele><time>2026-04-25T16:04:41.936Z</time></trkpt><trkpt lat="42.76320699153041" lon="11.639879311249873"><ele>629.0</ele><time>2026-04-25T16:04:42.935Z</time></trkpt><trkpt lat="42.76323440811393" lon="11.639727719274731"><ele>629.0</ele><time>2026-04-25T16:04:43.935Z</time></trkpt><trkpt lat="42.76326601191837" lon="11.639565289186374"><ele>626.75</ele><time>2026-04-25T16:04:44.935Z</time></trkpt><trkpt lat="42.76330103103582" lon="11.63939813671945"><ele>624.5</ele><time>2026-04-25T16:04:45.935Z</time></trkpt><trkpt lat="42.763338428602225" lon="11.639223878507446"><ele>622.25</ele><time>2026-04-25T16:04:46.935Z</time></trkpt><trkpt lat="42.76337420788653" lon="11.639036036912028"><ele>620.0</ele><time>2026-04-25T16:04:47.935Z</time></trkpt><trkpt lat="42.763412024130794" lon="11.638849641321798"><ele>620.0</ele><time>2026-04-25T16:04:48.935Z</time></trkpt><trkpt lat="42.763448949269" lon="11.638667546183957"><ele>620.0</ele><time>2026-04-25T16:04:49.935Z</time></trkpt><trkpt lat="42.76348881354689" lon="11.638472484228549"><ele>620.0</ele><time>2026-04-25T16:04:50.935Z</time></trkpt><trkpt lat="42.763521532251275" lon="11.638269943227876"><ele>620.0</ele><time>2026-04-25T16:04:51.935Z</time></trkpt><trkpt lat="42.76355495766541" lon="11.638076300531818"><ele>618.5</ele><time>2026-04-25T16:04:52.935Z</time></trkpt><trkpt lat="42.763576200614764" lon="11.637883167535827"><ele>617.0</ele><time>2026-04-25T16:04:53.935Z</time></trkpt><trkpt lat="42.76357059268396" lon="11.637688275379146"><ele>615.5</ele><time>2026-04-25T16:04:54.935Z</time></trkpt><trkpt lat="42.76354384853009" lon="11.637485201050588"><ele>614.0</ele><time>2026-04-25T16:04:55.935Z</time></trkpt><trkpt lat="42.763495780160476" lon="11.637281112218659"><ele>614.0</ele><time>2026-04-25T16:04:56.935Z</time></trkpt><trkpt lat="42.76344720893538" lon="11.637066278753958"><ele>614.0</ele><time>2026-04-25T16:04:57.935Z</time></trkpt><trkpt lat="42.763401698372434" lon="11.636845870697458"><ele>614.0</ele><time>2026-04-25T16:04:58.935Z</time></trkpt><trkpt lat="42.763356631337295" lon="11.636629109407298"><ele>612.0</ele><time>2026-04-25T16:04:59.935Z</time></trkpt><trkpt lat="42.763305361708994" lon="11.636416080089905"><ele>610.0</ele><time>2026-04-25T16:05:00.935Z</time></trkpt><trkpt lat="42.76324254743254" lon="11.636212072985984"><ele>608.0</ele><time>2026-04-25T16:05:01.935Z</time></trkpt><trkpt lat="42.76317184571982" lon="11.636008814350646"><ele>606.3333333333333</ele><time>2026-04-25T16:05:02.935Z</time></trkpt><trkpt lat="42.763084698837474" lon="11.635827183583986"><ele>604.6666666666666</ele><time>2026-04-25T16:05:03.935Z</time></trkpt><trkpt lat="42.76297792988023" lon="11.635666767729843"><ele>603.0</ele><time>2026-04-25T16:05:04.937Z</time></trkpt><trkpt lat="42.76285558924036" lon="11.635529224506355"><ele>603.0</ele><time>2026-04-25T16:05:05.937Z</time></trkpt><trkpt lat="42.762723089185954" lon="11.635405252627256"><ele>603.0</ele><time>2026-04-25T16:05:06.937Z</time></trkpt><trkpt lat="42.762574449490714" lon="11.635287234495859"><ele>603.0</ele><time>2026-04-25T16:05:07.936Z</time></trkpt><trkpt lat="42.76241682149672" lon="11.635168199363132"><ele>601.0</ele><time>2026-04-25T16:05:08.937Z</time></trkpt><trkpt lat="42.76225984136399" lon="11.63505219908626"><ele>599.0</ele><time>2026-04-25T16:05:09.937Z</time></trkpt><trkpt lat="42.762107826352974" lon="11.634931580010448"><ele>597.0</ele><time>2026-04-25T16:05:10.937Z</time></trkpt><trkpt lat="42.761950067127486" lon="11.63480879639915"><ele>595.0</ele><time>2026-04-25T16:05:11.936Z</time></trkpt><trkpt lat="42.761788740042405" lon="11.63468274319828"><ele>593.0</ele><time>2026-04-25T16:05:12.936Z</time></trkpt><trkpt lat="42.76163270093102" lon="11.634555727936283"><ele>591.0</ele><time>2026-04-25T16:05:13.937Z</time></trkpt><trkpt lat="42.761494912275964" lon="11.634447629085686"><ele>591.0</ele><time>2026-04-25T16:05:14.937Z</time></trkpt><trkpt lat="42.76138320166504" lon="11.63435794885447"><ele>591.0</ele><time>2026-04-25T16:05:15.937Z</time></trkpt><trkpt lat="42.761296074116686" lon="11.634281992650813"><ele>591.0</ele><time>2026-04-25T16:05:16.936Z</time></trkpt><trkpt lat="42.761225503463116" lon="11.634227592430806"><ele>591.0</ele><time>2026-04-25T16:05:17.936Z</time></trkpt><trkpt lat="42.7611722898866" lon="11.634176452111602"><ele>591.0</ele><time>2026-04-25T16:05:18.936Z</time></trkpt><trkpt lat="42.76110614304163" lon="11.63414211314084"><ele>591.0</ele><time>2026-04-25T16:05:20.936Z</time></trkpt><trkpt lat="42.76107415588662" lon="11.634045128748054"><ele>591.0</ele><time>2026-04-25T16:05:22.936Z</time></trkpt><trkpt lat="42.7610133227742" lon="11.633931137105343"><ele>591.0</ele><time>2026-04-25T16:05:24.936Z</time></trkpt><trkpt lat="42.76100111910282" lon="11.633800508758023"><ele>591.0</ele><time>2026-04-25T16:05:26.936Z</time></trkpt><trkpt lat="42.76103013643112" lon="11.633720028731103"><ele>591.0</ele><time>2026-04-25T16:05:42.936Z</time></trkpt><trkpt lat="42.76101445363904" lon="11.633815550886366"><ele>591.0</ele><time>2026-04-25T16:05:54.935Z</time></trkpt><trkpt lat="42.76101739000019" lon="11.633948874980208"><ele>591.0</ele><time>2026-04-25T16:05:57.935Z</time></trkpt><trkpt lat="42.76104489210353" lon="11.634039187173864"><ele>591.0</ele><time>2026-04-25T16:05:59.935Z</time></trkpt><trkpt lat="42.761090645154574" lon="11.634114674208192"><ele>591.0</ele><time>2026-04-25T16:06:03.935Z</time></trkpt><trkpt lat="42.76080882668869" lon="11.63431759418972"><ele>588.0</ele><time>2026-04-25T16:06:07.935Z</time></trkpt><trkpt lat="42.7607347196667" lon="11.63440798935587"><ele>585.0</ele><time>2026-04-25T16:06:08.935Z</time></trkpt><trkpt lat="42.760658895573" lon="11.634533818711983"><ele>582.0</ele><time>2026-04-25T16:06:09.935Z</time></trkpt><trkpt lat="42.76057719278192" lon="11.634675642413056"><ele>579.0</ele><time>2026-04-25T16:06:10.935Z</time></trkpt><trkpt lat="42.76048849979047" lon="11.63483277693584"><ele>577.6666666666666</ele><time>2026-04-25T16:06:11.935Z</time></trkpt><trkpt lat="42.76039519421144" lon="11.634993096826284"><ele>576.3333333333333</ele><time>2026-04-25T16:06:12.935Z</time></trkpt><trkpt lat="42.7602954781085" lon="11.635164520675094"><ele>575.0</ele><time>2026-04-25T16:06:13.935Z</time></trkpt><trkpt lat="42.76019642508854" lon="11.635341248736692"><ele>570.6666666666666</ele><time>2026-04-25T16:06:14.935Z</time></trkpt><trkpt lat="42.76009961624444" lon="11.635522306302509"><ele>566.3333333333334</ele><time>2026-04-25T16:06:15.935Z</time></trkpt><trkpt lat="42.76000322675514" lon="11.635704829550638"><ele>562.0</ele><time>2026-04-25T16:06:16.935Z</time></trkpt><trkpt lat="42.75990599010678" lon="11.63589083268188"><ele>562.0</ele><time>2026-04-25T16:06:17.935Z</time></trkpt><trkpt lat="42.75980926564408" lon="11.63607772067603"><ele>562.0</ele><time>2026-04-25T16:06:18.935Z</time></trkpt><trkpt lat="42.759713582382204" lon="11.636267553840657"><ele>562.0</ele><time>2026-04-25T16:06:19.935Z</time></trkpt><trkpt lat="42.759619619038155" lon="11.636460959940896"><ele>561.3333333333334</ele><time>2026-04-25T16:06:20.935Z</time></trkpt><trkpt lat="42.759526117094715" lon="11.636645744897113"><ele>560.6666666666666</ele><time>2026-04-25T16:06:21.935Z</time></trkpt><trkpt lat="42.75943265632744" lon="11.63682762779037"><ele>560.0</ele><time>2026-04-25T16:06:22.935Z</time></trkpt><trkpt lat="42.75935115068502" lon="11.63700289265089"><ele>557.75</ele><time>2026-04-25T16:06:23.935Z</time></trkpt><trkpt lat="42.75928285876467" lon="11.637162455412172"><ele>555.5</ele><time>2026-04-25T16:06:24.934Z</time></trkpt><trkpt lat="42.75923318753375" lon="11.637331504096073"><ele>553.25</ele><time>2026-04-25T16:06:25.934Z</time></trkpt><trkpt lat="42.75920131132994" lon="11.637499298623323"><ele>551.0</ele><time>2026-04-25T16:06:26.934Z</time></trkpt><trkpt lat="42.75919537048991" lon="11.637672335124625"><ele>551.25</ele><time>2026-04-25T16:06:27.934Z</time></trkpt><trkpt lat="42.75920395424656" lon="11.637858471884847"><ele>551.5</ele><time>2026-04-25T16:06:28.934Z</time></trkpt><trkpt lat="42.759219661173724" lon="11.638053909647995"><ele>551.75</ele><time>2026-04-25T16:06:29.934Z</time></trkpt><trkpt lat="42.759234561431875" lon="11.638249561246399"><ele>552.0</ele><time>2026-04-25T16:06:30.934Z</time></trkpt><trkpt lat="42.75925091927223" lon="11.638435103707272"><ele>552.0</ele><time>2026-04-25T16:06:31.934Z</time></trkpt><trkpt lat="42.75927120090524" lon="11.638608485976611"><ele>552.0</ele><time>2026-04-25T16:06:32.934Z</time></trkpt><trkpt lat="42.7592854178724" lon="11.63875750636182"><ele>552.0</ele><time>2026-04-25T16:06:33.934Z</time></trkpt><trkpt lat="42.75928503339153" lon="11.638895145914052"><ele>552.0</ele><time>2026-04-25T16:06:34.934Z</time></trkpt><trkpt lat="42.759269454804574" lon="11.639035990510436"><ele>552.0</ele><time>2026-04-25T16:06:35.934Z</time></trkpt><trkpt lat="42.759240167467276" lon="11.639184715411625"><ele>552.5</ele><time>2026-04-25T16:06:36.934Z</time></trkpt><trkpt lat="42.75919374397696" lon="11.639335507280093"><ele>553.0</ele><time>2026-04-25T16:06:37.934Z</time></trkpt><trkpt lat="42.75913345666746" lon="11.639490235210143"><ele>553.5</ele><time>2026-04-25T16:06:38.934Z</time></trkpt><trkpt lat="42.75907138743888" lon="11.639638112480124"><ele>554.0</ele><time>2026-04-25T16:06:39.934Z</time></trkpt><trkpt lat="42.75901840130184" lon="11.639775376459466"><ele>554.8333333333333</ele><time>2026-04-25T16:06:40.934Z</time></trkpt><trkpt lat="42.75896351627573" lon="11.639881954087809"><ele>555.6666666666666</ele><time>2026-04-25T16:06:41.934Z</time></trkpt><trkpt lat="42.758903063283974" lon="11.639945242575351"><ele>556.5</ele><time>2026-04-25T16:06:42.934Z</time></trkpt><trkpt lat="42.75882242824755" lon="11.639967917568006"><ele>557.3333333333334</ele><time>2026-04-25T16:06:43.934Z</time></trkpt><trkpt lat="42.758732507797944" lon="11.63995301485685"><ele>558.1666666666667</ele><time>2026-04-25T16:06:44.934Z</time></trkpt><trkpt lat="42.758641083423655" lon="11.639914613780924"><ele>559.0</ele><time>2026-04-25T16:06:45.934Z</time></trkpt><trkpt lat="42.75855183226794" lon="11.639875567612108"><ele>558.0</ele><time>2026-04-25T16:06:46.934Z</time></trkpt><trkpt lat="42.758443522621924" lon="11.639840389464833"><ele>557.0</ele><time>2026-04-25T16:06:47.934Z</time></trkpt><trkpt lat="42.758319875306505" lon="11.639795271410094"><ele>556.0</ele><time>2026-04-25T16:06:48.934Z</time></trkpt><trkpt lat="42.75818506901523" lon="11.639745061139914"><ele>555.0</ele><time>2026-04-25T16:06:49.934Z</time></trkpt><trkpt lat="42.75804735988332" lon="11.639692121488405"><ele>555.0</ele><time>2026-04-25T16:06:50.934Z</time></trkpt><trkpt lat="42.757898521259484" lon="11.639647782418209"><ele>555.0</ele><time>2026-04-25T16:06:51.934Z</time></trkpt><trkpt lat="42.75775664149672" lon="11.639600602463293"><ele>555.0</ele><time>2026-04-25T16:06:52.934Z</time></trkpt><trkpt lat="42.757598952033824" lon="11.639543526703637"><ele>555.0</ele><time>2026-04-25T16:06:53.934Z</time></trkpt><trkpt lat="42.75743920025116" lon="11.639487772436128"><ele>555.0</ele><time>2026-04-25T16:06:54.934Z</time></trkpt><trkpt lat="42.757293836429255" lon="11.639438976315306"><ele>555.0</ele><time>2026-04-25T16:06:55.934Z</time></trkpt><trkpt lat="42.757155761776744" lon="11.63939926880343"><ele>555.0</ele><time>2026-04-25T16:06:56.934Z</time></trkpt><trkpt lat="42.757021908752215" lon="11.63938600088877"><ele>555.0</ele><time>2026-04-25T16:06:57.934Z</time></trkpt><trkpt lat="42.75689517830645" lon="11.639400542288623"><ele>555.0</ele><time>2026-04-25T16:06:58.933Z</time></trkpt><trkpt lat="42.75678381001598" lon="11.639434547534405"><ele>555.0</ele><time>2026-04-25T16:06:59.933Z</time></trkpt><trkpt lat="42.75667036444742" lon="11.639495705341766"><ele>556.75</ele><time>2026-04-25T16:07:00.933Z</time></trkpt><trkpt lat="42.75655482240784" lon="11.639573503776273"><ele>558.5</ele><time>2026-04-25T16:07:01.933Z</time></trkpt><trkpt lat="42.75643309372135" lon="11.639648778783949"><ele>560.25</ele><time>2026-04-25T16:07:02.933Z</time></trkpt><trkpt lat="42.7563173924575" lon="11.639720918413662"><ele>562.0</ele><time>2026-04-25T16:07:03.933Z</time></trkpt><trkpt lat="42.75619831311847" lon="11.639770728498316"><ele>562.0</ele><time>2026-04-25T16:07:04.933Z</time></trkpt><trkpt lat="42.756088463619236" lon="11.639792655006726"><ele>562.0</ele><time>2026-04-25T16:07:05.933Z</time></trkpt><trkpt lat="42.7559793138885" lon="11.639783293167177"><ele>562.0</ele><time>2026-04-25T16:07:06.933Z</time></trkpt><trkpt lat="42.75587320840302" lon="11.639742163124332"><ele>562.0</ele><time>2026-04-25T16:07:07.933Z</time></trkpt><trkpt lat="42.7557794207504" lon="11.639663343856874"><ele>562.0</ele><time>2026-04-25T16:07:08.933Z</time></trkpt><trkpt lat="42.755691455468906" lon="11.639563270236625"><ele>562.0</ele><time>2026-04-25T16:07:09.933Z</time></trkpt><trkpt lat="42.755601622468106" lon="11.639453540049237"><ele>562.0</ele><time>2026-04-25T16:07:10.936Z</time></trkpt><trkpt lat="42.755513375996316" lon="11.639325812779047"><ele>562.0</ele><time>2026-04-25T16:07:11.935Z</time></trkpt><trkpt lat="42.75542454543299" lon="11.63917993845704"><ele>562.0</ele><time>2026-04-25T16:07:12.935Z</time></trkpt><trkpt lat="42.75533312139587" lon="11.639033431915674"><ele>562.0</ele><time>2026-04-25T16:07:13.935Z</time></trkpt><trkpt lat="42.75523403160915" lon="11.638879564260293"><ele>562.0</ele><time>2026-04-25T16:07:14.935Z</time></trkpt><trkpt lat="42.75513100223257" lon="11.638726181252675"><ele>562.0</ele><time>2026-04-25T16:07:15.935Z</time></trkpt><trkpt lat="42.755035869020965" lon="11.638574909937779"><ele>562.0</ele><time>2026-04-25T16:07:16.935Z</time></trkpt><trkpt lat="42.75493836827101" lon="11.638429509526771"><ele>563.5</ele><time>2026-04-25T16:07:17.936Z</time></trkpt><trkpt lat="42.75483887154554" lon="11.638298967683852"><ele>565.0</ele><time>2026-04-25T16:07:18.936Z</time></trkpt><trkpt lat="42.75473335688859" lon="11.638186023082085"><ele>566.5</ele><time>2026-04-25T16:07:19.936Z</time></trkpt><trkpt lat="42.754616130738924" lon="11.638090025837931"><ele>568.0</ele><time>2026-04-25T16:07:20.935Z</time></trkpt><trkpt lat="42.75448729130193" lon="11.638016901712074"><ele>571.0</ele><time>2026-04-25T16:07:21.935Z</time></trkpt><trkpt lat="42.75435049852653" lon="11.637952286068154"><ele>574.0</ele><time>2026-04-25T16:07:22.936Z</time></trkpt><trkpt lat="42.75420639982508" lon="11.637887945959113"><ele>577.0</ele><time>2026-04-25T16:07:23.936Z</time></trkpt><trkpt lat="42.75405859705592" lon="11.637823654363377"><ele>574.3333333333334</ele><time>2026-04-25T16:07:24.936Z</time></trkpt><trkpt lat="42.75391351108313" lon="11.637761494564446"><ele>571.6666666666666</ele><time>2026-04-25T16:07:25.936Z</time></trkpt><trkpt lat="42.75376503574535" lon="11.6376902745749"><ele>569.0</ele><time>2026-04-25T16:07:26.936Z</time></trkpt><trkpt lat="42.753632697378094" lon="11.637619350687094"><ele>571.0</ele><time>2026-04-25T16:07:27.936Z</time></trkpt><trkpt lat="42.75350717299383" lon="11.637553867379413"><ele>573.0</ele><time>2026-04-25T16:07:28.936Z</time></trkpt><trkpt lat="42.753387593342474" lon="11.63747272080959"><ele>575.0</ele><time>2026-04-25T16:07:29.936Z</time></trkpt><trkpt lat="42.75327599993018" lon="11.63737092287562"><ele>577.0</ele><time>2026-04-25T16:07:30.936Z</time></trkpt><trkpt lat="42.753164657946755" lon="11.637254556749005"><ele>577.0</ele><time>2026-04-25T16:07:31.936Z</time></trkpt><trkpt lat="42.75305613110808" lon="11.63712774131176"><ele>577.0</ele><time>2026-04-25T16:07:32.936Z</time></trkpt><trkpt lat="42.752945775329515" lon="11.637002041291696"><ele>577.0</ele><time>2026-04-25T16:07:33.936Z</time></trkpt><trkpt lat="42.75282678848908" lon="11.636885270450811"><ele>577.0</ele><time>2026-04-25T16:07:34.936Z</time></trkpt><trkpt lat="42.75269567243691" lon="11.636780375280065"><ele>580.6666666666667</ele><time>2026-04-25T16:07:35.936Z</time></trkpt><trkpt lat="42.752560948216" lon="11.636677851099634"><ele>584.3333333333334</ele><time>2026-04-25T16:07:36.936Z</time></trkpt><trkpt lat="42.75243441728844" lon="11.636552221349161"><ele>588.0</ele><time>2026-04-25T16:07:37.936Z</time></trkpt><trkpt lat="42.7523031353819" lon="11.636441865429996"><ele>588.0</ele><time>2026-04-25T16:07:38.936Z</time></trkpt><trkpt lat="42.75216795956474" lon="11.636351764014924"><ele>588.0</ele><time>2026-04-25T16:07:39.936Z</time></trkpt><trkpt lat="42.752052534694684" lon="11.636259592655884"><ele>588.0</ele><time>2026-04-25T16:07:40.936Z</time></trkpt><trkpt lat="42.751940230417816" lon="11.636195186723256"><ele>588.0</ele><time>2026-04-25T16:07:41.935Z</time></trkpt><trkpt lat="42.75183009893774" lon="11.636160724544201"><ele>590.4</ele><time>2026-04-25T16:07:42.935Z</time></trkpt><trkpt lat="42.75172315987263" lon="11.636174938886937"><ele>592.8</ele><time>2026-04-25T16:07:43.935Z</time></trkpt><trkpt lat="42.75162790356517" lon="11.636235640233187"><ele>595.2</ele><time>2026-04-25T16:07:44.935Z</time></trkpt><trkpt lat="42.75154167809999" lon="11.636335862308753"><ele>597.6</ele><time>2026-04-25T16:07:45.935Z</time></trkpt><trkpt lat="42.751475387458626" lon="11.636456178571823"><ele>600.0</ele><time>2026-04-25T16:07:46.935Z</time></trkpt><trkpt lat="42.751437686705536" lon="11.636597409301533"><ele>600.0</ele><time>2026-04-25T16:07:47.935Z</time></trkpt><trkpt lat="42.75141506406488" lon="11.636756852304892"><ele>600.0</ele><time>2026-04-25T16:07:48.935Z</time></trkpt><trkpt lat="42.751398067790376" lon="11.636925355040157"><ele>600.0</ele><time>2026-04-25T16:07:49.935Z</time></trkpt><trkpt lat="42.751371566783135" lon="11.637088551508354"><ele>600.0</ele><time>2026-04-25T16:07:50.935Z</time></trkpt><trkpt lat="42.75132207532063" lon="11.637242073464106"><ele>601.0</ele><time>2026-04-25T16:07:51.935Z</time></trkpt><trkpt lat="42.75126201457004" lon="11.637408266793145"><ele>602.0</ele><time>2026-04-25T16:07:52.935Z</time></trkpt><trkpt lat="42.75117924953866" lon="11.637566894557974"><ele>603.0</ele><time>2026-04-25T16:07:53.935Z</time></trkpt><trkpt lat="42.75107600623235" lon="11.63771230598727"><ele>604.0</ele><time>2026-04-25T16:07:54.935Z</time></trkpt><trkpt lat="42.75097848488131" lon="11.637851251311053"><ele>606.25</ele><time>2026-04-25T16:07:55.935Z</time></trkpt><trkpt lat="42.75088122535265" lon="11.637977761425658"><ele>608.5</ele><time>2026-04-25T16:07:56.935Z</time></trkpt><trkpt lat="42.75077673572571" lon="11.638079073137884"><ele>610.75</ele><time>2026-04-25T16:07:57.935Z</time></trkpt><trkpt lat="42.75068228954787" lon="11.638179134708919"><ele>613.0</ele><time>2026-04-25T16:07:58.935Z</time></trkpt><trkpt lat="42.750572265858096" lon="11.638202101270895"><ele>613.0</ele><time>2026-04-25T16:07:59.935Z</time></trkpt><trkpt lat="42.75046145467884" lon="11.63820230569771"><ele>613.0</ele><time>2026-04-25T16:08:00.935Z</time></trkpt><trkpt lat="42.75035050202758" lon="11.63815559048667"><ele>613.0</ele><time>2026-04-25T16:08:01.935Z</time></trkpt><trkpt lat="42.75024471002204" lon="11.638105626314502"><ele>613.0</ele><time>2026-04-25T16:08:02.935Z</time></trkpt><trkpt lat="42.750138329543795" lon="11.638034237025044"><ele>612.8</ele><time>2026-04-25T16:08:03.935Z</time></trkpt><trkpt lat="42.750039279424755" lon="11.63797834532127"><ele>612.5999999999999</ele><time>2026-04-25T16:08:04.935Z</time></trkpt><trkpt lat="42.74993770230034" lon="11.637906370941673"><ele>612.4000000000001</ele><time>2026-04-25T16:08:05.935Z</time></trkpt><trkpt lat="42.74983267115273" lon="11.637861579612304"><ele>612.2</ele><time>2026-04-25T16:08:06.935Z</time></trkpt><trkpt lat="42.7497180539014" lon="11.637851115403324"><ele>612.0</ele><time>2026-04-25T16:08:07.935Z</time></trkpt><trkpt lat="42.7495997757526" lon="11.637876658660677"><ele>612.0</ele><time>2026-04-25T16:08:08.935Z</time></trkpt><trkpt lat="42.74947432276277" lon="11.637933796959208"><ele>612.0</ele><time>2026-04-25T16:08:09.935Z</time></trkpt><trkpt lat="42.74934679151749" lon="11.637993059733926"><ele>612.0</ele><time>2026-04-25T16:08:10.935Z</time></trkpt><trkpt lat="42.74920848803572" lon="11.638057860030449"><ele>612.0</ele><time>2026-04-25T16:08:11.935Z</time></trkpt><trkpt lat="42.749054513176624" lon="11.638132446682928"><ele>613.6666666666666</ele><time>2026-04-25T16:08:12.935Z</time></trkpt><trkpt lat="42.748895611832765" lon="11.638207779383011"><ele>615.3333333333333</ele><time>2026-04-25T16:08:13.935Z</time></trkpt><trkpt lat="42.74874111042206" lon="11.63827796662976"><ele>617.0</ele><time>2026-04-25T16:08:14.935Z</time></trkpt><trkpt lat="42.74859704788581" lon="11.638336768219528"><ele>616.25</ele><time>2026-04-25T16:08:15.934Z</time></trkpt><trkpt lat="42.74845844295837" lon="11.638367531389944"><ele>615.5</ele><time>2026-04-25T16:08:16.934Z</time></trkpt><trkpt lat="42.74832229236374" lon="11.638371120051488"><ele>614.75</ele><time>2026-04-25T16:08:17.934Z</time></trkpt><trkpt lat="42.74817599401392" lon="11.638341147096181"><ele>614.0</ele><time>2026-04-25T16:08:18.934Z</time></trkpt><trkpt lat="42.74801678388802" lon="11.63830074420258"><ele>614.0</ele><time>2026-04-25T16:08:19.934Z</time></trkpt><trkpt lat="42.74784662670291" lon="11.638259483035279"><ele>614.0</ele><time>2026-04-25T16:08:20.934Z</time></trkpt><trkpt lat="42.747667540526756" lon="11.638224851622631"><ele>614.0</ele><time>2026-04-25T16:08:21.934Z</time></trkpt><trkpt lat="42.747489108315676" lon="11.638190348705997"><ele>615.6666666666666</ele><time>2026-04-25T16:08:22.934Z</time></trkpt><trkpt lat="42.74731177791711" lon="11.638165646944996"><ele>617.3333333333334</ele><time>2026-04-25T16:08:23.934Z</time></trkpt><trkpt lat="42.74713873488278" lon="11.638155683368876"><ele>619.0</ele><time>2026-04-25T16:08:24.934Z</time></trkpt><trkpt lat="42.74696512070101" lon="11.638153770210259"><ele>619.0</ele><time>2026-04-25T16:08:25.934Z</time></trkpt><trkpt lat="42.7467928730938" lon="11.638162928551079"><ele>619.0</ele><time>2026-04-25T16:08:26.934Z</time></trkpt><trkpt lat="42.746619304699735" lon="11.638168018988218"><ele>619.0</ele><time>2026-04-25T16:08:27.934Z</time></trkpt><trkpt lat="42.74645495218661" lon="11.638169338183266"><ele>619.0</ele><time>2026-04-25T16:08:28.934Z</time></trkpt><trkpt lat="42.74629038551697" lon="11.638160827156199"><ele>619.0</ele><time>2026-04-25T16:08:29.934Z</time></trkpt><trkpt lat="42.74613325907268" lon="11.638130714628057"><ele>619.0</ele><time>2026-04-25T16:08:30.934Z</time></trkpt><trkpt lat="42.74596699008936" lon="11.638082434394036"><ele>620.3333333333334</ele><time>2026-04-25T16:08:31.934Z</time></trkpt><trkpt lat="42.745789571888345" lon="11.638032611286754"><ele>621.6666666666666</ele><time>2026-04-25T16:08:32.934Z</time></trkpt><trkpt lat="42.74561525744091" lon="11.637987200238582"><ele>623.0</ele><time>2026-04-25T16:08:33.934Z</time></trkpt><trkpt lat="42.74544631791386" lon="11.63796057576163"><ele>623.0</ele><time>2026-04-25T16:08:34.934Z</time></trkpt><trkpt lat="42.745276185260224" lon="11.6379621686999"><ele>623.0</ele><time>2026-04-25T16:08:35.934Z</time></trkpt><trkpt lat="42.745091005929176" lon="11.637982455086025"><ele>623.0</ele><time>2026-04-25T16:08:36.934Z</time></trkpt><trkpt lat="42.74490464411234" lon="11.638003048433946"><ele>622.6666666666666</ele><time>2026-04-25T16:08:37.934Z</time></trkpt><trkpt lat="42.744720579791604" lon="11.638021044230609"><ele>622.3333333333334</ele><time>2026-04-25T16:08:38.934Z</time></trkpt><trkpt lat="42.74457151965841" lon="11.638032012563386"><ele>622.0</ele><time>2026-04-25T16:08:39.934Z</time></trkpt><trkpt lat="42.744451857362925" lon="11.638059109112872"><ele>621.25</ele><time>2026-04-25T16:08:40.934Z</time></trkpt><trkpt lat="42.744353504004245" lon="11.638121412461864"><ele>620.5</ele><time>2026-04-25T16:08:41.934Z</time></trkpt><trkpt lat="42.744269486270944" lon="11.638207888054955"><ele>619.75</ele><time>2026-04-25T16:08:42.934Z</time></trkpt><trkpt lat="42.74418502967396" lon="11.638324053217133"><ele>619.0</ele><time>2026-04-25T16:08:43.934Z</time></trkpt><trkpt lat="42.7440966679034" lon="11.638459360868893"><ele>619.0</ele><time>2026-04-25T16:08:44.934Z</time></trkpt><trkpt lat="42.74399218517258" lon="11.638618106081916"><ele>619.0</ele><time>2026-04-25T16:08:45.934Z</time></trkpt><trkpt lat="42.743881072858315" lon="11.638778369015954"><ele>619.0</ele><time>2026-04-25T16:08:46.934Z</time></trkpt><trkpt lat="42.7437642143504" lon="11.638955762116405"><ele>619.3333333333334</ele><time>2026-04-25T16:08:47.934Z</time></trkpt><trkpt lat="42.74364735252747" lon="11.639140166763097"><ele>619.6666666666666</ele><time>2026-04-25T16:08:48.934Z</time></trkpt><trkpt lat="42.74352556442198" lon="11.639321572999377"><ele>620.0</ele><time>2026-04-25T16:08:49.933Z</time></trkpt><trkpt lat="42.74340820456461" lon="11.639489601877392"><ele>622.3333333333333</ele><time>2026-04-25T16:08:50.933Z</time></trkpt><trkpt lat="42.743289907952665" lon="11.639659588854629"><ele>624.6666666666666</ele><time>2026-04-25T16:08:51.933Z</time></trkpt><trkpt lat="42.743177380254856" lon="11.63982344477909"><ele>627.0</ele><time>2026-04-25T16:08:52.933Z</time></trkpt><trkpt lat="42.743070963697086" lon="11.639976240490073"><ele>627.0</ele><time>2026-04-25T16:08:53.933Z</time></trkpt><trkpt lat="42.74296924533548" lon="11.64012486100758"><ele>627.0</ele><time>2026-04-25T16:08:54.933Z</time></trkpt><trkpt lat="42.74288095760427" lon="11.640260583393403"><ele>627.0</ele><time>2026-04-25T16:08:55.933Z</time></trkpt><trkpt lat="42.74280573817916" lon="11.640393419566863"><ele>627.0</ele><time>2026-04-25T16:08:56.933Z</time></trkpt><trkpt lat="42.7427606659561" lon="11.640533206938967"><ele>628.8000000000001</ele><time>2026-04-25T16:08:57.933Z</time></trkpt><trkpt lat="42.74274356597174" lon="11.640669968942875"><ele>630.6</ele><time>2026-04-25T16:08:58.933Z</time></trkpt><trkpt lat="42.742743274662814" lon="11.640812927607545"><ele>632.4000000000001</ele><time>2026-04-25T16:08:59.933Z</time></trkpt><trkpt lat="42.74276363649368" lon="11.640965133214932"><ele>634.2</ele><time>2026-04-25T16:09:00.933Z</time></trkpt><trkpt lat="42.7427771618978" lon="11.64112367523351"><ele>636.0</ele><time>2026-04-25T16:09:01.933Z</time></trkpt><trkpt lat="42.742776922397475" lon="11.641287133694783"><ele>634.5</ele><time>2026-04-25T16:09:02.933Z</time></trkpt><trkpt lat="42.74275774361587" lon="11.64144118326661"><ele>633.0</ele><time>2026-04-25T16:09:03.933Z</time></trkpt><trkpt lat="42.74271705476939" lon="11.641598197145038"><ele>631.5</ele><time>2026-04-25T16:09:04.933Z</time></trkpt><trkpt lat="42.74266017699201" lon="11.641759041336474"><ele>630.0</ele><time>2026-04-25T16:09:05.933Z</time></trkpt><trkpt lat="42.7425803870283" lon="11.641905022052807"><ele>634.5</ele><time>2026-04-25T16:09:06.933Z</time></trkpt><trkpt lat="42.7424715563725" lon="11.64202575406088"><ele>639.0</ele><time>2026-04-25T16:09:07.933Z</time></trkpt><trkpt lat="42.74235694553109" lon="11.642128496535154"><ele>643.5</ele><time>2026-04-25T16:09:08.933Z</time></trkpt><trkpt lat="42.74221468903843" lon="11.642206280296882"><ele>648.0</ele><time>2026-04-25T16:09:09.933Z</time></trkpt><trkpt lat="42.742066221911955" lon="11.642284880545525"><ele>648.0</ele><time>2026-04-25T16:09:10.933Z</time></trkpt><trkpt lat="42.74190957834267" lon="11.642367655030009"><ele>648.0</ele><time>2026-04-25T16:09:11.933Z</time></trkpt><trkpt lat="42.741756845931356" lon="11.642443990280984"><ele>648.0</ele><time>2026-04-25T16:09:12.933Z</time></trkpt><trkpt lat="42.74160682705379" lon="11.642507889291323"><ele>644.0</ele><time>2026-04-25T16:09:13.933Z</time></trkpt><trkpt lat="42.74145088536471" lon="11.642565662890611"><ele>640.0</ele><time>2026-04-25T16:09:14.933Z</time></trkpt><trkpt lat="42.74128833093115" lon="11.642611662633959"><ele>636.0</ele><time>2026-04-25T16:09:15.933Z</time></trkpt><trkpt lat="42.74113117753489" lon="11.642650501334874"><ele>639.6666666666666</ele><time>2026-04-25T16:09:16.935Z</time></trkpt><trkpt lat="42.74097583400539" lon="11.642683594849801"><ele>643.3333333333333</ele><time>2026-04-25T16:09:17.934Z</time></trkpt><trkpt lat="42.740827590611595" lon="11.64275040314787"><ele>647.0</ele><time>2026-04-25T16:09:18.934Z</time></trkpt><trkpt lat="42.74068538427849" lon="11.642823506354146"><ele>647.0</ele><time>2026-04-25T16:09:19.934Z</time></trkpt><trkpt lat="42.740540740621476" lon="11.642898371299248"><ele>647.0</ele><time>2026-04-25T16:09:20.934Z</time></trkpt><trkpt lat="42.74040113377795" lon="11.643008744166673"><ele>647.0</ele><time>2026-04-25T16:09:21.934Z</time></trkpt><trkpt lat="42.74025091266272" lon="11.643089982850313"><ele>642.25</ele><time>2026-04-25T16:09:22.934Z</time></trkpt><trkpt lat="42.74011095207134" lon="11.643135826635207"><ele>637.5</ele><time>2026-04-25T16:09:23.935Z</time></trkpt><trkpt lat="42.739991971075725" lon="11.643148679640495"><ele>632.75</ele><time>2026-04-25T16:09:24.934Z</time></trkpt><trkpt lat="42.739864992681895" lon="11.643115382824005"><ele>628.0</ele><time>2026-04-25T16:09:25.934Z</time></trkpt><trkpt lat="42.73973381025602" lon="11.643061351933607"><ele>628.0</ele><time>2026-04-25T16:09:26.934Z</time></trkpt><trkpt lat="42.73958146879282" lon="11.643013577105666"><ele>628.0</ele><time>2026-04-25T16:09:27.934Z</time></trkpt><trkpt lat="42.73941721662068" lon="11.642956763415837"><ele>628.0</ele><time>2026-04-25T16:09:28.935Z</time></trkpt><trkpt lat="42.7392493061193" lon="11.64289296570207"><ele>626.3333333333334</ele><time>2026-04-25T16:09:29.935Z</time></trkpt><trkpt lat="42.73908519925447" lon="11.642843705259695"><ele>624.6666666666666</ele><time>2026-04-25T16:09:30.935Z</time></trkpt><trkpt lat="42.7389208316519" lon="11.642793984517143"><ele>623.0</ele><time>2026-04-25T16:09:31.935Z</time></trkpt><trkpt lat="42.738758367382694" lon="11.642739503052786"><ele>618.3333333333333</ele><time>2026-04-25T16:09:32.935Z</time></trkpt><trkpt lat="42.738591314893505" lon="11.64269479103584"><ele>613.6666666666666</ele><time>2026-04-25T16:09:33.935Z</time></trkpt><trkpt lat="42.73842616670479" lon="11.642664803009293"><ele>609.0</ele><time>2026-04-25T16:09:34.935Z</time></trkpt><trkpt lat="42.73826155084974" lon="11.642650348378929"><ele>609.0</ele><time>2026-04-25T16:09:35.935Z</time></trkpt><trkpt lat="42.73809230447982" lon="11.642650299044941"><ele>609.0</ele><time>2026-04-25T16:09:36.935Z</time></trkpt><trkpt lat="42.7379224063749" lon="11.642658079681398"><ele>609.0</ele><time>2026-04-25T16:09:37.934Z</time></trkpt><trkpt lat="42.73776074134275" lon="11.64266531679242"><ele>607.3333333333334</ele><time>2026-04-25T16:09:38.934Z</time></trkpt><trkpt lat="42.73760699711353" lon="11.642679894973151"><ele>605.6666666666667</ele><time>2026-04-25T16:09:39.934Z</time></trkpt><trkpt lat="42.73745413934274" lon="11.642713098156285"><ele>604.0</ele><time>2026-04-25T16:09:40.934Z</time></trkpt><trkpt lat="42.73729673294629" lon="11.64275655102789"><ele>606.0</ele><time>2026-04-25T16:09:41.934Z</time></trkpt><trkpt lat="42.73713727480215" lon="11.642810677922638"><ele>608.0</ele><time>2026-04-25T16:09:42.934Z</time></trkpt><trkpt lat="42.73697263394362" lon="11.6428719179639"><ele>610.0</ele><time>2026-04-25T16:09:43.934Z</time></trkpt><trkpt lat="42.73681433080818" lon="11.642934463986647"><ele>610.0</ele><time>2026-04-25T16:09:44.934Z</time></trkpt><trkpt lat="42.73665350259583" lon="11.642986586429197"><ele>610.0</ele><time>2026-04-25T16:09:45.934Z</time></trkpt><trkpt lat="42.73651393436882" lon="11.643004042931597"><ele>610.0</ele><time>2026-04-25T16:09:46.934Z</time></trkpt><trkpt lat="42.73637561108471" lon="11.642987605816844"><ele>610.0</ele><time>2026-04-25T16:09:47.934Z</time></trkpt><trkpt lat="42.73624397471399" lon="11.642940974067336"><ele>610.0</ele><time>2026-04-25T16:09:48.934Z</time></trkpt><trkpt lat="42.736119288289906" lon="11.642866297399095"><ele>610.0</ele><time>2026-04-25T16:09:49.934Z</time></trkpt><trkpt lat="42.73597581021895" lon="11.642850756109784"><ele>610.0</ele><time>2026-04-25T16:09:50.934Z</time></trkpt><trkpt lat="42.73582826818846" lon="11.642853248352143"><ele>610.0</ele><time>2026-04-25T16:09:51.934Z</time></trkpt><trkpt lat="42.73568316162027" lon="11.642886889456742"><ele>608.5</ele><time>2026-04-25T16:09:52.934Z</time></trkpt><trkpt lat="42.735542908992684" lon="11.642926108247972"><ele>607.0</ele><time>2026-04-25T16:09:53.934Z</time></trkpt><trkpt lat="42.73540275231739" lon="11.6429621438956"><ele>605.5</ele><time>2026-04-25T16:09:54.934Z</time></trkpt><trkpt lat="42.735266631979606" lon="11.643003070733625"><ele>604.0</ele><time>2026-04-25T16:09:55.934Z</time></trkpt><trkpt lat="42.73513459153235" lon="11.643057424383935"><ele>602.0</ele><time>2026-04-25T16:09:56.934Z</time></trkpt><trkpt lat="42.73500179572824" lon="11.643120904109896"><ele>600.0</ele><time>2026-04-25T16:09:57.934Z</time></trkpt><trkpt lat="42.73486792979818" lon="11.643185871738854"><ele>598.0</ele><time>2026-04-25T16:09:58.934Z</time></trkpt><trkpt lat="42.7347358208202" lon="11.643246560857046"><ele>596.0</ele><time>2026-04-25T16:09:59.934Z</time></trkpt><trkpt lat="42.73460156563389" lon="11.643303248252577"><ele>596.0</ele><time>2026-04-25T16:10:00.934Z</time></trkpt><trkpt lat="42.734465570570556" lon="11.643356115086691"><ele>596.0</ele><time>2026-04-25T16:10:01.934Z</time></trkpt><trkpt lat="42.73432281052358" lon="11.643387379602999"><ele>596.0</ele><time>2026-04-25T16:10:02.934Z</time></trkpt><trkpt lat="42.734180050183845" lon="11.64338083479109"><ele>596.0</ele><time>2026-04-25T16:10:03.934Z</time></trkpt><trkpt lat="42.73404201667917" lon="11.643336107011148"><ele>595.25</ele><time>2026-04-25T16:10:04.934Z</time></trkpt><trkpt lat="42.7339128932766" lon="11.64325440538319"><ele>594.5</ele><time>2026-04-25T16:10:05.934Z</time></trkpt><trkpt lat="42.7337893552835" lon="11.643146787823126"><ele>593.75</ele><time>2026-04-25T16:10:06.934Z</time></trkpt><trkpt lat="42.733663341869004" lon="11.643027033672707"><ele>593.0</ele><time>2026-04-25T16:10:07.934Z</time></trkpt><trkpt lat="42.73353259137614" lon="11.642938973052145"><ele>593.0</ele><time>2026-04-25T16:10:08.934Z</time></trkpt><trkpt lat="42.7334064979085" lon="11.64288489942696"><ele>593.0</ele><time>2026-04-25T16:10:09.934Z</time></trkpt><trkpt lat="42.73328070678159" lon="11.64285658694051"><ele>593.0</ele><time>2026-04-25T16:10:10.934Z</time></trkpt><trkpt lat="42.73315267218195" lon="11.642857384988304"><ele>593.0</ele><time>2026-04-25T16:10:11.933Z</time></trkpt><trkpt lat="42.73302635298326" lon="11.642878824865448"><ele>593.0</ele><time>2026-04-25T16:10:12.933Z</time></trkpt><trkpt lat="42.73289519113672" lon="11.642911830174304"><ele>593.0</ele><time>2026-04-25T16:10:13.933Z</time></trkpt><trkpt lat="42.732764794060586" lon="11.64295217684237"><ele>593.0</ele><time>2026-04-25T16:10:14.933Z</time></trkpt><trkpt lat="42.732635370058766" lon="11.642991628960978"><ele>593.0</ele><time>2026-04-25T16:10:15.933Z</time></trkpt><trkpt lat="42.732505842885644" lon="11.642998095093562"><ele>591.5</ele><time>2026-04-25T16:10:16.933Z</time></trkpt><trkpt lat="42.73239420096562" lon="11.643061978889538"><ele>590.0</ele><time>2026-04-25T16:10:17.933Z</time></trkpt><trkpt lat="42.7322959107966" lon="11.643133451401132"><ele>588.5</ele><time>2026-04-25T16:10:18.933Z</time></trkpt><trkpt lat="42.73220833323948" lon="11.64322878456712"><ele>587.0</ele><time>2026-04-25T16:10:19.933Z</time></trkpt><trkpt lat="42.73212608000193" lon="11.643343159193098"><ele>587.0</ele><time>2026-04-25T16:10:20.933Z</time></trkpt><trkpt lat="42.732048580617366" lon="11.643475328220159"><ele>587.0</ele><time>2026-04-25T16:10:21.933Z</time></trkpt><trkpt lat="42.73197105121418" lon="11.643611047184152"><ele>587.0</ele><time>2026-04-25T16:10:22.933Z</time></trkpt><trkpt lat="42.731896114330056" lon="11.643749776807207"><ele>587.0</ele><time>2026-04-25T16:10:23.933Z</time></trkpt><trkpt lat="42.731819871717434" lon="11.643875695733026"><ele>587.0</ele><time>2026-04-25T16:10:24.933Z</time></trkpt><trkpt lat="42.73173994954975" lon="11.643972811518182"><ele>587.0</ele><time>2026-04-25T16:10:25.933Z</time></trkpt><trkpt lat="42.731656464673286" lon="11.64404077392115"><ele>587.0</ele><time>2026-04-25T16:10:26.933Z</time></trkpt><trkpt lat="42.73156630093624" lon="11.644074879040813"><ele>587.0</ele><time>2026-04-25T16:10:27.933Z</time></trkpt><trkpt lat="42.731473491054494" lon="11.644079460299995"><ele>587.0</ele><time>2026-04-25T16:10:28.933Z</time></trkpt><trkpt lat="42.7313754736837" lon="11.64406562122123"><ele>587.0</ele><time>2026-04-25T16:10:29.933Z</time></trkpt><trkpt lat="42.73127124761939" lon="11.644027710036074"><ele>587.0</ele><time>2026-04-25T16:10:30.933Z</time></trkpt><trkpt lat="42.73115899491322" lon="11.643978122348182"><ele>587.0</ele><time>2026-04-25T16:10:31.933Z</time></trkpt><trkpt lat="42.73104739543242" lon="11.643935131615303"><ele>587.0</ele><time>2026-04-25T16:10:32.933Z</time></trkpt><trkpt lat="42.73093363661327" lon="11.643912147708235"><ele>586.0</ele><time>2026-04-25T16:10:33.933Z</time></trkpt><trkpt lat="42.73082386544653" lon="11.643920872665376"><ele>585.0</ele><time>2026-04-25T16:10:34.933Z</time></trkpt><trkpt lat="42.73071446779047" lon="11.643964501347536"><ele>584.0</ele><time>2026-04-25T16:10:35.933Z</time></trkpt><trkpt lat="42.7306094550047" lon="11.644035754978246"><ele>583.0</ele><time>2026-04-25T16:10:36.933Z</time></trkpt><trkpt lat="42.730502850475055" lon="11.644128556648898"><ele>583.0</ele><time>2026-04-25T16:10:37.933Z</time></trkpt><trkpt lat="42.730405520547016" lon="11.644222429622664"><ele>583.0</ele><time>2026-04-25T16:10:38.933Z</time></trkpt><trkpt lat="42.73031168326779" lon="11.6443183237518"><ele>583.0</ele><time>2026-04-25T16:10:39.933Z</time></trkpt><trkpt lat="42.730231638930604" lon="11.64441199496235"><ele>583.0</ele><time>2026-04-25T16:10:40.933Z</time></trkpt><trkpt lat="42.7301706458868" lon="11.644496810231674"><ele>583.0</ele><time>2026-04-25T16:10:41.933Z</time></trkpt><trkpt lat="42.73012676676133" lon="11.644586359092477"><ele>581.8333333333334</ele><time>2026-04-25T16:10:42.933Z</time></trkpt><trkpt lat="42.73008608468272" lon="11.644677163956928"><ele>580.6666666666667</ele><time>2026-04-25T16:10:43.933Z</time></trkpt><trkpt lat="42.73007447314595" lon="11.644775332121224"><ele>579.5</ele><time>2026-04-25T16:10:44.933Z</time></trkpt><trkpt lat="42.730060268974924" lon="11.6448941606864"><ele>578.3333333333334</ele><time>2026-04-25T16:10:45.932Z</time></trkpt><trkpt lat="42.73006283499242" lon="11.645025221454986"><ele>577.1666666666666</ele><time>2026-04-25T16:10:46.932Z</time></trkpt><trkpt lat="42.7300761596211" lon="11.64516726275392"><ele>576.0</ele><time>2026-04-25T16:10:47.932Z</time></trkpt><trkpt lat="42.73010476841293" lon="11.645320234824348"><ele>575.5</ele><time>2026-04-25T16:10:48.932Z</time></trkpt><trkpt lat="42.730136289603124" lon="11.645484564473955"><ele>575.0</ele><time>2026-04-25T16:10:49.932Z</time></trkpt><trkpt lat="42.73017251923735" lon="11.64566108363836"><ele>574.5</ele><time>2026-04-25T16:10:50.932Z</time></trkpt><trkpt lat="42.73020883288104" lon="11.645843465653105"><ele>574.0</ele><time>2026-04-25T16:10:51.932Z</time></trkpt><trkpt lat="42.7302359989298" lon="11.646011692496998"><ele>573.5</ele><time>2026-04-25T16:10:52.932Z</time></trkpt><trkpt lat="42.73024476539043" lon="11.646184128170525"><ele>573.0</ele><time>2026-04-25T16:10:53.932Z</time></trkpt><trkpt lat="42.730231965879625" lon="11.64634912106434"><ele>572.5</ele><time>2026-04-25T16:10:54.932Z</time></trkpt><trkpt lat="42.73019881498228" lon="11.646518836579348"><ele>572.0</ele><time>2026-04-25T16:10:55.932Z</time></trkpt><trkpt lat="42.73014792811832" lon="11.64668811507901"><ele>572.0</ele><time>2026-04-25T16:10:56.932Z</time></trkpt><trkpt lat="42.73007987927384" lon="11.64685544500335"><ele>572.0</ele><time>2026-04-25T16:10:57.932Z</time></trkpt><trkpt lat="42.72999613547217" lon="11.647026128041261"><ele>572.0</ele><time>2026-04-25T16:10:58.932Z</time></trkpt><trkpt lat="42.72991062042521" lon="11.647210710254665"><ele>571.6666666666666</ele><time>2026-04-25T16:10:59.932Z</time></trkpt><trkpt lat="42.729825385568326" lon="11.64740302579313"><ele>571.3333333333334</ele><time>2026-04-25T16:11:00.932Z</time></trkpt><trkpt lat="42.7297404402034" lon="11.647585906841448"><ele>571.0</ele><time>2026-04-25T16:11:01.932Z</time></trkpt><trkpt lat="42.729659583555744" lon="11.647760756638405"><ele>572.0</ele><time>2026-04-25T16:11:02.932Z</time></trkpt><trkpt lat="42.729584441758085" lon="11.647941672164643"><ele>573.0</ele><time>2026-04-25T16:11:03.932Z</time></trkpt><trkpt lat="42.72952080498085" lon="11.648126165656281"><ele>574.0</ele><time>2026-04-25T16:11:04.932Z</time></trkpt><trkpt lat="42.72946987388647" lon="11.648308477567083"><ele>575.0</ele><time>2026-04-25T16:11:05.932Z</time></trkpt><trkpt lat="42.72943978834299" lon="11.648490007790828"><ele>576.75</ele><time>2026-04-25T16:11:06.932Z</time></trkpt><trkpt lat="42.729431587885905" lon="11.64866697216442"><ele>578.5</ele><time>2026-04-25T16:11:07.932Z</time></trkpt><trkpt lat="42.729431248773594" lon="11.648847087646784"><ele>580.25</ele><time>2026-04-25T16:11:08.932Z</time></trkpt><trkpt lat="42.72943651736386" lon="11.649031911786249"><ele>582.0</ele><time>2026-04-25T16:11:09.932Z</time></trkpt><trkpt lat="42.729447733634075" lon="11.649224342889203"><ele>582.0</ele><time>2026-04-25T16:11:10.932Z</time></trkpt><trkpt lat="42.729455755344695" lon="11.649396325064709"><ele>582.0</ele><time>2026-04-25T16:11:11.932Z</time></trkpt><trkpt lat="42.72947045112655" lon="11.64956939339193"><ele>582.0</ele><time>2026-04-25T16:11:12.932Z</time></trkpt><trkpt lat="42.72945027275728" lon="11.649728481084562"><ele>582.0</ele><time>2026-04-25T16:11:13.932Z</time></trkpt><trkpt lat="42.72945215942679" lon="11.649895050183515"><ele>583.25</ele><time>2026-04-25T16:11:14.932Z</time></trkpt><trkpt lat="42.72943910178608" lon="11.650058749751151"><ele>584.5</ele><time>2026-04-25T16:11:15.932Z</time></trkpt><trkpt lat="42.729401484958835" lon="11.65021441507801"><ele>585.75</ele><time>2026-04-25T16:11:16.932Z</time></trkpt><trkpt lat="42.72934239319152" lon="11.650370724826923"><ele>587.0</ele><time>2026-04-25T16:11:17.932Z</time></trkpt><trkpt lat="42.72925896740034" lon="11.650501606715906"><ele>583.5</ele><time>2026-04-25T16:11:18.932Z</time></trkpt><trkpt lat="42.72916960726918" lon="11.650630427738017"><ele>580.0</ele><time>2026-04-25T16:11:19.931Z</time></trkpt><trkpt lat="42.72906308776378" lon="11.650769292915623"><ele>576.5</ele><time>2026-04-25T16:11:20.931Z</time></trkpt><trkpt lat="42.72895472048885" lon="11.650910197550095"><ele>573.0</ele><time>2026-04-25T16:11:21.931Z</time></trkpt><trkpt lat="42.728849478264095" lon="11.651043600244817"><ele>575.25</ele><time>2026-04-25T16:11:22.933Z</time></trkpt><trkpt lat="42.72875269200284" lon="11.65117228286996"><ele>577.5</ele><time>2026-04-25T16:11:23.933Z</time></trkpt><trkpt lat="42.72866048444284" lon="11.651300888592298"><ele>579.75</ele><time>2026-04-25T16:11:24.933Z</time></trkpt><trkpt lat="42.72857802854048" lon="11.651430618991022"><ele>582.0</ele><time>2026-04-25T16:11:25.934Z</time></trkpt><trkpt lat="42.72850406405302" lon="11.65156032930538"><ele>579.0</ele><time>2026-04-25T16:11:26.933Z</time></trkpt><trkpt lat="42.72844272429884" lon="11.65169698426708"><ele>576.0</ele><time>2026-04-25T16:11:27.933Z</time></trkpt><trkpt lat="42.72838610109984" lon="11.65183797320958"><ele>573.0</ele><time>2026-04-25T16:11:28.933Z</time></trkpt><trkpt lat="42.72833008425352" lon="11.651976681030344"><ele>570.0</ele><time>2026-04-25T16:11:29.933Z</time></trkpt><trkpt lat="42.72827453556364" lon="11.652113495301311"><ele>570.0</ele><time>2026-04-25T16:11:30.933Z</time></trkpt><trkpt lat="42.72821281291791" lon="11.652244598712905"><ele>570.0</ele><time>2026-04-25T16:11:31.933Z</time></trkpt><trkpt lat="42.72814042897676" lon="11.652370926697241"><ele>570.0</ele><time>2026-04-25T16:11:32.933Z</time></trkpt><trkpt lat="42.72805636214071" lon="11.652486706375049"><ele>570.0</ele><time>2026-04-25T16:11:33.933Z</time></trkpt><trkpt lat="42.72795539667519" lon="11.65258834013925"><ele>570.0</ele><time>2026-04-25T16:11:34.933Z</time></trkpt><trkpt lat="42.72784472930054" lon="11.65268353063769"><ele>570.0</ele><time>2026-04-25T16:11:35.933Z</time></trkpt><trkpt lat="42.7277282131068" lon="11.652765274299094"><ele>570.0</ele><time>2026-04-25T16:11:36.933Z</time></trkpt><trkpt lat="42.72761298499708" lon="11.652841205822199"><ele>570.0</ele><time>2026-04-25T16:11:37.933Z</time></trkpt><trkpt lat="42.727500147850265" lon="11.652917869536253"><ele>568.25</ele><time>2026-04-25T16:11:38.933Z</time></trkpt><trkpt lat="42.727389425463016" lon="11.652992137417751"><ele>566.5</ele><time>2026-04-25T16:11:39.933Z</time></trkpt><trkpt lat="42.72728092379472" lon="11.653070317942422"><ele>564.75</ele><time>2026-04-25T16:11:40.933Z</time></trkpt><trkpt lat="42.72717682826194" lon="11.653152199363639"><ele>563.0</ele><time>2026-04-25T16:11:41.933Z</time></trkpt><trkpt lat="42.727075641382086" lon="11.653226764842106"><ele>563.0</ele><time>2026-04-25T16:11:42.933Z</time></trkpt><trkpt lat="42.72697644633311" lon="11.653299325543395"><ele>563.0</ele><time>2026-04-25T16:11:43.933Z</time></trkpt><trkpt lat="42.72688536858502" lon="11.653367535263143"><ele>563.0</ele><time>2026-04-25T16:11:44.933Z</time></trkpt><trkpt lat="42.72679175925081" lon="11.653438850292858"><ele>563.0</ele><time>2026-04-25T16:11:45.933Z</time></trkpt><trkpt lat="42.72669181166879" lon="11.65351316113524"><ele>563.0</ele><time>2026-04-25T16:11:46.933Z</time></trkpt><trkpt lat="42.726586207170214" lon="11.653587544478038"><ele>563.25</ele><time>2026-04-25T16:11:47.933Z</time></trkpt><trkpt lat="42.7264784859448" lon="11.653669715229752"><ele>563.5</ele><time>2026-04-25T16:11:48.933Z</time></trkpt><trkpt lat="42.726370840654056" lon="11.653748636165142"><ele>563.75</ele><time>2026-04-25T16:11:49.933Z</time></trkpt><trkpt lat="42.72626750357184" lon="11.653823562490237"><ele>564.0</ele><time>2026-04-25T16:11:50.933Z</time></trkpt><trkpt lat="42.72616918418471" lon="11.653899223807333"><ele>564.0</ele><time>2026-04-25T16:11:51.933Z</time></trkpt><trkpt lat="42.726080548860566" lon="11.6539646085544"><ele>564.0</ele><time>2026-04-25T16:11:52.933Z</time></trkpt><trkpt lat="42.7260156334279" lon="11.654014260974659"><ele>564.0</ele><time>2026-04-25T16:11:53.933Z</time></trkpt><trkpt lat="42.72594293723335" lon="11.654064765910324"><ele>564.0</ele><time>2026-04-25T16:11:55.933Z</time></trkpt><trkpt lat="42.725879826679424" lon="11.654082074551082"><ele>564.0</ele><time>2026-04-25T16:12:32.932Z</time></trkpt><trkpt lat="42.72583439006811" lon="11.654174036451986"><ele>564.0</ele><time>2026-04-25T16:12:35.932Z</time></trkpt><trkpt lat="42.72577630053651" lon="11.65429808725646"><ele>563.6</ele><time>2026-04-25T16:12:37.932Z</time></trkpt><trkpt lat="42.72574166339797" lon="11.6543818230126"><ele>563.2</ele><time>2026-04-25T16:12:38.932Z</time></trkpt><trkpt lat="42.725702498775895" lon="11.65448234618482"><ele>562.8000000000001</ele><time>2026-04-25T16:12:39.932Z</time></trkpt><trkpt lat="42.72565145694945" lon="11.654603438506502"><ele>562.4</ele><time>2026-04-25T16:12:40.932Z</time></trkpt><trkpt lat="42.72558134066097" lon="11.654742591461346"><ele>562.0</ele><time>2026-04-25T16:12:41.932Z</time></trkpt><trkpt lat="42.72550699942855" lon="11.654895237874726"><ele>562.0</ele><time>2026-04-25T16:12:42.931Z</time></trkpt><trkpt lat="42.72542633588568" lon="11.65506920712169"><ele>562.0</ele><time>2026-04-25T16:12:43.931Z</time></trkpt><trkpt lat="42.72533306215121" lon="11.655245016679515"><ele>562.0</ele><time>2026-04-25T16:12:44.931Z</time></trkpt><trkpt lat="42.72524467894784" lon="11.655425474370093"><ele>560.25</ele><time>2026-04-25T16:12:45.931Z</time></trkpt><trkpt lat="42.72514677388933" lon="11.655600751681517"><ele>558.5</ele><time>2026-04-25T16:12:46.931Z</time></trkpt><trkpt lat="42.72507771988629" lon="11.655772261976901"><ele>556.75</ele><time>2026-04-25T16:12:47.931Z</time></trkpt><trkpt lat="42.72499788211344" lon="11.655924364868127"><ele>555.0</ele><time>2026-04-25T16:12:48.931Z</time></trkpt><trkpt lat="42.724916691632345" lon="11.656055450048209"><ele>557.0</ele><time>2026-04-25T16:12:49.931Z</time></trkpt><trkpt lat="42.72481434683314" lon="11.656174853946801"><ele>559.0</ele><time>2026-04-25T16:12:50.931Z</time></trkpt><trkpt lat="42.72469664804473" lon="11.656285328145165"><ele>561.0</ele><time>2026-04-25T16:12:51.931Z</time></trkpt><trkpt lat="42.72456555604479" lon="11.656388358098026"><ele>563.0</ele><time>2026-04-25T16:12:52.931Z</time></trkpt><trkpt lat="42.724425262604115" lon="11.656496253828184"><ele>559.6666666666666</ele><time>2026-04-25T16:12:53.931Z</time></trkpt><trkpt lat="42.724278936935946" lon="11.656603987417181"><ele>556.3333333333334</ele><time>2026-04-25T16:12:54.931Z</time></trkpt><trkpt lat="42.72413715186502" lon="11.656706259557433"><ele>553.0</ele><time>2026-04-25T16:12:55.931Z</time></trkpt><trkpt lat="42.723988691873714" lon="11.656795440443608"><ele>553.0</ele><time>2026-04-25T16:12:56.931Z</time></trkpt><trkpt lat="42.723831953010524" lon="11.656861460333467"><ele>553.0</ele><time>2026-04-25T16:12:57.931Z</time></trkpt><trkpt lat="42.723676173212894" lon="11.656908882640481"><ele>553.0</ele><time>2026-04-25T16:12:58.931Z</time></trkpt><trkpt lat="42.723516303750685" lon="11.656951120484864"><ele>555.0</ele><time>2026-04-25T16:12:59.931Z</time></trkpt><trkpt lat="42.723359214899304" lon="11.656990589610718"><ele>557.0</ele><time>2026-04-25T16:13:00.931Z</time></trkpt><trkpt lat="42.72320904338326" lon="11.657029996230788"><ele>559.0</ele><time>2026-04-25T16:13:01.931Z</time></trkpt><trkpt lat="42.72306310146729" lon="11.657058087499104"><ele>559.0</ele><time>2026-04-25T16:13:02.931Z</time></trkpt><trkpt lat="42.72292564695046" lon="11.657141428898388"><ele>559.0</ele><time>2026-04-25T16:13:03.931Z</time></trkpt><trkpt lat="42.722791046706" lon="11.657249756979056"><ele>559.0</ele><time>2026-04-25T16:13:04.931Z</time></trkpt><trkpt lat="42.72265271369814" lon="11.6573731594172"><ele>555.0</ele><time>2026-04-25T16:13:05.931Z</time></trkpt><trkpt lat="42.72250960979373" lon="11.65750456161294"><ele>551.0</ele><time>2026-04-25T16:13:06.931Z</time></trkpt><trkpt lat="42.72237031522051" lon="11.6576173181734"><ele>547.0</ele><time>2026-04-25T16:13:07.931Z</time></trkpt><trkpt lat="42.72224799785566" lon="11.657720282807293"><ele>549.5</ele><time>2026-04-25T16:13:08.931Z</time></trkpt><trkpt lat="42.72214418224867" lon="11.65782092805272"><ele>552.0</ele><time>2026-04-25T16:13:09.931Z</time></trkpt><trkpt lat="42.72205951412696" lon="11.657932980269846"><ele>554.5</ele><time>2026-04-25T16:13:10.931Z</time></trkpt><trkpt lat="42.7219984306237" lon="11.658055539743426"><ele>557.0</ele><time>2026-04-25T16:13:11.931Z</time></trkpt><trkpt lat="42.72195756643361" lon="11.658202945777356"><ele>557.0</ele><time>2026-04-25T16:13:12.931Z</time></trkpt><trkpt lat="42.721935779918766" lon="11.658360572380591"><ele>557.0</ele><time>2026-04-25T16:13:13.931Z</time></trkpt><trkpt lat="42.72192946693954" lon="11.658517005526615"><ele>557.0</ele><time>2026-04-25T16:13:14.931Z</time></trkpt><trkpt lat="42.721919383984655" lon="11.65866303085793"><ele>557.0</ele><time>2026-04-25T16:13:15.931Z</time></trkpt><trkpt lat="42.72189636607151" lon="11.658796308188183"><ele>557.0</ele><time>2026-04-25T16:13:16.93Z</time></trkpt><trkpt lat="42.72186587262208" lon="11.658938725923209"><ele>554.0</ele><time>2026-04-25T16:13:17.93Z</time></trkpt><trkpt lat="42.72181164060178" lon="11.659079874364721"><ele>551.0</ele><time>2026-04-25T16:13:18.93Z</time></trkpt><trkpt lat="42.72172856742591" lon="11.659191167884805"><ele>548.0</ele><time>2026-04-25T16:13:19.93Z</time></trkpt><trkpt lat="42.72162695725382" lon="11.659296046380089"><ele>545.0</ele><time>2026-04-25T16:13:20.93Z</time></trkpt><trkpt lat="42.721506381882726" lon="11.65937848252123"><ele>545.0</ele><time>2026-04-25T16:13:21.93Z</time></trkpt><trkpt lat="42.7213859436293" lon="11.659450406430553"><ele>545.0</ele><time>2026-04-25T16:13:22.93Z</time></trkpt><trkpt lat="42.72125704287025" lon="11.659489803660168"><ele>545.0</ele><time>2026-04-25T16:13:23.93Z</time></trkpt><trkpt lat="42.7211191514937" lon="11.659538414395433"><ele>545.0</ele><time>2026-04-25T16:13:24.93Z</time></trkpt><trkpt lat="42.72098122510657" lon="11.659617715499179"><ele>544.75</ele><time>2026-04-25T16:13:25.93Z</time></trkpt><trkpt lat="42.72084646762256" lon="11.65971895056086"><ele>544.5</ele><time>2026-04-25T16:13:26.93Z</time></trkpt><trkpt lat="42.72070434676034" lon="11.65980203526573"><ele>544.25</ele><time>2026-04-25T16:13:27.93Z</time></trkpt><trkpt lat="42.720586025117186" lon="11.65990090502743"><ele>544.0</ele><time>2026-04-25T16:13:28.932Z</time></trkpt><trkpt lat="42.72047643060555" lon="11.659997788666345"><ele>544.0</ele><time>2026-04-25T16:13:29.932Z</time></trkpt><trkpt lat="42.7203830183801" lon="11.660097858183335"><ele>544.0</ele><time>2026-04-25T16:13:30.932Z</time></trkpt><trkpt lat="42.72030032579563" lon="11.660220089044433"><ele>544.0</ele><time>2026-04-25T16:13:31.932Z</time></trkpt><trkpt lat="42.72023447407825" lon="11.660368595105465"><ele>544.0</ele><time>2026-04-25T16:13:32.932Z</time></trkpt><trkpt lat="42.72018997646452" lon="11.660549526012229"><ele>541.3333333333334</ele><time>2026-04-25T16:13:33.932Z</time></trkpt><trkpt lat="42.72013506264281" lon="11.660741514723206"><ele>538.6666666666666</ele><time>2026-04-25T16:13:34.932Z</time></trkpt><trkpt lat="42.72007094131751" lon="11.660938986919367"><ele>536.0</ele><time>2026-04-25T16:13:35.931Z</time></trkpt><trkpt lat="42.719998192916115" lon="11.661149514714591"><ele>535.6666666666666</ele><time>2026-04-25T16:13:36.931Z</time></trkpt><trkpt lat="42.71992408701974" lon="11.661372647394913"><ele>535.3333333333334</ele><time>2026-04-25T16:13:37.931Z</time></trkpt><trkpt lat="42.71985574667509" lon="11.661614128937325"><ele>535.0</ele><time>2026-04-25T16:13:38.932Z</time></trkpt><trkpt lat="42.71979539711711" lon="11.661879941033769"><ele>538.3333333333334</ele><time>2026-04-25T16:13:39.932Z</time></trkpt><trkpt lat="42.71973774680755" lon="11.662170858865409"><ele>541.6666666666666</ele><time>2026-04-25T16:13:40.932Z</time></trkpt><trkpt lat="42.719693383181024" lon="11.662440663935392"><ele>545.0</ele><time>2026-04-25T16:13:41.931Z</time></trkpt><trkpt lat="42.719637136141465" lon="11.662674699602691"><ele>546.6666666666666</ele><time>2026-04-25T16:13:42.931Z</time></trkpt><trkpt lat="42.71961087332805" lon="11.662900603226896"><ele>548.3333333333334</ele><time>2026-04-25T16:13:43.931Z</time></trkpt><trkpt lat="42.71956418800013" lon="11.663102686917385"><ele>550.0</ele><time>2026-04-25T16:13:44.931Z</time></trkpt><trkpt lat="42.719533534951296" lon="11.663294690144703"><ele>550.0</ele><time>2026-04-25T16:13:45.931Z</time></trkpt><trkpt lat="42.71950170989523" lon="11.663461513092592"><ele>550.0</ele><time>2026-04-25T16:13:46.931Z</time></trkpt><trkpt lat="42.71944784766512" lon="11.663614808006871"><ele>550.0</ele><time>2026-04-25T16:13:47.931Z</time></trkpt><trkpt lat="42.71936190444924" lon="11.663767207283913"><ele>550.0</ele><time>2026-04-25T16:13:48.931Z</time></trkpt><trkpt lat="42.719257080643615" lon="11.66392660416637"><ele>545.6666666666667</ele><time>2026-04-25T16:13:49.931Z</time></trkpt><trkpt lat="42.71914869678994" lon="11.664087389956867"><ele>541.3333333333334</ele><time>2026-04-25T16:13:50.931Z</time></trkpt><trkpt lat="42.71904051458495" lon="11.664243425943077"><ele>537.0</ele><time>2026-04-25T16:13:51.931Z</time></trkpt><trkpt lat="42.71893113474001" lon="11.664392731843042"><ele>540.3333333333334</ele><time>2026-04-25T16:13:52.931Z</time></trkpt><trkpt lat="42.71879204806995" lon="11.66450704159274"><ele>543.6666666666667</ele><time>2026-04-25T16:13:53.931Z</time></trkpt><trkpt lat="42.71864561754963" lon="11.66460527399264"><ele>547.0</ele><time>2026-04-25T16:13:54.931Z</time></trkpt><trkpt lat="42.71850392329624" lon="11.664703621010135"><ele>547.0</ele><time>2026-04-25T16:13:55.931Z</time></trkpt><trkpt lat="42.71835929294068" lon="11.664766976758743"><ele>547.0</ele><time>2026-04-25T16:13:56.931Z</time></trkpt><trkpt lat="42.71822440580489" lon="11.66484717502708"><ele>547.0</ele><time>2026-04-25T16:13:57.931Z</time></trkpt><trkpt lat="42.7180979407238" lon="11.664940339316033"><ele>547.0</ele><time>2026-04-25T16:13:58.931Z</time></trkpt><trkpt lat="42.71797852610454" lon="11.665061612940956"><ele>547.0</ele><time>2026-04-25T16:13:59.931Z</time></trkpt><trkpt lat="42.717876967925946" lon="11.665223709569808"><ele>547.0</ele><time>2026-04-25T16:14:00.931Z</time></trkpt><trkpt lat="42.71777947740103" lon="11.665402923993511"><ele>547.0</ele><time>2026-04-25T16:14:01.931Z</time></trkpt><trkpt lat="42.71768529485913" lon="11.66558995512642"><ele>548.3333333333334</ele><time>2026-04-25T16:14:02.931Z</time></trkpt><trkpt lat="42.71759252235454" lon="11.665802459513621"><ele>549.6666666666666</ele><time>2026-04-25T16:14:03.931Z</time></trkpt><trkpt lat="42.717473277909974" lon="11.666011092725064"><ele>551.0</ele><time>2026-04-25T16:14:04.931Z</time></trkpt><trkpt lat="42.71736714118306" lon="11.666221707906375"><ele>551.0</ele><time>2026-04-25T16:14:05.931Z</time></trkpt><trkpt lat="42.71725123248514" lon="11.666388767865106"><ele>551.0</ele><time>2026-04-25T16:14:06.93Z</time></trkpt><trkpt lat="42.717112820781644" lon="11.666477013413749"><ele>551.0</ele><time>2026-04-25T16:14:07.93Z</time></trkpt><trkpt lat="42.71700417767501" lon="11.666517963092273"><ele>551.0</ele><time>2026-04-25T16:14:08.93Z</time></trkpt><trkpt lat="42.71689326791853" lon="11.666541904304125"><ele>550.0</ele><time>2026-04-25T16:14:09.93Z</time></trkpt><trkpt lat="42.71677566454381" lon="11.666566903089077"><ele>549.0</ele><time>2026-04-25T16:14:10.93Z</time></trkpt><trkpt lat="42.71665315604974" lon="11.666593863401822"><ele>548.0</ele><time>2026-04-25T16:14:11.93Z</time></trkpt><trkpt lat="42.71652400122421" lon="11.666637083238449"><ele>547.0</ele><time>2026-04-25T16:14:12.93Z</time></trkpt><trkpt lat="42.71639035645708" lon="11.66670229896173"><ele>547.0</ele><time>2026-04-25T16:14:13.93Z</time></trkpt><trkpt lat="42.71625372628583" lon="11.666788143648628"><ele>547.0</ele><time>2026-04-25T16:14:14.93Z</time></trkpt><trkpt lat="42.716117812701185" lon="11.66687710954652"><ele>547.0</ele><time>2026-04-25T16:14:15.93Z</time></trkpt><trkpt lat="42.71598756848547" lon="11.66694264920055"><ele>547.0</ele><time>2026-04-25T16:14:16.93Z</time></trkpt><trkpt lat="42.71586428386654" lon="11.667016339790809"><ele>549.25</ele><time>2026-04-25T16:14:17.93Z</time></trkpt><trkpt lat="42.715748032255256" lon="11.667084530499501"><ele>551.5</ele><time>2026-04-25T16:14:18.93Z</time></trkpt><trkpt lat="42.71564068800536" lon="11.667162841063105"><ele>553.75</ele><time>2026-04-25T16:14:19.93Z</time></trkpt><trkpt lat="42.71555129115388" lon="11.667266738748946"><ele>556.0</ele><time>2026-04-25T16:14:20.93Z</time></trkpt><trkpt lat="42.715473723818185" lon="11.667384916627187"><ele>556.0</ele><time>2026-04-25T16:14:21.93Z</time></trkpt><trkpt lat="42.71541316441949" lon="11.667541281973635"><ele>556.0</ele><time>2026-04-25T16:14:22.93Z</time></trkpt><trkpt lat="42.71536434137204" lon="11.667713800046577"><ele>556.0</ele><time>2026-04-25T16:14:23.93Z</time></trkpt><trkpt lat="42.71531119710587" lon="11.66789535372054"><ele>556.0</ele><time>2026-04-25T16:14:24.93Z</time></trkpt><trkpt lat="42.71525269788638" lon="11.668087294154837"><ele>555.3333333333334</ele><time>2026-04-25T16:14:25.93Z</time></trkpt><trkpt lat="42.715193599056185" lon="11.66829300414796"><ele>554.6666666666666</ele><time>2026-04-25T16:14:26.93Z</time></trkpt><trkpt lat="42.71513466037434" lon="11.668493589877459"><ele>554.0</ele><time>2026-04-25T16:14:27.93Z</time></trkpt><trkpt lat="42.715075745076476" lon="11.66868276556007"><ele>554.0</ele><time>2026-04-25T16:14:28.93Z</time></trkpt><trkpt lat="42.715010560602956" lon="11.668862565965693"><ele>554.0</ele><time>2026-04-25T16:14:29.93Z</time></trkpt><trkpt lat="42.71494260250358" lon="11.669033067050918"><ele>554.0</ele><time>2026-04-25T16:14:30.93Z</time></trkpt><trkpt lat="42.71486053996073" lon="11.66918626779302"><ele>554.0</ele><time>2026-04-25T16:14:31.93Z</time></trkpt><trkpt lat="42.71475191743058" lon="11.669321244770968"><ele>552.3333333333333</ele><time>2026-04-25T16:14:32.93Z</time></trkpt><trkpt lat="42.714647353883535" lon="11.669465839240846"><ele>550.6666666666666</ele><time>2026-04-25T16:14:33.93Z</time></trkpt><trkpt lat="42.71452165095069" lon="11.669603414201344"><ele>549.0</ele><time>2026-04-25T16:14:34.93Z</time></trkpt><trkpt lat="42.71439026124836" lon="11.669742181264473"><ele>549.0</ele><time>2026-04-25T16:14:35.93Z</time></trkpt><trkpt lat="42.714269866517974" lon="11.669893499866415"><ele>549.0</ele><time>2026-04-25T16:14:36.93Z</time></trkpt><trkpt lat="42.71414084326181" lon="11.67004691210104"><ele>549.0</ele><time>2026-04-25T16:14:37.93Z</time></trkpt><trkpt lat="42.71400220401501" lon="11.670186336782496"><ele>550.6666666666666</ele><time>2026-04-25T16:14:38.93Z</time></trkpt><trkpt lat="42.71385627254231" lon="11.670316204511579"><ele>552.3333333333333</ele><time>2026-04-25T16:14:39.93Z</time></trkpt><trkpt lat="42.71370219619922" lon="11.670435833589359"><ele>554.0</ele><time>2026-04-25T16:14:40.929Z</time></trkpt><trkpt lat="42.71354310220494" lon="11.670537275484202"><ele>554.0</ele><time>2026-04-25T16:14:41.929Z</time></trkpt><trkpt lat="42.71338646879577" lon="11.670633397428468"><ele>554.0</ele><time>2026-04-25T16:14:42.929Z</time></trkpt><trkpt lat="42.713235171846335" lon="11.67073105155333"><ele>554.0</ele><time>2026-04-25T16:14:43.929Z</time></trkpt><trkpt lat="42.71308250612506" lon="11.670821049609264"><ele>554.0</ele><time>2026-04-25T16:14:44.929Z</time></trkpt><trkpt lat="42.71293384488822" lon="11.670913693728382"><ele>554.0</ele><time>2026-04-25T16:14:45.929Z</time></trkpt><trkpt lat="42.71280239553498" lon="11.670999014932478"><ele>554.0</ele><time>2026-04-25T16:14:46.929Z</time></trkpt><trkpt lat="42.71268753626872" lon="11.671087114506156"><ele>554.0</ele><time>2026-04-25T16:14:47.929Z</time></trkpt><trkpt lat="42.71259515044861" lon="11.671192914574254"><ele>555.0</ele><time>2026-04-25T16:14:48.929Z</time></trkpt><trkpt lat="42.71252964088121" lon="11.67133354589463"><ele>556.0</ele><time>2026-04-25T16:14:49.929Z</time></trkpt><trkpt lat="42.71246529999347" lon="11.671506941392135"><ele>557.0</ele><time>2026-04-25T16:14:50.929Z</time></trkpt><trkpt lat="42.712427050246546" lon="11.671694670151071"><ele>558.0</ele><time>2026-04-25T16:14:51.929Z</time></trkpt><trkpt lat="42.71240045630432" lon="11.671893124078363"><ele>560.6666666666666</ele><time>2026-04-25T16:14:52.929Z</time></trkpt><trkpt lat="42.71235295427385" lon="11.67209686452663"><ele>563.3333333333333</ele><time>2026-04-25T16:14:53.929Z</time></trkpt><trkpt lat="42.7123078884352" lon="11.672303262223208"><ele>566.0</ele><time>2026-04-25T16:14:54.929Z</time></trkpt><trkpt lat="42.712267705730234" lon="11.672514086100279"><ele>566.0</ele><time>2026-04-25T16:14:55.929Z</time></trkpt><trkpt lat="42.71222394378133" lon="11.672719349205861"><ele>566.0</ele><time>2026-04-25T16:14:56.929Z</time></trkpt><trkpt lat="42.7121778757002" lon="11.672909816827584"><ele>566.0</ele><time>2026-04-25T16:14:57.929Z</time></trkpt><trkpt lat="42.71214102855611" lon="11.673097242923571"><ele>566.0</ele><time>2026-04-25T16:14:58.929Z</time></trkpt><trkpt lat="42.71210471225894" lon="11.673276788483054"><ele>568.0</ele><time>2026-04-25T16:14:59.929Z</time></trkpt><trkpt lat="42.71207374405764" lon="11.673449830308266"><ele>570.0</ele><time>2026-04-25T16:15:00.929Z</time></trkpt><trkpt lat="42.712039682303306" lon="11.673611179960806"><ele>572.0</ele><time>2026-04-25T16:15:01.929Z</time></trkpt><trkpt lat="42.712004013353194" lon="11.673765246663887"><ele>574.0</ele><time>2026-04-25T16:15:02.929Z</time></trkpt><trkpt lat="42.71196468268792" lon="11.673911208521329"><ele>574.5</ele><time>2026-04-25T16:15:03.929Z</time></trkpt><trkpt lat="42.711912179611076" lon="11.674049086564596"><ele>575.0</ele><time>2026-04-25T16:15:04.929Z</time></trkpt><trkpt lat="42.71184941646322" lon="11.67417849675661"><ele>575.5</ele><time>2026-04-25T16:15:05.929Z</time></trkpt><trkpt lat="42.711783642669104" lon="11.674303590206419"><ele>576.0</ele><time>2026-04-25T16:15:06.929Z</time></trkpt><trkpt lat="42.71170883727536" lon="11.674424543799919"><ele>573.5</ele><time>2026-04-25T16:15:07.929Z</time></trkpt><trkpt lat="42.71161570496465" lon="11.67453236515201"><ele>571.0</ele><time>2026-04-25T16:15:08.929Z</time></trkpt><trkpt lat="42.71150417316897" lon="11.674624519848964"><ele>568.5</ele><time>2026-04-25T16:15:09.929Z</time></trkpt><trkpt lat="42.71137463702815" lon="11.674701622067557"><ele>566.0</ele><time>2026-04-25T16:15:10.929Z</time></trkpt><trkpt lat="42.71124117201563" lon="11.674774513286698"><ele>566.0</ele><time>2026-04-25T16:15:11.929Z</time></trkpt><trkpt lat="42.71111180783706" lon="11.674836084196299"><ele>566.0</ele><time>2026-04-25T16:15:12.929Z</time></trkpt><trkpt lat="42.71098928715378" lon="11.674897736770761"><ele>566.0</ele><time>2026-04-25T16:15:13.929Z</time></trkpt><trkpt lat="42.71087184632798" lon="11.67496766436656"><ele>566.0</ele><time>2026-04-25T16:15:14.928Z</time></trkpt><trkpt lat="42.71076235529508" lon="11.67505957662407"><ele>564.0</ele><time>2026-04-25T16:15:15.928Z</time></trkpt><trkpt lat="42.71067604554679" lon="11.675178839557873"><ele>562.0</ele><time>2026-04-25T16:15:16.928Z</time></trkpt><trkpt lat="42.710608533876844" lon="11.675330811469632"><ele>560.0</ele><time>2026-04-25T16:15:17.928Z</time></trkpt><trkpt lat="42.71055018433394" lon="11.675495458368573"><ele>558.0</ele><time>2026-04-25T16:15:18.928Z</time></trkpt><trkpt lat="42.710465258315274" lon="11.67564873257462"><ele>558.0</ele><time>2026-04-25T16:15:19.928Z</time></trkpt><trkpt lat="42.71039923946752" lon="11.675824546481952"><ele>558.0</ele><time>2026-04-25T16:15:20.928Z</time></trkpt><trkpt lat="42.71033936821009" lon="11.676004262819768"><ele>558.0</ele><time>2026-04-25T16:15:21.928Z</time></trkpt><trkpt lat="42.71028511477614" lon="11.676190161252062"><ele>558.0</ele><time>2026-04-25T16:15:22.928Z</time></trkpt><trkpt lat="42.71024006796589" lon="11.676388232143816"><ele>554.0</ele><time>2026-04-25T16:15:23.928Z</time></trkpt><trkpt lat="42.710199914853945" lon="11.676597017854526"><ele>550.0</ele><time>2026-04-25T16:15:24.928Z</time></trkpt><trkpt lat="42.710167648253126" lon="11.676809005592657"><ele>546.0</ele><time>2026-04-25T16:15:25.928Z</time></trkpt><trkpt lat="42.71013702988401" lon="11.677017411679769"><ele>546.0</ele><time>2026-04-25T16:15:26.928Z</time></trkpt><trkpt lat="42.710097351616575" lon="11.67721735517809"><ele>546.0</ele><time>2026-04-25T16:15:27.928Z</time></trkpt><trkpt lat="42.71002894360735" lon="11.67740412168544"><ele>546.0</ele><time>2026-04-25T16:15:28.928Z</time></trkpt><trkpt lat="42.709954908423306" lon="11.67758067442616"><ele>546.0</ele><time>2026-04-25T16:15:29.928Z</time></trkpt><trkpt lat="42.70988607395014" lon="11.67775644017962"><ele>546.0</ele><time>2026-04-25T16:15:30.928Z</time></trkpt><trkpt lat="42.70981289301792" lon="11.677929707639532"><ele>546.0</ele><time>2026-04-25T16:15:31.928Z</time></trkpt><trkpt lat="42.70974645887336" lon="11.678107538948776"><ele>546.0</ele><time>2026-04-25T16:15:32.928Z</time></trkpt><trkpt lat="42.709679473152676" lon="11.678285491582397"><ele>546.0</ele><time>2026-04-25T16:15:33.928Z</time></trkpt><trkpt lat="42.709617429959074" lon="11.678472419809028"><ele>546.0</ele><time>2026-04-25T16:15:34.93Z</time></trkpt><trkpt lat="42.70956854539276" lon="11.678671933123683"><ele>546.0</ele><time>2026-04-25T16:15:35.931Z</time></trkpt><trkpt lat="42.70952902051395" lon="11.678870147517884"><ele>545.5</ele><time>2026-04-25T16:15:36.931Z</time></trkpt><trkpt lat="42.709496169917244" lon="11.679061224100751"><ele>545.0</ele><time>2026-04-25T16:15:37.931Z</time></trkpt><trkpt lat="42.70946127144064" lon="11.679229057453437"><ele>544.5</ele><time>2026-04-25T16:15:38.931Z</time></trkpt><trkpt lat="42.709440006303154" lon="11.679371402893949"><ele>544.0</ele><time>2026-04-25T16:15:39.93Z</time></trkpt><trkpt lat="42.7094484326241" lon="11.679516823574124"><ele>542.5</ele><time>2026-04-25T16:15:40.93Z</time></trkpt><trkpt lat="42.70948777803684" lon="11.67965637467022"><ele>541.0</ele><time>2026-04-25T16:15:41.93Z</time></trkpt><trkpt lat="42.70955102919152" lon="11.67978196467731"><ele>539.5</ele><time>2026-04-25T16:15:42.93Z</time></trkpt><trkpt lat="42.709636761750986" lon="11.679894930356388"><ele>538.0</ele><time>2026-04-25T16:15:43.93Z</time></trkpt><trkpt lat="42.70973510675832" lon="11.679998410259747"><ele>538.0</ele><time>2026-04-25T16:15:44.93Z</time></trkpt><trkpt lat="42.70984882195316" lon="11.680097930333877"><ele>538.0</ele><time>2026-04-25T16:15:45.93Z</time></trkpt><trkpt lat="42.709948931275314" lon="11.680199438836931"><ele>538.0</ele><time>2026-04-25T16:15:46.93Z</time></trkpt><trkpt lat="42.71002466101775" lon="11.680313461045255"><ele>538.0</ele><time>2026-04-25T16:15:47.93Z</time></trkpt><trkpt lat="42.71008305525268" lon="11.680439083911004"><ele>534.75</ele><time>2026-04-25T16:15:48.93Z</time></trkpt><trkpt lat="42.710130343501156" lon="11.680576409126502"><ele>531.5</ele><time>2026-04-25T16:15:49.93Z</time></trkpt><trkpt lat="42.71017132291883" lon="11.68072666588274"><ele>528.25</ele><time>2026-04-25T16:15:50.93Z</time></trkpt><trkpt lat="42.71022034915896" lon="11.680877621965069"><ele>525.0</ele><time>2026-04-25T16:15:51.93Z</time></trkpt><trkpt lat="42.71027905817654" lon="11.681023031465143"><ele>526.5</ele><time>2026-04-25T16:15:52.93Z</time></trkpt><trkpt lat="42.71034982730098" lon="11.68115058596847"><ele>528.0</ele><time>2026-04-25T16:15:53.93Z</time></trkpt><trkpt lat="42.710442867677095" lon="11.68124023768067"><ele>529.5</ele><time>2026-04-25T16:15:54.93Z</time></trkpt><trkpt lat="42.71054669669595" lon="11.681307727792692"><ele>531.0</ele><time>2026-04-25T16:15:55.93Z</time></trkpt><trkpt lat="42.71066609384687" lon="11.681356890683652"><ele>531.0</ele><time>2026-04-25T16:15:56.93Z</time></trkpt><trkpt lat="42.710801634565605" lon="11.681396088011232"><ele>531.0</ele><time>2026-04-25T16:15:57.93Z</time></trkpt><trkpt lat="42.710950441359024" lon="11.681432567327814"><ele>531.0</ele><time>2026-04-25T16:15:58.93Z</time></trkpt><trkpt lat="42.71109962365248" lon="11.681470491007744"><ele>531.0</ele><time>2026-04-25T16:15:59.93Z</time></trkpt><trkpt lat="42.71124352057638" lon="11.681515273208765"><ele>539.0</ele><time>2026-04-25T16:16:00.93Z</time></trkpt><trkpt lat="42.71139881800885" lon="11.681577554284784"><ele>547.0</ele><time>2026-04-25T16:16:01.93Z</time></trkpt><trkpt lat="42.71154845636998" lon="11.681674747629616"><ele>555.0</ele><time>2026-04-25T16:16:02.93Z</time></trkpt><trkpt lat="42.71168038959081" lon="11.681771578683968"><ele>555.0</ele><time>2026-04-25T16:16:03.93Z</time></trkpt><trkpt lat="42.71180728597253" lon="11.681851004113138"><ele>555.0</ele><time>2026-04-25T16:16:04.929Z</time></trkpt><trkpt lat="42.711923034295324" lon="11.681919408403228"><ele>555.0</ele><time>2026-04-25T16:16:05.929Z</time></trkpt><trkpt lat="42.712026164929426" lon="11.681976348883902"><ele>555.0</ele><time>2026-04-25T16:16:06.929Z</time></trkpt><trkpt lat="42.712112609036666" lon="11.682048508525265"><ele>554.4</ele><time>2026-04-25T16:16:07.929Z</time></trkpt><trkpt lat="42.71218902147294" lon="11.682139305019522"><ele>553.8</ele><time>2026-04-25T16:16:08.929Z</time></trkpt><trkpt lat="42.71225380465412" lon="11.682261025133256"><ele>553.2</ele><time>2026-04-25T16:16:09.929Z</time></trkpt><trkpt lat="42.71230661005679" lon="11.682386999505281"><ele>552.6</ele><time>2026-04-25T16:16:10.929Z</time></trkpt><trkpt lat="42.712335751548295" lon="11.682503078991356"><ele>552.0</ele><time>2026-04-25T16:16:11.929Z</time></trkpt><trkpt lat="42.712327159656084" lon="11.682606252016967"><ele>552.0</ele><time>2026-04-25T16:16:12.929Z</time></trkpt><trkpt lat="42.71229642556983" lon="11.682724113773098"><ele>552.0</ele><time>2026-04-25T16:16:13.929Z</time></trkpt><trkpt lat="42.71222802860721" lon="11.68282568618555"><ele>552.0</ele><time>2026-04-25T16:16:14.929Z</time></trkpt><trkpt lat="42.712140334455725" lon="11.682880213463307"><ele>552.0</ele><time>2026-04-25T16:16:15.929Z</time></trkpt><trkpt lat="42.71203724015596" lon="11.682899531169063"><ele>552.0</ele><time>2026-04-25T16:16:16.929Z</time></trkpt><trkpt lat="42.71192703603887" lon="11.682875587523112"><ele>553.75</ele><time>2026-04-25T16:16:17.929Z</time></trkpt><trkpt lat="42.71181939497747" lon="11.682817629257364"><ele>555.5</ele><time>2026-04-25T16:16:18.929Z</time></trkpt><trkpt lat="42.71168788853405" lon="11.682726660660487"><ele>557.25</ele><time>2026-04-25T16:16:19.929Z</time></trkpt><trkpt lat="42.71156067348235" lon="11.68261088693705"><ele>559.0</ele><time>2026-04-25T16:16:20.929Z</time></trkpt><trkpt lat="42.71143466181119" lon="11.682527020290099"><ele>554.75</ele><time>2026-04-25T16:16:21.929Z</time></trkpt><trkpt lat="42.7112937357986" lon="11.68245246759972"><ele>550.5</ele><time>2026-04-25T16:16:22.929Z</time></trkpt><trkpt lat="42.711149423371666" lon="11.68242371864616"><ele>546.25</ele><time>2026-04-25T16:16:23.929Z</time></trkpt><trkpt lat="42.711026710278226" lon="11.682478307007985"><ele>542.0</ele><time>2026-04-25T16:16:24.929Z</time></trkpt><trkpt lat="42.710911344737774" lon="11.682547527807698"><ele>540.5</ele><time>2026-04-25T16:16:25.929Z</time></trkpt><trkpt lat="42.71081063197444" lon="11.682627910386909"><ele>539.0</ele><time>2026-04-25T16:16:26.929Z</time></trkpt><trkpt lat="42.71071945453523" lon="11.682683462143597"><ele>537.5</ele><time>2026-04-25T16:16:27.929Z</time></trkpt><trkpt lat="42.710604719421944" lon="11.682768472572606"><ele>536.0</ele><time>2026-04-25T16:16:28.929Z</time></trkpt><trkpt lat="42.71048456492454" lon="11.68285199982651"><ele>536.5</ele><time>2026-04-25T16:16:29.929Z</time></trkpt><trkpt lat="42.7103635530602" lon="11.682935024237636"><ele>537.0</ele><time>2026-04-25T16:16:30.929Z</time></trkpt><trkpt lat="42.71025437113881" lon="11.68304694587743"><ele>537.5</ele><time>2026-04-25T16:16:31.929Z</time></trkpt><trkpt lat="42.71014469424809" lon="11.683159514215147"><ele>538.0</ele><time>2026-04-25T16:16:32.929Z</time></trkpt><trkpt lat="42.710074218362024" lon="11.683321138253394"><ele>538.0</ele><time>2026-04-25T16:16:33.929Z</time></trkpt><trkpt lat="42.70999066207816" lon="11.683483308285524"><ele>538.0</ele><time>2026-04-25T16:16:34.929Z</time></trkpt><trkpt lat="42.709908408565035" lon="11.683659766274364"><ele>538.0</ele><time>2026-04-25T16:16:35.929Z</time></trkpt><trkpt lat="42.709831043865094" lon="11.683843220816087"><ele>543.0</ele><time>2026-04-25T16:16:36.929Z</time></trkpt><trkpt lat="42.70975023774791" lon="11.684038447126929"><ele>548.0</ele><time>2026-04-25T16:16:37.928Z</time></trkpt><trkpt lat="42.70966382674445" lon="11.684250572057087"><ele>553.0</ele><time>2026-04-25T16:16:38.928Z</time></trkpt><trkpt lat="42.709577863555616" lon="11.684461565813578"><ele>555.3333333333334</ele><time>2026-04-25T16:16:39.928Z</time></trkpt><trkpt lat="42.70948812275482" lon="11.684678206906058"><ele>557.6666666666666</ele><time>2026-04-25T16:16:40.928Z</time></trkpt><trkpt lat="42.70940104489135" lon="11.684888409653857"><ele>560.0</ele><time>2026-04-25T16:16:41.928Z</time></trkpt><trkpt lat="42.70931763425446" lon="11.685090681519034"><ele>556.6666666666666</ele><time>2026-04-25T16:16:42.928Z</time></trkpt><trkpt lat="42.709236405554805" lon="11.685287661960281"><ele>553.3333333333334</ele><time>2026-04-25T16:16:43.928Z</time></trkpt><trkpt lat="42.709159693206885" lon="11.68547162796685"><ele>550.0</ele><time>2026-04-25T16:16:44.928Z</time></trkpt><trkpt lat="42.70908264362794" lon="11.685642123944014"><ele>550.0</ele><time>2026-04-25T16:16:45.928Z</time></trkpt><trkpt lat="42.7090022449358" lon="11.685799001539046"><ele>550.0</ele><time>2026-04-25T16:16:46.928Z</time></trkpt><trkpt lat="42.7089250198743" lon="11.685950332702516"><ele>550.0</ele><time>2026-04-25T16:16:47.928Z</time></trkpt><trkpt lat="42.70881336225142" lon="11.686046928854884"><ele>550.0</ele><time>2026-04-25T16:16:48.928Z</time></trkpt><trkpt lat="42.70870914342254" lon="11.686125275133515"><ele>549.75</ele><time>2026-04-25T16:16:49.928Z</time></trkpt><trkpt lat="42.70859500960989" lon="11.686176520725875"><ele>549.5</ele><time>2026-04-25T16:16:50.928Z</time></trkpt><trkpt lat="42.7084675380146" lon="11.68620312259847"><ele>549.25</ele><time>2026-04-25T16:16:51.928Z</time></trkpt><trkpt lat="42.708324310772966" lon="11.686209305984095"><ele>549.0</ele><time>2026-04-25T16:16:52.928Z</time></trkpt><trkpt lat="42.708181010387534" lon="11.686230929754545"><ele>549.0</ele><time>2026-04-25T16:16:53.928Z</time></trkpt><trkpt lat="42.70804156037689" lon="11.686231563372807"><ele>549.0</ele><time>2026-04-25T16:16:54.928Z</time></trkpt><trkpt lat="42.70791259815634" lon="11.686232129056544"><ele>549.0</ele><time>2026-04-25T16:16:55.928Z</time></trkpt><trkpt lat="42.707790030143364" lon="11.686238680216812"><ele>549.0</ele><time>2026-04-25T16:16:56.928Z</time></trkpt><trkpt lat="42.70767319999428" lon="11.686267139786096"><ele>545.5</ele><time>2026-04-25T16:16:57.928Z</time></trkpt><trkpt lat="42.70756568079128" lon="11.686337687857376"><ele>542.0</ele><time>2026-04-25T16:16:58.928Z</time></trkpt><trkpt lat="42.7074716740813" lon="11.68644471130145"><ele>538.5</ele><time>2026-04-25T16:16:59.928Z</time></trkpt><trkpt lat="42.70738425067822" lon="11.686569949283651"><ele>535.0</ele><time>2026-04-25T16:17:00.928Z</time></trkpt><trkpt lat="42.707299637602794" lon="11.686720300674573"><ele>535.0</ele><time>2026-04-25T16:17:01.928Z</time></trkpt><trkpt lat="42.707209459415935" lon="11.686895442002077"><ele>535.0</ele><time>2026-04-25T16:17:02.928Z</time></trkpt><trkpt lat="42.707103510319236" lon="11.68708186880969"><ele>535.0</ele><time>2026-04-25T16:17:03.928Z</time></trkpt><trkpt lat="42.706995254666616" lon="11.687262063869696"><ele>534.0</ele><time>2026-04-25T16:17:04.928Z</time></trkpt><trkpt lat="42.70689140739416" lon="11.687440163086222"><ele>533.0</ele><time>2026-04-25T16:17:05.928Z</time></trkpt><trkpt lat="42.70679536415215" lon="11.687587803589967"><ele>532.0</ele><time>2026-04-25T16:17:06.928Z</time></trkpt><trkpt lat="42.70669721929393" lon="11.687694443033756"><ele>531.0</ele><time>2026-04-25T16:17:07.928Z</time></trkpt><trkpt lat="42.70659606173533" lon="11.68777683655064"><ele>531.0</ele><time>2026-04-25T16:17:08.928Z</time></trkpt><trkpt lat="42.70648492937323" lon="11.687833566739842"><ele>531.0</ele><time>2026-04-25T16:17:09.928Z</time></trkpt><trkpt lat="42.70635561297958" lon="11.687870052671254"><ele>531.0</ele><time>2026-04-25T16:17:10.928Z</time></trkpt><trkpt lat="42.706207032705706" lon="11.68791268070816"><ele>531.0</ele><time>2026-04-25T16:17:11.927Z</time></trkpt><trkpt lat="42.70605525429018" lon="11.687963287936766"><ele>525.6666666666666</ele><time>2026-04-25T16:17:12.927Z</time></trkpt><trkpt lat="42.70589815329186" lon="11.687986858048921"><ele>520.3333333333333</ele><time>2026-04-25T16:17:13.927Z</time></trkpt><trkpt lat="42.705741165033416" lon="11.6880329977274"><ele>515.0</ele><time>2026-04-25T16:17:14.927Z</time></trkpt><trkpt lat="42.70559079222461" lon="11.688098159631028"><ele>515.0</ele><time>2026-04-25T16:17:15.927Z</time></trkpt><trkpt lat="42.705438054457325" lon="11.688133899758073"><ele>515.0</ele><time>2026-04-25T16:17:16.927Z</time></trkpt><trkpt lat="42.70528606180768" lon="11.68816644325589"><ele>515.0</ele><time>2026-04-25T16:17:17.927Z</time></trkpt><trkpt lat="42.70513473212067" lon="11.688205289835695"><ele>512.0</ele><time>2026-04-25T16:17:18.927Z</time></trkpt><trkpt lat="42.7049951314666" lon="11.688247674721469"><ele>509.0</ele><time>2026-04-25T16:17:19.927Z</time></trkpt><trkpt lat="42.70487189040164" lon="11.68828290619553"><ele>506.0</ele><time>2026-04-25T16:17:20.927Z</time></trkpt><trkpt lat="42.70476883278437" lon="11.688340823264786"><ele>503.0</ele><time>2026-04-25T16:17:21.927Z</time></trkpt><trkpt lat="42.704680213683005" lon="11.688428935808778"><ele>503.0</ele><time>2026-04-25T16:17:22.927Z</time></trkpt><trkpt lat="42.70460999853721" lon="11.688544141077731"><ele>502.99999999999994</ele><time>2026-04-25T16:17:23.927Z</time></trkpt><trkpt lat="42.70456057860342" lon="11.688677999151103"><ele>502.99999999999994</ele><time>2026-04-25T16:17:24.927Z</time></trkpt><trkpt lat="42.70452046873275" lon="11.688814248862801"><ele>503.0</ele><time>2026-04-25T16:17:25.927Z</time></trkpt><trkpt lat="42.704529472803266" lon="11.688972744785158"><ele>503.0</ele><time>2026-04-25T16:17:26.927Z</time></trkpt><trkpt lat="42.70453996142662" lon="11.689132327523401"><ele>502.75</ele><time>2026-04-25T16:17:27.927Z</time></trkpt><trkpt lat="42.70456697452848" lon="11.689298819114574"><ele>502.5</ele><time>2026-04-25T16:17:28.927Z</time></trkpt><trkpt lat="42.70459373226889" lon="11.6894691294613"><ele>502.25</ele><time>2026-04-25T16:17:29.927Z</time></trkpt><trkpt lat="42.7046209841235" lon="11.689642955776321"><ele>502.0</ele><time>2026-04-25T16:17:30.927Z</time></trkpt><trkpt lat="42.70464863505221" lon="11.68981720454319"><ele>501.25</ele><time>2026-04-25T16:17:31.927Z</time></trkpt><trkpt lat="42.704678434672" lon="11.689991518005618"><ele>500.5</ele><time>2026-04-25T16:17:32.927Z</time></trkpt><trkpt lat="42.704706524094235" lon="11.690176005753978"><ele>499.75</ele><time>2026-04-25T16:17:33.927Z</time></trkpt><trkpt lat="42.70473502748943" lon="11.690369681607006"><ele>499.0</ele><time>2026-04-25T16:17:34.927Z</time></trkpt><trkpt lat="42.70476125580909" lon="11.690551129585533"><ele>498.5</ele><time>2026-04-25T16:17:35.927Z</time></trkpt><trkpt lat="42.70478494436437" lon="11.69072035432624"><ele>498.0</ele><time>2026-04-25T16:17:36.927Z</time></trkpt><trkpt lat="42.70481133543181" lon="11.690887219064464"><ele>497.5</ele><time>2026-04-25T16:17:37.927Z</time></trkpt><trkpt lat="42.704842909717165" lon="11.691050484674648"><ele>497.0</ele><time>2026-04-25T16:17:38.927Z</time></trkpt><trkpt lat="42.70488014977784" lon="11.691203608523328"><ele>495.75</ele><time>2026-04-25T16:17:39.927Z</time></trkpt><trkpt lat="42.704933418401865" lon="11.691341289006566"><ele>494.5</ele><time>2026-04-25T16:17:40.929Z</time></trkpt><trkpt lat="42.705002649513496" lon="11.691462012621278"><ele>493.25</ele><time>2026-04-25T16:17:41.929Z</time></trkpt><trkpt lat="42.70507750187196" lon="11.691584888797122"><ele>492.0</ele><time>2026-04-25T16:17:42.929Z</time></trkpt><trkpt lat="42.70519645729915" lon="11.691661676613414"><ele>490.75</ele><time>2026-04-25T16:17:43.929Z</time></trkpt><trkpt lat="42.70531482212115" lon="11.691770417650366"><ele>489.5</ele><time>2026-04-25T16:17:44.929Z</time></trkpt><trkpt lat="42.70545592948507" lon="11.691850444714818"><ele>488.25</ele><time>2026-04-25T16:17:45.929Z</time></trkpt><trkpt lat="42.70558111955243" lon="11.69196787295487"><ele>487.0</ele><time>2026-04-25T16:17:46.929Z</time></trkpt><trkpt lat="42.70573286754397" lon="11.692071988022942"><ele>487.0</ele><time>2026-04-25T16:17:47.929Z</time></trkpt><trkpt lat="42.70590187128601" lon="11.692187912875713"><ele>487.0</ele><time>2026-04-25T16:17:48.929Z</time></trkpt><trkpt lat="42.706052556172395" lon="11.692290850275056"><ele>487.0</ele><time>2026-04-25T16:17:49.928Z</time></trkpt><trkpt lat="42.70619861634682" lon="11.69239071306946"><ele>489.0</ele><time>2026-04-25T16:17:50.929Z</time></trkpt><trkpt lat="42.70633137029946" lon="11.692499378529597"><ele>491.0</ele><time>2026-04-25T16:17:51.929Z</time></trkpt><trkpt lat="42.706463844422466" lon="11.692599565153918"><ele>493.0</ele><time>2026-04-25T16:17:52.929Z</time></trkpt><trkpt lat="42.706607185092324" lon="11.692698226658319"><ele>492.0</ele><time>2026-04-25T16:17:53.929Z</time></trkpt><trkpt lat="42.706737729591914" lon="11.692795541779994"><ele>491.0</ele><time>2026-04-25T16:17:54.929Z</time></trkpt><trkpt lat="42.706861942997584" lon="11.692892954149992"><ele>490.0</ele><time>2026-04-25T16:17:55.929Z</time></trkpt><trkpt lat="42.706979236549984" lon="11.692978427321947"><ele>489.0</ele><time>2026-04-25T16:17:56.929Z</time></trkpt><trkpt lat="42.707093063087235" lon="11.693061001336316"><ele>491.25</ele><time>2026-04-25T16:17:57.929Z</time></trkpt><trkpt lat="42.70719874760324" lon="11.693146705762066"><ele>493.5</ele><time>2026-04-25T16:17:58.929Z</time></trkpt><trkpt lat="42.7072927736549" lon="11.69324704387436"><ele>495.75</ele><time>2026-04-25T16:17:59.929Z</time></trkpt><trkpt lat="42.70737770841164" lon="11.693374910480632"><ele>498.0</ele><time>2026-04-25T16:18:00.929Z</time></trkpt><trkpt lat="42.70744315786719" lon="11.693535217395558"><ele>496.5</ele><time>2026-04-25T16:18:01.929Z</time></trkpt><trkpt lat="42.70746134451661" lon="11.693718317489964"><ele>495.0</ele><time>2026-04-25T16:18:02.929Z</time></trkpt><trkpt lat="42.70746321109551" lon="11.693907786462841"><ele>493.5</ele><time>2026-04-25T16:18:03.929Z</time></trkpt><trkpt lat="42.70744289665206" lon="11.69410833791312"><ele>492.0</ele><time>2026-04-25T16:18:04.929Z</time></trkpt><trkpt lat="42.70742112791661" lon="11.69431924402452"><ele>492.0</ele><time>2026-04-25T16:18:05.929Z</time></trkpt><trkpt lat="42.70739925484405" lon="11.694530354956218"><ele>492.0</ele><time>2026-04-25T16:18:06.928Z</time></trkpt><trkpt lat="42.707377715681254" lon="11.694737920606205"><ele>492.0</ele><time>2026-04-25T16:18:07.928Z</time></trkpt><trkpt lat="42.70735713818854" lon="11.694936218859425"><ele>492.0</ele><time>2026-04-25T16:18:08.928Z</time></trkpt><trkpt lat="42.70733761549519" lon="11.695123669063872"><ele>492.0</ele><time>2026-04-25T16:18:09.928Z</time></trkpt><trkpt lat="42.707317926426214" lon="11.69529843446193"><ele>492.0</ele><time>2026-04-25T16:18:10.928Z</time></trkpt><trkpt lat="42.70729601684509" lon="11.695462538625149"><ele>492.0</ele><time>2026-04-25T16:18:11.928Z</time></trkpt><trkpt lat="42.707278381024125" lon="11.695619115061383"><ele>492.0</ele><time>2026-04-25T16:18:12.928Z</time></trkpt><trkpt lat="42.70726709289783" lon="11.695762819581718"><ele>492.00000000000006</ele><time>2026-04-25T16:18:13.928Z</time></trkpt><trkpt lat="42.70728766006961" lon="11.695906870643313"><ele>492.00000000000006</ele><time>2026-04-25T16:18:14.928Z</time></trkpt><trkpt lat="42.70734125016761" lon="11.696028616750828"><ele>492.0</ele><time>2026-04-25T16:18:15.928Z</time></trkpt><trkpt lat="42.707366874358456" lon="11.69617068498968"><ele>492.0</ele><time>2026-04-25T16:18:16.928Z</time></trkpt><trkpt lat="42.70741981572142" lon="11.696280805240566"><ele>492.0</ele><time>2026-04-25T16:18:17.928Z</time></trkpt><trkpt lat="42.70743793117849" lon="11.69638923455893"><ele>492.0</ele><time>2026-04-25T16:18:18.928Z</time></trkpt><trkpt lat="42.70747302682814" lon="11.696494742772416"><ele>492.0</ele><time>2026-04-25T16:18:19.928Z</time></trkpt><trkpt lat="42.70750682659104" lon="11.696598649435987"><ele>492.0</ele><time>2026-04-25T16:18:20.928Z</time></trkpt><trkpt lat="42.70754082633477" lon="11.696699858771785"><ele>492.0</ele><time>2026-04-25T16:18:21.928Z</time></trkpt><trkpt lat="42.707578938469894" lon="11.696810676863894"><ele>492.0</ele><time>2026-04-25T16:18:22.928Z</time></trkpt><trkpt lat="42.70761800079362" lon="11.696926352783146"><ele>491.20000000000005</ele><time>2026-04-25T16:18:23.928Z</time></trkpt><trkpt lat="42.70765341756801" lon="11.697053253199146"><ele>490.40000000000003</ele><time>2026-04-25T16:18:24.928Z</time></trkpt><trkpt lat="42.70768948741767" lon="11.697185944321324"><ele>489.59999999999997</ele><time>2026-04-25T16:18:25.928Z</time></trkpt><trkpt lat="42.70772122520823" lon="11.69731448612334"><ele>488.79999999999995</ele><time>2026-04-25T16:18:26.928Z</time></trkpt><trkpt lat="42.70775539922409" lon="11.697447685184871"><ele>488.0</ele><time>2026-04-25T16:18:27.928Z</time></trkpt><trkpt lat="42.70778806445852" lon="11.69759090304496"><ele>491.59999999999997</ele><time>2026-04-25T16:18:28.928Z</time></trkpt><trkpt lat="42.70781880727218" lon="11.697732488136657"><ele>495.19999999999993</ele><time>2026-04-25T16:18:29.928Z</time></trkpt><trkpt lat="42.70784349943305" lon="11.697874879346369"><ele>498.8</ele><time>2026-04-25T16:18:30.928Z</time></trkpt><trkpt lat="42.707874134052815" lon="11.69801465459417"><ele>502.4</ele><time>2026-04-25T16:18:31.928Z</time></trkpt><trkpt lat="42.70790532189969" lon="11.698147398541295"><ele>506.0</ele><time>2026-04-25T16:18:32.928Z</time></trkpt><trkpt lat="42.70793730379897" lon="11.69827364708869"><ele>506.0</ele><time>2026-04-25T16:18:33.928Z</time></trkpt><trkpt lat="42.707956246506626" lon="11.698398704497249"><ele>506.0</ele><time>2026-04-25T16:18:34.928Z</time></trkpt><trkpt lat="42.707949225740485" lon="11.698534544031768"><ele>506.0</ele><time>2026-04-25T16:18:35.928Z</time></trkpt><trkpt lat="42.70791322925436" lon="11.698669079815083"><ele>506.0</ele><time>2026-04-25T16:18:36.928Z</time></trkpt><trkpt lat="42.70785155937698" lon="11.698783477231013"><ele>506.0</ele><time>2026-04-25T16:18:37.928Z</time></trkpt><trkpt lat="42.70776101131063" lon="11.698879736526766"><ele>502.5</ele><time>2026-04-25T16:18:38.928Z</time></trkpt><trkpt lat="42.70765988880939" lon="11.698972459992552"><ele>499.0</ele><time>2026-04-25T16:18:39.928Z</time></trkpt><trkpt lat="42.707545618329" lon="11.699070098017561"><ele>495.5</ele><time>2026-04-25T16:18:40.927Z</time></trkpt><trkpt lat="42.70742800624958" lon="11.69918080885328"><ele>492.0</ele><time>2026-04-25T16:18:41.927Z</time></trkpt><trkpt lat="42.707303659451775" lon="11.699295441732255"><ele>492.0</ele><time>2026-04-25T16:18:42.927Z</time></trkpt><trkpt lat="42.70717089456095" lon="11.699411278669325"><ele>492.0</ele><time>2026-04-25T16:18:43.927Z</time></trkpt><trkpt lat="42.70703930205276" lon="11.699526809976103"><ele>492.0</ele><time>2026-04-25T16:18:44.927Z</time></trkpt><trkpt lat="42.70690681554194" lon="11.699643726262131"><ele>490.33333333333337</ele><time>2026-04-25T16:18:45.927Z</time></trkpt><trkpt lat="42.70677304277447" lon="11.699767916689762"><ele>488.6666666666667</ele><time>2026-04-25T16:18:46.927Z</time></trkpt><trkpt lat="42.70663522255975" lon="11.699897118591018"><ele>487.0</ele><time>2026-04-25T16:18:47.927Z</time></trkpt><trkpt lat="42.7064909019118" lon="11.700025533949736"><ele>487.0</ele><time>2026-04-25T16:18:48.927Z</time></trkpt><trkpt lat="42.706352214094665" lon="11.700150133106536"><ele>487.0</ele><time>2026-04-25T16:18:49.927Z</time></trkpt><trkpt lat="42.70621924260945" lon="11.700282716948232"><ele>487.0</ele><time>2026-04-25T16:18:50.927Z</time></trkpt><trkpt lat="42.70608288936409" lon="11.700420365478198"><ele>484.0</ele><time>2026-04-25T16:18:51.927Z</time></trkpt><trkpt lat="42.70593619650998" lon="11.700554937308043"><ele>481.0</ele><time>2026-04-25T16:18:52.927Z</time></trkpt><trkpt lat="42.70579043655755" lon="11.70069117206492"><ele>478.0</ele><time>2026-04-25T16:18:53.927Z</time></trkpt><trkpt lat="42.70564094423994" lon="11.700820494866619"><ele>478.0</ele><time>2026-04-25T16:18:54.927Z</time></trkpt><trkpt lat="42.70549429188719" lon="11.700946557608066"><ele>478.0</ele><time>2026-04-25T16:18:55.927Z</time></trkpt><trkpt lat="42.705350128068204" lon="11.701075152686135"><ele>478.0</ele><time>2026-04-25T16:18:56.927Z</time></trkpt><trkpt lat="42.705218983582164" lon="11.70119335588162"><ele>474.5</ele><time>2026-04-25T16:18:57.927Z</time></trkpt><trkpt lat="42.7051046098269" lon="11.701306586103051"><ele>471.0</ele><time>2026-04-25T16:18:58.927Z</time></trkpt><trkpt lat="42.7050123442094" lon="11.701435179859168"><ele>467.5</ele><time>2026-04-25T16:18:59.927Z</time></trkpt><trkpt lat="42.70494378257367" lon="11.70159246082149"><ele>464.0</ele><time>2026-04-25T16:19:00.927Z</time></trkpt><trkpt lat="42.70489170665102" lon="11.701791763163149"><ele>464.5</ele><time>2026-04-25T16:19:01.927Z</time></trkpt><trkpt lat="42.70485330559528" lon="11.701979697382143"><ele>465.0</ele><time>2026-04-25T16:19:02.927Z</time></trkpt><trkpt lat="42.704793592911955" lon="11.702154211572145"><ele>465.5</ele><time>2026-04-25T16:19:03.927Z</time></trkpt><trkpt lat="42.704757602297065" lon="11.702316548010808"><ele>466.0</ele><time>2026-04-25T16:19:04.927Z</time></trkpt><trkpt lat="42.70468435864558" lon="11.702439857071587"><ele>466.0</ele><time>2026-04-25T16:19:05.927Z</time></trkpt><trkpt lat="42.70458776212582" lon="11.702539978942012"><ele>466.0</ele><time>2026-04-25T16:19:06.927Z</time></trkpt><trkpt lat="42.704462320871414" lon="11.702616010524192"><ele>466.0</ele><time>2026-04-25T16:19:07.927Z</time></trkpt><trkpt lat="42.70433285152951" lon="11.70268264029051"><ele>466.0</ele><time>2026-04-25T16:19:08.927Z</time></trkpt><trkpt lat="42.704200704848375" lon="11.702773111015743"><ele>465.0</ele><time>2026-04-25T16:19:09.927Z</time></trkpt><trkpt lat="42.70405657550703" lon="11.702837961443517"><ele>464.0</ele><time>2026-04-25T16:19:10.927Z</time></trkpt><trkpt lat="42.70391901014288" lon="11.702916124764137"><ele>463.0</ele><time>2026-04-25T16:19:11.927Z</time></trkpt><trkpt lat="42.70377843562263" lon="11.703002947318867"><ele>463.0</ele><time>2026-04-25T16:19:12.927Z</time></trkpt><trkpt lat="42.703630449793145" lon="11.703112793499212"><ele>463.0</ele><time>2026-04-25T16:19:13.927Z</time></trkpt><trkpt lat="42.703491285708296" lon="11.703263544026623"><ele>463.0</ele><time>2026-04-25T16:19:14.926Z</time></trkpt><trkpt lat="42.70336146999379" lon="11.703418303641774"><ele>460.0</ele><time>2026-04-25T16:19:15.926Z</time></trkpt><trkpt lat="42.70323030847469" lon="11.703570921628264"><ele>457.0</ele><time>2026-04-25T16:19:16.926Z</time></trkpt><trkpt lat="42.703103321542265" lon="11.703717553850796"><ele>454.0</ele><time>2026-04-25T16:19:17.926Z</time></trkpt><trkpt lat="42.702988080365785" lon="11.703839513176254"><ele>454.0</ele><time>2026-04-25T16:19:18.926Z</time></trkpt><trkpt lat="42.70288498314474" lon="11.70391581068017"><ele>454.0</ele><time>2026-04-25T16:19:19.926Z</time></trkpt><trkpt lat="42.70275986844206" lon="11.703937772253497"><ele>454.0</ele><time>2026-04-25T16:19:20.926Z</time></trkpt><trkpt lat="42.70262541454354" lon="11.703910555621796"><ele>454.0</ele><time>2026-04-25T16:19:21.926Z</time></trkpt><trkpt lat="42.70247957490892" lon="11.703868894461248"><ele>450.33333333333337</ele><time>2026-04-25T16:19:22.926Z</time></trkpt><trkpt lat="42.7023254421561" lon="11.703837031343841"><ele>446.66666666666663</ele><time>2026-04-25T16:19:23.926Z</time></trkpt><trkpt lat="42.70216710315643" lon="11.703791464586002"><ele>443.0</ele><time>2026-04-25T16:19:24.926Z</time></trkpt><trkpt lat="42.70200284095063" lon="11.703744377814548"><ele>439.66666666666663</ele><time>2026-04-25T16:19:25.926Z</time></trkpt><trkpt lat="42.701836001658144" lon="11.703703074069924"><ele>436.33333333333337</ele><time>2026-04-25T16:19:26.926Z</time></trkpt><trkpt lat="42.70165955869692" lon="11.703656674904021"><ele>433.0</ele><time>2026-04-25T16:19:27.926Z</time></trkpt><trkpt lat="42.70147759591515" lon="11.7036258262715"><ele>433.0</ele><time>2026-04-25T16:19:28.926Z</time></trkpt><trkpt lat="42.70129228469784" lon="11.703617966198905"><ele>433.0</ele><time>2026-04-25T16:19:29.926Z</time></trkpt><trkpt lat="42.70109348153256" lon="11.703626367067686"><ele>433.0</ele><time>2026-04-25T16:19:30.926Z</time></trkpt><trkpt lat="42.70090766884402" lon="11.703643507230876"><ele>430.6666666666667</ele><time>2026-04-25T16:19:31.926Z</time></trkpt><trkpt lat="42.70072811205381" lon="11.703658363141866"><ele>428.33333333333337</ele><time>2026-04-25T16:19:32.926Z</time></trkpt><trkpt lat="42.70055309357529" lon="11.703679426612645"><ele>426.0</ele><time>2026-04-25T16:19:33.926Z</time></trkpt><trkpt lat="42.70039628526846" lon="11.703694766721725"><ele>426.0</ele><time>2026-04-25T16:19:34.926Z</time></trkpt><trkpt lat="42.7002619779207" lon="11.703723384437952"><ele>426.0</ele><time>2026-04-25T16:19:35.926Z</time></trkpt><trkpt lat="42.7001445515326" lon="11.70377829559501"><ele>426.0</ele><time>2026-04-25T16:19:36.926Z</time></trkpt><trkpt lat="42.70005174302223" lon="11.703870742783154"><ele>426.0</ele><time>2026-04-25T16:19:37.926Z</time></trkpt><trkpt lat="42.69997246928722" lon="11.704000642530966"><ele>426.0</ele><time>2026-04-25T16:19:38.926Z</time></trkpt><trkpt lat="42.699906568920056" lon="11.704162865443461"><ele>426.0</ele><time>2026-04-25T16:19:39.926Z</time></trkpt><trkpt lat="42.69984100884957" lon="11.70435335111195"><ele>426.0</ele><time>2026-04-25T16:19:40.926Z</time></trkpt><trkpt lat="42.699775897271664" lon="11.704533249870273"><ele>426.0</ele><time>2026-04-25T16:19:41.926Z</time></trkpt><trkpt lat="42.699710041908695" lon="11.70470568983731"><ele>426.0</ele><time>2026-04-25T16:19:42.926Z</time></trkpt><trkpt lat="42.69964078162803" lon="11.704871325494832"><ele>426.0</ele><time>2026-04-25T16:19:43.926Z</time></trkpt><trkpt lat="42.69955429846819" lon="11.705015427240138"><ele>426.0</ele><time>2026-04-25T16:19:44.926Z</time></trkpt><trkpt lat="42.69945141733459" lon="11.705108177883831"><ele>426.0</ele><time>2026-04-25T16:19:45.926Z</time></trkpt><trkpt lat="42.699339980440605" lon="11.705139663719786"><ele>424.25</ele><time>2026-04-25T16:19:46.928Z</time></trkpt><trkpt lat="42.699237233791784" lon="11.705113281940418"><ele>422.5</ele><time>2026-04-25T16:19:47.928Z</time></trkpt><trkpt lat="42.69911512790445" lon="11.70506386534479"><ele>420.75</ele><time>2026-04-25T16:19:48.928Z</time></trkpt><trkpt lat="42.69898515347227" lon="11.705015569014446"><ele>419.0</ele><time>2026-04-25T16:19:49.927Z</time></trkpt><trkpt lat="42.69883592576691" lon="11.70497676421444"><ele>419.0</ele><time>2026-04-25T16:19:50.927Z</time></trkpt><trkpt lat="42.6986771461351" lon="11.704938239692083"><ele>419.0</ele><time>2026-04-25T16:19:51.927Z</time></trkpt><trkpt lat="42.69851633276735" lon="11.704875265211962"><ele>419.0</ele><time>2026-04-25T16:19:52.928Z</time></trkpt><trkpt lat="42.69834769718388" lon="11.704809529447086"><ele>417.0</ele><time>2026-04-25T16:19:53.928Z</time></trkpt><trkpt lat="42.69816650156982" lon="11.704763493734959"><ele>415.0</ele><time>2026-04-25T16:19:54.928Z</time></trkpt><trkpt lat="42.697971161637945" lon="11.704746458863195"><ele>413.0</ele><time>2026-04-25T16:19:55.928Z</time></trkpt><trkpt lat="42.69776952635766" lon="11.70475186472861"><ele>411.0</ele><time>2026-04-25T16:19:56.928Z</time></trkpt><trkpt lat="42.69755976422848" lon="11.704800024396162"><ele>409.0</ele><time>2026-04-25T16:19:57.928Z</time></trkpt><trkpt lat="42.697348070644004" lon="11.70484394437861"><ele>407.0</ele><time>2026-04-25T16:19:58.928Z</time></trkpt><trkpt lat="42.69713061288286" lon="11.7048738364951"><ele>407.0</ele><time>2026-04-25T16:19:59.928Z</time></trkpt><trkpt lat="42.69692468886293" lon="11.704920858107725"><ele>407.0</ele><time>2026-04-25T16:20:00.928Z</time></trkpt><trkpt lat="42.696717149382" lon="11.704968990955217"><ele>407.0</ele><time>2026-04-25T16:20:01.928Z</time></trkpt><trkpt lat="42.69652276576248" lon="11.705039949615628"><ele>403.66666666666663</ele><time>2026-04-25T16:20:02.928Z</time></trkpt><trkpt lat="42.696345338096" lon="11.705116708316256"><ele>400.33333333333337</ele><time>2026-04-25T16:20:03.928Z</time></trkpt><trkpt lat="42.696182864368495" lon="11.705176986658627"><ele>397.0</ele><time>2026-04-25T16:20:04.928Z</time></trkpt><trkpt lat="42.696040711283636" lon="11.705206011689178"><ele>396.6666666666667</ele><time>2026-04-25T16:20:05.928Z</time></trkpt><trkpt lat="42.695901793228224" lon="11.705189028584435"><ele>396.33333333333337</ele><time>2026-04-25T16:20:06.928Z</time></trkpt><trkpt lat="42.69575886757182" lon="11.705130256615087"><ele>396.0</ele><time>2026-04-25T16:20:07.928Z</time></trkpt><trkpt lat="42.69561159738763" lon="11.705027550614714"><ele>396.0</ele><time>2026-04-25T16:20:08.928Z</time></trkpt><trkpt lat="42.69543273141091" lon="11.704981277220268"><ele>396.0</ele><time>2026-04-25T16:20:09.928Z</time></trkpt><trkpt lat="42.69524005251693" lon="11.704911023544975"><ele>396.0</ele><time>2026-04-25T16:20:10.928Z</time></trkpt><trkpt lat="42.69505795594993" lon="11.704876488870545"><ele>391.3333333333333</ele><time>2026-04-25T16:20:11.928Z</time></trkpt><trkpt lat="42.69488080171176" lon="11.704821410960172"><ele>386.66666666666663</ele><time>2026-04-25T16:20:12.928Z</time></trkpt><trkpt lat="42.69470563673746" lon="11.704732249631817"><ele>382.0</ele><time>2026-04-25T16:20:13.927Z</time></trkpt><trkpt lat="42.69453324282673" lon="11.704608078796994"><ele>377.0</ele><time>2026-04-25T16:20:14.927Z</time></trkpt><trkpt lat="42.694374331928245" lon="11.704510025249444"><ele>372.0</ele><time>2026-04-25T16:20:15.927Z</time></trkpt><trkpt lat="42.69419722417256" lon="11.70445296096402"><ele>367.0</ele><time>2026-04-25T16:20:16.927Z</time></trkpt><trkpt lat="42.69402474261117" lon="11.704462323862026"><ele>367.0</ele><time>2026-04-25T16:20:17.927Z</time></trkpt><trkpt lat="42.693847881178236" lon="11.704507273824271"><ele>367.0</ele><time>2026-04-25T16:20:18.927Z</time></trkpt><trkpt lat="42.69366235103631" lon="11.704549108109177"><ele>367.0</ele><time>2026-04-25T16:20:19.927Z</time></trkpt><trkpt lat="42.69347239840226" lon="11.704588068774841"><ele>365.66666666666663</ele><time>2026-04-25T16:20:20.927Z</time></trkpt><trkpt lat="42.693287856484055" lon="11.704623491389064"><ele>364.3333333333333</ele><time>2026-04-25T16:20:21.927Z</time></trkpt><trkpt lat="42.69312240091478" lon="11.704649642326698"><ele>363.0</ele><time>2026-04-25T16:20:22.927Z</time></trkpt><trkpt lat="42.69298317258453" lon="11.704650855681331"><ele>363.0</ele><time>2026-04-25T16:20:23.927Z</time></trkpt><trkpt lat="42.692859214274954" lon="11.704612174773711"><ele>363.0</ele><time>2026-04-25T16:20:24.927Z</time></trkpt><trkpt lat="42.692733503533695" lon="11.704545571010419"><ele>363.0</ele><time>2026-04-25T16:20:25.927Z</time></trkpt><trkpt lat="42.69259542836272" lon="11.704462581955351"><ele>363.0</ele><time>2026-04-25T16:20:26.927Z</time></trkpt><trkpt lat="42.6924514819975" lon="11.704342994202342"><ele>364.3333333333333</ele><time>2026-04-25T16:20:27.927Z</time></trkpt><trkpt lat="42.692291316927545" lon="11.7042298029027"><ele>365.66666666666663</ele><time>2026-04-25T16:20:28.927Z</time></trkpt><trkpt lat="42.69212187883638" lon="11.704110058187489"><ele>367.0</ele><time>2026-04-25T16:20:29.927Z</time></trkpt><trkpt lat="42.69193542573447" lon="11.703978288710204"><ele>378.0</ele><time>2026-04-25T16:20:30.927Z</time></trkpt><trkpt lat="42.69172387234847" lon="11.703829252470195"><ele>389.0</ele><time>2026-04-25T16:20:31.927Z</time></trkpt><trkpt lat="42.69152497928584" lon="11.703691287027949"><ele>388.66666666666663</ele><time>2026-04-25T16:20:32.927Z</time></trkpt><trkpt lat="42.69135648093914" lon="11.703574405563836"><ele>388.33333333333337</ele><time>2026-04-25T16:20:33.927Z</time></trkpt><trkpt lat="42.69120518605677" lon="11.703462277009708"><ele>388.0</ele><time>2026-04-25T16:20:34.927Z</time></trkpt><trkpt lat="42.69104993006921" lon="11.703338199561516"><ele>388.0</ele><time>2026-04-25T16:20:35.927Z</time></trkpt><trkpt lat="42.6908909616004" lon="11.703208674996905"><ele>388.0</ele><time>2026-04-25T16:20:36.927Z</time></trkpt><trkpt lat="42.6907308740243" lon="11.703076253488463"><ele>388.0</ele><time>2026-04-25T16:20:37.927Z</time></trkpt><trkpt lat="42.690569814421664" lon="11.702930199473622"><ele>388.0</ele><time>2026-04-25T16:20:38.927Z</time></trkpt><trkpt lat="42.69040862663202" lon="11.70278138597891"><ele>388.0</ele><time>2026-04-25T16:20:39.927Z</time></trkpt><trkpt lat="42.69023695239129" lon="11.702609376074822"><ele>388.0</ele><time>2026-04-25T16:20:40.927Z</time></trkpt><trkpt lat="42.69005191362069" lon="11.702404322876593"><ele>386.33333333333337</ele><time>2026-04-25T16:20:41.927Z</time></trkpt><trkpt lat="42.689892683172495" lon="11.702225020673417"><ele>384.6666666666667</ele><time>2026-04-25T16:20:42.927Z</time></trkpt><trkpt lat="42.68974139268384" lon="11.702044963991954"><ele>383.0</ele><time>2026-04-25T16:20:43.927Z</time></trkpt><trkpt lat="42.68960487542861" lon="11.701856813054073"><ele>383.0</ele><time>2026-04-25T16:20:44.927Z</time></trkpt><trkpt lat="42.68946962696191" lon="11.701661582075674"><ele>383.0</ele><time>2026-04-25T16:20:45.927Z</time></trkpt><trkpt lat="42.689341314828006" lon="11.701473428313937"><ele>383.0</ele><time>2026-04-25T16:20:46.927Z</time></trkpt><trkpt lat="42.68922371717393" lon="11.701288260280302"><ele>386.6666666666667</ele><time>2026-04-25T16:20:47.926Z</time></trkpt><trkpt lat="42.68910704960235" lon="11.701101512893333"><ele>390.33333333333337</ele><time>2026-04-25T16:20:48.926Z</time></trkpt><trkpt lat="42.68898768739325" lon="11.700921077096254"><ele>394.0</ele><time>2026-04-25T16:20:49.926Z</time></trkpt><trkpt lat="42.688865822556565" lon="11.700743514797093"><ele>394.0</ele><time>2026-04-25T16:20:50.926Z</time></trkpt><trkpt lat="42.68874590158479" lon="11.700568115249995"><ele>394.0</ele><time>2026-04-25T16:20:51.926Z</time></trkpt><trkpt lat="42.688626698202924" lon="11.70038519252274"><ele>394.0</ele><time>2026-04-25T16:20:52.926Z</time></trkpt><trkpt lat="42.688501278062425" lon="11.700211650175078"><ele>398.33333333333337</ele><time>2026-04-25T16:20:53.926Z</time></trkpt><trkpt lat="42.68838256030606" lon="11.700028369748281"><ele>402.66666666666663</ele><time>2026-04-25T16:20:54.926Z</time></trkpt><trkpt lat="42.68826881974201" lon="11.699832745852486"><ele>407.0</ele><time>2026-04-25T16:20:55.926Z</time></trkpt><trkpt lat="42.68816105400347" lon="11.699638409739423"><ele>407.0</ele><time>2026-04-25T16:20:56.926Z</time></trkpt><trkpt lat="42.68805935465372" lon="11.699455057160531"><ele>407.0</ele><time>2026-04-25T16:20:57.926Z</time></trkpt><trkpt lat="42.68796354913317" lon="11.699293916384736"><ele>407.0</ele><time>2026-04-25T16:20:58.926Z</time></trkpt><trkpt lat="42.687861642593234" lon="11.69916541744844"><ele>409.25</ele><time>2026-04-25T16:20:59.926Z</time></trkpt><trkpt lat="42.687750719630166" lon="11.69908468331607"><ele>411.5</ele><time>2026-04-25T16:21:00.926Z</time></trkpt><trkpt lat="42.68763217846169" lon="11.699045544839436"><ele>413.75</ele><time>2026-04-25T16:21:01.926Z</time></trkpt><trkpt lat="42.687492054417596" lon="11.69904433218892"><ele>416.0</ele><time>2026-04-25T16:21:02.926Z</time></trkpt><trkpt lat="42.687364181114795" lon="11.699061815954037"><ele>416.0</ele><time>2026-04-25T16:21:03.926Z</time></trkpt><trkpt lat="42.6872478368078" lon="11.699121518860764"><ele>416.0</ele><time>2026-04-25T16:21:04.926Z</time></trkpt><trkpt lat="42.687144364381524" lon="11.699223348386282"><ele>416.0</ele><time>2026-04-25T16:21:05.926Z</time></trkpt><trkpt lat="42.687049990590495" lon="11.699370128503919"><ele>416.0</ele><time>2026-04-25T16:21:06.926Z</time></trkpt><trkpt lat="42.686972781479845" lon="11.699575827968372"><ele>416.0</ele><time>2026-04-25T16:21:07.926Z</time></trkpt><trkpt lat="42.6869105536367" lon="11.699789013304153"><ele>416.0</ele><time>2026-04-25T16:21:08.926Z</time></trkpt><trkpt lat="42.68685285427438" lon="11.699965659493184"><ele>416.0</ele><time>2026-04-25T16:21:09.926Z</time></trkpt><trkpt lat="42.68679226372113" lon="11.700129520378466"><ele>416.0</ele><time>2026-04-25T16:21:10.926Z</time></trkpt><trkpt lat="42.68673188489049" lon="11.7002816917281"><ele>416.0</ele><time>2026-04-25T16:21:11.926Z</time></trkpt><trkpt lat="42.68666484061584" lon="11.700417578487333"><ele>416.0</ele><time>2026-04-25T16:21:12.926Z</time></trkpt><trkpt lat="42.6865927357615" lon="11.700529764273128"><ele>416.0</ele><time>2026-04-25T16:21:13.926Z</time></trkpt><trkpt lat="42.686531152661104" lon="11.70061051077749"><ele>416.0</ele><time>2026-04-25T16:21:14.926Z</time></trkpt><trkpt lat="42.68647116176621" lon="11.700722164529308"><ele>416.0</ele><time>2026-04-25T16:21:16.926Z</time></trkpt><trkpt lat="42.686468117613884" lon="11.700839098903387"><ele>416.0</ele><time>2026-04-25T16:21:19.926Z</time></trkpt><trkpt lat="42.68657745995326" lon="11.70095397167289"><ele>416.0</ele><time>2026-04-25T16:21:21.925Z</time></trkpt><trkpt lat="42.68666199699854" lon="11.701012104511138"><ele>416.0</ele><time>2026-04-25T16:21:22.925Z</time></trkpt><trkpt lat="42.68675910496816" lon="11.701092620001159"><ele>416.0</ele><time>2026-04-25T16:21:23.925Z</time></trkpt><trkpt lat="42.68686946715344" lon="11.701185147899452"><ele>416.5</ele><time>2026-04-25T16:21:24.925Z</time></trkpt><trkpt lat="42.68698776775374" lon="11.701289909195733"><ele>417.0</ele><time>2026-04-25T16:21:25.925Z</time></trkpt><trkpt lat="42.6871130537746" lon="11.701391530676942"><ele>417.5</ele><time>2026-04-25T16:21:26.925Z</time></trkpt><trkpt lat="42.6872361619761" lon="11.701486618881802"><ele>418.0</ele><time>2026-04-25T16:21:27.925Z</time></trkpt><trkpt lat="42.687351206293386" lon="11.701574490661423"><ele>418.0</ele><time>2026-04-25T16:21:28.925Z</time></trkpt><trkpt lat="42.68745805357516" lon="11.701667674830112"><ele>418.0</ele><time>2026-04-25T16:21:29.925Z</time></trkpt><trkpt lat="42.68756108784994" lon="11.701759771449549"><ele>418.0</ele><time>2026-04-25T16:21:30.925Z</time></trkpt><trkpt lat="42.68766096420205" lon="11.701869506064936"><ele>418.0</ele><time>2026-04-25T16:21:31.925Z</time></trkpt><trkpt lat="42.687749052523344" lon="11.702002910438205"><ele>418.25</ele><time>2026-04-25T16:21:32.925Z</time></trkpt><trkpt lat="42.687814994331895" lon="11.702144281434235"><ele>418.5</ele><time>2026-04-25T16:21:33.925Z</time></trkpt><trkpt lat="42.68786385257629" lon="11.702286233208484"><ele>418.75</ele><time>2026-04-25T16:21:34.925Z</time></trkpt><trkpt lat="42.68789157960247" lon="11.702443348109929"><ele>419.0</ele><time>2026-04-25T16:21:35.925Z</time></trkpt><trkpt lat="42.687900729034965" lon="11.702611234760626"><ele>419.25</ele><time>2026-04-25T16:21:36.925Z</time></trkpt><trkpt lat="42.68789389035775" lon="11.702783149772408"><ele>419.5</ele><time>2026-04-25T16:21:37.925Z</time></trkpt><trkpt lat="42.687873066539986" lon="11.702961154368204"><ele>419.75</ele><time>2026-04-25T16:21:38.925Z</time></trkpt><trkpt lat="42.6878439188236" lon="11.703153212402226"><ele>420.0</ele><time>2026-04-25T16:21:39.925Z</time></trkpt><trkpt lat="42.687815652850766" lon="11.703355869614898"><ele>420.0</ele><time>2026-04-25T16:21:40.925Z</time></trkpt><trkpt lat="42.687787110305564" lon="11.703568695729313"><ele>420.0</ele><time>2026-04-25T16:21:41.925Z</time></trkpt><trkpt lat="42.68775280166673" lon="11.703788760746704"><ele>420.0</ele><time>2026-04-25T16:21:42.925Z</time></trkpt><trkpt lat="42.68771897103804" lon="11.70401425523949"><ele>418.66666666666663</ele><time>2026-04-25T16:21:43.925Z</time></trkpt><trkpt lat="42.687683863953986" lon="11.704239931196586"><ele>417.3333333333333</ele><time>2026-04-25T16:21:44.925Z</time></trkpt><trkpt lat="42.687650388388285" lon="11.704460729581333"><ele>416.0</ele><time>2026-04-25T16:21:45.925Z</time></trkpt><trkpt lat="42.68761724963975" lon="11.704672536355448"><ele>415.5</ele><time>2026-04-25T16:21:46.925Z</time></trkpt><trkpt lat="42.687587204421654" lon="11.704883320149113"><ele>415.0</ele><time>2026-04-25T16:21:47.925Z</time></trkpt><trkpt lat="42.687560116578176" lon="11.705086563219243"><ele>414.5</ele><time>2026-04-25T16:21:48.925Z</time></trkpt><trkpt lat="42.687532021901866" lon="11.705270044177482"><ele>414.0</ele><time>2026-04-25T16:21:49.925Z</time></trkpt><trkpt lat="42.687502583940976" lon="11.705428580340708"><ele>414.0</ele><time>2026-04-25T16:21:50.925Z</time></trkpt><trkpt lat="42.687458710737836" lon="11.70557826528754"><ele>414.0</ele><time>2026-04-25T16:21:51.925Z</time></trkpt><trkpt lat="42.6873882910683" lon="11.705718987050039"><ele>414.0</ele><time>2026-04-25T16:21:52.926Z</time></trkpt><trkpt lat="42.68729614966084" lon="11.70585537323984"><ele>414.0</ele><time>2026-04-25T16:21:53.926Z</time></trkpt><trkpt lat="42.68719262683742" lon="11.705993678629273"><ele>414.0</ele><time>2026-04-25T16:21:54.926Z</time></trkpt><trkpt lat="42.68708492273244" lon="11.70614116597121"><ele>414.0</ele><time>2026-04-25T16:21:55.927Z</time></trkpt><trkpt lat="42.68697535417044" lon="11.706290653152534"><ele>414.0</ele><time>2026-04-25T16:21:56.926Z</time></trkpt><trkpt lat="42.686872857505065" lon="11.706434740239589"><ele>414.0</ele><time>2026-04-25T16:21:57.926Z</time></trkpt><trkpt lat="42.68676978652567" lon="11.706569686723967"><ele>414.0</ele><time>2026-04-25T16:21:58.927Z</time></trkpt><trkpt lat="42.686655100244565" lon="11.706673357954712"><ele>414.0</ele><time>2026-04-25T16:21:59.927Z</time></trkpt><trkpt lat="42.686524809051505" lon="11.706749241961685"><ele>414.0</ele><time>2026-04-25T16:22:00.927Z</time></trkpt><trkpt lat="42.68638583531254" lon="11.706818487232882"><ele>414.0</ele><time>2026-04-25T16:22:01.926Z</time></trkpt><trkpt lat="42.686235247218754" lon="11.706892154756416"><ele>414.0</ele><time>2026-04-25T16:22:02.926Z</time></trkpt><trkpt lat="42.68608164136942" lon="11.706975864571302"><ele>414.0</ele><time>2026-04-25T16:22:03.926Z</time></trkpt><trkpt lat="42.68593747258957" lon="11.707056973919006"><ele>413.0</ele><time>2026-04-25T16:22:04.926Z</time></trkpt><trkpt lat="42.68580486227017" lon="11.707127882749445"><ele>412.0</ele><time>2026-04-25T16:22:05.926Z</time></trkpt><trkpt lat="42.685684564417095" lon="11.707181895389837"><ele>411.0</ele><time>2026-04-25T16:22:06.926Z</time></trkpt><trkpt lat="42.68557904279624" lon="11.707206663813329"><ele>410.0</ele><time>2026-04-25T16:22:07.926Z</time></trkpt><trkpt lat="42.68547510629753" lon="11.70719555342901"><ele>410.0</ele><time>2026-04-25T16:22:08.926Z</time></trkpt><trkpt lat="42.685359362876135" lon="11.707135910636861"><ele>410.0</ele><time>2026-04-25T16:22:09.926Z</time></trkpt><trkpt lat="42.685228432092494" lon="11.707093871240996"><ele>410.0</ele><time>2026-04-25T16:22:10.926Z</time></trkpt><trkpt lat="42.68510056542442" lon="11.707052887939858"><ele>410.0</ele><time>2026-04-25T16:22:11.926Z</time></trkpt><trkpt lat="42.68498676442403" lon="11.706997158845958"><ele>408.16666666666663</ele><time>2026-04-25T16:22:12.926Z</time></trkpt><trkpt lat="42.684885870186065" lon="11.706970688027063"><ele>406.3333333333333</ele><time>2026-04-25T16:22:13.926Z</time></trkpt><trkpt lat="42.6848084545503" lon="11.706960210568003"><ele>404.5</ele><time>2026-04-25T16:22:14.926Z</time></trkpt><trkpt lat="42.68475007391356" lon="11.707014310967416"><ele>402.66666666666663</ele><time>2026-04-25T16:22:15.926Z</time></trkpt><trkpt lat="42.684703429147085" lon="11.707095455464144"><ele>400.8333333333333</ele><time>2026-04-25T16:22:16.926Z</time></trkpt><trkpt lat="42.68471919220253" lon="11.707234759642574"><ele>399.0</ele><time>2026-04-25T16:22:17.926Z</time></trkpt><trkpt lat="42.68474406606913" lon="11.707389903275844"><ele>399.0</ele><time>2026-04-25T16:22:18.926Z</time></trkpt><trkpt lat="42.6847766977447" lon="11.707567135873274"><ele>399.0</ele><time>2026-04-25T16:22:19.926Z</time></trkpt><trkpt lat="42.684813520207506" lon="11.7077743035906"><ele>399.0</ele><time>2026-04-25T16:22:20.926Z</time></trkpt><trkpt lat="42.68484269436249" lon="11.70797033289975"><ele>399.0</ele><time>2026-04-25T16:22:21.926Z</time></trkpt><trkpt lat="42.68486422513889" lon="11.70816637684984"><ele>398.25</ele><time>2026-04-25T16:22:22.926Z</time></trkpt><trkpt lat="42.68488925780974" lon="11.708344958093098"><ele>397.5</ele><time>2026-04-25T16:22:23.926Z</time></trkpt><trkpt lat="42.684928680957114" lon="11.708483139769896"><ele>396.75</ele><time>2026-04-25T16:22:24.926Z</time></trkpt><trkpt lat="42.68499541240152" lon="11.708599000060785"><ele>396.0</ele><time>2026-04-25T16:22:25.926Z</time></trkpt><trkpt lat="42.68509107400715" lon="11.708703148763536"><ele>396.20000000000005</ele><time>2026-04-25T16:22:26.926Z</time></trkpt><trkpt lat="42.68519820730236" lon="11.708803803592968"><ele>396.40000000000003</ele><time>2026-04-25T16:22:27.926Z</time></trkpt><trkpt lat="42.685282024100545" lon="11.708907901712427"><ele>396.6</ele><time>2026-04-25T16:22:28.926Z</time></trkpt><trkpt lat="42.685319100272594" lon="11.708992461858722"><ele>396.8</ele><time>2026-04-25T16:22:29.926Z</time></trkpt><trkpt lat="42.685301440124434" lon="11.709136089301"><ele>397.0</ele><time>2026-04-25T16:22:31.926Z</time></trkpt><trkpt lat="42.68517359949735" lon="11.709195022260046"><ele>395.20000000000005</ele><time>2026-04-25T16:22:33.925Z</time></trkpt><trkpt lat="42.6850907239173" lon="11.709156336634637"><ele>393.4</ele><time>2026-04-25T16:22:34.925Z</time></trkpt><trkpt lat="42.68500577263787" lon="11.709093409443287"><ele>391.6</ele><time>2026-04-25T16:22:35.925Z</time></trkpt><trkpt lat="42.6849257195549" lon="11.709017342570805"><ele>389.79999999999995</ele><time>2026-04-25T16:22:36.925Z</time></trkpt><trkpt lat="42.68485605177602" lon="11.708907532363693"><ele>388.0</ele><time>2026-04-25T16:22:37.925Z</time></trkpt><trkpt lat="42.68481573441008" lon="11.708747770880395"><ele>388.0</ele><time>2026-04-25T16:22:38.925Z</time></trkpt><trkpt lat="42.68475459583221" lon="11.70858174608022"><ele>388.0</ele><time>2026-04-25T16:22:39.925Z</time></trkpt><trkpt lat="42.68470315813232" lon="11.708397179963844"><ele>388.0</ele><time>2026-04-25T16:22:40.925Z</time></trkpt><trkpt lat="42.68466361726757" lon="11.708197422853793"><ele>388.0</ele><time>2026-04-25T16:22:41.925Z</time></trkpt><trkpt lat="42.684603703338745" lon="11.708017367433126"><ele>390.6666666666667</ele><time>2026-04-25T16:22:42.925Z</time></trkpt><trkpt lat="42.68452250193485" lon="11.70784369997656"><ele>393.33333333333337</ele><time>2026-04-25T16:22:43.925Z</time></trkpt><trkpt lat="42.68440898830354" lon="11.707692372632865"><ele>396.0</ele><time>2026-04-25T16:22:44.925Z</time></trkpt><trkpt lat="42.684274219142246" lon="11.707579582225044"><ele>391.0</ele><time>2026-04-25T16:22:45.925Z</time></trkpt><trkpt lat="42.684138169338645" lon="11.707475009933578"><ele>386.0</ele><time>2026-04-25T16:22:46.925Z</time></trkpt><trkpt lat="42.68401627524998" lon="11.707388729845068"><ele>381.0</ele><time>2026-04-25T16:22:47.925Z</time></trkpt><trkpt lat="42.68394348989446" lon="11.70732763896752"><ele>376.0</ele><time>2026-04-25T16:22:48.925Z</time></trkpt><trkpt lat="42.683878471398174" lon="11.707273875020178"><ele>376.0</ele><time>2026-04-25T16:22:49.925Z</time></trkpt><trkpt lat="42.68385424924181" lon="11.707183761426434"><ele>376.0</ele><time>2026-04-25T16:22:50.925Z</time></trkpt><trkpt lat="42.68383786754939" lon="11.707063093972085"><ele>376.0</ele><time>2026-04-25T16:22:51.925Z</time></trkpt><trkpt lat="42.68382071401553" lon="11.706960400789022"><ele>376.0</ele><time>2026-04-25T16:22:52.925Z</time></trkpt><trkpt lat="42.68381604928737" lon="11.706856591880332"><ele>376.0</ele><time>2026-04-25T16:22:53.925Z</time></trkpt><trkpt lat="42.68383420347748" lon="11.706762006263673"><ele>376.0</ele><time>2026-04-25T16:22:54.925Z</time></trkpt><trkpt lat="42.68387233763869" lon="11.706691688686309"><ele>375.16666666666663</ele><time>2026-04-25T16:22:55.925Z</time></trkpt><trkpt lat="42.68394935457928" lon="11.706613543170599"><ele>374.3333333333333</ele><time>2026-04-25T16:22:56.925Z</time></trkpt><trkpt lat="42.68405189818973" lon="11.706625497970562"><ele>373.5</ele><time>2026-04-25T16:22:57.925Z</time></trkpt><trkpt lat="42.68414660298866" lon="11.706648435312605"><ele>372.6666666666667</ele><time>2026-04-25T16:22:58.925Z</time></trkpt><trkpt lat="42.684222839318075" lon="11.706672692659948"><ele>371.83333333333337</ele><time>2026-04-25T16:22:59.925Z</time></trkpt><trkpt lat="42.68428585657915" lon="11.706654260990758"><ele>371.0</ele><time>2026-04-25T16:23:00.925Z</time></trkpt><trkpt lat="42.684383968129154" lon="11.706575478391281"><ele>371.0</ele><time>2026-04-25T16:23:02.925Z</time></trkpt><trkpt lat="42.684380810384" lon="11.706485279231629"><ele>371.0</ele><time>2026-04-25T16:23:03.925Z</time></trkpt><trkpt lat="42.684376278344786" lon="11.706332430445233"><ele>371.0</ele><time>2026-04-25T16:23:04.925Z</time></trkpt><trkpt lat="42.684292074429166" lon="11.70624429064215"><ele>371.0</ele><time>2026-04-25T16:23:05.925Z</time></trkpt><trkpt lat="42.68420227987462" lon="11.706289121531332"><ele>371.0</ele><time>2026-04-25T16:23:06.924Z</time></trkpt><trkpt lat="42.684122023845745" lon="11.706296624327784"><ele>371.0</ele><time>2026-04-25T16:23:07.924Z</time></trkpt><trkpt lat="42.684030426311075" lon="11.70630112812274"><ele>371.0</ele><time>2026-04-25T16:23:08.924Z</time></trkpt><trkpt lat="42.683922255214014" lon="11.706302319166728"><ele>371.0</ele><time>2026-04-25T16:23:09.924Z</time></trkpt><trkpt lat="42.683794100098986" lon="11.70629062698578"><ele>371.0</ele><time>2026-04-25T16:23:10.924Z</time></trkpt><trkpt lat="42.68365698258359" lon="11.706260240929609"><ele>368.25</ele><time>2026-04-25T16:23:11.924Z</time></trkpt><trkpt lat="42.68352541913997" lon="11.706201912385229"><ele>365.5</ele><time>2026-04-25T16:23:12.924Z</time></trkpt><trkpt lat="42.68340264989121" lon="11.706154973181375"><ele>362.75</ele><time>2026-04-25T16:23:13.924Z</time></trkpt><trkpt lat="42.683283868901945" lon="11.706132576369603"><ele>360.0</ele><time>2026-04-25T16:23:14.924Z</time></trkpt><trkpt lat="42.68316421802431" lon="11.706143597088312"><ele>360.0</ele><time>2026-04-25T16:23:15.924Z</time></trkpt><trkpt lat="42.68304926661131" lon="11.706187470693209"><ele>360.0</ele><time>2026-04-25T16:23:16.924Z</time></trkpt><trkpt lat="42.68294727174053" lon="11.706270971496856"><ele>360.0</ele><time>2026-04-25T16:23:17.924Z</time></trkpt><trkpt lat="42.6828832915446" lon="11.706373025812846"><ele>360.0</ele><time>2026-04-25T16:23:18.924Z</time></trkpt><trkpt lat="42.68283500825529" lon="11.706495701045906"><ele>360.0</ele><time>2026-04-25T16:23:19.924Z</time></trkpt><trkpt lat="42.68278910507386" lon="11.706640383332305"><ele>351.25</ele><time>2026-04-25T16:23:20.924Z</time></trkpt><trkpt lat="42.68275765710855" lon="11.70680767365846"><ele>342.5</ele><time>2026-04-25T16:23:21.924Z</time></trkpt><trkpt lat="42.68273869024318" lon="11.706973262373468"><ele>333.75</ele><time>2026-04-25T16:23:22.924Z</time></trkpt><trkpt lat="42.682715055641104" lon="11.707125834156855"><ele>325.0</ele><time>2026-04-25T16:23:23.924Z</time></trkpt><trkpt lat="42.6826905873774" lon="11.707269646859752"><ele>325.0</ele><time>2026-04-25T16:23:24.924Z</time></trkpt><trkpt lat="42.68268740759891" lon="11.707401355808674"><ele>325.0</ele><time>2026-04-25T16:23:25.924Z</time></trkpt><trkpt lat="42.68269820578672" lon="11.707499462797998"><ele>325.0</ele><time>2026-04-25T16:23:26.924Z</time></trkpt><trkpt lat="42.6827377523206" lon="11.707577259815839"><ele>325.0</ele><time>2026-04-25T16:23:27.924Z</time></trkpt><trkpt lat="42.68279789153287" lon="11.707663998350661"><ele>325.0</ele><time>2026-04-25T16:23:28.924Z</time></trkpt><trkpt lat="42.682856717605816" lon="11.70777126043847"><ele>325.0</ele><time>2026-04-25T16:23:29.924Z</time></trkpt><trkpt lat="42.682926158527636" lon="11.707875110361316"><ele>325.0</ele><time>2026-04-25T16:23:30.924Z</time></trkpt><trkpt lat="42.683005830474606" lon="11.707958400718228"><ele>325.0</ele><time>2026-04-25T16:23:31.924Z</time></trkpt><trkpt lat="42.68309519086014" lon="11.7080075827508"><ele>325.0</ele><time>2026-04-25T16:23:32.924Z</time></trkpt><trkpt lat="42.68318824031474" lon="11.708025727463516"><ele>325.0</ele><time>2026-04-25T16:23:33.924Z</time></trkpt><trkpt lat="42.68328380046878" lon="11.70800671233042"><ele>325.0</ele><time>2026-04-25T16:23:34.924Z</time></trkpt><trkpt lat="42.683375177474055" lon="11.707994000188856"><ele>325.0</ele><time>2026-04-25T16:23:35.924Z</time></trkpt><trkpt lat="42.68345358484448" lon="11.708011918533854"><ele>325.0</ele><time>2026-04-25T16:23:36.924Z</time></trkpt><trkpt lat="42.68352469354111" lon="11.708079260164297"><ele>325.0</ele><time>2026-04-25T16:23:37.924Z</time></trkpt><trkpt lat="42.68360082010729" lon="11.708189212701075"><ele>325.0</ele><time>2026-04-25T16:23:38.924Z</time></trkpt><trkpt lat="42.68366609520487" lon="11.708322666597043"><ele>325.0</ele><time>2026-04-25T16:23:39.924Z</time></trkpt><trkpt lat="42.68371889327963" lon="11.708451894559744"><ele>331.0</ele><time>2026-04-25T16:23:40.923Z</time></trkpt><trkpt lat="42.68374923858048" lon="11.708586619077701"><ele>337.0</ele><time>2026-04-25T16:23:41.923Z</time></trkpt><trkpt lat="42.683765573273384" lon="11.708736669907852"><ele>343.0</ele><time>2026-04-25T16:23:42.923Z</time></trkpt><trkpt lat="42.68378071914987" lon="11.708889647805307"><ele>349.0</ele><time>2026-04-25T16:23:43.923Z</time></trkpt><trkpt lat="42.68381356886252" lon="11.70903419027045"><ele>355.0</ele><time>2026-04-25T16:23:44.923Z</time></trkpt><trkpt lat="42.683861609715215" lon="11.709171374380894"><ele>355.0</ele><time>2026-04-25T16:23:45.923Z</time></trkpt><trkpt lat="42.683909648347274" lon="11.709308493653143"><ele>355.0</ele><time>2026-04-25T16:23:46.923Z</time></trkpt><trkpt lat="42.683918080166954" lon="11.709468547509585"><ele>355.0</ele><time>2026-04-25T16:23:47.923Z</time></trkpt><trkpt lat="42.68390923871827" lon="11.709602420506814"><ele>355.0</ele><time>2026-04-25T16:23:48.923Z</time></trkpt><trkpt lat="42.6838669829124" lon="11.709703448831347"><ele>355.0</ele><time>2026-04-25T16:23:49.923Z</time></trkpt><trkpt lat="42.68381250910342" lon="11.709807683732702"><ele>356.2</ele><time>2026-04-25T16:23:50.923Z</time></trkpt><trkpt lat="42.683747656753994" lon="11.70991616352269"><ele>357.4</ele><time>2026-04-25T16:23:51.923Z</time></trkpt><trkpt lat="42.683672130220096" lon="11.710028297253446"><ele>358.6</ele><time>2026-04-25T16:23:52.923Z</time></trkpt><trkpt lat="42.68359789232281" lon="11.710134348084765"><ele>359.8</ele><time>2026-04-25T16:23:53.923Z</time></trkpt><trkpt lat="42.68353000783112" lon="11.710220486915889"><ele>361.0</ele><time>2026-04-25T16:23:54.923Z</time></trkpt><trkpt lat="42.68346953401793" lon="11.7102713191997"><ele>357.4</ele><time>2026-04-25T16:23:55.923Z</time></trkpt><trkpt lat="42.68335453655544" lon="11.710271459118449"><ele>353.8</ele><time>2026-04-25T16:23:57.923Z</time></trkpt><trkpt lat="42.683304100209014" lon="11.710199522106835"><ele>350.2</ele><time>2026-04-25T16:23:58.925Z</time></trkpt><trkpt lat="42.6832566634931" lon="11.710094658335457"><ele>346.59999999999997</ele><time>2026-04-25T16:23:59.925Z</time></trkpt><trkpt lat="42.683206003575606" lon="11.709976580137212"><ele>343.0</ele><time>2026-04-25T16:24:00.925Z</time></trkpt><trkpt lat="42.683155860857006" lon="11.709861742496097"><ele>338.16666666666663</ele><time>2026-04-25T16:24:01.924Z</time></trkpt><trkpt lat="42.683113939402226" lon="11.70975584677171"><ele>333.3333333333333</ele><time>2026-04-25T16:24:02.925Z</time></trkpt><trkpt lat="42.68307688137145" lon="11.709663506118599"><ele>328.5</ele><time>2026-04-25T16:24:03.925Z</time></trkpt><trkpt lat="42.68304086209221" lon="11.70957405067276"><ele>323.6666666666667</ele><time>2026-04-25T16:24:04.925Z</time></trkpt><trkpt lat="42.683004017194335" lon="11.709483236805005"><ele>318.83333333333337</ele><time>2026-04-25T16:24:05.925Z</time></trkpt><trkpt lat="42.682970509912835" lon="11.70940288018715"><ele>314.0</ele><time>2026-04-25T16:24:06.925Z</time></trkpt><trkpt lat="42.68292730281742" lon="11.709316734784174"><ele>312.83333333333337</ele><time>2026-04-25T16:24:07.925Z</time></trkpt><trkpt lat="42.682880254792444" lon="11.709256173140266"><ele>311.6666666666667</ele><time>2026-04-25T16:24:08.924Z</time></trkpt><trkpt lat="42.682764088769" lon="11.709246880144303"><ele>310.5</ele><time>2026-04-25T16:24:10.925Z</time></trkpt><trkpt lat="42.68270352077534" lon="11.709285772005167"><ele>309.3333333333333</ele><time>2026-04-25T16:24:11.925Z</time></trkpt><trkpt lat="42.68263572726257" lon="11.709300161498165"><ele>308.16666666666663</ele><time>2026-04-25T16:24:12.925Z</time></trkpt><trkpt lat="42.68256456306406" lon="11.70934153746754"><ele>307.0</ele><time>2026-04-25T16:24:13.925Z</time></trkpt><trkpt lat="42.682498803004734" lon="11.709385377561231"><ele>306.57142857142856</ele><time>2026-04-25T16:24:14.925Z</time></trkpt><trkpt lat="42.68244549914416" lon="11.70944306120173"><ele>306.1428571428571</ele><time>2026-04-25T16:24:15.925Z</time></trkpt><trkpt lat="42.68238255593682" lon="11.709460991859721"><ele>305.71428571428567</ele><time>2026-04-25T16:24:16.925Z</time></trkpt><trkpt lat="42.68232023764699" lon="11.70949578502782"><ele>305.2857142857143</ele><time>2026-04-25T16:24:17.925Z</time></trkpt><trkpt lat="42.682257722925954" lon="11.709528752975942"><ele>304.8571428571429</ele><time>2026-04-25T16:24:18.925Z</time></trkpt><trkpt lat="42.68219611522578" lon="11.70957580006144"><ele>304.4285714285714</ele><time>2026-04-25T16:24:19.925Z</time></trkpt><trkpt lat="42.68212821901801" lon="11.709627316380711"><ele>304.0</ele><time>2026-04-25T16:24:20.925Z</time></trkpt><trkpt lat="42.68205954507247" lon="11.70967271587337"><ele>304.0</ele><time>2026-04-25T16:24:21.925Z</time></trkpt><trkpt lat="42.68199161911466" lon="11.709715191747364"><ele>304.0</ele><time>2026-04-25T16:24:22.925Z</time></trkpt><trkpt lat="42.681927416002395" lon="11.709752415150016"><ele>304.0</ele><time>2026-04-25T16:24:23.925Z</time></trkpt><trkpt lat="42.68186210711075" lon="11.709793160477219"><ele>304.0</ele><time>2026-04-25T16:24:24.925Z</time></trkpt><trkpt lat="42.681793750846886" lon="11.709839492690227"><ele>304.0</ele><time>2026-04-25T16:24:25.925Z</time></trkpt><trkpt lat="42.68171643148031" lon="11.709884766496662"><ele>304.0</ele><time>2026-04-25T16:24:26.924Z</time></trkpt><trkpt lat="42.68164949587877" lon="11.70993258477619"><ele>309.0</ele><time>2026-04-25T16:24:27.924Z</time></trkpt><trkpt lat="42.68159904624765" lon="11.709999233719413"><ele>314.0</ele><time>2026-04-25T16:24:28.924Z</time></trkpt><trkpt lat="42.68155682555631" lon="11.710076495613055"><ele>319.0</ele><time>2026-04-25T16:24:29.924Z</time></trkpt><trkpt lat="42.681513161627244" lon="11.710171368055635"><ele>324.0</ele><time>2026-04-25T16:24:30.924Z</time></trkpt><trkpt lat="42.68148756892202" lon="11.710285540839106"><ele>329.0</ele><time>2026-04-25T16:24:31.924Z</time></trkpt><trkpt lat="42.68147593809315" lon="11.710408409089037"><ele>334.0</ele><time>2026-04-25T16:24:32.924Z</time></trkpt><trkpt lat="42.68148618693959" lon="11.710549378246247"><ele>334.0</ele><time>2026-04-25T16:24:33.924Z</time></trkpt><trkpt lat="42.681507233142234" lon="11.710684690918226"><ele>334.0</ele><time>2026-04-25T16:24:34.924Z</time></trkpt><trkpt lat="42.68153459140367" lon="11.710833339873545"><ele>334.0</ele><time>2026-04-25T16:24:35.924Z</time></trkpt><trkpt lat="42.68155785231402" lon="11.710974838160976"><ele>334.0</ele><time>2026-04-25T16:24:36.924Z</time></trkpt><trkpt lat="42.681572711622955" lon="11.711120850414648"><ele>334.0</ele><time>2026-04-25T16:24:37.924Z</time></trkpt><trkpt lat="42.68157639108445" lon="11.711265828892511"><ele>334.66666666666663</ele><time>2026-04-25T16:24:38.924Z</time></trkpt><trkpt lat="42.68157235483576" lon="11.711386342823635"><ele>335.3333333333333</ele><time>2026-04-25T16:24:39.924Z</time></trkpt><trkpt lat="42.681566654153116" lon="11.71149647713449"><ele>336.0</ele><time>2026-04-25T16:24:40.924Z</time></trkpt><trkpt lat="42.68155860577489" lon="11.71160240206497"><ele>336.6666666666667</ele><time>2026-04-25T16:24:42.924Z</time></trkpt><trkpt lat="42.681486064653015" lon="11.711625718491923"><ele>337.33333333333337</ele><time>2026-04-25T16:24:44.924Z</time></trkpt><trkpt lat="42.68141014578718" lon="11.711598829769471"><ele>338.0</ele><time>2026-04-25T16:24:45.924Z</time></trkpt><trkpt lat="42.68141008474198" lon="11.711472346381031"><ele>338.0</ele><time>2026-04-25T16:24:46.924Z</time></trkpt><trkpt lat="42.68144321087279" lon="11.711373674160395"><ele>338.0</ele><time>2026-04-25T16:24:47.924Z</time></trkpt><trkpt lat="42.681483374880784" lon="11.711273469240478"><ele>338.0</ele><time>2026-04-25T16:24:48.924Z</time></trkpt><trkpt lat="42.68149928419152" lon="11.711158454135068"><ele>338.0</ele><time>2026-04-25T16:24:49.924Z</time></trkpt><trkpt lat="42.681517252970366" lon="11.711042858130675"><ele>338.0</ele><time>2026-04-25T16:24:50.924Z</time></trkpt><trkpt lat="42.681513788050765" lon="11.710942746779866"><ele>338.0</ele><time>2026-04-25T16:24:51.924Z</time></trkpt><trkpt lat="42.68147601541319" lon="11.710869151682875"><ele>338.0</ele><time>2026-04-25T16:24:52.924Z</time></trkpt><trkpt lat="42.68141352361112" lon="11.71084200714371"><ele>338.0</ele><time>2026-04-25T16:24:53.924Z</time></trkpt><trkpt lat="42.68133727528114" lon="11.710855133177585"><ele>338.0</ele><time>2026-04-25T16:24:54.924Z</time></trkpt><trkpt lat="42.681260249612365" lon="11.711012171635996"><ele>338.0</ele><time>2026-04-25T16:24:56.924Z</time></trkpt><trkpt lat="42.68125896401351" lon="11.711136209404009"><ele>338.0</ele><time>2026-04-25T16:24:57.924Z</time></trkpt><trkpt lat="42.68127252487525" lon="11.711259038471564"><ele>338.0</ele><time>2026-04-25T16:24:58.924Z</time></trkpt><trkpt lat="42.68125624724084" lon="11.71138832802781"><ele>338.0</ele><time>2026-04-25T16:24:59.924Z</time></trkpt><trkpt lat="42.68125577883127" lon="11.711533140291289"><ele>338.0</ele><time>2026-04-25T16:25:00.923Z</time></trkpt><trkpt lat="42.68125623623707" lon="11.71168091874622"><ele>338.0</ele><time>2026-04-25T16:25:01.923Z</time></trkpt><trkpt lat="42.68126669001446" lon="11.711840106303837"><ele>338.0</ele><time>2026-04-25T16:25:02.923Z</time></trkpt><trkpt lat="42.681297793609595" lon="11.712003268751035"><ele>341.25</ele><time>2026-04-25T16:25:03.923Z</time></trkpt><trkpt lat="42.68135592423229" lon="11.712165017279034"><ele>344.5</ele><time>2026-04-25T16:25:04.923Z</time></trkpt><trkpt lat="42.68142235840479" lon="11.712308735201347"><ele>347.75</ele><time>2026-04-25T16:25:05.923Z</time></trkpt><trkpt lat="42.68148624168124" lon="11.712445249085901"><ele>351.0</ele><time>2026-04-25T16:25:06.923Z</time></trkpt><trkpt lat="42.68154850477164" lon="11.712580987389314"><ele>351.0</ele><time>2026-04-25T16:25:07.923Z</time></trkpt><trkpt lat="42.681616346032826" lon="11.712691348355495"><ele>351.0</ele><time>2026-04-25T16:25:08.923Z</time></trkpt><trkpt lat="42.681656115946154" lon="11.712796974085519"><ele>351.0</ele><time>2026-04-25T16:25:09.923Z</time></trkpt><trkpt lat="42.68170365542489" lon="11.7128970571619"><ele>351.0</ele><time>2026-04-25T16:25:10.923Z</time></trkpt><trkpt lat="42.681750272634744" lon="11.712983857634347"><ele>351.0</ele><time>2026-04-25T16:25:11.923Z</time></trkpt><trkpt lat="42.68177458188369" lon="11.713078669429967"><ele>351.0</ele><time>2026-04-25T16:25:12.923Z</time></trkpt><trkpt lat="42.68180342454299" lon="11.713159873584582"><ele>354.1666666666667</ele><time>2026-04-25T16:25:13.923Z</time></trkpt><trkpt lat="42.68179293962436" lon="11.713254163561398"><ele>357.3333333333333</ele><time>2026-04-25T16:25:15.923Z</time></trkpt><trkpt lat="42.681715880914496" lon="11.71321879338445"><ele>360.5</ele><time>2026-04-25T16:25:17.923Z</time></trkpt><trkpt lat="42.681683718223006" lon="11.713139191418566"><ele>363.66666666666663</ele><time>2026-04-25T16:25:18.923Z</time></trkpt><trkpt lat="42.681662226079105" lon="11.713025363137266"><ele>366.8333333333333</ele><time>2026-04-25T16:25:19.923Z</time></trkpt><trkpt lat="42.68160669804708" lon="11.712902978758269"><ele>370.0</ele><time>2026-04-25T16:25:20.923Z</time></trkpt><trkpt lat="42.681548288224604" lon="11.712754681474328"><ele>365.25</ele><time>2026-04-25T16:25:21.923Z</time></trkpt><trkpt lat="42.68148515768067" lon="11.712604664542551"><ele>360.5</ele><time>2026-04-25T16:25:22.923Z</time></trkpt><trkpt lat="42.681417024769004" lon="11.712458045189386"><ele>355.75</ele><time>2026-04-25T16:25:23.923Z</time></trkpt><trkpt lat="42.68135164226267" lon="11.712311130631976"><ele>351.0</ele><time>2026-04-25T16:25:24.923Z</time></trkpt><trkpt lat="42.68128136888974" lon="11.712165994951535"><ele>351.0</ele><time>2026-04-25T16:25:25.923Z</time></trkpt><trkpt lat="42.681228755309256" lon="11.71201910780097"><ele>351.0</ele><time>2026-04-25T16:25:26.923Z</time></trkpt><trkpt lat="42.68119614339197" lon="11.711868200189498"><ele>351.0</ele><time>2026-04-25T16:25:27.923Z</time></trkpt><trkpt lat="42.681180540881996" lon="11.71173029069888"><ele>351.0</ele><time>2026-04-25T16:25:28.923Z</time></trkpt><trkpt lat="42.68117084525505" lon="11.711615991984823"><ele>351.0</ele><time>2026-04-25T16:25:29.923Z</time></trkpt><trkpt lat="42.68114118539184" lon="11.711467156635035"><ele>356.0</ele><time>2026-04-25T16:25:31.923Z</time></trkpt><trkpt lat="42.68106532146616" lon="11.711419995696366"><ele>361.0</ele><time>2026-04-25T16:25:33.923Z</time></trkpt><trkpt lat="42.681002106493985" lon="11.711373178152405"><ele>366.0</ele><time>2026-04-25T16:25:37.922Z</time></trkpt><trkpt lat="42.680954894780164" lon="11.711439014318634"><ele>371.0</ele><time>2026-04-25T16:25:48.922Z</time></trkpt><trkpt lat="42.680935148544464" lon="11.711527951282292"><ele>376.0</ele><time>2026-04-25T16:28:00.921Z</time></trkpt><trkpt lat="42.68096966093225" lon="11.711672649345362"><ele>381.0</ele><time>2026-04-25T16:28:02.921Z</time></trkpt><trkpt lat="42.68099184472206" lon="11.711786697242612"><ele>381.0</ele><time>2026-04-25T16:28:03.921Z</time></trkpt><trkpt lat="42.68101784054533" lon="11.711906081256421"><ele>381.0</ele><time>2026-04-25T16:28:04.921Z</time></trkpt><trkpt lat="42.681057589173186" lon="11.712026846699736"><ele>381.0</ele><time>2026-04-25T16:28:05.921Z</time></trkpt><trkpt lat="42.68109808009059" lon="11.712151726653753"><ele>381.0</ele><time>2026-04-25T16:28:06.921Z</time></trkpt><trkpt lat="42.68114110717203" lon="11.712274612503762"><ele>381.0</ele><time>2026-04-25T16:28:07.921Z</time></trkpt><trkpt lat="42.68118844905351" lon="11.7123941456182"><ele>378.8</ele><time>2026-04-25T16:28:08.921Z</time></trkpt><trkpt lat="42.68123420199194" lon="11.712509096658378"><ele>376.6</ele><time>2026-04-25T16:28:09.921Z</time></trkpt><trkpt lat="42.6812786013547" lon="11.71262292316294"><ele>374.4</ele><time>2026-04-25T16:28:10.922Z</time></trkpt><trkpt lat="42.68131961549284" lon="11.71273222624432"><ele>372.2</ele><time>2026-04-25T16:28:11.923Z</time></trkpt><trkpt lat="42.681360269855666" lon="11.712837250350121"><ele>370.0</ele><time>2026-04-25T16:28:12.923Z</time></trkpt><trkpt lat="42.681402047015304" lon="11.712939929599871"><ele>370.0</ele><time>2026-04-25T16:28:13.922Z</time></trkpt><trkpt lat="42.681443222060494" lon="11.713038762623636"><ele>370.0</ele><time>2026-04-25T16:28:14.923Z</time></trkpt><trkpt lat="42.681486438181366" lon="11.713126942367714"><ele>370.0</ele><time>2026-04-25T16:28:15.923Z</time></trkpt><trkpt lat="42.68152187093328" lon="11.713206705061253"><ele>370.0</ele><time>2026-04-25T16:28:16.923Z</time></trkpt><trkpt lat="42.6815843935874" lon="11.713338669775212"><ele>370.0</ele><time>2026-04-25T16:28:18.923Z</time></trkpt><trkpt lat="42.681658688278745" lon="11.713460027224208"><ele>370.0</ele><time>2026-04-25T16:28:20.922Z</time></trkpt><trkpt lat="42.68170292786145" lon="11.713522342956901"><ele>370.0</ele><time>2026-04-25T16:28:21.922Z</time></trkpt><trkpt lat="42.68177054882944" lon="11.713641861367478"><ele>370.0</ele><time>2026-04-25T16:28:23.922Z</time></trkpt><trkpt lat="42.681800960721496" lon="11.713755342304538"><ele>370.0</ele><time>2026-04-25T16:28:25.922Z</time></trkpt><trkpt lat="42.68178497587236" lon="11.713846230666743"><ele>370.0</ele><time>2026-04-25T16:28:28.922Z</time></trkpt><trkpt lat="42.681695496594415" lon="11.713863244624179"><ele>370.0</ele><time>2026-04-25T16:28:39.922Z</time></trkpt><trkpt lat="42.68163290254659" lon="11.713899254618925"><ele>372.6</ele><time>2026-04-25T16:28:41.922Z</time></trkpt><trkpt lat="42.681566722317825" lon="11.713932724030869"><ele>375.2</ele><time>2026-04-25T16:28:43.922Z</time></trkpt><trkpt lat="42.68148619261601" lon="11.713950278206434"><ele>377.79999999999995</ele><time>2026-04-25T16:28:46.922Z</time></trkpt><trkpt lat="42.68141294463641" lon="11.713993618392827"><ele>380.4</ele><time>2026-04-25T16:28:50.921Z</time></trkpt><trkpt lat="42.68135791867538" lon="11.714051665689237"><ele>383.0</ele><time>2026-04-25T16:28:56.921Z</time></trkpt><trkpt lat="42.681453324260104" lon="11.714266808118134"><ele>386.79999999999995</ele><time>2026-04-25T16:28:58.921Z</time></trkpt><trkpt lat="42.68154177291129" lon="11.714409652001862"><ele>390.6</ele><time>2026-04-25T16:29:00.921Z</time></trkpt><trkpt lat="42.68159391531595" lon="11.714476812369572"><ele>394.4</ele><time>2026-04-25T16:29:01.921Z</time></trkpt><trkpt lat="42.68165733239404" lon="11.714517979351326"><ele>398.20000000000005</ele><time>2026-04-25T16:29:02.921Z</time></trkpt><trkpt lat="42.68172616462606" lon="11.714524217728561"><ele>402.0</ele><time>2026-04-25T16:29:03.921Z</time></trkpt><trkpt lat="42.68183456175271" lon="11.714462825589077"><ele>402.0</ele><time>2026-04-25T16:29:05.921Z</time></trkpt><trkpt lat="42.681899260636" lon="11.714430597300154"><ele>402.0</ele><time>2026-04-25T16:29:07.921Z</time></trkpt><trkpt lat="42.68198419286082" lon="11.714454486605238"><ele>402.0</ele><time>2026-04-25T16:29:16.921Z</time></trkpt><trkpt lat="42.68210470856166" lon="11.714357694378887"><ele>402.0</ele><time>2026-04-25T16:29:18.921Z</time></trkpt><trkpt lat="42.682175232877746" lon="11.714298157909797"><ele>402.0</ele><time>2026-04-25T16:29:19.921Z</time></trkpt><trkpt lat="42.6822499294679" lon="11.714258188386012"><ele>399.3333333333333</ele><time>2026-04-25T16:29:20.921Z</time></trkpt><trkpt lat="42.68234028039613" lon="11.714242407051067"><ele>396.66666666666663</ele><time>2026-04-25T16:29:21.921Z</time></trkpt><trkpt lat="42.682434497918784" lon="11.714241041124705"><ele>394.0</ele><time>2026-04-25T16:29:22.92Z</time></trkpt><trkpt lat="42.682523982656825" lon="11.714234300145558"><ele>391.3333333333333</ele><time>2026-04-25T16:29:23.92Z</time></trkpt><trkpt lat="42.68261002756259" lon="11.71423557335957"><ele>388.66666666666663</ele><time>2026-04-25T16:29:24.92Z</time></trkpt><trkpt lat="42.68269502015053" lon="11.714243387359723"><ele>386.0</ele><time>2026-04-25T16:29:25.92Z</time></trkpt><trkpt lat="42.68278331979141" lon="11.714270902775306"><ele>383.99999999999994</ele><time>2026-04-25T16:29:26.92Z</time></trkpt><trkpt lat="42.68286584819847" lon="11.714315472585751"><ele>382.0</ele><time>2026-04-25T16:29:27.92Z</time></trkpt><trkpt lat="42.682942659055314" lon="11.714362409564453"><ele>380.0</ele><time>2026-04-25T16:29:28.92Z</time></trkpt><trkpt lat="42.68301641984079" lon="11.714409469392685"><ele>378.0</ele><time>2026-04-25T16:29:29.92Z</time></trkpt><trkpt lat="42.68308329896172" lon="11.714451533399679"><ele>376.0</ele><time>2026-04-25T16:29:30.92Z</time></trkpt><trkpt lat="42.68315972828984" lon="11.714560132535807"><ele>374.0</ele><time>2026-04-25T16:29:32.92Z</time></trkpt><trkpt lat="42.68316663800586" lon="11.714650566191025"><ele>374.0</ele><time>2026-04-25T16:29:33.92Z</time></trkpt><trkpt lat="42.683145961016216" lon="11.714749127018974"><ele>374.0</ele><time>2026-04-25T16:29:34.92Z</time></trkpt><trkpt lat="42.68312481570277" lon="11.714854784843654"><ele>374.0</ele><time>2026-04-25T16:29:35.92Z</time></trkpt><trkpt lat="42.68310976759781" lon="11.71497582427575"><ele>374.0</ele><time>2026-04-25T16:29:36.92Z</time></trkpt><trkpt lat="42.6831022335461" lon="11.715096077745375"><ele>374.0</ele><time>2026-04-25T16:29:37.92Z</time></trkpt><trkpt lat="42.683109361988265" lon="11.715232686909008"><ele>374.0</ele><time>2026-04-25T16:29:38.92Z</time></trkpt><trkpt lat="42.68314697774995" lon="11.71537158892705"><ele>374.0</ele><time>2026-04-25T16:29:39.92Z</time></trkpt><trkpt lat="42.68319264082708" lon="11.715512017631099"><ele>374.0</ele><time>2026-04-25T16:29:40.92Z</time></trkpt><trkpt lat="42.68322935530438" lon="11.715663072541211"><ele>374.0</ele><time>2026-04-25T16:29:41.92Z</time></trkpt><trkpt lat="42.683254832408835" lon="11.715814120249966"><ele>374.0</ele><time>2026-04-25T16:29:42.92Z</time></trkpt><trkpt lat="42.68327020149927" lon="11.715970077537204"><ele>373.0</ele><time>2026-04-25T16:29:43.92Z</time></trkpt><trkpt lat="42.68328586787317" lon="11.716123217496897"><ele>372.0</ele><time>2026-04-25T16:29:44.92Z</time></trkpt><trkpt lat="42.68330380785566" lon="11.716274659542712"><ele>371.0</ele><time>2026-04-25T16:29:45.92Z</time></trkpt><trkpt lat="42.683310969531306" lon="11.716424120780783"><ele>370.0</ele><time>2026-04-25T16:29:46.92Z</time></trkpt><trkpt lat="42.68330590365913" lon="11.716575405790138"><ele>369.0</ele><time>2026-04-25T16:29:47.92Z</time></trkpt><trkpt lat="42.683303013930576" lon="11.716737806886993"><ele>367.25</ele><time>2026-04-25T16:29:48.92Z</time></trkpt><trkpt lat="42.68329043851626" lon="11.716904504144443"><ele>365.5</ele><time>2026-04-25T16:29:49.92Z</time></trkpt><trkpt lat="42.6832762403963" lon="11.717070377959343"><ele>363.75</ele><time>2026-04-25T16:29:50.92Z</time></trkpt><trkpt lat="42.683254270685154" lon="11.717231282439533"><ele>362.0</ele><time>2026-04-25T16:29:51.92Z</time></trkpt><trkpt lat="42.68323608427859" lon="11.717391285659627"><ele>362.0</ele><time>2026-04-25T16:29:52.92Z</time></trkpt><trkpt lat="42.6832124776846" lon="11.717544785161211"><ele>362.0</ele><time>2026-04-25T16:29:53.92Z</time></trkpt><trkpt lat="42.683174085766794" lon="11.717692799188214"><ele>362.0</ele><time>2026-04-25T16:29:54.92Z</time></trkpt><trkpt lat="42.683116878388866" lon="11.717812525806307"><ele>362.0</ele><time>2026-04-25T16:29:55.92Z</time></trkpt><trkpt lat="42.683067055140675" lon="11.717926251556591"><ele>362.0</ele><time>2026-04-25T16:29:56.919Z</time></trkpt><trkpt lat="42.683056621833984" lon="11.718060698330154"><ele>361.25</ele><time>2026-04-25T16:29:57.919Z</time></trkpt><trkpt lat="42.6830807511719" lon="11.718191824750699"><ele>360.5</ele><time>2026-04-25T16:29:58.919Z</time></trkpt><trkpt lat="42.68312729027483" lon="11.718331085555063"><ele>359.75</ele><time>2026-04-25T16:29:59.919Z</time></trkpt><trkpt lat="42.68317401834458" lon="11.718474211804695"><ele>359.0</ele><time>2026-04-25T16:30:00.919Z</time></trkpt><trkpt lat="42.683212544989004" lon="11.718640098198351"><ele>363.5</ele><time>2026-04-25T16:30:01.919Z</time></trkpt><trkpt lat="42.68324615752896" lon="11.718810650288688"><ele>368.0</ele><time>2026-04-25T16:30:02.919Z</time></trkpt><trkpt lat="42.68327469975116" lon="11.71897673031136"><ele>372.5</ele><time>2026-04-25T16:30:03.919Z</time></trkpt><trkpt lat="42.68330020161933" lon="11.7191310800149"><ele>377.0</ele><time>2026-04-25T16:30:04.919Z</time></trkpt><trkpt lat="42.683334633847075" lon="11.71925897717344"><ele>377.0</ele><time>2026-04-25T16:30:05.919Z</time></trkpt><trkpt lat="42.683387382869775" lon="11.719360230696699"><ele>377.0</ele><time>2026-04-25T16:30:06.919Z</time></trkpt><trkpt lat="42.68346129522568" lon="11.719429140006778"><ele>377.0</ele><time>2026-04-25T16:30:07.919Z</time></trkpt><trkpt lat="42.68355814563964" lon="11.719461000971041"><ele>377.0</ele><time>2026-04-25T16:30:08.919Z</time></trkpt><trkpt lat="42.683645721432775" lon="11.719509806249002"><ele>377.0</ele><time>2026-04-25T16:30:09.919Z</time></trkpt><trkpt lat="42.683732990586165" lon="11.71956306490095"><ele>370.5</ele><time>2026-04-25T16:30:10.919Z</time></trkpt><trkpt lat="42.68381878007385" lon="11.719656178770357"><ele>364.0</ele><time>2026-04-25T16:30:11.919Z</time></trkpt><trkpt lat="42.68391183458493" lon="11.719753929015779"><ele>357.5</ele><time>2026-04-25T16:30:12.919Z</time></trkpt><trkpt lat="42.68399845860332" lon="11.719888410943602"><ele>351.0</ele><time>2026-04-25T16:30:13.919Z</time></trkpt><trkpt lat="42.684089633495375" lon="11.720039882498341"><ele>351.0</ele><time>2026-04-25T16:30:14.919Z</time></trkpt><trkpt lat="42.68418313021237" lon="11.7202013411018"><ele>351.0</ele><time>2026-04-25T16:30:15.919Z</time></trkpt><trkpt lat="42.68426992069446" lon="11.720364028131895"><ele>351.0</ele><time>2026-04-25T16:30:16.921Z</time></trkpt><trkpt lat="42.684350323237155" lon="11.720539356045993"><ele>347.0</ele><time>2026-04-25T16:30:17.921Z</time></trkpt><trkpt lat="42.68441696682133" lon="11.720718647672673"><ele>343.0</ele><time>2026-04-25T16:30:18.921Z</time></trkpt><trkpt lat="42.68447742769825" lon="11.720902621149438"><ele>339.0</ele><time>2026-04-25T16:30:19.921Z</time></trkpt><trkpt lat="42.68451826535607" lon="11.72109297887786"><ele>335.0</ele><time>2026-04-25T16:30:20.922Z</time></trkpt><trkpt lat="42.684534442859565" lon="11.72125886370282"><ele>335.0</ele><time>2026-04-25T16:30:21.921Z</time></trkpt><trkpt lat="42.68452927360681" lon="11.721400081319528"><ele>335.0</ele><time>2026-04-25T16:30:22.921Z</time></trkpt><trkpt lat="42.68450610919004" lon="11.721530444540434"><ele>335.0</ele><time>2026-04-25T16:30:23.921Z</time></trkpt><trkpt lat="42.68447919555794" lon="11.721657883665264"><ele>335.0</ele><time>2026-04-25T16:30:24.921Z</time></trkpt><trkpt lat="42.68445070170406" lon="11.721789007711363"><ele>335.0</ele><time>2026-04-25T16:30:25.921Z</time></trkpt><trkpt lat="42.684422623674756" lon="11.721920601731618"><ele>334.6</ele><time>2026-04-25T16:30:26.921Z</time></trkpt><trkpt lat="42.6844255184465" lon="11.722080573719305"><ele>334.2</ele><time>2026-04-25T16:30:27.921Z</time></trkpt><trkpt lat="42.68443578707121" lon="11.722225819554408"><ele>333.79999999999995</ele><time>2026-04-25T16:30:28.921Z</time></trkpt><trkpt lat="42.684413361493064" lon="11.722323576987725"><ele>333.4</ele><time>2026-04-25T16:30:29.921Z</time></trkpt><trkpt lat="42.68436641789929" lon="11.72240638398203"><ele>333.0</ele><time>2026-04-25T16:30:30.921Z</time></trkpt><trkpt lat="42.68430009960314" lon="11.722490714263712"><ele>335.75</ele><time>2026-04-25T16:30:31.921Z</time></trkpt><trkpt lat="42.68420051016726" lon="11.722615419234486"><ele>338.5</ele><time>2026-04-25T16:30:32.921Z</time></trkpt><trkpt lat="42.68410803043311" lon="11.722767098727179"><ele>341.25</ele><time>2026-04-25T16:30:33.921Z</time></trkpt><trkpt lat="42.68404269670326" lon="11.722927190575964"><ele>344.0</ele><time>2026-04-25T16:30:34.921Z</time></trkpt><trkpt lat="42.684004632609195" lon="11.723095155540395"><ele>344.0</ele><time>2026-04-25T16:30:35.921Z</time></trkpt><trkpt lat="42.68400272498684" lon="11.723260834849967"><ele>344.0</ele><time>2026-04-25T16:30:36.921Z</time></trkpt><trkpt lat="42.68400497391021" lon="11.723442638686095"><ele>344.0</ele><time>2026-04-25T16:30:37.921Z</time></trkpt><trkpt lat="42.68401604947757" lon="11.723619990707725"><ele>344.0</ele><time>2026-04-25T16:30:38.921Z</time></trkpt><trkpt lat="42.68404472127848" lon="11.723780346140385"><ele>346.0</ele><time>2026-04-25T16:30:39.921Z</time></trkpt><trkpt lat="42.68409283598258" lon="11.723915914665948"><ele>348.0</ele><time>2026-04-25T16:30:40.921Z</time></trkpt><trkpt lat="42.684166321723566" lon="11.724030494991217"><ele>350.0</ele><time>2026-04-25T16:30:41.921Z</time></trkpt><trkpt lat="42.684260934698294" lon="11.724134566043062"><ele>352.0</ele><time>2026-04-25T16:30:42.921Z</time></trkpt><trkpt lat="42.684371080609395" lon="11.724238587232128"><ele>351.0</ele><time>2026-04-25T16:30:43.921Z</time></trkpt><trkpt lat="42.684496530790376" lon="11.724334946061546"><ele>350.0</ele><time>2026-04-25T16:30:44.921Z</time></trkpt><trkpt lat="42.684614533436424" lon="11.724435318478061"><ele>349.0</ele><time>2026-04-25T16:30:45.921Z</time></trkpt><trkpt lat="42.68472607141617" lon="11.724536190828045"><ele>348.0</ele><time>2026-04-25T16:30:46.921Z</time></trkpt><trkpt lat="42.68483269043817" lon="11.724658384361774"><ele>348.0</ele><time>2026-04-25T16:30:47.921Z</time></trkpt><trkpt lat="42.6849315902632" lon="11.724803927010813"><ele>348.0</ele><time>2026-04-25T16:30:48.921Z</time></trkpt><trkpt lat="42.685008417922504" lon="11.724959435093362"><ele>348.0</ele><time>2026-04-25T16:30:49.921Z</time></trkpt><trkpt lat="42.6850720505898" lon="11.725104306802214"><ele>348.0</ele><time>2026-04-25T16:30:50.92Z</time></trkpt><trkpt lat="42.6851176557276" lon="11.725264051976714"><ele>348.0</ele><time>2026-04-25T16:30:51.92Z</time></trkpt><trkpt lat="42.685136123173365" lon="11.725410945566855"><ele>348.0</ele><time>2026-04-25T16:30:52.92Z</time></trkpt><trkpt lat="42.68517742845326" lon="11.725541388859092"><ele>348.0</ele><time>2026-04-25T16:30:53.92Z</time></trkpt><trkpt lat="42.6852249815586" lon="11.72563145525419"><ele>348.0</ele><time>2026-04-25T16:30:54.92Z</time></trkpt><trkpt lat="42.685292605096315" lon="11.725694524379874"><ele>348.0</ele><time>2026-04-25T16:30:55.92Z</time></trkpt><trkpt lat="42.68538028207667" lon="11.725692161361813"><ele>348.0</ele><time>2026-04-25T16:30:56.92Z</time></trkpt><trkpt lat="42.68546253078921" lon="11.725705778191825"><ele>348.0</ele><time>2026-04-25T16:30:57.92Z</time></trkpt><trkpt lat="42.68553923728008" lon="11.72571018565377"><ele>348.0</ele><time>2026-04-25T16:30:58.92Z</time></trkpt><trkpt lat="42.685612925750995" lon="11.725676588357857"><ele>348.0</ele><time>2026-04-25T16:30:59.92Z</time></trkpt><trkpt lat="42.6856886158118" lon="11.725622776875904"><ele>348.0</ele><time>2026-04-25T16:31:00.92Z</time></trkpt><trkpt lat="42.6857101118782" lon="11.725506573378903"><ele>348.0</ele><time>2026-04-25T16:31:01.92Z</time></trkpt><trkpt lat="42.68571888252129" lon="11.725377954785277"><ele>348.0</ele><time>2026-04-25T16:31:02.92Z</time></trkpt><trkpt lat="42.685717249321854" lon="11.725231315336789"><ele>348.0</ele><time>2026-04-25T16:31:03.92Z</time></trkpt><trkpt lat="42.68572120626388" lon="11.725060439479623"><ele>348.0</ele><time>2026-04-25T16:31:04.92Z</time></trkpt><trkpt lat="42.685692825185484" lon="11.724866069532307"><ele>348.0</ele><time>2026-04-25T16:31:05.92Z</time></trkpt><trkpt lat="42.685637218094996" lon="11.724679062494937"><ele>350.3333333333333</ele><time>2026-04-25T16:31:06.92Z</time></trkpt><trkpt lat="42.68558836119706" lon="11.724484410038725"><ele>352.66666666666663</ele><time>2026-04-25T16:31:07.92Z</time></trkpt><trkpt lat="42.68552493854977" lon="11.724290369641684"><ele>355.0</ele><time>2026-04-25T16:31:08.92Z</time></trkpt><trkpt lat="42.68545193153975" lon="11.724101861729004"><ele>357.5</ele><time>2026-04-25T16:31:09.92Z</time></trkpt><trkpt lat="42.68537666551527" lon="11.723917987483473"><ele>360.0</ele><time>2026-04-25T16:31:10.92Z</time></trkpt><trkpt lat="42.685304755453515" lon="11.723753495449518"><ele>362.5</ele><time>2026-04-25T16:31:11.92Z</time></trkpt><trkpt lat="42.68523583402441" lon="11.723601875966002"><ele>365.0</ele><time>2026-04-25T16:31:12.92Z</time></trkpt><trkpt lat="42.68518007665918" lon="11.723477265092047"><ele>359.4</ele><time>2026-04-25T16:31:13.92Z</time></trkpt><trkpt lat="42.68515098355659" lon="11.72336656861009"><ele>353.8</ele><time>2026-04-25T16:31:14.92Z</time></trkpt><trkpt lat="42.685134916446245" lon="11.72325616773358"><ele>348.20000000000005</ele><time>2026-04-25T16:31:15.92Z</time></trkpt><trkpt lat="42.68515538867721" lon="11.723113776080787"><ele>342.6</ele><time>2026-04-25T16:31:16.92Z</time></trkpt><trkpt lat="42.685193262448784" lon="11.722967687312558"><ele>337.0</ele><time>2026-04-25T16:31:17.92Z</time></trkpt><trkpt lat="42.68523052002337" lon="11.722807253064419"><ele>336.0</ele><time>2026-04-25T16:31:18.92Z</time></trkpt><trkpt lat="42.685245967105175" lon="11.72263425157818"><ele>335.0</ele><time>2026-04-25T16:31:19.92Z</time></trkpt><trkpt lat="42.685250937738566" lon="11.722474817710419"><ele>334.0</ele><time>2026-04-25T16:31:20.92Z</time></trkpt><trkpt lat="42.68526497858924" lon="11.722328690465174"><ele>333.0</ele><time>2026-04-25T16:31:21.92Z</time></trkpt><trkpt lat="42.68529550112606" lon="11.722192945980868"><ele>341.25</ele><time>2026-04-25T16:31:22.92Z</time></trkpt><trkpt lat="42.68534246859895" lon="11.72206669713389"><ele>349.5</ele><time>2026-04-25T16:31:23.92Z</time></trkpt><trkpt lat="42.68541043765841" lon="11.721940117480566"><ele>357.75</ele><time>2026-04-25T16:31:24.919Z</time></trkpt><trkpt lat="42.68548419037928" lon="11.721797805730375"><ele>366.0</ele><time>2026-04-25T16:31:25.919Z</time></trkpt><trkpt lat="42.68555253755432" lon="11.7216411033703"><ele>366.0</ele><time>2026-04-25T16:31:26.919Z</time></trkpt><trkpt lat="42.68561180123666" lon="11.721477375195754"><ele>366.0</ele><time>2026-04-25T16:31:27.919Z</time></trkpt><trkpt lat="42.685657599796976" lon="11.721315463726423"><ele>366.0</ele><time>2026-04-25T16:31:28.919Z</time></trkpt><trkpt lat="42.685687313378686" lon="11.721172696608035"><ele>366.0</ele><time>2026-04-25T16:31:29.919Z</time></trkpt><trkpt lat="42.68570358675486" lon="11.721040274118396"><ele>366.0</ele><time>2026-04-25T16:31:30.919Z</time></trkpt><trkpt lat="42.68571352068667" lon="11.72093189866385"><ele>366.0</ele><time>2026-04-25T16:31:31.919Z</time></trkpt><trkpt lat="42.68574329890786" lon="11.720853554211267"><ele>366.0</ele><time>2026-04-25T16:31:32.919Z</time></trkpt><trkpt lat="42.685863749937404" lon="11.720827797203333"><ele>366.0</ele><time>2026-04-25T16:31:34.919Z</time></trkpt><trkpt lat="42.68591114588853" lon="11.720903424322984"><ele>366.0</ele><time>2026-04-25T16:31:35.919Z</time></trkpt><trkpt lat="42.6859055550293" lon="11.721019707544798"><ele>366.0</ele><time>2026-04-25T16:31:36.919Z</time></trkpt><trkpt lat="42.68587098994521" lon="11.721113470296762"><ele>366.0</ele><time>2026-04-25T16:31:37.919Z</time></trkpt><trkpt lat="42.68584365874197" lon="11.721242395744524"><ele>366.0</ele><time>2026-04-25T16:31:38.919Z</time></trkpt><trkpt lat="42.68580904661773" lon="11.721398198530157"><ele>366.0</ele><time>2026-04-25T16:31:39.919Z</time></trkpt><trkpt lat="42.68576836757675" lon="11.721579774489772"><ele>366.0</ele><time>2026-04-25T16:31:40.919Z</time></trkpt><trkpt lat="42.68572710284551" lon="11.721766172875018"><ele>370.0</ele><time>2026-04-25T16:31:41.919Z</time></trkpt><trkpt lat="42.68568030330518" lon="11.721972331489217"><ele>374.0</ele><time>2026-04-25T16:31:42.919Z</time></trkpt><trkpt lat="42.68563759568116" lon="11.722157965127113"><ele>378.0</ele><time>2026-04-25T16:31:43.919Z</time></trkpt><trkpt lat="42.68559856324488" lon="11.722360840650877"><ele>378.0</ele><time>2026-04-25T16:31:44.919Z</time></trkpt><trkpt lat="42.685588063510004" lon="11.722569489447539"><ele>378.0</ele><time>2026-04-25T16:31:45.919Z</time></trkpt><trkpt lat="42.68558261394396" lon="11.722785539921919"><ele>378.0</ele><time>2026-04-25T16:31:46.919Z</time></trkpt><trkpt lat="42.6855766326112" lon="11.723015025273112"><ele>378.5</ele><time>2026-04-25T16:31:47.919Z</time></trkpt><trkpt lat="42.68558083480609" lon="11.723228210982413"><ele>379.0</ele><time>2026-04-25T16:31:48.919Z</time></trkpt><trkpt lat="42.6856052874636" lon="11.723413491780875"><ele>379.5</ele><time>2026-04-25T16:31:49.919Z</time></trkpt><trkpt lat="42.68565447490626" lon="11.723595995171639"><ele>380.0</ele><time>2026-04-25T16:31:50.919Z</time></trkpt><trkpt lat="42.685731180259594" lon="11.723754417314124"><ele>376.25</ele><time>2026-04-25T16:31:51.919Z</time></trkpt><trkpt lat="42.68582267143985" lon="11.72390153866178"><ele>372.5</ele><time>2026-04-25T16:31:52.919Z</time></trkpt><trkpt lat="42.68591777490344" lon="11.724046881205865"><ele>368.75</ele><time>2026-04-25T16:31:53.919Z</time></trkpt><trkpt lat="42.68602390953938" lon="11.72419657950421"><ele>365.0</ele><time>2026-04-25T16:31:54.919Z</time></trkpt><trkpt lat="42.68614088422182" lon="11.724322820791002"><ele>372.25</ele><time>2026-04-25T16:31:55.919Z</time></trkpt><trkpt lat="42.68624496743539" lon="11.72444668870309"><ele>379.5</ele><time>2026-04-25T16:31:56.919Z</time></trkpt><trkpt lat="42.68635029308186" lon="11.724558484164419"><ele>386.75</ele><time>2026-04-25T16:31:57.919Z</time></trkpt><trkpt lat="42.68642902029665" lon="11.724668064431082"><ele>394.0</ele><time>2026-04-25T16:31:58.918Z</time></trkpt><trkpt lat="42.68644903021706" lon="11.7247764002928"><ele>394.0</ele><time>2026-04-25T16:31:59.918Z</time></trkpt><trkpt lat="42.686438296487104" lon="11.724869496331493"><ele>394.0</ele><time>2026-04-25T16:32:00.918Z</time></trkpt><trkpt lat="42.68640958599533" lon="11.724963074444796"><ele>394.0</ele><time>2026-04-25T16:32:01.918Z</time></trkpt><trkpt lat="42.686379670458436" lon="11.725078663916609"><ele>394.0</ele><time>2026-04-25T16:32:02.918Z</time></trkpt><trkpt lat="42.68637286181185" lon="11.725231663706309"><ele>394.0</ele><time>2026-04-25T16:32:03.918Z</time></trkpt><trkpt lat="42.686409046703375" lon="11.725408035637791"><ele>392.25</ele><time>2026-04-25T16:32:04.918Z</time></trkpt><trkpt lat="42.686454491643424" lon="11.72558515252857"><ele>390.5</ele><time>2026-04-25T16:32:05.918Z</time></trkpt><trkpt lat="42.686519245360614" lon="11.725755130212704"><ele>388.75</ele><time>2026-04-25T16:32:06.918Z</time></trkpt><trkpt lat="42.68660171480653" lon="11.725910574169905"><ele>387.0</ele><time>2026-04-25T16:32:07.918Z</time></trkpt><trkpt lat="42.686688042748514" lon="11.726045644026117"><ele>386.0</ele><time>2026-04-25T16:32:08.918Z</time></trkpt><trkpt lat="42.68676415679461" lon="11.726171049777701"><ele>385.0</ele><time>2026-04-25T16:32:09.918Z</time></trkpt><trkpt lat="42.686822282102845" lon="11.72631140383414"><ele>384.0</ele><time>2026-04-25T16:32:10.918Z</time></trkpt><trkpt lat="42.68682123912234" lon="11.72646318740047"><ele>383.0</ele><time>2026-04-25T16:32:11.918Z</time></trkpt><trkpt lat="42.68684192967003" lon="11.726642892152354"><ele>383.0</ele><time>2026-04-25T16:32:12.918Z</time></trkpt><trkpt lat="42.686848648406375" lon="11.72682727791827"><ele>383.0</ele><time>2026-04-25T16:32:13.918Z</time></trkpt><trkpt lat="42.68684617167225" lon="11.727015985833788"><ele>383.0</ele><time>2026-04-25T16:32:14.918Z</time></trkpt><trkpt lat="42.68687613223554" lon="11.72721492715789"><ele>383.0</ele><time>2026-04-25T16:32:15.918Z</time></trkpt><trkpt lat="42.68692067366012" lon="11.727401820379132"><ele>389.0</ele><time>2026-04-25T16:32:16.918Z</time></trkpt><trkpt lat="42.686963983956765" lon="11.727590060109328"><ele>395.0</ele><time>2026-04-25T16:32:17.918Z</time></trkpt><trkpt lat="42.68701613934071" lon="11.72777657805937"><ele>401.0</ele><time>2026-04-25T16:32:18.918Z</time></trkpt><trkpt lat="42.687078636970234" lon="11.727959780599909"><ele>407.0</ele><time>2026-04-25T16:32:19.918Z</time></trkpt><trkpt lat="42.687162902470526" lon="11.728127444080089"><ele>407.0</ele><time>2026-04-25T16:32:20.918Z</time></trkpt><trkpt lat="42.68725862044545" lon="11.728290632059132"><ele>407.0</ele><time>2026-04-25T16:32:21.918Z</time></trkpt><trkpt lat="42.68736405509472" lon="11.728451572012837"><ele>407.0</ele><time>2026-04-25T16:32:22.919Z</time></trkpt><trkpt lat="42.687484064222424" lon="11.728591513126467"><ele>409.5</ele><time>2026-04-25T16:32:23.92Z</time></trkpt><trkpt lat="42.6876036633114" lon="11.728705659570473"><ele>412.0</ele><time>2026-04-25T16:32:24.92Z</time></trkpt><trkpt lat="42.68771549159049" lon="11.728812999486815"><ele>414.5</ele><time>2026-04-25T16:32:25.92Z</time></trkpt><trkpt lat="42.687816006080524" lon="11.728940026468774"><ele>417.0</ele><time>2026-04-25T16:32:26.919Z</time></trkpt><trkpt lat="42.687908725282334" lon="11.729081272205455"><ele>417.0</ele><time>2026-04-25T16:32:27.919Z</time></trkpt><trkpt lat="42.68797505913401" lon="11.729243766180696"><ele>417.0</ele><time>2026-04-25T16:32:28.92Z</time></trkpt><trkpt lat="42.68805592327804" lon="11.729400261586921"><ele>417.0</ele><time>2026-04-25T16:32:29.919Z</time></trkpt><trkpt lat="42.68816053558371" lon="11.729545342012628"><ele>417.0</ele><time>2026-04-25T16:32:30.919Z</time></trkpt><trkpt lat="42.68827213254523" lon="11.729700769072023"><ele>410.66666666666663</ele><time>2026-04-25T16:32:31.92Z</time></trkpt><trkpt lat="42.68837509591965" lon="11.729868828283768"><ele>404.3333333333333</ele><time>2026-04-25T16:32:32.919Z</time></trkpt><trkpt lat="42.688482489029475" lon="11.730038389461043"><ele>398.0</ele><time>2026-04-25T16:32:33.919Z</time></trkpt><trkpt lat="42.68857585430327" lon="11.730225029487128"><ele>403.66666666666663</ele><time>2026-04-25T16:32:34.92Z</time></trkpt><trkpt lat="42.68866240797251" lon="11.730419808461953"><ele>409.33333333333337</ele><time>2026-04-25T16:32:35.919Z</time></trkpt><trkpt lat="42.68874423756409" lon="11.730619422658457"><ele>415.0</ele><time>2026-04-25T16:32:36.919Z</time></trkpt><trkpt lat="42.688824788602005" lon="11.730812872104389"><ele>415.0</ele><time>2026-04-25T16:32:37.919Z</time></trkpt><trkpt lat="42.68890407590348" lon="11.730998100685717"><ele>415.0</ele><time>2026-04-25T16:32:38.919Z</time></trkpt><trkpt lat="42.68896780261885" lon="11.73118373897436"><ele>415.0</ele><time>2026-04-25T16:32:39.919Z</time></trkpt><trkpt lat="42.68905997698879" lon="11.73134534680151"><ele>414.5</ele><time>2026-04-25T16:32:40.919Z</time></trkpt><trkpt lat="42.68915294917739" lon="11.731502399141135"><ele>414.0</ele><time>2026-04-25T16:32:41.919Z</time></trkpt><trkpt lat="42.689238790847554" lon="11.731648763865183"><ele>413.5</ele><time>2026-04-25T16:32:42.919Z</time></trkpt><trkpt lat="42.68931988705833" lon="11.731784168421413"><ele>413.0</ele><time>2026-04-25T16:32:43.919Z</time></trkpt><trkpt lat="42.68939056984498" lon="11.731912086595354"><ele>413.0</ele><time>2026-04-25T16:32:44.919Z</time></trkpt><trkpt lat="42.68943498876959" lon="11.732027609480905"><ele>413.0</ele><time>2026-04-25T16:32:45.919Z</time></trkpt><trkpt lat="42.689442505723214" lon="11.732153357511727"><ele>413.0</ele><time>2026-04-25T16:32:46.919Z</time></trkpt><trkpt lat="42.68943062065613" lon="11.732290479359959"><ele>413.0</ele><time>2026-04-25T16:32:47.919Z</time></trkpt><trkpt lat="42.68940255886326" lon="11.732431731821853"><ele>413.0</ele><time>2026-04-25T16:32:48.919Z</time></trkpt><trkpt lat="42.68936766093297" lon="11.732585511031626"><ele>414.75</ele><time>2026-04-25T16:32:49.919Z</time></trkpt><trkpt lat="42.68932791952631" lon="11.732744494909547"><ele>416.5</ele><time>2026-04-25T16:32:50.919Z</time></trkpt><trkpt lat="42.6892881045761" lon="11.732900988662514"><ele>418.25</ele><time>2026-04-25T16:32:51.919Z</time></trkpt><trkpt lat="42.68925316624708" lon="11.733065926340146"><ele>420.0</ele><time>2026-04-25T16:32:52.919Z</time></trkpt><trkpt lat="42.68922837176037" lon="11.733261803646597"><ele>420.0</ele><time>2026-04-25T16:32:53.919Z</time></trkpt><trkpt lat="42.6892237408866" lon="11.733460658948333"><ele>420.0</ele><time>2026-04-25T16:32:54.919Z</time></trkpt><trkpt lat="42.68921990946625" lon="11.733664400593542"><ele>420.0</ele><time>2026-04-25T16:32:55.918Z</time></trkpt><trkpt lat="42.68921918368585" lon="11.733873148619537"><ele>420.0</ele><time>2026-04-25T16:32:56.918Z</time></trkpt><trkpt lat="42.68921843999946" lon="11.734084538930617"><ele>421.0</ele><time>2026-04-25T16:32:57.918Z</time></trkpt><trkpt lat="42.68921512927652" lon="11.73428378433579"><ele>422.0</ele><time>2026-04-25T16:32:58.918Z</time></trkpt><trkpt lat="42.689217519124526" lon="11.734466808737038"><ele>423.0</ele><time>2026-04-25T16:32:59.918Z</time></trkpt><trkpt lat="42.68922493884883" lon="11.734636681998952"><ele>424.0</ele><time>2026-04-25T16:33:00.918Z</time></trkpt><trkpt lat="42.68925196600548" lon="11.734792128710975"><ele>424.0</ele><time>2026-04-25T16:33:01.918Z</time></trkpt><trkpt lat="42.689304913089636" lon="11.734941487302203"><ele>424.0</ele><time>2026-04-25T16:33:02.918Z</time></trkpt><trkpt lat="42.68935761731015" lon="11.735093733693684"><ele>424.0</ele><time>2026-04-25T16:33:03.918Z</time></trkpt><trkpt lat="42.689433356879526" lon="11.735234475042217"><ele>424.0</ele><time>2026-04-25T16:33:04.918Z</time></trkpt><trkpt lat="42.689514222936666" lon="11.735384033701912"><ele>428.75</ele><time>2026-04-25T16:33:05.918Z</time></trkpt><trkpt lat="42.68959692528501" lon="11.735536987680513"><ele>433.5</ele><time>2026-04-25T16:33:06.918Z</time></trkpt><trkpt lat="42.68967706200184" lon="11.735685197227072"><ele>438.25</ele><time>2026-04-25T16:33:07.918Z</time></trkpt><trkpt lat="42.68975988192872" lon="11.735839054592482"><ele>443.0</ele><time>2026-04-25T16:33:08.918Z</time></trkpt><trkpt lat="42.68984462070565" lon="11.735996854652218"><ele>442.5</ele><time>2026-04-25T16:33:09.918Z</time></trkpt><trkpt lat="42.68993386769646" lon="11.736145883733517"><ele>442.0</ele><time>2026-04-25T16:33:10.918Z</time></trkpt><trkpt lat="42.69001779942954" lon="11.73629799479754"><ele>441.5</ele><time>2026-04-25T16:33:11.918Z</time></trkpt><trkpt lat="42.69011069824169" lon="11.736442288586687"><ele>441.0</ele><time>2026-04-25T16:33:12.918Z</time></trkpt><trkpt lat="42.69020968288636" lon="11.736580891500019"><ele>442.75</ele><time>2026-04-25T16:33:13.918Z</time></trkpt><trkpt lat="42.690307937257614" lon="11.736708598844933"><ele>444.5</ele><time>2026-04-25T16:33:14.918Z</time></trkpt><trkpt lat="42.69040655777578" lon="11.73683766233658"><ele>446.25</ele><time>2026-04-25T16:33:15.918Z</time></trkpt><trkpt lat="42.690493808243254" lon="11.736972709275058"><ele>448.0</ele><time>2026-04-25T16:33:16.918Z</time></trkpt><trkpt lat="42.69056875789889" lon="11.737122625387723"><ele>448.25</ele><time>2026-04-25T16:33:17.918Z</time></trkpt><trkpt lat="42.69062496995423" lon="11.737283436602958"><ele>448.5</ele><time>2026-04-25T16:33:18.918Z</time></trkpt><trkpt lat="42.69065741438857" lon="11.737471318855372"><ele>448.75</ele><time>2026-04-25T16:33:19.918Z</time></trkpt><trkpt lat="42.690688136078286" lon="11.737665095125294"><ele>449.0</ele><time>2026-04-25T16:33:20.918Z</time></trkpt><trkpt lat="42.69071828696719" lon="11.737871355950855"><ele>449.3333333333333</ele><time>2026-04-25T16:33:21.918Z</time></trkpt><trkpt lat="42.69075377741508" lon="11.738085005691232"><ele>449.66666666666663</ele><time>2026-04-25T16:33:22.918Z</time></trkpt><trkpt lat="42.69078260626977" lon="11.738287807562719"><ele>450.0</ele><time>2026-04-25T16:33:23.918Z</time></trkpt><trkpt lat="42.69080028083922" lon="11.738489257305874"><ele>450.0</ele><time>2026-04-25T16:33:24.918Z</time></trkpt><trkpt lat="42.69081415079302" lon="11.738675562208794"><ele>450.0</ele><time>2026-04-25T16:33:25.918Z</time></trkpt><trkpt lat="42.69080909404387" lon="11.73887207822489"><ele>450.0</ele><time>2026-04-25T16:33:26.918Z</time></trkpt><trkpt lat="42.69079855615011" lon="11.739076676280678"><ele>450.0</ele><time>2026-04-25T16:33:27.918Z</time></trkpt><trkpt lat="42.69077586220453" lon="11.739294718499153"><ele>449.66666666666663</ele><time>2026-04-25T16:33:28.918Z</time></trkpt><trkpt lat="42.690743353292525" lon="11.73952302866714"><ele>449.3333333333333</ele><time>2026-04-25T16:33:29.917Z</time></trkpt><trkpt lat="42.69070367264471" lon="11.7397514670094"><ele>449.0</ele><time>2026-04-25T16:33:30.917Z</time></trkpt><trkpt lat="42.69066647840081" lon="11.739994762126923"><ele>449.66666666666663</ele><time>2026-04-25T16:33:31.917Z</time></trkpt><trkpt lat="42.690616638302274" lon="11.740239430109073"><ele>450.33333333333337</ele><time>2026-04-25T16:33:32.917Z</time></trkpt><trkpt lat="42.69057652108496" lon="11.740489981513232"><ele>451.0</ele><time>2026-04-25T16:33:33.917Z</time></trkpt><trkpt lat="42.69053807546026" lon="11.740741548130147"><ele>451.0</ele><time>2026-04-25T16:33:34.917Z</time></trkpt><trkpt lat="42.69050069427927" lon="11.74099338115595"><ele>451.0</ele><time>2026-04-25T16:33:35.917Z</time></trkpt><trkpt lat="42.69046455330768" lon="11.741248597172028"><ele>451.0</ele><time>2026-04-25T16:33:36.917Z</time></trkpt><trkpt lat="42.690426193734034" lon="11.741506758023835"><ele>450.6666666666667</ele><time>2026-04-25T16:33:37.917Z</time></trkpt><trkpt lat="42.69038347302159" lon="11.7417579727032"><ele>450.33333333333337</ele><time>2026-04-25T16:33:38.917Z</time></trkpt><trkpt lat="42.690340260612935" lon="11.742013592671125"><ele>450.0</ele><time>2026-04-25T16:33:39.917Z</time></trkpt><trkpt lat="42.69029697628809" lon="11.742267012230217"><ele>449.0</ele><time>2026-04-25T16:33:40.917Z</time></trkpt><trkpt lat="42.69025659506373" lon="11.742519468695471"><ele>448.0</ele><time>2026-04-25T16:33:41.917Z</time></trkpt><trkpt lat="42.69021039052718" lon="11.742764282347963"><ele>447.0</ele><time>2026-04-25T16:33:42.917Z</time></trkpt><trkpt lat="42.69016886583386" lon="11.743008127142478"><ele>449.33333333333337</ele><time>2026-04-25T16:33:43.917Z</time></trkpt><trkpt lat="42.69013248657698" lon="11.743247562889106"><ele>451.6666666666667</ele><time>2026-04-25T16:33:44.917Z</time></trkpt><trkpt lat="42.690096667231806" lon="11.743474032162954"><ele>454.0</ele><time>2026-04-25T16:33:45.917Z</time></trkpt><trkpt lat="42.69006639835671" lon="11.743690539004515"><ele>455.33333333333337</ele><time>2026-04-25T16:33:46.917Z</time></trkpt><trkpt lat="42.69003292089795" lon="11.743906888425574"><ele>456.66666666666663</ele><time>2026-04-25T16:33:47.917Z</time></trkpt><trkpt lat="42.689998317700244" lon="11.744128542378746"><ele>458.0</ele><time>2026-04-25T16:33:48.917Z</time></trkpt><trkpt lat="42.689964381754" lon="11.744362732291126"><ele>458.3333333333333</ele><time>2026-04-25T16:33:49.917Z</time></trkpt><trkpt lat="42.68993152837553" lon="11.74460730861102"><ele>458.66666666666663</ele><time>2026-04-25T16:33:50.917Z</time></trkpt><trkpt lat="42.689907550366236" lon="11.744854822126468"><ele>459.0</ele><time>2026-04-25T16:33:51.917Z</time></trkpt><trkpt lat="42.68987432357469" lon="11.745101704576848"><ele>458.33333333333337</ele><time>2026-04-25T16:33:52.917Z</time></trkpt><trkpt lat="42.689840334414065" lon="11.745352985403747"><ele>457.6666666666667</ele><time>2026-04-25T16:33:53.917Z</time></trkpt><trkpt lat="42.68980699152065" lon="11.74559938363159"><ele>457.0</ele><time>2026-04-25T16:33:54.917Z</time></trkpt><trkpt lat="42.68976960190239" lon="11.745851878339069"><ele>457.33333333333337</ele><time>2026-04-25T16:33:55.917Z</time></trkpt><trkpt lat="42.68973456457098" lon="11.746106086321573"><ele>457.66666666666663</ele><time>2026-04-25T16:33:56.917Z</time></trkpt><trkpt lat="42.68970206022198" lon="11.746354531427455"><ele>458.0</ele><time>2026-04-25T16:33:57.917Z</time></trkpt><trkpt lat="42.6896594487621" lon="11.746598693732748"><ele>458.0</ele><time>2026-04-25T16:33:58.917Z</time></trkpt><trkpt lat="42.68962037172339" lon="11.746846333358407"><ele>458.0</ele><time>2026-04-25T16:33:59.917Z</time></trkpt><trkpt lat="42.689581542644056" lon="11.747090280983405"><ele>458.0</ele><time>2026-04-25T16:34:00.917Z</time></trkpt><trkpt lat="42.68953991193667" lon="11.747332544998747"><ele>458.66666666666663</ele><time>2026-04-25T16:34:01.917Z</time></trkpt><trkpt lat="42.689500709378784" lon="11.747578402624693"><ele>459.33333333333337</ele><time>2026-04-25T16:34:02.917Z</time></trkpt><trkpt lat="42.689467401289946" lon="11.747830824671846"><ele>460.0</ele><time>2026-04-25T16:34:03.916Z</time></trkpt><trkpt lat="42.68943303533955" lon="11.748086546636658"><ele>460.6666666666667</ele><time>2026-04-25T16:34:04.916Z</time></trkpt><trkpt lat="42.68939819901135" lon="11.748337168351995"><ele>461.33333333333337</ele><time>2026-04-25T16:34:05.916Z</time></trkpt><trkpt lat="42.68936221380981" lon="11.748586985445508"><ele>462.0</ele><time>2026-04-25T16:34:06.916Z</time></trkpt><trkpt lat="42.689322481912704" lon="11.748833773222621"><ele>462.0</ele><time>2026-04-25T16:34:07.916Z</time></trkpt><trkpt lat="42.68928504767997" lon="11.749082305937872"><ele>462.0</ele><time>2026-04-25T16:34:08.916Z</time></trkpt><trkpt lat="42.68923991701659" lon="11.749330684368186"><ele>462.0</ele><time>2026-04-25T16:34:09.916Z</time></trkpt><trkpt lat="42.689200226176965" lon="11.74958282454363"><ele>462.33333333333337</ele><time>2026-04-25T16:34:10.916Z</time></trkpt><trkpt lat="42.689163815316896" lon="11.749830655441272"><ele>462.6666666666667</ele><time>2026-04-25T16:34:11.916Z</time></trkpt><trkpt lat="42.6891295863237" lon="11.750068425947296"><ele>463.0</ele><time>2026-04-25T16:34:12.916Z</time></trkpt><trkpt lat="42.689092797003724" lon="11.750305799415681"><ele>463.33333333333337</ele><time>2026-04-25T16:34:13.916Z</time></trkpt><trkpt lat="42.68905337744622" lon="11.750547575255277"><ele>463.66666666666663</ele><time>2026-04-25T16:34:14.916Z</time></trkpt><trkpt lat="42.68902328635257" lon="11.750787736941758"><ele>464.0</ele><time>2026-04-25T16:34:15.916Z</time></trkpt><trkpt lat="42.68898957898276" lon="11.751027770129966"><ele>464.3333333333333</ele><time>2026-04-25T16:34:16.916Z</time></trkpt><trkpt lat="42.68895324937302" lon="11.751265983279358"><ele>464.66666666666663</ele><time>2026-04-25T16:34:17.916Z</time></trkpt><trkpt lat="42.688925806114675" lon="11.751503806470398"><ele>465.0</ele><time>2026-04-25T16:34:18.916Z</time></trkpt><trkpt lat="42.688908163658105" lon="11.751736183823187"><ele>465.33333333333337</ele><time>2026-04-25T16:34:19.916Z</time></trkpt><trkpt lat="42.68890343121495" lon="11.751961851471531"><ele>465.6666666666667</ele><time>2026-04-25T16:34:20.916Z</time></trkpt><trkpt lat="42.68891374278495" lon="11.752174977564023"><ele>466.0</ele><time>2026-04-25T16:34:21.916Z</time></trkpt><trkpt lat="42.68894133278908" lon="11.752372978096489"><ele>466.0</ele><time>2026-04-25T16:34:22.916Z</time></trkpt><trkpt lat="42.68899053089334" lon="11.752562363346074"><ele>466.0</ele><time>2026-04-25T16:34:23.916Z</time></trkpt><trkpt lat="42.68906037792955" lon="11.752731348508075"><ele>466.0</ele><time>2026-04-25T16:34:24.916Z</time></trkpt><trkpt lat="42.6891538527285" lon="11.752893666023024"><ele>466.0</ele><time>2026-04-25T16:34:25.916Z</time></trkpt><trkpt lat="42.68923437741824" lon="11.75300991092697"><ele>466.5</ele><time>2026-04-25T16:34:26.916Z</time></trkpt><trkpt lat="42.68929993970639" lon="11.753152930240553"><ele>467.0</ele><time>2026-04-25T16:34:27.916Z</time></trkpt><trkpt lat="42.68931841475969" lon="11.753317423436473"><ele>467.5</ele><time>2026-04-25T16:34:28.918Z</time></trkpt><trkpt lat="42.68934695279753" lon="11.753500688833501"><ele>468.0</ele><time>2026-04-25T16:34:29.918Z</time></trkpt><trkpt lat="42.6893826807515" lon="11.753693115414205"><ele>468.66666666666663</ele><time>2026-04-25T16:34:30.918Z</time></trkpt><trkpt lat="42.6894335102352" lon="11.753883586628927"><ele>469.3333333333333</ele><time>2026-04-25T16:34:31.918Z</time></trkpt><trkpt lat="42.689452587876765" lon="11.754089856039187"><ele>470.0</ele><time>2026-04-25T16:34:32.919Z</time></trkpt><trkpt lat="42.689489771303705" lon="11.754301702149926"><ele>470.3333333333333</ele><time>2026-04-25T16:34:33.919Z</time></trkpt><trkpt lat="42.68953065616236" lon="11.754513279430796"><ele>470.66666666666663</ele><time>2026-04-25T16:34:34.918Z</time></trkpt><trkpt lat="42.689565201328634" lon="11.754739369100436"><ele>471.0</ele><time>2026-04-25T16:34:35.918Z</time></trkpt><trkpt lat="42.68961535006995" lon="11.754963314159028"><ele>471.0</ele><time>2026-04-25T16:34:36.918Z</time></trkpt><trkpt lat="42.68965801900181" lon="11.755188670481067"><ele>471.0</ele><time>2026-04-25T16:34:37.918Z</time></trkpt><trkpt lat="42.689696509525405" lon="11.755411353134"><ele>471.0</ele><time>2026-04-25T16:34:38.918Z</time></trkpt><trkpt lat="42.689741698364315" lon="11.755631388859316"><ele>472.0</ele><time>2026-04-25T16:34:39.918Z</time></trkpt><trkpt lat="42.689781002720935" lon="11.755842835064325"><ele>473.0</ele><time>2026-04-25T16:34:40.918Z</time></trkpt><trkpt lat="42.68981575167189" lon="11.756036858131187"><ele>474.0</ele><time>2026-04-25T16:34:41.918Z</time></trkpt><trkpt lat="42.68985157834193" lon="11.756216814997135"><ele>475.0</ele><time>2026-04-25T16:34:42.918Z</time></trkpt><trkpt lat="42.689884824343025" lon="11.756390997889367"><ele>475.25</ele><time>2026-04-25T16:34:43.918Z</time></trkpt><trkpt lat="42.689919656384596" lon="11.756566081304422"><ele>475.5</ele><time>2026-04-25T16:34:44.918Z</time></trkpt><trkpt lat="42.68995891905741" lon="11.756756138701162"><ele>475.75</ele><time>2026-04-25T16:34:45.918Z</time></trkpt><trkpt lat="42.69000017568814" lon="11.75696200499412"><ele>476.0</ele><time>2026-04-25T16:34:46.918Z</time></trkpt><trkpt lat="42.69004552052048" lon="11.757178395036302"><ele>476.0</ele><time>2026-04-25T16:34:47.918Z</time></trkpt><trkpt lat="42.690096361686074" lon="11.757407372882858"><ele>476.0</ele><time>2026-04-25T16:34:48.918Z</time></trkpt><trkpt lat="42.69014435921091" lon="11.757643389686207"><ele>476.0</ele><time>2026-04-25T16:34:49.918Z</time></trkpt><trkpt lat="42.69019207483868" lon="11.757879720669301"><ele>476.0</ele><time>2026-04-25T16:34:50.918Z</time></trkpt><trkpt lat="42.69024142727769" lon="11.758117247744023"><ele>476.0</ele><time>2026-04-25T16:34:51.918Z</time></trkpt><trkpt lat="42.690296007334716" lon="11.75835643989139"><ele>476.0</ele><time>2026-04-25T16:34:52.918Z</time></trkpt><trkpt lat="42.69035059022399" lon="11.758596761982778"><ele>476.66666666666663</ele><time>2026-04-25T16:34:53.918Z</time></trkpt><trkpt lat="42.69040544399068" lon="11.75883477086446"><ele>477.33333333333337</ele><time>2026-04-25T16:34:54.918Z</time></trkpt><trkpt lat="42.69045647629227" lon="11.759074668200924"><ele>478.0</ele><time>2026-04-25T16:34:55.918Z</time></trkpt><trkpt lat="42.69050218437937" lon="11.759311876245386"><ele>478.6666666666667</ele><time>2026-04-25T16:34:56.918Z</time></trkpt><trkpt lat="42.6905522000788" lon="11.759539037902817"><ele>479.33333333333337</ele><time>2026-04-25T16:34:57.918Z</time></trkpt><trkpt lat="42.69061074173199" lon="11.759753731241878"><ele>480.0</ele><time>2026-04-25T16:34:58.918Z</time></trkpt><trkpt lat="42.69069228821285" lon="11.759953570944594"><ele>480.0</ele><time>2026-04-25T16:34:59.918Z</time></trkpt><trkpt lat="42.69080029301521" lon="11.760132603623216"><ele>480.0</ele><time>2026-04-25T16:35:00.918Z</time></trkpt><trkpt lat="42.69092109146008" lon="11.76030790175645"><ele>480.0</ele><time>2026-04-25T16:35:01.918Z</time></trkpt><trkpt lat="42.69103487930406" lon="11.760493367918146"><ele>480.0</ele><time>2026-04-25T16:35:02.918Z</time></trkpt><trkpt lat="42.691150917684126" lon="11.760687130469691"><ele>480.0</ele><time>2026-04-25T16:35:03.918Z</time></trkpt><trkpt lat="42.69126189342656" lon="11.760883999947582"><ele>480.0</ele><time>2026-04-25T16:35:04.918Z</time></trkpt><trkpt lat="42.69136421246381" lon="11.761088513419665"><ele>479.66666666666663</ele><time>2026-04-25T16:35:05.918Z</time></trkpt><trkpt lat="42.69145042609026" lon="11.761300726207189"><ele>479.3333333333333</ele><time>2026-04-25T16:35:06.918Z</time></trkpt><trkpt lat="42.69151188984691" lon="11.761498994547118"><ele>479.0</ele><time>2026-04-25T16:35:07.918Z</time></trkpt><trkpt lat="42.691543584318076" lon="11.761670608506913"><ele>479.0</ele><time>2026-04-25T16:35:08.917Z</time></trkpt><trkpt lat="42.69154343547181" lon="11.761818265180697"><ele>479.0</ele><time>2026-04-25T16:35:09.917Z</time></trkpt><trkpt lat="42.69149894796841" lon="11.761942130712606"><ele>479.0</ele><time>2026-04-25T16:35:10.917Z</time></trkpt><trkpt lat="42.691425725304825" lon="11.76205735607215"><ele>479.0</ele><time>2026-04-25T16:35:11.917Z</time></trkpt><trkpt lat="42.69132270359541" lon="11.762153148779621"><ele>479.0</ele><time>2026-04-25T16:35:12.917Z</time></trkpt><trkpt lat="42.69119012753801" lon="11.762210369013857"><ele>479.0</ele><time>2026-04-25T16:35:13.917Z</time></trkpt><trkpt lat="42.69104364880814" lon="11.762304295774205"><ele>479.0</ele><time>2026-04-25T16:35:14.917Z</time></trkpt><trkpt lat="42.690878330476075" lon="11.762378589662566"><ele>479.0</ele><time>2026-04-25T16:35:15.917Z</time></trkpt><trkpt lat="42.69070823266571" lon="11.762473105483206"><ele>479.0</ele><time>2026-04-25T16:35:16.917Z</time></trkpt><trkpt lat="42.69055112130954" lon="11.762555931824709"><ele>479.0</ele><time>2026-04-25T16:35:17.917Z</time></trkpt><trkpt lat="42.690401833254896" lon="11.76265484295662"><ele>479.0</ele><time>2026-04-25T16:35:18.917Z</time></trkpt><trkpt lat="42.690261133168164" lon="11.762787354293785"><ele>479.3333333333333</ele><time>2026-04-25T16:35:19.917Z</time></trkpt><trkpt lat="42.69012619936344" lon="11.762920862770985"><ele>479.66666666666663</ele><time>2026-04-25T16:35:20.917Z</time></trkpt><trkpt lat="42.69002910000398" lon="11.763090489344085"><ele>480.0</ele><time>2026-04-25T16:35:21.917Z</time></trkpt><trkpt lat="42.689931176125235" lon="11.763263714939836"><ele>480.0</ele><time>2026-04-25T16:35:22.917Z</time></trkpt><trkpt lat="42.68982879854797" lon="11.76347525774305"><ele>480.0</ele><time>2026-04-25T16:35:23.917Z</time></trkpt><trkpt lat="42.68975356669033" lon="11.763700100516418"><ele>480.0</ele><time>2026-04-25T16:35:24.917Z</time></trkpt><trkpt lat="42.689684275186075" lon="11.763941240853692"><ele>479.66666666666663</ele><time>2026-04-25T16:35:25.917Z</time></trkpt><trkpt lat="42.68962325506853" lon="11.764197110024174"><ele>479.3333333333333</ele><time>2026-04-25T16:35:26.917Z</time></trkpt><trkpt lat="42.689564022762454" lon="11.764456128683543"><ele>479.0</ele><time>2026-04-25T16:35:27.917Z</time></trkpt><trkpt lat="42.68950059391191" lon="11.76471170921717"><ele>479.66666666666663</ele><time>2026-04-25T16:35:28.917Z</time></trkpt><trkpt lat="42.68943837919752" lon="11.764974213464575"><ele>480.33333333333337</ele><time>2026-04-25T16:35:29.917Z</time></trkpt><trkpt lat="42.68937368197283" lon="11.765245324376611"><ele>481.0</ele><time>2026-04-25T16:35:30.917Z</time></trkpt><trkpt lat="42.68930875552334" lon="11.765512447643456"><ele>481.0</ele><time>2026-04-25T16:35:31.917Z</time></trkpt><trkpt lat="42.68924209618852" lon="11.765786825302797"><ele>481.0</ele><time>2026-04-25T16:35:32.917Z</time></trkpt><trkpt lat="42.689173573720176" lon="11.766059312950494"><ele>481.0</ele><time>2026-04-25T16:35:33.917Z</time></trkpt><trkpt lat="42.68910164880592" lon="11.766329946001767"><ele>480.33333333333337</ele><time>2026-04-25T16:35:34.917Z</time></trkpt><trkpt lat="42.68904023879531" lon="11.766607904989629"><ele>479.66666666666663</ele><time>2026-04-25T16:35:35.917Z</time></trkpt><trkpt lat="42.68896464352897" lon="11.766859074604897"><ele>479.0</ele><time>2026-04-25T16:35:36.917Z</time></trkpt><trkpt lat="42.688905411240604" lon="11.767101351145623"><ele>479.0</ele><time>2026-04-25T16:35:37.917Z</time></trkpt><trkpt lat="42.688845948627595" lon="11.767333454837324"><ele>479.0</ele><time>2026-04-25T16:35:38.917Z</time></trkpt><trkpt lat="42.68879407475747" lon="11.767560858499941"><ele>479.0</ele><time>2026-04-25T16:35:39.917Z</time></trkpt><trkpt lat="42.68875055674012" lon="11.76778812718528"><ele>479.66666666666663</ele><time>2026-04-25T16:35:40.917Z</time></trkpt><trkpt lat="42.688713332038546" lon="11.768024462633218"><ele>480.33333333333337</ele><time>2026-04-25T16:35:41.917Z</time></trkpt><trkpt lat="42.68868376007611" lon="11.76826929409401"><ele>481.0</ele><time>2026-04-25T16:35:42.916Z</time></trkpt><trkpt lat="42.688661339845424" lon="11.768517379346282"><ele>481.33333333333337</ele><time>2026-04-25T16:35:43.916Z</time></trkpt><trkpt lat="42.6886447080288" lon="11.768769391535235"><ele>481.66666666666663</ele><time>2026-04-25T16:35:44.916Z</time></trkpt><trkpt lat="42.68863674200566" lon="11.769023900879656"><ele>482.0</ele><time>2026-04-25T16:35:45.916Z</time></trkpt><trkpt lat="42.688639910558535" lon="11.769283241561137"><ele>482.3333333333333</ele><time>2026-04-25T16:35:46.916Z</time></trkpt><trkpt lat="42.6886514679788" lon="11.769546579607207"><ele>482.66666666666663</ele><time>2026-04-25T16:35:47.916Z</time></trkpt><trkpt lat="42.68867854294707" lon="11.769813531838059"><ele>483.0</ele><time>2026-04-25T16:35:48.916Z</time></trkpt><trkpt lat="42.68873505957859" lon="11.770072790551176"><ele>482.66666666666663</ele><time>2026-04-25T16:35:49.916Z</time></trkpt><trkpt lat="42.68878262358682" lon="11.770344334398915"><ele>482.3333333333333</ele><time>2026-04-25T16:35:50.916Z</time></trkpt><trkpt lat="42.68884529291302" lon="11.770618267008865"><ele>482.0</ele><time>2026-04-25T16:35:51.916Z</time></trkpt><trkpt lat="42.68891691825944" lon="11.770894415601546"><ele>482.0</ele><time>2026-04-25T16:35:52.916Z</time></trkpt><trkpt lat="42.688991625403204" lon="11.771174647875034"><ele>482.0</ele><time>2026-04-25T16:35:53.916Z</time></trkpt><trkpt lat="42.68906626335936" lon="11.771458966858415"><ele>482.0</ele><time>2026-04-25T16:35:54.916Z</time></trkpt><trkpt lat="42.68912574709796" lon="11.77175377288515"><ele>481.5</ele><time>2026-04-25T16:35:55.916Z</time></trkpt><trkpt lat="42.68919990126138" lon="11.77204547298946"><ele>481.0</ele><time>2026-04-25T16:35:56.916Z</time></trkpt><trkpt lat="42.6892757131691" lon="11.772341650473743"><ele>481.0</ele><time>2026-04-25T16:35:57.916Z</time></trkpt><trkpt lat="42.68935195836297" lon="11.772635451317335"><ele>481.0</ele><time>2026-04-25T16:35:58.916Z</time></trkpt><trkpt lat="42.68943965610416" lon="11.772924083412848"><ele>479.5</ele><time>2026-04-25T16:35:59.916Z</time></trkpt><trkpt lat="42.68951273949138" lon="11.773221630430438"><ele>478.0</ele><time>2026-04-25T16:36:00.916Z</time></trkpt><trkpt lat="42.68958988884338" lon="11.773510022109674"><ele>478.6666666666667</ele><time>2026-04-25T16:36:01.916Z</time></trkpt><trkpt lat="42.68965946850413" lon="11.773781885331184"><ele>479.33333333333337</ele><time>2026-04-25T16:36:02.916Z</time></trkpt><trkpt lat="42.68972184684717" lon="11.774040675466049"><ele>480.0</ele><time>2026-04-25T16:36:03.916Z</time></trkpt><trkpt lat="42.68977778083666" lon="11.774285490945983"><ele>479.66666666666663</ele><time>2026-04-25T16:36:04.916Z</time></trkpt><trkpt lat="42.689837850099" lon="11.77452405243239"><ele>479.3333333333333</ele><time>2026-04-25T16:36:05.916Z</time></trkpt><trkpt lat="42.689899802307195" lon="11.774754248210108"><ele>479.0</ele><time>2026-04-25T16:36:06.916Z</time></trkpt><trkpt lat="42.68995411504223" lon="11.774978945201706"><ele>479.0</ele><time>2026-04-25T16:36:07.916Z</time></trkpt><trkpt lat="42.68999974654787" lon="11.775181565064894"><ele>479.0</ele><time>2026-04-25T16:36:08.916Z</time></trkpt><trkpt lat="42.690050922712494" lon="11.775369124974757"><ele>479.0</ele><time>2026-04-25T16:36:09.916Z</time></trkpt><trkpt lat="42.690128424370734" lon="11.775545288628614"><ele>478.0</ele><time>2026-04-25T16:36:10.916Z</time></trkpt><trkpt lat="42.69022447389292" lon="11.775694339511773"><ele>477.0</ele><time>2026-04-25T16:36:11.916Z</time></trkpt><trkpt lat="42.690347356545175" lon="11.77581834207181"><ele>476.0</ele><time>2026-04-25T16:36:12.916Z</time></trkpt><trkpt lat="42.690481624728235" lon="11.77590896159024"><ele>475.0</ele><time>2026-04-25T16:36:13.916Z</time></trkpt><trkpt lat="42.69062315546691" lon="11.775948644249072"><ele>474.6666666666667</ele><time>2026-04-25T16:36:14.916Z</time></trkpt><trkpt lat="42.69077777390636" lon="11.775947790574957"><ele>474.33333333333337</ele><time>2026-04-25T16:36:15.916Z</time></trkpt><trkpt lat="42.69094081340837" lon="11.775945704824329"><ele>474.0</ele><time>2026-04-25T16:36:16.915Z</time></trkpt><trkpt lat="42.691092453536506" lon="11.775961850277222"><ele>474.0</ele><time>2026-04-25T16:36:17.915Z</time></trkpt><trkpt lat="42.69124530682259" lon="11.77600282616031"><ele>474.0</ele><time>2026-04-25T16:36:18.915Z</time></trkpt><trkpt lat="42.69139067930396" lon="11.776090495594339"><ele>474.0</ele><time>2026-04-25T16:36:19.915Z</time></trkpt><trkpt lat="42.69152219283541" lon="11.776207537555628"><ele>472.33333333333337</ele><time>2026-04-25T16:36:20.915Z</time></trkpt><trkpt lat="42.691644106536415" lon="11.776353109545388"><ele>470.6666666666667</ele><time>2026-04-25T16:36:21.915Z</time></trkpt><trkpt lat="42.69175390189712" lon="11.77653059630684"><ele>469.0</ele><time>2026-04-25T16:36:22.915Z</time></trkpt><trkpt lat="42.69184976913803" lon="11.776725352466789"><ele>468.6666666666667</ele><time>2026-04-25T16:36:23.915Z</time></trkpt><trkpt lat="42.6919390290422" lon="11.776908028502428"><ele>468.33333333333337</ele><time>2026-04-25T16:36:24.915Z</time></trkpt><trkpt lat="42.692027613297405" lon="11.777088481425821"><ele>468.0</ele><time>2026-04-25T16:36:25.915Z</time></trkpt><trkpt lat="42.69209687790902" lon="11.777253017904663"><ele>468.0</ele><time>2026-04-25T16:36:26.915Z</time></trkpt><trkpt lat="42.69215466685142" lon="11.777384487917967"><ele>467.99999999999994</ele><time>2026-04-25T16:36:27.915Z</time></trkpt><trkpt lat="42.692193078835416" lon="11.777511560552254"><ele>467.99999999999994</ele><time>2026-04-25T16:36:28.915Z</time></trkpt><trkpt lat="42.6922014652464" lon="11.777632802936093"><ele>468.0</ele><time>2026-04-25T16:36:29.915Z</time></trkpt><trkpt lat="42.69219887849177" lon="11.777747233676008"><ele>468.0</ele><time>2026-04-25T16:36:30.915Z</time></trkpt><trkpt lat="42.692166545946485" lon="11.777844016235848"><ele>468.75</ele><time>2026-04-25T16:36:31.915Z</time></trkpt><trkpt lat="42.69210896974991" lon="11.777941351414457"><ele>469.5</ele><time>2026-04-25T16:36:32.915Z</time></trkpt><trkpt lat="42.69203768845089" lon="11.778058443146383"><ele>470.25</ele><time>2026-04-25T16:36:33.915Z</time></trkpt><trkpt lat="42.69195076682886" lon="11.778190601361782"><ele>471.0</ele><time>2026-04-25T16:36:34.916Z</time></trkpt><trkpt lat="42.69184822368586" lon="11.778342974547728"><ele>471.0</ele><time>2026-04-25T16:36:35.917Z</time></trkpt><trkpt lat="42.69173175860788" lon="11.778478401255414"><ele>471.0</ele><time>2026-04-25T16:36:36.917Z</time></trkpt><trkpt lat="42.691617622910655" lon="11.778600444222638"><ele>471.0</ele><time>2026-04-25T16:36:37.916Z</time></trkpt><trkpt lat="42.69149556305775" lon="11.778681956275092"><ele>471.0</ele><time>2026-04-25T16:36:38.916Z</time></trkpt><trkpt lat="42.69139134984836" lon="11.778779956258786"><ele>472.4</ele><time>2026-04-25T16:36:39.916Z</time></trkpt><trkpt lat="42.69130989093542" lon="11.778873571332957"><ele>473.8</ele><time>2026-04-25T16:36:40.917Z</time></trkpt><trkpt lat="42.69125839841812" lon="11.77897123179924"><ele>475.19999999999993</ele><time>2026-04-25T16:36:41.916Z</time></trkpt><trkpt lat="42.69123676658271" lon="11.779077252068076"><ele>476.59999999999997</ele><time>2026-04-25T16:36:42.916Z</time></trkpt><trkpt lat="42.691243694274654" lon="11.779244058323949"><ele>478.0</ele><time>2026-04-25T16:36:43.917Z</time></trkpt><trkpt lat="42.691271359170095" lon="11.779436652386241"><ele>478.75</ele><time>2026-04-25T16:36:44.916Z</time></trkpt><trkpt lat="42.69130125296397" lon="11.779624634531142"><ele>479.5</ele><time>2026-04-25T16:36:45.916Z</time></trkpt><trkpt lat="42.69132552158185" lon="11.779825024098423"><ele>480.25</ele><time>2026-04-25T16:36:46.916Z</time></trkpt><trkpt lat="42.69134988126552" lon="11.779999114105811"><ele>481.0</ele><time>2026-04-25T16:36:47.917Z</time></trkpt><trkpt lat="42.69135201818817" lon="11.780156973968936"><ele>481.4</ele><time>2026-04-25T16:36:48.917Z</time></trkpt><trkpt lat="42.69133616590113" lon="11.780304905864122"><ele>481.8</ele><time>2026-04-25T16:36:49.917Z</time></trkpt><trkpt lat="42.6912868623986" lon="11.780427358735102"><ele>482.19999999999993</ele><time>2026-04-25T16:36:50.917Z</time></trkpt><trkpt lat="42.69121938065301" lon="11.780536455001451"><ele>482.59999999999997</ele><time>2026-04-25T16:36:51.917Z</time></trkpt><trkpt lat="42.69113060708346" lon="11.780630941578897"><ele>483.0</ele><time>2026-04-25T16:36:52.917Z</time></trkpt><trkpt lat="42.691024979658906" lon="11.780731317306325"><ele>483.33333333333337</ele><time>2026-04-25T16:36:53.917Z</time></trkpt><trkpt lat="42.69090598302859" lon="11.780853627924524"><ele>483.6666666666667</ele><time>2026-04-25T16:36:54.917Z</time></trkpt><trkpt lat="42.69077190659194" lon="11.780987200636947"><ele>484.0</ele><time>2026-04-25T16:36:55.917Z</time></trkpt><trkpt lat="42.69062516340631" lon="11.781129225485026"><ele>483.33333333333337</ele><time>2026-04-25T16:36:56.916Z</time></trkpt><trkpt lat="42.690468149307456" lon="11.781280202129796"><ele>482.66666666666663</ele><time>2026-04-25T16:36:57.916Z</time></trkpt><trkpt lat="42.690310782656354" lon="11.781423775760329"><ele>482.0</ele><time>2026-04-25T16:36:58.916Z</time></trkpt><trkpt lat="42.69015836755124" lon="11.781564558713127"><ele>481.0</ele><time>2026-04-25T16:36:59.916Z</time></trkpt><trkpt lat="42.69001284183557" lon="11.781705422749338"><ele>480.0</ele><time>2026-04-25T16:37:00.916Z</time></trkpt><trkpt lat="42.68986636097452" lon="11.781846222000173"><ele>479.0</ele><time>2026-04-25T16:37:01.916Z</time></trkpt><trkpt lat="42.68972608932628" lon="11.781981949647738"><ele>478.0</ele><time>2026-04-25T16:37:02.916Z</time></trkpt><trkpt lat="42.68961939975547" lon="11.782100796356415"><ele>477.0</ele><time>2026-04-25T16:37:03.916Z</time></trkpt><trkpt lat="42.68953472497948" lon="11.782241118832218"><ele>476.0</ele><time>2026-04-25T16:37:04.916Z</time></trkpt><trkpt lat="42.689481185342146" lon="11.782407656288294"><ele>475.0</ele><time>2026-04-25T16:37:05.916Z</time></trkpt><trkpt lat="42.68946175999849" lon="11.782582686790196"><ele>473.0</ele><time>2026-04-25T16:37:06.916Z</time></trkpt><trkpt lat="42.68948850231308" lon="11.782752664861759"><ele>471.0</ele><time>2026-04-25T16:37:07.916Z</time></trkpt><trkpt lat="42.68955479916544" lon="11.782909532072052"><ele>469.0</ele><time>2026-04-25T16:37:08.916Z</time></trkpt><trkpt lat="42.689647995105446" lon="11.783045308640888"><ele>467.0</ele><time>2026-04-25T16:37:09.916Z</time></trkpt><trkpt lat="42.68976826897824" lon="11.783142656218935"><ele>467.0</ele><time>2026-04-25T16:37:10.916Z</time></trkpt><trkpt lat="42.68990894956632" lon="11.783196351637194"><ele>467.0</ele><time>2026-04-25T16:37:11.916Z</time></trkpt><trkpt lat="42.6900572992983" lon="11.783238189769786"><ele>467.0</ele><time>2026-04-25T16:37:12.916Z</time></trkpt><trkpt lat="42.69021281835982" lon="11.783313449830187"><ele>467.0</ele><time>2026-04-25T16:37:13.916Z</time></trkpt><trkpt lat="42.69037164265805" lon="11.783352432835327"><ele>467.0</ele><time>2026-04-25T16:37:14.916Z</time></trkpt><trkpt lat="42.69052539034893" lon="11.783422897884144"><ele>467.0</ele><time>2026-04-25T16:37:15.916Z</time></trkpt><trkpt lat="42.69067251864365" lon="11.783522112287834"><ele>466.0</ele><time>2026-04-25T16:37:16.916Z</time></trkpt><trkpt lat="42.69081080221019" lon="11.78365780081943"><ele>465.0</ele><time>2026-04-25T16:37:17.916Z</time></trkpt><trkpt lat="42.690935070257396" lon="11.783821982122033"><ele>464.0</ele><time>2026-04-25T16:37:18.916Z</time></trkpt><trkpt lat="42.69103975077239" lon="11.784003631061898"><ele>462.66666666666663</ele><time>2026-04-25T16:37:19.916Z</time></trkpt><trkpt lat="42.6911243929347" lon="11.784202363846099"><ele>461.33333333333337</ele><time>2026-04-25T16:37:20.916Z</time></trkpt><trkpt lat="42.69118538679121" lon="11.784426483052018"><ele>460.0</ele><time>2026-04-25T16:37:21.916Z</time></trkpt><trkpt lat="42.69123837794775" lon="11.784657573652357"><ele>460.0</ele><time>2026-04-25T16:37:22.916Z</time></trkpt><trkpt lat="42.69129007649715" lon="11.784890663930454"><ele>460.0</ele><time>2026-04-25T16:37:23.916Z</time></trkpt><trkpt lat="42.691339276149" lon="11.785113732884545"><ele>460.0</ele><time>2026-04-25T16:37:24.916Z</time></trkpt><trkpt lat="42.6913904760262" lon="11.785324356322457"><ele>460.0</ele><time>2026-04-25T16:37:25.916Z</time></trkpt><trkpt lat="42.6914213085795" lon="11.785536140945355"><ele>460.0</ele><time>2026-04-25T16:37:26.913Z</time></trkpt><trkpt lat="42.69146192644018" lon="11.785731959036587"><ele>460.0</ele><time>2026-04-25T16:37:27.911Z</time></trkpt><trkpt lat="42.69150880388607" lon="11.785900740797178"><ele>460.0</ele><time>2026-04-25T16:37:28.908Z</time></trkpt><trkpt lat="42.69159670369716" lon="11.786011770935366"><ele>462.5</ele><time>2026-04-25T16:37:29.905Z</time></trkpt><trkpt lat="42.691680765595116" lon="11.786105593894026"><ele>465.0</ele><time>2026-04-25T16:37:30.903Z</time></trkpt><trkpt lat="42.6917866298922" lon="11.786157528317174"><ele>467.5</ele><time>2026-04-25T16:37:31.901Z</time></trkpt><trkpt lat="42.69190322225209" lon="11.786173204983074"><ele>470.0</ele><time>2026-04-25T16:37:32.899Z</time></trkpt><trkpt lat="42.69202499610126" lon="11.786157877659708"><ele>470.0</ele><time>2026-04-25T16:37:33.897Z</time></trkpt><trkpt lat="42.69215115479473" lon="11.78612486026797"><ele>470.0</ele><time>2026-04-25T16:37:34.895Z</time></trkpt><trkpt lat="42.69228806961577" lon="11.786086830626978"><ele>470.0</ele><time>2026-04-25T16:37:35.893Z</time></trkpt><trkpt lat="42.692432220080846" lon="11.786044336223725"><ele>470.0</ele><time>2026-04-25T16:37:36.891Z</time></trkpt><trkpt lat="42.692574192070815" lon="11.78600286491263"><ele>470.5</ele><time>2026-04-25T16:37:37.89Z</time></trkpt><trkpt lat="42.692704594042176" lon="11.785971051403967"><ele>471.0</ele><time>2026-04-25T16:37:38.888Z</time></trkpt><trkpt lat="42.6928316242346" lon="11.785962931410323"><ele>471.5</ele><time>2026-04-25T16:37:39.887Z</time></trkpt><trkpt lat="42.69294611067288" lon="11.785990484971268"><ele>472.0</ele><time>2026-04-25T16:37:40.886Z</time></trkpt><trkpt lat="42.69304602489803" lon="11.786063885890917"><ele>472.0</ele><time>2026-04-25T16:37:41.885Z</time></trkpt><trkpt lat="42.69311318563978" lon="11.786184250423807"><ele>472.0</ele><time>2026-04-25T16:37:42.883Z</time></trkpt><trkpt lat="42.69319831331713" lon="11.786293659325542"><ele>472.0</ele><time>2026-04-25T16:37:43.882Z</time></trkpt><trkpt lat="42.69326699729873" lon="11.786429341734891"><ele>472.0</ele><time>2026-04-25T16:37:44.881Z</time></trkpt><trkpt lat="42.6933344689003" lon="11.786578771979086"><ele>472.0</ele><time>2026-04-25T16:37:45.88Z</time></trkpt><trkpt lat="42.69340633803365" lon="11.78674869972547"><ele>472.0</ele><time>2026-04-25T16:37:46.88Z</time></trkpt><trkpt lat="42.69346657264325" lon="11.786930821281404"><ele>472.0</ele><time>2026-04-25T16:37:47.879Z</time></trkpt><trkpt lat="42.69350874758692" lon="11.787122078138388"><ele>472.0</ele><time>2026-04-25T16:37:48.878Z</time></trkpt><trkpt lat="42.69354337472766" lon="11.787318959976945"><ele>472.33333333333337</ele><time>2026-04-25T16:37:49.877Z</time></trkpt><trkpt lat="42.693570112612285" lon="11.787533497065269"><ele>472.66666666666663</ele><time>2026-04-25T16:37:50.877Z</time></trkpt><trkpt lat="42.69358639230819" lon="11.787757969155107"><ele>473.0</ele><time>2026-04-25T16:37:51.876Z</time></trkpt><trkpt lat="42.69359089085348" lon="11.787982140060917"><ele>476.66666666666663</ele><time>2026-04-25T16:37:52.875Z</time></trkpt><trkpt lat="42.693598263967964" lon="11.788198061848473"><ele>480.33333333333337</ele><time>2026-04-25T16:37:53.875Z</time></trkpt><trkpt lat="42.69360521862558" lon="11.788403548115015"><ele>484.0</ele><time>2026-04-25T16:37:54.874Z</time></trkpt><trkpt lat="42.693622483884894" lon="11.788603308370373"><ele>484.0</ele><time>2026-04-25T16:37:55.874Z</time></trkpt><trkpt lat="42.693641106058166" lon="11.788797188242567"><ele>484.0</ele><time>2026-04-25T16:37:56.873Z</time></trkpt><trkpt lat="42.693677228489044" lon="11.789001673649201"><ele>484.0</ele><time>2026-04-25T16:37:57.873Z</time></trkpt><trkpt lat="42.69372347412825" lon="11.789197787973386"><ele>483.0</ele><time>2026-04-25T16:37:58.872Z</time></trkpt><trkpt lat="42.69377474496601" lon="11.789394168384746"><ele>482.0</ele><time>2026-04-25T16:37:59.872Z</time></trkpt><trkpt lat="42.69382412934519" lon="11.789573026991548"><ele>481.0</ele><time>2026-04-25T16:38:00.872Z</time></trkpt><trkpt lat="42.6938831365622" lon="11.789751552223777"><ele>480.0</ele><time>2026-04-25T16:38:01.871Z</time></trkpt><trkpt lat="42.69396042251171" lon="11.789925885453751"><ele>480.0</ele><time>2026-04-25T16:38:02.871Z</time></trkpt><trkpt lat="42.694065546540955" lon="11.790082802483354"><ele>480.0</ele><time>2026-04-25T16:38:03.871Z</time></trkpt><trkpt lat="42.69419398883272" lon="11.790222788367634"><ele>480.0</ele><time>2026-04-25T16:38:04.87Z</time></trkpt><trkpt lat="42.6943382016275" lon="11.790352970860658"><ele>480.0</ele><time>2026-04-25T16:38:05.87Z</time></trkpt><trkpt lat="42.69449215398944" lon="11.790488258501448"><ele>480.0</ele><time>2026-04-25T16:38:06.87Z</time></trkpt><trkpt lat="42.694641790386655" lon="11.790638940903373"><ele>480.0</ele><time>2026-04-25T16:38:07.869Z</time></trkpt><trkpt lat="42.69479439249079" lon="11.790790416237451"><ele>480.0</ele><time>2026-04-25T16:38:08.869Z</time></trkpt><trkpt lat="42.69495169840944" lon="11.790934413506607"><ele>480.0</ele><time>2026-04-25T16:38:09.869Z</time></trkpt><trkpt lat="42.695105821712325" lon="11.791080179763501"><ele>480.0</ele><time>2026-04-25T16:38:10.869Z</time></trkpt><trkpt lat="42.69526046888361" lon="11.791231554907446"><ele>479.0</ele><time>2026-04-25T16:38:11.869Z</time></trkpt><trkpt lat="42.695409397710044" lon="11.791375618528662"><ele>478.0</ele><time>2026-04-25T16:38:12.868Z</time></trkpt><trkpt lat="42.69555208650001" lon="11.791510928250517"><ele>477.0</ele><time>2026-04-25T16:38:13.868Z</time></trkpt><trkpt lat="42.69569471160266" lon="11.791652801724936"><ele>477.0</ele><time>2026-04-25T16:38:14.868Z</time></trkpt><trkpt lat="42.69583808499039" lon="11.791784115516213"><ele>477.0</ele><time>2026-04-25T16:38:15.868Z</time></trkpt><trkpt lat="42.69597899515736" lon="11.791912222902123"><ele>477.0</ele><time>2026-04-25T16:38:16.868Z</time></trkpt><trkpt lat="42.696113480870075" lon="11.792037096293024"><ele>476.75</ele><time>2026-04-25T16:38:17.868Z</time></trkpt><trkpt lat="42.696223497359625" lon="11.792149607961058"><ele>476.5</ele><time>2026-04-25T16:38:18.867Z</time></trkpt><trkpt lat="42.69631721337718" lon="11.792261022587455"><ele>476.25</ele><time>2026-04-25T16:38:19.867Z</time></trkpt><trkpt lat="42.696385377454" lon="11.792376415746359"><ele>476.0</ele><time>2026-04-25T16:38:20.867Z</time></trkpt><trkpt lat="42.69642387396362" lon="11.792517894740776"><ele>476.0</ele><time>2026-04-25T16:38:21.867Z</time></trkpt><trkpt lat="42.696443303387056" lon="11.79266418498289"><ele>476.0</ele><time>2026-04-25T16:38:22.867Z</time></trkpt><trkpt lat="42.6964460517734" lon="11.792810854809172"><ele>476.0</ele><time>2026-04-25T16:38:23.867Z</time></trkpt><trkpt lat="42.69643909631936" lon="11.792955349815685"><ele>476.0</ele><time>2026-04-25T16:38:24.867Z</time></trkpt><trkpt lat="42.69637984760196" lon="11.793108774042196"><ele>475.0</ele><time>2026-04-25T16:38:25.867Z</time></trkpt><trkpt lat="42.69639344366867" lon="11.793272905987207"><ele>474.0</ele><time>2026-04-25T16:38:26.866Z</time></trkpt><trkpt lat="42.69644412400383" lon="11.793422676640532"><ele>473.0</ele><time>2026-04-25T16:38:27.866Z</time></trkpt><trkpt lat="42.696543772307116" lon="11.793534291523008"><ele>472.0</ele><time>2026-04-25T16:38:28.866Z</time></trkpt><trkpt lat="42.696645278559025" lon="11.793650512062067"><ele>470.6666666666667</ele><time>2026-04-25T16:38:29.866Z</time></trkpt><trkpt lat="42.6967639659107" lon="11.793778155340437"><ele>469.33333333333337</ele><time>2026-04-25T16:38:30.866Z</time></trkpt><trkpt lat="42.69690121765036" lon="11.793916640481521"><ele>468.0</ele><time>2026-04-25T16:38:31.866Z</time></trkpt><trkpt lat="42.69705191649954" lon="11.794072655757851"><ele>468.0</ele><time>2026-04-25T16:38:32.866Z</time></trkpt><trkpt lat="42.69724552484861" lon="11.794244248126207"><ele>468.0</ele><time>2026-04-25T16:38:33.866Z</time></trkpt><trkpt lat="42.697433430433776" lon="11.794421096062157"><ele>467.0</ele><time>2026-04-25T16:38:34.866Z</time></trkpt><trkpt lat="42.69764301061364" lon="11.794611099458622"><ele>466.0</ele><time>2026-04-25T16:38:35.866Z</time></trkpt><trkpt lat="42.69784908176793" lon="11.794802866726087"><ele>466.0</ele><time>2026-04-25T16:38:36.866Z</time></trkpt><trkpt lat="42.69804063770912" lon="11.79497755467374"><ele>466.0</ele><time>2026-04-25T16:38:37.866Z</time></trkpt><trkpt lat="42.69821540409654" lon="11.795138950402457"><ele>466.0</ele><time>2026-04-25T16:38:38.865Z</time></trkpt><trkpt lat="42.69836895437838" lon="11.79528524981084"><ele>465.75</ele><time>2026-04-25T16:38:39.865Z</time></trkpt><trkpt lat="42.69849088490181" lon="11.795416878822984"><ele>465.5</ele><time>2026-04-25T16:38:40.867Z</time></trkpt><trkpt lat="42.69860635861736" lon="11.795538012657584"><ele>465.25</ele><time>2026-04-25T16:38:41.867Z</time></trkpt><trkpt lat="42.69869894950111" lon="11.795675077448584"><ele>465.0</ele><time>2026-04-25T16:38:42.867Z</time></trkpt><trkpt lat="42.698741219626285" lon="11.795844395548917"><ele>462.0</ele><time>2026-04-25T16:38:43.867Z</time></trkpt><trkpt lat="42.69878676883207" lon="11.796035000638428"><ele>459.0</ele><time>2026-04-25T16:38:44.867Z</time></trkpt><trkpt lat="42.69883084089665" lon="11.796227617076"><ele>456.0</ele><time>2026-04-25T16:38:45.867Z</time></trkpt><trkpt lat="42.6988759358218" lon="11.796411851594181"><ele>453.0</ele><time>2026-04-25T16:38:46.867Z</time></trkpt><trkpt lat="42.69893962430885" lon="11.796584475110322"><ele>453.0</ele><time>2026-04-25T16:38:47.867Z</time></trkpt><trkpt lat="42.69904016542853" lon="11.796719829912892"><ele>453.0</ele><time>2026-04-25T16:38:48.867Z</time></trkpt><trkpt lat="42.699163850877795" lon="11.796796093359912"><ele>453.0</ele><time>2026-04-25T16:38:49.867Z</time></trkpt><trkpt lat="42.69929284912693" lon="11.7968581634696"><ele>453.0</ele><time>2026-04-25T16:38:50.867Z</time></trkpt><trkpt lat="42.69940640582897" lon="11.796926693621405"><ele>450.79999999999995</ele><time>2026-04-25T16:38:51.867Z</time></trkpt><trkpt lat="42.699505202020845" lon="11.797003878217321"><ele>448.59999999999997</ele><time>2026-04-25T16:38:52.867Z</time></trkpt><trkpt lat="42.69957534624567" lon="11.797099590060522"><ele>446.40000000000003</ele><time>2026-04-25T16:38:53.866Z</time></trkpt><trkpt lat="42.699608565839306" lon="11.79723173393447"><ele>444.20000000000005</ele><time>2026-04-25T16:38:54.866Z</time></trkpt><trkpt lat="42.69960424753667" lon="11.79737214041863"><ele>442.0</ele><time>2026-04-25T16:38:55.866Z</time></trkpt><trkpt lat="42.69959531998327" lon="11.797530869825458"><ele>442.75</ele><time>2026-04-25T16:38:56.866Z</time></trkpt><trkpt lat="42.699579195439846" lon="11.797703037522608"><ele>443.5</ele><time>2026-04-25T16:38:57.866Z</time></trkpt><trkpt lat="42.69956220319746" lon="11.797880435941872"><ele>444.25</ele><time>2026-04-25T16:38:58.866Z</time></trkpt><trkpt lat="42.69954680999193" lon="11.79806333336646"><ele>445.0</ele><time>2026-04-25T16:38:59.866Z</time></trkpt><trkpt lat="42.69953085322739" lon="11.798255511252275"><ele>445.0</ele><time>2026-04-25T16:39:00.866Z</time></trkpt><trkpt lat="42.69951421434845" lon="11.798456090700062"><ele>445.0</ele><time>2026-04-25T16:39:01.866Z</time></trkpt><trkpt lat="42.69949741030229" lon="11.798666692451347"><ele>445.0</ele><time>2026-04-25T16:39:02.866Z</time></trkpt><trkpt lat="42.69947921720855" lon="11.798894702998988"><ele>446.0</ele><time>2026-04-25T16:39:03.866Z</time></trkpt><trkpt lat="42.69945979920612" lon="11.799128755953497"><ele>447.0</ele><time>2026-04-25T16:39:04.866Z</time></trkpt><trkpt lat="42.69943739226198" lon="11.799360111397622"><ele>448.0</ele><time>2026-04-25T16:39:05.866Z</time></trkpt><trkpt lat="42.69941448577789" lon="11.799581480439942"><ele>448.0</ele><time>2026-04-25T16:39:06.866Z</time></trkpt><trkpt lat="42.69939591595068" lon="11.799789462186"><ele>448.0</ele><time>2026-04-25T16:39:07.866Z</time></trkpt><trkpt lat="42.69938209304699" lon="11.799983851037418"><ele>448.0</ele><time>2026-04-25T16:39:08.866Z</time></trkpt><trkpt lat="42.69937074716995" lon="11.800177049708964"><ele>448.0</ele><time>2026-04-25T16:39:09.866Z</time></trkpt><trkpt lat="42.69937127318038" lon="11.800378732247045"><ele>448.0</ele><time>2026-04-25T16:39:10.866Z</time></trkpt><trkpt lat="42.69939242495206" lon="11.80058012448002"><ele>448.0</ele><time>2026-04-25T16:39:11.866Z</time></trkpt><trkpt lat="42.69943913590309" lon="11.80078704724311"><ele>448.0</ele><time>2026-04-25T16:39:12.865Z</time></trkpt><trkpt lat="42.69947610475273" lon="11.801004275802589"><ele>451.33333333333337</ele><time>2026-04-25T16:39:13.865Z</time></trkpt><trkpt lat="42.699498760191545" lon="11.80123533746245"><ele>454.66666666666663</ele><time>2026-04-25T16:39:14.865Z</time></trkpt><trkpt lat="42.69953596815912" lon="11.801460500118031"><ele>458.0</ele><time>2026-04-25T16:39:15.865Z</time></trkpt><trkpt lat="42.69957079711704" lon="11.801671266781026"><ele>457.75</ele><time>2026-04-25T16:39:16.865Z</time></trkpt><trkpt lat="42.69960314650199" lon="11.801867028035918"><ele>457.5</ele><time>2026-04-25T16:39:17.865Z</time></trkpt><trkpt lat="42.699633969946845" lon="11.80205946654983"><ele>457.25</ele><time>2026-04-25T16:39:18.865Z</time></trkpt><trkpt lat="42.699659036840906" lon="11.802243168382802"><ele>457.0</ele><time>2026-04-25T16:39:19.865Z</time></trkpt><trkpt lat="42.699662481876366" lon="11.802411690587183"><ele>457.0</ele><time>2026-04-25T16:39:20.865Z</time></trkpt><trkpt lat="42.69964262550257" lon="11.80257167345406"><ele>457.0</ele><time>2026-04-25T16:39:21.865Z</time></trkpt><trkpt lat="42.69959382780755" lon="11.80272586176186"><ele>457.0</ele><time>2026-04-25T16:39:22.865Z</time></trkpt><trkpt lat="42.69950421095386" lon="11.802841890048393"><ele>457.0</ele><time>2026-04-25T16:39:23.865Z</time></trkpt><trkpt lat="42.69940224604345" lon="11.80294227995414"><ele>457.25</ele><time>2026-04-25T16:39:24.865Z</time></trkpt><trkpt lat="42.699292601520284" lon="11.80306398050963"><ele>457.5</ele><time>2026-04-25T16:39:25.865Z</time></trkpt><trkpt lat="42.69917825182557" lon="11.803193120453383"><ele>457.75</ele><time>2026-04-25T16:39:26.865Z</time></trkpt><trkpt lat="42.69905777731321" lon="11.803329177641128"><ele>458.0</ele><time>2026-04-25T16:39:27.865Z</time></trkpt><trkpt lat="42.69893312246915" lon="11.803469955627433"><ele>458.5</ele><time>2026-04-25T16:39:28.865Z</time></trkpt><trkpt lat="42.69881842672709" lon="11.803596451306909"><ele>459.0</ele><time>2026-04-25T16:39:29.865Z</time></trkpt><trkpt lat="42.6987110542841" lon="11.803714207476302"><ele>459.5</ele><time>2026-04-25T16:39:30.865Z</time></trkpt><trkpt lat="42.69861082283298" lon="11.803824359536987"><ele>460.0</ele><time>2026-04-25T16:39:31.865Z</time></trkpt><trkpt lat="42.698520881724676" lon="11.80393506216894"><ele>460.0</ele><time>2026-04-25T16:39:32.865Z</time></trkpt><trkpt lat="42.6984471857886" lon="11.804065660726389"><ele>460.0</ele><time>2026-04-25T16:39:33.865Z</time></trkpt><trkpt lat="42.69839926576103" lon="11.804217178191664"><ele>460.0</ele><time>2026-04-25T16:39:34.865Z</time></trkpt><trkpt lat="42.69837782494119" lon="11.804376429607615"><ele>460.0</ele><time>2026-04-25T16:39:35.865Z</time></trkpt><trkpt lat="42.69838067350321" lon="11.804532554774692"><ele>460.4</ele><time>2026-04-25T16:39:36.865Z</time></trkpt><trkpt lat="42.69843509357945" lon="11.804674835354945"><ele>460.8</ele><time>2026-04-25T16:39:37.864Z</time></trkpt><trkpt lat="42.69849864020488" lon="11.804770702836379"><ele>461.20000000000005</ele><time>2026-04-25T16:39:38.864Z</time></trkpt><trkpt lat="42.698586624046314" lon="11.804843232954049"><ele>461.6</ele><time>2026-04-25T16:39:39.864Z</time></trkpt><trkpt lat="42.69869773084712" lon="11.804899026045417"><ele>462.0</ele><time>2026-04-25T16:39:40.864Z</time></trkpt><trkpt lat="42.69882575686524" lon="11.80495363404968"><ele>464.0</ele><time>2026-04-25T16:39:41.864Z</time></trkpt><trkpt lat="42.698970169084284" lon="11.805015149896393"><ele>466.0</ele><time>2026-04-25T16:39:42.864Z</time></trkpt><trkpt lat="42.6991108563537" lon="11.805070587712839"><ele>468.0</ele><time>2026-04-25T16:39:43.864Z</time></trkpt><trkpt lat="42.69923903512894" lon="11.80512378554196"><ele>470.0</ele><time>2026-04-25T16:39:44.864Z</time></trkpt><trkpt lat="42.69935267830778" lon="11.805192908023843"><ele>470.3333333333333</ele><time>2026-04-25T16:39:45.864Z</time></trkpt><trkpt lat="42.69942629828638" lon="11.805269732973251"><ele>470.66666666666663</ele><time>2026-04-25T16:39:46.864Z</time></trkpt><trkpt lat="42.69946495713125" lon="11.805374231433452"><ele>471.0</ele><time>2026-04-25T16:39:47.864Z</time></trkpt><trkpt lat="42.69947092809634" lon="11.80548600351329"><ele>471.33333333333337</ele><time>2026-04-25T16:39:48.864Z</time></trkpt><trkpt lat="42.699424826101364" lon="11.805587219765453"><ele>471.6666666666667</ele><time>2026-04-25T16:39:49.864Z</time></trkpt><trkpt lat="42.69936105084494" lon="11.805688273212821"><ele>472.0</ele><time>2026-04-25T16:39:50.864Z</time></trkpt><trkpt lat="42.699280602049825" lon="11.805795462247634"><ele>472.0</ele><time>2026-04-25T16:39:51.864Z</time></trkpt><trkpt lat="42.69918054962183" lon="11.80589504012425"><ele>472.0</ele><time>2026-04-25T16:39:52.864Z</time></trkpt><trkpt lat="42.69907384900796" lon="11.806007784741624"><ele>472.0</ele><time>2026-04-25T16:39:53.864Z</time></trkpt><trkpt lat="42.69895650325826" lon="11.806134727670072"><ele>472.0</ele><time>2026-04-25T16:39:54.864Z</time></trkpt><trkpt lat="42.6988310634543" lon="11.806269734898326"><ele>472.25</ele><time>2026-04-25T16:39:55.864Z</time></trkpt><trkpt lat="42.698708125366316" lon="11.806402049661456"><ele>472.5</ele><time>2026-04-25T16:39:56.864Z</time></trkpt><trkpt lat="42.698591911968826" lon="11.806525292512736"><ele>472.75</ele><time>2026-04-25T16:39:57.864Z</time></trkpt><trkpt lat="42.69847963645391" lon="11.806636473666522"><ele>473.0</ele><time>2026-04-25T16:39:58.864Z</time></trkpt><trkpt lat="42.698384793837555" lon="11.80674373693655"><ele>473.59999999999997</ele><time>2026-04-25T16:39:59.864Z</time></trkpt><trkpt lat="42.698301815800924" lon="11.80685419583868"><ele>474.19999999999993</ele><time>2026-04-25T16:40:00.864Z</time></trkpt><trkpt lat="42.69825091700628" lon="11.806977360959353"><ele>474.8</ele><time>2026-04-25T16:40:01.864Z</time></trkpt><trkpt lat="42.698257441942296" lon="11.807100827044037"><ele>475.4</ele><time>2026-04-25T16:40:02.864Z</time></trkpt><trkpt lat="42.698283918139566" lon="11.807203003887327"><ele>476.0</ele><time>2026-04-25T16:40:03.863Z</time></trkpt><trkpt lat="42.69834831252113" lon="11.807291165856027"><ele>476.0</ele><time>2026-04-25T16:40:04.863Z</time></trkpt><trkpt lat="42.6984414221644" lon="11.80734418173562"><ele>476.0</ele><time>2026-04-25T16:40:05.863Z</time></trkpt><trkpt lat="42.698554753314454" lon="11.807398106393109"><ele>476.0</ele><time>2026-04-25T16:40:06.863Z</time></trkpt><trkpt lat="42.69868443001227" lon="11.807458686451321"><ele>476.0</ele><time>2026-04-25T16:40:07.863Z</time></trkpt><trkpt lat="42.69882597433304" lon="11.807536428791206"><ele>475.0</ele><time>2026-04-25T16:40:08.863Z</time></trkpt><trkpt lat="42.698968271456806" lon="11.807625228957862"><ele>474.0</ele><time>2026-04-25T16:40:09.863Z</time></trkpt><trkpt lat="42.69910833534387" lon="11.807701502635622"><ele>473.0</ele><time>2026-04-25T16:40:10.863Z</time></trkpt><trkpt lat="42.699256148301885" lon="11.807748370873467"><ele>473.0</ele><time>2026-04-25T16:40:11.863Z</time></trkpt><trkpt lat="42.699403982622066" lon="11.807758130441904"><ele>473.0</ele><time>2026-04-25T16:40:12.863Z</time></trkpt><trkpt lat="42.69954802141906" lon="11.807749378307149"><ele>473.0</ele><time>2026-04-25T16:40:13.863Z</time></trkpt><trkpt lat="42.699690266722286" lon="11.807763482464068"><ele>473.0</ele><time>2026-04-25T16:40:14.863Z</time></trkpt><trkpt lat="42.699837113319596" lon="11.807793940890901"><ele>469.66666666666663</ele><time>2026-04-25T16:40:15.863Z</time></trkpt><trkpt lat="42.69998201716841" lon="11.807851405362477"><ele>466.33333333333337</ele><time>2026-04-25T16:40:16.863Z</time></trkpt><trkpt lat="42.700135710787485" lon="11.80792679448463"><ele>463.0</ele><time>2026-04-25T16:40:17.863Z</time></trkpt><trkpt lat="42.700282533031476" lon="11.808015219410196"><ele>459.0</ele><time>2026-04-25T16:40:18.863Z</time></trkpt><trkpt lat="42.70042462768935" lon="11.808113607972226"><ele>455.0</ele><time>2026-04-25T16:40:19.863Z</time></trkpt><trkpt lat="42.700558163989804" lon="11.808216543071026"><ele>451.0</ele><time>2026-04-25T16:40:20.863Z</time></trkpt><trkpt lat="42.70068905533959" lon="11.808341964919714"><ele>451.0</ele><time>2026-04-25T16:40:21.863Z</time></trkpt><trkpt lat="42.700807592412396" lon="11.80848740035756"><ele>451.0</ele><time>2026-04-25T16:40:22.863Z</time></trkpt><trkpt lat="42.70089412716665" lon="11.808627377684257"><ele>451.0</ele><time>2026-04-25T16:40:23.863Z</time></trkpt><trkpt lat="42.70094223079492" lon="11.808753567326333"><ele>451.0</ele><time>2026-04-25T16:40:24.863Z</time></trkpt><trkpt lat="42.70096049867683" lon="11.808874161099151"><ele>450.33333333333337</ele><time>2026-04-25T16:40:25.863Z</time></trkpt><trkpt lat="42.70094547295303" lon="11.808983579334694"><ele>449.6666666666667</ele><time>2026-04-25T16:40:26.863Z</time></trkpt><trkpt lat="42.700900363035046" lon="11.809063195330607"><ele>449.0</ele><time>2026-04-25T16:40:27.863Z</time></trkpt><trkpt lat="42.700829234198224" lon="11.809093851791081"><ele>448.33333333333337</ele><time>2026-04-25T16:40:28.863Z</time></trkpt><trkpt lat="42.70074789905743" lon="11.809114545598547"><ele>447.6666666666667</ele><time>2026-04-25T16:40:29.862Z</time></trkpt><trkpt lat="42.70064587834575" lon="11.809132113749794"><ele>447.0</ele><time>2026-04-25T16:40:30.862Z</time></trkpt><trkpt lat="42.70052969494084" lon="11.809138038340823"><ele>447.0</ele><time>2026-04-25T16:40:31.862Z</time></trkpt><trkpt lat="42.700398347095515" lon="11.809128729019426"><ele>447.0</ele><time>2026-04-25T16:40:32.862Z</time></trkpt><trkpt lat="42.70025496198747" lon="11.809113653512801"><ele>447.0</ele><time>2026-04-25T16:40:33.862Z</time></trkpt><trkpt lat="42.700097607348475" lon="11.809108726338607"><ele>447.0</ele><time>2026-04-25T16:40:34.862Z</time></trkpt><trkpt lat="42.699933122222184" lon="11.809105674274102"><ele>447.33333333333337</ele><time>2026-04-25T16:40:35.862Z</time></trkpt><trkpt lat="42.699760963461294" lon="11.809103993904948"><ele>447.6666666666667</ele><time>2026-04-25T16:40:36.862Z</time></trkpt><trkpt lat="42.699581782890455" lon="11.809095947593558"><ele>448.0</ele><time>2026-04-25T16:40:37.862Z</time></trkpt><trkpt lat="42.699402644681065" lon="11.809158092932238"><ele>447.33333333333337</ele><time>2026-04-25T16:40:38.862Z</time></trkpt><trkpt lat="42.69921801186881" lon="11.809206339170585"><ele>446.66666666666663</ele><time>2026-04-25T16:40:39.862Z</time></trkpt><trkpt lat="42.69903718576359" lon="11.809284852646535"><ele>446.0</ele><time>2026-04-25T16:40:40.862Z</time></trkpt><trkpt lat="42.69886595392211" lon="11.809361920488914"><ele>446.0</ele><time>2026-04-25T16:40:41.862Z</time></trkpt><trkpt lat="42.69870463068114" lon="11.809433113700079"><ele>446.0</ele><time>2026-04-25T16:40:42.862Z</time></trkpt><trkpt lat="42.69854499842427" lon="11.809499257944514"><ele>446.0</ele><time>2026-04-25T16:40:43.862Z</time></trkpt><trkpt lat="42.69838828248004" lon="11.80956383595505"><ele>445.66666666666663</ele><time>2026-04-25T16:40:44.862Z</time></trkpt><trkpt lat="42.69823006862658" lon="11.809612935123798"><ele>445.33333333333337</ele><time>2026-04-25T16:40:45.862Z</time></trkpt><trkpt lat="42.69806868856784" lon="11.809636999536682"><ele>445.0</ele><time>2026-04-25T16:40:46.865Z</time></trkpt><trkpt lat="42.69790155597625" lon="11.80964850936383"><ele>444.6666666666667</ele><time>2026-04-25T16:40:47.865Z</time></trkpt><trkpt lat="42.697733988313786" lon="11.809655335568982"><ele>444.33333333333337</ele><time>2026-04-25T16:40:48.865Z</time></trkpt><trkpt lat="42.6975611787694" lon="11.809661983985272"><ele>444.0</ele><time>2026-04-25T16:40:49.864Z</time></trkpt><trkpt lat="42.697386222699016" lon="11.809680175974114"><ele>444.0</ele><time>2026-04-25T16:40:50.864Z</time></trkpt><trkpt lat="42.69722292833886" lon="11.809722568486649"><ele>444.0</ele><time>2026-04-25T16:40:51.864Z</time></trkpt><trkpt lat="42.69706882783163" lon="11.809770983874206"><ele>444.0</ele><time>2026-04-25T16:40:52.864Z</time></trkpt><trkpt lat="42.696921236314026" lon="11.809831550389475"><ele>445.25</ele><time>2026-04-25T16:40:53.864Z</time></trkpt><trkpt lat="42.69679005662055" lon="11.809903315189716"><ele>446.5</ele><time>2026-04-25T16:40:54.864Z</time></trkpt><trkpt lat="42.696686434711204" lon="11.809998043125736"><ele>447.75</ele><time>2026-04-25T16:40:55.864Z</time></trkpt><trkpt lat="42.69661142810072" lon="11.810127596538543"><ele>449.0</ele><time>2026-04-25T16:40:56.864Z</time></trkpt><trkpt lat="42.69656656544419" lon="11.81027047392785"><ele>449.0</ele><time>2026-04-25T16:40:57.864Z</time></trkpt><trkpt lat="42.696547294486436" lon="11.810423654614404"><ele>449.0</ele><time>2026-04-25T16:40:58.865Z</time></trkpt><trkpt lat="42.696508075199475" lon="11.810575738292545"><ele>449.0</ele><time>2026-04-25T16:40:59.864Z</time></trkpt><trkpt lat="42.69645206160681" lon="11.810728899188462"><ele>449.0</ele><time>2026-04-25T16:41:00.864Z</time></trkpt><trkpt lat="42.696375941995086" lon="11.81087066531894"><ele>449.0</ele><time>2026-04-25T16:41:01.864Z</time></trkpt><trkpt lat="42.696281113754544" lon="11.810981377754363"><ele>449.0</ele><time>2026-04-25T16:41:02.864Z</time></trkpt><trkpt lat="42.69616588509753" lon="11.811058539956434"><ele>449.0</ele><time>2026-04-25T16:41:03.864Z</time></trkpt><trkpt lat="42.6960385019183" lon="11.811107720485865"><ele>449.0</ele><time>2026-04-25T16:41:04.864Z</time></trkpt><trkpt lat="42.695904448859125" lon="11.811156173478269"><ele>454.0</ele><time>2026-04-25T16:41:05.864Z</time></trkpt><trkpt lat="42.695771910419566" lon="11.811208888461403"><ele>459.0</ele><time>2026-04-25T16:41:06.864Z</time></trkpt><trkpt lat="42.69564035550547" lon="11.811262072665174"><ele>464.0</ele><time>2026-04-25T16:41:07.864Z</time></trkpt><trkpt lat="42.69551036690422" lon="11.81131389632558"><ele>469.0</ele><time>2026-04-25T16:41:08.864Z</time></trkpt><trkpt lat="42.69538689274894" lon="11.811357671635045"><ele>469.0</ele><time>2026-04-25T16:41:09.863Z</time></trkpt><trkpt lat="42.69526448129095" lon="11.81140226198062"><ele>469.0</ele><time>2026-04-25T16:41:10.863Z</time></trkpt><trkpt lat="42.695138439141665" lon="11.811444584128589"><ele>469.0</ele><time>2026-04-25T16:41:11.863Z</time></trkpt><trkpt lat="42.6950106970039" lon="11.81148135342675"><ele>469.0</ele><time>2026-04-25T16:41:12.863Z</time></trkpt><trkpt lat="42.69487934768414" lon="11.811512945669833"><ele>467.5</ele><time>2026-04-25T16:41:13.863Z</time></trkpt><trkpt lat="42.694755760611365" lon="11.811541301221688"><ele>466.0</ele><time>2026-04-25T16:41:14.863Z</time></trkpt><trkpt lat="42.694644341400505" lon="11.811580380590698"><ele>464.5</ele><time>2026-04-25T16:41:15.863Z</time></trkpt><trkpt lat="42.69454213443648" lon="11.81160975019496"><ele>463.0</ele><time>2026-04-25T16:41:16.863Z</time></trkpt><trkpt lat="42.69443819847626" lon="11.811654339327038"><ele>464.4</ele><time>2026-04-25T16:41:17.863Z</time></trkpt><trkpt lat="42.69433714316185" lon="11.81172073277006"><ele>465.79999999999995</ele><time>2026-04-25T16:41:18.863Z</time></trkpt><trkpt lat="42.694243198485545" lon="11.811811061659277"><ele>467.2</ele><time>2026-04-25T16:41:19.863Z</time></trkpt><trkpt lat="42.69415499537486" lon="11.81190262559108"><ele>468.6</ele><time>2026-04-25T16:41:20.863Z</time></trkpt><trkpt lat="42.69408405820006" lon="11.811997411887791"><ele>470.0</ele><time>2026-04-25T16:41:21.863Z</time></trkpt><trkpt lat="42.694039567766566" lon="11.812110078715202"><ele>470.0</ele><time>2026-04-25T16:41:22.863Z</time></trkpt><trkpt lat="42.69400677195215" lon="11.812233952637756"><ele>470.0</ele><time>2026-04-25T16:41:23.863Z</time></trkpt><trkpt lat="42.69397924598096" lon="11.812363264963098"><ele>470.0</ele><time>2026-04-25T16:41:24.863Z</time></trkpt><trkpt lat="42.693973077593064" lon="11.812496756230853"><ele>470.0</ele><time>2026-04-25T16:41:25.863Z</time></trkpt><trkpt lat="42.69397956381485" lon="11.812643181412348"><ele>470.0</ele><time>2026-04-25T16:41:26.863Z</time></trkpt><trkpt lat="42.693991241633285" lon="11.812796426113149"><ele>471.6</ele><time>2026-04-25T16:41:27.863Z</time></trkpt><trkpt lat="42.69401547493792" lon="11.812950375139566"><ele>473.2</ele><time>2026-04-25T16:41:28.863Z</time></trkpt><trkpt lat="42.69404680386826" lon="11.813107910464488"><ele>474.79999999999995</ele><time>2026-04-25T16:41:29.863Z</time></trkpt><trkpt lat="42.694068276031096" lon="11.81324465748634"><ele>476.4</ele><time>2026-04-25T16:41:30.863Z</time></trkpt><trkpt lat="42.694073370089235" lon="11.813384578590592"><ele>478.0</ele><time>2026-04-25T16:41:31.863Z</time></trkpt><trkpt lat="42.69406755662421" lon="11.81350933622908"><ele>479.00000000000006</ele><time>2026-04-25T16:41:32.863Z</time></trkpt><trkpt lat="42.69403334290534" lon="11.813626077633351"><ele>480.0</ele><time>2026-04-25T16:41:33.863Z</time></trkpt><trkpt lat="42.69399155107975" lon="11.813731893766285"><ele>481.0</ele><time>2026-04-25T16:41:34.863Z</time></trkpt><trkpt lat="42.69395158147036" lon="11.81384122018897"><ele>482.0</ele><time>2026-04-25T16:41:35.862Z</time></trkpt><trkpt lat="42.693923726261374" lon="11.813949578315155"><ele>483.00000000000006</ele><time>2026-04-25T16:41:36.862Z</time></trkpt><trkpt lat="42.693922930244845" lon="11.814055427537609"><ele>484.0</ele><time>2026-04-25T16:41:37.862Z</time></trkpt><trkpt lat="42.69394680162549" lon="11.814140473298858"><ele>484.00000000000006</ele><time>2026-04-25T16:41:38.862Z</time></trkpt><trkpt lat="42.69399049804645" lon="11.814225280581866"><ele>484.0</ele><time>2026-04-25T16:41:39.862Z</time></trkpt><trkpt lat="42.69405370960365" lon="11.814210640380823"><ele>484.0</ele><time>2026-04-25T16:41:40.862Z</time></trkpt><trkpt lat="42.694146371638354" lon="11.81410794860089"><ele>484.0</ele><time>2026-04-25T16:41:42.862Z</time></trkpt><trkpt lat="42.694198111216195" lon="11.814031145119344"><ele>484.00000000000006</ele><time>2026-04-25T16:41:43.862Z</time></trkpt><trkpt lat="42.69423007843981" lon="11.813918005569121"><ele>484.0</ele><time>2026-04-25T16:41:44.862Z</time></trkpt><trkpt lat="42.694274112447495" lon="11.813800717199834"><ele>484.00000000000006</ele><time>2026-04-25T16:41:45.862Z</time></trkpt><trkpt lat="42.69432236405991" lon="11.813706136803997"><ele>484.0</ele><time>2026-04-25T16:41:46.862Z</time></trkpt><trkpt lat="42.69438251035046" lon="11.81364220403641"><ele>484.0</ele><time>2026-04-25T16:41:47.862Z</time></trkpt><trkpt lat="42.69445018548833" lon="11.813616374637363"><ele>484.0</ele><time>2026-04-25T16:41:48.862Z</time></trkpt><trkpt lat="42.694517708006124" lon="11.813648326912393"><ele>484.00000000000006</ele><time>2026-04-25T16:41:49.862Z</time></trkpt><trkpt lat="42.69456203120779" lon="11.81371350956679"><ele>484.0</ele><time>2026-04-25T16:41:50.862Z</time></trkpt><trkpt lat="42.69458499357299" lon="11.813872526855763"><ele>484.00000000000006</ele><time>2026-04-25T16:41:52.862Z</time></trkpt><trkpt lat="42.69454434850054" lon="11.81395445061654"><ele>484.0</ele><time>2026-04-25T16:41:53.862Z</time></trkpt><trkpt lat="42.69448345545335" lon="11.814023048607098"><ele>484.0</ele><time>2026-04-25T16:41:54.862Z</time></trkpt><trkpt lat="42.69442188861506" lon="11.814101690463476"><ele>484.0</ele><time>2026-04-25T16:41:55.862Z</time></trkpt><trkpt lat="42.694362456724214" lon="11.814176714167811"><ele>484.00000000000006</ele><time>2026-04-25T16:41:56.862Z</time></trkpt><trkpt lat="42.69430555957668" lon="11.814243252521539"><ele>484.0</ele><time>2026-04-25T16:41:57.862Z</time></trkpt><trkpt lat="42.69425519266011" lon="11.814314785618068"><ele>484.4285714285714</ele><time>2026-04-25T16:41:58.862Z</time></trkpt><trkpt lat="42.69420147511096" lon="11.814379590693372"><ele>484.8571428571428</ele><time>2026-04-25T16:41:59.862Z</time></trkpt><trkpt lat="42.69415001121487" lon="11.814449761732845"><ele>485.2857142857143</ele><time>2026-04-25T16:42:00.862Z</time></trkpt><trkpt lat="42.694093729919665" lon="11.814517939573152"><ele>485.71428571428567</ele><time>2026-04-25T16:42:01.861Z</time></trkpt><trkpt lat="42.694040834122625" lon="11.814586926174268"><ele>486.1428571428571</ele><time>2026-04-25T16:42:02.861Z</time></trkpt><trkpt lat="42.69399067827465" lon="11.814656541535133"><ele>486.57142857142856</ele><time>2026-04-25T16:42:03.861Z</time></trkpt><trkpt lat="42.69396049658012" lon="11.814741388995813"><ele>487.0</ele><time>2026-04-25T16:42:04.861Z</time></trkpt><trkpt lat="42.69389869115699" lon="11.814849806082332"><ele>487.00000000000006</ele><time>2026-04-25T16:42:06.861Z</time></trkpt><trkpt lat="42.6938271785066" lon="11.814975545363133"><ele>487.0</ele><time>2026-04-25T16:42:08.861Z</time></trkpt><trkpt lat="42.693787526760026" lon="11.815045263414476"><ele>487.0</ele><time>2026-04-25T16:42:09.861Z</time></trkpt><trkpt lat="42.693732662760965" lon="11.815118579899671"><ele>487.0</ele><time>2026-04-25T16:42:10.861Z</time></trkpt><trkpt lat="42.69367414833782" lon="11.815198033561499"><ele>487.00000000000006</ele><time>2026-04-25T16:42:11.861Z</time></trkpt><trkpt lat="42.69361996342241" lon="11.81527378973029"><ele>487.0</ele><time>2026-04-25T16:42:12.861Z</time></trkpt><trkpt lat="42.69356710119238" lon="11.815344988007253"><ele>487.1666666666667</ele><time>2026-04-25T16:42:13.861Z</time></trkpt><trkpt lat="42.69351510404755" lon="11.815411142398311"><ele>487.33333333333337</ele><time>2026-04-25T16:42:14.861Z</time></trkpt><trkpt lat="42.69346250653023" lon="11.815476741130587"><ele>487.5</ele><time>2026-04-25T16:42:15.861Z</time></trkpt><trkpt lat="42.69341091937548" lon="11.815541556867045"><ele>487.66666666666663</ele><time>2026-04-25T16:42:16.861Z</time></trkpt><trkpt lat="42.693307146027955" lon="11.815632854764644"><ele>487.8333333333333</ele><time>2026-04-25T16:42:18.861Z</time></trkpt><trkpt lat="42.69323784500625" lon="11.81574581295567"><ele>488.0</ele><time>2026-04-25T16:42:20.861Z</time></trkpt><trkpt lat="42.693170770138494" lon="11.815856023236716"><ele>488.0</ele><time>2026-04-25T16:42:22.861Z</time></trkpt><trkpt lat="42.69308909363731" lon="11.81596148831877"><ele>487.99999999999994</ele><time>2026-04-25T16:42:24.861Z</time></trkpt><trkpt lat="42.693030671454885" lon="11.816063333715416"><ele>487.99999999999994</ele><time>2026-04-25T16:42:27.86Z</time></trkpt><trkpt lat="42.69298228258636" lon="11.816124954514944"><ele>488.0</ele><time>2026-04-25T16:42:29.86Z</time></trkpt><trkpt lat="42.69291421879551" lon="11.81624093617321"><ele>488.0</ele><time>2026-04-25T16:42:31.86Z</time></trkpt><trkpt lat="42.692817280572406" lon="11.816349689322681"><ele>487.5714285714285</ele><time>2026-04-25T16:42:33.86Z</time></trkpt><trkpt lat="42.692759862345184" lon="11.816409959349523"><ele>487.1428571428571</ele><time>2026-04-25T16:42:34.86Z</time></trkpt><trkpt lat="42.69270306690235" lon="11.816463856127697"><ele>486.7142857142857</ele><time>2026-04-25T16:42:35.86Z</time></trkpt><trkpt lat="42.69263750205527" lon="11.816494325344697"><ele>486.2857142857143</ele><time>2026-04-25T16:42:36.86Z</time></trkpt><trkpt lat="42.69257913893665" lon="11.816540561326523"><ele>485.8571428571429</ele><time>2026-04-25T16:42:37.86Z</time></trkpt><trkpt lat="42.692514202282204" lon="11.816564378455725"><ele>485.4285714285715</ele><time>2026-04-25T16:42:38.86Z</time></trkpt><trkpt lat="42.692453899818325" lon="11.816622060267598"><ele>485.00000000000006</ele><time>2026-04-25T16:42:39.86Z</time></trkpt><trkpt lat="42.692384121137486" lon="11.816661783063571"><ele>484.99999999999994</ele><time>2026-04-25T16:42:40.86Z</time></trkpt><trkpt lat="42.692314097836174" lon="11.816701645107198"><ele>485.0</ele><time>2026-04-25T16:42:41.86Z</time></trkpt><trkpt lat="42.69224265267169" lon="11.8167405027427"><ele>485.0</ele><time>2026-04-25T16:42:42.86Z</time></trkpt><trkpt lat="42.69216799170611" lon="11.816765008694505"><ele>485.0</ele><time>2026-04-25T16:42:43.86Z</time></trkpt><trkpt lat="42.69209375689506" lon="11.816766750457434"><ele>484.99999999999994</ele><time>2026-04-25T16:42:44.86Z</time></trkpt><trkpt lat="42.69196615325519" lon="11.816755396598902"><ele>485.0</ele><time>2026-04-25T16:42:46.86Z</time></trkpt><trkpt lat="42.69190324816028" lon="11.81675160749768"><ele>485.1428571428572</ele><time>2026-04-25T16:42:47.86Z</time></trkpt><trkpt lat="42.6918343797162" lon="11.816739367969195"><ele>485.28571428571433</ele><time>2026-04-25T16:42:48.86Z</time></trkpt><trkpt lat="42.69175941806785" lon="11.816715668276798"><ele>485.42857142857144</ele><time>2026-04-25T16:42:49.86Z</time></trkpt><trkpt lat="42.69168134610472" lon="11.816700229315623"><ele>485.5714285714286</ele><time>2026-04-25T16:42:50.86Z</time></trkpt><trkpt lat="42.69160622615194" lon="11.816689566655"><ele>485.7142857142858</ele><time>2026-04-25T16:42:51.86Z</time></trkpt><trkpt lat="42.691530159097276" lon="11.81668436587426"><ele>485.85714285714283</ele><time>2026-04-25T16:42:52.862Z</time></trkpt><trkpt lat="42.691463230352255" lon="11.816670078995948"><ele>486.0</ele><time>2026-04-25T16:42:53.862Z</time></trkpt><trkpt lat="42.691367958479816" lon="11.816663788647867"><ele>486.0</ele><time>2026-04-25T16:42:55.861Z</time></trkpt><trkpt lat="42.69129545366387" lon="11.8167012965364"><ele>486.0</ele><time>2026-04-25T16:42:57.862Z</time></trkpt><trkpt lat="42.691253474468965" lon="11.81663708310035"><ele>486.0</ele><time>2026-04-25T16:42:59.862Z</time></trkpt><trkpt lat="42.691198491488656" lon="11.81678438975977"><ele>486.0</ele><time>2026-04-25T16:43:00.862Z</time></trkpt><trkpt lat="42.69113530022876" lon="11.8167856578723"><ele>486.0</ele><time>2026-04-25T16:43:01.862Z</time></trkpt><trkpt lat="42.69106106425489" lon="11.816787309804171"><ele>486.0</ele><time>2026-04-25T16:43:02.862Z</time></trkpt><trkpt lat="42.69097392525962" lon="11.816786599119633"><ele>485.75</ele><time>2026-04-25T16:43:03.862Z</time></trkpt><trkpt lat="42.69087486473046" lon="11.816796617823485"><ele>485.5</ele><time>2026-04-25T16:43:04.862Z</time></trkpt><trkpt lat="42.69076019834147" lon="11.816815914451146"><ele>485.25</ele><time>2026-04-25T16:43:05.862Z</time></trkpt><trkpt lat="42.69063366810027" lon="11.81684827203194"><ele>485.0</ele><time>2026-04-25T16:43:06.862Z</time></trkpt><trkpt lat="42.690506566880465" lon="11.816890329583881"><ele>485.0</ele><time>2026-04-25T16:43:07.862Z</time></trkpt><trkpt lat="42.69037181096034" lon="11.816945868062904"><ele>485.0</ele><time>2026-04-25T16:43:08.862Z</time></trkpt><trkpt lat="42.69023524742042" lon="11.817001917984715"><ele>485.0</ele><time>2026-04-25T16:43:09.862Z</time></trkpt><trkpt lat="42.690098606884284" lon="11.817061065748861"><ele>485.0</ele><time>2026-04-25T16:43:10.862Z</time></trkpt><trkpt lat="42.689964829127526" lon="11.817115005802977"><ele>485.5</ele><time>2026-04-25T16:43:11.862Z</time></trkpt><trkpt lat="42.68983099544034" lon="11.817169004749145"><ele>486.0</ele><time>2026-04-25T16:43:12.862Z</time></trkpt><trkpt lat="42.68969552345114" lon="11.817213054625592"><ele>486.5</ele><time>2026-04-25T16:43:13.862Z</time></trkpt><trkpt lat="42.689560574305055" lon="11.817255859700609"><ele>487.0</ele><time>2026-04-25T16:43:14.862Z</time></trkpt><trkpt lat="42.68942373743425" lon="11.817286504255906"><ele>487.75</ele><time>2026-04-25T16:43:15.862Z</time></trkpt><trkpt lat="42.68928021419631" lon="11.817300546912163"><ele>488.5</ele><time>2026-04-25T16:43:16.862Z</time></trkpt><trkpt lat="42.68913565728918" lon="11.817288928605347"><ele>489.25</ele><time>2026-04-25T16:43:17.862Z</time></trkpt><trkpt lat="42.688992739629846" lon="11.81725310001976"><ele>490.0</ele><time>2026-04-25T16:43:18.862Z</time></trkpt><trkpt lat="42.688848670623905" lon="11.817205320660511"><ele>490.0</ele><time>2026-04-25T16:43:19.862Z</time></trkpt><trkpt lat="42.688697440108676" lon="11.81713949002522"><ele>490.0</ele><time>2026-04-25T16:43:20.862Z</time></trkpt><trkpt lat="42.68854113739192" lon="11.817067534538257"><ele>490.0</ele><time>2026-04-25T16:43:21.862Z</time></trkpt><trkpt lat="42.68838305691439" lon="11.816960781898471"><ele>491.0</ele><time>2026-04-25T16:43:22.862Z</time></trkpt><trkpt lat="42.68822423843837" lon="11.816874542130531"><ele>492.0</ele><time>2026-04-25T16:43:23.861Z</time></trkpt><trkpt lat="42.68806405715393" lon="11.816789635049645"><ele>493.0</ele><time>2026-04-25T16:43:24.861Z</time></trkpt><trkpt lat="42.687913313021426" lon="11.816711450603377"><ele>493.0</ele><time>2026-04-25T16:43:25.861Z</time></trkpt><trkpt lat="42.68776750158637" lon="11.816662031672355"><ele>493.0</ele><time>2026-04-25T16:43:26.861Z</time></trkpt><trkpt lat="42.68762306537432" lon="11.81660308815764"><ele>493.0</ele><time>2026-04-25T16:43:27.861Z</time></trkpt><trkpt lat="42.687472623462355" lon="11.81657240062088"><ele>493.0</ele><time>2026-04-25T16:43:28.861Z</time></trkpt><trkpt lat="42.68731952449305" lon="11.81656918545387"><ele>493.0</ele><time>2026-04-25T16:43:29.861Z</time></trkpt><trkpt lat="42.687163356393555" lon="11.816582612561506"><ele>493.0</ele><time>2026-04-25T16:43:30.861Z</time></trkpt><trkpt lat="42.68700386756947" lon="11.816601425847754"><ele>492.6666666666667</ele><time>2026-04-25T16:43:31.861Z</time></trkpt><trkpt lat="42.68684483553465" lon="11.816617305841696"><ele>492.33333333333337</ele><time>2026-04-25T16:43:32.861Z</time></trkpt><trkpt lat="42.68669323554608" lon="11.816641909427338"><ele>492.0</ele><time>2026-04-25T16:43:33.861Z</time></trkpt><trkpt lat="42.686540629307515" lon="11.816659517973617"><ele>492.0</ele><time>2026-04-25T16:43:34.861Z</time></trkpt><trkpt lat="42.686392104861156" lon="11.816682246563936"><ele>492.0</ele><time>2026-04-25T16:43:35.861Z</time></trkpt><trkpt lat="42.6862513381063" lon="11.816697770507599"><ele>492.0</ele><time>2026-04-25T16:43:36.861Z</time></trkpt><trkpt lat="42.686120504805785" lon="11.816685837468402"><ele>492.0</ele><time>2026-04-25T16:43:37.861Z</time></trkpt><trkpt lat="42.68599133187296" lon="11.816651941315202"><ele>493.0</ele><time>2026-04-25T16:43:38.861Z</time></trkpt><trkpt lat="42.68585982930499" lon="11.816587217841636"><ele>494.0</ele><time>2026-04-25T16:43:39.861Z</time></trkpt><trkpt lat="42.6857394300349" lon="11.816513989407818"><ele>495.0</ele><time>2026-04-25T16:43:40.861Z</time></trkpt><trkpt lat="42.685635520666985" lon="11.816436283244274"><ele>496.0</ele><time>2026-04-25T16:43:41.861Z</time></trkpt><trkpt lat="42.68553249201026" lon="11.816378548683957"><ele>496.00000000000006</ele><time>2026-04-25T16:43:42.861Z</time></trkpt><trkpt lat="42.68544842280741" lon="11.816326500983566"><ele>496.0</ele><time>2026-04-25T16:43:43.861Z</time></trkpt><trkpt lat="42.6853735562499" lon="11.81629509174874"><ele>496.0</ele><time>2026-04-25T16:43:44.861Z</time></trkpt><trkpt lat="42.68528634406236" lon="11.816254885604689"><ele>496.0</ele><time>2026-04-25T16:43:46.861Z</time></trkpt><trkpt lat="42.68519489979189" lon="11.816260714814662"><ele>496.00000000000006</ele><time>2026-04-25T16:43:49.86Z</time></trkpt><trkpt lat="42.68512625422677" lon="11.816288181239283"><ele>496.0</ele><time>2026-04-25T16:43:50.86Z</time></trkpt><trkpt lat="42.68502599951999" lon="11.816307131157997"><ele>495.5</ele><time>2026-04-25T16:43:51.86Z</time></trkpt><trkpt lat="42.6849074072199" lon="11.816330535623768"><ele>495.0</ele><time>2026-04-25T16:43:52.86Z</time></trkpt><trkpt lat="42.68475749718976" lon="11.816354068450325"><ele>494.5</ele><time>2026-04-25T16:43:53.86Z</time></trkpt><trkpt lat="42.68459829909211" lon="11.816371041382165"><ele>494.0</ele><time>2026-04-25T16:43:54.86Z</time></trkpt><trkpt lat="42.68442133326194" lon="11.816380344487653"><ele>496.3333333333333</ele><time>2026-04-25T16:43:55.86Z</time></trkpt><trkpt lat="42.684240926593915" lon="11.816408181625254"><ele>498.66666666666663</ele><time>2026-04-25T16:43:56.86Z</time></trkpt><trkpt lat="42.68405911122427" lon="11.816445981912475"><ele>501.0</ele><time>2026-04-25T16:43:57.86Z</time></trkpt><trkpt lat="42.68388462486925" lon="11.816476524001441"><ele>501.0</ele><time>2026-04-25T16:43:58.86Z</time></trkpt><trkpt lat="42.68371154847073" lon="11.81648938063341"><ele>501.0</ele><time>2026-04-25T16:43:59.86Z</time></trkpt><trkpt lat="42.68354944301034" lon="11.816513599504646"><ele>501.0</ele><time>2026-04-25T16:44:00.86Z</time></trkpt><trkpt lat="42.68339772651396" lon="11.816531968903488"><ele>501.5</ele><time>2026-04-25T16:44:01.86Z</time></trkpt><trkpt lat="42.68325648825784" lon="11.816539076671164"><ele>502.0</ele><time>2026-04-25T16:44:02.86Z</time></trkpt><trkpt lat="42.683104973361175" lon="11.816525957062767"><ele>502.5</ele><time>2026-04-25T16:44:03.86Z</time></trkpt><trkpt lat="42.682965491050695" lon="11.816509655477065"><ele>503.0</ele><time>2026-04-25T16:44:04.86Z</time></trkpt><trkpt lat="42.68283598843787" lon="11.816481865988717"><ele>503.75</ele><time>2026-04-25T16:44:05.86Z</time></trkpt><trkpt lat="42.6827039048387" lon="11.816457415087564"><ele>504.5</ele><time>2026-04-25T16:44:06.86Z</time></trkpt><trkpt lat="42.68256162042153" lon="11.81643244598407"><ele>505.25</ele><time>2026-04-25T16:44:07.86Z</time></trkpt><trkpt lat="42.682418081869955" lon="11.816410604129358"><ele>506.0</ele><time>2026-04-25T16:44:08.86Z</time></trkpt><trkpt lat="42.682267120434496" lon="11.816395085157536"><ele>506.0</ele><time>2026-04-25T16:44:09.86Z</time></trkpt><trkpt lat="42.68211239889668" lon="11.81639127732295"><ele>506.0</ele><time>2026-04-25T16:44:10.86Z</time></trkpt><trkpt lat="42.68195163750167" lon="11.81640115064065"><ele>506.0</ele><time>2026-04-25T16:44:11.86Z</time></trkpt><trkpt lat="42.68178637680796" lon="11.816426159156537"><ele>506.0</ele><time>2026-04-25T16:44:12.86Z</time></trkpt><trkpt lat="42.681615029154614" lon="11.816455187009565"><ele>506.0</ele><time>2026-04-25T16:44:13.86Z</time></trkpt><trkpt lat="42.68144550690255" lon="11.81646164248321"><ele>506.0</ele><time>2026-04-25T16:44:14.86Z</time></trkpt><trkpt lat="42.681260147020936" lon="11.816487325466964"><ele>506.66666666666663</ele><time>2026-04-25T16:44:15.859Z</time></trkpt><trkpt lat="42.68107006720909" lon="11.816514065841378"><ele>507.33333333333337</ele><time>2026-04-25T16:44:16.859Z</time></trkpt><trkpt lat="42.680871152774" lon="11.816542049061024"><ele>508.0</ele><time>2026-04-25T16:44:17.859Z</time></trkpt><trkpt lat="42.68067686815148" lon="11.816569380915322"><ele>508.0</ele><time>2026-04-25T16:44:18.859Z</time></trkpt><trkpt lat="42.6804802816133" lon="11.816597036651302"><ele>508.0</ele><time>2026-04-25T16:44:19.859Z</time></trkpt><trkpt lat="42.68028753147344" lon="11.816624152652787"><ele>508.0</ele><time>2026-04-25T16:44:20.859Z</time></trkpt><trkpt lat="42.680098524909184" lon="11.816650742011506"><ele>509.0</ele><time>2026-04-25T16:44:21.859Z</time></trkpt><trkpt lat="42.67990754910726" lon="11.816677140039417"><ele>510.0</ele><time>2026-04-25T16:44:22.859Z</time></trkpt><trkpt lat="42.67971759606906" lon="11.816703220321314"><ele>511.0</ele><time>2026-04-25T16:44:23.859Z</time></trkpt><trkpt lat="42.67952473694924" lon="11.816729699597014"><ele>511.0</ele><time>2026-04-25T16:44:24.859Z</time></trkpt><trkpt lat="42.67933782390512" lon="11.816755362485374"><ele>511.0</ele><time>2026-04-25T16:44:25.859Z</time></trkpt><trkpt lat="42.67914857745117" lon="11.81678134576456"><ele>511.0</ele><time>2026-04-25T16:44:26.859Z</time></trkpt><trkpt lat="42.67896296743796" lon="11.816826506760076"><ele>511.0</ele><time>2026-04-25T16:44:27.859Z</time></trkpt><trkpt lat="42.678779070926986" lon="11.816847722387442"><ele>511.0</ele><time>2026-04-25T16:44:28.859Z</time></trkpt><trkpt lat="42.678590948329195" lon="11.816867809360872"><ele>511.0</ele><time>2026-04-25T16:44:29.859Z</time></trkpt><trkpt lat="42.67841214159039" lon="11.816889020914875"><ele>511.6666666666667</ele><time>2026-04-25T16:44:30.859Z</time></trkpt><trkpt lat="42.67823943796523" lon="11.816912164698046"><ele>512.3333333333334</ele><time>2026-04-25T16:44:31.859Z</time></trkpt><trkpt lat="42.67806497434965" lon="11.816935456421138"><ele>513.0</ele><time>2026-04-25T16:44:32.859Z</time></trkpt><trkpt lat="42.6779011849572" lon="11.816957144433221"><ele>513.6666666666666</ele><time>2026-04-25T16:44:33.859Z</time></trkpt><trkpt lat="42.677731587402754" lon="11.816980440742686"><ele>514.3333333333333</ele><time>2026-04-25T16:44:34.859Z</time></trkpt><trkpt lat="42.6775566240681" lon="11.817004916516716"><ele>515.0</ele><time>2026-04-25T16:44:35.859Z</time></trkpt><trkpt lat="42.67738135052853" lon="11.817028147815105"><ele>515.0</ele><time>2026-04-25T16:44:36.859Z</time></trkpt><trkpt lat="42.67720692705008" lon="11.817057921229557"><ele>515.0</ele><time>2026-04-25T16:44:37.859Z</time></trkpt><trkpt lat="42.67703418764098" lon="11.817081870708304"><ele>515.0</ele><time>2026-04-25T16:44:38.859Z</time></trkpt><trkpt lat="42.67685991106998" lon="11.817107371206864"><ele>514.3333333333333</ele><time>2026-04-25T16:44:39.859Z</time></trkpt><trkpt lat="42.67668617495724" lon="11.817129196603961"><ele>513.6666666666666</ele><time>2026-04-25T16:44:40.859Z</time></trkpt><trkpt lat="42.676509836696894" lon="11.817156618724876"><ele>513.0</ele><time>2026-04-25T16:44:41.858Z</time></trkpt><trkpt lat="42.676335918177024" lon="11.817183918043078"><ele>513.0</ele><time>2026-04-25T16:44:42.858Z</time></trkpt><trkpt lat="42.676163990442966" lon="11.817216405856314"><ele>513.0</ele><time>2026-04-25T16:44:43.858Z</time></trkpt><trkpt lat="42.675992562040136" lon="11.817240166193818"><ele>513.0</ele><time>2026-04-25T16:44:44.858Z</time></trkpt><trkpt lat="42.67581709149017" lon="11.817258710177889"><ele>512.3333333333334</ele><time>2026-04-25T16:44:45.858Z</time></trkpt><trkpt lat="42.6756443795868" lon="11.817279705965442"><ele>511.6666666666667</ele><time>2026-04-25T16:44:46.858Z</time></trkpt><trkpt lat="42.67547687802462" lon="11.81730893853082"><ele>511.0</ele><time>2026-04-25T16:44:47.858Z</time></trkpt><trkpt lat="42.6753097193136" lon="11.817326033664727"><ele>511.5</ele><time>2026-04-25T16:44:48.858Z</time></trkpt><trkpt lat="42.675154005522394" lon="11.817312304008256"><ele>512.0</ele><time>2026-04-25T16:44:49.858Z</time></trkpt><trkpt lat="42.67501134478928" lon="11.81727409202095"><ele>512.5</ele><time>2026-04-25T16:44:50.858Z</time></trkpt><trkpt lat="42.6748700788067" lon="11.817218209573223"><ele>513.0</ele><time>2026-04-25T16:44:51.858Z</time></trkpt><trkpt lat="42.674728385932475" lon="11.817149857919482"><ele>513.0</ele><time>2026-04-25T16:44:52.858Z</time></trkpt><trkpt lat="42.674578656578355" lon="11.817077439570683"><ele>513.0</ele><time>2026-04-25T16:44:53.858Z</time></trkpt><trkpt lat="42.6744376499802" lon="11.817011115079193"><ele>513.0</ele><time>2026-04-25T16:44:54.858Z</time></trkpt><trkpt lat="42.67430211835001" lon="11.816944753016122"><ele>513.75</ele><time>2026-04-25T16:44:55.858Z</time></trkpt><trkpt lat="42.674175037408595" lon="11.816878380784624"><ele>514.5</ele><time>2026-04-25T16:44:56.858Z</time></trkpt><trkpt lat="42.674054076153055" lon="11.816812244313187"><ele>515.25</ele><time>2026-04-25T16:44:57.858Z</time></trkpt><trkpt lat="42.673926232682206" lon="11.816749578296807"><ele>516.0</ele><time>2026-04-25T16:44:58.86Z</time></trkpt><trkpt lat="42.67379153378184" lon="11.816692226644083"><ele>516.0</ele><time>2026-04-25T16:44:59.86Z</time></trkpt><trkpt lat="42.67365975251445" lon="11.816612501819138"><ele>516.0</ele><time>2026-04-25T16:45:00.86Z</time></trkpt><trkpt lat="42.67351140314079" lon="11.816571508734388"><ele>516.0</ele><time>2026-04-25T16:45:01.86Z</time></trkpt><trkpt lat="42.673359619402575" lon="11.816533114609724"><ele>515.6666666666666</ele><time>2026-04-25T16:45:02.86Z</time></trkpt><trkpt lat="42.67320417016468" lon="11.81650728255246"><ele>515.3333333333333</ele><time>2026-04-25T16:45:03.86Z</time></trkpt><trkpt lat="42.67303775614561" lon="11.816502479321503"><ele>515.0</ele><time>2026-04-25T16:45:04.86Z</time></trkpt><trkpt lat="42.67286104775935" lon="11.816522034960691"><ele>515.0</ele><time>2026-04-25T16:45:05.86Z</time></trkpt><trkpt lat="42.67267971756718" lon="11.816551720384497"><ele>515.0</ele><time>2026-04-25T16:45:06.86Z</time></trkpt><trkpt lat="42.67249470086963" lon="11.816580133205909"><ele>515.0</ele><time>2026-04-25T16:45:07.859Z</time></trkpt><trkpt lat="42.67230710504611" lon="11.816608934650253"><ele>515.0</ele><time>2026-04-25T16:45:08.859Z</time></trkpt><trkpt lat="42.67211417652128" lon="11.816634987163383"><ele>515.0</ele><time>2026-04-25T16:45:09.859Z</time></trkpt><trkpt lat="42.671922143970214" lon="11.816662322261573"><ele>515.0</ele><time>2026-04-25T16:45:10.86Z</time></trkpt><trkpt lat="42.67173362007504" lon="11.816685629851877"><ele>515.6666666666666</ele><time>2026-04-25T16:45:11.86Z</time></trkpt><trkpt lat="42.67154337378215" lon="11.816711224828897"><ele>516.3333333333334</ele><time>2026-04-25T16:45:12.86Z</time></trkpt><trkpt lat="42.67135248635462" lon="11.816747044053864"><ele>517.0</ele><time>2026-04-25T16:45:13.86Z</time></trkpt><trkpt lat="42.67116497207426" lon="11.81677885647102"><ele>517.3333333333334</ele><time>2026-04-25T16:45:14.86Z</time></trkpt><trkpt lat="42.67097840875" lon="11.81680934556501"><ele>517.6666666666666</ele><time>2026-04-25T16:45:15.859Z</time></trkpt><trkpt lat="42.67079291139576" lon="11.816836542706099"><ele>518.0</ele><time>2026-04-25T16:45:16.859Z</time></trkpt><trkpt lat="42.670609448318054" lon="11.81686494141547"><ele>518.0</ele><time>2026-04-25T16:45:17.859Z</time></trkpt><trkpt lat="42.67042492428663" lon="11.81689381611215"><ele>518.0</ele><time>2026-04-25T16:45:18.859Z</time></trkpt><trkpt lat="42.67025103939992" lon="11.816924881311708"><ele>518.0</ele><time>2026-04-25T16:45:19.859Z</time></trkpt><trkpt lat="42.670082174663804" lon="11.816953373549117"><ele>518.0</ele><time>2026-04-25T16:45:20.859Z</time></trkpt><trkpt lat="42.66991332776742" lon="11.816983832539659"><ele>518.0</ele><time>2026-04-25T16:45:21.859Z</time></trkpt><trkpt lat="42.66975994491276" lon="11.817006042709213"><ele>518.0</ele><time>2026-04-25T16:45:22.859Z</time></trkpt><trkpt lat="42.669602903366965" lon="11.81703010772496"><ele>518.0</ele><time>2026-04-25T16:45:23.859Z</time></trkpt><trkpt lat="42.669451852558566" lon="11.817054691207273"><ele>518.0</ele><time>2026-04-25T16:45:24.859Z</time></trkpt><trkpt lat="42.669298205454965" lon="11.817078233548113"><ele>518.0</ele><time>2026-04-25T16:45:25.859Z</time></trkpt><trkpt lat="42.669140129503376" lon="11.8170997709114"><ele>517.3333333333333</ele><time>2026-04-25T16:45:26.859Z</time></trkpt><trkpt lat="42.66898111567571" lon="11.817113486456458"><ele>516.6666666666666</ele><time>2026-04-25T16:45:27.859Z</time></trkpt><trkpt lat="42.66882360132402" lon="11.817114356126325"><ele>516.0</ele><time>2026-04-25T16:45:28.859Z</time></trkpt><trkpt lat="42.66866014297615" lon="11.817097949694965"><ele>516.0</ele><time>2026-04-25T16:45:29.859Z</time></trkpt><trkpt lat="42.66849335321631" lon="11.817076358151606"><ele>516.0</ele><time>2026-04-25T16:45:30.859Z</time></trkpt><trkpt lat="42.668320492325556" lon="11.817043599537968"><ele>516.0</ele><time>2026-04-25T16:45:31.859Z</time></trkpt><trkpt lat="42.66815942761556" lon="11.817004103203624"><ele>516.0</ele><time>2026-04-25T16:45:32.859Z</time></trkpt><trkpt lat="42.668003154858454" lon="11.816966501651224"><ele>516.0</ele><time>2026-04-25T16:45:33.859Z</time></trkpt><trkpt lat="42.66784273462456" lon="11.816932282199897"><ele>516.0</ele><time>2026-04-25T16:45:34.859Z</time></trkpt><trkpt lat="42.667680223747155" lon="11.816914654943966"><ele>516.3333333333334</ele><time>2026-04-25T16:45:35.859Z</time></trkpt><trkpt lat="42.66750832964295" lon="11.816920800894325"><ele>516.6666666666667</ele><time>2026-04-25T16:45:36.859Z</time></trkpt><trkpt lat="42.66733412276507" lon="11.816963312017803"><ele>517.0</ele><time>2026-04-25T16:45:37.859Z</time></trkpt><trkpt lat="42.667167509524674" lon="11.817058795688009"><ele>517.0</ele><time>2026-04-25T16:45:38.859Z</time></trkpt><trkpt lat="42.666994970107325" lon="11.81717043126159"><ele>517.0</ele><time>2026-04-25T16:45:39.859Z</time></trkpt><trkpt lat="42.66681699746249" lon="11.817280707533486"><ele>517.0</ele><time>2026-04-25T16:45:40.859Z</time></trkpt><trkpt lat="42.666640155947846" lon="11.817390014416265"><ele>518.3333333333334</ele><time>2026-04-25T16:45:41.858Z</time></trkpt><trkpt lat="42.66646346294965" lon="11.817498877110982"><ele>519.6666666666666</ele><time>2026-04-25T16:45:42.858Z</time></trkpt><trkpt lat="42.6662890960619" lon="11.817607693193793"><ele>521.0</ele><time>2026-04-25T16:45:43.858Z</time></trkpt><trkpt lat="42.666116018567116" lon="11.817717386410298"><ele>522.6666666666666</ele><time>2026-04-25T16:45:44.858Z</time></trkpt><trkpt lat="42.665947222024684" lon="11.8178272681111"><ele>524.3333333333334</ele><time>2026-04-25T16:45:45.858Z</time></trkpt><trkpt lat="42.665782284065436" lon="11.817932161905473"><ele>526.0</ele><time>2026-04-25T16:45:46.858Z</time></trkpt><trkpt lat="42.66561429237849" lon="11.81801427318286"><ele>526.0</ele><time>2026-04-25T16:45:47.858Z</time></trkpt><trkpt lat="42.66545257224462" lon="11.81810956218227"><ele>526.0</ele><time>2026-04-25T16:45:48.858Z</time></trkpt><trkpt lat="42.66529623188524" lon="11.81820392860161"><ele>526.0</ele><time>2026-04-25T16:45:49.858Z</time></trkpt><trkpt lat="42.6651482699578" lon="11.818310859150664"><ele>526.3333333333334</ele><time>2026-04-25T16:45:50.858Z</time></trkpt><trkpt lat="42.6649918392868" lon="11.818403418799244"><ele>526.6666666666666</ele><time>2026-04-25T16:45:51.858Z</time></trkpt><trkpt lat="42.66483617049566" lon="11.818493716784845"><ele>527.0</ele><time>2026-04-25T16:45:52.858Z</time></trkpt><trkpt lat="42.66469398787436" lon="11.818586225814203"><ele>526.3333333333333</ele><time>2026-04-25T16:45:53.858Z</time></trkpt><trkpt lat="42.66454284657307" lon="11.81865227436102"><ele>525.6666666666666</ele><time>2026-04-25T16:45:54.858Z</time></trkpt><trkpt lat="42.66440094237411" lon="11.81875674819486"><ele>525.0</ele><time>2026-04-25T16:45:55.858Z</time></trkpt><trkpt lat="42.66424610393278" lon="11.818830303513396"><ele>523.6666666666666</ele><time>2026-04-25T16:45:56.858Z</time></trkpt><trkpt lat="42.664086142466644" lon="11.8188900377835"><ele>522.3333333333333</ele><time>2026-04-25T16:45:57.858Z</time></trkpt><trkpt lat="42.663921373210016" lon="11.81893971946547"><ele>521.0</ele><time>2026-04-25T16:45:58.858Z</time></trkpt><trkpt lat="42.66375017568243" lon="11.818976223875893"><ele>520.3333333333333</ele><time>2026-04-25T16:45:59.858Z</time></trkpt><trkpt lat="42.663570960414326" lon="11.819002539110555"><ele>519.6666666666666</ele><time>2026-04-25T16:46:00.858Z</time></trkpt><trkpt lat="42.66339088277527" lon="11.819026495078273"><ele>519.0</ele><time>2026-04-25T16:46:01.858Z</time></trkpt><trkpt lat="42.66321494683216" lon="11.819054911538275"><ele>519.0</ele><time>2026-04-25T16:46:02.858Z</time></trkpt><trkpt lat="42.66304802986314" lon="11.819075882169841"><ele>519.0</ele><time>2026-04-25T16:46:03.858Z</time></trkpt><trkpt lat="42.662891433507575" lon="11.819099462241383"><ele>519.0</ele><time>2026-04-25T16:46:04.858Z</time></trkpt><trkpt lat="42.66273577526866" lon="11.819128039497684"><ele>520.6666666666666</ele><time>2026-04-25T16:46:05.858Z</time></trkpt><trkpt lat="42.66258711084953" lon="11.819179129617254"><ele>522.3333333333333</ele><time>2026-04-25T16:46:06.858Z</time></trkpt><trkpt lat="42.66243908708536" lon="11.819269670503632"><ele>524.0</ele><time>2026-04-25T16:46:07.857Z</time></trkpt><trkpt lat="42.6622945606349" lon="11.819388580123002"><ele>524.6666666666666</ele><time>2026-04-25T16:46:08.857Z</time></trkpt><trkpt lat="42.66214498685343" lon="11.819523379819223"><ele>525.3333333333334</ele><time>2026-04-25T16:46:09.857Z</time></trkpt><trkpt lat="42.66200070082313" lon="11.819661128680268"><ele>526.0</ele><time>2026-04-25T16:46:10.857Z</time></trkpt><trkpt lat="42.661843553968886" lon="11.819783198738909"><ele>527.0</ele><time>2026-04-25T16:46:11.857Z</time></trkpt><trkpt lat="42.661706144220375" lon="11.819923093977064"><ele>528.0</ele><time>2026-04-25T16:46:12.857Z</time></trkpt><trkpt lat="42.66157924847452" lon="11.820053711124581"><ele>529.0</ele><time>2026-04-25T16:46:13.857Z</time></trkpt><trkpt lat="42.66145607525857" lon="11.820178670107591"><ele>529.5</ele><time>2026-04-25T16:46:14.857Z</time></trkpt><trkpt lat="42.661343675856706" lon="11.820312219348411"><ele>530.0</ele><time>2026-04-25T16:46:15.857Z</time></trkpt><trkpt lat="42.66120930210973" lon="11.820401931464087"><ele>530.5</ele><time>2026-04-25T16:46:16.857Z</time></trkpt><trkpt lat="42.661065859605" lon="11.820462042989275"><ele>531.0</ele><time>2026-04-25T16:46:17.857Z</time></trkpt><trkpt lat="42.66091079284087" lon="11.820472466116343"><ele>531.3333333333334</ele><time>2026-04-25T16:46:18.857Z</time></trkpt><trkpt lat="42.66074845732193" lon="11.820446401244975"><ele>531.6666666666667</ele><time>2026-04-25T16:46:19.857Z</time></trkpt><trkpt lat="42.66058745375175" lon="11.82039360458116"><ele>532.0</ele><time>2026-04-25T16:46:20.857Z</time></trkpt><trkpt lat="42.66043299596931" lon="11.820377237629831"><ele>532.0</ele><time>2026-04-25T16:46:21.857Z</time></trkpt><trkpt lat="42.66028586898136" lon="11.820400037746298"><ele>532.0</ele><time>2026-04-25T16:46:22.857Z</time></trkpt><trkpt lat="42.660143931935586" lon="11.820462869665247"><ele>532.0</ele><time>2026-04-25T16:46:23.857Z</time></trkpt><trkpt lat="42.660020081799594" lon="11.820577373248689"><ele>532.0</ele><time>2026-04-25T16:46:24.857Z</time></trkpt><trkpt lat="42.659886177162946" lon="11.820688819301877"><ele>531.6666666666667</ele><time>2026-04-25T16:46:25.857Z</time></trkpt><trkpt lat="42.65974230566485" lon="11.820789666841472"><ele>531.3333333333334</ele><time>2026-04-25T16:46:26.857Z</time></trkpt><trkpt lat="42.659589913317824" lon="11.820872854186026"><ele>531.0</ele><time>2026-04-25T16:46:27.857Z</time></trkpt><trkpt lat="42.65943145555815" lon="11.820928535392616"><ele>531.0</ele><time>2026-04-25T16:46:28.857Z</time></trkpt><trkpt lat="42.65925204968588" lon="11.820971755184438"><ele>531.0</ele><time>2026-04-25T16:46:29.857Z</time></trkpt><trkpt lat="42.659066472409656" lon="11.820991547916195"><ele>531.0</ele><time>2026-04-25T16:46:30.857Z</time></trkpt><trkpt lat="42.65889010225409" lon="11.821035479495082"><ele>530.6666666666666</ele><time>2026-04-25T16:46:31.857Z</time></trkpt><trkpt lat="42.65872359205078" lon="11.821089071138069"><ele>530.3333333333333</ele><time>2026-04-25T16:46:32.857Z</time></trkpt><trkpt lat="42.65856600213601" lon="11.82116657350463"><ele>530.0</ele><time>2026-04-25T16:46:33.856Z</time></trkpt><trkpt lat="42.65839895359201" lon="11.821221597197258"><ele>532.3333333333333</ele><time>2026-04-25T16:46:34.856Z</time></trkpt><trkpt lat="42.65822863173478" lon="11.821287001272198"><ele>534.6666666666666</ele><time>2026-04-25T16:46:35.856Z</time></trkpt><trkpt lat="42.65806017167053" lon="11.821343565871521"><ele>537.0</ele><time>2026-04-25T16:46:36.856Z</time></trkpt><trkpt lat="42.65788243507643" lon="11.821416929086993"><ele>536.3333333333334</ele><time>2026-04-25T16:46:37.856Z</time></trkpt><trkpt lat="42.65770551154197" lon="11.82148668582982"><ele>535.6666666666667</ele><time>2026-04-25T16:46:38.856Z</time></trkpt><trkpt lat="42.6575302769415" lon="11.8215520482745"><ele>535.0</ele><time>2026-04-25T16:46:39.856Z</time></trkpt><trkpt lat="42.657361311819" lon="11.821614745498257"><ele>535.0</ele><time>2026-04-25T16:46:40.856Z</time></trkpt><trkpt lat="42.65718938219486" lon="11.82167741479399"><ele>535.0</ele><time>2026-04-25T16:46:41.856Z</time></trkpt><trkpt lat="42.65701763843319" lon="11.821746962213766"><ele>535.0</ele><time>2026-04-25T16:46:42.856Z</time></trkpt><trkpt lat="42.656847543096916" lon="11.821833322372362"><ele>536.6666666666667</ele><time>2026-04-25T16:46:43.856Z</time></trkpt><trkpt lat="42.656684430189976" lon="11.821938236185964"><ele>538.3333333333334</ele><time>2026-04-25T16:46:44.856Z</time></trkpt><trkpt lat="42.65652177520453" lon="11.822041527475449"><ele>540.0</ele><time>2026-04-25T16:46:45.856Z</time></trkpt><trkpt lat="42.65636618272469" lon="11.822140273883972"><ele>540.0</ele><time>2026-04-25T16:46:46.856Z</time></trkpt><trkpt lat="42.65621164670295" lon="11.822216628828015"><ele>540.0</ele><time>2026-04-25T16:46:47.856Z</time></trkpt><trkpt lat="42.656070940156695" lon="11.822250875225814"><ele>540.0</ele><time>2026-04-25T16:46:48.856Z</time></trkpt><trkpt lat="42.655943631863074" lon="11.822234430354262"><ele>540.0</ele><time>2026-04-25T16:46:49.856Z</time></trkpt><trkpt lat="42.65583128470142" lon="11.82217559855783"><ele>539.5</ele><time>2026-04-25T16:46:50.856Z</time></trkpt><trkpt lat="42.65572972269459" lon="11.822072305083646"><ele>539.0</ele><time>2026-04-25T16:46:51.856Z</time></trkpt><trkpt lat="42.65562855175433" lon="11.821950326248011"><ele>538.5</ele><time>2026-04-25T16:46:52.856Z</time></trkpt><trkpt lat="42.65551921282517" lon="11.821840241918581"><ele>538.0</ele><time>2026-04-25T16:46:53.856Z</time></trkpt><trkpt lat="42.655395872022154" lon="11.821754193884502"><ele>539.0</ele><time>2026-04-25T16:46:54.856Z</time></trkpt><trkpt lat="42.65526444432808" lon="11.821686453744928"><ele>540.0</ele><time>2026-04-25T16:46:55.856Z</time></trkpt><trkpt lat="42.65512525612363" lon="11.821621364946735"><ele>541.0</ele><time>2026-04-25T16:46:56.856Z</time></trkpt><trkpt lat="42.6549808104517" lon="11.821558637018127"><ele>542.0</ele><time>2026-04-25T16:46:57.856Z</time></trkpt><trkpt lat="42.65483092688587" lon="11.821501700366913"><ele>542.0</ele><time>2026-04-25T16:46:58.856Z</time></trkpt><trkpt lat="42.6546759739507" lon="11.821450872662824"><ele>542.0</ele><time>2026-04-25T16:46:59.855Z</time></trkpt><trkpt lat="42.65451089613167" lon="11.821436136632208"><ele>542.0</ele><time>2026-04-25T16:47:00.855Z</time></trkpt><trkpt lat="42.654335091878394" lon="11.821444232782241"><ele>543.6666666666666</ele><time>2026-04-25T16:47:01.855Z</time></trkpt><trkpt lat="42.65415134195197" lon="11.821468895098194"><ele>545.3333333333334</ele><time>2026-04-25T16:47:02.855Z</time></trkpt><trkpt lat="42.65395985411838" lon="11.821509882818019"><ele>547.0</ele><time>2026-04-25T16:47:03.855Z</time></trkpt><trkpt lat="42.65377799750211" lon="11.821545465186206"><ele>548.3333333333334</ele><time>2026-04-25T16:47:04.857Z</time></trkpt><trkpt lat="42.65360244894426" lon="11.821565040810569"><ele>549.6666666666666</ele><time>2026-04-25T16:47:05.857Z</time></trkpt><trkpt lat="42.65343375576847" lon="11.821552457550638"><ele>551.0</ele><time>2026-04-25T16:47:06.857Z</time></trkpt><trkpt lat="42.65327851350943" lon="11.8215303805808"><ele>551.0</ele><time>2026-04-25T16:47:07.857Z</time></trkpt><trkpt lat="42.65312981476764" lon="11.821533103524759"><ele>551.0</ele><time>2026-04-25T16:47:08.858Z</time></trkpt><trkpt lat="42.65298021342377" lon="11.82157510335341"><ele>551.0</ele><time>2026-04-25T16:47:09.858Z</time></trkpt><trkpt lat="42.652831423169125" lon="11.82165842585815"><ele>549.3333333333333</ele><time>2026-04-25T16:47:10.857Z</time></trkpt><trkpt lat="42.652686894655254" lon="11.821769277744009"><ele>547.6666666666666</ele><time>2026-04-25T16:47:11.857Z</time></trkpt><trkpt lat="42.652539157731916" lon="11.821908876727042"><ele>546.0</ele><time>2026-04-25T16:47:12.857Z</time></trkpt><trkpt lat="42.65238778365153" lon="11.82206170366452"><ele>547.6666666666666</ele><time>2026-04-25T16:47:13.857Z</time></trkpt><trkpt lat="42.6522322049388" lon="11.822203653323843"><ele>549.3333333333333</ele><time>2026-04-25T16:47:14.857Z</time></trkpt><trkpt lat="42.652078484891526" lon="11.822319447654879"><ele>551.0</ele><time>2026-04-25T16:47:15.857Z</time></trkpt><trkpt lat="42.65191714748899" lon="11.822398406900057"><ele>551.0</ele><time>2026-04-25T16:47:16.857Z</time></trkpt><trkpt lat="42.65175035441932" lon="11.822451422391042"><ele>551.0</ele><time>2026-04-25T16:47:17.857Z</time></trkpt><trkpt lat="42.651581304382724" lon="11.822507224497112"><ele>551.0</ele><time>2026-04-25T16:47:18.857Z</time></trkpt><trkpt lat="42.65142721667704" lon="11.822561654703728"><ele>551.0</ele><time>2026-04-25T16:47:19.857Z</time></trkpt><trkpt lat="42.65127992679908" lon="11.82262608853066"><ele>551.0</ele><time>2026-04-25T16:47:20.857Z</time></trkpt><trkpt lat="42.651135502969495" lon="11.822718636816637"><ele>551.0</ele><time>2026-04-25T16:47:21.857Z</time></trkpt><trkpt lat="42.65100187644487" lon="11.822831669157669"><ele>553.3333333333333</ele><time>2026-04-25T16:47:22.857Z</time></trkpt><trkpt lat="42.650860271835654" lon="11.82296733114613"><ele>555.6666666666666</ele><time>2026-04-25T16:47:23.857Z</time></trkpt><trkpt lat="42.6507170505513" lon="11.823084509882621"><ele>558.0</ele><time>2026-04-25T16:47:24.857Z</time></trkpt><trkpt lat="42.65056221094384" lon="11.823175433179516"><ele>558.0</ele><time>2026-04-25T16:47:25.857Z</time></trkpt><trkpt lat="42.65039034039703" lon="11.823236679364369"><ele>558.0</ele><time>2026-04-25T16:47:26.857Z</time></trkpt><trkpt lat="42.6502159692312" lon="11.823291568688441"><ele>558.0</ele><time>2026-04-25T16:47:27.857Z</time></trkpt><trkpt lat="42.65004274716368" lon="11.823379064727455"><ele>557.0</ele><time>2026-04-25T16:47:28.857Z</time></trkpt><trkpt lat="42.64989443699923" lon="11.823473493966855"><ele>556.0</ele><time>2026-04-25T16:47:29.857Z</time></trkpt><trkpt lat="42.64976399512965" lon="11.823581227272102"><ele>555.0</ele><time>2026-04-25T16:47:30.857Z</time></trkpt><trkpt lat="42.64961957736454" lon="11.823660141331748"><ele>558.0</ele><time>2026-04-25T16:47:31.857Z</time></trkpt><trkpt lat="42.64947988933159" lon="11.823711039627787"><ele>561.0</ele><time>2026-04-25T16:47:32.857Z</time></trkpt><trkpt lat="42.64933257093382" lon="11.82373647273848"><ele>564.0</ele><time>2026-04-25T16:47:33.857Z</time></trkpt><trkpt lat="42.64918558432626" lon="11.823751439950804"><ele>567.0</ele><time>2026-04-25T16:47:34.857Z</time></trkpt><trkpt lat="42.6490319566421" lon="11.823751012677755"><ele>567.0</ele><time>2026-04-25T16:47:35.857Z</time></trkpt><trkpt lat="42.648867745165234" lon="11.823735559608156"><ele>567.0</ele><time>2026-04-25T16:47:36.857Z</time></trkpt><trkpt lat="42.648695844232854" lon="11.823740639508266"><ele>567.0</ele><time>2026-04-25T16:47:37.857Z</time></trkpt><trkpt lat="42.648536052311336" lon="11.823750080136271"><ele>566.0</ele><time>2026-04-25T16:47:38.857Z</time></trkpt><trkpt lat="42.648395841595594" lon="11.823785845977945"><ele>565.0</ele><time>2026-04-25T16:47:39.857Z</time></trkpt><trkpt lat="42.648249495726965" lon="11.82384973507526"><ele>564.0</ele><time>2026-04-25T16:47:40.857Z</time></trkpt><trkpt lat="42.64809383854702" lon="11.823926388588479"><ele>564.0</ele><time>2026-04-25T16:47:41.856Z</time></trkpt><trkpt lat="42.64794792705129" lon="11.824071286063303"><ele>564.0</ele><time>2026-04-25T16:47:42.856Z</time></trkpt><trkpt lat="42.64779855145907" lon="11.824262321385762"><ele>564.0</ele><time>2026-04-25T16:47:43.856Z</time></trkpt><trkpt lat="42.64766423471356" lon="11.824476149997272"><ele>560.0</ele><time>2026-04-25T16:47:44.856Z</time></trkpt><trkpt lat="42.64752021965789" lon="11.824675878860955"><ele>556.0</ele><time>2026-04-25T16:47:45.856Z</time></trkpt><trkpt lat="42.647402129326196" lon="11.824882106847749"><ele>552.0</ele><time>2026-04-25T16:47:46.856Z</time></trkpt><trkpt lat="42.64727093048917" lon="11.825055867214635"><ele>552.0</ele><time>2026-04-25T16:47:47.856Z</time></trkpt><trkpt lat="42.647138607844866" lon="11.825202306856966"><ele>552.0</ele><time>2026-04-25T16:47:48.856Z</time></trkpt><trkpt lat="42.64700042325055" lon="11.825323051028379"><ele>552.0</ele><time>2026-04-25T16:47:49.856Z</time></trkpt><trkpt lat="42.64685965714193" lon="11.825412124744235"><ele>553.0</ele><time>2026-04-25T16:47:50.856Z</time></trkpt><trkpt lat="42.646707389460076" lon="11.825462248145284"><ele>554.0</ele><time>2026-04-25T16:47:51.856Z</time></trkpt><trkpt lat="42.64654733506333" lon="11.825476179996164"><ele>555.0</ele><time>2026-04-25T16:47:52.856Z</time></trkpt><trkpt lat="42.64638287738936" lon="11.825476129648594"><ele>555.0</ele><time>2026-04-25T16:47:53.856Z</time></trkpt><trkpt lat="42.64621462852045" lon="11.825486603698748"><ele>555.0</ele><time>2026-04-25T16:47:54.856Z</time></trkpt><trkpt lat="42.64604127802213" lon="11.825497874150463"><ele>555.0</ele><time>2026-04-25T16:47:55.856Z</time></trkpt><trkpt lat="42.64586189850737" lon="11.825511407634107"><ele>556.6666666666666</ele><time>2026-04-25T16:47:56.856Z</time></trkpt><trkpt lat="42.64568529305902" lon="11.825532207466686"><ele>558.3333333333333</ele><time>2026-04-25T16:47:57.856Z</time></trkpt><trkpt lat="42.64550521009499" lon="11.825556240636873"><ele>560.0</ele><time>2026-04-25T16:47:58.856Z</time></trkpt><trkpt lat="42.64532247360801" lon="11.825569494709692"><ele>561.0</ele><time>2026-04-25T16:47:59.856Z</time></trkpt><trkpt lat="42.645142209110396" lon="11.82558576922661"><ele>562.0</ele><time>2026-04-25T16:48:00.856Z</time></trkpt><trkpt lat="42.64497158556553" lon="11.825602806697336"><ele>563.0</ele><time>2026-04-25T16:48:01.856Z</time></trkpt><trkpt lat="42.64479987608497" lon="11.82560970265607"><ele>563.0</ele><time>2026-04-25T16:48:02.856Z</time></trkpt><trkpt lat="42.644627096398814" lon="11.82560499763948"><ele>563.0</ele><time>2026-04-25T16:48:03.856Z</time></trkpt><trkpt lat="42.64445640088554" lon="11.82558421261493"><ele>563.0</ele><time>2026-04-25T16:48:04.856Z</time></trkpt><trkpt lat="42.64428636545615" lon="11.825553303568023"><ele>564.25</ele><time>2026-04-25T16:48:05.856Z</time></trkpt><trkpt lat="42.64412465304696" lon="11.825522993631782"><ele>565.5</ele><time>2026-04-25T16:48:06.855Z</time></trkpt><trkpt lat="42.643975291424" lon="11.825505816503844"><ele>566.75</ele><time>2026-04-25T16:48:07.855Z</time></trkpt><trkpt lat="42.64384121242746" lon="11.825523418706263"><ele>568.0</ele><time>2026-04-25T16:48:08.855Z</time></trkpt><trkpt lat="42.64372820054652" lon="11.825560446956848"><ele>568.0</ele><time>2026-04-25T16:48:09.855Z</time></trkpt><trkpt lat="42.64363759136407" lon="11.825651670436745"><ele>568.0</ele><time>2026-04-25T16:48:10.855Z</time></trkpt><trkpt lat="42.643591094685476" lon="11.825784105453462"><ele>568.0</ele><time>2026-04-25T16:48:11.855Z</time></trkpt><trkpt lat="42.64360666534334" lon="11.825925293904657"><ele>568.0</ele><time>2026-04-25T16:48:12.855Z</time></trkpt><trkpt lat="42.64367114228469" lon="11.826029404485118"><ele>568.0</ele><time>2026-04-25T16:48:13.855Z</time></trkpt><trkpt lat="42.643750103262725" lon="11.82610889452694"><ele>572.0</ele><time>2026-04-25T16:48:14.855Z</time></trkpt><trkpt lat="42.643853531534354" lon="11.826162540623637"><ele>576.0</ele><time>2026-04-25T16:48:15.855Z</time></trkpt><trkpt lat="42.64397462953287" lon="11.82618334739206"><ele>580.0</ele><time>2026-04-25T16:48:16.855Z</time></trkpt><trkpt lat="42.64409742017112" lon="11.826190276034882"><ele>584.0</ele><time>2026-04-25T16:48:17.855Z</time></trkpt><trkpt lat="42.64421098975412" lon="11.826225704801809"><ele>584.0</ele><time>2026-04-25T16:48:18.855Z</time></trkpt><trkpt lat="42.64431950836783" lon="11.826293239917671"><ele>584.0</ele><time>2026-04-25T16:48:19.855Z</time></trkpt><trkpt lat="42.64442458893571" lon="11.826369197978558"><ele>584.0</ele><time>2026-04-25T16:48:20.855Z</time></trkpt><trkpt lat="42.6445135045243" lon="11.826478696398022"><ele>584.0</ele><time>2026-04-25T16:48:21.855Z</time></trkpt><trkpt lat="42.64460064270242" lon="11.826612357102679"><ele>582.0</ele><time>2026-04-25T16:48:22.855Z</time></trkpt><trkpt lat="42.64468531646151" lon="11.826759889707901"><ele>580.0</ele><time>2026-04-25T16:48:23.855Z</time></trkpt><trkpt lat="42.644770882113114" lon="11.826913960374995"><ele>578.0</ele><time>2026-04-25T16:48:24.855Z</time></trkpt><trkpt lat="42.64484858369354" lon="11.827072785139784"><ele>576.0</ele><time>2026-04-25T16:48:25.855Z</time></trkpt><trkpt lat="42.64492418936092" lon="11.827231771444506"><ele>576.0</ele><time>2026-04-25T16:48:26.855Z</time></trkpt><trkpt lat="42.64497445379379" lon="11.827399951707026"><ele>576.0</ele><time>2026-04-25T16:48:27.855Z</time></trkpt><trkpt lat="42.644989743934936" lon="11.827560834543414"><ele>576.0</ele><time>2026-04-25T16:48:28.855Z</time></trkpt><trkpt lat="42.644981468308686" lon="11.827708303562867"><ele>576.0</ele><time>2026-04-25T16:48:29.855Z</time></trkpt><trkpt lat="42.64494977502027" lon="11.82783868539412"><ele>576.2</ele><time>2026-04-25T16:48:30.855Z</time></trkpt><trkpt lat="42.64489883033786" lon="11.827943769728689"><ele>576.4000000000001</ele><time>2026-04-25T16:48:31.855Z</time></trkpt><trkpt lat="42.64482811235184" lon="11.82802228022348"><ele>576.6</ele><time>2026-04-25T16:48:32.854Z</time></trkpt><trkpt lat="42.6447405550312" lon="11.828072754694388"><ele>576.8000000000001</ele><time>2026-04-25T16:48:33.854Z</time></trkpt><trkpt lat="42.644637862909875" lon="11.828085369086581"><ele>577.0</ele><time>2026-04-25T16:48:34.854Z</time></trkpt><trkpt lat="42.64453257973155" lon="11.828051929545843"><ele>578.0</ele><time>2026-04-25T16:48:35.854Z</time></trkpt><trkpt lat="42.644430222667296" lon="11.82799510987449"><ele>579.0</ele><time>2026-04-25T16:48:36.854Z</time></trkpt><trkpt lat="42.64431107555162" lon="11.827907034578645"><ele>580.0</ele><time>2026-04-25T16:48:37.854Z</time></trkpt><trkpt lat="42.6441774813718" lon="11.82780549528189"><ele>581.0</ele><time>2026-04-25T16:48:38.854Z</time></trkpt><trkpt lat="42.64402211540078" lon="11.827693502162434"><ele>581.3333333333333</ele><time>2026-04-25T16:48:39.854Z</time></trkpt><trkpt lat="42.64385943201977" lon="11.827576011029135"><ele>581.6666666666666</ele><time>2026-04-25T16:48:40.854Z</time></trkpt><trkpt lat="42.643692595316935" lon="11.827458592510288"><ele>582.0</ele><time>2026-04-25T16:48:41.854Z</time></trkpt><trkpt lat="42.643525782019175" lon="11.827342317375582"><ele>582.0</ele><time>2026-04-25T16:48:42.854Z</time></trkpt><trkpt lat="42.64335559185794" lon="11.827222804992967"><ele>582.0</ele><time>2026-04-25T16:48:43.854Z</time></trkpt><trkpt lat="42.64318836070114" lon="11.827095405600517"><ele>582.0</ele><time>2026-04-25T16:48:44.854Z</time></trkpt><trkpt lat="42.64301136068413" lon="11.826963502516094"><ele>582.0</ele><time>2026-04-25T16:48:45.854Z</time></trkpt><trkpt lat="42.642832013433505" lon="11.826830149306417"><ele>582.0</ele><time>2026-04-25T16:48:46.854Z</time></trkpt><trkpt lat="42.642647800705376" lon="11.826695940773549"><ele>582.0</ele><time>2026-04-25T16:48:47.854Z</time></trkpt><trkpt lat="42.64245898842126" lon="11.826562108983325"><ele>584.0</ele><time>2026-04-25T16:48:48.854Z</time></trkpt><trkpt lat="42.64227600321765" lon="11.8264180154508"><ele>586.0</ele><time>2026-04-25T16:48:49.854Z</time></trkpt><trkpt lat="42.642111339635875" lon="11.82626676425019"><ele>588.0</ele><time>2026-04-25T16:48:50.854Z</time></trkpt><trkpt lat="42.64194595347888" lon="11.826144622430755"><ele>588.3333333333334</ele><time>2026-04-25T16:48:51.854Z</time></trkpt><trkpt lat="42.64178604868069" lon="11.826029502247861"><ele>588.6666666666667</ele><time>2026-04-25T16:48:52.854Z</time></trkpt><trkpt lat="42.64164135009276" lon="11.825926330511379"><ele>589.0</ele><time>2026-04-25T16:48:53.854Z</time></trkpt><trkpt lat="42.6415144709041" lon="11.825832973713366"><ele>589.3333333333334</ele><time>2026-04-25T16:48:54.854Z</time></trkpt><trkpt lat="42.64140335867653" lon="11.825751217697174"><ele>589.6666666666666</ele><time>2026-04-25T16:48:55.854Z</time></trkpt><trkpt lat="42.641298128239455" lon="11.825658503907091"><ele>590.0</ele><time>2026-04-25T16:48:56.854Z</time></trkpt><trkpt lat="42.64145559539692" lon="11.824996110094922"><ele>598.0</ele><time>2026-04-25T16:48:57.854Z</time></trkpt><trkpt lat="42.640790907760405" lon="11.825459057966345"><ele>598.0</ele><time>2026-04-25T16:48:58.853Z</time></trkpt><trkpt lat="42.640635910342006" lon="11.825464311688943"><ele>598.0</ele><time>2026-04-25T16:48:59.853Z</time></trkpt><trkpt lat="42.64048976327178" lon="11.825496770633205"><ele>598.0</ele><time>2026-04-25T16:49:00.853Z</time></trkpt><trkpt lat="42.64035475846567" lon="11.82554997976344"><ele>598.0</ele><time>2026-04-25T16:49:01.853Z</time></trkpt><trkpt lat="42.64026117715461" lon="11.825622717781828"><ele>598.8</ele><time>2026-04-25T16:49:02.853Z</time></trkpt><trkpt lat="42.64020210286825" lon="11.82571832111816"><ele>599.5999999999999</ele><time>2026-04-25T16:49:03.853Z</time></trkpt><trkpt lat="42.64019421628847" lon="11.825845269944098"><ele>600.4000000000001</ele><time>2026-04-25T16:49:04.853Z</time></trkpt><trkpt lat="42.640205021488704" lon="11.825992109282415"><ele>601.2</ele><time>2026-04-25T16:49:05.853Z</time></trkpt><trkpt lat="42.640260522480176" lon="11.826137231541846"><ele>602.0</ele><time>2026-04-25T16:49:06.853Z</time></trkpt><trkpt lat="42.640340441332285" lon="11.826259285922525"><ele>602.0</ele><time>2026-04-25T16:49:07.853Z</time></trkpt><trkpt lat="42.64044603979839" lon="11.826349880404496"><ele>602.0</ele><time>2026-04-25T16:49:08.853Z</time></trkpt><trkpt lat="42.64055267976132" lon="11.82646901038609"><ele>602.0</ele><time>2026-04-25T16:49:09.853Z</time></trkpt><trkpt lat="42.640679590318584" lon="11.826591485232955"><ele>602.0</ele><time>2026-04-25T16:49:10.855Z</time></trkpt><trkpt lat="42.64077641513946" lon="11.826700577957164"><ele>601.6</ele><time>2026-04-25T16:49:11.855Z</time></trkpt><trkpt lat="42.64085109709127" lon="11.826821164727914"><ele>601.2</ele><time>2026-04-25T16:49:12.855Z</time></trkpt><trkpt lat="42.64090444331225" lon="11.826946368516078"><ele>600.8</ele><time>2026-04-25T16:49:13.855Z</time></trkpt><trkpt lat="42.64091167429892" lon="11.827080106328435"><ele>600.4</ele><time>2026-04-25T16:49:14.855Z</time></trkpt><trkpt lat="42.64088091786019" lon="11.827189648160093"><ele>600.0</ele><time>2026-04-25T16:49:15.855Z</time></trkpt><trkpt lat="42.64081866907393" lon="11.827244579291044"><ele>600.0</ele><time>2026-04-25T16:49:16.855Z</time></trkpt><trkpt lat="42.64072976648913" lon="11.82722352952382"><ele>600.0</ele><time>2026-04-25T16:49:17.854Z</time></trkpt><trkpt lat="42.640621941602404" lon="11.82722518838229"><ele>600.0</ele><time>2026-04-25T16:49:18.854Z</time></trkpt><trkpt lat="42.640505147058924" lon="11.827214585555533"><ele>600.0</ele><time>2026-04-25T16:49:19.855Z</time></trkpt><trkpt lat="42.64033138599173" lon="11.827190994982608"><ele>599.25</ele><time>2026-04-25T16:49:20.855Z</time></trkpt><trkpt lat="42.64019278014089" lon="11.827144570204718"><ele>598.5</ele><time>2026-04-25T16:49:21.855Z</time></trkpt><trkpt lat="42.64004904890803" lon="11.827094458402552"><ele>597.75</ele><time>2026-04-25T16:49:22.855Z</time></trkpt><trkpt lat="42.63991328902445" lon="11.827056241671754"><ele>597.0</ele><time>2026-04-25T16:49:23.855Z</time></trkpt><trkpt lat="42.63980173323001" lon="11.826992917223212"><ele>597.0</ele><time>2026-04-25T16:49:24.855Z</time></trkpt><trkpt lat="42.63967021753157" lon="11.826974838797726"><ele>597.0</ele><time>2026-04-25T16:49:25.854Z</time></trkpt><trkpt lat="42.639525416463336" lon="11.826983172226253"><ele>597.0</ele><time>2026-04-25T16:49:26.854Z</time></trkpt><trkpt lat="42.63938544122937" lon="11.826995556294705"><ele>597.0</ele><time>2026-04-25T16:49:27.854Z</time></trkpt><trkpt lat="42.63923252676839" lon="11.827032841809666"><ele>595.6666666666666</ele><time>2026-04-25T16:49:28.854Z</time></trkpt><trkpt lat="42.639078954574" lon="11.827038003088456"><ele>594.3333333333333</ele><time>2026-04-25T16:49:29.854Z</time></trkpt><trkpt lat="42.63893037675897" lon="11.827009739778948"><ele>593.0</ele><time>2026-04-25T16:49:30.854Z</time></trkpt><trkpt lat="42.63877150912842" lon="11.826958524222402"><ele>592.6666666666666</ele><time>2026-04-25T16:49:31.854Z</time></trkpt><trkpt lat="42.63860892125756" lon="11.82692043678028"><ele>592.3333333333334</ele><time>2026-04-25T16:49:32.854Z</time></trkpt><trkpt lat="42.6384423429805" lon="11.826863625908445"><ele>592.0</ele><time>2026-04-25T16:49:33.854Z</time></trkpt><trkpt lat="42.63825852540953" lon="11.826794854474718"><ele>596.3333333333334</ele><time>2026-04-25T16:49:34.854Z</time></trkpt><trkpt lat="42.63807320687263" lon="11.82675628804675"><ele>600.6666666666666</ele><time>2026-04-25T16:49:35.854Z</time></trkpt><trkpt lat="42.63790466472173" lon="11.826728607137776"><ele>605.0</ele><time>2026-04-25T16:49:36.854Z</time></trkpt><trkpt lat="42.63774643848192" lon="11.826716851668344"><ele>605.0</ele><time>2026-04-25T16:49:37.854Z</time></trkpt><trkpt lat="42.63759850666518" lon="11.826720684158158"><ele>605.0</ele><time>2026-04-25T16:49:38.854Z</time></trkpt><trkpt lat="42.63746201313629" lon="11.826763632428117"><ele>605.0</ele><time>2026-04-25T16:49:39.854Z</time></trkpt><trkpt lat="42.6373418319434" lon="11.82683561096652"><ele>605.0</ele><time>2026-04-25T16:49:40.854Z</time></trkpt><trkpt lat="42.63722551200424" lon="11.826936965835355"><ele>602.6</ele><time>2026-04-25T16:49:41.854Z</time></trkpt><trkpt lat="42.63713375726445" lon="11.827050355311522"><ele>600.2</ele><time>2026-04-25T16:49:42.854Z</time></trkpt><trkpt lat="42.63707392282075" lon="11.82713864325713"><ele>597.8</ele><time>2026-04-25T16:49:43.854Z</time></trkpt><trkpt lat="42.63701870730842" lon="11.827231801225157"><ele>595.4</ele><time>2026-04-25T16:49:45.854Z</time></trkpt><trkpt lat="42.63695244276117" lon="11.827286461020835"><ele>593.0</ele><time>2026-04-25T16:49:47.854Z</time></trkpt><trkpt lat="42.63691953053224" lon="11.827433184705013"><ele>593.0</ele><time>2026-04-25T16:49:48.854Z</time></trkpt><trkpt lat="42.63685695438581" lon="11.827571103030778"><ele>593.0</ele><time>2026-04-25T16:49:49.854Z</time></trkpt><trkpt lat="42.63678017145113" lon="11.827739356439524"><ele>593.0</ele><time>2026-04-25T16:49:50.854Z</time></trkpt><trkpt lat="42.636683849488634" lon="11.827918093597352"><ele>593.0</ele><time>2026-04-25T16:49:51.853Z</time></trkpt><trkpt lat="42.63659289111638" lon="11.828104623725565"><ele>593.3333333333333</ele><time>2026-04-25T16:49:52.853Z</time></trkpt><trkpt lat="42.63650047581394" lon="11.828286147687034"><ele>593.6666666666666</ele><time>2026-04-25T16:49:53.853Z</time></trkpt><trkpt lat="42.636412042913584" lon="11.828463283178378"><ele>594.0</ele><time>2026-04-25T16:49:54.853Z</time></trkpt><trkpt lat="42.636320716521624" lon="11.828631686944172"><ele>595.0</ele><time>2026-04-25T16:49:55.853Z</time></trkpt><trkpt lat="42.63623720140837" lon="11.828798881900335"><ele>596.0</ele><time>2026-04-25T16:49:56.853Z</time></trkpt><trkpt lat="42.63615322019" lon="11.828962784493982"><ele>597.0</ele><time>2026-04-25T16:49:57.853Z</time></trkpt><trkpt lat="42.636066966096934" lon="11.829124291237225"><ele>598.0</ele><time>2026-04-25T16:49:58.853Z</time></trkpt><trkpt lat="42.63598978302292" lon="11.8292825786745"><ele>595.75</ele><time>2026-04-25T16:49:59.853Z</time></trkpt><trkpt lat="42.63590248906675" lon="11.82943990840627"><ele>593.5</ele><time>2026-04-25T16:50:00.853Z</time></trkpt><trkpt lat="42.6358244951447" lon="11.829593037154181"><ele>591.25</ele><time>2026-04-25T16:50:01.853Z</time></trkpt><trkpt lat="42.63574231570457" lon="11.829751593609654"><ele>589.0</ele><time>2026-04-25T16:50:02.853Z</time></trkpt><trkpt lat="42.635660913105184" lon="11.829915315522722"><ele>589.0</ele><time>2026-04-25T16:50:03.853Z</time></trkpt><trkpt lat="42.63556413963119" lon="11.830068981275131"><ele>589.0</ele><time>2026-04-25T16:50:04.853Z</time></trkpt><trkpt lat="42.635481304967044" lon="11.830226919563133"><ele>589.0</ele><time>2026-04-25T16:50:05.853Z</time></trkpt><trkpt lat="42.63539935971399" lon="11.830383162004459"><ele>589.0</ele><time>2026-04-25T16:50:06.853Z</time></trkpt><trkpt lat="42.635324663924855" lon="11.830556937180997"><ele>588.25</ele><time>2026-04-25T16:50:07.853Z</time></trkpt><trkpt lat="42.63523663276883" lon="11.830711912907304"><ele>587.5</ele><time>2026-04-25T16:50:08.853Z</time></trkpt><trkpt lat="42.63515231175353" lon="11.830872315777086"><ele>586.75</ele><time>2026-04-25T16:50:09.853Z</time></trkpt><trkpt lat="42.635068936468095" lon="11.831029727857794"><ele>586.0</ele><time>2026-04-25T16:50:10.853Z</time></trkpt><trkpt lat="42.63498523149536" lon="11.831180756205685"><ele>587.25</ele><time>2026-04-25T16:50:11.853Z</time></trkpt><trkpt lat="42.634899611111805" lon="11.831338075530125"><ele>588.5</ele><time>2026-04-25T16:50:12.853Z</time></trkpt><trkpt lat="42.634816532525804" lon="11.831493648667122"><ele>589.75</ele><time>2026-04-25T16:50:13.853Z</time></trkpt><trkpt lat="42.63474347189802" lon="11.831663312246794"><ele>591.0</ele><time>2026-04-25T16:50:14.853Z</time></trkpt><trkpt lat="42.6346829901369" lon="11.831836157522249"><ele>591.0</ele><time>2026-04-25T16:50:15.853Z</time></trkpt><trkpt lat="42.63462264717371" lon="11.832013756949413"><ele>591.0</ele><time>2026-04-25T16:50:16.853Z</time></trkpt><trkpt lat="42.634560952763756" lon="11.832182202153122"><ele>591.0</ele><time>2026-04-25T16:50:17.852Z</time></trkpt><trkpt lat="42.63448910856289" lon="11.832326629055139"><ele>591.0</ele><time>2026-04-25T16:50:18.852Z</time></trkpt><trkpt lat="42.63439268215028" lon="11.832446162131529"><ele>590.25</ele><time>2026-04-25T16:50:19.852Z</time></trkpt><trkpt lat="42.634271889389225" lon="11.83253749402978"><ele>589.5</ele><time>2026-04-25T16:50:20.852Z</time></trkpt><trkpt lat="42.634140065360604" lon="11.832618885476865"><ele>588.75</ele><time>2026-04-25T16:50:21.852Z</time></trkpt><trkpt lat="42.634012040129164" lon="11.83269994875444"><ele>588.0</ele><time>2026-04-25T16:50:22.852Z</time></trkpt><trkpt lat="42.633880784143976" lon="11.832785617201573"><ele>590.0</ele><time>2026-04-25T16:50:23.852Z</time></trkpt><trkpt lat="42.6337473661068" lon="11.83287666488773"><ele>592.0</ele><time>2026-04-25T16:50:24.852Z</time></trkpt><trkpt lat="42.63361482376643" lon="11.83297102720558"><ele>594.0</ele><time>2026-04-25T16:50:25.852Z</time></trkpt><trkpt lat="42.63349324735734" lon="11.833075508759347"><ele>596.0</ele><time>2026-04-25T16:50:26.852Z</time></trkpt><trkpt lat="42.63337277519152" lon="11.833187438467213"><ele>596.5</ele><time>2026-04-25T16:50:27.852Z</time></trkpt><trkpt lat="42.633255017807784" lon="11.83330642266307"><ele>597.0</ele><time>2026-04-25T16:50:28.852Z</time></trkpt><trkpt lat="42.63314241892859" lon="11.83342329302412"><ele>597.5</ele><time>2026-04-25T16:50:29.852Z</time></trkpt><trkpt lat="42.633041818154474" lon="11.833542632776455"><ele>598.0</ele><time>2026-04-25T16:50:30.852Z</time></trkpt><trkpt lat="42.63295140035456" lon="11.833657776515691"><ele>598.6</ele><time>2026-04-25T16:50:31.852Z</time></trkpt><trkpt lat="42.632867643171565" lon="11.833769833242203"><ele>599.1999999999999</ele><time>2026-04-25T16:50:32.852Z</time></trkpt><trkpt lat="42.63280103311233" lon="11.833888277623009"><ele>599.8</ele><time>2026-04-25T16:50:33.852Z</time></trkpt><trkpt lat="42.6327338690658" lon="11.83400834430701"><ele>600.4</ele><time>2026-04-25T16:50:34.852Z</time></trkpt><trkpt lat="42.632670967975784" lon="11.834128949463459"><ele>601.0</ele><time>2026-04-25T16:50:35.852Z</time></trkpt><trkpt lat="42.63259915018794" lon="11.834244929631332"><ele>599.0</ele><time>2026-04-25T16:50:36.852Z</time></trkpt><trkpt lat="42.63251931148821" lon="11.834369148741827"><ele>597.0</ele><time>2026-04-25T16:50:37.852Z</time></trkpt><trkpt lat="42.63243295022273" lon="11.834480616567662"><ele>595.0</ele><time>2026-04-25T16:50:38.852Z</time></trkpt><trkpt lat="42.63234298827392" lon="11.834568389783326"><ele>593.0</ele><time>2026-04-25T16:50:39.852Z</time></trkpt><trkpt lat="42.632241380190216" lon="11.83464126788929"><ele>593.0</ele><time>2026-04-25T16:50:40.852Z</time></trkpt><trkpt lat="42.63213324374818" lon="11.834701369780124"><ele>593.0</ele><time>2026-04-25T16:50:41.852Z</time></trkpt><trkpt lat="42.632028355983266" lon="11.834747747870122"><ele>593.0</ele><time>2026-04-25T16:50:42.852Z</time></trkpt><trkpt lat="42.63192389899186" lon="11.8348013772467"><ele>593.0</ele><time>2026-04-25T16:50:43.851Z</time></trkpt><trkpt lat="42.63180967546415" lon="11.834855172287979"><ele>593.0</ele><time>2026-04-25T16:50:44.851Z</time></trkpt><trkpt lat="42.63170670814062" lon="11.83490829562747"><ele>593.0</ele><time>2026-04-25T16:50:45.851Z</time></trkpt><trkpt lat="42.63159942837955" lon="11.834963868273773"><ele>593.0</ele><time>2026-04-25T16:50:46.851Z</time></trkpt><trkpt lat="42.63148832532378" lon="11.8350159662336"><ele>593.0</ele><time>2026-04-25T16:50:47.851Z</time></trkpt><trkpt lat="42.63137400241626" lon="11.83507413618613"><ele>593.0</ele><time>2026-04-25T16:50:48.851Z</time></trkpt><trkpt lat="42.63125958487624" lon="11.835137252429549"><ele>593.0</ele><time>2026-04-25T16:50:49.851Z</time></trkpt><trkpt lat="42.63113661798899" lon="11.835197580913402"><ele>593.0</ele><time>2026-04-25T16:50:50.851Z</time></trkpt><trkpt lat="42.631005378960594" lon="11.835260212859458"><ele>593.0</ele><time>2026-04-25T16:50:51.851Z</time></trkpt><trkpt lat="42.63087939599809" lon="11.835312871961678"><ele>595.5</ele><time>2026-04-25T16:50:52.851Z</time></trkpt><trkpt lat="42.63074374901035" lon="11.83537535890991"><ele>598.0</ele><time>2026-04-25T16:50:53.851Z</time></trkpt><trkpt lat="42.63060660441166" lon="11.835442166932479"><ele>600.5</ele><time>2026-04-25T16:50:54.851Z</time></trkpt><trkpt lat="42.63046147410831" lon="11.835507979395787"><ele>603.0</ele><time>2026-04-25T16:50:55.851Z</time></trkpt><trkpt lat="42.63033381453406" lon="11.83558500057162"><ele>602.0</ele><time>2026-04-25T16:50:56.851Z</time></trkpt><trkpt lat="42.63019688642772" lon="11.835651523685867"><ele>601.0</ele><time>2026-04-25T16:50:57.851Z</time></trkpt><trkpt lat="42.63005626576855" lon="11.835730623451289"><ele>600.0</ele><time>2026-04-25T16:50:58.851Z</time></trkpt><trkpt lat="42.62992176940114" lon="11.835812384089854"><ele>599.0</ele><time>2026-04-25T16:50:59.851Z</time></trkpt><trkpt lat="42.62978273548961" lon="11.835902675676298"><ele>599.6666666666666</ele><time>2026-04-25T16:51:00.851Z</time></trkpt><trkpt lat="42.629637558651226" lon="11.836010762341544"><ele>600.3333333333334</ele><time>2026-04-25T16:51:01.851Z</time></trkpt><trkpt lat="42.62950053827241" lon="11.836129576462293"><ele>601.0</ele><time>2026-04-25T16:51:02.851Z</time></trkpt><trkpt lat="42.62936068787661" lon="11.83624425453183"><ele>601.0</ele><time>2026-04-25T16:51:03.851Z</time></trkpt><trkpt lat="42.62921847627861" lon="11.836362602652136"><ele>601.0</ele><time>2026-04-25T16:51:04.851Z</time></trkpt><trkpt lat="42.62907126359452" lon="11.836476702141033"><ele>601.0</ele><time>2026-04-25T16:51:05.851Z</time></trkpt><trkpt lat="42.628919764003804" lon="11.83658295176933"><ele>601.0</ele><time>2026-04-25T16:51:06.851Z</time></trkpt><trkpt lat="42.62876966812066" lon="11.836680904843444"><ele>601.0</ele><time>2026-04-25T16:51:07.851Z</time></trkpt><trkpt lat="42.62861118404314" lon="11.836750481156038"><ele>601.0</ele><time>2026-04-25T16:51:08.851Z</time></trkpt><trkpt lat="42.628448847966816" lon="11.836797117223826"><ele>602.6666666666667</ele><time>2026-04-25T16:51:09.85Z</time></trkpt><trkpt lat="42.628282179545714" lon="11.836842830592403"><ele>604.3333333333334</ele><time>2026-04-25T16:51:10.85Z</time></trkpt><trkpt lat="42.62811322833306" lon="11.836880682121873"><ele>606.0</ele><time>2026-04-25T16:51:11.85Z</time></trkpt><trkpt lat="42.627942831595675" lon="11.836913738642792"><ele>606.6666666666666</ele><time>2026-04-25T16:51:12.85Z</time></trkpt><trkpt lat="42.6277729896661" lon="11.836951633936856"><ele>607.3333333333333</ele><time>2026-04-25T16:51:13.85Z</time></trkpt><trkpt lat="42.6276138720739" lon="11.83701364907234"><ele>608.0</ele><time>2026-04-25T16:51:14.85Z</time></trkpt><trkpt lat="42.62746378248902" lon="11.837049932966247"><ele>608.0</ele><time>2026-04-25T16:51:15.85Z</time></trkpt><trkpt lat="42.62731008488898" lon="11.837124287055191"><ele>608.0</ele><time>2026-04-25T16:51:16.853Z</time></trkpt><trkpt lat="42.627128837843486" lon="11.83716415149526"><ele>608.0</ele><time>2026-04-25T16:51:17.853Z</time></trkpt><trkpt lat="42.62696932862675" lon="11.83723292774326"><ele>608.0</ele><time>2026-04-25T16:51:18.853Z</time></trkpt><trkpt lat="42.62680194130316" lon="11.837303236783331"><ele>608.0</ele><time>2026-04-25T16:51:19.853Z</time></trkpt><trkpt lat="42.62663269230705" lon="11.837364933617705"><ele>608.0</ele><time>2026-04-25T16:51:20.852Z</time></trkpt><trkpt lat="42.626453191340985" lon="11.837427456027036"><ele>608.0</ele><time>2026-04-25T16:51:21.852Z</time></trkpt><trkpt lat="42.62629242669967" lon="11.837484108326707"><ele>608.0</ele><time>2026-04-25T16:51:22.852Z</time></trkpt><trkpt lat="42.62612734985494" lon="11.837543150397403"><ele>608.0</ele><time>2026-04-25T16:51:23.853Z</time></trkpt><trkpt lat="42.62596051642526" lon="11.837603234530242"><ele>610.6666666666666</ele><time>2026-04-25T16:51:24.853Z</time></trkpt><trkpt lat="42.62579070884047" lon="11.83766404443182"><ele>613.3333333333334</ele><time>2026-04-25T16:51:25.852Z</time></trkpt><trkpt lat="42.62562120618817" lon="11.837707391849232"><ele>616.0</ele><time>2026-04-25T16:51:26.852Z</time></trkpt><trkpt lat="42.625452386515526" lon="11.83774343864952"><ele>617.0</ele><time>2026-04-25T16:51:27.852Z</time></trkpt><trkpt lat="42.6252787066727" lon="11.837729318563007"><ele>618.0</ele><time>2026-04-25T16:51:28.852Z</time></trkpt><trkpt lat="42.62510737394212" lon="11.837714035154459"><ele>619.0</ele><time>2026-04-25T16:51:29.853Z</time></trkpt><trkpt lat="42.624940443034006" lon="11.837686205488014"><ele>619.0</ele><time>2026-04-25T16:51:30.853Z</time></trkpt><trkpt lat="42.624781774877" lon="11.83765584830131"><ele>619.0</ele><time>2026-04-25T16:51:31.853Z</time></trkpt><trkpt lat="42.62460913864182" lon="11.837622398731703"><ele>619.0</ele><time>2026-04-25T16:51:32.853Z</time></trkpt><trkpt lat="42.624436882324396" lon="11.837601600987162"><ele>615.6666666666667</ele><time>2026-04-25T16:51:33.852Z</time></trkpt><trkpt lat="42.62427298966358" lon="11.837576571805245"><ele>612.3333333333334</ele><time>2026-04-25T16:51:34.852Z</time></trkpt><trkpt lat="42.62410105357004" lon="11.837556529975178"><ele>609.0</ele><time>2026-04-25T16:51:35.852Z</time></trkpt><trkpt lat="42.623936840417656" lon="11.837549966456127"><ele>609.0</ele><time>2026-04-25T16:51:36.852Z</time></trkpt><trkpt lat="42.623764377231915" lon="11.837548174520894"><ele>609.0</ele><time>2026-04-25T16:51:37.852Z</time></trkpt><trkpt lat="42.623600590226026" lon="11.83755735625115"><ele>609.0</ele><time>2026-04-25T16:51:38.852Z</time></trkpt><trkpt lat="42.62343437808657" lon="11.837579221595513"><ele>609.3333333333334</ele><time>2026-04-25T16:51:39.852Z</time></trkpt><trkpt lat="42.623264389974736" lon="11.837630988267962"><ele>609.6666666666667</ele><time>2026-04-25T16:51:40.852Z</time></trkpt><trkpt lat="42.623106187202474" lon="11.837699803565412"><ele>610.0</ele><time>2026-04-25T16:51:41.852Z</time></trkpt><trkpt lat="42.62294459058715" lon="11.837766512919945"><ele>612.6666666666667</ele><time>2026-04-25T16:51:42.852Z</time></trkpt><trkpt lat="42.62278296845445" lon="11.837851018063732"><ele>615.3333333333334</ele><time>2026-04-25T16:51:43.852Z</time></trkpt><trkpt lat="42.62262190374325" lon="11.837932588780179"><ele>618.0</ele><time>2026-04-25T16:51:44.852Z</time></trkpt><trkpt lat="42.62245315070241" lon="11.83801937081558"><ele>618.0</ele><time>2026-04-25T16:51:45.852Z</time></trkpt><trkpt lat="42.622294815841954" lon="11.838109024583014"><ele>618.0</ele><time>2026-04-25T16:51:46.852Z</time></trkpt><trkpt lat="42.6221464478877" lon="11.838219658636307"><ele>618.0</ele><time>2026-04-25T16:51:47.852Z</time></trkpt><trkpt lat="42.62200971332774" lon="11.838350385911642"><ele>616.3333333333334</ele><time>2026-04-25T16:51:48.852Z</time></trkpt><trkpt lat="42.62187079733408" lon="11.83850706006643"><ele>614.6666666666667</ele><time>2026-04-25T16:51:49.852Z</time></trkpt><trkpt lat="42.621745407016256" lon="11.83866079124123"><ele>613.0</ele><time>2026-04-25T16:51:50.852Z</time></trkpt><trkpt lat="42.621618757615806" lon="11.838809811871435"><ele>613.0</ele><time>2026-04-25T16:51:51.852Z</time></trkpt><trkpt lat="42.621489918058955" lon="11.838938676788368"><ele>613.0</ele><time>2026-04-25T16:51:52.852Z</time></trkpt><trkpt lat="42.62134637375055" lon="11.839032857724957"><ele>613.0</ele><time>2026-04-25T16:51:53.852Z</time></trkpt><trkpt lat="42.6211936268988" lon="11.839089854766808"><ele>610.3333333333334</ele><time>2026-04-25T16:51:54.852Z</time></trkpt><trkpt lat="42.62103835360096" lon="11.839116438883668"><ele>607.6666666666666</ele><time>2026-04-25T16:51:55.852Z</time></trkpt><trkpt lat="42.620870019201725" lon="11.839123376008503"><ele>605.0</ele><time>2026-04-25T16:51:56.852Z</time></trkpt><trkpt lat="42.620699737174874" lon="11.839127699897972"><ele>605.0</ele><time>2026-04-25T16:51:57.852Z</time></trkpt><trkpt lat="42.620526743638095" lon="11.839134002292267"><ele>605.0</ele><time>2026-04-25T16:51:58.852Z</time></trkpt><trkpt lat="42.620350374687824" lon="11.839142242955672"><ele>605.0</ele><time>2026-04-25T16:51:59.851Z</time></trkpt><trkpt lat="42.620173814446424" lon="11.83915016926738"><ele>603.6666666666666</ele><time>2026-04-25T16:52:00.851Z</time></trkpt><trkpt lat="42.61999770549843" lon="11.839157420790942"><ele>602.3333333333334</ele><time>2026-04-25T16:52:01.851Z</time></trkpt><trkpt lat="42.61981683415913" lon="11.839174082492692"><ele>601.0</ele><time>2026-04-25T16:52:02.851Z</time></trkpt><trkpt lat="42.619637164545566" lon="11.839195383084064"><ele>599.0</ele><time>2026-04-25T16:52:03.851Z</time></trkpt><trkpt lat="42.61946140816787" lon="11.839224128074045"><ele>597.0</ele><time>2026-04-25T16:52:04.851Z</time></trkpt><trkpt lat="42.6192952791765" lon="11.839245429980311"><ele>595.0</ele><time>2026-04-25T16:52:05.851Z</time></trkpt><trkpt lat="42.61913603715541" lon="11.839282400544882"><ele>602.3333333333334</ele><time>2026-04-25T16:52:06.851Z</time></trkpt><trkpt lat="42.6189838128293" lon="11.839352881831674"><ele>609.6666666666666</ele><time>2026-04-25T16:52:07.851Z</time></trkpt><trkpt lat="42.618844768751" lon="11.839452374522384"><ele>617.0</ele><time>2026-04-25T16:52:08.851Z</time></trkpt><trkpt lat="42.61870700311102" lon="11.83957147065486"><ele>613.0</ele><time>2026-04-25T16:52:09.851Z</time></trkpt><trkpt lat="42.61857184407685" lon="11.839684894586757"><ele>609.0</ele><time>2026-04-25T16:52:10.851Z</time></trkpt><trkpt lat="42.618432016298804" lon="11.839771888364899"><ele>605.0</ele><time>2026-04-25T16:52:11.851Z</time></trkpt><trkpt lat="42.61828496135327" lon="11.839817554555285"><ele>605.0</ele><time>2026-04-25T16:52:12.851Z</time></trkpt><trkpt lat="42.61813759021881" lon="11.839809693937937"><ele>605.0</ele><time>2026-04-25T16:52:13.851Z</time></trkpt><trkpt lat="42.61798074047885" lon="11.839776302133389"><ele>605.0</ele><time>2026-04-25T16:52:14.851Z</time></trkpt><trkpt lat="42.61782787680251" lon="11.839747887968098"><ele>604.6666666666666</ele><time>2026-04-25T16:52:15.851Z</time></trkpt><trkpt lat="42.617669083329496" lon="11.839724511691347"><ele>604.3333333333334</ele><time>2026-04-25T16:52:16.851Z</time></trkpt><trkpt lat="42.617508926558266" lon="11.839697903708227"><ele>604.0</ele><time>2026-04-25T16:52:17.851Z</time></trkpt><trkpt lat="42.61734062083397" lon="11.839662454846945"><ele>604.0</ele><time>2026-04-25T16:52:18.851Z</time></trkpt><trkpt lat="42.617165087590045" lon="11.839620162684033"><ele>604.0</ele><time>2026-04-25T16:52:19.851Z</time></trkpt><trkpt lat="42.61699894318958" lon="11.839548287649958"><ele>604.0</ele><time>2026-04-25T16:52:20.851Z</time></trkpt><trkpt lat="42.61683472573667" lon="11.839474190159692"><ele>604.3333333333334</ele><time>2026-04-25T16:52:21.851Z</time></trkpt><trkpt lat="42.61666447242995" lon="11.839409154564141"><ele>604.6666666666666</ele><time>2026-04-25T16:52:22.851Z</time></trkpt><trkpt lat="42.61648883657738" lon="11.83938368922257"><ele>605.0</ele><time>2026-04-25T16:52:23.851Z</time></trkpt><trkpt lat="42.6163010251227" lon="11.839388763592618"><ele>602.6666666666666</ele><time>2026-04-25T16:52:24.85Z</time></trkpt><trkpt lat="42.616109364621124" lon="11.839388585408217"><ele>600.3333333333334</ele><time>2026-04-25T16:52:25.85Z</time></trkpt><trkpt lat="42.6159210339078" lon="11.839399240201088"><ele>598.0</ele><time>2026-04-25T16:52:26.85Z</time></trkpt><trkpt lat="42.61573958350505" lon="11.839440385041618"><ele>598.0</ele><time>2026-04-25T16:52:27.85Z</time></trkpt><trkpt lat="42.61555728439684" lon="11.839467945907646"><ele>598.0</ele><time>2026-04-25T16:52:28.85Z</time></trkpt><trkpt lat="42.6153773060708" lon="11.839553503814578"><ele>598.0</ele><time>2026-04-25T16:52:29.85Z</time></trkpt><trkpt lat="42.615188192272576" lon="11.83962394171787"><ele>593.6666666666667</ele><time>2026-04-25T16:52:30.85Z</time></trkpt><trkpt lat="42.61501224106116" lon="11.839686091840811"><ele>589.3333333333334</ele><time>2026-04-25T16:52:31.85Z</time></trkpt><trkpt lat="42.614839426617685" lon="11.83975938132259"><ele>585.0</ele><time>2026-04-25T16:52:32.85Z</time></trkpt><trkpt lat="42.614666596001314" lon="11.83981484675475"><ele>585.0</ele><time>2026-04-25T16:52:33.85Z</time></trkpt><trkpt lat="42.614507903307725" lon="11.839915295878166"><ele>585.0</ele><time>2026-04-25T16:52:34.85Z</time></trkpt><trkpt lat="42.61436431860143" lon="11.840041326939376"><ele>585.0</ele><time>2026-04-25T16:52:35.848Z</time></trkpt><trkpt lat="42.61422767768874" lon="11.840189720844"><ele>585.6666666666666</ele><time>2026-04-25T16:52:36.847Z</time></trkpt><trkpt lat="42.61409563710548" lon="11.84034609626055"><ele>586.3333333333333</ele><time>2026-04-25T16:52:37.845Z</time></trkpt><trkpt lat="42.61396114906022" lon="11.840472570893398"><ele>587.0</ele><time>2026-04-25T16:52:38.844Z</time></trkpt><trkpt lat="42.613798222889855" lon="11.840554121174746"><ele>582.6666666666666</ele><time>2026-04-25T16:52:39.842Z</time></trkpt><trkpt lat="42.61361938247585" lon="11.840600318195962"><ele>578.3333333333334</ele><time>2026-04-25T16:52:40.841Z</time></trkpt><trkpt lat="42.61343614762006" lon="11.840659025567646"><ele>574.0</ele><time>2026-04-25T16:52:41.84Z</time></trkpt><trkpt lat="42.613254511893516" lon="11.84073294009098"><ele>574.0</ele><time>2026-04-25T16:52:42.839Z</time></trkpt><trkpt lat="42.61308220449344" lon="11.84081849089543"><ele>574.0</ele><time>2026-04-25T16:52:43.837Z</time></trkpt><trkpt lat="42.61291916460074" lon="11.840903341610204"><ele>574.0</ele><time>2026-04-25T16:52:44.836Z</time></trkpt><trkpt lat="42.61275474324895" lon="11.840989971534038"><ele>573.3333333333334</ele><time>2026-04-25T16:52:45.836Z</time></trkpt><trkpt lat="42.61259054012306" lon="11.841081849256598"><ele>572.6666666666666</ele><time>2026-04-25T16:52:46.835Z</time></trkpt><trkpt lat="42.61242310662238" lon="11.841185846409434"><ele>572.0</ele><time>2026-04-25T16:52:47.834Z</time></trkpt><trkpt lat="42.61226670016498" lon="11.841320902929928"><ele>572.0</ele><time>2026-04-25T16:52:48.833Z</time></trkpt><trkpt lat="42.61212573094294" lon="11.841494652662329"><ele>572.0</ele><time>2026-04-25T16:52:49.832Z</time></trkpt><trkpt lat="42.61200410045032" lon="11.841686537144149"><ele>572.0</ele><time>2026-04-25T16:52:50.832Z</time></trkpt><trkpt lat="42.61188922793169" lon="11.841883474240024"><ele>568.6666666666666</ele><time>2026-04-25T16:52:51.831Z</time></trkpt><trkpt lat="42.61177644441575" lon="11.84207778482568"><ele>565.3333333333334</ele><time>2026-04-25T16:52:52.83Z</time></trkpt><trkpt lat="42.611662955076106" lon="11.842264359214278"><ele>562.0</ele><time>2026-04-25T16:52:53.83Z</time></trkpt><trkpt lat="42.611559117147316" lon="11.842456262763088"><ele>562.0</ele><time>2026-04-25T16:52:54.829Z</time></trkpt><trkpt lat="42.611424972123196" lon="11.842595953052315"><ele>562.0</ele><time>2026-04-25T16:52:55.829Z</time></trkpt><trkpt lat="42.61129267075914" lon="11.842733908863826"><ele>562.0</ele><time>2026-04-25T16:52:56.828Z</time></trkpt><trkpt lat="42.61112992228293" lon="11.842849109922309"><ele>559.0</ele><time>2026-04-25T16:52:57.828Z</time></trkpt><trkpt lat="42.610947715042045" lon="11.842936689781974"><ele>556.0</ele><time>2026-04-25T16:52:58.827Z</time></trkpt><trkpt lat="42.6107674378225" lon="11.843005257986666"><ele>553.0</ele><time>2026-04-25T16:52:59.827Z</time></trkpt><trkpt lat="42.61057780855428" lon="11.843035505824732"><ele>553.0</ele><time>2026-04-25T16:53:00.826Z</time></trkpt><trkpt lat="42.61038753723917" lon="11.843069135196044"><ele>553.0</ele><time>2026-04-25T16:53:01.826Z</time></trkpt><trkpt lat="42.610199633554835" lon="11.843105015239534"><ele>553.0</ele><time>2026-04-25T16:53:02.826Z</time></trkpt><trkpt lat="42.6100130087038" lon="11.843138381525213"><ele>552.6666666666667</ele><time>2026-04-25T16:53:03.825Z</time></trkpt><trkpt lat="42.60982413818068" lon="11.843153399881718"><ele>552.3333333333334</ele><time>2026-04-25T16:53:04.825Z</time></trkpt><trkpt lat="42.60962923410852" lon="11.843188443226701"><ele>552.0</ele><time>2026-04-25T16:53:05.825Z</time></trkpt><trkpt lat="42.609435364675264" lon="11.843223422193192"><ele>551.0</ele><time>2026-04-25T16:53:06.824Z</time></trkpt><trkpt lat="42.60924024079932" lon="11.843259682995148"><ele>550.0</ele><time>2026-04-25T16:53:07.824Z</time></trkpt><trkpt lat="42.60904936833172" lon="11.843294844119823"><ele>549.0</ele><time>2026-04-25T16:53:08.824Z</time></trkpt><trkpt lat="42.60886004718207" lon="11.843329719445403"><ele>549.0</ele><time>2026-04-25T16:53:09.824Z</time></trkpt><trkpt lat="42.60867587457094" lon="11.843363646388505"><ele>549.0</ele><time>2026-04-25T16:53:10.823Z</time></trkpt><trkpt lat="42.608484886721556" lon="11.843398828675694"><ele>549.0</ele><time>2026-04-25T16:53:11.823Z</time></trkpt><trkpt lat="42.608298601194214" lon="11.84343314483757"><ele>545.0</ele><time>2026-04-25T16:53:12.823Z</time></trkpt><trkpt lat="42.60811103234574" lon="11.843467697341184"><ele>541.0</ele><time>2026-04-25T16:53:13.823Z</time></trkpt><trkpt lat="42.60792437128909" lon="11.843502533201033"><ele>537.0</ele><time>2026-04-25T16:53:14.823Z</time></trkpt><trkpt lat="42.60773655175331" lon="11.843538037476018"><ele>535.3333333333334</ele><time>2026-04-25T16:53:15.822Z</time></trkpt><trkpt lat="42.60754510266043" lon="11.84357461091072"><ele>533.6666666666667</ele><time>2026-04-25T16:53:16.822Z</time></trkpt><trkpt lat="42.607357652666565" lon="11.843610846156393"><ele>532.0</ele><time>2026-04-25T16:53:17.822Z</time></trkpt><trkpt lat="42.60716999226711" lon="11.843647122144425"><ele>531.0</ele><time>2026-04-25T16:53:18.822Z</time></trkpt><trkpt lat="42.60698199900242" lon="11.843683462403705"><ele>530.0</ele><time>2026-04-25T16:53:19.822Z</time></trkpt><trkpt lat="42.60679413063646" lon="11.843739344587435"><ele>529.0</ele><time>2026-04-25T16:53:20.822Z</time></trkpt><trkpt lat="42.606605517822" lon="11.843745987054739"><ele>529.0</ele><time>2026-04-25T16:53:21.822Z</time></trkpt><trkpt lat="42.606417207462" lon="11.843775435050539"><ele>529.0</ele><time>2026-04-25T16:53:22.824Z</time></trkpt><trkpt lat="42.606237409291815" lon="11.843808055960391"><ele>529.0</ele><time>2026-04-25T16:53:23.823Z</time></trkpt><trkpt lat="42.60606538257398" lon="11.843834725337974"><ele>529.6666666666667</ele><time>2026-04-25T16:53:24.823Z</time></trkpt><trkpt lat="42.6058962964349" lon="11.84385662793275"><ele>530.3333333333334</ele><time>2026-04-25T16:53:25.824Z</time></trkpt><trkpt lat="42.60572318367299" lon="11.843868875380066"><ele>531.0</ele><time>2026-04-25T16:53:26.824Z</time></trkpt><trkpt lat="42.60554474746035" lon="11.843860869299274"><ele>531.0</ele><time>2026-04-25T16:53:27.824Z</time></trkpt><trkpt lat="42.6053704420803" lon="11.843823834111115"><ele>531.0</ele><time>2026-04-25T16:53:28.823Z</time></trkpt><trkpt lat="42.60519941037709" lon="11.843755851398358"><ele>531.0</ele><time>2026-04-25T16:53:29.823Z</time></trkpt><trkpt lat="42.6050308773659" lon="11.84367199020616"><ele>531.6666666666666</ele><time>2026-04-25T16:53:30.823Z</time></trkpt><trkpt lat="42.60486717856448" lon="11.843585222141064"><ele>532.3333333333333</ele><time>2026-04-25T16:53:31.823Z</time></trkpt><trkpt lat="42.60470741276661" lon="11.843485272167642"><ele>533.0</ele><time>2026-04-25T16:53:32.822Z</time></trkpt><trkpt lat="42.604543339282344" lon="11.84339934531101"><ele>533.6666666666666</ele><time>2026-04-25T16:53:33.822Z</time></trkpt><trkpt lat="42.60437437196747" lon="11.843309298823396"><ele>534.3333333333334</ele><time>2026-04-25T16:53:34.823Z</time></trkpt><trkpt lat="42.60422250912868" lon="11.843217754021735"><ele>535.0</ele><time>2026-04-25T16:53:35.823Z</time></trkpt><trkpt lat="42.604068596405504" lon="11.84312083357841"><ele>535.0</ele><time>2026-04-25T16:53:36.822Z</time></trkpt><trkpt lat="42.60393458761943" lon="11.843035262841045"><ele>535.0</ele><time>2026-04-25T16:53:37.822Z</time></trkpt><trkpt lat="42.60381448190769" lon="11.842954572949889"><ele>535.0</ele><time>2026-04-25T16:53:38.822Z</time></trkpt><trkpt lat="42.60370967909419" lon="11.842886594233011"><ele>535.0</ele><time>2026-04-25T16:53:39.822Z</time></trkpt><trkpt lat="42.60361443258477" lon="11.84283369996793"><ele>534.6</ele><time>2026-04-25T16:53:40.822Z</time></trkpt><trkpt lat="42.60351720666992" lon="11.842786022097314"><ele>534.2</ele><time>2026-04-25T16:53:41.822Z</time></trkpt><trkpt lat="42.603421213920534" lon="11.842735844358304"><ele>533.8</ele><time>2026-04-25T16:53:42.822Z</time></trkpt><trkpt lat="42.60331827172548" lon="11.842680328127548"><ele>533.4</ele><time>2026-04-25T16:53:43.822Z</time></trkpt><trkpt lat="42.60320704178654" lon="11.842615466569692"><ele>533.0</ele><time>2026-04-25T16:53:44.822Z</time></trkpt><trkpt lat="42.60307477096048" lon="11.842552015287728"><ele>533.0</ele><time>2026-04-25T16:53:45.822Z</time></trkpt><trkpt lat="42.60293333740333" lon="11.84247935375269"><ele>533.0</ele><time>2026-04-25T16:53:46.822Z</time></trkpt><trkpt lat="42.602785666665746" lon="11.842398930318659"><ele>533.0</ele><time>2026-04-25T16:53:47.822Z</time></trkpt><trkpt lat="42.602633660680226" lon="11.842312493353193"><ele>533.3333333333333</ele><time>2026-04-25T16:53:48.822Z</time></trkpt><trkpt lat="42.60247085149953" lon="11.842220287477382"><ele>533.6666666666666</ele><time>2026-04-25T16:53:49.822Z</time></trkpt><trkpt lat="42.60230496910517" lon="11.842126271578573"><ele>534.0</ele><time>2026-04-25T16:53:50.822Z</time></trkpt><trkpt lat="42.602137936151586" lon="11.842034018005704"><ele>534.0</ele><time>2026-04-25T16:53:51.821Z</time></trkpt><trkpt lat="42.601969010594814" lon="11.841945048702973"><ele>534.0</ele><time>2026-04-25T16:53:52.821Z</time></trkpt><trkpt lat="42.60179701307803" lon="11.841844377125163"><ele>534.0</ele><time>2026-04-25T16:53:53.821Z</time></trkpt><trkpt lat="42.60161731330898" lon="11.841736992048459"><ele>534.3333333333334</ele><time>2026-04-25T16:53:54.821Z</time></trkpt><trkpt lat="42.6014324708145" lon="11.841626811955921"><ele>534.6666666666667</ele><time>2026-04-25T16:53:55.821Z</time></trkpt><trkpt lat="42.601243695888094" lon="11.84151511466019"><ele>535.0</ele><time>2026-04-25T16:53:56.821Z</time></trkpt><trkpt lat="42.60105775219911" lon="11.84139895873339"><ele>532.5</ele><time>2026-04-25T16:53:57.821Z</time></trkpt><trkpt lat="42.600863422887876" lon="11.841292408679003"><ele>530.0</ele><time>2026-04-25T16:53:58.821Z</time></trkpt><trkpt lat="42.60063974833663" lon="11.841143826412463"><ele>530.0</ele><time>2026-04-25T16:53:59.821Z</time></trkpt><trkpt lat="42.6004326746339" lon="11.841031962279414"><ele>530.0</ele><time>2026-04-25T16:54:00.821Z</time></trkpt><trkpt lat="42.60023604426565" lon="11.840910008077534"><ele>530.0</ele><time>2026-04-25T16:54:01.821Z</time></trkpt><trkpt lat="42.60004484177036" lon="11.840784469081372"><ele>528.3333333333333</ele><time>2026-04-25T16:54:02.821Z</time></trkpt><trkpt lat="42.59985325742324" lon="11.840669156890444"><ele>526.6666666666666</ele><time>2026-04-25T16:54:03.821Z</time></trkpt><trkpt lat="42.59965080997503" lon="11.840558126437228"><ele>525.0</ele><time>2026-04-25T16:54:04.821Z</time></trkpt><trkpt lat="42.59946439748101" lon="11.840440923186561"><ele>525.0</ele><time>2026-04-25T16:54:05.821Z</time></trkpt><trkpt lat="42.59929147616993" lon="11.840329436493862"><ele>525.0</ele><time>2026-04-25T16:54:06.821Z</time></trkpt><trkpt lat="42.59911917544121" lon="11.840209172666114"><ele>525.0</ele><time>2026-04-25T16:54:07.821Z</time></trkpt><trkpt lat="42.59895100271381" lon="11.84009449094604"><ele>524.3333333333334</ele><time>2026-04-25T16:54:08.821Z</time></trkpt><trkpt lat="42.598786335314294" lon="11.839981179386482"><ele>523.6666666666667</ele><time>2026-04-25T16:54:09.821Z</time></trkpt><trkpt lat="42.598619018489906" lon="11.839899168861365"><ele>523.0</ele><time>2026-04-25T16:54:10.821Z</time></trkpt><trkpt lat="42.59845378523294" lon="11.83980310167086"><ele>523.0</ele><time>2026-04-25T16:54:11.82Z</time></trkpt><trkpt lat="42.59829154082091" lon="11.839708772159968"><ele>523.0</ele><time>2026-04-25T16:54:12.82Z</time></trkpt><trkpt lat="42.59812584646252" lon="11.83961243690257"><ele>523.0</ele><time>2026-04-25T16:54:13.82Z</time></trkpt><trkpt lat="42.597953177581964" lon="11.83951204665963"><ele>522.3333333333334</ele><time>2026-04-25T16:54:14.82Z</time></trkpt><trkpt lat="42.59778200614766" lon="11.839394954453553"><ele>521.6666666666666</ele><time>2026-04-25T16:54:15.82Z</time></trkpt><trkpt lat="42.597603360425225" lon="11.839293707937935"><ele>521.0</ele><time>2026-04-25T16:54:16.82Z</time></trkpt><trkpt lat="42.59741309674094" lon="11.839193930200288"><ele>519.6666666666666</ele><time>2026-04-25T16:54:17.82Z</time></trkpt><trkpt lat="42.5972255424102" lon="11.839101032328882"><ele>518.3333333333334</ele><time>2026-04-25T16:54:18.82Z</time></trkpt><trkpt lat="42.5970320739568" lon="11.83901627180064"><ele>517.0</ele><time>2026-04-25T16:54:19.82Z</time></trkpt><trkpt lat="42.59684839146496" lon="11.838921746583534"><ele>517.0</ele><time>2026-04-25T16:54:20.82Z</time></trkpt><trkpt lat="42.59665930750484" lon="11.838820501022974"><ele>517.0</ele><time>2026-04-25T16:54:21.82Z</time></trkpt><trkpt lat="42.59647557997005" lon="11.83873230386451"><ele>517.0</ele><time>2026-04-25T16:54:22.82Z</time></trkpt><trkpt lat="42.596296391923026" lon="11.838639649517726"><ele>518.3333333333334</ele><time>2026-04-25T16:54:23.82Z</time></trkpt><trkpt lat="42.59611668535381" lon="11.83854583398227"><ele>519.6666666666666</ele><time>2026-04-25T16:54:24.82Z</time></trkpt><trkpt lat="42.5959399861351" lon="11.838456857835155"><ele>521.0</ele><time>2026-04-25T16:54:25.82Z</time></trkpt><trkpt lat="42.595768673913575" lon="11.838355420035246"><ele>520.0</ele><time>2026-04-25T16:54:26.82Z</time></trkpt><trkpt lat="42.59560091767078" lon="11.838267972749735"><ele>519.0</ele><time>2026-04-25T16:54:27.82Z</time></trkpt><trkpt lat="42.59542852642775" lon="11.838174993840225"><ele>518.0</ele><time>2026-04-25T16:54:28.82Z</time></trkpt><trkpt lat="42.59524750088265" lon="11.83808689665117"><ele>518.0</ele><time>2026-04-25T16:54:29.82Z</time></trkpt><trkpt lat="42.595072673911034" lon="11.837976861154752"><ele>518.0</ele><time>2026-04-25T16:54:30.82Z</time></trkpt><trkpt lat="42.59488914029287" lon="11.837895326131072"><ele>518.0</ele><time>2026-04-25T16:54:31.82Z</time></trkpt><trkpt lat="42.594694124063274" lon="11.837825913728764"><ele>515.6666666666666</ele><time>2026-04-25T16:54:32.82Z</time></trkpt><trkpt lat="42.594489889161665" lon="11.837794375812575"><ele>513.3333333333334</ele><time>2026-04-25T16:54:33.819Z</time></trkpt><trkpt lat="42.594277959005694" lon="11.837753641191531"><ele>511.0</ele><time>2026-04-25T16:54:34.819Z</time></trkpt><trkpt lat="42.59406233266145" lon="11.83771979187416"><ele>511.0</ele><time>2026-04-25T16:54:35.819Z</time></trkpt><trkpt lat="42.59383894988458" lon="11.837688609297082"><ele>511.0</ele><time>2026-04-25T16:54:36.819Z</time></trkpt><trkpt lat="42.59361472324545" lon="11.837662058686854"><ele>510.33333333333337</ele><time>2026-04-25T16:54:37.819Z</time></trkpt><trkpt lat="42.593403826914404" lon="11.837640676918685"><ele>509.66666666666663</ele><time>2026-04-25T16:54:38.819Z</time></trkpt><trkpt lat="42.59320120556216" lon="11.83762883927902"><ele>509.0</ele><time>2026-04-25T16:54:39.819Z</time></trkpt><trkpt lat="42.5930053199231" lon="11.837606564219652"><ele>506.3333333333333</ele><time>2026-04-25T16:54:40.819Z</time></trkpt><trkpt lat="42.592816100788525" lon="11.837587403162063"><ele>503.66666666666663</ele><time>2026-04-25T16:54:41.819Z</time></trkpt><trkpt lat="42.59263814848432" lon="11.837565883658018"><ele>501.0</ele><time>2026-04-25T16:54:42.819Z</time></trkpt><trkpt lat="42.592450157993056" lon="11.837543533920547"><ele>501.0</ele><time>2026-04-25T16:54:43.819Z</time></trkpt><trkpt lat="42.59226017622739" lon="11.837526098400511"><ele>501.0</ele><time>2026-04-25T16:54:44.819Z</time></trkpt><trkpt lat="42.5920709472796" lon="11.837468192036775"><ele>501.0</ele><time>2026-04-25T16:54:45.819Z</time></trkpt><trkpt lat="42.59187622674576" lon="11.837431895636984"><ele>501.0</ele><time>2026-04-25T16:54:46.819Z</time></trkpt><trkpt lat="42.59169278071196" lon="11.83734798615456"><ele>501.0</ele><time>2026-04-25T16:54:47.819Z</time></trkpt><trkpt lat="42.59150989625342" lon="11.837260412219695"><ele>501.0</ele><time>2026-04-25T16:54:48.819Z</time></trkpt><trkpt lat="42.591327844703756" lon="11.83717202639462"><ele>499.33333333333337</ele><time>2026-04-25T16:54:49.819Z</time></trkpt><trkpt lat="42.59114182478846" lon="11.83708597890704"><ele>497.6666666666667</ele><time>2026-04-25T16:54:50.819Z</time></trkpt><trkpt lat="42.59095673020495" lon="11.836999429941542"><ele>496.0</ele><time>2026-04-25T16:54:51.819Z</time></trkpt><trkpt lat="42.59076906726891" lon="11.83690770530758"><ele>496.0</ele><time>2026-04-25T16:54:52.819Z</time></trkpt><trkpt lat="42.590581304461715" lon="11.836812534108622"><ele>496.0</ele><time>2026-04-25T16:54:53.819Z</time></trkpt><trkpt lat="42.59038977923199" lon="11.836720216017056"><ele>496.0</ele><time>2026-04-25T16:54:54.819Z</time></trkpt><trkpt lat="42.590198726893306" lon="11.836635204716297"><ele>495.0</ele><time>2026-04-25T16:54:55.818Z</time></trkpt><trkpt lat="42.590005908544065" lon="11.836544643965837"><ele>494.0</ele><time>2026-04-25T16:54:56.818Z</time></trkpt><trkpt lat="42.58981213451554" lon="11.836450457266405"><ele>493.0</ele><time>2026-04-25T16:54:57.818Z</time></trkpt><trkpt lat="42.58961710203209" lon="11.83635643879976"><ele>494.6666666666667</ele><time>2026-04-25T16:54:58.818Z</time></trkpt><trkpt lat="42.589423273825055" lon="11.836260366919507"><ele>496.33333333333337</ele><time>2026-04-25T16:54:59.818Z</time></trkpt><trkpt lat="42.58922699372585" lon="11.836165358940063"><ele>498.0</ele><time>2026-04-25T16:55:00.818Z</time></trkpt><trkpt lat="42.58903174518019" lon="11.836075785970664"><ele>498.0</ele><time>2026-04-25T16:55:01.818Z</time></trkpt><trkpt lat="42.58883262489281" lon="11.835980974791584"><ele>498.0</ele><time>2026-04-25T16:55:02.818Z</time></trkpt><trkpt lat="42.58863206112455" lon="11.83588122975198"><ele>498.0</ele><time>2026-04-25T16:55:03.818Z</time></trkpt><trkpt lat="42.58843095615169" lon="11.835777834695632"><ele>495.5</ele><time>2026-04-25T16:55:04.818Z</time></trkpt><trkpt lat="42.58821309348522" lon="11.835716134853978"><ele>493.0</ele><time>2026-04-25T16:55:05.818Z</time></trkpt><trkpt lat="42.58798406936258" lon="11.835644459003571"><ele>492.5</ele><time>2026-04-25T16:55:06.818Z</time></trkpt><trkpt lat="42.587750110334206" lon="11.835569210367254"><ele>492.0</ele><time>2026-04-25T16:55:07.818Z</time></trkpt><trkpt lat="42.587519207547814" lon="11.835493562205434"><ele>492.0</ele><time>2026-04-25T16:55:08.818Z</time></trkpt><trkpt lat="42.58728844806506" lon="11.835408146295286"><ele>492.0</ele><time>2026-04-25T16:55:09.818Z</time></trkpt><trkpt lat="42.587057062184925" lon="11.835329200974199"><ele>495.0</ele><time>2026-04-25T16:55:10.818Z</time></trkpt><trkpt lat="42.58682486664531" lon="11.835250041804832"><ele>498.0</ele><time>2026-04-25T16:55:11.818Z</time></trkpt><trkpt lat="42.58659911526611" lon="11.83515668412172"><ele>494.5</ele><time>2026-04-25T16:55:12.818Z</time></trkpt><trkpt lat="42.58637488681999" lon="11.835058777772737"><ele>491.0</ele><time>2026-04-25T16:55:13.818Z</time></trkpt><trkpt lat="42.58614907507654" lon="11.834947537115347"><ele>491.0</ele><time>2026-04-25T16:55:14.818Z</time></trkpt><trkpt lat="42.58591816579145" lon="11.8348297273526"><ele>491.0</ele><time>2026-04-25T16:55:15.818Z</time></trkpt><trkpt lat="42.585690663445774" lon="11.834700651178633"><ele>491.0</ele><time>2026-04-25T16:55:16.818Z</time></trkpt><trkpt lat="42.58547548260377" lon="11.834540825776545"><ele>491.0</ele><time>2026-04-25T16:55:17.818Z</time></trkpt><trkpt lat="42.58524774139652" lon="11.83439785119489"><ele>486.0</ele><time>2026-04-25T16:55:18.817Z</time></trkpt><trkpt lat="42.58502009278158" lon="11.834255792733419"><ele>481.0</ele><time>2026-04-25T16:55:19.817Z</time></trkpt><trkpt lat="42.58479484521587" lon="11.8341139695796"><ele>481.0</ele><time>2026-04-25T16:55:20.817Z</time></trkpt><trkpt lat="42.58457374311063" lon="11.833974198279138"><ele>481.0</ele><time>2026-04-25T16:55:21.817Z</time></trkpt><trkpt lat="42.58435046779707" lon="11.833838562653792"><ele>485.0</ele><time>2026-04-25T16:55:22.817Z</time></trkpt><trkpt lat="42.58412847357986" lon="11.833694220428399"><ele>489.0</ele><time>2026-04-25T16:55:23.817Z</time></trkpt><trkpt lat="42.583899632974045" lon="11.833545539106801"><ele>489.0</ele><time>2026-04-25T16:55:24.817Z</time></trkpt><trkpt lat="42.583683323779134" lon="11.83342040430673"><ele>489.0</ele><time>2026-04-25T16:55:25.817Z</time></trkpt><trkpt lat="42.58348393193959" lon="11.83329127188332"><ele>489.0</ele><time>2026-04-25T16:55:26.817Z</time></trkpt><trkpt lat="42.58329597692413" lon="11.83316729562147"><ele>489.0</ele><time>2026-04-25T16:55:27.817Z</time></trkpt><trkpt lat="42.5831167189488" lon="11.833045248062591"><ele>489.0</ele><time>2026-04-25T16:55:28.82Z</time></trkpt><trkpt lat="42.58293254283178" lon="11.832952274985391"><ele>491.33333333333337</ele><time>2026-04-25T16:55:29.82Z</time></trkpt><trkpt lat="42.582740667107615" lon="11.832888783077593"><ele>493.6666666666667</ele><time>2026-04-25T16:55:30.82Z</time></trkpt><trkpt lat="42.582537373653615" lon="11.832850237096027"><ele>496.0</ele><time>2026-04-25T16:55:31.82Z</time></trkpt><trkpt lat="42.58233527710759" lon="11.832838662728607"><ele>496.0</ele><time>2026-04-25T16:55:32.819Z</time></trkpt><trkpt lat="42.582125713644245" lon="11.832827166346773"><ele>496.0</ele><time>2026-04-25T16:55:33.819Z</time></trkpt><trkpt lat="42.58191121380074" lon="11.83283789861262"><ele>496.0</ele><time>2026-04-25T16:55:34.819Z</time></trkpt><trkpt lat="42.58169578208677" lon="11.832848677504202"><ele>492.6666666666667</ele><time>2026-04-25T16:55:35.82Z</time></trkpt><trkpt lat="42.58148348597735" lon="11.832859076202338"><ele>489.33333333333337</ele><time>2026-04-25T16:55:36.82Z</time></trkpt><trkpt lat="42.58127055973841" lon="11.83286608564011"><ele>486.0</ele><time>2026-04-25T16:55:37.82Z</time></trkpt><trkpt lat="42.58105032885128" lon="11.832863950620279"><ele>482.0</ele><time>2026-04-25T16:55:38.819Z</time></trkpt><trkpt lat="42.58083670629194" lon="11.832847730240907"><ele>478.0</ele><time>2026-04-25T16:55:39.819Z</time></trkpt><trkpt lat="42.58062462873956" lon="11.83280515509668"><ele>474.0</ele><time>2026-04-25T16:55:40.819Z</time></trkpt><trkpt lat="42.58040037063163" lon="11.832751575657658"><ele>476.0</ele><time>2026-04-25T16:55:41.819Z</time></trkpt><trkpt lat="42.580179330363514" lon="11.832695973390523"><ele>478.0</ele><time>2026-04-25T16:55:42.819Z</time></trkpt><trkpt lat="42.579958586547356" lon="11.832640445697894"><ele>480.0</ele><time>2026-04-25T16:55:43.819Z</time></trkpt><trkpt lat="42.579719863543815" lon="11.832580895732864"><ele>483.5</ele><time>2026-04-25T16:55:44.819Z</time></trkpt><trkpt lat="42.57949218308179" lon="11.832523957077031"><ele>487.0</ele><time>2026-04-25T16:55:45.819Z</time></trkpt><trkpt lat="42.57926443941239" lon="11.832465467614211"><ele>487.0</ele><time>2026-04-25T16:55:46.819Z</time></trkpt><trkpt lat="42.57903421610021" lon="11.832406341333098"><ele>487.0</ele><time>2026-04-25T16:55:47.819Z</time></trkpt><trkpt lat="42.57881290220499" lon="11.83234950317476"><ele>485.6666666666667</ele><time>2026-04-25T16:55:48.819Z</time></trkpt><trkpt lat="42.57860180718819" lon="11.83229542405537"><ele>484.33333333333337</ele><time>2026-04-25T16:55:49.819Z</time></trkpt><trkpt lat="42.578382095275025" lon="11.832239383362612"><ele>483.0</ele><time>2026-04-25T16:55:50.819Z</time></trkpt><trkpt lat="42.57816097157652" lon="11.832182982386662"><ele>483.0</ele><time>2026-04-25T16:55:51.819Z</time></trkpt><trkpt lat="42.57795244601974" lon="11.832129794748889"><ele>483.0</ele><time>2026-04-25T16:55:52.819Z</time></trkpt><trkpt lat="42.577737575233634" lon="11.832111180923313"><ele>483.0</ele><time>2026-04-25T16:55:53.819Z</time></trkpt><trkpt lat="42.577530931138405" lon="11.832049570397409"><ele>482.33333333333337</ele><time>2026-04-25T16:55:54.819Z</time></trkpt><trkpt lat="42.577327431689135" lon="11.8319974214876"><ele>481.6666666666667</ele><time>2026-04-25T16:55:55.819Z</time></trkpt><trkpt lat="42.57711821624009" lon="11.831959461647095"><ele>481.0</ele><time>2026-04-25T16:55:56.819Z</time></trkpt><trkpt lat="42.57691263653763" lon="11.83192678639469"><ele>481.0</ele><time>2026-04-25T16:55:57.819Z</time></trkpt><trkpt lat="42.57670655799286" lon="11.831892481325232"><ele>481.0</ele><time>2026-04-25T16:55:58.819Z</time></trkpt><trkpt lat="42.5765009948412" lon="11.831862076867205"><ele>481.0</ele><time>2026-04-25T16:55:59.819Z</time></trkpt><trkpt lat="42.57629310534481" lon="11.831826981402047"><ele>484.0</ele><time>2026-04-25T16:56:00.819Z</time></trkpt><trkpt lat="42.57607973237479" lon="11.831771724474967"><ele>487.0</ele><time>2026-04-25T16:56:01.818Z</time></trkpt><trkpt lat="42.57586549456222" lon="11.8317034935125"><ele>490.0</ele><time>2026-04-25T16:56:02.818Z</time></trkpt><trkpt lat="42.575669084186586" lon="11.831607234236143"><ele>490.0</ele><time>2026-04-25T16:56:03.818Z</time></trkpt><trkpt lat="42.57547895833443" lon="11.831528933033676"><ele>490.0</ele><time>2026-04-25T16:56:04.818Z</time></trkpt><trkpt lat="42.575296377413196" lon="11.831469500683813"><ele>490.0</ele><time>2026-04-25T16:56:05.818Z</time></trkpt><trkpt lat="42.575116237672376" lon="11.831404925067774"><ele>491.33333333333337</ele><time>2026-04-25T16:56:06.818Z</time></trkpt><trkpt lat="42.574937510785084" lon="11.831335152078113"><ele>492.66666666666663</ele><time>2026-04-25T16:56:07.818Z</time></trkpt><trkpt lat="42.57476181234408" lon="11.83123970829265"><ele>494.0</ele><time>2026-04-25T16:56:08.818Z</time></trkpt><trkpt lat="42.57458963205266" lon="11.831149979643921"><ele>493.3333333333333</ele><time>2026-04-25T16:56:09.818Z</time></trkpt><trkpt lat="42.57441093157731" lon="11.831062748195642"><ele>492.66666666666663</ele><time>2026-04-25T16:56:10.818Z</time></trkpt><trkpt lat="42.574239949906605" lon="11.830981703435251"><ele>492.0</ele><time>2026-04-25T16:56:11.818Z</time></trkpt><trkpt lat="42.57407276110008" lon="11.830867143486026"><ele>492.0</ele><time>2026-04-25T16:56:12.818Z</time></trkpt><trkpt lat="42.57390036020057" lon="11.830742831680839"><ele>492.0</ele><time>2026-04-25T16:56:13.818Z</time></trkpt><trkpt lat="42.573735506846276" lon="11.83060275009251"><ele>492.0</ele><time>2026-04-25T16:56:14.818Z</time></trkpt><trkpt lat="42.57357030409489" lon="11.830466644927736"><ele>491.66666666666663</ele><time>2026-04-25T16:56:15.818Z</time></trkpt><trkpt lat="42.573405521267446" lon="11.830329997598376"><ele>491.3333333333333</ele><time>2026-04-25T16:56:16.818Z</time></trkpt><trkpt lat="42.5732379691663" lon="11.830197260354925"><ele>491.0</ele><time>2026-04-25T16:56:17.818Z</time></trkpt><trkpt lat="42.57306841630149" lon="11.830066401905134"><ele>491.0</ele><time>2026-04-25T16:56:18.818Z</time></trkpt><trkpt lat="42.57290211130817" lon="11.829935910758172"><ele>491.0</ele><time>2026-04-25T16:56:19.818Z</time></trkpt><trkpt lat="42.572736360135586" lon="11.82980477248374"><ele>491.0</ele><time>2026-04-25T16:56:20.818Z</time></trkpt><trkpt lat="42.57257352987833" lon="11.829685923926462"><ele>491.0</ele><time>2026-04-25T16:56:21.818Z</time></trkpt><trkpt lat="42.572417843307036" lon="11.829570059134653"><ele>491.0</ele><time>2026-04-25T16:56:22.818Z</time></trkpt><trkpt lat="42.572261930257724" lon="11.829455942449766"><ele>491.0</ele><time>2026-04-25T16:56:23.818Z</time></trkpt><trkpt lat="42.57211362291742" lon="11.829347865756338"><ele>495.0</ele><time>2026-04-25T16:56:24.817Z</time></trkpt><trkpt lat="42.57197417531591" lon="11.829244419566285"><ele>499.0</ele><time>2026-04-25T16:56:25.817Z</time></trkpt><trkpt lat="42.5718417429679" lon="11.829149137074573"><ele>503.0</ele><time>2026-04-25T16:56:26.817Z</time></trkpt><trkpt lat="42.57171805656514" lon="11.82905191664127"><ele>503.0</ele><time>2026-04-25T16:56:27.817Z</time></trkpt><trkpt lat="42.571595189058804" lon="11.828955048318635"><ele>503.0</ele><time>2026-04-25T16:56:28.817Z</time></trkpt><trkpt lat="42.571468471436866" lon="11.828863725023806"><ele>503.0</ele><time>2026-04-25T16:56:29.817Z</time></trkpt><trkpt lat="42.57133510777472" lon="11.828775414713919"><ele>503.0</ele><time>2026-04-25T16:56:30.817Z</time></trkpt><trkpt lat="42.57120518510489" lon="11.828678929053916"><ele>503.75</ele><time>2026-04-25T16:56:31.817Z</time></trkpt><trkpt lat="42.57107894548673" lon="11.828580171135117"><ele>504.5</ele><time>2026-04-25T16:56:32.817Z</time></trkpt><trkpt lat="42.57095211006278" lon="11.828482278384582"><ele>505.25</ele><time>2026-04-25T16:56:33.817Z</time></trkpt><trkpt lat="42.57082074768713" lon="11.828391289991552"><ele>506.0</ele><time>2026-04-25T16:56:34.817Z</time></trkpt><trkpt lat="42.57068903115212" lon="11.828298457906433"><ele>506.3333333333333</ele><time>2026-04-25T16:56:35.817Z</time></trkpt><trkpt lat="42.570553903730826" lon="11.828201780815553"><ele>506.66666666666663</ele><time>2026-04-25T16:56:36.817Z</time></trkpt><trkpt lat="42.57042348858074" lon="11.82809937932188"><ele>507.0</ele><time>2026-04-25T16:56:37.817Z</time></trkpt><trkpt lat="42.570294319007665" lon="11.82800103322643"><ele>507.0</ele><time>2026-04-25T16:56:38.817Z</time></trkpt><trkpt lat="42.57016358564978" lon="11.827903959078276"><ele>507.0</ele><time>2026-04-25T16:56:39.817Z</time></trkpt><trkpt lat="42.570031010772794" lon="11.82780517375768"><ele>507.0</ele><time>2026-04-25T16:56:40.817Z</time></trkpt><trkpt lat="42.56989909868313" lon="11.827707423152361"><ele>509.25</ele><time>2026-04-25T16:56:41.817Z</time></trkpt><trkpt lat="42.56976439927186" lon="11.827615905854628"><ele>511.5</ele><time>2026-04-25T16:56:42.817Z</time></trkpt><trkpt lat="42.56963693512529" lon="11.827526880645543"><ele>513.75</ele><time>2026-04-25T16:56:43.817Z</time></trkpt><trkpt lat="42.56952329055427" lon="11.827433161894167"><ele>516.0</ele><time>2026-04-25T16:56:44.817Z</time></trkpt><trkpt lat="42.56941178914462" lon="11.827336220076846"><ele>516.25</ele><time>2026-04-25T16:56:45.817Z</time></trkpt><trkpt lat="42.56929906853833" lon="11.827244824360449"><ele>516.5</ele><time>2026-04-25T16:56:46.817Z</time></trkpt><trkpt lat="42.56918988447588" lon="11.827157326929266"><ele>516.75</ele><time>2026-04-25T16:56:47.816Z</time></trkpt><trkpt lat="42.569082735080656" lon="11.827062026075133"><ele>517.0</ele><time>2026-04-25T16:56:48.816Z</time></trkpt><trkpt lat="42.56898288773837" lon="11.826955742386591"><ele>517.0</ele><time>2026-04-25T16:56:49.816Z</time></trkpt><trkpt lat="42.568882923424475" lon="11.826842440158215"><ele>517.0</ele><time>2026-04-25T16:56:50.816Z</time></trkpt><trkpt lat="42.56877983759308" lon="11.826720742066907"><ele>517.0</ele><time>2026-04-25T16:56:51.816Z</time></trkpt><trkpt lat="42.5686706956656" lon="11.826602420925633"><ele>517.0</ele><time>2026-04-25T16:56:52.816Z</time></trkpt><trkpt lat="42.56855908852773" lon="11.826484909450784"><ele>517.75</ele><time>2026-04-25T16:56:53.816Z</time></trkpt><trkpt lat="42.56844935028117" lon="11.826363859352073"><ele>518.5</ele><time>2026-04-25T16:56:54.816Z</time></trkpt><trkpt lat="42.56834603748449" lon="11.826242300565923"><ele>519.25</ele><time>2026-04-25T16:56:55.816Z</time></trkpt><trkpt lat="42.56823955320444" lon="11.826118069672733"><ele>520.0</ele><time>2026-04-25T16:56:56.816Z</time></trkpt><trkpt lat="42.56812730681481" lon="11.8259929495426"><ele>520.0</ele><time>2026-04-25T16:56:57.816Z</time></trkpt><trkpt lat="42.56801269965955" lon="11.825870201986797"><ele>520.0</ele><time>2026-04-25T16:56:58.816Z</time></trkpt><trkpt lat="42.567904071369895" lon="11.82574147559783"><ele>520.0</ele><time>2026-04-25T16:56:59.816Z</time></trkpt><trkpt lat="42.56779593433386" lon="11.825619453804347"><ele>520.0</ele><time>2026-04-25T16:57:00.816Z</time></trkpt><trkpt lat="42.56768577199286" lon="11.825490488331008"><ele>520.0</ele><time>2026-04-25T16:57:01.816Z</time></trkpt><trkpt lat="42.56757710666418" lon="11.825364536293478"><ele>520.0</ele><time>2026-04-25T16:57:02.816Z</time></trkpt><trkpt lat="42.56746620090594" lon="11.825240125497665"><ele>520.0</ele><time>2026-04-25T16:57:03.816Z</time></trkpt><trkpt lat="42.56736079729681" lon="11.82511738963842"><ele>520.0</ele><time>2026-04-25T16:57:04.816Z</time></trkpt><trkpt lat="42.56725040531425" lon="11.824999914808938"><ele>520.75</ele><time>2026-04-25T16:57:05.816Z</time></trkpt><trkpt lat="42.56714253013558" lon="11.824887253390695"><ele>521.5</ele><time>2026-04-25T16:57:06.816Z</time></trkpt><trkpt lat="42.56703954153076" lon="11.82477331493392"><ele>522.25</ele><time>2026-04-25T16:57:07.816Z</time></trkpt><trkpt lat="42.566931072302786" lon="11.824651775387975"><ele>523.0</ele><time>2026-04-25T16:57:08.816Z</time></trkpt><trkpt lat="42.56683086722361" lon="11.824535679579217"><ele>524.5</ele><time>2026-04-25T16:57:09.816Z</time></trkpt><trkpt lat="42.566732617087645" lon="11.82442050565153"><ele>526.0</ele><time>2026-04-25T16:57:10.815Z</time></trkpt><trkpt lat="42.56663614232031" lon="11.824312548610632"><ele>527.5</ele><time>2026-04-25T16:57:11.815Z</time></trkpt><trkpt lat="42.5665508436935" lon="11.824209609211037"><ele>529.0</ele><time>2026-04-25T16:57:12.815Z</time></trkpt><trkpt lat="42.56647312384394" lon="11.824106202763044"><ele>529.1666666666667</ele><time>2026-04-25T16:57:13.815Z</time></trkpt><trkpt lat="42.566402240249666" lon="11.824015650946848"><ele>529.3333333333334</ele><time>2026-04-25T16:57:14.815Z</time></trkpt><trkpt lat="42.56633712829333" lon="11.823930959463805"><ele>529.5</ele><time>2026-04-25T16:57:15.815Z</time></trkpt><trkpt lat="42.56628458853613" lon="11.82384556363099"><ele>529.6666666666666</ele><time>2026-04-25T16:57:16.815Z</time></trkpt><trkpt lat="42.566243708017154" lon="11.823776122813005"><ele>529.8333333333333</ele><time>2026-04-25T16:57:17.815Z</time></trkpt><trkpt lat="42.56618308857915" lon="11.823688354429814"><ele>530.0</ele><time>2026-04-25T16:57:19.815Z</time></trkpt><trkpt lat="42.56605576176591" lon="11.823813203173193"><ele>531.0</ele><time>2026-04-25T16:57:22.815Z</time></trkpt><trkpt lat="42.566037936691444" lon="11.823930201276386"><ele>532.0</ele><time>2026-04-25T16:57:23.815Z</time></trkpt><trkpt lat="42.566036229511695" lon="11.8240658244684"><ele>533.0</ele><time>2026-04-25T16:57:24.815Z</time></trkpt><trkpt lat="42.56604067669248" lon="11.824218722097832"><ele>534.0</ele><time>2026-04-25T16:57:25.815Z</time></trkpt><trkpt lat="42.566028552081725" lon="11.824377210205563"><ele>535.0</ele><time>2026-04-25T16:57:26.815Z</time></trkpt><trkpt lat="42.56599415315199" lon="11.824533662184088"><ele>535.5</ele><time>2026-04-25T16:57:27.815Z</time></trkpt><trkpt lat="42.565952248550396" lon="11.82467442512926"><ele>536.0</ele><time>2026-04-25T16:57:28.815Z</time></trkpt><trkpt lat="42.565885106768924" lon="11.824788002816218"><ele>536.5</ele><time>2026-04-25T16:57:29.815Z</time></trkpt><trkpt lat="42.56580681882857" lon="11.824893736283403"><ele>537.0</ele><time>2026-04-25T16:57:30.815Z</time></trkpt><trkpt lat="42.565700876738106" lon="11.824989106849857"><ele>537.0</ele><time>2026-04-25T16:57:31.815Z</time></trkpt><trkpt lat="42.5655715629237" lon="11.825069169861077"><ele>537.0</ele><time>2026-04-25T16:57:32.815Z</time></trkpt><trkpt lat="42.56542746875236" lon="11.825136378120924"><ele>537.0</ele><time>2026-04-25T16:57:33.814Z</time></trkpt><trkpt lat="42.565278232593016" lon="11.825197966319934"><ele>533.3333333333334</ele><time>2026-04-25T16:57:34.817Z</time></trkpt><trkpt lat="42.56512904556066" lon="11.82526311782611"><ele>529.6666666666667</ele><time>2026-04-25T16:57:35.817Z</time></trkpt><trkpt lat="42.56497882339189" lon="11.825320901137324"><ele>526.0</ele><time>2026-04-25T16:57:36.817Z</time></trkpt><trkpt lat="42.56482536852199" lon="11.825372800097016"><ele>526.0</ele><time>2026-04-25T16:57:37.817Z</time></trkpt><trkpt lat="42.56467252844698" lon="11.825430109104705"><ele>526.0</ele><time>2026-04-25T16:57:38.817Z</time></trkpt><trkpt lat="42.56452994337223" lon="11.825495450439545"><ele>526.0</ele><time>2026-04-25T16:57:39.817Z</time></trkpt><trkpt lat="42.56438734439954" lon="11.825572366226629"><ele>528.0</ele><time>2026-04-25T16:57:40.817Z</time></trkpt><trkpt lat="42.564250335015096" lon="11.825650843121675"><ele>530.0</ele><time>2026-04-25T16:57:41.816Z</time></trkpt><trkpt lat="42.56410753982638" lon="11.825706495050419"><ele>532.0</ele><time>2026-04-25T16:57:42.816Z</time></trkpt><trkpt lat="42.56397126530552" lon="11.825784209859783"><ele>534.0</ele><time>2026-04-25T16:57:43.817Z</time></trkpt><trkpt lat="42.56382791819885" lon="11.825866923683916"><ele>535.0</ele><time>2026-04-25T16:57:44.816Z</time></trkpt><trkpt lat="42.56367954942409" lon="11.825954809828495"><ele>536.0</ele><time>2026-04-25T16:57:45.816Z</time></trkpt><trkpt lat="42.56353135937427" lon="11.826050485539351"><ele>537.0</ele><time>2026-04-25T16:57:46.816Z</time></trkpt><trkpt lat="42.56338912471626" lon="11.826152367712293"><ele>532.6666666666666</ele><time>2026-04-25T16:57:47.817Z</time></trkpt><trkpt lat="42.56325409277518" lon="11.826262889485504"><ele>528.3333333333333</ele><time>2026-04-25T16:57:48.817Z</time></trkpt><trkpt lat="42.56313594211266" lon="11.826417176416198"><ele>524.0</ele><time>2026-04-25T16:57:49.817Z</time></trkpt><trkpt lat="42.563055832706524" lon="11.8265988802317"><ele>524.0</ele><time>2026-04-25T16:57:50.816Z</time></trkpt><trkpt lat="42.562983318840196" lon="11.826789200910856"><ele>524.0</ele><time>2026-04-25T16:57:51.816Z</time></trkpt><trkpt lat="42.56292764723608" lon="11.827002147348253"><ele>524.0</ele><time>2026-04-25T16:57:52.816Z</time></trkpt><trkpt lat="42.562882454701644" lon="11.82721975797782"><ele>521.6666666666666</ele><time>2026-04-25T16:57:53.816Z</time></trkpt><trkpt lat="42.56284193148763" lon="11.827442533809574"><ele>519.3333333333334</ele><time>2026-04-25T16:57:54.816Z</time></trkpt><trkpt lat="42.56279924110795" lon="11.827651708390187"><ele>517.0</ele><time>2026-04-25T16:57:55.816Z</time></trkpt><trkpt lat="42.562752338141834" lon="11.827871598010121"><ele>515.3333333333334</ele><time>2026-04-25T16:57:56.816Z</time></trkpt><trkpt lat="42.562704204461184" lon="11.828083054549102"><ele>513.6666666666666</ele><time>2026-04-25T16:57:57.816Z</time></trkpt><trkpt lat="42.562659182294695" lon="11.82829344221634"><ele>512.0</ele><time>2026-04-25T16:57:58.816Z</time></trkpt><trkpt lat="42.56261355752254" lon="11.828504031937854"><ele>510.0</ele><time>2026-04-25T16:57:59.816Z</time></trkpt><trkpt lat="42.56256930446794" lon="11.828719621874837"><ele>508.0</ele><time>2026-04-25T16:58:00.816Z</time></trkpt><trkpt lat="42.56252514422713" lon="11.828931184904288"><ele>506.0</ele><time>2026-04-25T16:58:01.816Z</time></trkpt><trkpt lat="42.56249106183865" lon="11.829152004510393"><ele>504.3333333333333</ele><time>2026-04-25T16:58:02.816Z</time></trkpt><trkpt lat="42.5624775511905" lon="11.829382422591241"><ele>502.66666666666663</ele><time>2026-04-25T16:58:03.816Z</time></trkpt><trkpt lat="42.56248931005982" lon="11.829622384320341"><ele>501.0</ele><time>2026-04-25T16:58:04.816Z</time></trkpt><trkpt lat="42.562513492071815" lon="11.829869123981265"><ele>501.0</ele><time>2026-04-25T16:58:05.816Z</time></trkpt><trkpt lat="42.56253468592479" lon="11.830105272547051"><ele>501.0</ele><time>2026-04-25T16:58:06.816Z</time></trkpt><trkpt lat="42.56255539230595" lon="11.830322856903006"><ele>501.0</ele><time>2026-04-25T16:58:07.816Z</time></trkpt><trkpt lat="42.56257185309227" lon="11.830510060316596"><ele>500.20000000000005</ele><time>2026-04-25T16:58:08.816Z</time></trkpt><trkpt lat="42.562582244199746" lon="11.830667002238684"><ele>499.40000000000003</ele><time>2026-04-25T16:58:09.816Z</time></trkpt><trkpt lat="42.56257877572289" lon="11.830802629849096"><ele>498.6</ele><time>2026-04-25T16:58:10.816Z</time></trkpt><trkpt lat="42.562574887312195" lon="11.830921866876048"><ele>497.8</ele><time>2026-04-25T16:58:11.816Z</time></trkpt><trkpt lat="42.56250515345188" lon="11.83101239752043"><ele>497.0</ele><time>2026-04-25T16:58:12.816Z</time></trkpt><trkpt lat="42.56244824203107" lon="11.83108511790839"><ele>496.40000000000003</ele><time>2026-04-25T16:58:13.815Z</time></trkpt><trkpt lat="42.56239031446729" lon="11.831135102010421"><ele>495.80000000000007</ele><time>2026-04-25T16:58:14.815Z</time></trkpt><trkpt lat="42.56232614395124" lon="11.831190785057853"><ele>495.2</ele><time>2026-04-25T16:58:16.815Z</time></trkpt><trkpt lat="42.562233420415026" lon="11.831297051152399"><ele>494.6</ele><time>2026-04-25T16:58:18.815Z</time></trkpt><trkpt lat="42.5622713747858" lon="11.831506384520885"><ele>494.0</ele><time>2026-04-25T16:58:19.815Z</time></trkpt><trkpt lat="42.56229065522357" lon="11.83170253910284"><ele>492.66666666666663</ele><time>2026-04-25T16:58:20.815Z</time></trkpt><trkpt lat="42.56231282420366" lon="11.831926370684283"><ele>491.33333333333337</ele><time>2026-04-25T16:58:21.815Z</time></trkpt><trkpt lat="42.562332310156684" lon="11.832179594038013"><ele>490.0</ele><time>2026-04-25T16:58:22.815Z</time></trkpt><trkpt lat="42.56235695089005" lon="11.832458299910554"><ele>489.0</ele><time>2026-04-25T16:58:23.815Z</time></trkpt><trkpt lat="42.56238688821057" lon="11.832755073269142"><ele>488.0</ele><time>2026-04-25T16:58:24.815Z</time></trkpt><trkpt lat="42.56242180227805" lon="11.833065476069496"><ele>488.0</ele><time>2026-04-25T16:58:25.815Z</time></trkpt><trkpt lat="42.56245927651104" lon="11.833389824038164"><ele>488.0</ele><time>2026-04-25T16:58:26.815Z</time></trkpt><trkpt lat="42.562497617658174" lon="11.833728638297824"><ele>486.5</ele><time>2026-04-25T16:58:27.815Z</time></trkpt><trkpt lat="42.56253215416281" lon="11.834078348911795"><ele>485.0</ele><time>2026-04-25T16:58:28.815Z</time></trkpt><trkpt lat="42.56256214772077" lon="11.834429479759528"><ele>483.0</ele><time>2026-04-25T16:58:29.815Z</time></trkpt><trkpt lat="42.56258968919795" lon="11.834783010516958"><ele>481.0</ele><time>2026-04-25T16:58:30.815Z</time></trkpt><trkpt lat="42.562621683555115" lon="11.835133737392491"><ele>481.0</ele><time>2026-04-25T16:58:31.815Z</time></trkpt><trkpt lat="42.56265975027135" lon="11.835479950392076"><ele>481.0</ele><time>2026-04-25T16:58:32.815Z</time></trkpt><trkpt lat="42.56269829144178" lon="11.835815924264645"><ele>482.0</ele><time>2026-04-25T16:58:33.815Z</time></trkpt><trkpt lat="42.56272239916991" lon="11.836144545250635"><ele>483.0</ele><time>2026-04-25T16:58:34.815Z</time></trkpt><trkpt lat="42.56277544651008" lon="11.836465661269811"><ele>483.0</ele><time>2026-04-25T16:58:35.815Z</time></trkpt><trkpt lat="42.56285857576542" lon="11.836772544361592"><ele>483.0</ele><time>2026-04-25T16:58:36.814Z</time></trkpt><trkpt lat="42.562942347255245" lon="11.837079230437466"><ele>479.0</ele><time>2026-04-25T16:58:37.814Z</time></trkpt><trkpt lat="42.563031399629935" lon="11.837379280740667"><ele>475.0</ele><time>2026-04-25T16:58:38.814Z</time></trkpt><trkpt lat="42.563122489316" lon="11.837678735224369"><ele>473.5</ele><time>2026-04-25T16:58:39.814Z</time></trkpt><trkpt lat="42.56321545349553" lon="11.837976359365385"><ele>472.0</ele><time>2026-04-25T16:58:40.814Z</time></trkpt><trkpt lat="42.56330864940814" lon="11.838275171674628"><ele>471.5</ele><time>2026-04-25T16:58:41.814Z</time></trkpt><trkpt lat="42.56340219278454" lon="11.838575940086047"><ele>471.0</ele><time>2026-04-25T16:58:42.814Z</time></trkpt><trkpt lat="42.56349896421781" lon="11.838873509041944"><ele>471.0</ele><time>2026-04-25T16:58:43.814Z</time></trkpt><trkpt lat="42.563592637827234" lon="11.839176201695519"><ele>471.0</ele><time>2026-04-25T16:58:44.814Z</time></trkpt><trkpt lat="42.563682523279155" lon="11.839483234821422"><ele>465.5</ele><time>2026-04-25T16:58:45.814Z</time></trkpt><trkpt lat="42.56377893863609" lon="11.839792417704311"><ele>460.0</ele><time>2026-04-25T16:58:46.814Z</time></trkpt><trkpt lat="42.56387539811722" lon="11.840108373268894"><ele>460.5</ele><time>2026-04-25T16:58:47.814Z</time></trkpt><trkpt lat="42.56397552814432" lon="11.840427840698636"><ele>461.0</ele><time>2026-04-25T16:58:48.814Z</time></trkpt><trkpt lat="42.56407726717289" lon="11.840747777758763"><ele>459.0</ele><time>2026-04-25T16:58:49.814Z</time></trkpt><trkpt lat="42.564177380525116" lon="11.84106883649524"><ele>457.0</ele><time>2026-04-25T16:58:50.814Z</time></trkpt><trkpt lat="42.564282278059295" lon="11.841395111752213"><ele>457.0</ele><time>2026-04-25T16:58:51.814Z</time></trkpt><trkpt lat="42.56436955229355" lon="11.84173053450934"><ele>457.0</ele><time>2026-04-25T16:58:52.814Z</time></trkpt><trkpt lat="42.56447067952837" lon="11.842060810813058"><ele>450.5</ele><time>2026-04-25T16:58:53.814Z</time></trkpt><trkpt lat="42.56457306319103" lon="11.842393920508679"><ele>444.0</ele><time>2026-04-25T16:58:54.814Z</time></trkpt><trkpt lat="42.56468997160645" lon="11.84271940498515"><ele>444.0</ele><time>2026-04-25T16:58:55.814Z</time></trkpt><trkpt lat="42.56479346656501" lon="11.843058674114584"><ele>444.0</ele><time>2026-04-25T16:58:56.814Z</time></trkpt><trkpt lat="42.56489998106571" lon="11.843419104709325"><ele>443.5</ele><time>2026-04-25T16:58:57.814Z</time></trkpt><trkpt lat="42.56498527746889" lon="11.84377720331914"><ele>443.0</ele><time>2026-04-25T16:58:58.814Z</time></trkpt><trkpt lat="42.565094052174466" lon="11.844133188666744"><ele>439.5</ele><time>2026-04-25T16:58:59.813Z</time></trkpt><trkpt lat="42.56520688022033" lon="11.844489245032205"><ele>436.0</ele><time>2026-04-25T16:59:00.813Z</time></trkpt><trkpt lat="42.56531870544382" lon="11.844843730020385"><ele>432.0</ele><time>2026-04-25T16:59:01.813Z</time></trkpt><trkpt lat="42.565425778500256" lon="11.845202171299333"><ele>428.0</ele><time>2026-04-25T16:59:02.813Z</time></trkpt><trkpt lat="42.565530619100514" lon="11.845561964734369"><ele>428.0</ele><time>2026-04-25T16:59:03.813Z</time></trkpt><trkpt lat="42.56563493965742" lon="11.845919605357505"><ele>428.0</ele><time>2026-04-25T16:59:04.813Z</time></trkpt><trkpt lat="42.565739342933256" lon="11.846286007601176"><ele>427.0</ele><time>2026-04-25T16:59:05.813Z</time></trkpt><trkpt lat="42.5658503211479" lon="11.846656250454036"><ele>426.0</ele><time>2026-04-25T16:59:06.813Z</time></trkpt><trkpt lat="42.56597549191865" lon="11.847065777026474"><ele>423.0</ele><time>2026-04-25T16:59:07.813Z</time></trkpt><trkpt lat="42.56611151919004" lon="11.847477234909228"><ele>420.0</ele><time>2026-04-25T16:59:08.813Z</time></trkpt><trkpt lat="42.56624775154653" lon="11.847900481052033"><ele>417.0</ele><time>2026-04-25T16:59:09.813Z</time></trkpt><trkpt lat="42.56641338528388" lon="11.848257238465418"><ele>414.0</ele><time>2026-04-25T16:59:11.813Z</time></trkpt><trkpt lat="42.56654637033495" lon="11.848548444049252"><ele>412.5</ele><time>2026-04-25T16:59:12.813Z</time></trkpt><trkpt lat="42.5666793379789" lon="11.848837189955695"><ele>411.0</ele><time>2026-04-25T16:59:13.813Z</time></trkpt><trkpt lat="42.566808623890495" lon="11.849121710044297"><ele>412.0</ele><time>2026-04-25T16:59:14.813Z</time></trkpt><trkpt lat="42.56693574040319" lon="11.849402755906098"><ele>413.0</ele><time>2026-04-25T16:59:15.813Z</time></trkpt><trkpt lat="42.56705601334638" lon="11.849674987428473"><ele>413.0</ele><time>2026-04-25T16:59:16.813Z</time></trkpt><trkpt lat="42.56716942444822" lon="11.84993097280905"><ele>413.0</ele><time>2026-04-25T16:59:17.813Z</time></trkpt><trkpt lat="42.56727654173656" lon="11.850174268547375"><ele>413.0</ele><time>2026-04-25T16:59:18.813Z</time></trkpt><trkpt lat="42.56738380966635" lon="11.85041099275837"><ele>411.0</ele><time>2026-04-25T16:59:19.813Z</time></trkpt><trkpt lat="42.56749282717569" lon="11.850648957381525"><ele>409.0</ele><time>2026-04-25T16:59:20.813Z</time></trkpt><trkpt lat="42.56760710453713" lon="11.850905413797747"><ele>407.0</ele><time>2026-04-25T16:59:21.813Z</time></trkpt><trkpt lat="42.567725238689945" lon="11.851168704757027"><ele>403.0</ele><time>2026-04-25T16:59:22.812Z</time></trkpt><trkpt lat="42.56783804166444" lon="11.851438119351762"><ele>399.0</ele><time>2026-04-25T16:59:23.812Z</time></trkpt><trkpt lat="42.56793163051563" lon="11.851717544929642"><ele>406.0</ele><time>2026-04-25T16:59:24.812Z</time></trkpt><trkpt lat="42.568015078785656" lon="11.852018479587565"><ele>413.0</ele><time>2026-04-25T16:59:25.812Z</time></trkpt><trkpt lat="42.568086082132446" lon="11.852343078486522"><ele>409.5</ele><time>2026-04-25T16:59:26.812Z</time></trkpt><trkpt lat="42.56815265531064" lon="11.852680365655823"><ele>406.0</ele><time>2026-04-25T16:59:27.812Z</time></trkpt><trkpt lat="42.5682172019021" lon="11.852992712196627"><ele>406.0</ele><time>2026-04-25T16:59:28.812Z</time></trkpt><trkpt lat="42.56827821499442" lon="11.853300953011292"><ele>406.0</ele><time>2026-04-25T16:59:29.812Z</time></trkpt><trkpt lat="42.56833968153352" lon="11.85359580653426"><ele>403.5</ele><time>2026-04-25T16:59:30.812Z</time></trkpt><trkpt lat="42.56839024482171" lon="11.853898934385088"><ele>401.0</ele><time>2026-04-25T16:59:31.812Z</time></trkpt><trkpt lat="42.56842864978318" lon="11.854225505010142"><ele>400.0</ele><time>2026-04-25T16:59:32.812Z</time></trkpt><trkpt lat="42.568417835886265" lon="11.854592306097874"><ele>399.0</ele><time>2026-04-25T16:59:33.812Z</time></trkpt><trkpt lat="42.56844208485764" lon="11.8549859343349"><ele>397.0</ele><time>2026-04-25T16:59:34.812Z</time></trkpt><trkpt lat="42.568438629419596" lon="11.855375318197265"><ele>395.0</ele><time>2026-04-25T16:59:35.812Z</time></trkpt><trkpt lat="42.568424108709486" lon="11.855728900697166"><ele>393.5</ele><time>2026-04-25T16:59:36.812Z</time></trkpt><trkpt lat="42.56840605644871" lon="11.856076555566416"><ele>392.0</ele><time>2026-04-25T16:59:37.812Z</time></trkpt><trkpt lat="42.56837679768297" lon="11.856395300158056"><ele>392.0</ele><time>2026-04-25T16:59:38.812Z</time></trkpt><trkpt lat="42.5683402475212" lon="11.856700823608907"><ele>392.0</ele><time>2026-04-25T16:59:39.812Z</time></trkpt><trkpt lat="42.56829870691762" lon="11.856997481063067"><ele>391.66666666666663</ele><time>2026-04-25T16:59:40.814Z</time></trkpt><trkpt lat="42.56823454075608" lon="11.857276784994912"><ele>391.33333333333337</ele><time>2026-04-25T16:59:41.814Z</time></trkpt><trkpt lat="42.568148525878954" lon="11.857543632751332"><ele>391.0</ele><time>2026-04-25T16:59:42.814Z</time></trkpt><trkpt lat="42.568054316883575" lon="11.857802970937893"><ele>391.6666666666667</ele><time>2026-04-25T16:59:43.814Z</time></trkpt><trkpt lat="42.56796673404386" lon="11.858059267507233"><ele>392.33333333333337</ele><time>2026-04-25T16:59:44.814Z</time></trkpt><trkpt lat="42.56789426565734" lon="11.85830739403869"><ele>393.0</ele><time>2026-04-25T16:59:45.814Z</time></trkpt><trkpt lat="42.56785430790569" lon="11.858576770455272"><ele>389.0</ele><time>2026-04-25T16:59:46.814Z</time></trkpt><trkpt lat="42.56783884958415" lon="11.858848403406263"><ele>385.0</ele><time>2026-04-25T16:59:47.814Z</time></trkpt><trkpt lat="42.567839982374466" lon="11.859139517004458"><ele>381.0</ele><time>2026-04-25T16:59:48.814Z</time></trkpt><trkpt lat="42.5678465399596" lon="11.859433576302626"><ele>380.5</ele><time>2026-04-25T16:59:49.813Z</time></trkpt><trkpt lat="42.56785637545474" lon="11.85974526525697"><ele>380.0</ele><time>2026-04-25T16:59:50.814Z</time></trkpt><trkpt lat="42.567864718722014" lon="11.860059741392778"><ele>377.5</ele><time>2026-04-25T16:59:51.814Z</time></trkpt><trkpt lat="42.567868288824656" lon="11.860388772272675"><ele>375.0</ele><time>2026-04-25T16:59:52.814Z</time></trkpt><trkpt lat="42.56786247637443" lon="11.860724056606806"><ele>375.5</ele><time>2026-04-25T16:59:53.814Z</time></trkpt><trkpt lat="42.56784412236898" lon="11.861064585701799"><ele>376.0</ele><time>2026-04-25T16:59:54.814Z</time></trkpt><trkpt lat="42.567818015159766" lon="11.86140486455829"><ele>376.0</ele><time>2026-04-25T16:59:55.814Z</time></trkpt><trkpt lat="42.56779026307796" lon="11.861755298185283"><ele>376.0</ele><time>2026-04-25T16:59:56.813Z</time></trkpt><trkpt lat="42.567756257654274" lon="11.862111852081222"><ele>371.5</ele><time>2026-04-25T16:59:57.813Z</time></trkpt><trkpt lat="42.567731127805416" lon="11.86247637435319"><ele>367.0</ele><time>2026-04-25T16:59:58.813Z</time></trkpt><trkpt lat="42.56770206507051" lon="11.862842725742548"><ele>362.5</ele><time>2026-04-25T16:59:59.813Z</time></trkpt><trkpt lat="42.5676749166256" lon="11.863203210539638"><ele>358.0</ele><time>2026-04-25T17:00:00.813Z</time></trkpt><trkpt lat="42.567652368655274" lon="11.863556098804342"><ele>356.5</ele><time>2026-04-25T17:00:01.813Z</time></trkpt><trkpt lat="42.567633445000496" lon="11.863904349872836"><ele>355.0</ele><time>2026-04-25T17:00:02.813Z</time></trkpt><trkpt lat="42.56761174842797" lon="11.864257056097227"><ele>354.0</ele><time>2026-04-25T17:00:03.813Z</time></trkpt><trkpt lat="42.56759141973795" lon="11.86460278618513"><ele>353.0</ele><time>2026-04-25T17:00:04.813Z</time></trkpt><trkpt lat="42.56758260620237" lon="11.864958480293287"><ele>352.0</ele><time>2026-04-25T17:00:05.813Z</time></trkpt><trkpt lat="42.567602025150215" lon="11.865322852955845"><ele>351.0</ele><time>2026-04-25T17:00:06.813Z</time></trkpt><trkpt lat="42.56763471504736" lon="11.865683701918439"><ele>349.5</ele><time>2026-04-25T17:00:07.813Z</time></trkpt><trkpt lat="42.567675927424894" lon="11.866044044032305"><ele>348.0</ele><time>2026-04-25T17:00:08.813Z</time></trkpt><trkpt lat="42.56771350889649" lon="11.866399900937882"><ele>348.0</ele><time>2026-04-25T17:00:09.813Z</time></trkpt><trkpt lat="42.56774451598403" lon="11.866757744653707"><ele>348.0</ele><time>2026-04-25T17:00:10.813Z</time></trkpt><trkpt lat="42.567753041116305" lon="11.867123662578903"><ele>346.0</ele><time>2026-04-25T17:00:11.813Z</time></trkpt><trkpt lat="42.56774200753581" lon="11.867491228084539"><ele>344.0</ele><time>2026-04-25T17:00:12.813Z</time></trkpt><trkpt lat="42.567709006464575" lon="11.867880377528465"><ele>342.0</ele><time>2026-04-25T17:00:13.813Z</time></trkpt><trkpt lat="42.56767274903166" lon="11.868303649577323"><ele>340.0</ele><time>2026-04-25T17:00:14.813Z</time></trkpt><trkpt lat="42.56763157094961" lon="11.868759393210908"><ele>338.5</ele><time>2026-04-25T17:00:15.813Z</time></trkpt><trkpt lat="42.56758151976331" lon="11.869220079510471"><ele>337.0</ele><time>2026-04-25T17:00:16.813Z</time></trkpt><trkpt lat="42.56755696272377" lon="11.869662094571341"><ele>336.0</ele><time>2026-04-25T17:00:17.813Z</time></trkpt><trkpt lat="42.56751803036438" lon="11.870084365366678"><ele>335.0</ele><time>2026-04-25T17:00:18.813Z</time></trkpt><trkpt lat="42.567476237060006" lon="11.870493065792733"><ele>335.0</ele><time>2026-04-25T17:00:19.812Z</time></trkpt><trkpt lat="42.56743407554671" lon="11.870897212360923"><ele>335.0</ele><time>2026-04-25T17:00:20.812Z</time></trkpt><trkpt lat="42.567393456421826" lon="11.871287211229651"><ele>334.5</ele><time>2026-04-25T17:00:21.812Z</time></trkpt><trkpt lat="42.567347102491766" lon="11.87166035066023"><ele>334.0</ele><time>2026-04-25T17:00:22.812Z</time></trkpt><trkpt lat="42.56730319277376" lon="11.872010451030638"><ele>333.0</ele><time>2026-04-25T17:00:23.812Z</time></trkpt><trkpt lat="42.56726094991431" lon="11.872350830459293"><ele>332.0</ele><time>2026-04-25T17:00:24.812Z</time></trkpt><trkpt lat="42.56721734429422" lon="11.872665399440931"><ele>331.5</ele><time>2026-04-25T17:00:25.812Z</time></trkpt><trkpt lat="42.56717471568471" lon="11.87297095483054"><ele>331.0</ele><time>2026-04-25T17:00:26.812Z</time></trkpt><trkpt lat="42.56712731345341" lon="11.873268595648112"><ele>331.0</ele><time>2026-04-25T17:00:27.812Z</time></trkpt><trkpt lat="42.567058801531765" lon="11.873558319070437"><ele>331.0</ele><time>2026-04-25T17:00:28.812Z</time></trkpt><trkpt lat="42.56696564848525" lon="11.873824623706524"><ele>331.0</ele><time>2026-04-25T17:00:29.812Z</time></trkpt><trkpt lat="42.56684733445552" lon="11.874074995162736"><ele>330.0</ele><time>2026-04-25T17:00:30.812Z</time></trkpt><trkpt lat="42.56671096207136" lon="11.874316654050304"><ele>329.0</ele><time>2026-04-25T17:00:31.812Z</time></trkpt><trkpt lat="42.56658795603023" lon="11.874583426965192"><ele>329.0</ele><time>2026-04-25T17:00:32.812Z</time></trkpt><trkpt lat="42.56644027312707" lon="11.874836826178338"><ele>329.0</ele><time>2026-04-25T17:00:33.812Z</time></trkpt><trkpt lat="42.56630157320151" lon="11.875093671504956"><ele>329.6666666666667</ele><time>2026-04-25T17:00:34.812Z</time></trkpt><trkpt lat="42.56617083209238" lon="11.875339792492138"><ele>330.3333333333333</ele><time>2026-04-25T17:00:35.812Z</time></trkpt><trkpt lat="42.56604346833148" lon="11.875581039398533"><ele>331.0</ele><time>2026-04-25T17:00:36.812Z</time></trkpt><trkpt lat="42.565912359181944" lon="11.8758214947028"><ele>331.3333333333333</ele><time>2026-04-25T17:00:37.812Z</time></trkpt><trkpt lat="42.56578535672745" lon="11.876069833435073"><ele>331.6666666666667</ele><time>2026-04-25T17:00:38.812Z</time></trkpt><trkpt lat="42.565660000516274" lon="11.876324651879846"><ele>332.0</ele><time>2026-04-25T17:00:39.812Z</time></trkpt><trkpt lat="42.56553167894408" lon="11.87658963004009"><ele>332.0</ele><time>2026-04-25T17:00:40.812Z</time></trkpt><trkpt lat="42.56539758463531" lon="11.876858966877224"><ele>332.0</ele><time>2026-04-25T17:00:41.812Z</time></trkpt><trkpt lat="42.56525231103837" lon="11.877132656349122"><ele>331.5</ele><time>2026-04-25T17:00:42.811Z</time></trkpt><trkpt lat="42.56511437641436" lon="11.877395408713946"><ele>331.0</ele><time>2026-04-25T17:00:43.811Z</time></trkpt><trkpt lat="42.56496939502081" lon="11.877660837312611"><ele>330.0</ele><time>2026-04-25T17:00:44.811Z</time></trkpt><trkpt lat="42.56481304944775" lon="11.877914539100155"><ele>329.0</ele><time>2026-04-25T17:00:45.811Z</time></trkpt><trkpt lat="42.564645229553705" lon="11.878161678678186"><ele>328.5</ele><time>2026-04-25T17:00:46.811Z</time></trkpt><trkpt lat="42.564460645978045" lon="11.87839083971875"><ele>328.0</ele><time>2026-04-25T17:00:47.811Z</time></trkpt><trkpt lat="42.56425228123801" lon="11.878589002766143"><ele>327.5</ele><time>2026-04-25T17:00:48.811Z</time></trkpt><trkpt lat="42.56404096199785" lon="11.878808127934754"><ele>327.0</ele><time>2026-04-25T17:00:49.811Z</time></trkpt><trkpt lat="42.56381192011328" lon="11.879016716660088"><ele>324.0</ele><time>2026-04-25T17:00:50.811Z</time></trkpt><trkpt lat="42.56357690381663" lon="11.879226027015653"><ele>321.0</ele><time>2026-04-25T17:00:51.811Z</time></trkpt><trkpt lat="42.56334337436846" lon="11.879440880738402"><ele>321.0</ele><time>2026-04-25T17:00:52.811Z</time></trkpt><trkpt lat="42.56310742415176" lon="11.879655365037493"><ele>321.0</ele><time>2026-04-25T17:00:53.811Z</time></trkpt><trkpt lat="42.56287175541887" lon="11.879864574140893"><ele>319.5</ele><time>2026-04-25T17:00:54.811Z</time></trkpt><trkpt lat="42.56264965347896" lon="11.880060774034089"><ele>318.0</ele><time>2026-04-25T17:00:55.811Z</time></trkpt><trkpt lat="42.562435460853614" lon="11.88025711414809"><ele>317.5</ele><time>2026-04-25T17:00:56.811Z</time></trkpt><trkpt lat="42.56222633008485" lon="11.880451969220895"><ele>317.0</ele><time>2026-04-25T17:00:57.811Z</time></trkpt><trkpt lat="42.56201591060341" lon="11.88064970290583"><ele>316.0</ele><time>2026-04-25T17:00:58.811Z</time></trkpt><trkpt lat="42.56180499294453" lon="11.880844240946871"><ele>315.0</ele><time>2026-04-25T17:00:59.811Z</time></trkpt><trkpt lat="42.56159613400484" lon="11.881035145887967"><ele>313.0</ele><time>2026-04-25T17:01:00.811Z</time></trkpt><trkpt lat="42.56139772449489" lon="11.881223891165103"><ele>311.0</ele><time>2026-04-25T17:01:01.811Z</time></trkpt><trkpt lat="42.561198715320174" lon="11.881410864360017"><ele>311.0</ele><time>2026-04-25T17:01:02.811Z</time></trkpt><trkpt lat="42.561002789066336" lon="11.881596798512769"><ele>311.0</ele><time>2026-04-25T17:01:03.811Z</time></trkpt><trkpt lat="42.56080147090762" lon="11.881778538664598"><ele>310.0</ele><time>2026-04-25T17:01:04.811Z</time></trkpt><trkpt lat="42.56059717879352" lon="11.881962141094403"><ele>309.0</ele><time>2026-04-25T17:01:05.81Z</time></trkpt><trkpt lat="42.56039490646026" lon="11.88214560728365"><ele>310.0</ele><time>2026-04-25T17:01:06.81Z</time></trkpt><trkpt lat="42.56019753168227" lon="11.882337820506711"><ele>311.0</ele><time>2026-04-25T17:01:07.81Z</time></trkpt><trkpt lat="42.56000017437051" lon="11.882523542763106"><ele>310.5</ele><time>2026-04-25T17:01:08.81Z</time></trkpt><trkpt lat="42.55980851157896" lon="11.88270092977395"><ele>310.0</ele><time>2026-04-25T17:01:09.81Z</time></trkpt><trkpt lat="42.55962175144512" lon="11.882875526845961"><ele>310.0</ele><time>2026-04-25T17:01:10.81Z</time></trkpt><trkpt lat="42.55942913791797" lon="11.883046216369868"><ele>310.0</ele><time>2026-04-25T17:01:11.81Z</time></trkpt><trkpt lat="42.5592414273516" lon="11.883222822194712"><ele>310.0</ele><time>2026-04-25T17:01:12.81Z</time></trkpt><trkpt lat="42.55905665446637" lon="11.883399837961504"><ele>310.0</ele><time>2026-04-25T17:01:13.81Z</time></trkpt><trkpt lat="42.5588697800894" lon="11.8835828073401"><ele>309.5</ele><time>2026-04-25T17:01:14.81Z</time></trkpt><trkpt lat="42.558685003305065" lon="11.883759969783837"><ele>309.0</ele><time>2026-04-25T17:01:15.81Z</time></trkpt><trkpt lat="42.558499174699165" lon="11.88394341161"><ele>309.0</ele><time>2026-04-25T17:01:16.81Z</time></trkpt><trkpt lat="42.55831341794733" lon="11.884119453203704"><ele>309.0</ele><time>2026-04-25T17:01:17.81Z</time></trkpt><trkpt lat="42.55812492163791" lon="11.884291993639541"><ele>308.5</ele><time>2026-04-25T17:01:18.81Z</time></trkpt><trkpt lat="42.55793732876544" lon="11.884472443315834"><ele>308.0</ele><time>2026-04-25T17:01:19.81Z</time></trkpt><trkpt lat="42.55775816503072" lon="11.884666364383989"><ele>309.0</ele><time>2026-04-25T17:01:20.81Z</time></trkpt><trkpt lat="42.55758467934333" lon="11.884864969146358"><ele>310.0</ele><time>2026-04-25T17:01:21.81Z</time></trkpt><trkpt lat="42.55741343937076" lon="11.885070195211657"><ele>309.3333333333333</ele><time>2026-04-25T17:01:22.81Z</time></trkpt><trkpt lat="42.55725576003395" lon="11.885278638674222"><ele>308.6666666666667</ele><time>2026-04-25T17:01:23.81Z</time></trkpt><trkpt lat="42.55711083178305" lon="11.885488584282504"><ele>308.0</ele><time>2026-04-25T17:01:24.81Z</time></trkpt><trkpt lat="42.556978428283934" lon="11.885712495166336"><ele>309.33333333333337</ele><time>2026-04-25T17:01:25.81Z</time></trkpt><trkpt lat="42.5568400608379" lon="11.885943893484956"><ele>310.6666666666667</ele><time>2026-04-25T17:01:26.81Z</time></trkpt><trkpt lat="42.556692333870515" lon="11.886164294554435"><ele>312.0</ele><time>2026-04-25T17:01:27.81Z</time></trkpt><trkpt lat="42.55652058628072" lon="11.886347135222945"><ele>312.0</ele><time>2026-04-25T17:01:28.809Z</time></trkpt><trkpt lat="42.55634069554884" lon="11.88651803223471"><ele>312.0</ele><time>2026-04-25T17:01:29.809Z</time></trkpt><trkpt lat="42.5561511979304" lon="11.8866712866868"><ele>312.0</ele><time>2026-04-25T17:01:30.809Z</time></trkpt><trkpt lat="42.55595344332801" lon="11.88682137359072"><ele>312.0</ele><time>2026-04-25T17:01:31.809Z</time></trkpt><trkpt lat="42.55575040062358" lon="11.88696685455053"><ele>312.0</ele><time>2026-04-25T17:01:32.809Z</time></trkpt><trkpt lat="42.55554477487848" lon="11.887110730205665"><ele>313.5</ele><time>2026-04-25T17:01:33.809Z</time></trkpt><trkpt lat="42.55533828565303" lon="11.887251043465795"><ele>315.0</ele><time>2026-04-25T17:01:34.809Z</time></trkpt><trkpt lat="42.555127102316234" lon="11.887387410548447"><ele>315.0</ele><time>2026-04-25T17:01:35.809Z</time></trkpt><trkpt lat="42.55491206374233" lon="11.887527167733069"><ele>315.0</ele><time>2026-04-25T17:01:36.809Z</time></trkpt><trkpt lat="42.55469828065684" lon="11.887663561780156"><ele>314.0</ele><time>2026-04-25T17:01:37.809Z</time></trkpt><trkpt lat="42.55448297489323" lon="11.887779122466375"><ele>313.0</ele><time>2026-04-25T17:01:38.809Z</time></trkpt><trkpt lat="42.554253990674624" lon="11.8878822314936"><ele>313.0</ele><time>2026-04-25T17:01:39.809Z</time></trkpt><trkpt lat="42.55402324617874" lon="11.887963478975857"><ele>313.0</ele><time>2026-04-25T17:01:40.809Z</time></trkpt><trkpt lat="42.55378339719879" lon="11.888034429911277"><ele>313.5</ele><time>2026-04-25T17:01:41.809Z</time></trkpt><trkpt lat="42.55354596629112" lon="11.888091035550504"><ele>314.0</ele><time>2026-04-25T17:01:42.809Z</time></trkpt><trkpt lat="42.553316841464586" lon="11.888152870338477"><ele>314.0</ele><time>2026-04-25T17:01:43.809Z</time></trkpt><trkpt lat="42.55310089330249" lon="11.888241568163957"><ele>314.0</ele><time>2026-04-25T17:01:44.809Z</time></trkpt><trkpt lat="42.55289439119955" lon="11.88835218624871"><ele>314.0</ele><time>2026-04-25T17:01:45.809Z</time></trkpt><trkpt lat="42.55269368991415" lon="11.888486487164988"><ele>314.5</ele><time>2026-04-25T17:01:46.811Z</time></trkpt><trkpt lat="42.552495756845715" lon="11.888642398847814"><ele>315.0</ele><time>2026-04-25T17:01:47.811Z</time></trkpt><trkpt lat="42.5523075964398" lon="11.888822338975979"><ele>315.0</ele><time>2026-04-25T17:01:48.811Z</time></trkpt><trkpt lat="42.552125947013934" lon="11.889016468529864"><ele>315.0</ele><time>2026-04-25T17:01:49.812Z</time></trkpt><trkpt lat="42.551953381378475" lon="11.88922480595665"><ele>315.5</ele><time>2026-04-25T17:01:50.811Z</time></trkpt><trkpt lat="42.5517878414077" lon="11.889445463920639"><ele>316.0</ele><time>2026-04-25T17:01:51.811Z</time></trkpt><trkpt lat="42.55163423543413" lon="11.889683501484901"><ele>316.0</ele><time>2026-04-25T17:01:52.811Z</time></trkpt><trkpt lat="42.55149891559564" lon="11.889946089966006"><ele>316.0</ele><time>2026-04-25T17:01:53.811Z</time></trkpt><trkpt lat="42.551376985077134" lon="11.890227008416367"><ele>316.0</ele><time>2026-04-25T17:01:54.811Z</time></trkpt><trkpt lat="42.55125904461095" lon="11.890503125853146"><ele>316.0</ele><time>2026-04-25T17:01:55.811Z</time></trkpt><trkpt lat="42.551141272886596" lon="11.89077393753757"><ele>315.5</ele><time>2026-04-25T17:01:56.811Z</time></trkpt><trkpt lat="42.55102033682117" lon="11.891044384058567"><ele>315.0</ele><time>2026-04-25T17:01:57.811Z</time></trkpt><trkpt lat="42.55089737989463" lon="11.891324454876761"><ele>315.0</ele><time>2026-04-25T17:01:58.811Z</time></trkpt><trkpt lat="42.55077775479566" lon="11.89159874471741"><ele>315.0</ele><time>2026-04-25T17:01:59.811Z</time></trkpt><trkpt lat="42.5506553052376" lon="11.891868281366298"><ele>314.0</ele><time>2026-04-25T17:02:00.811Z</time></trkpt><trkpt lat="42.55053497650641" lon="11.892140870705713"><ele>313.0</ele><time>2026-04-25T17:02:01.811Z</time></trkpt><trkpt lat="42.55041652680525" lon="11.892412215552318"><ele>314.5</ele><time>2026-04-25T17:02:02.811Z</time></trkpt><trkpt lat="42.55029974735524" lon="11.89267699328293"><ele>316.0</ele><time>2026-04-25T17:02:03.811Z</time></trkpt><trkpt lat="42.55018148919655" lon="11.892942988625153"><ele>316.0</ele><time>2026-04-25T17:02:04.811Z</time></trkpt><trkpt lat="42.55005978969786" lon="11.893201730750471"><ele>316.0</ele><time>2026-04-25T17:02:05.811Z</time></trkpt><trkpt lat="42.54993826867193" lon="11.893460541058616"><ele>316.66666666666663</ele><time>2026-04-25T17:02:06.811Z</time></trkpt><trkpt lat="42.54982006171188" lon="11.8937150784586"><ele>317.3333333333333</ele><time>2026-04-25T17:02:07.811Z</time></trkpt><trkpt lat="42.5497020361201" lon="11.893970942097626"><ele>318.0</ele><time>2026-04-25T17:02:08.811Z</time></trkpt><trkpt lat="42.54958517452956" lon="11.894226081470428"><ele>318.6666666666667</ele><time>2026-04-25T17:02:09.811Z</time></trkpt><trkpt lat="42.549471287252636" lon="11.894475783071222"><ele>319.33333333333337</ele><time>2026-04-25T17:02:10.811Z</time></trkpt><trkpt lat="42.54935994772111" lon="11.894724131729014"><ele>320.0</ele><time>2026-04-25T17:02:11.811Z</time></trkpt><trkpt lat="42.54925158658347" lon="11.894971362224089"><ele>320.0</ele><time>2026-04-25T17:02:12.811Z</time></trkpt><trkpt lat="42.549136687738574" lon="11.89522678672886"><ele>320.0</ele><time>2026-04-25T17:02:13.811Z</time></trkpt><trkpt lat="42.549020362513076" lon="11.895496309276774"><ele>320.0</ele><time>2026-04-25T17:02:14.811Z</time></trkpt><trkpt lat="42.54889633602948" lon="11.89576254983344"><ele>320.0</ele><time>2026-04-25T17:02:15.811Z</time></trkpt><trkpt lat="42.54877147547631" lon="11.896031821482282"><ele>320.6666666666667</ele><time>2026-04-25T17:02:16.811Z</time></trkpt><trkpt lat="42.54865028311317" lon="11.896286901512001"><ele>321.3333333333333</ele><time>2026-04-25T17:02:17.811Z</time></trkpt><trkpt lat="42.548541753805075" lon="11.896528611524834"><ele>322.0</ele><time>2026-04-25T17:02:18.811Z</time></trkpt><trkpt lat="42.548429772566216" lon="11.896777293376054"><ele>322.0</ele><time>2026-04-25T17:02:19.811Z</time></trkpt><trkpt lat="42.5483263519118" lon="11.897011336272968"><ele>322.0</ele><time>2026-04-25T17:02:20.811Z</time></trkpt><trkpt lat="42.54822770408222" lon="11.89723521228309"><ele>322.0</ele><time>2026-04-25T17:02:21.81Z</time></trkpt><trkpt lat="42.548135052949426" lon="11.897447285020206"><ele>322.0</ele><time>2026-04-25T17:02:22.81Z</time></trkpt><trkpt lat="42.54805004688887" lon="11.897645749037256"><ele>322.0</ele><time>2026-04-25T17:02:23.81Z</time></trkpt><trkpt lat="42.54796822449998" lon="11.897831728509358"><ele>322.0</ele><time>2026-04-25T17:02:24.81Z</time></trkpt><trkpt lat="42.547871805672585" lon="11.89800461742143"><ele>321.5</ele><time>2026-04-25T17:02:25.81Z</time></trkpt><trkpt lat="42.547809501381266" lon="11.898191296533755"><ele>321.0</ele><time>2026-04-25T17:02:26.81Z</time></trkpt><trkpt lat="42.54773083800531" lon="11.898343831840199"><ele>320.5</ele><time>2026-04-25T17:02:27.81Z</time></trkpt><trkpt lat="42.5476664879516" lon="11.898488385583514"><ele>320.0</ele><time>2026-04-25T17:02:28.81Z</time></trkpt><trkpt lat="42.547609934313876" lon="11.898620423508696"><ele>319.2</ele><time>2026-04-25T17:02:29.81Z</time></trkpt><trkpt lat="42.54756961797631" lon="11.898761519118693"><ele>318.4</ele><time>2026-04-25T17:02:30.81Z</time></trkpt><trkpt lat="42.54752753254007" lon="11.898874769188692"><ele>317.6</ele><time>2026-04-25T17:02:31.81Z</time></trkpt><trkpt lat="42.54749930794595" lon="11.89895192332073"><ele>316.8</ele><time>2026-04-25T17:02:32.81Z</time></trkpt><trkpt lat="42.54744923092181" lon="11.899061681367192"><ele>316.0</ele><time>2026-04-25T17:02:34.81Z</time></trkpt><trkpt lat="42.547392308682916" lon="11.899174129539851"><ele>315.8</ele><time>2026-04-25T17:02:43.81Z</time></trkpt><trkpt lat="42.54730320810623" lon="11.899288986756796"><ele>315.6</ele><time>2026-04-25T17:02:45.809Z</time></trkpt><trkpt lat="42.54725662541988" lon="11.899436014967007"><ele>315.4</ele><time>2026-04-25T17:02:47.809Z</time></trkpt><trkpt lat="42.54725837369866" lon="11.899536275281601"><ele>315.2</ele><time>2026-04-25T17:02:48.809Z</time></trkpt><trkpt lat="42.54727789650945" lon="11.899635800610142"><ele>315.0</ele><time>2026-04-25T17:02:49.809Z</time></trkpt><trkpt lat="42.547218883459124" lon="11.89976096074487"><ele>315.0</ele><time>2026-04-25T17:02:50.809Z</time></trkpt><trkpt lat="42.547183107620384" lon="11.899895862434246"><ele>315.0</ele><time>2026-04-25T17:02:51.809Z</time></trkpt><trkpt lat="42.547140287248546" lon="11.900037274408744"><ele>315.0</ele><time>2026-04-25T17:02:52.809Z</time></trkpt><trkpt lat="42.54707955897313" lon="11.900206722002965"><ele>315.0</ele><time>2026-04-25T17:02:53.809Z</time></trkpt><trkpt lat="42.5470054195892" lon="11.900434969073647"><ele>314.3333333333333</ele><time>2026-04-25T17:02:54.809Z</time></trkpt><trkpt lat="42.546927885938125" lon="11.900677769314065"><ele>313.66666666666663</ele><time>2026-04-25T17:02:55.809Z</time></trkpt><trkpt lat="42.546846749922885" lon="11.900974250683383"><ele>313.0</ele><time>2026-04-25T17:02:56.809Z</time></trkpt><trkpt lat="42.5467463303991" lon="11.901241349253258"><ele>313.0</ele><time>2026-04-25T17:02:57.809Z</time></trkpt><trkpt lat="42.54665889282944" lon="11.901506544324416"><ele>313.0</ele><time>2026-04-25T17:02:58.809Z</time></trkpt><trkpt lat="42.54657269085911" lon="11.901774877471802"><ele>313.0</ele><time>2026-04-25T17:02:59.809Z</time></trkpt><trkpt lat="42.546488983341845" lon="11.90205108275564"><ele>313.0</ele><time>2026-04-25T17:03:00.809Z</time></trkpt><trkpt lat="42.54640534245591" lon="11.902314199397606"><ele>313.0</ele><time>2026-04-25T17:03:01.809Z</time></trkpt><trkpt lat="42.54632072352849" lon="11.902569437598382"><ele>313.0</ele><time>2026-04-25T17:03:02.809Z</time></trkpt><trkpt lat="42.5462505516587" lon="11.902820550445817"><ele>313.66666666666663</ele><time>2026-04-25T17:03:03.809Z</time></trkpt><trkpt lat="42.546178040266135" lon="11.90305606034887"><ele>314.3333333333333</ele><time>2026-04-25T17:03:04.809Z</time></trkpt><trkpt lat="42.54610484439668" lon="11.903302004072131"><ele>315.0</ele><time>2026-04-25T17:03:05.809Z</time></trkpt><trkpt lat="42.5460297518475" lon="11.903550385130087"><ele>315.0</ele><time>2026-04-25T17:03:06.809Z</time></trkpt><trkpt lat="42.5459390208629" lon="11.903759702571751"><ele>315.0</ele><time>2026-04-25T17:03:07.808Z</time></trkpt><trkpt lat="42.545872426513576" lon="11.903965462796242"><ele>315.0</ele><time>2026-04-25T17:03:08.808Z</time></trkpt><trkpt lat="42.5458108642423" lon="11.90416088268407"><ele>314.6666666666667</ele><time>2026-04-25T17:03:09.808Z</time></trkpt><trkpt lat="42.54574380776891" lon="11.904373461211549"><ele>314.33333333333337</ele><time>2026-04-25T17:03:10.808Z</time></trkpt><trkpt lat="42.54567442118592" lon="11.904593104643084"><ele>314.0</ele><time>2026-04-25T17:03:11.808Z</time></trkpt><trkpt lat="42.545613062828124" lon="11.904832244818234"><ele>314.0</ele><time>2026-04-25T17:03:12.808Z</time></trkpt><trkpt lat="42.54553695023787" lon="11.905066588221022"><ele>314.0</ele><time>2026-04-25T17:03:13.808Z</time></trkpt><trkpt lat="42.54544921479357" lon="11.905292659149087"><ele>314.0</ele><time>2026-04-25T17:03:14.808Z</time></trkpt><trkpt lat="42.545374284835205" lon="11.905513036787358"><ele>315.0</ele><time>2026-04-25T17:03:15.808Z</time></trkpt><trkpt lat="42.54529801466543" lon="11.905722839648254"><ele>316.0</ele><time>2026-04-25T17:03:16.808Z</time></trkpt><trkpt lat="42.545216973496004" lon="11.905929767185112"><ele>317.0</ele><time>2026-04-25T17:03:17.808Z</time></trkpt><trkpt lat="42.54513216532658" lon="11.90612739138238"><ele>317.0</ele><time>2026-04-25T17:03:18.808Z</time></trkpt><trkpt lat="42.545056383304065" lon="11.90632044209612"><ele>317.0</ele><time>2026-04-25T17:03:19.808Z</time></trkpt><trkpt lat="42.544979411215536" lon="11.906511186835369"><ele>317.0</ele><time>2026-04-25T17:03:20.808Z</time></trkpt><trkpt lat="42.544894210222765" lon="11.906700706116654"><ele>317.6666666666667</ele><time>2026-04-25T17:03:21.808Z</time></trkpt><trkpt lat="42.54480185777901" lon="11.906902451428342"><ele>318.3333333333333</ele><time>2026-04-25T17:03:22.808Z</time></trkpt><trkpt lat="42.544690528214055" lon="11.907106350070743"><ele>319.0</ele><time>2026-04-25T17:03:23.808Z</time></trkpt><trkpt lat="42.54456025827699" lon="11.907302281665872"><ele>319.3333333333333</ele><time>2026-04-25T17:03:24.808Z</time></trkpt><trkpt lat="42.544417299867376" lon="11.907497002675509"><ele>319.6666666666667</ele><time>2026-04-25T17:03:25.808Z</time></trkpt><trkpt lat="42.54425749509779" lon="11.90768408385854"><ele>320.0</ele><time>2026-04-25T17:03:26.808Z</time></trkpt><trkpt lat="42.54411083299869" lon="11.907870890009022"><ele>321.6666666666667</ele><time>2026-04-25T17:03:27.808Z</time></trkpt><trkpt lat="42.54396061321942" lon="11.908046186240993"><ele>323.3333333333333</ele><time>2026-04-25T17:03:28.808Z</time></trkpt><trkpt lat="42.54381083750559" lon="11.908204942586789"><ele>325.0</ele><time>2026-04-25T17:03:29.808Z</time></trkpt><trkpt lat="42.54365778151969" lon="11.908350887443959"><ele>326.0</ele><time>2026-04-25T17:03:30.807Z</time></trkpt><trkpt lat="42.54350408299849" lon="11.90848790717829"><ele>327.0</ele><time>2026-04-25T17:03:31.807Z</time></trkpt><trkpt lat="42.54334200607598" lon="11.908602975724847"><ele>328.0</ele><time>2026-04-25T17:03:32.807Z</time></trkpt><trkpt lat="42.543192549189484" lon="11.908712970693292"><ele>328.0</ele><time>2026-04-25T17:03:33.807Z</time></trkpt><trkpt lat="42.54303935775648" lon="11.908789903612842"><ele>328.0</ele><time>2026-04-25T17:03:34.807Z</time></trkpt><trkpt lat="42.54290099302069" lon="11.908877086126283"><ele>328.0</ele><time>2026-04-25T17:03:35.807Z</time></trkpt><trkpt lat="42.54276354348106" lon="11.908959949332408"><ele>329.0</ele><time>2026-04-25T17:03:36.807Z</time></trkpt><trkpt lat="42.542610588451794" lon="11.909049320204174"><ele>330.0</ele><time>2026-04-25T17:03:37.807Z</time></trkpt><trkpt lat="42.54244985206307" lon="11.909137156353255"><ele>331.0</ele><time>2026-04-25T17:03:38.807Z</time></trkpt><trkpt lat="42.54227986316758" lon="11.909230048360605"><ele>331.0</ele><time>2026-04-25T17:03:39.807Z</time></trkpt><trkpt lat="42.54209624979439" lon="11.90933443200046"><ele>331.0</ele><time>2026-04-25T17:03:40.807Z</time></trkpt><trkpt lat="42.54190102536164" lon="11.90944356184941"><ele>331.0</ele><time>2026-04-25T17:03:41.807Z</time></trkpt><trkpt lat="42.54169579990013" lon="11.909576006536932"><ele>332.0</ele><time>2026-04-25T17:03:42.807Z</time></trkpt><trkpt lat="42.54147961264385" lon="11.909690640786247"><ele>333.0</ele><time>2026-04-25T17:03:43.807Z</time></trkpt><trkpt lat="42.54126427232631" lon="11.909801804427952"><ele>334.0</ele><time>2026-04-25T17:03:44.807Z</time></trkpt><trkpt lat="42.54105878873104" lon="11.909905803110645"><ele>335.0</ele><time>2026-04-25T17:03:45.807Z</time></trkpt><trkpt lat="42.540857159348604" lon="11.910018630014473"><ele>336.0</ele><time>2026-04-25T17:03:46.807Z</time></trkpt><trkpt lat="42.54066208920446" lon="11.910138064875577"><ele>336.3333333333333</ele><time>2026-04-25T17:03:47.807Z</time></trkpt><trkpt lat="42.54047958211718" lon="11.910256074655212"><ele>336.66666666666663</ele><time>2026-04-25T17:03:48.807Z</time></trkpt><trkpt lat="42.54031670957662" lon="11.910385562791198"><ele>337.0</ele><time>2026-04-25T17:03:49.807Z</time></trkpt><trkpt lat="42.54016158268086" lon="11.910528598144337"><ele>337.0</ele><time>2026-04-25T17:03:50.807Z</time></trkpt><trkpt lat="42.540008877477035" lon="11.910686347228244"><ele>337.0</ele><time>2026-04-25T17:03:51.807Z</time></trkpt><trkpt lat="42.539866324709436" lon="11.910866595191251"><ele>337.0</ele><time>2026-04-25T17:03:52.809Z</time></trkpt><trkpt lat="42.539737576606754" lon="11.911052480642454"><ele>337.66666666666663</ele><time>2026-04-25T17:03:53.808Z</time></trkpt><trkpt lat="42.539625101260654" lon="11.911243792307896"><ele>338.3333333333333</ele><time>2026-04-25T17:03:54.808Z</time></trkpt><trkpt lat="42.539528113554596" lon="11.911433318035318"><ele>339.0</ele><time>2026-04-25T17:03:55.808Z</time></trkpt><trkpt lat="42.539432718090694" lon="11.911615824309886"><ele>338.3333333333333</ele><time>2026-04-25T17:03:56.808Z</time></trkpt><trkpt lat="42.53934196170271" lon="11.911782052647668"><ele>337.66666666666663</ele><time>2026-04-25T17:03:57.808Z</time></trkpt><trkpt lat="42.53925671028074" lon="11.911949472699098"><ele>337.0</ele><time>2026-04-25T17:03:58.808Z</time></trkpt><trkpt lat="42.53917365908057" lon="11.912114851649445"><ele>337.0</ele><time>2026-04-25T17:03:59.808Z</time></trkpt><trkpt lat="42.53908198766956" lon="11.912286592446955"><ele>337.0</ele><time>2026-04-25T17:04:00.808Z</time></trkpt><trkpt lat="42.538995789735246" lon="11.912467067206535"><ele>337.0</ele><time>2026-04-25T17:04:01.808Z</time></trkpt><trkpt lat="42.53890621050704" lon="11.912649374063594"><ele>337.3333333333333</ele><time>2026-04-25T17:04:02.808Z</time></trkpt><trkpt lat="42.53881761195985" lon="11.912831273850843"><ele>337.6666666666667</ele><time>2026-04-25T17:04:03.808Z</time></trkpt><trkpt lat="42.53872404847493" lon="11.913010497788667"><ele>338.0</ele><time>2026-04-25T17:04:04.808Z</time></trkpt><trkpt lat="42.53863174363687" lon="11.913191801117012"><ele>338.0</ele><time>2026-04-25T17:04:05.808Z</time></trkpt><trkpt lat="42.53854124564108" lon="11.91337436743475"><ele>338.0</ele><time>2026-04-25T17:04:06.808Z</time></trkpt><trkpt lat="42.53844321026642" lon="11.91355414582236"><ele>338.0</ele><time>2026-04-25T17:04:07.808Z</time></trkpt><trkpt lat="42.538340746431736" lon="11.913736975000093"><ele>338.6666666666667</ele><time>2026-04-25T17:04:08.808Z</time></trkpt><trkpt lat="42.538240085192726" lon="11.913926653168831"><ele>339.3333333333333</ele><time>2026-04-25T17:04:09.808Z</time></trkpt><trkpt lat="42.538134847667585" lon="11.914120110058711"><ele>340.0</ele><time>2026-04-25T17:04:10.808Z</time></trkpt><trkpt lat="42.53803139454384" lon="11.914309845387676"><ele>342.3333333333333</ele><time>2026-04-25T17:04:11.808Z</time></trkpt><trkpt lat="42.537927146149286" lon="11.914492172106339"><ele>344.6666666666667</ele><time>2026-04-25T17:04:12.808Z</time></trkpt><trkpt lat="42.53781512205419" lon="11.914674698450096"><ele>347.0</ele><time>2026-04-25T17:04:13.808Z</time></trkpt><trkpt lat="42.53769719835975" lon="11.914855954536932"><ele>350.0</ele><time>2026-04-25T17:04:14.808Z</time></trkpt><trkpt lat="42.537573300948274" lon="11.915029312095317"><ele>353.0</ele><time>2026-04-25T17:04:15.808Z</time></trkpt><trkpt lat="42.537441100501276" lon="11.915198932954393"><ele>356.0</ele><time>2026-04-25T17:04:16.808Z</time></trkpt><trkpt lat="42.537305336393125" lon="11.915373251483564"><ele>357.0</ele><time>2026-04-25T17:04:17.808Z</time></trkpt><trkpt lat="42.53717158636177" lon="11.915542445590262"><ele>358.0</ele><time>2026-04-25T17:04:18.808Z</time></trkpt><trkpt lat="42.53703634477243" lon="11.915703821694056"><ele>359.0</ele><time>2026-04-25T17:04:19.808Z</time></trkpt><trkpt lat="42.53690454064371" lon="11.915866313117055"><ele>360.33333333333337</ele><time>2026-04-25T17:04:20.808Z</time></trkpt><trkpt lat="42.53677067709243" lon="11.916028736950901"><ele>361.6666666666667</ele><time>2026-04-25T17:04:21.808Z</time></trkpt><trkpt lat="42.53663729578959" lon="11.91618818917779"><ele>363.0</ele><time>2026-04-25T17:04:22.807Z</time></trkpt><trkpt lat="42.53649733241411" lon="11.91632662100192"><ele>363.0</ele><time>2026-04-25T17:04:23.807Z</time></trkpt><trkpt lat="42.536364436722344" lon="11.916478501771106"><ele>363.0</ele><time>2026-04-25T17:04:24.807Z</time></trkpt><trkpt lat="42.53623152872317" lon="11.916630396633765"><ele>363.0</ele><time>2026-04-25T17:04:25.807Z</time></trkpt><trkpt lat="42.53610476709784" lon="11.916796361884016"><ele>356.0</ele><time>2026-04-25T17:04:26.807Z</time></trkpt><trkpt lat="42.53595648140639" lon="11.916967415363573"><ele>349.0</ele><time>2026-04-25T17:04:27.807Z</time></trkpt><trkpt lat="42.53578657753236" lon="11.917140008831032"><ele>342.0</ele><time>2026-04-25T17:04:28.807Z</time></trkpt><trkpt lat="42.53561454990038" lon="11.917338721075344"><ele>342.0</ele><time>2026-04-25T17:04:29.807Z</time></trkpt><trkpt lat="42.535435630571214" lon="11.917545196796349"><ele>342.0</ele><time>2026-04-25T17:04:30.807Z</time></trkpt><trkpt lat="42.5352668185114" lon="11.917738394299645"><ele>341.6666666666667</ele><time>2026-04-25T17:04:31.807Z</time></trkpt><trkpt lat="42.53510706683605" lon="11.91792122265841"><ele>341.33333333333337</ele><time>2026-04-25T17:04:32.807Z</time></trkpt><trkpt lat="42.53494982249887" lon="11.918100871798178"><ele>341.0</ele><time>2026-04-25T17:04:33.807Z</time></trkpt><trkpt lat="42.53478943604776" lon="11.918283974698763"><ele>340.6666666666667</ele><time>2026-04-25T17:04:34.807Z</time></trkpt><trkpt lat="42.53463474988779" lon="11.918462724121783"><ele>340.3333333333333</ele><time>2026-04-25T17:04:35.807Z</time></trkpt><trkpt lat="42.53448827683451" lon="11.918630214610822"><ele>340.0</ele><time>2026-04-25T17:04:36.807Z</time></trkpt><trkpt lat="42.53433938105982" lon="11.918793132438678"><ele>340.0</ele><time>2026-04-25T17:04:37.807Z</time></trkpt><trkpt lat="42.534181756513284" lon="11.91896368597082"><ele>340.0</ele><time>2026-04-25T17:04:38.807Z</time></trkpt><trkpt lat="42.53402306381113" lon="11.919137738388674"><ele>340.0</ele><time>2026-04-25T17:04:39.807Z</time></trkpt><trkpt lat="42.53385756247994" lon="11.919319258450189"><ele>336.0</ele><time>2026-04-25T17:04:40.807Z</time></trkpt><trkpt lat="42.53368092455328" lon="11.919509743615897"><ele>332.0</ele><time>2026-04-25T17:04:41.807Z</time></trkpt><trkpt lat="42.53349701746514" lon="11.919703848631906"><ele>332.0</ele><time>2026-04-25T17:04:42.807Z</time></trkpt><trkpt lat="42.53330929514105" lon="11.9198945324801"><ele>332.0</ele><time>2026-04-25T17:04:43.807Z</time></trkpt><trkpt lat="42.533119541645284" lon="11.920084461596055"><ele>329.5</ele><time>2026-04-25T17:04:44.807Z</time></trkpt><trkpt lat="42.53290325775025" lon="11.920229241687943"><ele>327.0</ele><time>2026-04-25T17:04:45.806Z</time></trkpt><trkpt lat="42.532676409091785" lon="11.920359035431524"><ele>327.0</ele><time>2026-04-25T17:04:46.806Z</time></trkpt><trkpt lat="42.53243745386976" lon="11.92047846892715"><ele>327.0</ele><time>2026-04-25T17:04:47.806Z</time></trkpt><trkpt lat="42.53219784072545" lon="11.92058420531263"><ele>326.5</ele><time>2026-04-25T17:04:48.806Z</time></trkpt><trkpt lat="42.53197340911916" lon="11.920678624811286"><ele>326.0</ele><time>2026-04-25T17:04:49.806Z</time></trkpt><trkpt lat="42.531757319419825" lon="11.920767625710193"><ele>326.0</ele><time>2026-04-25T17:04:50.806Z</time></trkpt><trkpt lat="42.53154743511361" lon="11.920864388380485"><ele>326.0</ele><time>2026-04-25T17:04:51.806Z</time></trkpt><trkpt lat="42.5313419685288" lon="11.920969414772918"><ele>326.0</ele><time>2026-04-25T17:04:52.806Z</time></trkpt><trkpt lat="42.53115629536582" lon="11.921090934800919"><ele>322.33333333333337</ele><time>2026-04-25T17:04:53.806Z</time></trkpt><trkpt lat="42.530980730856186" lon="11.921234497567744"><ele>318.6666666666667</ele><time>2026-04-25T17:04:54.806Z</time></trkpt><trkpt lat="42.530824178424005" lon="11.921413945269627"><ele>315.0</ele><time>2026-04-25T17:04:55.806Z</time></trkpt><trkpt lat="42.53068481615387" lon="11.921617996610383"><ele>314.3333333333333</ele><time>2026-04-25T17:04:56.806Z</time></trkpt><trkpt lat="42.530556185109916" lon="11.92183374574512"><ele>313.66666666666663</ele><time>2026-04-25T17:04:57.806Z</time></trkpt><trkpt lat="42.53045557917196" lon="11.922065328364614"><ele>313.0</ele><time>2026-04-25T17:04:58.806Z</time></trkpt><trkpt lat="42.53037299880262" lon="11.92231385919312"><ele>313.3333333333333</ele><time>2026-04-25T17:04:59.806Z</time></trkpt><trkpt lat="42.53029831806791" lon="11.922574944017397"><ele>313.6666666666667</ele><time>2026-04-25T17:05:00.806Z</time></trkpt><trkpt lat="42.530228624404906" lon="11.922841835179067"><ele>314.0</ele><time>2026-04-25T17:05:01.806Z</time></trkpt><trkpt lat="42.53016612610657" lon="11.923096484163839"><ele>314.0</ele><time>2026-04-25T17:05:02.806Z</time></trkpt><trkpt lat="42.53010669199529" lon="11.923341979899773"><ele>314.0</ele><time>2026-04-25T17:05:03.806Z</time></trkpt><trkpt lat="42.53004784129179" lon="11.923588142543188"><ele>314.0</ele><time>2026-04-25T17:05:04.806Z</time></trkpt><trkpt lat="42.52999854934538" lon="11.923825630446458"><ele>315.0</ele><time>2026-04-25T17:05:05.806Z</time></trkpt><trkpt lat="42.52994188800971" lon="11.924058661727301"><ele>316.0</ele><time>2026-04-25T17:05:06.806Z</time></trkpt><trkpt lat="42.529887962543086" lon="11.92429398698586"><ele>317.0</ele><time>2026-04-25T17:05:07.806Z</time></trkpt><trkpt lat="42.52983053953722" lon="11.924535559195931"><ele>318.0</ele><time>2026-04-25T17:05:08.805Z</time></trkpt><trkpt lat="42.52975458384392" lon="11.92478083131559"><ele>319.0</ele><time>2026-04-25T17:05:09.805Z</time></trkpt><trkpt lat="42.52969788857472" lon="11.925051664369883"><ele>320.0</ele><time>2026-04-25T17:05:10.805Z</time></trkpt><trkpt lat="42.52963037917088" lon="11.925345254325133"><ele>319.5</ele><time>2026-04-25T17:05:11.805Z</time></trkpt><trkpt lat="42.529547975114276" lon="11.92565347038106"><ele>319.0</ele><time>2026-04-25T17:05:12.805Z</time></trkpt><trkpt lat="42.52947350088421" lon="11.9259634469423"><ele>319.0</ele><time>2026-04-25T17:05:13.805Z</time></trkpt><trkpt lat="42.529406819797536" lon="11.926271446489217"><ele>319.0</ele><time>2026-04-25T17:05:14.805Z</time></trkpt><trkpt lat="42.52933619725708" lon="11.926575398622285"><ele>315.0</ele><time>2026-04-25T17:05:15.805Z</time></trkpt><trkpt lat="42.52926279856719" lon="11.926877206869785"><ele>311.0</ele><time>2026-04-25T17:05:16.805Z</time></trkpt><trkpt lat="42.529182565529716" lon="11.927180718174437"><ele>311.0</ele><time>2026-04-25T17:05:17.805Z</time></trkpt><trkpt lat="42.5291094793476" lon="11.927496947802085"><ele>311.0</ele><time>2026-04-25T17:05:18.805Z</time></trkpt><trkpt lat="42.529032577214444" lon="11.92781947574449"><ele>312.5</ele><time>2026-04-25T17:05:19.805Z</time></trkpt><trkpt lat="42.52895043468688" lon="11.928145758488608"><ele>314.0</ele><time>2026-04-25T17:05:20.805Z</time></trkpt><trkpt lat="42.52887382548289" lon="11.928476095170588"><ele>318.0</ele><time>2026-04-25T17:05:21.805Z</time></trkpt><trkpt lat="42.52880162327862" lon="11.928787541475815"><ele>322.0</ele><time>2026-04-25T17:05:22.805Z</time></trkpt><trkpt lat="42.52873854180016" lon="11.92909403855232"><ele>325.5</ele><time>2026-04-25T17:05:23.805Z</time></trkpt><trkpt lat="42.528676630591285" lon="11.929391846451473"><ele>329.0</ele><time>2026-04-25T17:05:24.805Z</time></trkpt><trkpt lat="42.52860632734905" lon="11.92968504267589"><ele>329.0</ele><time>2026-04-25T17:05:25.805Z</time></trkpt><trkpt lat="42.528534523929146" lon="11.929979070378273"><ele>329.0</ele><time>2026-04-25T17:05:26.805Z</time></trkpt><trkpt lat="42.52846333512429" lon="11.93027829846405"><ele>329.0</ele><time>2026-04-25T17:05:27.805Z</time></trkpt><trkpt lat="42.52839357947316" lon="11.930579748042183"><ele>329.0</ele><time>2026-04-25T17:05:28.805Z</time></trkpt><trkpt lat="42.52832527048549" lon="11.930880751382213"><ele>329.6666666666667</ele><time>2026-04-25T17:05:29.805Z</time></trkpt><trkpt lat="42.528259694567275" lon="11.931167621145097"><ele>330.3333333333333</ele><time>2026-04-25T17:05:30.805Z</time></trkpt><trkpt lat="42.52819860645758" lon="11.931442048601774"><ele>331.0</ele><time>2026-04-25T17:05:31.804Z</time></trkpt><trkpt lat="42.52813480152987" lon="11.931715180764973"><ele>331.3333333333333</ele><time>2026-04-25T17:05:32.804Z</time></trkpt><trkpt lat="42.52807861941837" lon="11.931977735762795"><ele>331.6666666666667</ele><time>2026-04-25T17:05:33.804Z</time></trkpt><trkpt lat="42.5280344966811" lon="11.932231669010239"><ele>332.0</ele><time>2026-04-25T17:05:34.804Z</time></trkpt><trkpt lat="42.52801378377923" lon="11.932481453668583"><ele>331.6666666666667</ele><time>2026-04-25T17:05:35.804Z</time></trkpt><trkpt lat="42.5279991950549" lon="11.932731132419917"><ele>331.3333333333333</ele><time>2026-04-25T17:05:36.804Z</time></trkpt><trkpt lat="42.52798967077355" lon="11.932988841657474"><ele>331.0</ele><time>2026-04-25T17:05:37.804Z</time></trkpt><trkpt lat="42.52798592920691" lon="11.933256080899508"><ele>331.0</ele><time>2026-04-25T17:05:38.804Z</time></trkpt><trkpt lat="42.527995938528626" lon="11.93353003338647"><ele>331.0</ele><time>2026-04-25T17:05:39.804Z</time></trkpt><trkpt lat="42.52802550591532" lon="11.93381543247953"><ele>331.0</ele><time>2026-04-25T17:05:40.804Z</time></trkpt><trkpt lat="42.52806522877696" lon="11.934111775827626"><ele>332.5</ele><time>2026-04-25T17:05:41.804Z</time></trkpt><trkpt lat="42.52810269244594" lon="11.934413275282573"><ele>334.0</ele><time>2026-04-25T17:05:42.804Z</time></trkpt><trkpt lat="42.528147857128545" lon="11.934721673279933"><ele>334.0</ele><time>2026-04-25T17:05:43.804Z</time></trkpt><trkpt lat="42.52819701823006" lon="11.935032631884647"><ele>334.0</ele><time>2026-04-25T17:05:44.804Z</time></trkpt><trkpt lat="42.528231870836855" lon="11.935345366713655"><ele>334.5</ele><time>2026-04-25T17:05:45.804Z</time></trkpt><trkpt lat="42.52825806247862" lon="11.935659186460168"><ele>335.0</ele><time>2026-04-25T17:05:46.804Z</time></trkpt><trkpt lat="42.52827428166228" lon="11.935986509708727"><ele>335.0</ele><time>2026-04-25T17:05:47.804Z</time></trkpt><trkpt lat="42.52830131718617" lon="11.936317229625015"><ele>335.0</ele><time>2026-04-25T17:05:48.804Z</time></trkpt><trkpt lat="42.528335635924485" lon="11.936651292342804"><ele>335.0</ele><time>2026-04-25T17:05:49.804Z</time></trkpt><trkpt lat="42.52836847933639" lon="11.93698937137532"><ele>335.0</ele><time>2026-04-25T17:05:50.804Z</time></trkpt><trkpt lat="42.52840323704352" lon="11.937319192510577"><ele>335.5</ele><time>2026-04-25T17:05:51.804Z</time></trkpt><trkpt lat="42.528440728527286" lon="11.937628175239142"><ele>336.0</ele><time>2026-04-25T17:05:52.804Z</time></trkpt><trkpt lat="42.52847663033216" lon="11.937932618091882"><ele>336.0</ele><time>2026-04-25T17:05:53.804Z</time></trkpt><trkpt lat="42.52850533772161" lon="11.938221633667427"><ele>336.0</ele><time>2026-04-25T17:05:54.803Z</time></trkpt><trkpt lat="42.528527394081" lon="11.938495434215282"><ele>336.0</ele><time>2026-04-25T17:05:55.803Z</time></trkpt><trkpt lat="42.528548275434346" lon="11.93876519968596"><ele>336.6666666666667</ele><time>2026-04-25T17:05:56.803Z</time></trkpt><trkpt lat="42.52856632446445" lon="11.939035061086393"><ele>337.33333333333337</ele><time>2026-04-25T17:05:57.803Z</time></trkpt><trkpt lat="42.52856981022929" lon="11.939307810786199"><ele>338.0</ele><time>2026-04-25T17:05:58.805Z</time></trkpt><trkpt lat="42.52855884291477" lon="11.939576968546499"><ele>339.33333333333337</ele><time>2026-04-25T17:05:59.806Z</time></trkpt><trkpt lat="42.528543802981126" lon="11.939844721668125"><ele>340.6666666666667</ele><time>2026-04-25T17:06:00.806Z</time></trkpt><trkpt lat="42.528524719577774" lon="11.940088116631477"><ele>342.0</ele><time>2026-04-25T17:06:01.806Z</time></trkpt><trkpt lat="42.52849505416364" lon="11.940314663727637"><ele>342.6666666666667</ele><time>2026-04-25T17:06:02.806Z</time></trkpt><trkpt lat="42.528457365549095" lon="11.940529670444512"><ele>343.33333333333337</ele><time>2026-04-25T17:06:03.806Z</time></trkpt><trkpt lat="42.52840583532387" lon="11.940729012188578"><ele>344.0</ele><time>2026-04-25T17:06:04.806Z</time></trkpt><trkpt lat="42.5283425068982" lon="11.940920225151833"><ele>344.0</ele><time>2026-04-25T17:06:05.806Z</time></trkpt><trkpt lat="42.52827159053851" lon="11.94110954717512"><ele>344.0</ele><time>2026-04-25T17:06:06.805Z</time></trkpt><trkpt lat="42.528195211883435" lon="11.941296829359162"><ele>344.0</ele><time>2026-04-25T17:06:07.805Z</time></trkpt><trkpt lat="42.52812321696691" lon="11.941479925273715"><ele>344.0</ele><time>2026-04-25T17:06:08.805Z</time></trkpt><trkpt lat="42.5280400458635" lon="11.941667271023167"><ele>344.0</ele><time>2026-04-25T17:06:09.805Z</time></trkpt><trkpt lat="42.527956191867084" lon="11.941868384158896"><ele>344.0</ele><time>2026-04-25T17:06:10.806Z</time></trkpt><trkpt lat="42.527873318466966" lon="11.94209081511277"><ele>345.6666666666667</ele><time>2026-04-25T17:06:11.806Z</time></trkpt><trkpt lat="42.527779882442594" lon="11.942323923941869"><ele>347.3333333333333</ele><time>2026-04-25T17:06:12.806Z</time></trkpt><trkpt lat="42.52764703726063" lon="11.942553285302854"><ele>349.0</ele><time>2026-04-25T17:06:13.806Z</time></trkpt><trkpt lat="42.527527651360224" lon="11.942826705558101"><ele>349.5</ele><time>2026-04-25T17:06:14.805Z</time></trkpt><trkpt lat="42.527415956234584" lon="11.943117074326317"><ele>350.0</ele><time>2026-04-25T17:06:15.805Z</time></trkpt><trkpt lat="42.52728954851737" lon="11.943380422682282"><ele>350.6666666666667</ele><time>2026-04-25T17:06:16.805Z</time></trkpt><trkpt lat="42.52716513751833" lon="11.94363991391877"><ele>351.3333333333333</ele><time>2026-04-25T17:06:17.805Z</time></trkpt><trkpt lat="42.52704631870573" lon="11.943889387321093"><ele>352.0</ele><time>2026-04-25T17:06:18.805Z</time></trkpt><trkpt lat="42.52692821126669" lon="11.944126431517848"><ele>353.0</ele><time>2026-04-25T17:06:19.805Z</time></trkpt><trkpt lat="42.52681338405541" lon="11.944356555153739"><ele>354.0</ele><time>2026-04-25T17:06:20.805Z</time></trkpt><trkpt lat="42.5267037033059" lon="11.944581872306383"><ele>355.0</ele><time>2026-04-25T17:06:21.805Z</time></trkpt><trkpt lat="42.52659221697585" lon="11.94481257066781"><ele>355.0</ele><time>2026-04-25T17:06:22.805Z</time></trkpt><trkpt lat="42.52647411850389" lon="11.945046785025562"><ele>355.0</ele><time>2026-04-25T17:06:23.805Z</time></trkpt><trkpt lat="42.52635439441993" lon="11.945293168545813"><ele>355.0</ele><time>2026-04-25T17:06:24.805Z</time></trkpt><trkpt lat="42.52622832332486" lon="11.94553301173338"><ele>355.0</ele><time>2026-04-25T17:06:25.805Z</time></trkpt><trkpt lat="42.52610759905635" lon="11.945774099521723"><ele>355.0</ele><time>2026-04-25T17:06:26.805Z</time></trkpt><trkpt lat="42.52598786683435" lon="11.946008018504525"><ele>355.0</ele><time>2026-04-25T17:06:27.805Z</time></trkpt><trkpt lat="42.52586996982937" lon="11.946240780964871"><ele>355.3333333333333</ele><time>2026-04-25T17:06:28.805Z</time></trkpt><trkpt lat="42.52575844655406" lon="11.94645637562504"><ele>355.6666666666667</ele><time>2026-04-25T17:06:29.805Z</time></trkpt><trkpt lat="42.52565984279782" lon="11.946664601401052"><ele>356.0</ele><time>2026-04-25T17:06:30.805Z</time></trkpt><trkpt lat="42.52556509195875" lon="11.946874301718708"><ele>356.33333333333337</ele><time>2026-04-25T17:06:31.805Z</time></trkpt><trkpt lat="42.525472493613904" lon="11.947088198678953"><ele>356.6666666666667</ele><time>2026-04-25T17:06:32.805Z</time></trkpt><trkpt lat="42.52538409840275" lon="11.947302712210027"><ele>357.0</ele><time>2026-04-25T17:06:33.805Z</time></trkpt><trkpt lat="42.52529480568861" lon="11.94751879238739"><ele>358.3333333333333</ele><time>2026-04-25T17:06:34.805Z</time></trkpt><trkpt lat="42.525209306991336" lon="11.947746888682566"><ele>359.66666666666663</ele><time>2026-04-25T17:06:35.805Z</time></trkpt><trkpt lat="42.525133229948366" lon="11.947985237271707"><ele>361.0</ele><time>2026-04-25T17:06:36.805Z</time></trkpt><trkpt lat="42.52506298771285" lon="11.948232674573216"><ele>361.0</ele><time>2026-04-25T17:06:37.804Z</time></trkpt><trkpt lat="42.52496499810363" lon="11.948495431546808"><ele>361.0</ele><time>2026-04-25T17:06:38.804Z</time></trkpt><trkpt lat="42.52487329737654" lon="11.948780535650297"><ele>361.0</ele><time>2026-04-25T17:06:39.804Z</time></trkpt><trkpt lat="42.524786422456366" lon="11.949079351258911"><ele>362.0</ele><time>2026-04-25T17:06:40.804Z</time></trkpt><trkpt lat="42.52469015397211" lon="11.949365630315626"><ele>363.0</ele><time>2026-04-25T17:06:41.804Z</time></trkpt><trkpt lat="42.52460220847021" lon="11.949647786206567"><ele>364.3333333333333</ele><time>2026-04-25T17:06:42.804Z</time></trkpt><trkpt lat="42.52451793492051" lon="11.949920112520465"><ele>365.66666666666663</ele><time>2026-04-25T17:06:43.804Z</time></trkpt><trkpt lat="42.524436390754815" lon="11.950172268975331"><ele>367.0</ele><time>2026-04-25T17:06:44.804Z</time></trkpt><trkpt lat="42.524363678618755" lon="11.95043539156578"><ele>367.0</ele><time>2026-04-25T17:06:45.804Z</time></trkpt><trkpt lat="42.52430487593345" lon="11.95070080424755"><ele>367.0</ele><time>2026-04-25T17:06:46.804Z</time></trkpt><trkpt lat="42.52425233149842" lon="11.950969220464671"><ele>367.0</ele><time>2026-04-25T17:06:47.804Z</time></trkpt><trkpt lat="42.524203334465966" lon="11.951227686266984"><ele>367.0</ele><time>2026-04-25T17:06:48.804Z</time></trkpt><trkpt lat="42.52415855966213" lon="11.95147981834196"><ele>367.0</ele><time>2026-04-25T17:06:49.804Z</time></trkpt><trkpt lat="42.52411937094421" lon="11.95173568442708"><ele>367.0</ele><time>2026-04-25T17:06:50.804Z</time></trkpt><trkpt lat="42.52408562558278" lon="11.951997922155124"><ele>367.66666666666663</ele><time>2026-04-25T17:06:51.804Z</time></trkpt><trkpt lat="42.52406018860257" lon="11.952267563512121"><ele>368.3333333333333</ele><time>2026-04-25T17:06:52.804Z</time></trkpt><trkpt lat="42.52403847577615" lon="11.952537655355115"><ele>369.0</ele><time>2026-04-25T17:06:53.804Z</time></trkpt><trkpt lat="42.52402534918303" lon="11.952805143143783"><ele>369.3333333333333</ele><time>2026-04-25T17:06:54.804Z</time></trkpt><trkpt lat="42.5240329106402" lon="11.953082540218745"><ele>369.66666666666663</ele><time>2026-04-25T17:06:55.804Z</time></trkpt><trkpt lat="42.52406386181432" lon="11.95337342647538"><ele>370.0</ele><time>2026-04-25T17:06:56.804Z</time></trkpt><trkpt lat="42.52407336024502" lon="11.953675079705961"><ele>371.0</ele><time>2026-04-25T17:06:57.804Z</time></trkpt><trkpt lat="42.524136011065124" lon="11.953962952187746"><ele>372.0</ele><time>2026-04-25T17:06:58.804Z</time></trkpt><trkpt lat="42.52414717598583" lon="11.954245968007303"><ele>373.0</ele><time>2026-04-25T17:06:59.804Z</time></trkpt><trkpt lat="42.52415547909088" lon="11.954530890841442"><ele>374.66666666666663</ele><time>2026-04-25T17:07:00.803Z</time></trkpt><trkpt lat="42.52414779894969" lon="11.954812855564883"><ele>376.3333333333333</ele><time>2026-04-25T17:07:01.803Z</time></trkpt><trkpt lat="42.524117293815706" lon="11.955104472331183"><ele>378.0</ele><time>2026-04-25T17:07:02.803Z</time></trkpt><trkpt lat="42.52407247565441" lon="11.95539625122039"><ele>379.0</ele><time>2026-04-25T17:07:03.803Z</time></trkpt><trkpt lat="42.52402051933385" lon="11.95568210112401"><ele>380.0</ele><time>2026-04-25T17:07:04.803Z</time></trkpt><trkpt lat="42.52396953589539" lon="11.955964249426533"><ele>381.0</ele><time>2026-04-25T17:07:05.803Z</time></trkpt><trkpt lat="42.52392018842657" lon="11.956252251733606"><ele>381.3333333333333</ele><time>2026-04-25T17:07:06.803Z</time></trkpt><trkpt lat="42.52386852216675" lon="11.95653235599609"><ele>381.66666666666663</ele><time>2026-04-25T17:07:07.803Z</time></trkpt><trkpt lat="42.52382684105893" lon="11.95682467060384"><ele>382.0</ele><time>2026-04-25T17:07:08.803Z</time></trkpt><trkpt lat="42.52380062732822" lon="11.957126990668245"><ele>381.0</ele><time>2026-04-25T17:07:09.803Z</time></trkpt><trkpt lat="42.523799343873556" lon="11.957440170313262"><ele>380.0</ele><time>2026-04-25T17:07:10.803Z</time></trkpt><trkpt lat="42.52382230188936" lon="11.957756866019617"><ele>379.0</ele><time>2026-04-25T17:07:11.803Z</time></trkpt><trkpt lat="42.52385402402198" lon="11.958077330563277"><ele>378.0</ele><time>2026-04-25T17:07:12.803Z</time></trkpt><trkpt lat="42.5238922605685" lon="11.958395913213584"><ele>376.6666666666667</ele><time>2026-04-25T17:07:13.803Z</time></trkpt><trkpt lat="42.5239179107456" lon="11.958685624772578"><ele>375.33333333333337</ele><time>2026-04-25T17:07:14.803Z</time></trkpt><trkpt lat="42.52394212803345" lon="11.958934084832933"><ele>374.0</ele><time>2026-04-25T17:07:15.803Z</time></trkpt><trkpt lat="42.52396242149098" lon="11.959159055823136"><ele>374.6666666666667</ele><time>2026-04-25T17:07:16.803Z</time></trkpt><trkpt lat="42.52398295629314" lon="11.95936931705447"><ele>375.3333333333333</ele><time>2026-04-25T17:07:17.803Z</time></trkpt><trkpt lat="42.52400797394303" lon="11.959581725429192"><ele>376.0</ele><time>2026-04-25T17:07:18.803Z</time></trkpt><trkpt lat="42.52404403234497" lon="11.959820164817708"><ele>376.66666666666663</ele><time>2026-04-25T17:07:19.803Z</time></trkpt><trkpt lat="42.52407548538604" lon="11.960090591434545"><ele>377.3333333333333</ele><time>2026-04-25T17:07:20.803Z</time></trkpt><trkpt lat="42.524097170902046" lon="11.96038609679277"><ele>378.0</ele><time>2026-04-25T17:07:21.803Z</time></trkpt><trkpt lat="42.5241260170443" lon="11.960690420337915"><ele>377.5</ele><time>2026-04-25T17:07:22.803Z</time></trkpt><trkpt lat="42.52416603067153" lon="11.96099427864377"><ele>377.0</ele><time>2026-04-25T17:07:23.802Z</time></trkpt><trkpt lat="42.52421119357886" lon="11.961291665213025"><ele>377.0</ele><time>2026-04-25T17:07:24.802Z</time></trkpt><trkpt lat="42.52426758495242" lon="11.961588605864769"><ele>377.0</ele><time>2026-04-25T17:07:25.802Z</time></trkpt><trkpt lat="42.524322499347555" lon="11.961888113642248"><ele>375.5</ele><time>2026-04-25T17:07:26.802Z</time></trkpt><trkpt lat="42.524369906200974" lon="11.962199657301467"><ele>374.0</ele><time>2026-04-25T17:07:27.802Z</time></trkpt><trkpt lat="42.52440950410995" lon="11.96251555296583"><ele>373.5</ele><time>2026-04-25T17:07:28.802Z</time></trkpt><trkpt lat="42.52444915097446" lon="11.962833419433807"><ele>373.0</ele><time>2026-04-25T17:07:29.802Z</time></trkpt><trkpt lat="42.52449212800747" lon="11.963128137441622"><ele>373.0</ele><time>2026-04-25T17:07:30.802Z</time></trkpt><trkpt lat="42.524529139527985" lon="11.963423692294048"><ele>373.0</ele><time>2026-04-25T17:07:31.802Z</time></trkpt><trkpt lat="42.52456182630288" lon="11.9637127698982"><ele>373.0</ele><time>2026-04-25T17:07:32.802Z</time></trkpt><trkpt lat="42.524571057154986" lon="11.963999873527353"><ele>372.66666666666663</ele><time>2026-04-25T17:07:33.802Z</time></trkpt><trkpt lat="42.524551140657415" lon="11.964294197078765"><ele>372.3333333333333</ele><time>2026-04-25T17:07:34.802Z</time></trkpt><trkpt lat="42.52451960793358" lon="11.964574103315854"><ele>372.0</ele><time>2026-04-25T17:07:35.802Z</time></trkpt><trkpt lat="42.52447477362631" lon="11.964853765059884"><ele>373.6666666666667</ele><time>2026-04-25T17:07:36.802Z</time></trkpt><trkpt lat="42.52441855413283" lon="11.96512793298266"><ele>375.33333333333337</ele><time>2026-04-25T17:07:37.802Z</time></trkpt><trkpt lat="42.52435833214568" lon="11.965392304461028"><ele>377.0</ele><time>2026-04-25T17:07:38.802Z</time></trkpt><trkpt lat="42.52429504028504" lon="11.965635600907946"><ele>378.0</ele><time>2026-04-25T17:07:39.802Z</time></trkpt><trkpt lat="42.524240453754764" lon="11.96586525818968"><ele>379.0</ele><time>2026-04-25T17:07:40.802Z</time></trkpt><trkpt lat="42.524188969535146" lon="11.966086138475378"><ele>380.0</ele><time>2026-04-25T17:07:41.802Z</time></trkpt><trkpt lat="42.52414645541637" lon="11.966298206848489"><ele>380.0</ele><time>2026-04-25T17:07:42.802Z</time></trkpt><trkpt lat="42.52409525378351" lon="11.966498449135754"><ele>380.0</ele><time>2026-04-25T17:07:43.802Z</time></trkpt><trkpt lat="42.52404431671169" lon="11.966671561931594"><ele>380.0</ele><time>2026-04-25T17:07:44.802Z</time></trkpt><trkpt lat="42.52399976182483" lon="11.966809243410971"><ele>380.0</ele><time>2026-04-25T17:07:45.802Z</time></trkpt><trkpt lat="42.523970793375334" lon="11.966933186163887"><ele>381.0</ele><time>2026-04-25T17:07:46.801Z</time></trkpt><trkpt lat="42.52396156410389" lon="11.967073039158857"><ele>382.0</ele><time>2026-04-25T17:07:47.801Z</time></trkpt><trkpt lat="42.52397671835345" lon="11.967247493242994"><ele>383.0</ele><time>2026-04-25T17:07:48.801Z</time></trkpt><trkpt lat="42.52397828806746" lon="11.967448297774048"><ele>384.0</ele><time>2026-04-25T17:07:49.802Z</time></trkpt><trkpt lat="42.52394827644426" lon="11.967668512617328"><ele>384.33333333333337</ele><time>2026-04-25T17:07:50.804Z</time></trkpt><trkpt lat="42.523879404426125" lon="11.967897146739961"><ele>384.6666666666667</ele><time>2026-04-25T17:07:51.807Z</time></trkpt><trkpt lat="42.52378917873084" lon="11.968123676686934"><ele>385.0</ele><time>2026-04-25T17:07:52.809Z</time></trkpt><trkpt lat="42.52367389363471" lon="11.96835273981879"><ele>388.0</ele><time>2026-04-25T17:07:53.811Z</time></trkpt><trkpt lat="42.52352945135499" lon="11.968577425558658"><ele>391.0</ele><time>2026-04-25T17:07:54.813Z</time></trkpt><trkpt lat="42.52337942083437" lon="11.96881241792205"><ele>394.0</ele><time>2026-04-25T17:07:55.814Z</time></trkpt><trkpt lat="42.52324069461495" lon="11.969031389812256"><ele>393.6666666666667</ele><time>2026-04-25T17:07:56.816Z</time></trkpt><trkpt lat="42.52310088612374" lon="11.969243585143039"><ele>393.33333333333337</ele><time>2026-04-25T17:07:57.818Z</time></trkpt><trkpt lat="42.522979463246685" lon="11.969461833377867"><ele>393.0</ele><time>2026-04-25T17:07:58.819Z</time></trkpt><trkpt lat="42.5228794951177" lon="11.969697991297009"><ele>393.0</ele><time>2026-04-25T17:07:59.82Z</time></trkpt><trkpt lat="42.522787385331" lon="11.969933525039968"><ele>393.0</ele><time>2026-04-25T17:08:00.822Z</time></trkpt><trkpt lat="42.5227168325279" lon="11.970183272108434"><ele>393.0</ele><time>2026-04-25T17:08:01.823Z</time></trkpt><trkpt lat="42.522666144886045" lon="11.970435693648708"><ele>394.0</ele><time>2026-04-25T17:08:02.824Z</time></trkpt><trkpt lat="42.522641462812174" lon="11.970706840720045"><ele>395.0</ele><time>2026-04-25T17:08:03.825Z</time></trkpt><trkpt lat="42.52262107839051" lon="11.970985608597005"><ele>396.0</ele><time>2026-04-25T17:08:04.828Z</time></trkpt><trkpt lat="42.52259953860055" lon="11.971279718699774"><ele>396.66666666666663</ele><time>2026-04-25T17:08:05.829Z</time></trkpt><trkpt lat="42.522581664965145" lon="11.971576682552815"><ele>397.3333333333333</ele><time>2026-04-25T17:08:06.83Z</time></trkpt><trkpt lat="42.52257719399724" lon="11.97187949262001"><ele>398.0</ele><time>2026-04-25T17:08:07.831Z</time></trkpt><trkpt lat="42.52256849603204" lon="11.972172283026923"><ele>400.0</ele><time>2026-04-25T17:08:08.832Z</time></trkpt><trkpt lat="42.522541959866516" lon="11.972459873092939"><ele>402.0</ele><time>2026-04-25T17:08:09.832Z</time></trkpt><trkpt lat="42.522500059195515" lon="11.972747874751464"><ele>404.0</ele><time>2026-04-25T17:08:10.833Z</time></trkpt><trkpt lat="42.52244075865131" lon="11.97303123422086"><ele>405.5</ele><time>2026-04-25T17:08:11.834Z</time></trkpt><trkpt lat="42.522380983549326" lon="11.97332476941556"><ele>407.0</ele><time>2026-04-25T17:08:12.834Z</time></trkpt><trkpt lat="42.52229476144989" lon="11.973614369649257"><ele>407.66666666666663</ele><time>2026-04-25T17:08:13.834Z</time></trkpt><trkpt lat="42.52218163513429" lon="11.973899829733302"><ele>408.33333333333337</ele><time>2026-04-25T17:08:14.835Z</time></trkpt><trkpt lat="42.52207445987748" lon="11.97414142984386"><ele>409.0</ele><time>2026-04-25T17:08:15.836Z</time></trkpt><trkpt lat="42.52197413713103" lon="11.97436149407008"><ele>409.0</ele><time>2026-04-25T17:08:16.835Z</time></trkpt><trkpt lat="42.52189053112669" lon="11.97457249710908"><ele>409.0</ele><time>2026-04-25T17:08:17.837Z</time></trkpt><trkpt lat="42.5218290727561" lon="11.974781276512623"><ele>409.0</ele><time>2026-04-25T17:08:18.837Z</time></trkpt><trkpt lat="42.52181078684621" lon="11.975002456911207"><ele>409.6666666666667</ele><time>2026-04-25T17:08:19.837Z</time></trkpt><trkpt lat="42.52182545906016" lon="11.975222155305689"><ele>410.33333333333337</ele><time>2026-04-25T17:08:20.838Z</time></trkpt><trkpt lat="42.52186224825527" lon="11.975421708899683"><ele>411.0</ele><time>2026-04-25T17:08:21.838Z</time></trkpt><trkpt lat="42.521928211212234" lon="11.975603240311377"><ele>411.0</ele><time>2026-04-25T17:08:22.838Z</time></trkpt><trkpt lat="42.52202548183679" lon="11.97576392673203"><ele>411.0</ele><time>2026-04-25T17:08:23.838Z</time></trkpt><trkpt lat="42.52215006742805" lon="11.975907169800438"><ele>411.0</ele><time>2026-04-25T17:08:24.839Z</time></trkpt><trkpt lat="42.52229807792556" lon="11.976027309651345"><ele>410.66666666666663</ele><time>2026-04-25T17:08:25.839Z</time></trkpt><trkpt lat="42.52246212655022" lon="11.976134123822186"><ele>410.3333333333333</ele><time>2026-04-25T17:08:26.839Z</time></trkpt><trkpt lat="42.522639408380805" lon="11.976247395917879"><ele>410.0</ele><time>2026-04-25T17:08:27.839Z</time></trkpt><trkpt lat="42.522824658846645" lon="11.976375682349198"><ele>413.0</ele><time>2026-04-25T17:08:28.839Z</time></trkpt><trkpt lat="42.523016380462394" lon="11.976512361080317"><ele>416.0</ele><time>2026-04-25T17:08:29.84Z</time></trkpt><trkpt lat="42.52319940130639" lon="11.976640935128172"><ele>419.0</ele><time>2026-04-25T17:08:30.84Z</time></trkpt><trkpt lat="42.52336848128698" lon="11.976758546020127"><ele>419.0</ele><time>2026-04-25T17:08:31.84Z</time></trkpt><trkpt lat="42.52353534698422" lon="11.976868455022181"><ele>419.0</ele><time>2026-04-25T17:08:32.84Z</time></trkpt><trkpt lat="42.52367373744766" lon="11.9770221162028"><ele>419.0</ele><time>2026-04-25T17:08:33.84Z</time></trkpt><trkpt lat="42.52379313386033" lon="11.977193018503835"><ele>422.0</ele><time>2026-04-25T17:08:34.84Z</time></trkpt><trkpt lat="42.52388570352088" lon="11.977383079752947"><ele>425.0</ele><time>2026-04-25T17:08:35.84Z</time></trkpt><trkpt lat="42.52398000297247" lon="11.977588908411192"><ele>428.0</ele><time>2026-04-25T17:08:36.84Z</time></trkpt><trkpt lat="42.524072862165106" lon="11.977798165471945"><ele>428.0</ele><time>2026-04-25T17:08:37.841Z</time></trkpt><trkpt lat="42.52416921700609" lon="11.97801272317964"><ele>428.0</ele><time>2026-04-25T17:08:38.841Z</time></trkpt><trkpt lat="42.52427076620977" lon="11.978236303644215"><ele>428.0</ele><time>2026-04-25T17:08:39.841Z</time></trkpt><trkpt lat="42.524372915258375" lon="11.978463654507594"><ele>427.3333333333333</ele><time>2026-04-25T17:08:40.841Z</time></trkpt><trkpt lat="42.52448201739235" lon="11.978706814402555"><ele>426.66666666666663</ele><time>2026-04-25T17:08:41.841Z</time></trkpt><trkpt lat="42.52459149954627" lon="11.978947729062911"><ele>426.0</ele><time>2026-04-25T17:08:42.841Z</time></trkpt><trkpt lat="42.52469870069949" lon="11.979187855764852"><ele>429.66666666666663</ele><time>2026-04-25T17:08:43.841Z</time></trkpt><trkpt lat="42.5248104798486" lon="11.979424321008093"><ele>433.3333333333333</ele><time>2026-04-25T17:08:44.841Z</time></trkpt><trkpt lat="42.52493716623477" lon="11.979647813843354"><ele>437.0</ele><time>2026-04-25T17:08:45.841Z</time></trkpt><trkpt lat="42.525075892529316" lon="11.979858223632812"><ele>440.0</ele><time>2026-04-25T17:08:46.841Z</time></trkpt><trkpt lat="42.525220997970884" lon="11.980065805214027"><ele>443.0</ele><time>2026-04-25T17:08:47.841Z</time></trkpt><trkpt lat="42.52536999892542" lon="11.980274909393424"><ele>446.0</ele><time>2026-04-25T17:08:48.841Z</time></trkpt><trkpt lat="42.525526603102996" lon="11.980493803169624"><ele>446.0</ele><time>2026-04-25T17:08:49.841Z</time></trkpt><trkpt lat="42.52569043469973" lon="11.980725852623715"><ele>446.0</ele><time>2026-04-25T17:08:50.841Z</time></trkpt><trkpt lat="42.52585525335458" lon="11.98095865601627"><ele>445.66666666666663</ele><time>2026-04-25T17:08:51.841Z</time></trkpt><trkpt lat="42.52600280837084" lon="11.981168112959288"><ele>445.33333333333337</ele><time>2026-04-25T17:08:52.841Z</time></trkpt><trkpt lat="42.52613885376858" lon="11.981376696820465"><ele>445.0</ele><time>2026-04-25T17:08:53.841Z</time></trkpt><trkpt lat="42.52625501545412" lon="11.981582569065568"><ele>446.33333333333337</ele><time>2026-04-25T17:08:54.841Z</time></trkpt><trkpt lat="42.52632371348872" lon="11.981808008227162"><ele>447.66666666666663</ele><time>2026-04-25T17:08:55.841Z</time></trkpt><trkpt lat="42.52639046048681" lon="11.982055088015926"><ele>449.0</ele><time>2026-04-25T17:08:56.841Z</time></trkpt><trkpt lat="42.52645682839034" lon="11.982322872541886"><ele>449.0</ele><time>2026-04-25T17:08:57.841Z</time></trkpt><trkpt lat="42.52652624016343" lon="11.982608610507924"><ele>449.0</ele><time>2026-04-25T17:08:58.841Z</time></trkpt><trkpt lat="42.526594215674194" lon="11.982891141657"><ele>449.0</ele><time>2026-04-25T17:08:59.841Z</time></trkpt><trkpt lat="42.52666048218409" lon="11.983157484535703"><ele>447.3333333333333</ele><time>2026-04-25T17:09:00.841Z</time></trkpt><trkpt lat="42.526746492637336" lon="11.983404392507882"><ele>445.66666666666663</ele><time>2026-04-25T17:09:01.841Z</time></trkpt><trkpt lat="42.52683683971479" lon="11.983643460542346"><ele>444.0</ele><time>2026-04-25T17:09:02.841Z</time></trkpt><trkpt lat="42.526953548755834" lon="11.98385845080585"><ele>444.66666666666663</ele><time>2026-04-25T17:09:03.841Z</time></trkpt><trkpt lat="42.52709320626836" lon="11.984066121575738"><ele>445.3333333333333</ele><time>2026-04-25T17:09:04.841Z</time></trkpt><trkpt lat="42.52722745273858" lon="11.984267818496834"><ele>446.0</ele><time>2026-04-25T17:09:05.841Z</time></trkpt><trkpt lat="42.5273578457522" lon="11.984486774365996"><ele>446.0</ele><time>2026-04-25T17:09:06.841Z</time></trkpt><trkpt lat="42.527456769501555" lon="11.984719157900123"><ele>446.0</ele><time>2026-04-25T17:09:07.841Z</time></trkpt><trkpt lat="42.52753885904231" lon="11.98497220850082"><ele>446.0</ele><time>2026-04-25T17:09:08.841Z</time></trkpt><trkpt lat="42.52759010791492" lon="11.985244237587363"><ele>446.0</ele><time>2026-04-25T17:09:09.841Z</time></trkpt><trkpt lat="42.527621129865416" lon="11.985541582668496"><ele>446.0</ele><time>2026-04-25T17:09:10.841Z</time></trkpt><trkpt lat="42.52763246682711" lon="11.985853172097528"><ele>447.5</ele><time>2026-04-25T17:09:11.841Z</time></trkpt><trkpt lat="42.52763161016269" lon="11.986184309260855"><ele>449.0</ele><time>2026-04-25T17:09:12.841Z</time></trkpt><trkpt lat="42.52764352089733" lon="11.98653282121269"><ele>449.5</ele><time>2026-04-25T17:09:13.841Z</time></trkpt><trkpt lat="42.527655024820625" lon="11.986888278271953"><ele>450.0</ele><time>2026-04-25T17:09:14.841Z</time></trkpt><trkpt lat="42.52768325631464" lon="11.987261837970966"><ele>451.0</ele><time>2026-04-25T17:09:15.841Z</time></trkpt><trkpt lat="42.52768553698221" lon="11.987660854947533"><ele>452.0</ele><time>2026-04-25T17:09:16.841Z</time></trkpt><trkpt lat="42.527692016654754" lon="11.988058199132205"><ele>453.5</ele><time>2026-04-25T17:09:17.841Z</time></trkpt><trkpt lat="42.52770328637445" lon="11.988438172472947"><ele>455.0</ele><time>2026-04-25T17:09:18.841Z</time></trkpt><trkpt lat="42.52771486756848" lon="11.988797558124046"><ele>455.0</ele><time>2026-04-25T17:09:19.841Z</time></trkpt><trkpt lat="42.527724235371856" lon="11.989151060486346"><ele>455.0</ele><time>2026-04-25T17:09:20.841Z</time></trkpt><trkpt lat="42.52773578485163" lon="11.989487803908759"><ele>455.66666666666663</ele><time>2026-04-25T17:09:21.841Z</time></trkpt><trkpt lat="42.527744755578844" lon="11.989796780618567"><ele>456.33333333333337</ele><time>2026-04-25T17:09:22.841Z</time></trkpt><trkpt lat="42.52775641866357" lon="11.990096402756768"><ele>457.0</ele><time>2026-04-25T17:09:23.841Z</time></trkpt><trkpt lat="42.52777165197761" lon="11.99038235326275"><ele>457.0</ele><time>2026-04-25T17:09:24.84Z</time></trkpt><trkpt lat="42.527789431747294" lon="11.990665721336233"><ele>457.0</ele><time>2026-04-25T17:09:25.84Z</time></trkpt><trkpt lat="42.52780270973667" lon="11.9909230007597"><ele>457.0</ele><time>2026-04-25T17:09:26.84Z</time></trkpt><trkpt lat="42.52780285740655" lon="11.991162474023076"><ele>458.0</ele><time>2026-04-25T17:09:27.84Z</time></trkpt><trkpt lat="42.52777991370544" lon="11.991400411065575"><ele>459.0</ele><time>2026-04-25T17:09:28.84Z</time></trkpt><trkpt lat="42.52773514036352" lon="11.991632961641717"><ele>460.0</ele><time>2026-04-25T17:09:29.84Z</time></trkpt><trkpt lat="42.52765798424348" lon="11.991851339973014"><ele>461.33333333333337</ele><time>2026-04-25T17:09:30.84Z</time></trkpt><trkpt lat="42.52754962066343" lon="11.992057776038436"><ele>462.66666666666663</ele><time>2026-04-25T17:09:31.84Z</time></trkpt><trkpt lat="42.52741285318278" lon="11.992245439987528"><ele>464.0</ele><time>2026-04-25T17:09:32.84Z</time></trkpt><trkpt lat="42.52726587419305" lon="11.992443422277978"><ele>466.66666666666663</ele><time>2026-04-25T17:09:33.84Z</time></trkpt><trkpt lat="42.52710305252794" lon="11.992654772857177"><ele>469.33333333333337</ele><time>2026-04-25T17:09:34.84Z</time></trkpt><trkpt lat="42.52694491610239" lon="11.992858386608455"><ele>472.0</ele><time>2026-04-25T17:09:35.84Z</time></trkpt><trkpt lat="42.52678958764716" lon="11.993058931429744"><ele>472.0</ele><time>2026-04-25T17:09:36.84Z</time></trkpt><trkpt lat="42.52665508026509" lon="11.993262780113643"><ele>472.0</ele><time>2026-04-25T17:09:37.84Z</time></trkpt><trkpt lat="42.526533400087004" lon="11.993472775196585"><ele>472.0</ele><time>2026-04-25T17:09:38.84Z</time></trkpt><trkpt lat="42.5264269312569" lon="11.993696324003203"><ele>473.6666666666667</ele><time>2026-04-25T17:09:39.84Z</time></trkpt><trkpt lat="42.526339132520555" lon="11.993924386465286"><ele>475.33333333333337</ele><time>2026-04-25T17:09:40.84Z</time></trkpt><trkpt lat="42.5262829635456" lon="11.99417344828987"><ele>477.0</ele><time>2026-04-25T17:09:41.84Z</time></trkpt><trkpt lat="42.52625251849874" lon="11.994458657553354"><ele>477.33333333333337</ele><time>2026-04-25T17:09:42.84Z</time></trkpt><trkpt lat="42.52624173499572" lon="11.994739932063059"><ele>477.6666666666667</ele><time>2026-04-25T17:09:43.84Z</time></trkpt><trkpt lat="42.52623418030302" lon="11.995027772370378"><ele>478.0</ele><time>2026-04-25T17:09:44.84Z</time></trkpt><trkpt lat="42.52621888386124" lon="11.99529889911614"><ele>478.0</ele><time>2026-04-25T17:09:45.84Z</time></trkpt><trkpt lat="42.52620255061184" lon="11.995551430565964"><ele>478.0</ele><time>2026-04-25T17:09:46.84Z</time></trkpt><trkpt lat="42.52618715430709" lon="11.995789677555083"><ele>478.0</ele><time>2026-04-25T17:09:47.84Z</time></trkpt><trkpt lat="42.52617551495834" lon="11.996021723023762"><ele>478.6666666666667</ele><time>2026-04-25T17:09:48.84Z</time></trkpt><trkpt lat="42.52616640770811" lon="11.996245373358573"><ele>479.33333333333337</ele><time>2026-04-25T17:09:49.84Z</time></trkpt><trkpt lat="42.52616531192932" lon="11.996461484505753"><ele>480.0</ele><time>2026-04-25T17:09:50.84Z</time></trkpt><trkpt lat="42.526169585850354" lon="11.996676804204418"><ele>480.33333333333337</ele><time>2026-04-25T17:09:51.84Z</time></trkpt><trkpt lat="42.526172064122115" lon="11.996890373096813"><ele>480.6666666666667</ele><time>2026-04-25T17:09:52.84Z</time></trkpt><trkpt lat="42.526185668109655" lon="11.99711621101628"><ele>481.0</ele><time>2026-04-25T17:09:53.84Z</time></trkpt><trkpt lat="42.52621909532791" lon="11.997356407234713"><ele>481.6666666666667</ele><time>2026-04-25T17:09:54.839Z</time></trkpt><trkpt lat="42.52627484485987" lon="11.997617163385756"><ele>482.33333333333337</ele><time>2026-04-25T17:09:55.839Z</time></trkpt><trkpt lat="42.526330503188504" lon="11.99789920193318"><ele>483.0</ele><time>2026-04-25T17:09:56.839Z</time></trkpt><trkpt lat="42.52638200527134" lon="11.998191059970832"><ele>484.0</ele><time>2026-04-25T17:09:57.839Z</time></trkpt><trkpt lat="42.526418018400925" lon="11.998453410118705"><ele>485.0</ele><time>2026-04-25T17:09:58.839Z</time></trkpt><trkpt lat="42.52645041252992" lon="11.998700679425959"><ele>486.0</ele><time>2026-04-25T17:09:59.839Z</time></trkpt><trkpt lat="42.52646438034966" lon="11.998939813591374"><ele>486.0</ele><time>2026-04-25T17:10:00.839Z</time></trkpt><trkpt lat="42.526471250247134" lon="11.999164985622901"><ele>486.0</ele><time>2026-04-25T17:10:01.839Z</time></trkpt><trkpt lat="42.52646689998267" lon="11.999400639908842"><ele>486.0</ele><time>2026-04-25T17:10:02.839Z</time></trkpt><trkpt lat="42.52645066063144" lon="11.999669473939708"><ele>488.0</ele><time>2026-04-25T17:10:03.839Z</time></trkpt><trkpt lat="42.52641875143357" lon="11.999963545662839"><ele>490.0</ele><time>2026-04-25T17:10:04.839Z</time></trkpt><trkpt lat="42.52638461036982" lon="12.000282550672525"><ele>490.0</ele><time>2026-04-25T17:10:05.839Z</time></trkpt><trkpt lat="42.5263592245412" lon="12.000593624626978"><ele>490.0</ele><time>2026-04-25T17:10:06.839Z</time></trkpt><trkpt lat="42.526349451621755" lon="12.000906381516637"><ele>492.5</ele><time>2026-04-25T17:10:07.839Z</time></trkpt><trkpt lat="42.526358937583026" lon="12.00124116328283"><ele>495.0</ele><time>2026-04-25T17:10:08.839Z</time></trkpt><trkpt lat="42.52640016958413" lon="12.001593241905633"><ele>498.0</ele><time>2026-04-25T17:10:09.839Z</time></trkpt><trkpt lat="42.52643969940699" lon="12.001928016401793"><ele>501.0</ele><time>2026-04-25T17:10:10.841Z</time></trkpt><trkpt lat="42.5264930270981" lon="12.002260702793562"><ele>502.5</ele><time>2026-04-25T17:10:11.841Z</time></trkpt><trkpt lat="42.526538132707564" lon="12.002568543131943"><ele>504.0</ele><time>2026-04-25T17:10:12.841Z</time></trkpt><trkpt lat="42.52657873757382" lon="12.002867806363184"><ele>504.0</ele><time>2026-04-25T17:10:13.84Z</time></trkpt><trkpt lat="42.52660344804699" lon="12.003174984535637"><ele>504.0</ele><time>2026-04-25T17:10:14.841Z</time></trkpt><trkpt lat="42.52664052719617" lon="12.003472902543942"><ele>504.33333333333337</ele><time>2026-04-25T17:10:15.84Z</time></trkpt><trkpt lat="42.52667584715728" lon="12.00376952610172"><ele>504.6666666666667</ele><time>2026-04-25T17:10:16.841Z</time></trkpt><trkpt lat="42.5267119123311" lon="12.004064193590985"><ele>505.0</ele><time>2026-04-25T17:10:17.841Z</time></trkpt><trkpt lat="42.52675394686886" lon="12.004355699791288"><ele>505.6666666666667</ele><time>2026-04-25T17:10:18.841Z</time></trkpt><trkpt lat="42.52680676300441" lon="12.004646058806161"><ele>506.33333333333337</ele><time>2026-04-25T17:10:19.841Z</time></trkpt><trkpt lat="42.52686260384177" lon="12.004934427273671"><ele>507.0</ele><time>2026-04-25T17:10:20.841Z</time></trkpt><trkpt lat="42.526917787155206" lon="12.005190275871872"><ele>509.33333333333337</ele><time>2026-04-25T17:10:21.841Z</time></trkpt><trkpt lat="42.526978013858155" lon="12.005430622875624"><ele>511.6666666666667</ele><time>2026-04-25T17:10:22.841Z</time></trkpt><trkpt lat="42.52706813415304" lon="12.005659955897254"><ele>514.0</ele><time>2026-04-25T17:10:23.841Z</time></trkpt><trkpt lat="42.52717245038087" lon="12.00588137704128"><ele>516.0</ele><time>2026-04-25T17:10:24.84Z</time></trkpt><trkpt lat="42.52725645138424" lon="12.00610276512019"><ele>518.0</ele><time>2026-04-25T17:10:25.84Z</time></trkpt><trkpt lat="42.527343586235475" lon="12.00629318067824"><ele>520.0</ele><time>2026-04-25T17:10:26.84Z</time></trkpt><trkpt lat="42.52742246527092" lon="12.006469337211785"><ele>520.0</ele><time>2026-04-25T17:10:27.84Z</time></trkpt><trkpt lat="42.527484993793614" lon="12.006627118527135"><ele>520.0</ele><time>2026-04-25T17:10:28.84Z</time></trkpt><trkpt lat="42.52752057852958" lon="12.00676425194482"><ele>520.0</ele><time>2026-04-25T17:10:29.84Z</time></trkpt><trkpt lat="42.52754297262874" lon="12.006928079145737"><ele>520.0</ele><time>2026-04-25T17:10:30.84Z</time></trkpt><trkpt lat="42.527537696626545" lon="12.00710261069831"><ele>519.3333333333334</ele><time>2026-04-25T17:10:31.84Z</time></trkpt><trkpt lat="42.527501179614454" lon="12.00727724535639"><ele>518.6666666666666</ele><time>2026-04-25T17:10:32.84Z</time></trkpt><trkpt lat="42.527452467514216" lon="12.007466799703645"><ele>518.0</ele><time>2026-04-25T17:10:33.84Z</time></trkpt><trkpt lat="42.52741153424248" lon="12.007687781186474"><ele>517.0</ele><time>2026-04-25T17:10:34.84Z</time></trkpt><trkpt lat="42.527331651462646" lon="12.007892559900153"><ele>516.0</ele><time>2026-04-25T17:10:35.84Z</time></trkpt><trkpt lat="42.52727141629853" lon="12.008103119741492"><ele>515.0</ele><time>2026-04-25T17:10:36.84Z</time></trkpt><trkpt lat="42.52722719011373" lon="12.008301854426312"><ele>511.3333333333333</ele><time>2026-04-25T17:10:37.84Z</time></trkpt><trkpt lat="42.52718406210122" lon="12.008498114503935"><ele>507.66666666666663</ele><time>2026-04-25T17:10:38.84Z</time></trkpt><trkpt lat="42.527152662169804" lon="12.008700774073649"><ele>504.0</ele><time>2026-04-25T17:10:39.84Z</time></trkpt><trkpt lat="42.527145784652504" lon="12.008911273034728"><ele>504.0</ele><time>2026-04-25T17:10:40.84Z</time></trkpt><trkpt lat="42.52717119628794" lon="12.009126388442956"><ele>504.0</ele><time>2026-04-25T17:10:41.84Z</time></trkpt><trkpt lat="42.52720953549364" lon="12.009349285522541"><ele>504.0</ele><time>2026-04-25T17:10:42.84Z</time></trkpt><trkpt lat="42.527262129528125" lon="12.009573373108836"><ele>503.33333333333337</ele><time>2026-04-25T17:10:43.84Z</time></trkpt><trkpt lat="42.527315603765466" lon="12.00979949178011"><ele>502.6666666666667</ele><time>2026-04-25T17:10:44.84Z</time></trkpt><trkpt lat="42.527361545649754" lon="12.010027103171332"><ele>502.0</ele><time>2026-04-25T17:10:45.84Z</time></trkpt><trkpt lat="42.52740758637029" lon="12.01025395506689"><ele>504.33333333333337</ele><time>2026-04-25T17:10:46.84Z</time></trkpt><trkpt lat="42.52745105919635" lon="12.010479303478457"><ele>506.66666666666663</ele><time>2026-04-25T17:10:47.84Z</time></trkpt><trkpt lat="42.527497668385735" lon="12.010702098500058"><ele>509.0</ele><time>2026-04-25T17:10:48.84Z</time></trkpt><trkpt lat="42.527544384705415" lon="12.010919869059656"><ele>512.0</ele><time>2026-04-25T17:10:49.84Z</time></trkpt><trkpt lat="42.52759324288597" lon="12.011139453194629"><ele>515.0</ele><time>2026-04-25T17:10:50.84Z</time></trkpt><trkpt lat="42.5276405275902" lon="12.011363780157039"><ele>518.0</ele><time>2026-04-25T17:10:51.84Z</time></trkpt><trkpt lat="42.527686248806646" lon="12.011590760241535"><ele>520.3333333333333</ele><time>2026-04-25T17:10:52.839Z</time></trkpt><trkpt lat="42.52773192642842" lon="12.011812505668209"><ele>522.6666666666666</ele><time>2026-04-25T17:10:53.839Z</time></trkpt><trkpt lat="42.5277780713955" lon="12.012015961062739"><ele>525.0</ele><time>2026-04-25T17:10:54.839Z</time></trkpt><trkpt lat="42.52781415707459" lon="12.012217595589712"><ele>525.0</ele><time>2026-04-25T17:10:55.839Z</time></trkpt><trkpt lat="42.52785456306999" lon="12.012409305273342"><ele>525.0</ele><time>2026-04-25T17:10:56.839Z</time></trkpt><trkpt lat="42.52789995505841" lon="12.012595063397741"><ele>525.0</ele><time>2026-04-25T17:10:57.839Z</time></trkpt><trkpt lat="42.527939205053926" lon="12.012768222156204"><ele>525.0</ele><time>2026-04-25T17:10:58.839Z</time></trkpt><trkpt lat="42.52796731050455" lon="12.012934163329122"><ele>524.0</ele><time>2026-04-25T17:10:59.839Z</time></trkpt><trkpt lat="42.52800207956054" lon="12.013095113530134"><ele>523.0</ele><time>2026-04-25T17:11:00.839Z</time></trkpt><trkpt lat="42.52803351845817" lon="12.013257987058772"><ele>522.0</ele><time>2026-04-25T17:11:01.839Z</time></trkpt><trkpt lat="42.52806411960417" lon="12.013423519747768"><ele>521.0</ele><time>2026-04-25T17:11:02.839Z</time></trkpt><trkpt lat="42.52809561993972" lon="12.013582180348859"><ele>523.5</ele><time>2026-04-25T17:11:03.839Z</time></trkpt><trkpt lat="42.52813335450766" lon="12.013743989634348"><ele>526.0</ele><time>2026-04-25T17:11:04.839Z</time></trkpt><trkpt lat="42.52816973489689" lon="12.013910578489568"><ele>528.5</ele><time>2026-04-25T17:11:05.839Z</time></trkpt><trkpt lat="42.52820367831472" lon="12.014081519355667"><ele>531.0</ele><time>2026-04-25T17:11:06.839Z</time></trkpt><trkpt lat="42.52823494274193" lon="12.014250514101523"><ele>531.0</ele><time>2026-04-25T17:11:07.839Z</time></trkpt><trkpt lat="42.52827088263299" lon="12.014412128881528"><ele>531.0</ele><time>2026-04-25T17:11:08.839Z</time></trkpt><trkpt lat="42.52831055117059" lon="12.014566405254586"><ele>531.0</ele><time>2026-04-25T17:11:09.839Z</time></trkpt><trkpt lat="42.528342314227984" lon="12.014709690271706"><ele>531.0</ele><time>2026-04-25T17:11:10.839Z</time></trkpt><trkpt lat="42.52837479080801" lon="12.014848744879838"><ele>531.0</ele><time>2026-04-25T17:11:11.839Z</time></trkpt><trkpt lat="42.52841144247467" lon="12.014984860523336"><ele>531.0</ele><time>2026-04-25T17:11:12.839Z</time></trkpt><trkpt lat="42.5284118520311" lon="12.01512734936698"><ele>531.0</ele><time>2026-04-25T17:11:13.839Z</time></trkpt><trkpt lat="42.52843625091706" lon="12.015263101966369"><ele>531.0</ele><time>2026-04-25T17:11:14.839Z</time></trkpt><trkpt lat="42.52846082789001" lon="12.015391067331162"><ele>531.0</ele><time>2026-04-25T17:11:15.839Z</time></trkpt><trkpt lat="42.52849256467084" lon="12.01552253457782"><ele>531.0</ele><time>2026-04-25T17:11:16.839Z</time></trkpt><trkpt lat="42.528524870692294" lon="12.015656394428559"><ele>531.0</ele><time>2026-04-25T17:11:17.839Z</time></trkpt><trkpt lat="42.52855270034184" lon="12.01578627568546"><ele>531.0</ele><time>2026-04-25T17:11:18.839Z</time></trkpt><trkpt lat="42.52857292790723" lon="12.015913197962506"><ele>531.0</ele><time>2026-04-25T17:11:19.839Z</time></trkpt><trkpt lat="42.52860210990749" lon="12.016037998772221"><ele>531.0</ele><time>2026-04-25T17:11:20.838Z</time></trkpt><trkpt lat="42.528623886623606" lon="12.016149655067608"><ele>531.0</ele><time>2026-04-25T17:11:21.838Z</time></trkpt><trkpt lat="42.528658228615356" lon="12.016253841960708"><ele>531.0</ele><time>2026-04-25T17:11:22.838Z</time></trkpt><trkpt lat="42.528681024526875" lon="12.016360131391911"><ele>531.0</ele><time>2026-04-25T17:11:23.838Z</time></trkpt><trkpt lat="42.52867577271329" lon="12.016463763216084"><ele>531.0</ele><time>2026-04-25T17:11:24.838Z</time></trkpt><trkpt lat="42.528697364191814" lon="12.016552779047867"><ele>531.0</ele><time>2026-04-25T17:11:25.838Z</time></trkpt><trkpt lat="42.52871996935474" lon="12.016647001087964"><ele>531.0</ele><time>2026-04-25T17:11:26.838Z</time></trkpt><trkpt lat="42.52874345960012" lon="12.016736347067361"><ele>533.75</ele><time>2026-04-25T17:11:27.838Z</time></trkpt><trkpt lat="42.52876912170667" lon="12.016850064165222"><ele>536.5</ele><time>2026-04-25T17:11:28.838Z</time></trkpt><trkpt lat="42.52878872300415" lon="12.016996521703115"><ele>539.25</ele><time>2026-04-25T17:11:29.838Z</time></trkpt><trkpt lat="42.528827627677785" lon="12.01718145403328"><ele>542.0</ele><time>2026-04-25T17:11:30.838Z</time></trkpt><trkpt lat="42.52887809665669" lon="12.017376456999811"><ele>542.3333333333333</ele><time>2026-04-25T17:11:31.838Z</time></trkpt><trkpt lat="42.52895187534067" lon="12.017580110956354"><ele>542.6666666666666</ele><time>2026-04-25T17:11:32.838Z</time></trkpt><trkpt lat="42.52901435445682" lon="12.017786585059012"><ele>543.0</ele><time>2026-04-25T17:11:33.838Z</time></trkpt><trkpt lat="42.52909813940997" lon="12.017974297585676"><ele>543.0</ele><time>2026-04-25T17:11:34.838Z</time></trkpt><trkpt lat="42.529179187443866" lon="12.01816547062753"><ele>543.0</ele><time>2026-04-25T17:11:35.838Z</time></trkpt><trkpt lat="42.52926650779765" lon="12.01835459391189"><ele>543.0</ele><time>2026-04-25T17:11:36.838Z</time></trkpt><trkpt lat="42.52936161669514" lon="12.018538469351764"><ele>543.0</ele><time>2026-04-25T17:11:37.838Z</time></trkpt><trkpt lat="42.52945655934037" lon="12.018721120256817"><ele>543.0</ele><time>2026-04-25T17:11:38.838Z</time></trkpt><trkpt lat="42.5295518077876" lon="12.018896758201738"><ele>543.0</ele><time>2026-04-25T17:11:39.838Z</time></trkpt><trkpt lat="42.52964643726138" lon="12.01906122370295"><ele>543.0</ele><time>2026-04-25T17:11:40.838Z</time></trkpt><trkpt lat="42.52973451937358" lon="12.019214151961377"><ele>543.0</ele><time>2026-04-25T17:11:41.838Z</time></trkpt><trkpt lat="42.52980866275985" lon="12.019370191767738"><ele>543.0</ele><time>2026-04-25T17:11:42.838Z</time></trkpt><trkpt lat="42.529872255625115" lon="12.019526559980331"><ele>543.0</ele><time>2026-04-25T17:11:43.838Z</time></trkpt><trkpt lat="42.529915381536355" lon="12.019682222564047"><ele>543.0</ele><time>2026-04-25T17:11:44.838Z</time></trkpt><trkpt lat="42.529938684828394" lon="12.019845585523726"><ele>543.0</ele><time>2026-04-25T17:11:45.838Z</time></trkpt><trkpt lat="42.529933789927135" lon="12.020014940097308"><ele>543.0</ele><time>2026-04-25T17:11:46.838Z</time></trkpt><trkpt lat="42.529906252460194" lon="12.020177252438728"><ele>543.0</ele><time>2026-04-25T17:11:47.837Z</time></trkpt><trkpt lat="42.52983568406526" lon="12.020336426663746"><ele>542.5</ele><time>2026-04-25T17:11:48.837Z</time></trkpt><trkpt lat="42.52978225794142" lon="12.020527093062336"><ele>542.0</ele><time>2026-04-25T17:11:49.837Z</time></trkpt><trkpt lat="42.52972489357394" lon="12.020700781574353"><ele>541.5</ele><time>2026-04-25T17:11:50.837Z</time></trkpt><trkpt lat="42.5296856888776" lon="12.020869043800326"><ele>541.0</ele><time>2026-04-25T17:11:51.837Z</time></trkpt><trkpt lat="42.52967221385845" lon="12.021040690792567"><ele>542.0</ele><time>2026-04-25T17:11:52.837Z</time></trkpt><trkpt lat="42.52969199079958" lon="12.021214639724972"><ele>543.0</ele><time>2026-04-25T17:11:53.837Z</time></trkpt><trkpt lat="42.529736072165605" lon="12.021381795702993"><ele>544.0</ele><time>2026-04-25T17:11:54.837Z</time></trkpt><trkpt lat="42.529806909341616" lon="12.021535560492719"><ele>545.0</ele><time>2026-04-25T17:11:55.837Z</time></trkpt><trkpt lat="42.52990374772965" lon="12.021696352110647"><ele>547.0</ele><time>2026-04-25T17:11:56.837Z</time></trkpt><trkpt lat="42.53001466088089" lon="12.021854219856872"><ele>549.0</ele><time>2026-04-25T17:11:57.837Z</time></trkpt><trkpt lat="42.53012764347263" lon="12.022015480618684"><ele>551.0</ele><time>2026-04-25T17:11:58.837Z</time></trkpt><trkpt lat="42.53024547028379" lon="12.02217831381148"><ele>551.0</ele><time>2026-04-25T17:11:59.837Z</time></trkpt><trkpt lat="42.53035847633911" lon="12.022351908280593"><ele>551.0</ele><time>2026-04-25T17:12:00.837Z</time></trkpt><trkpt lat="42.53047436849145" lon="12.02252538189294"><ele>551.0</ele><time>2026-04-25T17:12:01.837Z</time></trkpt><trkpt lat="42.53058620280759" lon="12.022699827394739"><ele>553.0</ele><time>2026-04-25T17:12:02.837Z</time></trkpt><trkpt lat="42.53070380188126" lon="12.02287177160991"><ele>555.0</ele><time>2026-04-25T17:12:03.837Z</time></trkpt><trkpt lat="42.530825453278446" lon="12.023039178478685"><ele>557.0</ele><time>2026-04-25T17:12:04.837Z</time></trkpt><trkpt lat="42.53093324626284" lon="12.023206145678268"><ele>556.0</ele><time>2026-04-25T17:12:05.837Z</time></trkpt><trkpt lat="42.531045238046325" lon="12.023380280442241"><ele>555.0</ele><time>2026-04-25T17:12:06.837Z</time></trkpt><trkpt lat="42.531154279993956" lon="12.023537382469906"><ele>554.0</ele><time>2026-04-25T17:12:07.837Z</time></trkpt><trkpt lat="42.53125922468099" lon="12.023681857922305"><ele>554.0</ele><time>2026-04-25T17:12:08.837Z</time></trkpt><trkpt lat="42.53137149719474" lon="12.023814179221223"><ele>554.0</ele><time>2026-04-25T17:12:09.837Z</time></trkpt><trkpt lat="42.53148688667482" lon="12.023940614437768"><ele>554.0</ele><time>2026-04-25T17:12:10.837Z</time></trkpt><trkpt lat="42.531612836653224" lon="12.024048579974925"><ele>554.0</ele><time>2026-04-25T17:12:11.837Z</time></trkpt><trkpt lat="42.531739024572936" lon="12.024134391536661"><ele>556.3333333333333</ele><time>2026-04-25T17:12:12.837Z</time></trkpt><trkpt lat="42.531871305095166" lon="12.024232958468591"><ele>558.6666666666666</ele><time>2026-04-25T17:12:13.837Z</time></trkpt><trkpt lat="42.53202776216193" lon="12.024316591292736"><ele>561.0</ele><time>2026-04-25T17:12:14.837Z</time></trkpt><trkpt lat="42.5321918005234" lon="12.02440472846359"><ele>561.0</ele><time>2026-04-25T17:12:15.836Z</time></trkpt><trkpt lat="42.53235100702768" lon="12.024503289345681"><ele>561.0</ele><time>2026-04-25T17:12:16.839Z</time></trkpt><trkpt lat="42.53251851230229" lon="12.02459903706281"><ele>561.0</ele><time>2026-04-25T17:12:17.839Z</time></trkpt><trkpt lat="42.5326687455207" lon="12.024752007521432"><ele>561.0</ele><time>2026-04-25T17:12:18.839Z</time></trkpt><trkpt lat="42.5328286409426" lon="12.024905538505212"><ele>561.0</ele><time>2026-04-25T17:12:19.839Z</time></trkpt><trkpt lat="42.53298620644052" lon="12.025058156025189"><ele>561.0</ele><time>2026-04-25T17:12:20.839Z</time></trkpt><trkpt lat="42.53313902495071" lon="12.025199376932747"><ele>563.3333333333334</ele><time>2026-04-25T17:12:21.839Z</time></trkpt><trkpt lat="42.53329893435544" lon="12.025322937862716"><ele>565.6666666666667</ele><time>2026-04-25T17:12:22.839Z</time></trkpt><trkpt lat="42.53345930961027" lon="12.02542164601411"><ele>568.0</ele><time>2026-04-25T17:12:23.839Z</time></trkpt><trkpt lat="42.5336183693816" lon="12.025507728401582"><ele>567.75</ele><time>2026-04-25T17:12:24.839Z</time></trkpt><trkpt lat="42.53374839847629" lon="12.025586786513587"><ele>567.5</ele><time>2026-04-25T17:12:25.839Z</time></trkpt><trkpt lat="42.53390855016153" lon="12.025599177237853"><ele>567.25</ele><time>2026-04-25T17:12:26.839Z</time></trkpt><trkpt lat="42.53401106655415" lon="12.025703698995608"><ele>567.0</ele><time>2026-04-25T17:12:27.839Z</time></trkpt><trkpt lat="42.53411057924589" lon="12.025855406509315"><ele>572.3333333333334</ele><time>2026-04-25T17:12:28.839Z</time></trkpt><trkpt lat="42.534201714332994" lon="12.026039172113451"><ele>577.6666666666667</ele><time>2026-04-25T17:12:29.839Z</time></trkpt><trkpt lat="42.534271390304426" lon="12.026243662555004"><ele>583.0</ele><time>2026-04-25T17:12:30.839Z</time></trkpt><trkpt lat="42.53427466115184" lon="12.02650584542693"><ele>582.0</ele><time>2026-04-25T17:12:31.839Z</time></trkpt><trkpt lat="42.534352511710715" lon="12.026691671536202"><ele>581.0</ele><time>2026-04-25T17:12:32.839Z</time></trkpt><trkpt lat="42.53442923617948" lon="12.02687414596918"><ele>580.0</ele><time>2026-04-25T17:12:33.839Z</time></trkpt><trkpt lat="42.53450702772619" lon="12.027058760336976"><ele>583.3333333333334</ele><time>2026-04-25T17:12:34.839Z</time></trkpt><trkpt lat="42.53458766804494" lon="12.027250135996827"><ele>586.6666666666666</ele><time>2026-04-25T17:12:35.839Z</time></trkpt><trkpt lat="42.53467212365768" lon="12.027449982482526"><ele>590.0</ele><time>2026-04-25T17:12:36.839Z</time></trkpt><trkpt lat="42.534766043991056" lon="12.027627508300094"><ele>590.0</ele><time>2026-04-25T17:12:37.838Z</time></trkpt><trkpt lat="42.53482013285109" lon="12.027815283007667"><ele>590.0</ele><time>2026-04-25T17:12:38.838Z</time></trkpt><trkpt lat="42.534884263628065" lon="12.028004145273465"><ele>590.0</ele><time>2026-04-25T17:12:39.838Z</time></trkpt><trkpt lat="42.53495309892453" lon="12.028195073709568"><ele>589.0</ele><time>2026-04-25T17:12:40.838Z</time></trkpt><trkpt lat="42.5350150019429" lon="12.02840283195313"><ele>588.0</ele><time>2026-04-25T17:12:41.838Z</time></trkpt><trkpt lat="42.53508749219316" lon="12.02860486751251"><ele>587.0</ele><time>2026-04-25T17:12:42.838Z</time></trkpt><trkpt lat="42.53514586957136" lon="12.02882307577055"><ele>587.0</ele><time>2026-04-25T17:12:43.838Z</time></trkpt><trkpt lat="42.535187284141784" lon="12.029045548955878"><ele>587.0</ele><time>2026-04-25T17:12:44.838Z</time></trkpt><trkpt lat="42.53523943818527" lon="12.029251346022136"><ele>587.0</ele><time>2026-04-25T17:12:45.838Z</time></trkpt><trkpt lat="42.535277278512375" lon="12.029454088729805"><ele>586.5</ele><time>2026-04-25T17:12:46.838Z</time></trkpt><trkpt lat="42.53530964202837" lon="12.02966543141876"><ele>586.0</ele><time>2026-04-25T17:12:47.838Z</time></trkpt><trkpt lat="42.5353325717145" lon="12.02986919582239"><ele>585.5</ele><time>2026-04-25T17:12:48.838Z</time></trkpt><trkpt lat="42.535354699633004" lon="12.030047199205596"><ele>585.0</ele><time>2026-04-25T17:12:49.838Z</time></trkpt><trkpt lat="42.53538909267324" lon="12.030211587739533"><ele>589.75</ele><time>2026-04-25T17:12:50.838Z</time></trkpt><trkpt lat="42.53544020370797" lon="12.030359097632829"><ele>594.5</ele><time>2026-04-25T17:12:51.838Z</time></trkpt><trkpt lat="42.535509970897564" lon="12.030488575774315"><ele>599.25</ele><time>2026-04-25T17:12:52.838Z</time></trkpt><trkpt lat="42.53559325724972" lon="12.03059953320014"><ele>604.0</ele><time>2026-04-25T17:12:53.838Z</time></trkpt><trkpt lat="42.535700550288794" lon="12.030676572611458"><ele>604.0</ele><time>2026-04-25T17:12:54.838Z</time></trkpt><trkpt lat="42.53582480744265" lon="12.030743276590107"><ele>604.0</ele><time>2026-04-25T17:12:55.838Z</time></trkpt><trkpt lat="42.53593876157105" lon="12.030817269955937"><ele>604.0</ele><time>2026-04-25T17:12:56.838Z</time></trkpt><trkpt lat="42.536052628051706" lon="12.030897614122157"><ele>604.0</ele><time>2026-04-25T17:12:57.838Z</time></trkpt><trkpt lat="42.536166629262624" lon="12.030977876503238"><ele>604.25</ele><time>2026-04-25T17:12:58.838Z</time></trkpt><trkpt lat="42.53629063433759" lon="12.031035688251121"><ele>604.5</ele><time>2026-04-25T17:12:59.838Z</time></trkpt><trkpt lat="42.5364169440288" lon="12.031067745012972"><ele>604.75</ele><time>2026-04-25T17:13:00.838Z</time></trkpt><trkpt lat="42.53654538604782" lon="12.031087578684552"><ele>605.0</ele><time>2026-04-25T17:13:01.838Z</time></trkpt><trkpt lat="42.53667294343535" lon="12.03111930893479"><ele>605.0</ele><time>2026-04-25T17:13:02.838Z</time></trkpt><trkpt lat="42.536802153366416" lon="12.031149912994927"><ele>605.0</ele><time>2026-04-25T17:13:03.838Z</time></trkpt><trkpt lat="42.536922111869345" lon="12.031174534383037"><ele>605.0</ele><time>2026-04-25T17:13:04.838Z</time></trkpt><trkpt lat="42.53703200330773" lon="12.031191615784474"><ele>605.0</ele><time>2026-04-25T17:13:05.837Z</time></trkpt><trkpt lat="42.537116950339914" lon="12.031226138518072"><ele>604.4</ele><time>2026-04-25T17:13:06.837Z</time></trkpt><trkpt lat="42.53718116688547" lon="12.031309360353546"><ele>603.8</ele><time>2026-04-25T17:13:07.837Z</time></trkpt><trkpt lat="42.53724015784099" lon="12.031405306913053"><ele>603.2</ele><time>2026-04-25T17:13:08.837Z</time></trkpt><trkpt lat="42.53731667599703" lon="12.031502772837083"><ele>602.6</ele><time>2026-04-25T17:13:09.837Z</time></trkpt><trkpt lat="42.53739598759021" lon="12.031598861010515"><ele>602.0</ele><time>2026-04-25T17:13:10.837Z</time></trkpt><trkpt lat="42.53747833945305" lon="12.031718289995869"><ele>598.25</ele><time>2026-04-25T17:13:11.837Z</time></trkpt><trkpt lat="42.537545717459075" lon="12.031866281361724"><ele>594.5</ele><time>2026-04-25T17:13:12.837Z</time></trkpt><trkpt lat="42.53759679943851" lon="12.032021108683853"><ele>590.75</ele><time>2026-04-25T17:13:13.837Z</time></trkpt><trkpt lat="42.53763349462126" lon="12.032175875553534"><ele>587.0</ele><time>2026-04-25T17:13:14.837Z</time></trkpt><trkpt lat="42.53766517174387" lon="12.032329892772994"><ele>587.75</ele><time>2026-04-25T17:13:15.837Z</time></trkpt><trkpt lat="42.53770713691356" lon="12.032486422820968"><ele>588.5</ele><time>2026-04-25T17:13:16.837Z</time></trkpt><trkpt lat="42.5377574111096" lon="12.032643824676317"><ele>589.25</ele><time>2026-04-25T17:13:17.837Z</time></trkpt><trkpt lat="42.53785036620657" lon="12.032756281840985"><ele>590.0</ele><time>2026-04-25T17:13:18.837Z</time></trkpt><trkpt lat="42.53793722099647" lon="12.032877569671841"><ele>590.0</ele><time>2026-04-25T17:13:19.837Z</time></trkpt><trkpt lat="42.53803275169264" lon="12.032997332163916"><ele>590.0</ele><time>2026-04-25T17:13:20.837Z</time></trkpt><trkpt lat="42.53813747519508" lon="12.033113481371146"><ele>590.0</ele><time>2026-04-25T17:13:21.837Z</time></trkpt><trkpt lat="42.5382521976909" lon="12.033205772770176"><ele>590.0</ele><time>2026-04-25T17:13:22.837Z</time></trkpt><trkpt lat="42.53836598816219" lon="12.033290353054658"><ele>588.6</ele><time>2026-04-25T17:13:23.837Z</time></trkpt><trkpt lat="42.53847406206725" lon="12.033362427741688"><ele>587.2</ele><time>2026-04-25T17:13:24.837Z</time></trkpt><trkpt lat="42.538572207784945" lon="12.033430933477696"><ele>585.8</ele><time>2026-04-25T17:13:25.837Z</time></trkpt><trkpt lat="42.5386490963312" lon="12.033485103431934"><ele>584.4</ele><time>2026-04-25T17:13:26.837Z</time></trkpt><trkpt lat="42.538723457353406" lon="12.033529772851267"><ele>583.0</ele><time>2026-04-25T17:13:27.837Z</time></trkpt><trkpt lat="42.538789335790185" lon="12.033575902150766"><ele>583.0</ele><time>2026-04-25T17:13:28.837Z</time></trkpt><trkpt lat="42.53886244623118" lon="12.03360781087129"><ele>583.0</ele><time>2026-04-25T17:13:29.837Z</time></trkpt><trkpt lat="42.53892491635653" lon="12.03362533055917"><ele>583.0</ele><time>2026-04-25T17:13:30.837Z</time></trkpt><trkpt lat="42.53903666954567" lon="12.03366274732953"><ele>583.0</ele><time>2026-04-25T17:13:32.836Z</time></trkpt><trkpt lat="42.53912895275978" lon="12.033699788325587"><ele>583.0</ele><time>2026-04-25T17:13:34.836Z</time></trkpt><trkpt lat="42.53921137641882" lon="12.033739631665837"><ele>583.0</ele><time>2026-04-25T17:13:36.836Z</time></trkpt><trkpt lat="42.53927968306305" lon="12.03375170074815"><ele>583.0</ele><time>2026-04-25T17:13:39.836Z</time></trkpt><trkpt lat="42.53934498323441" lon="12.033725628954478"><ele>583.0</ele><time>2026-04-25T17:13:47.836Z</time></trkpt><trkpt lat="42.53940686353661" lon="12.033761723508428"><ele>583.0</ele><time>2026-04-25T17:13:54.836Z</time></trkpt><trkpt lat="42.53947583005085" lon="12.03376576847407"><ele>583.0</ele><time>2026-04-25T17:13:59.836Z</time></trkpt><trkpt lat="42.53944462862724" lon="12.033855538703927"><ele>583.0</ele><time>2026-04-25T17:14:04.835Z</time></trkpt><trkpt lat="42.53933183032074" lon="12.033869802086846"><ele>583.0</ele><time>2026-04-25T17:14:05.835Z</time></trkpt><trkpt lat="42.539215601384974" lon="12.03388698915868"><ele>583.0</ele><time>2026-04-25T17:14:06.835Z</time></trkpt><trkpt lat="42.53905952531622" lon="12.033904044648173"><ele>583.0</ele><time>2026-04-25T17:14:07.835Z</time></trkpt><trkpt lat="42.53889603541412" lon="12.033897799934824"><ele>583.0</ele><time>2026-04-25T17:14:08.835Z</time></trkpt><trkpt lat="42.53875340371946" lon="12.033859712293733"><ele>580.25</ele><time>2026-04-25T17:14:09.835Z</time></trkpt><trkpt lat="42.53861034110618" lon="12.03380004242697"><ele>577.5</ele><time>2026-04-25T17:14:10.835Z</time></trkpt><trkpt lat="42.5384940241341" lon="12.033744893754928"><ele>574.75</ele><time>2026-04-25T17:14:11.835Z</time></trkpt><trkpt lat="42.538380512910464" lon="12.03369972798833"><ele>572.0</ele><time>2026-04-25T17:14:12.835Z</time></trkpt><trkpt lat="42.53830680546937" lon="12.033562037177498"><ele>572.0</ele><time>2026-04-25T17:14:13.835Z</time></trkpt><trkpt lat="42.53821273153474" lon="12.033447322025925"><ele>572.0</ele><time>2026-04-25T17:14:14.835Z</time></trkpt><trkpt lat="42.53813144215795" lon="12.03332125347738"><ele>572.0</ele><time>2026-04-25T17:14:15.835Z</time></trkpt><trkpt lat="42.53805796459554" lon="12.033204807159118"><ele>572.0</ele><time>2026-04-25T17:14:16.835Z</time></trkpt><trkpt lat="42.537954261130395" lon="12.033142951771989"><ele>571.4</ele><time>2026-04-25T17:14:17.835Z</time></trkpt><trkpt lat="42.53784192856622" lon="12.03312457491783"><ele>570.8000000000001</ele><time>2026-04-25T17:14:18.835Z</time></trkpt><trkpt lat="42.53774761574923" lon="12.033159052884109"><ele>570.2</ele><time>2026-04-25T17:14:19.835Z</time></trkpt><trkpt lat="42.53765684027506" lon="12.033228350875659"><ele>569.6</ele><time>2026-04-25T17:14:20.835Z</time></trkpt><trkpt lat="42.53757417516379" lon="12.03331933272106"><ele>569.0</ele><time>2026-04-25T17:14:21.835Z</time></trkpt><trkpt lat="42.537515428482045" lon="12.033427516975767"><ele>567.2</ele><time>2026-04-25T17:14:22.837Z</time></trkpt><trkpt lat="42.5374814702717" lon="12.033553237348341"><ele>565.4</ele><time>2026-04-25T17:14:23.837Z</time></trkpt><trkpt lat="42.53748609185353" lon="12.033685653991352"><ele>563.6</ele><time>2026-04-25T17:14:24.837Z</time></trkpt><trkpt lat="42.53752714065394" lon="12.033810865251455"><ele>561.8</ele><time>2026-04-25T17:14:25.837Z</time></trkpt><trkpt lat="42.53758955506753" lon="12.033939322407292"><ele>560.0</ele><time>2026-04-25T17:14:26.837Z</time></trkpt><trkpt lat="42.537661446358754" lon="12.034074315975584"><ele>560.5</ele><time>2026-04-25T17:14:27.837Z</time></trkpt><trkpt lat="42.53773467291583" lon="12.03420992716354"><ele>561.0</ele><time>2026-04-25T17:14:28.837Z</time></trkpt><trkpt lat="42.537832904961526" lon="12.034328435677288"><ele>561.5</ele><time>2026-04-25T17:14:29.837Z</time></trkpt><trkpt lat="42.53794811656132" lon="12.034411195980796"><ele>562.0</ele><time>2026-04-25T17:14:30.837Z</time></trkpt><trkpt lat="42.538068663769586" lon="12.034476874839616"><ele>562.0</ele><time>2026-04-25T17:14:31.837Z</time></trkpt><trkpt lat="42.53818805965674" lon="12.034557850071591"><ele>562.0</ele><time>2026-04-25T17:14:32.837Z</time></trkpt><trkpt lat="42.53828597286567" lon="12.034667724107347"><ele>562.0</ele><time>2026-04-25T17:14:33.837Z</time></trkpt><trkpt lat="42.53835988159611" lon="12.034807638555867"><ele>562.0</ele><time>2026-04-25T17:14:34.837Z</time></trkpt><trkpt lat="42.53840577424097" lon="12.034963869201734"><ele>559.8000000000001</ele><time>2026-04-25T17:14:35.836Z</time></trkpt><trkpt lat="42.53842537745679" lon="12.035134120986816"><ele>557.6</ele><time>2026-04-25T17:14:36.836Z</time></trkpt><trkpt lat="42.53844151730069" lon="12.035288208946351"><ele>555.4000000000001</ele><time>2026-04-25T17:14:37.836Z</time></trkpt><trkpt lat="42.53845051610021" lon="12.035400461251957"><ele>553.2</ele><time>2026-04-25T17:14:38.836Z</time></trkpt><trkpt lat="42.53845882264992" lon="12.035536837319977"><ele>551.0</ele><time>2026-04-25T17:14:40.836Z</time></trkpt><trkpt lat="42.53845982758213" lon="12.03563524063036"><ele>551.0</ele><time>2026-04-25T17:14:58.836Z</time></trkpt><trkpt lat="42.538608943091525" lon="12.035582070233067"><ele>551.0</ele><time>2026-04-25T17:15:01.836Z</time></trkpt><trkpt lat="42.53865573137205" lon="12.035515940672944"><ele>551.0</ele><time>2026-04-25T17:15:02.835Z</time></trkpt><trkpt lat="42.53872582134109" lon="12.035458453562521"><ele>551.0</ele><time>2026-04-25T17:15:03.835Z</time></trkpt><trkpt lat="42.53881789899125" lon="12.035427786805295"><ele>551.0</ele><time>2026-04-25T17:15:04.835Z</time></trkpt><trkpt lat="42.53890107719084" lon="12.035423900002867"><ele>552.1666666666666</ele><time>2026-04-25T17:15:05.835Z</time></trkpt><trkpt lat="42.53897579209689" lon="12.035439679040248"><ele>553.3333333333333</ele><time>2026-04-25T17:15:06.835Z</time></trkpt><trkpt lat="42.53905363520016" lon="12.03546823079058"><ele>554.5</ele><time>2026-04-25T17:15:07.835Z</time></trkpt><trkpt lat="42.53913089181418" lon="12.0355023349666"><ele>555.6666666666666</ele><time>2026-04-25T17:15:08.835Z</time></trkpt><trkpt lat="42.539199447474296" lon="12.035521805850689"><ele>556.8333333333334</ele><time>2026-04-25T17:15:09.835Z</time></trkpt><trkpt lat="42.539296940877605" lon="12.035589368193625"><ele>558.0</ele><time>2026-04-25T17:15:11.835Z</time></trkpt><trkpt lat="42.539407724174666" lon="12.035618099342226"><ele>558.0</ele><time>2026-04-25T17:15:13.835Z</time></trkpt><trkpt lat="42.539534635888835" lon="12.035655420835646"><ele>558.0</ele><time>2026-04-25T17:15:15.835Z</time></trkpt><trkpt lat="42.53960161695313" lon="12.035672153047452"><ele>558.0</ele><time>2026-04-25T17:15:16.835Z</time></trkpt><trkpt lat="42.53966091244113" lon="12.035709653280161"><ele>558.0</ele><time>2026-04-25T17:15:17.835Z</time></trkpt><trkpt lat="42.53972980351883" lon="12.035732547527456"><ele>558.0</ele><time>2026-04-25T17:15:18.835Z</time></trkpt><trkpt lat="42.53987128124135" lon="12.035774384641602"><ele>558.6</ele><time>2026-04-25T17:15:20.835Z</time></trkpt><trkpt lat="42.539957636466475" lon="12.035788577148592"><ele>559.1999999999999</ele><time>2026-04-25T17:15:21.835Z</time></trkpt><trkpt lat="42.54004715979649" lon="12.03579556847085"><ele>559.8</ele><time>2026-04-25T17:15:22.835Z</time></trkpt><trkpt lat="42.54014600918043" lon="12.035806701292834"><ele>560.4</ele><time>2026-04-25T17:15:23.835Z</time></trkpt><trkpt lat="42.540240423789285" lon="12.035830274708575"><ele>561.0</ele><time>2026-04-25T17:15:24.835Z</time></trkpt><trkpt lat="42.54033374771923" lon="12.035847988996666"><ele>559.6</ele><time>2026-04-25T17:15:25.835Z</time></trkpt><trkpt lat="42.54042985264206" lon="12.035862614109652"><ele>558.2</ele><time>2026-04-25T17:15:26.835Z</time></trkpt><trkpt lat="42.540526518302954" lon="12.035871368069223"><ele>556.8</ele><time>2026-04-25T17:15:27.835Z</time></trkpt><trkpt lat="42.54061928759387" lon="12.035885094989272"><ele>555.4</ele><time>2026-04-25T17:15:28.835Z</time></trkpt><trkpt lat="42.540709663567995" lon="12.035898563570848"><ele>554.0</ele><time>2026-04-25T17:15:29.835Z</time></trkpt><trkpt lat="42.54079283929915" lon="12.03590940232966"><ele>554.0</ele><time>2026-04-25T17:15:30.834Z</time></trkpt><trkpt lat="42.54086220162887" lon="12.035927856836542"><ele>554.0</ele><time>2026-04-25T17:15:31.834Z</time></trkpt><trkpt lat="42.540963237082046" lon="12.035948743079908"><ele>554.0</ele><time>2026-04-25T17:15:33.834Z</time></trkpt><trkpt lat="42.54106677443381" lon="12.035954143435298"><ele>554.0</ele><time>2026-04-25T17:15:35.834Z</time></trkpt><trkpt lat="42.54120045618348" lon="12.035988857372143"><ele>554.0</ele><time>2026-04-25T17:15:37.834Z</time></trkpt><trkpt lat="42.541281802813856" lon="12.036005922702039"><ele>551.6</ele><time>2026-04-25T17:15:38.834Z</time></trkpt><trkpt lat="42.54136872375893" lon="12.03603259999551"><ele>549.2</ele><time>2026-04-25T17:15:39.834Z</time></trkpt><trkpt lat="42.541459703083376" lon="12.036072678211637"><ele>546.8000000000001</ele><time>2026-04-25T17:15:40.834Z</time></trkpt><trkpt lat="42.54156462905116" lon="12.03610621749662"><ele>544.4</ele><time>2026-04-25T17:15:41.834Z</time></trkpt><trkpt lat="42.54167497349068" lon="12.036154673212593"><ele>542.0</ele><time>2026-04-25T17:15:42.834Z</time></trkpt><trkpt lat="42.54177590024573" lon="12.036203644922917"><ele>542.0</ele><time>2026-04-25T17:15:43.834Z</time></trkpt><trkpt lat="42.54187179629813" lon="12.036245610021377"><ele>542.0</ele><time>2026-04-25T17:15:44.834Z</time></trkpt><trkpt lat="42.54196533927055" lon="12.036293723435865"><ele>542.0</ele><time>2026-04-25T17:15:45.834Z</time></trkpt><trkpt lat="42.542069150443474" lon="12.03634302009533"><ele>542.0</ele><time>2026-04-25T17:15:46.834Z</time></trkpt><trkpt lat="42.54216537050272" lon="12.036401824240182"><ele>542.0</ele><time>2026-04-25T17:15:47.834Z</time></trkpt><trkpt lat="42.542261600994124" lon="12.03646685942033"><ele>540.75</ele><time>2026-04-25T17:15:48.834Z</time></trkpt><trkpt lat="42.54236502890761" lon="12.036529845725887"><ele>539.5</ele><time>2026-04-25T17:15:49.834Z</time></trkpt><trkpt lat="42.542471810587315" lon="12.0365966627145"><ele>538.25</ele><time>2026-04-25T17:15:50.834Z</time></trkpt><trkpt lat="42.54257859678888" lon="12.036687256946195"><ele>537.0</ele><time>2026-04-25T17:15:51.834Z</time></trkpt><trkpt lat="42.54268342681037" lon="12.036798752934937"><ele>537.0</ele><time>2026-04-25T17:15:52.834Z</time></trkpt><trkpt lat="42.54277861209892" lon="12.036940368872271"><ele>537.0</ele><time>2026-04-25T17:15:53.834Z</time></trkpt><trkpt lat="42.54285084193594" lon="12.037099098023337"><ele>537.0</ele><time>2026-04-25T17:15:54.834Z</time></trkpt><trkpt lat="42.54291249942734" lon="12.037256107543868"><ele>537.0</ele><time>2026-04-25T17:15:55.834Z</time></trkpt><trkpt lat="42.54296767625675" lon="12.037421839261846"><ele>536.25</ele><time>2026-04-25T17:15:56.834Z</time></trkpt><trkpt lat="42.54303339756963" lon="12.03757516812395"><ele>535.5</ele><time>2026-04-25T17:15:57.833Z</time></trkpt><trkpt lat="42.543104683567755" lon="12.037716102493343"><ele>534.75</ele><time>2026-04-25T17:15:58.833Z</time></trkpt><trkpt lat="42.54317345073543" lon="12.03782942819869"><ele>534.0</ele><time>2026-04-25T17:15:59.833Z</time></trkpt><trkpt lat="42.54322909343624" lon="12.037919180422001"><ele>534.0000000000001</ele><time>2026-04-25T17:16:00.833Z</time></trkpt><trkpt lat="42.54327328759563" lon="12.037998876935418"><ele>534.0</ele><time>2026-04-25T17:16:01.833Z</time></trkpt><trkpt lat="42.543322113988786" lon="12.03805908396602"><ele>534.0</ele><time>2026-04-25T17:16:02.833Z</time></trkpt><trkpt lat="42.5433787180352" lon="12.038119066589834"><ele>534.0</ele><time>2026-04-25T17:16:03.833Z</time></trkpt><trkpt lat="42.54344323316195" lon="12.038170663178388"><ele>534.0</ele><time>2026-04-25T17:16:04.833Z</time></trkpt><trkpt lat="42.54351343417726" lon="12.038217141501462"><ele>534.0000000000001</ele><time>2026-04-25T17:16:05.833Z</time></trkpt><trkpt lat="42.543589058931204" lon="12.038263270092756"><ele>534.0</ele><time>2026-04-25T17:16:06.833Z</time></trkpt><trkpt lat="42.5436633480313" lon="12.038302109286546"><ele>533.2</ele><time>2026-04-25T17:16:07.833Z</time></trkpt><trkpt lat="42.54372334902025" lon="12.038332956888086"><ele>532.4</ele><time>2026-04-25T17:16:08.833Z</time></trkpt><trkpt lat="42.54379214536251" lon="12.038395777515555"><ele>531.6</ele><time>2026-04-25T17:16:10.833Z</time></trkpt><trkpt lat="42.5437425608977" lon="12.038624643369493"><ele>530.8</ele><time>2026-04-25T17:16:13.833Z</time></trkpt><trkpt lat="42.543721653357174" lon="12.038721226770745"><ele>530.0</ele><time>2026-04-25T17:16:14.833Z</time></trkpt><trkpt lat="42.54369428599207" lon="12.038798372112925"><ele>530.0</ele><time>2026-04-25T17:16:15.833Z</time></trkpt><trkpt lat="42.543675240073796" lon="12.038886349229537"><ele>530.0</ele><time>2026-04-25T17:16:19.833Z</time></trkpt><trkpt lat="42.543583488392294" lon="12.03883272887053"><ele>530.0</ele><time>2026-04-25T17:16:54.282Z</time></trkpt><trkpt lat="42.54370915225943" lon="12.038822303422666"><ele>530.0</ele><time>2026-04-25T17:24:23.833Z</time></trkpt><trkpt lat="42.5437193594698" lon="12.038914330218741"><ele>530.0</ele><time>2026-04-25T17:24:52.843Z</time></trkpt><trkpt lat="42.543583054358564" lon="12.038832320580067"><ele>530.0</ele><time>2026-04-25T17:25:53.44Z</time></trkpt><trkpt lat="42.54365457630953" lon="12.038833825642584"><ele>530.0</ele><time>2026-04-25T17:26:51.842Z</time></trkpt><trkpt lat="42.543628950061674" lon="12.038913932022203"><ele>530.0</ele><time>2026-04-25T17:27:25.841Z</time></trkpt></trkseg></trk></gpx>